<?xml version="1.0" encoding="UTF-8" standalone="no" ?>
<gpx xmlns="http://www.topografix.com/GPX/1/1" xmlns:xsi="http://www.w3.org/2001/XMLSchema-instance" xsi:schemaLocation="http://www.topografix.com/GPX/1/1 http://www.topografix.com/GPX/1/1/gpx.xsd" version="1.1" creator="VisuGPX - https://www.visugpx.com">
  <metadata>
    <name>La trace du dimanche</name>
    <desc><![CDATA[La trace du dimanche]]></desc>
  </metadata>
  <wpt lat="47.49172" lon="6.76481">
    <ele>315</ele>
    <name><![CDATA[Point de cheminement 1]]></name>
    <desc><![CDATA[]]></desc>
  </wpt>
  <wpt lat="47.47048" lon="6.74393">
    <ele>337</ele>
    <name><![CDATA[Point de cheminement 2]]></name>
    <desc><![CDATA[]]></desc>
  </wpt>
  <wpt lat="47.45984" lon="6.72535">
    <ele>439</ele>
    <name><![CDATA[Point de cheminement 3]]></name>
    <desc><![CDATA[]]></desc>
  </wpt>
  <wpt lat="47.44651" lon="6.70983">
    <ele>447</ele>
    <name><![CDATA[Point de cheminement 4]]></name>
    <desc><![CDATA[]]></desc>
  </wpt>
  <wpt lat="47.4409" lon="6.69958">
    <ele>454</ele>
    <name><![CDATA[Point de cheminement 5]]></name>
    <desc><![CDATA[]]></desc>
  </wpt>
  <wpt lat="47.44015" lon="6.69036">
    <ele>456</ele>
    <name><![CDATA[Point de cheminement 6]]></name>
    <desc><![CDATA[]]></desc>
  </wpt>
  <wpt lat="47.44974" lon="6.69402">
    <ele>389</ele>
    <name><![CDATA[Point de cheminement 7]]></name>
    <desc><![CDATA[]]></desc>
  </wpt>
  <wpt lat="47.45259" lon="6.71148">
    <ele>436</ele>
    <name><![CDATA[Point de cheminement 8]]></name>
    <desc><![CDATA[]]></desc>
  </wpt>
  <wpt lat="47.4458" lon="6.72719">
    <ele>481</ele>
    <name><![CDATA[Point de cheminement 9]]></name>
    <desc><![CDATA[]]></desc>
  </wpt>
  <wpt lat="47.45634" lon="6.7369">
    <ele>456</ele>
    <name><![CDATA[Point de cheminement 10]]></name>
    <desc><![CDATA[]]></desc>
  </wpt>
  <wpt lat="47.46425" lon="6.74345">
    <ele>403</ele>
    <name><![CDATA[Point de cheminement 11]]></name>
    <desc><![CDATA[]]></desc>
  </wpt>
  <wpt lat="47.48106" lon="6.76645">
    <ele>312</ele>
    <name><![CDATA[Point de cheminement 12]]></name>
    <desc><![CDATA[]]></desc>
  </wpt>
  <wpt lat="47.4952" lon="6.76606">
    <ele>354</ele>
    <name><![CDATA[Point de cheminement 13]]></name>
    <desc><![CDATA[]]></desc>
  </wpt>
  <wpt lat="47.51794" lon="6.77456">
    <ele>388</ele>
    <name><![CDATA[Point de cheminement 14]]></name>
    <desc><![CDATA[]]></desc>
  </wpt>
  <trk>
    <name><![CDATA[28/06/2015 9:21]]></name>
    <desc><![CDATA[]]></desc>
    <trkseg>
      <trkpt lat="47.51817" lon="6.77498">
        <ele>387</ele>
        <time>2015-06-28T07:22:01.446Z</time>
      </trkpt>
      <trkpt lat="47.51813" lon="6.77494">
        <ele>388</ele>
        <time>2015-06-28T07:22:02.446Z</time>
      </trkpt>
      <trkpt lat="47.51804" lon="6.77486">
        <ele>388</ele>
        <time>2015-06-28T07:22:03.446Z</time>
      </trkpt>
      <trkpt lat="47.51802" lon="6.77477">
        <ele>388</ele>
        <time>2015-06-28T07:22:04.449Z</time>
      </trkpt>
      <trkpt lat="47.51804" lon="6.77482">
        <ele>388</ele>
        <time>2015-06-28T07:22:39.000Z</time>
      </trkpt>
      <trkpt lat="47.51804" lon="6.77484">
        <ele>388</ele>
        <time>2015-06-28T07:22:40.000Z</time>
      </trkpt>
      <trkpt lat="47.51804" lon="6.7749">
        <ele>388</ele>
        <time>2015-06-28T07:22:44.000Z</time>
      </trkpt>
      <trkpt lat="47.51802" lon="6.77491">
        <ele>388</ele>
        <time>2015-06-28T07:22:45.000Z</time>
      </trkpt>
      <trkpt lat="47.51799" lon="6.7749">
        <ele>388</ele>
        <time>2015-06-28T07:22:46.000Z</time>
      </trkpt>
      <trkpt lat="47.51795" lon="6.77489">
        <ele>388</ele>
        <time>2015-06-28T07:22:47.000Z</time>
      </trkpt>
      <trkpt lat="47.51791" lon="6.77488">
        <ele>388</ele>
        <time>2015-06-28T07:22:48.000Z</time>
      </trkpt>
      <trkpt lat="47.51788" lon="6.77486">
        <ele>388</ele>
        <time>2015-06-28T07:22:49.000Z</time>
      </trkpt>
      <trkpt lat="47.51786" lon="6.77485">
        <ele>388</ele>
        <time>2015-06-28T07:22:50.000Z</time>
      </trkpt>
      <trkpt lat="47.51783" lon="6.77483">
        <ele>388</ele>
        <time>2015-06-28T07:22:51.000Z</time>
      </trkpt>
      <trkpt lat="47.51781" lon="6.77482">
        <ele>388</ele>
        <time>2015-06-28T07:22:52.000Z</time>
      </trkpt>
      <trkpt lat="47.51779" lon="6.77481">
        <ele>388</ele>
        <time>2015-06-28T07:22:53.000Z</time>
      </trkpt>
      <trkpt lat="47.51776" lon="6.7748">
        <ele>388</ele>
        <time>2015-06-28T07:22:54.000Z</time>
      </trkpt>
      <trkpt lat="47.51774" lon="6.77479">
        <ele>388</ele>
        <time>2015-06-28T07:22:55.000Z</time>
      </trkpt>
      <trkpt lat="47.51771" lon="6.77478">
        <ele>388</ele>
        <time>2015-06-28T07:22:56.000Z</time>
      </trkpt>
      <trkpt lat="47.51767" lon="6.77478">
        <ele>388</ele>
        <time>2015-06-28T07:22:57.000Z</time>
      </trkpt>
      <trkpt lat="47.51763" lon="6.77477">
        <ele>389</ele>
        <time>2015-06-28T07:22:58.000Z</time>
      </trkpt>
      <trkpt lat="47.51759" lon="6.77477">
        <ele>389</ele>
        <time>2015-06-28T07:22:59.000Z</time>
      </trkpt>
      <trkpt lat="47.51755" lon="6.77475">
        <ele>389</ele>
        <time>2015-06-28T07:23:00.000Z</time>
      </trkpt>
      <trkpt lat="47.5175" lon="6.77474">
        <ele>389</ele>
        <time>2015-06-28T07:23:01.000Z</time>
      </trkpt>
      <trkpt lat="47.51744" lon="6.77473">
        <ele>389</ele>
        <time>2015-06-28T07:23:02.000Z</time>
      </trkpt>
      <trkpt lat="47.51739" lon="6.77473">
        <ele>389</ele>
        <time>2015-06-28T07:23:03.000Z</time>
      </trkpt>
      <trkpt lat="47.51734" lon="6.77477">
        <ele>389</ele>
        <time>2015-06-28T07:23:04.000Z</time>
      </trkpt>
      <trkpt lat="47.51729" lon="6.77499">
        <ele>389</ele>
        <time>2015-06-28T07:23:05.000Z</time>
      </trkpt>
      <trkpt lat="47.51727" lon="6.77506">
        <ele>390</ele>
        <time>2015-06-28T07:23:06.000Z</time>
      </trkpt>
      <trkpt lat="47.51724" lon="6.77511">
        <ele>390</ele>
        <time>2015-06-28T07:23:07.000Z</time>
      </trkpt>
      <trkpt lat="47.51723" lon="6.77517">
        <ele>390</ele>
        <time>2015-06-28T07:23:08.000Z</time>
      </trkpt>
      <trkpt lat="47.5172" lon="6.77524">
        <ele>390</ele>
        <time>2015-06-28T07:23:09.000Z</time>
      </trkpt>
      <trkpt lat="47.51718" lon="6.7753">
        <ele>390</ele>
        <time>2015-06-28T07:23:10.000Z</time>
      </trkpt>
      <trkpt lat="47.51715" lon="6.77536">
        <ele>390</ele>
        <time>2015-06-28T07:23:11.000Z</time>
      </trkpt>
      <trkpt lat="47.51714" lon="6.77541">
        <ele>390</ele>
        <time>2015-06-28T07:23:12.000Z</time>
      </trkpt>
      <trkpt lat="47.51712" lon="6.77545">
        <ele>390</ele>
        <time>2015-06-28T07:23:13.000Z</time>
      </trkpt>
      <trkpt lat="47.5171" lon="6.77551">
        <ele>390</ele>
        <time>2015-06-28T07:23:15.000Z</time>
      </trkpt>
      <trkpt lat="47.51704" lon="6.7755">
        <ele>390</ele>
        <time>2015-06-28T07:23:16.000Z</time>
      </trkpt>
      <trkpt lat="47.51703" lon="6.77548">
        <ele>390</ele>
        <time>2015-06-28T07:23:17.000Z</time>
      </trkpt>
      <trkpt lat="47.51699" lon="6.77542">
        <ele>390</ele>
        <time>2015-06-28T07:23:18.000Z</time>
      </trkpt>
      <trkpt lat="47.51696" lon="6.77537">
        <ele>390</ele>
        <time>2015-06-28T07:23:19.000Z</time>
      </trkpt>
      <trkpt lat="47.51692" lon="6.77533">
        <ele>390</ele>
        <time>2015-06-28T07:23:20.000Z</time>
      </trkpt>
      <trkpt lat="47.51681" lon="6.77522">
        <ele>390</ele>
        <time>2015-06-28T07:23:21.000Z</time>
      </trkpt>
      <trkpt lat="47.51677" lon="6.77515">
        <ele>389</ele>
        <time>2015-06-28T07:23:22.000Z</time>
      </trkpt>
      <trkpt lat="47.51673" lon="6.77509">
        <ele>389</ele>
        <time>2015-06-28T07:23:23.000Z</time>
      </trkpt>
      <trkpt lat="47.51669" lon="6.77503">
        <ele>389</ele>
        <time>2015-06-28T07:23:24.000Z</time>
      </trkpt>
      <trkpt lat="47.51664" lon="6.77497">
        <ele>389</ele>
        <time>2015-06-28T07:23:25.000Z</time>
      </trkpt>
      <trkpt lat="47.51659" lon="6.7749">
        <ele>388</ele>
        <time>2015-06-28T07:23:26.000Z</time>
      </trkpt>
      <trkpt lat="47.51653" lon="6.77483">
        <ele>387</ele>
        <time>2015-06-28T07:23:27.000Z</time>
      </trkpt>
      <trkpt lat="47.51646" lon="6.77478">
        <ele>387</ele>
        <time>2015-06-28T07:23:28.000Z</time>
      </trkpt>
      <trkpt lat="47.5164" lon="6.77471">
        <ele>386</ele>
        <time>2015-06-28T07:23:29.000Z</time>
      </trkpt>
      <trkpt lat="47.51634" lon="6.77465">
        <ele>386</ele>
        <time>2015-06-28T07:23:30.000Z</time>
      </trkpt>
      <trkpt lat="47.51629" lon="6.77458">
        <ele>386</ele>
        <time>2015-06-28T07:23:31.000Z</time>
      </trkpt>
      <trkpt lat="47.51623" lon="6.77451">
        <ele>386</ele>
        <time>2015-06-28T07:23:32.000Z</time>
      </trkpt>
      <trkpt lat="47.51617" lon="6.77445">
        <ele>385</ele>
        <time>2015-06-28T07:23:33.000Z</time>
      </trkpt>
      <trkpt lat="47.51611" lon="6.77438">
        <ele>385</ele>
        <time>2015-06-28T07:23:34.000Z</time>
      </trkpt>
      <trkpt lat="47.51606" lon="6.77431">
        <ele>385</ele>
        <time>2015-06-28T07:23:35.000Z</time>
      </trkpt>
      <trkpt lat="47.51599" lon="6.77424">
        <ele>384</ele>
        <time>2015-06-28T07:23:36.000Z</time>
      </trkpt>
      <trkpt lat="47.51593" lon="6.77416">
        <ele>383</ele>
        <time>2015-06-28T07:23:37.000Z</time>
      </trkpt>
      <trkpt lat="47.51587" lon="6.77409">
        <ele>383</ele>
        <time>2015-06-28T07:23:38.000Z</time>
      </trkpt>
      <trkpt lat="47.5158" lon="6.77402">
        <ele>382</ele>
        <time>2015-06-28T07:23:39.000Z</time>
      </trkpt>
      <trkpt lat="47.51574" lon="6.77394">
        <ele>381</ele>
        <time>2015-06-28T07:23:40.000Z</time>
      </trkpt>
      <trkpt lat="47.51568" lon="6.77386">
        <ele>381</ele>
        <time>2015-06-28T07:23:41.000Z</time>
      </trkpt>
      <trkpt lat="47.51561" lon="6.77379">
        <ele>381</ele>
        <time>2015-06-28T07:23:42.000Z</time>
      </trkpt>
      <trkpt lat="47.51555" lon="6.7737">
        <ele>381</ele>
        <time>2015-06-28T07:23:43.000Z</time>
      </trkpt>
      <trkpt lat="47.51547" lon="6.77362">
        <ele>380</ele>
        <time>2015-06-28T07:23:44.000Z</time>
      </trkpt>
      <trkpt lat="47.51541" lon="6.77354">
        <ele>380</ele>
        <time>2015-06-28T07:23:45.000Z</time>
      </trkpt>
      <trkpt lat="47.51534" lon="6.77347">
        <ele>380</ele>
        <time>2015-06-28T07:23:46.000Z</time>
      </trkpt>
      <trkpt lat="47.51528" lon="6.7734">
        <ele>380</ele>
        <time>2015-06-28T07:23:47.000Z</time>
      </trkpt>
      <trkpt lat="47.51522" lon="6.77332">
        <ele>378</ele>
        <time>2015-06-28T07:23:48.000Z</time>
      </trkpt>
      <trkpt lat="47.51515" lon="6.77325">
        <ele>378</ele>
        <time>2015-06-28T07:23:49.000Z</time>
      </trkpt>
      <trkpt lat="47.51508" lon="6.77316">
        <ele>378</ele>
        <time>2015-06-28T07:23:50.000Z</time>
      </trkpt>
      <trkpt lat="47.51502" lon="6.77307">
        <ele>378</ele>
        <time>2015-06-28T07:23:51.000Z</time>
      </trkpt>
      <trkpt lat="47.51495" lon="6.77286">
        <ele>377</ele>
        <time>2015-06-28T07:23:53.000Z</time>
      </trkpt>
      <trkpt lat="47.51493" lon="6.77274">
        <ele>377</ele>
        <time>2015-06-28T07:23:54.000Z</time>
      </trkpt>
      <trkpt lat="47.51492" lon="6.77263">
        <ele>376</ele>
        <time>2015-06-28T07:23:55.000Z</time>
      </trkpt>
      <trkpt lat="47.51491" lon="6.77251">
        <ele>376</ele>
        <time>2015-06-28T07:23:56.000Z</time>
      </trkpt>
      <trkpt lat="47.51491" lon="6.7724">
        <ele>376</ele>
        <time>2015-06-28T07:23:57.000Z</time>
      </trkpt>
      <trkpt lat="47.51491" lon="6.77229">
        <ele>375</ele>
        <time>2015-06-28T07:23:58.000Z</time>
      </trkpt>
      <trkpt lat="47.5149" lon="6.77217">
        <ele>375</ele>
        <time>2015-06-28T07:23:59.000Z</time>
      </trkpt>
      <trkpt lat="47.51488" lon="6.77208">
        <ele>375</ele>
        <time>2015-06-28T07:24:00.000Z</time>
      </trkpt>
      <trkpt lat="47.5148" lon="6.77202">
        <ele>375</ele>
        <time>2015-06-28T07:24:01.000Z</time>
      </trkpt>
      <trkpt lat="47.51473" lon="6.77201">
        <ele>375</ele>
        <time>2015-06-28T07:24:02.000Z</time>
      </trkpt>
      <trkpt lat="47.51464" lon="6.77204">
        <ele>375</ele>
        <time>2015-06-28T07:24:03.000Z</time>
      </trkpt>
      <trkpt lat="47.51456" lon="6.77207">
        <ele>375</ele>
        <time>2015-06-28T07:24:04.000Z</time>
      </trkpt>
      <trkpt lat="47.51448" lon="6.77211">
        <ele>375</ele>
        <time>2015-06-28T07:24:05.000Z</time>
      </trkpt>
      <trkpt lat="47.51441" lon="6.77214">
        <ele>375</ele>
        <time>2015-06-28T07:24:06.000Z</time>
      </trkpt>
      <trkpt lat="47.51433" lon="6.77217">
        <ele>375</ele>
        <time>2015-06-28T07:24:07.000Z</time>
      </trkpt>
      <trkpt lat="47.51424" lon="6.77221">
        <ele>375</ele>
        <time>2015-06-28T07:24:08.000Z</time>
      </trkpt>
      <trkpt lat="47.51418" lon="6.77224">
        <ele>375</ele>
        <time>2015-06-28T07:24:09.000Z</time>
      </trkpt>
      <trkpt lat="47.51411" lon="6.77228">
        <ele>376</ele>
        <time>2015-06-28T07:24:10.000Z</time>
      </trkpt>
      <trkpt lat="47.51404" lon="6.77231">
        <ele>376</ele>
        <time>2015-06-28T07:24:11.000Z</time>
      </trkpt>
      <trkpt lat="47.51399" lon="6.77235">
        <ele>376</ele>
        <time>2015-06-28T07:24:12.000Z</time>
      </trkpt>
      <trkpt lat="47.51393" lon="6.77237">
        <ele>376</ele>
        <time>2015-06-28T07:24:13.000Z</time>
      </trkpt>
      <trkpt lat="47.51388" lon="6.7724">
        <ele>376</ele>
        <time>2015-06-28T07:24:14.000Z</time>
      </trkpt>
      <trkpt lat="47.51383" lon="6.77244">
        <ele>376</ele>
        <time>2015-06-28T07:24:15.000Z</time>
      </trkpt>
      <trkpt lat="47.51378" lon="6.77248">
        <ele>376</ele>
        <time>2015-06-28T07:24:16.000Z</time>
      </trkpt>
      <trkpt lat="47.51373" lon="6.77251">
        <ele>377</ele>
        <time>2015-06-28T07:24:17.000Z</time>
      </trkpt>
      <trkpt lat="47.5137" lon="6.77254">
        <ele>378</ele>
        <time>2015-06-28T07:24:18.000Z</time>
      </trkpt>
      <trkpt lat="47.51366" lon="6.77256">
        <ele>378</ele>
        <time>2015-06-28T07:24:19.000Z</time>
      </trkpt>
      <trkpt lat="47.51362" lon="6.77259">
        <ele>378</ele>
        <time>2015-06-28T07:24:20.000Z</time>
      </trkpt>
      <trkpt lat="47.51358" lon="6.77262">
        <ele>378</ele>
        <time>2015-06-28T07:24:21.000Z</time>
      </trkpt>
      <trkpt lat="47.51355" lon="6.77265">
        <ele>378</ele>
        <time>2015-06-28T07:24:22.000Z</time>
      </trkpt>
      <trkpt lat="47.51352" lon="6.77268">
        <ele>378</ele>
        <time>2015-06-28T07:24:23.000Z</time>
      </trkpt>
      <trkpt lat="47.51348" lon="6.77271">
        <ele>378</ele>
        <time>2015-06-28T07:24:24.000Z</time>
      </trkpt>
      <trkpt lat="47.51345" lon="6.77273">
        <ele>378</ele>
        <time>2015-06-28T07:24:25.000Z</time>
      </trkpt>
      <trkpt lat="47.51342" lon="6.77276">
        <ele>378</ele>
        <time>2015-06-28T07:24:26.000Z</time>
      </trkpt>
      <trkpt lat="47.5134" lon="6.77279">
        <ele>378</ele>
        <time>2015-06-28T07:24:27.000Z</time>
      </trkpt>
      <trkpt lat="47.51337" lon="6.77281">
        <ele>378</ele>
        <time>2015-06-28T07:24:28.000Z</time>
      </trkpt>
      <trkpt lat="47.51334" lon="6.77283">
        <ele>378</ele>
        <time>2015-06-28T07:24:29.000Z</time>
      </trkpt>
      <trkpt lat="47.51331" lon="6.77284">
        <ele>378</ele>
        <time>2015-06-28T07:24:30.000Z</time>
      </trkpt>
      <trkpt lat="47.51327" lon="6.77285">
        <ele>378</ele>
        <time>2015-06-28T07:24:31.000Z</time>
      </trkpt>
      <trkpt lat="47.51324" lon="6.77285">
        <ele>377</ele>
        <time>2015-06-28T07:24:32.000Z</time>
      </trkpt>
      <trkpt lat="47.5132" lon="6.77286">
        <ele>377</ele>
        <time>2015-06-28T07:24:33.000Z</time>
      </trkpt>
      <trkpt lat="47.51317" lon="6.77286">
        <ele>377</ele>
        <time>2015-06-28T07:24:34.000Z</time>
      </trkpt>
      <trkpt lat="47.51313" lon="6.77285">
        <ele>377</ele>
        <time>2015-06-28T07:24:35.000Z</time>
      </trkpt>
      <trkpt lat="47.5131" lon="6.77284">
        <ele>377</ele>
        <time>2015-06-28T07:24:36.000Z</time>
      </trkpt>
      <trkpt lat="47.51306" lon="6.77283">
        <ele>377</ele>
        <time>2015-06-28T07:24:37.000Z</time>
      </trkpt>
      <trkpt lat="47.51303" lon="6.77281">
        <ele>377</ele>
        <time>2015-06-28T07:24:38.000Z</time>
      </trkpt>
      <trkpt lat="47.51299" lon="6.7728">
        <ele>377</ele>
        <time>2015-06-28T07:24:39.000Z</time>
      </trkpt>
      <trkpt lat="47.51295" lon="6.77278">
        <ele>377</ele>
        <time>2015-06-28T07:24:40.000Z</time>
      </trkpt>
      <trkpt lat="47.51291" lon="6.77276">
        <ele>377</ele>
        <time>2015-06-28T07:24:41.000Z</time>
      </trkpt>
      <trkpt lat="47.51288" lon="6.77273">
        <ele>377</ele>
        <time>2015-06-28T07:24:42.000Z</time>
      </trkpt>
      <trkpt lat="47.51284" lon="6.77271">
        <ele>377</ele>
        <time>2015-06-28T07:24:43.000Z</time>
      </trkpt>
      <trkpt lat="47.5128" lon="6.77268">
        <ele>377</ele>
        <time>2015-06-28T07:24:44.000Z</time>
      </trkpt>
      <trkpt lat="47.51276" lon="6.77266">
        <ele>377</ele>
        <time>2015-06-28T07:24:45.000Z</time>
      </trkpt>
      <trkpt lat="47.51273" lon="6.77263">
        <ele>377</ele>
        <time>2015-06-28T07:24:46.000Z</time>
      </trkpt>
      <trkpt lat="47.51269" lon="6.77261">
        <ele>377</ele>
        <time>2015-06-28T07:24:47.000Z</time>
      </trkpt>
      <trkpt lat="47.51265" lon="6.77256">
        <ele>378</ele>
        <time>2015-06-28T07:24:48.000Z</time>
      </trkpt>
      <trkpt lat="47.51261" lon="6.77252">
        <ele>378</ele>
        <time>2015-06-28T07:24:49.000Z</time>
      </trkpt>
      <trkpt lat="47.51258" lon="6.77247">
        <ele>379</ele>
        <time>2015-06-28T07:24:50.000Z</time>
      </trkpt>
      <trkpt lat="47.51255" lon="6.77242">
        <ele>379</ele>
        <time>2015-06-28T07:24:51.000Z</time>
      </trkpt>
      <trkpt lat="47.51252" lon="6.77236">
        <ele>378</ele>
        <time>2015-06-28T07:24:52.000Z</time>
      </trkpt>
      <trkpt lat="47.51249" lon="6.77231">
        <ele>377</ele>
        <time>2015-06-28T07:24:53.000Z</time>
      </trkpt>
      <trkpt lat="47.51246" lon="6.77224">
        <ele>376</ele>
        <time>2015-06-28T07:24:54.000Z</time>
      </trkpt>
      <trkpt lat="47.51243" lon="6.77218">
        <ele>376</ele>
        <time>2015-06-28T07:24:55.000Z</time>
      </trkpt>
      <trkpt lat="47.5124" lon="6.77212">
        <ele>376</ele>
        <time>2015-06-28T07:24:56.000Z</time>
      </trkpt>
      <trkpt lat="47.51236" lon="6.77205">
        <ele>376</ele>
        <time>2015-06-28T07:24:57.000Z</time>
      </trkpt>
      <trkpt lat="47.51232" lon="6.77198">
        <ele>376</ele>
        <time>2015-06-28T07:24:58.000Z</time>
      </trkpt>
      <trkpt lat="47.51228" lon="6.77191">
        <ele>376</ele>
        <time>2015-06-28T07:24:59.000Z</time>
      </trkpt>
      <trkpt lat="47.51225" lon="6.77184">
        <ele>376</ele>
        <time>2015-06-28T07:25:00.000Z</time>
      </trkpt>
      <trkpt lat="47.51221" lon="6.77176">
        <ele>376</ele>
        <time>2015-06-28T07:25:01.000Z</time>
      </trkpt>
      <trkpt lat="47.51218" lon="6.77168">
        <ele>376</ele>
        <time>2015-06-28T07:25:02.000Z</time>
      </trkpt>
      <trkpt lat="47.51213" lon="6.77161">
        <ele>378</ele>
        <time>2015-06-28T07:25:03.000Z</time>
      </trkpt>
      <trkpt lat="47.5121" lon="6.77152">
        <ele>378</ele>
        <time>2015-06-28T07:25:04.000Z</time>
      </trkpt>
      <trkpt lat="47.51205" lon="6.77144">
        <ele>378</ele>
        <time>2015-06-28T07:25:05.000Z</time>
      </trkpt>
      <trkpt lat="47.512" lon="6.77135">
        <ele>378</ele>
        <time>2015-06-28T07:25:06.000Z</time>
      </trkpt>
      <trkpt lat="47.51196" lon="6.77125">
        <ele>378</ele>
        <time>2015-06-28T07:25:07.000Z</time>
      </trkpt>
      <trkpt lat="47.51191" lon="6.77117">
        <ele>378</ele>
        <time>2015-06-28T07:25:08.000Z</time>
      </trkpt>
      <trkpt lat="47.51186" lon="6.77108">
        <ele>378</ele>
        <time>2015-06-28T07:25:09.000Z</time>
      </trkpt>
      <trkpt lat="47.51181" lon="6.77099">
        <ele>378</ele>
        <time>2015-06-28T07:25:10.000Z</time>
      </trkpt>
      <trkpt lat="47.51176" lon="6.77089">
        <ele>378</ele>
        <time>2015-06-28T07:25:11.000Z</time>
      </trkpt>
      <trkpt lat="47.51171" lon="6.7708">
        <ele>377</ele>
        <time>2015-06-28T07:25:12.000Z</time>
      </trkpt>
      <trkpt lat="47.51165" lon="6.77073">
        <ele>377</ele>
        <time>2015-06-28T07:25:13.000Z</time>
      </trkpt>
      <trkpt lat="47.51159" lon="6.77065">
        <ele>376</ele>
        <time>2015-06-28T07:25:14.000Z</time>
      </trkpt>
      <trkpt lat="47.51153" lon="6.77058">
        <ele>376</ele>
        <time>2015-06-28T07:25:15.000Z</time>
      </trkpt>
      <trkpt lat="47.51147" lon="6.77052">
        <ele>376</ele>
        <time>2015-06-28T07:25:16.000Z</time>
      </trkpt>
      <trkpt lat="47.51141" lon="6.77046">
        <ele>376</ele>
        <time>2015-06-28T07:25:17.000Z</time>
      </trkpt>
      <trkpt lat="47.51134" lon="6.7704">
        <ele>375</ele>
        <time>2015-06-28T07:25:18.000Z</time>
      </trkpt>
      <trkpt lat="47.51127" lon="6.77034">
        <ele>375</ele>
        <time>2015-06-28T07:25:19.000Z</time>
      </trkpt>
      <trkpt lat="47.51123" lon="6.77028">
        <ele>375</ele>
        <time>2015-06-28T07:25:20.000Z</time>
      </trkpt>
      <trkpt lat="47.51116" lon="6.77022">
        <ele>375</ele>
        <time>2015-06-28T07:25:21.000Z</time>
      </trkpt>
      <trkpt lat="47.5111" lon="6.77016">
        <ele>375</ele>
        <time>2015-06-28T07:25:22.000Z</time>
      </trkpt>
      <trkpt lat="47.51104" lon="6.7701">
        <ele>375</ele>
        <time>2015-06-28T07:25:23.000Z</time>
      </trkpt>
      <trkpt lat="47.51098" lon="6.77005">
        <ele>375</ele>
        <time>2015-06-28T07:25:24.000Z</time>
      </trkpt>
      <trkpt lat="47.51091" lon="6.76999">
        <ele>375</ele>
        <time>2015-06-28T07:25:25.000Z</time>
      </trkpt>
      <trkpt lat="47.51084" lon="6.76992">
        <ele>375</ele>
        <time>2015-06-28T07:25:26.000Z</time>
      </trkpt>
      <trkpt lat="47.51077" lon="6.76987">
        <ele>375</ele>
        <time>2015-06-28T07:25:27.000Z</time>
      </trkpt>
      <trkpt lat="47.5107" lon="6.76982">
        <ele>375</ele>
        <time>2015-06-28T07:25:28.000Z</time>
      </trkpt>
      <trkpt lat="47.51065" lon="6.76975">
        <ele>375</ele>
        <time>2015-06-28T07:25:29.000Z</time>
      </trkpt>
      <trkpt lat="47.51059" lon="6.7697">
        <ele>375</ele>
        <time>2015-06-28T07:25:30.000Z</time>
      </trkpt>
      <trkpt lat="47.51052" lon="6.76965">
        <ele>375</ele>
        <time>2015-06-28T07:25:31.000Z</time>
      </trkpt>
      <trkpt lat="47.51046" lon="6.76961">
        <ele>375</ele>
        <time>2015-06-28T07:25:32.000Z</time>
      </trkpt>
      <trkpt lat="47.51039" lon="6.76956">
        <ele>375</ele>
        <time>2015-06-28T07:25:33.000Z</time>
      </trkpt>
      <trkpt lat="47.51034" lon="6.7695">
        <ele>375</ele>
        <time>2015-06-28T07:25:34.000Z</time>
      </trkpt>
      <trkpt lat="47.51028" lon="6.76945">
        <ele>375</ele>
        <time>2015-06-28T07:25:35.000Z</time>
      </trkpt>
      <trkpt lat="47.51022" lon="6.76941">
        <ele>375</ele>
        <time>2015-06-28T07:25:36.000Z</time>
      </trkpt>
      <trkpt lat="47.51016" lon="6.76937">
        <ele>375</ele>
        <time>2015-06-28T07:25:37.000Z</time>
      </trkpt>
      <trkpt lat="47.51012" lon="6.76933">
        <ele>375</ele>
        <time>2015-06-28T07:25:38.000Z</time>
      </trkpt>
      <trkpt lat="47.51007" lon="6.76928">
        <ele>375</ele>
        <time>2015-06-28T07:25:39.000Z</time>
      </trkpt>
      <trkpt lat="47.51002" lon="6.76924">
        <ele>376</ele>
        <time>2015-06-28T07:25:40.000Z</time>
      </trkpt>
      <trkpt lat="47.50996" lon="6.7692">
        <ele>375</ele>
        <time>2015-06-28T07:25:41.000Z</time>
      </trkpt>
      <trkpt lat="47.50991" lon="6.76915">
        <ele>376</ele>
        <time>2015-06-28T07:25:42.000Z</time>
      </trkpt>
      <trkpt lat="47.50985" lon="6.7691">
        <ele>377</ele>
        <time>2015-06-28T07:25:43.000Z</time>
      </trkpt>
      <trkpt lat="47.50979" lon="6.76908">
        <ele>377</ele>
        <time>2015-06-28T07:25:44.000Z</time>
      </trkpt>
      <trkpt lat="47.50974" lon="6.76906">
        <ele>377</ele>
        <time>2015-06-28T07:25:45.000Z</time>
      </trkpt>
      <trkpt lat="47.50968" lon="6.76903">
        <ele>377</ele>
        <time>2015-06-28T07:25:46.000Z</time>
      </trkpt>
      <trkpt lat="47.50964" lon="6.76899">
        <ele>377</ele>
        <time>2015-06-28T07:25:47.000Z</time>
      </trkpt>
      <trkpt lat="47.5096" lon="6.76894">
        <ele>377</ele>
        <time>2015-06-28T07:25:48.000Z</time>
      </trkpt>
      <trkpt lat="47.50955" lon="6.76889">
        <ele>377</ele>
        <time>2015-06-28T07:25:49.000Z</time>
      </trkpt>
      <trkpt lat="47.5095" lon="6.76885">
        <ele>378</ele>
        <time>2015-06-28T07:25:50.000Z</time>
      </trkpt>
      <trkpt lat="47.50946" lon="6.76881">
        <ele>378</ele>
        <time>2015-06-28T07:25:51.000Z</time>
      </trkpt>
      <trkpt lat="47.50941" lon="6.76876">
        <ele>378</ele>
        <time>2015-06-28T07:25:52.000Z</time>
      </trkpt>
      <trkpt lat="47.50937" lon="6.76872">
        <ele>378</ele>
        <time>2015-06-28T07:25:53.000Z</time>
      </trkpt>
      <trkpt lat="47.50933" lon="6.76867">
        <ele>378</ele>
        <time>2015-06-28T07:25:54.000Z</time>
      </trkpt>
      <trkpt lat="47.5093" lon="6.76861">
        <ele>378</ele>
        <time>2015-06-28T07:25:55.000Z</time>
      </trkpt>
      <trkpt lat="47.50927" lon="6.76855">
        <ele>378</ele>
        <time>2015-06-28T07:25:56.000Z</time>
      </trkpt>
      <trkpt lat="47.50924" lon="6.76848">
        <ele>379</ele>
        <time>2015-06-28T07:25:57.000Z</time>
      </trkpt>
      <trkpt lat="47.50921" lon="6.76841">
        <ele>379</ele>
        <time>2015-06-28T07:25:58.000Z</time>
      </trkpt>
      <trkpt lat="47.50917" lon="6.76835">
        <ele>380</ele>
        <time>2015-06-28T07:25:59.000Z</time>
      </trkpt>
      <trkpt lat="47.50915" lon="6.76828">
        <ele>380</ele>
        <time>2015-06-28T07:26:00.000Z</time>
      </trkpt>
      <trkpt lat="47.50911" lon="6.76821">
        <ele>381</ele>
        <time>2015-06-28T07:26:01.000Z</time>
      </trkpt>
      <trkpt lat="47.50909" lon="6.76814">
        <ele>381</ele>
        <time>2015-06-28T07:26:02.000Z</time>
      </trkpt>
      <trkpt lat="47.50906" lon="6.76807">
        <ele>381</ele>
        <time>2015-06-28T07:26:03.000Z</time>
      </trkpt>
      <trkpt lat="47.50903" lon="6.768">
        <ele>381</ele>
        <time>2015-06-28T07:26:04.000Z</time>
      </trkpt>
      <trkpt lat="47.509" lon="6.76794">
        <ele>381</ele>
        <time>2015-06-28T07:26:05.000Z</time>
      </trkpt>
      <trkpt lat="47.50897" lon="6.76788">
        <ele>381</ele>
        <time>2015-06-28T07:26:06.000Z</time>
      </trkpt>
      <trkpt lat="47.50894" lon="6.76781">
        <ele>381</ele>
        <time>2015-06-28T07:26:07.000Z</time>
      </trkpt>
      <trkpt lat="47.50892" lon="6.76774">
        <ele>381</ele>
        <time>2015-06-28T07:26:08.000Z</time>
      </trkpt>
      <trkpt lat="47.50889" lon="6.76768">
        <ele>381</ele>
        <time>2015-06-28T07:26:09.000Z</time>
      </trkpt>
      <trkpt lat="47.50887" lon="6.76762">
        <ele>381</ele>
        <time>2015-06-28T07:26:10.000Z</time>
      </trkpt>
      <trkpt lat="47.50885" lon="6.76756">
        <ele>381</ele>
        <time>2015-06-28T07:26:11.000Z</time>
      </trkpt>
      <trkpt lat="47.50884" lon="6.7675">
        <ele>382</ele>
        <time>2015-06-28T07:26:12.000Z</time>
      </trkpt>
      <trkpt lat="47.50882" lon="6.76744">
        <ele>382</ele>
        <time>2015-06-28T07:26:13.000Z</time>
      </trkpt>
      <trkpt lat="47.5088" lon="6.76738">
        <ele>383</ele>
        <time>2015-06-28T07:26:14.000Z</time>
      </trkpt>
      <trkpt lat="47.50878" lon="6.76731">
        <ele>383</ele>
        <time>2015-06-28T07:26:15.000Z</time>
      </trkpt>
      <trkpt lat="47.50877" lon="6.76725">
        <ele>383</ele>
        <time>2015-06-28T07:26:16.000Z</time>
      </trkpt>
      <trkpt lat="47.50875" lon="6.76718">
        <ele>383</ele>
        <time>2015-06-28T07:26:17.000Z</time>
      </trkpt>
      <trkpt lat="47.50872" lon="6.76713">
        <ele>383</ele>
        <time>2015-06-28T07:26:18.000Z</time>
      </trkpt>
      <trkpt lat="47.5087" lon="6.76707">
        <ele>384</ele>
        <time>2015-06-28T07:26:19.000Z</time>
      </trkpt>
      <trkpt lat="47.50867" lon="6.76701">
        <ele>384</ele>
        <time>2015-06-28T07:26:20.000Z</time>
      </trkpt>
      <trkpt lat="47.50864" lon="6.76695">
        <ele>384</ele>
        <time>2015-06-28T07:26:21.000Z</time>
      </trkpt>
      <trkpt lat="47.50862" lon="6.76689">
        <ele>384</ele>
        <time>2015-06-28T07:26:22.000Z</time>
      </trkpt>
      <trkpt lat="47.5086" lon="6.76683">
        <ele>385</ele>
        <time>2015-06-28T07:26:23.000Z</time>
      </trkpt>
      <trkpt lat="47.50857" lon="6.76678">
        <ele>385</ele>
        <time>2015-06-28T07:26:24.000Z</time>
      </trkpt>
      <trkpt lat="47.50855" lon="6.76673">
        <ele>385</ele>
        <time>2015-06-28T07:26:25.000Z</time>
      </trkpt>
      <trkpt lat="47.50853" lon="6.76667">
        <ele>386</ele>
        <time>2015-06-28T07:26:26.000Z</time>
      </trkpt>
      <trkpt lat="47.5085" lon="6.76661">
        <ele>387</ele>
        <time>2015-06-28T07:26:27.000Z</time>
      </trkpt>
      <trkpt lat="47.50847" lon="6.76656">
        <ele>387</ele>
        <time>2015-06-28T07:26:28.000Z</time>
      </trkpt>
      <trkpt lat="47.50845" lon="6.76651">
        <ele>387</ele>
        <time>2015-06-28T07:26:29.000Z</time>
      </trkpt>
      <trkpt lat="47.50843" lon="6.76646">
        <ele>387</ele>
        <time>2015-06-28T07:26:30.000Z</time>
      </trkpt>
      <trkpt lat="47.50842" lon="6.76642">
        <ele>387</ele>
        <time>2015-06-28T07:26:31.000Z</time>
      </trkpt>
      <trkpt lat="47.5084" lon="6.76638">
        <ele>387</ele>
        <time>2015-06-28T07:26:32.000Z</time>
      </trkpt>
      <trkpt lat="47.50838" lon="6.76633">
        <ele>387</ele>
        <time>2015-06-28T07:26:33.000Z</time>
      </trkpt>
      <trkpt lat="47.50836" lon="6.76629">
        <ele>387</ele>
        <time>2015-06-28T07:26:34.000Z</time>
      </trkpt>
      <trkpt lat="47.50833" lon="6.76624">
        <ele>390</ele>
        <time>2015-06-28T07:26:35.000Z</time>
      </trkpt>
      <trkpt lat="47.50829" lon="6.7662">
        <ele>390</ele>
        <time>2015-06-28T07:26:36.000Z</time>
      </trkpt>
      <trkpt lat="47.50828" lon="6.76617">
        <ele>390</ele>
        <time>2015-06-28T07:26:37.000Z</time>
      </trkpt>
      <trkpt lat="47.50827" lon="6.76612">
        <ele>390</ele>
        <time>2015-06-28T07:26:38.000Z</time>
      </trkpt>
      <trkpt lat="47.50826" lon="6.76608">
        <ele>390</ele>
        <time>2015-06-28T07:26:39.000Z</time>
      </trkpt>
      <trkpt lat="47.50825" lon="6.76605">
        <ele>390</ele>
        <time>2015-06-28T07:26:40.000Z</time>
      </trkpt>
      <trkpt lat="47.50824" lon="6.76602">
        <ele>390</ele>
        <time>2015-06-28T07:26:41.000Z</time>
      </trkpt>
      <trkpt lat="47.50822" lon="6.76599">
        <ele>390</ele>
        <time>2015-06-28T07:26:42.000Z</time>
      </trkpt>
      <trkpt lat="47.5082" lon="6.76599">
        <ele>390</ele>
        <time>2015-06-28T07:26:43.000Z</time>
      </trkpt>
      <trkpt lat="47.50818" lon="6.76601">
        <ele>390</ele>
        <time>2015-06-28T07:26:44.000Z</time>
      </trkpt>
      <trkpt lat="47.50815" lon="6.76602">
        <ele>390</ele>
        <time>2015-06-28T07:26:45.000Z</time>
      </trkpt>
      <trkpt lat="47.50812" lon="6.76602">
        <ele>390</ele>
        <time>2015-06-28T07:26:46.000Z</time>
      </trkpt>
      <trkpt lat="47.5081" lon="6.76601">
        <ele>390</ele>
        <time>2015-06-28T07:26:47.000Z</time>
      </trkpt>
      <trkpt lat="47.50808" lon="6.76599">
        <ele>390</ele>
        <time>2015-06-28T07:26:48.000Z</time>
      </trkpt>
      <trkpt lat="47.50807" lon="6.76595">
        <ele>390</ele>
        <time>2015-06-28T07:26:49.000Z</time>
      </trkpt>
      <trkpt lat="47.50806" lon="6.76591">
        <ele>390</ele>
        <time>2015-06-28T07:26:50.000Z</time>
      </trkpt>
      <trkpt lat="47.50804" lon="6.76589">
        <ele>391</ele>
        <time>2015-06-28T07:26:51.000Z</time>
      </trkpt>
      <trkpt lat="47.50798" lon="6.76589">
        <ele>391</ele>
        <time>2015-06-28T07:26:53.000Z</time>
      </trkpt>
      <trkpt lat="47.50794" lon="6.76591">
        <ele>391</ele>
        <time>2015-06-28T07:26:55.000Z</time>
      </trkpt>
      <trkpt lat="47.50792" lon="6.76591">
        <ele>391</ele>
        <time>2015-06-28T07:26:56.000Z</time>
      </trkpt>
      <trkpt lat="47.5079" lon="6.76591">
        <ele>391</ele>
        <time>2015-06-28T07:26:57.000Z</time>
      </trkpt>
      <trkpt lat="47.50787" lon="6.76592">
        <ele>391</ele>
        <time>2015-06-28T07:26:58.000Z</time>
      </trkpt>
      <trkpt lat="47.50784" lon="6.76592">
        <ele>391</ele>
        <time>2015-06-28T07:26:59.000Z</time>
      </trkpt>
      <trkpt lat="47.5078" lon="6.76593">
        <ele>391</ele>
        <time>2015-06-28T07:27:00.000Z</time>
      </trkpt>
      <trkpt lat="47.50777" lon="6.76593">
        <ele>392</ele>
        <time>2015-06-28T07:27:01.000Z</time>
      </trkpt>
      <trkpt lat="47.50774" lon="6.76593">
        <ele>392</ele>
        <time>2015-06-28T07:27:02.000Z</time>
      </trkpt>
      <trkpt lat="47.5077" lon="6.76594">
        <ele>392</ele>
        <time>2015-06-28T07:27:03.000Z</time>
      </trkpt>
      <trkpt lat="47.50766" lon="6.76594">
        <ele>392</ele>
        <time>2015-06-28T07:27:04.000Z</time>
      </trkpt>
      <trkpt lat="47.50762" lon="6.76595">
        <ele>392</ele>
        <time>2015-06-28T07:27:05.000Z</time>
      </trkpt>
      <trkpt lat="47.50759" lon="6.76595">
        <ele>393</ele>
        <time>2015-06-28T07:27:06.000Z</time>
      </trkpt>
      <trkpt lat="47.50755" lon="6.76595">
        <ele>393</ele>
        <time>2015-06-28T07:27:07.000Z</time>
      </trkpt>
      <trkpt lat="47.50751" lon="6.76595">
        <ele>393</ele>
        <time>2015-06-28T07:27:08.000Z</time>
      </trkpt>
      <trkpt lat="47.50747" lon="6.76595">
        <ele>394</ele>
        <time>2015-06-28T07:27:09.000Z</time>
      </trkpt>
      <trkpt lat="47.50743" lon="6.76595">
        <ele>394</ele>
        <time>2015-06-28T07:27:10.000Z</time>
      </trkpt>
      <trkpt lat="47.50739" lon="6.76595">
        <ele>394</ele>
        <time>2015-06-28T07:27:11.000Z</time>
      </trkpt>
      <trkpt lat="47.50735" lon="6.76594">
        <ele>394</ele>
        <time>2015-06-28T07:27:12.000Z</time>
      </trkpt>
      <trkpt lat="47.50731" lon="6.76593">
        <ele>394</ele>
        <time>2015-06-28T07:27:13.000Z</time>
      </trkpt>
      <trkpt lat="47.50727" lon="6.76592">
        <ele>394</ele>
        <time>2015-06-28T07:27:14.000Z</time>
      </trkpt>
      <trkpt lat="47.50724" lon="6.76591">
        <ele>394</ele>
        <time>2015-06-28T07:27:15.000Z</time>
      </trkpt>
      <trkpt lat="47.5072" lon="6.7659">
        <ele>394</ele>
        <time>2015-06-28T07:27:16.000Z</time>
      </trkpt>
      <trkpt lat="47.50716" lon="6.76589">
        <ele>394</ele>
        <time>2015-06-28T07:27:17.000Z</time>
      </trkpt>
      <trkpt lat="47.50712" lon="6.76589">
        <ele>395</ele>
        <time>2015-06-28T07:27:18.000Z</time>
      </trkpt>
      <trkpt lat="47.50709" lon="6.76588">
        <ele>395</ele>
        <time>2015-06-28T07:27:19.000Z</time>
      </trkpt>
      <trkpt lat="47.50705" lon="6.76587">
        <ele>395</ele>
        <time>2015-06-28T07:27:20.000Z</time>
      </trkpt>
      <trkpt lat="47.50701" lon="6.76586">
        <ele>395</ele>
        <time>2015-06-28T07:27:21.000Z</time>
      </trkpt>
      <trkpt lat="47.50698" lon="6.76586">
        <ele>395</ele>
        <time>2015-06-28T07:27:22.000Z</time>
      </trkpt>
      <trkpt lat="47.50694" lon="6.76585">
        <ele>395</ele>
        <time>2015-06-28T07:27:23.000Z</time>
      </trkpt>
      <trkpt lat="47.50691" lon="6.76585">
        <ele>395</ele>
        <time>2015-06-28T07:27:24.000Z</time>
      </trkpt>
      <trkpt lat="47.50687" lon="6.76586">
        <ele>396</ele>
        <time>2015-06-28T07:27:25.000Z</time>
      </trkpt>
      <trkpt lat="47.50683" lon="6.76586">
        <ele>396</ele>
        <time>2015-06-28T07:27:26.000Z</time>
      </trkpt>
      <trkpt lat="47.50679" lon="6.76587">
        <ele>396</ele>
        <time>2015-06-28T07:27:27.000Z</time>
      </trkpt>
      <trkpt lat="47.50676" lon="6.76587">
        <ele>396</ele>
        <time>2015-06-28T07:27:28.000Z</time>
      </trkpt>
      <trkpt lat="47.50672" lon="6.76588">
        <ele>396</ele>
        <time>2015-06-28T07:27:29.000Z</time>
      </trkpt>
      <trkpt lat="47.50668" lon="6.76589">
        <ele>396</ele>
        <time>2015-06-28T07:27:30.000Z</time>
      </trkpt>
      <trkpt lat="47.50664" lon="6.76591">
        <ele>397</ele>
        <time>2015-06-28T07:27:31.000Z</time>
      </trkpt>
      <trkpt lat="47.50661" lon="6.76592">
        <ele>397</ele>
        <time>2015-06-28T07:27:32.000Z</time>
      </trkpt>
      <trkpt lat="47.50657" lon="6.76593">
        <ele>397</ele>
        <time>2015-06-28T07:27:33.000Z</time>
      </trkpt>
      <trkpt lat="47.50654" lon="6.76594">
        <ele>397</ele>
        <time>2015-06-28T07:27:34.000Z</time>
      </trkpt>
      <trkpt lat="47.50651" lon="6.76595">
        <ele>397</ele>
        <time>2015-06-28T07:27:35.000Z</time>
      </trkpt>
      <trkpt lat="47.50647" lon="6.76596">
        <ele>397</ele>
        <time>2015-06-28T07:27:36.000Z</time>
      </trkpt>
      <trkpt lat="47.50644" lon="6.76598">
        <ele>397</ele>
        <time>2015-06-28T07:27:37.000Z</time>
      </trkpt>
      <trkpt lat="47.5064" lon="6.766">
        <ele>397</ele>
        <time>2015-06-28T07:27:38.000Z</time>
      </trkpt>
      <trkpt lat="47.50636" lon="6.76601">
        <ele>397</ele>
        <time>2015-06-28T07:27:39.000Z</time>
      </trkpt>
      <trkpt lat="47.50633" lon="6.76603">
        <ele>397</ele>
        <time>2015-06-28T07:27:40.000Z</time>
      </trkpt>
      <trkpt lat="47.50629" lon="6.76605">
        <ele>397</ele>
        <time>2015-06-28T07:27:41.000Z</time>
      </trkpt>
      <trkpt lat="47.50626" lon="6.76606">
        <ele>397</ele>
        <time>2015-06-28T07:27:42.000Z</time>
      </trkpt>
      <trkpt lat="47.50623" lon="6.76608">
        <ele>397</ele>
        <time>2015-06-28T07:27:43.000Z</time>
      </trkpt>
      <trkpt lat="47.5062" lon="6.7661">
        <ele>397</ele>
        <time>2015-06-28T07:27:44.000Z</time>
      </trkpt>
      <trkpt lat="47.50616" lon="6.76611">
        <ele>398</ele>
        <time>2015-06-28T07:27:45.000Z</time>
      </trkpt>
      <trkpt lat="47.50612" lon="6.76613">
        <ele>398</ele>
        <time>2015-06-28T07:27:46.000Z</time>
      </trkpt>
      <trkpt lat="47.50608" lon="6.76615">
        <ele>398</ele>
        <time>2015-06-28T07:27:47.000Z</time>
      </trkpt>
      <trkpt lat="47.50604" lon="6.76617">
        <ele>398</ele>
        <time>2015-06-28T07:27:48.000Z</time>
      </trkpt>
      <trkpt lat="47.50601" lon="6.76619">
        <ele>398</ele>
        <time>2015-06-28T07:27:49.000Z</time>
      </trkpt>
      <trkpt lat="47.50597" lon="6.76621">
        <ele>398</ele>
        <time>2015-06-28T07:27:50.000Z</time>
      </trkpt>
      <trkpt lat="47.50593" lon="6.76623">
        <ele>398</ele>
        <time>2015-06-28T07:27:51.000Z</time>
      </trkpt>
      <trkpt lat="47.5059" lon="6.76624">
        <ele>398</ele>
        <time>2015-06-28T07:27:52.000Z</time>
      </trkpt>
      <trkpt lat="47.50586" lon="6.76625">
        <ele>398</ele>
        <time>2015-06-28T07:27:53.000Z</time>
      </trkpt>
      <trkpt lat="47.50583" lon="6.76627">
        <ele>399</ele>
        <time>2015-06-28T07:27:54.000Z</time>
      </trkpt>
      <trkpt lat="47.50579" lon="6.76628">
        <ele>399</ele>
        <time>2015-06-28T07:27:55.000Z</time>
      </trkpt>
      <trkpt lat="47.50575" lon="6.76629">
        <ele>399</ele>
        <time>2015-06-28T07:27:56.000Z</time>
      </trkpt>
      <trkpt lat="47.50571" lon="6.76631">
        <ele>399</ele>
        <time>2015-06-28T07:27:57.000Z</time>
      </trkpt>
      <trkpt lat="47.50567" lon="6.76631">
        <ele>399</ele>
        <time>2015-06-28T07:27:58.000Z</time>
      </trkpt>
      <trkpt lat="47.50563" lon="6.76632">
        <ele>399</ele>
        <time>2015-06-28T07:27:59.000Z</time>
      </trkpt>
      <trkpt lat="47.50559" lon="6.76633">
        <ele>399</ele>
        <time>2015-06-28T07:28:00.000Z</time>
      </trkpt>
      <trkpt lat="47.50556" lon="6.76633">
        <ele>399</ele>
        <time>2015-06-28T07:28:01.000Z</time>
      </trkpt>
      <trkpt lat="47.50552" lon="6.76634">
        <ele>399</ele>
        <time>2015-06-28T07:28:02.000Z</time>
      </trkpt>
      <trkpt lat="47.50548" lon="6.76635">
        <ele>399</ele>
        <time>2015-06-28T07:28:03.000Z</time>
      </trkpt>
      <trkpt lat="47.50544" lon="6.76636">
        <ele>399</ele>
        <time>2015-06-28T07:28:04.000Z</time>
      </trkpt>
      <trkpt lat="47.5054" lon="6.76637">
        <ele>399</ele>
        <time>2015-06-28T07:28:05.000Z</time>
      </trkpt>
      <trkpt lat="47.50536" lon="6.76638">
        <ele>399</ele>
        <time>2015-06-28T07:28:06.000Z</time>
      </trkpt>
      <trkpt lat="47.50532" lon="6.76639">
        <ele>399</ele>
        <time>2015-06-28T07:28:07.000Z</time>
      </trkpt>
      <trkpt lat="47.50527" lon="6.76641">
        <ele>399</ele>
        <time>2015-06-28T07:28:08.000Z</time>
      </trkpt>
      <trkpt lat="47.50522" lon="6.76642">
        <ele>399</ele>
        <time>2015-06-28T07:28:09.000Z</time>
      </trkpt>
      <trkpt lat="47.50517" lon="6.76643">
        <ele>399</ele>
        <time>2015-06-28T07:28:10.000Z</time>
      </trkpt>
      <trkpt lat="47.50511" lon="6.76644">
        <ele>399</ele>
        <time>2015-06-28T07:28:11.000Z</time>
      </trkpt>
      <trkpt lat="47.50505" lon="6.76645">
        <ele>399</ele>
        <time>2015-06-28T07:28:12.000Z</time>
      </trkpt>
      <trkpt lat="47.50499" lon="6.76647">
        <ele>399</ele>
        <time>2015-06-28T07:28:13.000Z</time>
      </trkpt>
      <trkpt lat="47.50494" lon="6.76649">
        <ele>399</ele>
        <time>2015-06-28T07:28:14.000Z</time>
      </trkpt>
      <trkpt lat="47.50489" lon="6.76652">
        <ele>399</ele>
        <time>2015-06-28T07:28:15.000Z</time>
      </trkpt>
      <trkpt lat="47.50483" lon="6.76655">
        <ele>399</ele>
        <time>2015-06-28T07:28:16.000Z</time>
      </trkpt>
      <trkpt lat="47.50478" lon="6.76657">
        <ele>398</ele>
        <time>2015-06-28T07:28:17.000Z</time>
      </trkpt>
      <trkpt lat="47.50472" lon="6.7666">
        <ele>398</ele>
        <time>2015-06-28T07:28:18.000Z</time>
      </trkpt>
      <trkpt lat="47.50467" lon="6.76663">
        <ele>398</ele>
        <time>2015-06-28T07:28:19.000Z</time>
      </trkpt>
      <trkpt lat="47.50462" lon="6.76663">
        <ele>398</ele>
        <time>2015-06-28T07:28:20.000Z</time>
      </trkpt>
      <trkpt lat="47.50456" lon="6.76666">
        <ele>398</ele>
        <time>2015-06-28T07:28:21.000Z</time>
      </trkpt>
      <trkpt lat="47.5045" lon="6.76668">
        <ele>397</ele>
        <time>2015-06-28T07:28:22.000Z</time>
      </trkpt>
      <trkpt lat="47.50445" lon="6.76671">
        <ele>397</ele>
        <time>2015-06-28T07:28:23.000Z</time>
      </trkpt>
      <trkpt lat="47.50439" lon="6.76675">
        <ele>397</ele>
        <time>2015-06-28T07:28:24.000Z</time>
      </trkpt>
      <trkpt lat="47.50434" lon="6.76678">
        <ele>397</ele>
        <time>2015-06-28T07:28:25.000Z</time>
      </trkpt>
      <trkpt lat="47.50428" lon="6.76681">
        <ele>397</ele>
        <time>2015-06-28T07:28:26.000Z</time>
      </trkpt>
      <trkpt lat="47.50423" lon="6.76684">
        <ele>397</ele>
        <time>2015-06-28T07:28:27.000Z</time>
      </trkpt>
      <trkpt lat="47.50419" lon="6.76682">
        <ele>397</ele>
        <time>2015-06-28T07:28:28.000Z</time>
      </trkpt>
      <trkpt lat="47.50415" lon="6.76683">
        <ele>397</ele>
        <time>2015-06-28T07:28:29.000Z</time>
      </trkpt>
      <trkpt lat="47.5041" lon="6.76684">
        <ele>397</ele>
        <time>2015-06-28T07:28:30.000Z</time>
      </trkpt>
      <trkpt lat="47.50404" lon="6.76686">
        <ele>397</ele>
        <time>2015-06-28T07:28:31.000Z</time>
      </trkpt>
      <trkpt lat="47.50398" lon="6.76689">
        <ele>397</ele>
        <time>2015-06-28T07:28:32.000Z</time>
      </trkpt>
      <trkpt lat="47.50393" lon="6.7669">
        <ele>397</ele>
        <time>2015-06-28T07:28:33.000Z</time>
      </trkpt>
      <trkpt lat="47.50389" lon="6.76693">
        <ele>397</ele>
        <time>2015-06-28T07:28:34.000Z</time>
      </trkpt>
      <trkpt lat="47.50384" lon="6.76695">
        <ele>397</ele>
        <time>2015-06-28T07:28:35.000Z</time>
      </trkpt>
      <trkpt lat="47.50379" lon="6.76698">
        <ele>397</ele>
        <time>2015-06-28T07:28:36.000Z</time>
      </trkpt>
      <trkpt lat="47.50374" lon="6.767">
        <ele>397</ele>
        <time>2015-06-28T07:28:37.000Z</time>
      </trkpt>
      <trkpt lat="47.50369" lon="6.76701">
        <ele>397</ele>
        <time>2015-06-28T07:28:38.000Z</time>
      </trkpt>
      <trkpt lat="47.50363" lon="6.76703">
        <ele>397</ele>
        <time>2015-06-28T07:28:39.000Z</time>
      </trkpt>
      <trkpt lat="47.50359" lon="6.76706">
        <ele>397</ele>
        <time>2015-06-28T07:28:40.000Z</time>
      </trkpt>
      <trkpt lat="47.50354" lon="6.76708">
        <ele>397</ele>
        <time>2015-06-28T07:28:41.000Z</time>
      </trkpt>
      <trkpt lat="47.50349" lon="6.7671">
        <ele>398</ele>
        <time>2015-06-28T07:28:42.000Z</time>
      </trkpt>
      <trkpt lat="47.50343" lon="6.76712">
        <ele>398</ele>
        <time>2015-06-28T07:28:43.000Z</time>
      </trkpt>
      <trkpt lat="47.50339" lon="6.76714">
        <ele>398</ele>
        <time>2015-06-28T07:28:44.000Z</time>
      </trkpt>
      <trkpt lat="47.50334" lon="6.76717">
        <ele>398</ele>
        <time>2015-06-28T07:28:45.000Z</time>
      </trkpt>
      <trkpt lat="47.5033" lon="6.76719">
        <ele>398</ele>
        <time>2015-06-28T07:28:46.000Z</time>
      </trkpt>
      <trkpt lat="47.50325" lon="6.76721">
        <ele>398</ele>
        <time>2015-06-28T07:28:47.000Z</time>
      </trkpt>
      <trkpt lat="47.5032" lon="6.76723">
        <ele>398</ele>
        <time>2015-06-28T07:28:48.000Z</time>
      </trkpt>
      <trkpt lat="47.50315" lon="6.76725">
        <ele>398</ele>
        <time>2015-06-28T07:28:49.000Z</time>
      </trkpt>
      <trkpt lat="47.5031" lon="6.76728">
        <ele>398</ele>
        <time>2015-06-28T07:28:50.000Z</time>
      </trkpt>
      <trkpt lat="47.50305" lon="6.7673">
        <ele>398</ele>
        <time>2015-06-28T07:28:51.000Z</time>
      </trkpt>
      <trkpt lat="47.50301" lon="6.76731">
        <ele>398</ele>
        <time>2015-06-28T07:28:52.000Z</time>
      </trkpt>
      <trkpt lat="47.50298" lon="6.76732">
        <ele>399</ele>
        <time>2015-06-28T07:28:53.000Z</time>
      </trkpt>
      <trkpt lat="47.50293" lon="6.76733">
        <ele>399</ele>
        <time>2015-06-28T07:28:54.000Z</time>
      </trkpt>
      <trkpt lat="47.50289" lon="6.76733">
        <ele>399</ele>
        <time>2015-06-28T07:28:55.000Z</time>
      </trkpt>
      <trkpt lat="47.50284" lon="6.76734">
        <ele>399</ele>
        <time>2015-06-28T07:28:56.000Z</time>
      </trkpt>
      <trkpt lat="47.5028" lon="6.76736">
        <ele>399</ele>
        <time>2015-06-28T07:28:57.000Z</time>
      </trkpt>
      <trkpt lat="47.50276" lon="6.76737">
        <ele>399</ele>
        <time>2015-06-28T07:28:58.000Z</time>
      </trkpt>
      <trkpt lat="47.50272" lon="6.76738">
        <ele>399</ele>
        <time>2015-06-28T07:29:00.000Z</time>
      </trkpt>
      <trkpt lat="47.50269" lon="6.7674">
        <ele>399</ele>
        <time>2015-06-28T07:29:01.000Z</time>
      </trkpt>
      <trkpt lat="47.50266" lon="6.76742">
        <ele>399</ele>
        <time>2015-06-28T07:29:02.000Z</time>
      </trkpt>
      <trkpt lat="47.50263" lon="6.76744">
        <ele>399</ele>
        <time>2015-06-28T07:29:03.000Z</time>
      </trkpt>
      <trkpt lat="47.5026" lon="6.76745">
        <ele>399</ele>
        <time>2015-06-28T07:29:04.000Z</time>
      </trkpt>
      <trkpt lat="47.50257" lon="6.76746">
        <ele>400</ele>
        <time>2015-06-28T07:29:05.000Z</time>
      </trkpt>
      <trkpt lat="47.50254" lon="6.76747">
        <ele>400</ele>
        <time>2015-06-28T07:29:06.000Z</time>
      </trkpt>
      <trkpt lat="47.50251" lon="6.76747">
        <ele>400</ele>
        <time>2015-06-28T07:29:07.000Z</time>
      </trkpt>
      <trkpt lat="47.50249" lon="6.76747">
        <ele>400</ele>
        <time>2015-06-28T07:29:08.000Z</time>
      </trkpt>
      <trkpt lat="47.50247" lon="6.76746">
        <ele>400</ele>
        <time>2015-06-28T07:29:09.000Z</time>
      </trkpt>
      <trkpt lat="47.50245" lon="6.76744">
        <ele>401</ele>
        <time>2015-06-28T07:29:10.000Z</time>
      </trkpt>
      <trkpt lat="47.50243" lon="6.76742">
        <ele>401</ele>
        <time>2015-06-28T07:29:11.000Z</time>
      </trkpt>
      <trkpt lat="47.5024" lon="6.76737">
        <ele>401</ele>
        <time>2015-06-28T07:29:13.000Z</time>
      </trkpt>
      <trkpt lat="47.50238" lon="6.76734">
        <ele>401</ele>
        <time>2015-06-28T07:29:14.000Z</time>
      </trkpt>
      <trkpt lat="47.50236" lon="6.7673">
        <ele>401</ele>
        <time>2015-06-28T07:29:24.000Z</time>
      </trkpt>
      <trkpt lat="47.50235" lon="6.76728">
        <ele>401</ele>
        <time>2015-06-28T07:29:25.000Z</time>
      </trkpt>
      <trkpt lat="47.50233" lon="6.76723">
        <ele>402</ele>
        <time>2015-06-28T07:29:27.000Z</time>
      </trkpt>
      <trkpt lat="47.50232" lon="6.76719">
        <ele>402</ele>
        <time>2015-06-28T07:29:28.000Z</time>
      </trkpt>
      <trkpt lat="47.50231" lon="6.76711">
        <ele>402</ele>
        <time>2015-06-28T07:29:29.000Z</time>
      </trkpt>
      <trkpt lat="47.50229" lon="6.76705">
        <ele>402</ele>
        <time>2015-06-28T07:29:30.000Z</time>
      </trkpt>
      <trkpt lat="47.50226" lon="6.76699">
        <ele>402</ele>
        <time>2015-06-28T07:29:31.000Z</time>
      </trkpt>
      <trkpt lat="47.50224" lon="6.76694">
        <ele>402</ele>
        <time>2015-06-28T07:29:32.000Z</time>
      </trkpt>
      <trkpt lat="47.50222" lon="6.76687">
        <ele>402</ele>
        <time>2015-06-28T07:29:33.000Z</time>
      </trkpt>
      <trkpt lat="47.50218" lon="6.7668">
        <ele>402</ele>
        <time>2015-06-28T07:29:34.000Z</time>
      </trkpt>
      <trkpt lat="47.50215" lon="6.76673">
        <ele>402</ele>
        <time>2015-06-28T07:29:35.000Z</time>
      </trkpt>
      <trkpt lat="47.50215" lon="6.76667">
        <ele>402</ele>
        <time>2015-06-28T07:29:36.000Z</time>
      </trkpt>
      <trkpt lat="47.50213" lon="6.7666">
        <ele>402</ele>
        <time>2015-06-28T07:29:37.000Z</time>
      </trkpt>
      <trkpt lat="47.50212" lon="6.76654">
        <ele>402</ele>
        <time>2015-06-28T07:29:38.000Z</time>
      </trkpt>
      <trkpt lat="47.5021" lon="6.76648">
        <ele>402</ele>
        <time>2015-06-28T07:29:39.000Z</time>
      </trkpt>
      <trkpt lat="47.50208" lon="6.76641">
        <ele>402</ele>
        <time>2015-06-28T07:29:40.000Z</time>
      </trkpt>
      <trkpt lat="47.50205" lon="6.76635">
        <ele>402</ele>
        <time>2015-06-28T07:29:41.000Z</time>
      </trkpt>
      <trkpt lat="47.50204" lon="6.76628">
        <ele>402</ele>
        <time>2015-06-28T07:29:42.000Z</time>
      </trkpt>
      <trkpt lat="47.50203" lon="6.76622">
        <ele>402</ele>
        <time>2015-06-28T07:29:43.000Z</time>
      </trkpt>
      <trkpt lat="47.502" lon="6.76616">
        <ele>402</ele>
        <time>2015-06-28T07:29:44.000Z</time>
      </trkpt>
      <trkpt lat="47.50199" lon="6.7661">
        <ele>403</ele>
        <time>2015-06-28T07:29:45.000Z</time>
      </trkpt>
      <trkpt lat="47.50197" lon="6.76606">
        <ele>403</ele>
        <time>2015-06-28T07:29:46.000Z</time>
      </trkpt>
      <trkpt lat="47.50195" lon="6.76601">
        <ele>403</ele>
        <time>2015-06-28T07:29:47.000Z</time>
      </trkpt>
      <trkpt lat="47.50196" lon="6.76597">
        <ele>403</ele>
        <time>2015-06-28T07:29:48.000Z</time>
      </trkpt>
      <trkpt lat="47.50196" lon="6.7659">
        <ele>403</ele>
        <time>2015-06-28T07:29:50.000Z</time>
      </trkpt>
      <trkpt lat="47.50196" lon="6.76587">
        <ele>403</ele>
        <time>2015-06-28T07:29:51.000Z</time>
      </trkpt>
      <trkpt lat="47.50196" lon="6.76583">
        <ele>403</ele>
        <time>2015-06-28T07:29:52.000Z</time>
      </trkpt>
      <trkpt lat="47.50196" lon="6.7658">
        <ele>403</ele>
        <time>2015-06-28T07:29:53.000Z</time>
      </trkpt>
      <trkpt lat="47.50198" lon="6.76577">
        <ele>402</ele>
        <time>2015-06-28T07:29:55.000Z</time>
      </trkpt>
      <trkpt lat="47.502" lon="6.76577">
        <ele>402</ele>
        <time>2015-06-28T07:29:56.000Z</time>
      </trkpt>
      <trkpt lat="47.50204" lon="6.76578">
        <ele>402</ele>
        <time>2015-06-28T07:29:57.000Z</time>
      </trkpt>
      <trkpt lat="47.50208" lon="6.76577">
        <ele>401</ele>
        <time>2015-06-28T07:29:58.000Z</time>
      </trkpt>
      <trkpt lat="47.50212" lon="6.76576">
        <ele>401</ele>
        <time>2015-06-28T07:29:59.000Z</time>
      </trkpt>
      <trkpt lat="47.50214" lon="6.76571">
        <ele>401</ele>
        <time>2015-06-28T07:30:00.000Z</time>
      </trkpt>
      <trkpt lat="47.50216" lon="6.76566">
        <ele>401</ele>
        <time>2015-06-28T07:30:01.000Z</time>
      </trkpt>
      <trkpt lat="47.50216" lon="6.76559">
        <ele>401</ele>
        <time>2015-06-28T07:30:02.000Z</time>
      </trkpt>
      <trkpt lat="47.50216" lon="6.76551">
        <ele>400</ele>
        <time>2015-06-28T07:30:03.000Z</time>
      </trkpt>
      <trkpt lat="47.50215" lon="6.76543">
        <ele>400</ele>
        <time>2015-06-28T07:30:04.000Z</time>
      </trkpt>
      <trkpt lat="47.5021" lon="6.7652">
        <ele>400</ele>
        <time>2015-06-28T07:30:05.000Z</time>
      </trkpt>
      <trkpt lat="47.50208" lon="6.76513">
        <ele>400</ele>
        <time>2015-06-28T07:30:06.000Z</time>
      </trkpt>
      <trkpt lat="47.50206" lon="6.76504">
        <ele>400</ele>
        <time>2015-06-28T07:30:07.000Z</time>
      </trkpt>
      <trkpt lat="47.50203" lon="6.76494">
        <ele>397</ele>
        <time>2015-06-28T07:30:08.000Z</time>
      </trkpt>
      <trkpt lat="47.502" lon="6.76483">
        <ele>397</ele>
        <time>2015-06-28T07:30:09.000Z</time>
      </trkpt>
      <trkpt lat="47.50195" lon="6.76469">
        <ele>397</ele>
        <time>2015-06-28T07:30:10.000Z</time>
      </trkpt>
      <trkpt lat="47.50192" lon="6.76458">
        <ele>397</ele>
        <time>2015-06-28T07:30:11.000Z</time>
      </trkpt>
      <trkpt lat="47.50189" lon="6.76444">
        <ele>396</ele>
        <time>2015-06-28T07:30:12.000Z</time>
      </trkpt>
      <trkpt lat="47.50187" lon="6.76434">
        <ele>396</ele>
        <time>2015-06-28T07:30:13.000Z</time>
      </trkpt>
      <trkpt lat="47.50184" lon="6.76423">
        <ele>397</ele>
        <time>2015-06-28T07:30:14.000Z</time>
      </trkpt>
      <trkpt lat="47.50185" lon="6.76412">
        <ele>394</ele>
        <time>2015-06-28T07:30:15.000Z</time>
      </trkpt>
      <trkpt lat="47.50182" lon="6.76401">
        <ele>393</ele>
        <time>2015-06-28T07:30:16.000Z</time>
      </trkpt>
      <trkpt lat="47.50182" lon="6.76389">
        <ele>392</ele>
        <time>2015-06-28T07:30:17.000Z</time>
      </trkpt>
      <trkpt lat="47.50179" lon="6.7638">
        <ele>391</ele>
        <time>2015-06-28T07:30:18.000Z</time>
      </trkpt>
      <trkpt lat="47.50177" lon="6.76368">
        <ele>391</ele>
        <time>2015-06-28T07:30:19.000Z</time>
      </trkpt>
      <trkpt lat="47.50175" lon="6.76357">
        <ele>390</ele>
        <time>2015-06-28T07:30:20.000Z</time>
      </trkpt>
      <trkpt lat="47.50167" lon="6.76344">
        <ele>391</ele>
        <time>2015-06-28T07:30:21.000Z</time>
      </trkpt>
      <trkpt lat="47.50163" lon="6.76332">
        <ele>392</ele>
        <time>2015-06-28T07:30:22.000Z</time>
      </trkpt>
      <trkpt lat="47.50162" lon="6.76326">
        <ele>393</ele>
        <time>2015-06-28T07:30:23.000Z</time>
      </trkpt>
      <trkpt lat="47.5016" lon="6.76317">
        <ele>394</ele>
        <time>2015-06-28T07:30:24.000Z</time>
      </trkpt>
      <trkpt lat="47.50159" lon="6.76308">
        <ele>394</ele>
        <time>2015-06-28T07:30:25.000Z</time>
      </trkpt>
      <trkpt lat="47.50155" lon="6.76292">
        <ele>395</ele>
        <time>2015-06-28T07:30:26.000Z</time>
      </trkpt>
      <trkpt lat="47.50152" lon="6.7628">
        <ele>394</ele>
        <time>2015-06-28T07:30:27.000Z</time>
      </trkpt>
      <trkpt lat="47.5015" lon="6.76267">
        <ele>393</ele>
        <time>2015-06-28T07:30:28.000Z</time>
      </trkpt>
      <trkpt lat="47.50143" lon="6.76255">
        <ele>393</ele>
        <time>2015-06-28T07:30:29.000Z</time>
      </trkpt>
      <trkpt lat="47.50142" lon="6.76243">
        <ele>390</ele>
        <time>2015-06-28T07:30:30.000Z</time>
      </trkpt>
      <trkpt lat="47.5014" lon="6.76232">
        <ele>390</ele>
        <time>2015-06-28T07:30:31.000Z</time>
      </trkpt>
      <trkpt lat="47.50138" lon="6.76217">
        <ele>390</ele>
        <time>2015-06-28T07:30:32.000Z</time>
      </trkpt>
      <trkpt lat="47.50135" lon="6.76201">
        <ele>389</ele>
        <time>2015-06-28T07:30:33.000Z</time>
      </trkpt>
      <trkpt lat="47.50133" lon="6.7619">
        <ele>389</ele>
        <time>2015-06-28T07:30:34.000Z</time>
      </trkpt>
      <trkpt lat="47.50132" lon="6.76182">
        <ele>388</ele>
        <time>2015-06-28T07:30:35.000Z</time>
      </trkpt>
      <trkpt lat="47.50129" lon="6.76169">
        <ele>388</ele>
        <time>2015-06-28T07:30:36.000Z</time>
      </trkpt>
      <trkpt lat="47.50126" lon="6.76158">
        <ele>385</ele>
        <time>2015-06-28T07:30:37.000Z</time>
      </trkpt>
      <trkpt lat="47.50124" lon="6.76151">
        <ele>385</ele>
        <time>2015-06-28T07:30:38.000Z</time>
      </trkpt>
      <trkpt lat="47.50121" lon="6.76141">
        <ele>385</ele>
        <time>2015-06-28T07:30:39.000Z</time>
      </trkpt>
      <trkpt lat="47.50117" lon="6.76127">
        <ele>385</ele>
        <time>2015-06-28T07:30:40.000Z</time>
      </trkpt>
      <trkpt lat="47.50116" lon="6.76116">
        <ele>385</ele>
        <time>2015-06-28T07:30:41.000Z</time>
      </trkpt>
      <trkpt lat="47.50116" lon="6.76097">
        <ele>384</ele>
        <time>2015-06-28T07:30:42.000Z</time>
      </trkpt>
      <trkpt lat="47.50115" lon="6.76078">
        <ele>381</ele>
        <time>2015-06-28T07:30:43.000Z</time>
      </trkpt>
      <trkpt lat="47.50111" lon="6.76058">
        <ele>380</ele>
        <time>2015-06-28T07:30:44.000Z</time>
      </trkpt>
      <trkpt lat="47.5011" lon="6.76034">
        <ele>379</ele>
        <time>2015-06-28T07:30:45.000Z</time>
      </trkpt>
      <trkpt lat="47.50108" lon="6.76012">
        <ele>379</ele>
        <time>2015-06-28T07:30:46.000Z</time>
      </trkpt>
      <trkpt lat="47.50104" lon="6.75997">
        <ele>376</ele>
        <time>2015-06-28T07:30:47.000Z</time>
      </trkpt>
      <trkpt lat="47.50098" lon="6.75984">
        <ele>375</ele>
        <time>2015-06-28T07:30:48.000Z</time>
      </trkpt>
      <trkpt lat="47.5009" lon="6.75967">
        <ele>374</ele>
        <time>2015-06-28T07:30:49.000Z</time>
      </trkpt>
      <trkpt lat="47.50085" lon="6.75954">
        <ele>374</ele>
        <time>2015-06-28T07:30:50.000Z</time>
      </trkpt>
      <trkpt lat="47.50079" lon="6.75944">
        <ele>377</ele>
        <time>2015-06-28T07:30:51.000Z</time>
      </trkpt>
      <trkpt lat="47.50074" lon="6.75932">
        <ele>376</ele>
        <time>2015-06-28T07:30:52.000Z</time>
      </trkpt>
      <trkpt lat="47.5007" lon="6.75921">
        <ele>376</ele>
        <time>2015-06-28T07:30:53.000Z</time>
      </trkpt>
      <trkpt lat="47.50065" lon="6.7591">
        <ele>375</ele>
        <time>2015-06-28T07:30:54.000Z</time>
      </trkpt>
      <trkpt lat="47.50065" lon="6.75901">
        <ele>375</ele>
        <time>2015-06-28T07:30:55.000Z</time>
      </trkpt>
      <trkpt lat="47.50059" lon="6.75891">
        <ele>375</ele>
        <time>2015-06-28T07:30:56.000Z</time>
      </trkpt>
      <trkpt lat="47.50053" lon="6.75879">
        <ele>376</ele>
        <time>2015-06-28T07:30:57.000Z</time>
      </trkpt>
      <trkpt lat="47.50046" lon="6.75868">
        <ele>376</ele>
        <time>2015-06-28T07:30:58.000Z</time>
      </trkpt>
      <trkpt lat="47.50041" lon="6.75856">
        <ele>376</ele>
        <time>2015-06-28T07:30:59.000Z</time>
      </trkpt>
      <trkpt lat="47.50036" lon="6.75845">
        <ele>376</ele>
        <time>2015-06-28T07:31:00.000Z</time>
      </trkpt>
      <trkpt lat="47.50031" lon="6.75835">
        <ele>377</ele>
        <time>2015-06-28T07:31:01.000Z</time>
      </trkpt>
      <trkpt lat="47.50025" lon="6.75823">
        <ele>376</ele>
        <time>2015-06-28T07:31:02.000Z</time>
      </trkpt>
      <trkpt lat="47.50016" lon="6.75815">
        <ele>376</ele>
        <time>2015-06-28T07:31:03.000Z</time>
      </trkpt>
      <trkpt lat="47.50012" lon="6.75806">
        <ele>376</ele>
        <time>2015-06-28T07:31:04.000Z</time>
      </trkpt>
      <trkpt lat="47.50003" lon="6.75786">
        <ele>375</ele>
        <time>2015-06-28T07:31:05.000Z</time>
      </trkpt>
      <trkpt lat="47.49997" lon="6.75774">
        <ele>375</ele>
        <time>2015-06-28T07:31:06.000Z</time>
      </trkpt>
      <trkpt lat="47.49991" lon="6.75764">
        <ele>375</ele>
        <time>2015-06-28T07:31:07.000Z</time>
      </trkpt>
      <trkpt lat="47.49984" lon="6.75752">
        <ele>375</ele>
        <time>2015-06-28T07:31:08.000Z</time>
      </trkpt>
      <trkpt lat="47.49977" lon="6.75741">
        <ele>373</ele>
        <time>2015-06-28T07:31:09.000Z</time>
      </trkpt>
      <trkpt lat="47.49965" lon="6.75731">
        <ele>371</ele>
        <time>2015-06-28T07:31:10.000Z</time>
      </trkpt>
      <trkpt lat="47.49955" lon="6.75718">
        <ele>370</ele>
        <time>2015-06-28T07:31:11.000Z</time>
      </trkpt>
      <trkpt lat="47.49948" lon="6.7571">
        <ele>370</ele>
        <time>2015-06-28T07:31:12.000Z</time>
      </trkpt>
      <trkpt lat="47.49941" lon="6.75704">
        <ele>370</ele>
        <time>2015-06-28T07:31:13.000Z</time>
      </trkpt>
      <trkpt lat="47.49934" lon="6.75699">
        <ele>370</ele>
        <time>2015-06-28T07:31:14.000Z</time>
      </trkpt>
      <trkpt lat="47.49925" lon="6.75698">
        <ele>369</ele>
        <time>2015-06-28T07:31:15.000Z</time>
      </trkpt>
      <trkpt lat="47.49915" lon="6.75697">
        <ele>365</ele>
        <time>2015-06-28T07:31:16.000Z</time>
      </trkpt>
      <trkpt lat="47.49908" lon="6.75695">
        <ele>365</ele>
        <time>2015-06-28T07:31:17.000Z</time>
      </trkpt>
      <trkpt lat="47.49901" lon="6.75693">
        <ele>364</ele>
        <time>2015-06-28T07:31:18.000Z</time>
      </trkpt>
      <trkpt lat="47.49892" lon="6.75691">
        <ele>364</ele>
        <time>2015-06-28T07:31:19.000Z</time>
      </trkpt>
      <trkpt lat="47.49887" lon="6.75689">
        <ele>363</ele>
        <time>2015-06-28T07:31:20.000Z</time>
      </trkpt>
      <trkpt lat="47.4987" lon="6.75697">
        <ele>362</ele>
        <time>2015-06-28T07:31:21.000Z</time>
      </trkpt>
      <trkpt lat="47.49855" lon="6.75702">
        <ele>361</ele>
        <time>2015-06-28T07:31:22.000Z</time>
      </trkpt>
      <trkpt lat="47.49837" lon="6.75708">
        <ele>360</ele>
        <time>2015-06-28T07:31:23.000Z</time>
      </trkpt>
      <trkpt lat="47.49828" lon="6.75709">
        <ele>353</ele>
        <time>2015-06-28T07:31:24.000Z</time>
      </trkpt>
      <trkpt lat="47.49815" lon="6.75716">
        <ele>352</ele>
        <time>2015-06-28T07:31:25.000Z</time>
      </trkpt>
      <trkpt lat="47.49805" lon="6.75719">
        <ele>352</ele>
        <time>2015-06-28T07:31:26.000Z</time>
      </trkpt>
      <trkpt lat="47.49794" lon="6.75729">
        <ele>352</ele>
        <time>2015-06-28T07:31:27.000Z</time>
      </trkpt>
      <trkpt lat="47.49779" lon="6.75734">
        <ele>351</ele>
        <time>2015-06-28T07:31:28.000Z</time>
      </trkpt>
      <trkpt lat="47.49768" lon="6.75736">
        <ele>351</ele>
        <time>2015-06-28T07:31:29.000Z</time>
      </trkpt>
      <trkpt lat="47.49756" lon="6.7574">
        <ele>351</ele>
        <time>2015-06-28T07:31:30.000Z</time>
      </trkpt>
      <trkpt lat="47.49745" lon="6.75745">
        <ele>348</ele>
        <time>2015-06-28T07:31:31.000Z</time>
      </trkpt>
      <trkpt lat="47.49735" lon="6.75747">
        <ele>346</ele>
        <time>2015-06-28T07:31:32.000Z</time>
      </trkpt>
      <trkpt lat="47.49725" lon="6.75752">
        <ele>353</ele>
        <time>2015-06-28T07:31:33.000Z</time>
      </trkpt>
      <trkpt lat="47.49716" lon="6.75759">
        <ele>353</ele>
        <time>2015-06-28T07:31:34.000Z</time>
      </trkpt>
      <trkpt lat="47.49708" lon="6.75761">
        <ele>352</ele>
        <time>2015-06-28T07:31:35.000Z</time>
      </trkpt>
      <trkpt lat="47.49696" lon="6.75765">
        <ele>352</ele>
        <time>2015-06-28T07:31:36.000Z</time>
      </trkpt>
      <trkpt lat="47.49687" lon="6.75765">
        <ele>351</ele>
        <time>2015-06-28T07:31:37.000Z</time>
      </trkpt>
      <trkpt lat="47.4968" lon="6.75764">
        <ele>350</ele>
        <time>2015-06-28T07:31:38.000Z</time>
      </trkpt>
      <trkpt lat="47.49672" lon="6.75759">
        <ele>348</ele>
        <time>2015-06-28T07:31:39.000Z</time>
      </trkpt>
      <trkpt lat="47.49665" lon="6.75757">
        <ele>345</ele>
        <time>2015-06-28T07:31:40.000Z</time>
      </trkpt>
      <trkpt lat="47.49654" lon="6.75756">
        <ele>345</ele>
        <time>2015-06-28T07:31:41.000Z</time>
      </trkpt>
      <trkpt lat="47.49645" lon="6.75756">
        <ele>345</ele>
        <time>2015-06-28T07:31:42.000Z</time>
      </trkpt>
      <trkpt lat="47.49632" lon="6.75754">
        <ele>344</ele>
        <time>2015-06-28T07:31:43.000Z</time>
      </trkpt>
      <trkpt lat="47.49622" lon="6.75756">
        <ele>343</ele>
        <time>2015-06-28T07:31:44.000Z</time>
      </trkpt>
      <trkpt lat="47.49617" lon="6.75757">
        <ele>343</ele>
        <time>2015-06-28T07:31:45.000Z</time>
      </trkpt>
      <trkpt lat="47.49608" lon="6.75755">
        <ele>342</ele>
        <time>2015-06-28T07:31:46.000Z</time>
      </trkpt>
      <trkpt lat="47.496" lon="6.75753">
        <ele>340</ele>
        <time>2015-06-28T07:31:47.000Z</time>
      </trkpt>
      <trkpt lat="47.49593" lon="6.75753">
        <ele>338</ele>
        <time>2015-06-28T07:31:48.000Z</time>
      </trkpt>
      <trkpt lat="47.49589" lon="6.75751">
        <ele>337</ele>
        <time>2015-06-28T07:31:49.000Z</time>
      </trkpt>
      <trkpt lat="47.49585" lon="6.75747">
        <ele>334</ele>
        <time>2015-06-28T07:31:50.000Z</time>
      </trkpt>
      <trkpt lat="47.49581" lon="6.75741">
        <ele>331</ele>
        <time>2015-06-28T07:31:51.000Z</time>
      </trkpt>
      <trkpt lat="47.49576" lon="6.7574">
        <ele>330</ele>
        <time>2015-06-28T07:31:53.000Z</time>
      </trkpt>
      <trkpt lat="47.49576" lon="6.75739">
        <ele>330</ele>
        <time>2015-06-28T07:31:54.000Z</time>
      </trkpt>
      <trkpt lat="47.49574" lon="6.75736">
        <ele>329</ele>
        <time>2015-06-28T07:31:56.000Z</time>
      </trkpt>
      <trkpt lat="47.49581" lon="6.75733">
        <ele>329</ele>
        <time>2015-06-28T07:31:57.000Z</time>
      </trkpt>
      <trkpt lat="47.49586" lon="6.7573">
        <ele>332</ele>
        <time>2015-06-28T07:31:58.000Z</time>
      </trkpt>
      <trkpt lat="47.4959" lon="6.75727">
        <ele>332</ele>
        <time>2015-06-28T07:31:59.000Z</time>
      </trkpt>
      <trkpt lat="47.49594" lon="6.75723">
        <ele>332</ele>
        <time>2015-06-28T07:32:00.000Z</time>
      </trkpt>
      <trkpt lat="47.49599" lon="6.7572">
        <ele>331</ele>
        <time>2015-06-28T07:32:01.000Z</time>
      </trkpt>
      <trkpt lat="47.49602" lon="6.75713">
        <ele>331</ele>
        <time>2015-06-28T07:32:02.000Z</time>
      </trkpt>
      <trkpt lat="47.49605" lon="6.75703">
        <ele>330</ele>
        <time>2015-06-28T07:32:03.000Z</time>
      </trkpt>
      <trkpt lat="47.496" lon="6.75693">
        <ele>329</ele>
        <time>2015-06-28T07:32:04.000Z</time>
      </trkpt>
      <trkpt lat="47.496" lon="6.75686">
        <ele>328</ele>
        <time>2015-06-28T07:32:05.000Z</time>
      </trkpt>
      <trkpt lat="47.49597" lon="6.75678">
        <ele>326</ele>
        <time>2015-06-28T07:32:06.000Z</time>
      </trkpt>
      <trkpt lat="47.49592" lon="6.75671">
        <ele>324</ele>
        <time>2015-06-28T07:32:07.000Z</time>
      </trkpt>
      <trkpt lat="47.49588" lon="6.75667">
        <ele>323</ele>
        <time>2015-06-28T07:32:08.000Z</time>
      </trkpt>
      <trkpt lat="47.49573" lon="6.75667">
        <ele>322</ele>
        <time>2015-06-28T07:32:09.000Z</time>
      </trkpt>
      <trkpt lat="47.49567" lon="6.75669">
        <ele>323</ele>
        <time>2015-06-28T07:32:10.000Z</time>
      </trkpt>
      <trkpt lat="47.49564" lon="6.7568">
        <ele>324</ele>
        <time>2015-06-28T07:32:11.000Z</time>
      </trkpt>
      <trkpt lat="47.49557" lon="6.7569">
        <ele>324</ele>
        <time>2015-06-28T07:32:12.000Z</time>
      </trkpt>
      <trkpt lat="47.49553" lon="6.75697">
        <ele>325</ele>
        <time>2015-06-28T07:32:13.000Z</time>
      </trkpt>
      <trkpt lat="47.49549" lon="6.75703">
        <ele>325</ele>
        <time>2015-06-28T07:32:14.000Z</time>
      </trkpt>
      <trkpt lat="47.49544" lon="6.75708">
        <ele>325</ele>
        <time>2015-06-28T07:32:15.000Z</time>
      </trkpt>
      <trkpt lat="47.49537" lon="6.75714">
        <ele>325</ele>
        <time>2015-06-28T07:32:16.000Z</time>
      </trkpt>
      <trkpt lat="47.4953" lon="6.75721">
        <ele>325</ele>
        <time>2015-06-28T07:32:17.000Z</time>
      </trkpt>
      <trkpt lat="47.49524" lon="6.75727">
        <ele>325</ele>
        <time>2015-06-28T07:32:18.000Z</time>
      </trkpt>
      <trkpt lat="47.49513" lon="6.75732">
        <ele>325</ele>
        <time>2015-06-28T07:32:19.000Z</time>
      </trkpt>
      <trkpt lat="47.49505" lon="6.75736">
        <ele>325</ele>
        <time>2015-06-28T07:32:20.000Z</time>
      </trkpt>
      <trkpt lat="47.49497" lon="6.75739">
        <ele>323</ele>
        <time>2015-06-28T07:32:21.000Z</time>
      </trkpt>
      <trkpt lat="47.49491" lon="6.75742">
        <ele>323</ele>
        <time>2015-06-28T07:32:22.000Z</time>
      </trkpt>
      <trkpt lat="47.49485" lon="6.75738">
        <ele>322</ele>
        <time>2015-06-28T07:32:23.000Z</time>
      </trkpt>
      <trkpt lat="47.49479" lon="6.75732">
        <ele>322</ele>
        <time>2015-06-28T07:32:24.000Z</time>
      </trkpt>
      <trkpt lat="47.49475" lon="6.75725">
        <ele>322</ele>
        <time>2015-06-28T07:32:25.000Z</time>
      </trkpt>
      <trkpt lat="47.49473" lon="6.75715">
        <ele>321</ele>
        <time>2015-06-28T07:32:26.000Z</time>
      </trkpt>
      <trkpt lat="47.4947" lon="6.75706">
        <ele>321</ele>
        <time>2015-06-28T07:32:27.000Z</time>
      </trkpt>
      <trkpt lat="47.49467" lon="6.75697">
        <ele>321</ele>
        <time>2015-06-28T07:32:28.000Z</time>
      </trkpt>
      <trkpt lat="47.4946" lon="6.75696">
        <ele>321</ele>
        <time>2015-06-28T07:32:29.000Z</time>
      </trkpt>
      <trkpt lat="47.49454" lon="6.75698">
        <ele>321</ele>
        <time>2015-06-28T07:32:30.000Z</time>
      </trkpt>
      <trkpt lat="47.49448" lon="6.75702">
        <ele>321</ele>
        <time>2015-06-28T07:32:31.000Z</time>
      </trkpt>
      <trkpt lat="47.49443" lon="6.75701">
        <ele>321</ele>
        <time>2015-06-28T07:32:32.000Z</time>
      </trkpt>
      <trkpt lat="47.49438" lon="6.75697">
        <ele>321</ele>
        <time>2015-06-28T07:32:33.000Z</time>
      </trkpt>
      <trkpt lat="47.49435" lon="6.75692">
        <ele>320</ele>
        <time>2015-06-28T07:32:34.000Z</time>
      </trkpt>
      <trkpt lat="47.49432" lon="6.75687">
        <ele>320</ele>
        <time>2015-06-28T07:32:35.000Z</time>
      </trkpt>
      <trkpt lat="47.49431" lon="6.75679">
        <ele>320</ele>
        <time>2015-06-28T07:32:36.000Z</time>
      </trkpt>
      <trkpt lat="47.49424" lon="6.75676">
        <ele>320</ele>
        <time>2015-06-28T07:32:37.000Z</time>
      </trkpt>
      <trkpt lat="47.49419" lon="6.75678">
        <ele>320</ele>
        <time>2015-06-28T07:32:38.000Z</time>
      </trkpt>
      <trkpt lat="47.49414" lon="6.75679">
        <ele>319</ele>
        <time>2015-06-28T07:32:39.000Z</time>
      </trkpt>
      <trkpt lat="47.4941" lon="6.75681">
        <ele>319</ele>
        <time>2015-06-28T07:32:40.000Z</time>
      </trkpt>
      <trkpt lat="47.49405" lon="6.75685">
        <ele>319</ele>
        <time>2015-06-28T07:32:41.000Z</time>
      </trkpt>
      <trkpt lat="47.49402" lon="6.75687">
        <ele>319</ele>
        <time>2015-06-28T07:32:42.000Z</time>
      </trkpt>
      <trkpt lat="47.49396" lon="6.7569">
        <ele>319</ele>
        <time>2015-06-28T07:32:43.000Z</time>
      </trkpt>
      <trkpt lat="47.49391" lon="6.75693">
        <ele>319</ele>
        <time>2015-06-28T07:32:44.000Z</time>
      </trkpt>
      <trkpt lat="47.49385" lon="6.75698">
        <ele>319</ele>
        <time>2015-06-28T07:32:45.000Z</time>
      </trkpt>
      <trkpt lat="47.4938" lon="6.757">
        <ele>319</ele>
        <time>2015-06-28T07:32:46.000Z</time>
      </trkpt>
      <trkpt lat="47.49376" lon="6.75703">
        <ele>319</ele>
        <time>2015-06-28T07:32:47.000Z</time>
      </trkpt>
      <trkpt lat="47.49373" lon="6.75704">
        <ele>319</ele>
        <time>2015-06-28T07:32:48.000Z</time>
      </trkpt>
      <trkpt lat="47.49372" lon="6.75707">
        <ele>319</ele>
        <time>2015-06-28T07:32:49.000Z</time>
      </trkpt>
      <trkpt lat="47.49368" lon="6.75708">
        <ele>319</ele>
        <time>2015-06-28T07:32:50.000Z</time>
      </trkpt>
      <trkpt lat="47.49365" lon="6.75709">
        <ele>319</ele>
        <time>2015-06-28T07:32:51.000Z</time>
      </trkpt>
      <trkpt lat="47.49363" lon="6.7571">
        <ele>319</ele>
        <time>2015-06-28T07:32:52.000Z</time>
      </trkpt>
      <trkpt lat="47.4936" lon="6.75712">
        <ele>319</ele>
        <time>2015-06-28T07:32:53.000Z</time>
      </trkpt>
      <trkpt lat="47.49355" lon="6.75718">
        <ele>319</ele>
        <time>2015-06-28T07:32:54.000Z</time>
      </trkpt>
      <trkpt lat="47.4935" lon="6.75719">
        <ele>319</ele>
        <time>2015-06-28T07:32:55.000Z</time>
      </trkpt>
      <trkpt lat="47.49345" lon="6.75722">
        <ele>318</ele>
        <time>2015-06-28T07:32:56.000Z</time>
      </trkpt>
      <trkpt lat="47.4934" lon="6.75724">
        <ele>318</ele>
        <time>2015-06-28T07:32:57.000Z</time>
      </trkpt>
      <trkpt lat="47.49336" lon="6.75726">
        <ele>318</ele>
        <time>2015-06-28T07:32:58.000Z</time>
      </trkpt>
      <trkpt lat="47.49331" lon="6.75728">
        <ele>319</ele>
        <time>2015-06-28T07:32:59.000Z</time>
      </trkpt>
      <trkpt lat="47.49326" lon="6.75731">
        <ele>319</ele>
        <time>2015-06-28T07:33:00.000Z</time>
      </trkpt>
      <trkpt lat="47.49319" lon="6.75736">
        <ele>319</ele>
        <time>2015-06-28T07:33:01.000Z</time>
      </trkpt>
      <trkpt lat="47.49313" lon="6.75743">
        <ele>319</ele>
        <time>2015-06-28T07:33:02.000Z</time>
      </trkpt>
      <trkpt lat="47.49305" lon="6.7575">
        <ele>318</ele>
        <time>2015-06-28T07:33:03.000Z</time>
      </trkpt>
      <trkpt lat="47.49301" lon="6.75757">
        <ele>318</ele>
        <time>2015-06-28T07:33:04.000Z</time>
      </trkpt>
      <trkpt lat="47.49296" lon="6.75763">
        <ele>318</ele>
        <time>2015-06-28T07:33:05.000Z</time>
      </trkpt>
      <trkpt lat="47.4929" lon="6.75771">
        <ele>318</ele>
        <time>2015-06-28T07:33:06.000Z</time>
      </trkpt>
      <trkpt lat="47.49286" lon="6.75778">
        <ele>318</ele>
        <time>2015-06-28T07:33:07.000Z</time>
      </trkpt>
      <trkpt lat="47.49281" lon="6.75785">
        <ele>318</ele>
        <time>2015-06-28T07:33:08.000Z</time>
      </trkpt>
      <trkpt lat="47.49276" lon="6.75792">
        <ele>318</ele>
        <time>2015-06-28T07:33:09.000Z</time>
      </trkpt>
      <trkpt lat="47.49272" lon="6.75798">
        <ele>317</ele>
        <time>2015-06-28T07:33:10.000Z</time>
      </trkpt>
      <trkpt lat="47.49267" lon="6.75804">
        <ele>317</ele>
        <time>2015-06-28T07:33:11.000Z</time>
      </trkpt>
      <trkpt lat="47.49263" lon="6.75808">
        <ele>317</ele>
        <time>2015-06-28T07:33:12.000Z</time>
      </trkpt>
      <trkpt lat="47.49262" lon="6.75813">
        <ele>316</ele>
        <time>2015-06-28T07:33:13.000Z</time>
      </trkpt>
      <trkpt lat="47.4926" lon="6.75817">
        <ele>316</ele>
        <time>2015-06-28T07:33:14.000Z</time>
      </trkpt>
      <trkpt lat="47.49258" lon="6.75825">
        <ele>315</ele>
        <time>2015-06-28T07:33:15.000Z</time>
      </trkpt>
      <trkpt lat="47.49255" lon="6.75832">
        <ele>314</ele>
        <time>2015-06-28T07:33:16.000Z</time>
      </trkpt>
      <trkpt lat="47.49252" lon="6.75836">
        <ele>314</ele>
        <time>2015-06-28T07:33:17.000Z</time>
      </trkpt>
      <trkpt lat="47.49249" lon="6.75842">
        <ele>315</ele>
        <time>2015-06-28T07:33:18.000Z</time>
      </trkpt>
      <trkpt lat="47.49246" lon="6.75848">
        <ele>316</ele>
        <time>2015-06-28T07:33:19.000Z</time>
      </trkpt>
      <trkpt lat="47.49244" lon="6.75855">
        <ele>317</ele>
        <time>2015-06-28T07:33:20.000Z</time>
      </trkpt>
      <trkpt lat="47.49236" lon="6.7586">
        <ele>318</ele>
        <time>2015-06-28T07:33:21.000Z</time>
      </trkpt>
      <trkpt lat="47.49231" lon="6.75869">
        <ele>318</ele>
        <time>2015-06-28T07:33:22.000Z</time>
      </trkpt>
      <trkpt lat="47.49227" lon="6.75876">
        <ele>318</ele>
        <time>2015-06-28T07:33:23.000Z</time>
      </trkpt>
      <trkpt lat="47.49223" lon="6.75883">
        <ele>319</ele>
        <time>2015-06-28T07:33:24.000Z</time>
      </trkpt>
      <trkpt lat="47.4922" lon="6.75889">
        <ele>319</ele>
        <time>2015-06-28T07:33:25.000Z</time>
      </trkpt>
      <trkpt lat="47.49216" lon="6.75894">
        <ele>319</ele>
        <time>2015-06-28T07:33:26.000Z</time>
      </trkpt>
      <trkpt lat="47.49213" lon="6.75899">
        <ele>319</ele>
        <time>2015-06-28T07:33:27.000Z</time>
      </trkpt>
      <trkpt lat="47.4921" lon="6.75907">
        <ele>319</ele>
        <time>2015-06-28T07:33:28.000Z</time>
      </trkpt>
      <trkpt lat="47.49208" lon="6.75913">
        <ele>320</ele>
        <time>2015-06-28T07:33:29.000Z</time>
      </trkpt>
      <trkpt lat="47.49205" lon="6.75918">
        <ele>320</ele>
        <time>2015-06-28T07:33:30.000Z</time>
      </trkpt>
      <trkpt lat="47.49202" lon="6.75923">
        <ele>320</ele>
        <time>2015-06-28T07:33:31.000Z</time>
      </trkpt>
      <trkpt lat="47.49199" lon="6.75927">
        <ele>320</ele>
        <time>2015-06-28T07:33:32.000Z</time>
      </trkpt>
      <trkpt lat="47.49193" lon="6.7593">
        <ele>321</ele>
        <time>2015-06-28T07:33:33.000Z</time>
      </trkpt>
      <trkpt lat="47.4919" lon="6.75935">
        <ele>321</ele>
        <time>2015-06-28T07:33:34.000Z</time>
      </trkpt>
      <trkpt lat="47.49184" lon="6.75949">
        <ele>321</ele>
        <time>2015-06-28T07:33:35.000Z</time>
      </trkpt>
      <trkpt lat="47.49182" lon="6.7596">
        <ele>320</ele>
        <time>2015-06-28T07:33:36.000Z</time>
      </trkpt>
      <trkpt lat="47.49178" lon="6.75971">
        <ele>320</ele>
        <time>2015-06-28T07:33:37.000Z</time>
      </trkpt>
      <trkpt lat="47.49174" lon="6.75979">
        <ele>320</ele>
        <time>2015-06-28T07:33:38.000Z</time>
      </trkpt>
      <trkpt lat="47.49168" lon="6.75989">
        <ele>320</ele>
        <time>2015-06-28T07:33:39.000Z</time>
      </trkpt>
      <trkpt lat="47.49163" lon="6.75997">
        <ele>320</ele>
        <time>2015-06-28T07:33:40.000Z</time>
      </trkpt>
      <trkpt lat="47.49159" lon="6.76005">
        <ele>321</ele>
        <time>2015-06-28T07:33:41.000Z</time>
      </trkpt>
      <trkpt lat="47.49155" lon="6.76012">
        <ele>322</ele>
        <time>2015-06-28T07:33:42.000Z</time>
      </trkpt>
      <trkpt lat="47.4915" lon="6.76019">
        <ele>323</ele>
        <time>2015-06-28T07:33:43.000Z</time>
      </trkpt>
      <trkpt lat="47.49146" lon="6.76028">
        <ele>323</ele>
        <time>2015-06-28T07:33:44.000Z</time>
      </trkpt>
      <trkpt lat="47.49141" lon="6.76036">
        <ele>323</ele>
        <time>2015-06-28T07:33:45.000Z</time>
      </trkpt>
      <trkpt lat="47.49137" lon="6.76046">
        <ele>324</ele>
        <time>2015-06-28T07:33:46.000Z</time>
      </trkpt>
      <trkpt lat="47.49135" lon="6.76057">
        <ele>323</ele>
        <time>2015-06-28T07:33:47.000Z</time>
      </trkpt>
      <trkpt lat="47.49132" lon="6.76066">
        <ele>324</ele>
        <time>2015-06-28T07:33:48.000Z</time>
      </trkpt>
      <trkpt lat="47.49128" lon="6.76075">
        <ele>324</ele>
        <time>2015-06-28T07:33:49.000Z</time>
      </trkpt>
      <trkpt lat="47.49125" lon="6.76083">
        <ele>323</ele>
        <time>2015-06-28T07:33:50.000Z</time>
      </trkpt>
      <trkpt lat="47.49122" lon="6.76091">
        <ele>323</ele>
        <time>2015-06-28T07:33:51.000Z</time>
      </trkpt>
      <trkpt lat="47.49121" lon="6.76095">
        <ele>323</ele>
        <time>2015-06-28T07:33:52.000Z</time>
      </trkpt>
      <trkpt lat="47.49119" lon="6.76102">
        <ele>323</ele>
        <time>2015-06-28T07:33:53.000Z</time>
      </trkpt>
      <trkpt lat="47.49117" lon="6.76109">
        <ele>323</ele>
        <time>2015-06-28T07:33:54.000Z</time>
      </trkpt>
      <trkpt lat="47.49115" lon="6.76115">
        <ele>323</ele>
        <time>2015-06-28T07:33:55.000Z</time>
      </trkpt>
      <trkpt lat="47.49111" lon="6.76123">
        <ele>323</ele>
        <time>2015-06-28T07:33:56.000Z</time>
      </trkpt>
      <trkpt lat="47.49108" lon="6.76129">
        <ele>323</ele>
        <time>2015-06-28T07:33:57.000Z</time>
      </trkpt>
      <trkpt lat="47.49108" lon="6.76139">
        <ele>323</ele>
        <time>2015-06-28T07:33:58.000Z</time>
      </trkpt>
      <trkpt lat="47.49107" lon="6.76151">
        <ele>323</ele>
        <time>2015-06-28T07:33:59.000Z</time>
      </trkpt>
      <trkpt lat="47.49106" lon="6.7616">
        <ele>323</ele>
        <time>2015-06-28T07:34:00.000Z</time>
      </trkpt>
      <trkpt lat="47.49103" lon="6.76169">
        <ele>322</ele>
        <time>2015-06-28T07:34:01.000Z</time>
      </trkpt>
      <trkpt lat="47.491" lon="6.76176">
        <ele>322</ele>
        <time>2015-06-28T07:34:02.000Z</time>
      </trkpt>
      <trkpt lat="47.49097" lon="6.76184">
        <ele>322</ele>
        <time>2015-06-28T07:34:03.000Z</time>
      </trkpt>
      <trkpt lat="47.49096" lon="6.76191">
        <ele>322</ele>
        <time>2015-06-28T07:34:04.000Z</time>
      </trkpt>
      <trkpt lat="47.49095" lon="6.76197">
        <ele>322</ele>
        <time>2015-06-28T07:34:05.000Z</time>
      </trkpt>
      <trkpt lat="47.49095" lon="6.76204">
        <ele>322</ele>
        <time>2015-06-28T07:34:06.000Z</time>
      </trkpt>
      <trkpt lat="47.49095" lon="6.7621">
        <ele>322</ele>
        <time>2015-06-28T07:34:07.000Z</time>
      </trkpt>
      <trkpt lat="47.49095" lon="6.76218">
        <ele>322</ele>
        <time>2015-06-28T07:34:08.000Z</time>
      </trkpt>
      <trkpt lat="47.49093" lon="6.76225">
        <ele>322</ele>
        <time>2015-06-28T07:34:09.000Z</time>
      </trkpt>
      <trkpt lat="47.49094" lon="6.76233">
        <ele>323</ele>
        <time>2015-06-28T07:34:10.000Z</time>
      </trkpt>
      <trkpt lat="47.49094" lon="6.7624">
        <ele>323</ele>
        <time>2015-06-28T07:34:11.000Z</time>
      </trkpt>
      <trkpt lat="47.49093" lon="6.76247">
        <ele>324</ele>
        <time>2015-06-28T07:34:12.000Z</time>
      </trkpt>
      <trkpt lat="47.49092" lon="6.76255">
        <ele>323</ele>
        <time>2015-06-28T07:34:13.000Z</time>
      </trkpt>
      <trkpt lat="47.49091" lon="6.76263">
        <ele>323</ele>
        <time>2015-06-28T07:34:14.000Z</time>
      </trkpt>
      <trkpt lat="47.49089" lon="6.76271">
        <ele>322</ele>
        <time>2015-06-28T07:34:15.000Z</time>
      </trkpt>
      <trkpt lat="47.49087" lon="6.7628">
        <ele>322</ele>
        <time>2015-06-28T07:34:16.000Z</time>
      </trkpt>
      <trkpt lat="47.49085" lon="6.7629">
        <ele>321</ele>
        <time>2015-06-28T07:34:17.000Z</time>
      </trkpt>
      <trkpt lat="47.49082" lon="6.76299">
        <ele>334</ele>
        <time>2015-06-28T07:34:18.000Z</time>
      </trkpt>
      <trkpt lat="47.49081" lon="6.76309">
        <ele>332</ele>
        <time>2015-06-28T07:34:19.000Z</time>
      </trkpt>
      <trkpt lat="47.49088" lon="6.76347">
        <ele>321</ele>
        <time>2015-06-28T07:34:20.000Z</time>
      </trkpt>
      <trkpt lat="47.49089" lon="6.76363">
        <ele>320</ele>
        <time>2015-06-28T07:34:21.000Z</time>
      </trkpt>
      <trkpt lat="47.49089" lon="6.76376">
        <ele>319</ele>
        <time>2015-06-28T07:34:22.000Z</time>
      </trkpt>
      <trkpt lat="47.49094" lon="6.76395">
        <ele>319</ele>
        <time>2015-06-28T07:34:23.000Z</time>
      </trkpt>
      <trkpt lat="47.49094" lon="6.76407">
        <ele>320</ele>
        <time>2015-06-28T07:34:24.000Z</time>
      </trkpt>
      <trkpt lat="47.49098" lon="6.76428">
        <ele>319</ele>
        <time>2015-06-28T07:34:25.000Z</time>
      </trkpt>
      <trkpt lat="47.49101" lon="6.76451">
        <ele>318</ele>
        <time>2015-06-28T07:34:26.000Z</time>
      </trkpt>
      <trkpt lat="47.491" lon="6.76465">
        <ele>318</ele>
        <time>2015-06-28T07:34:27.000Z</time>
      </trkpt>
      <trkpt lat="47.49099" lon="6.76477">
        <ele>318</ele>
        <time>2015-06-28T07:34:28.000Z</time>
      </trkpt>
      <trkpt lat="47.49098" lon="6.76487">
        <ele>319</ele>
        <time>2015-06-28T07:34:29.000Z</time>
      </trkpt>
      <trkpt lat="47.49096" lon="6.76499">
        <ele>319</ele>
        <time>2015-06-28T07:34:30.000Z</time>
      </trkpt>
      <trkpt lat="47.49098" lon="6.76508">
        <ele>318</ele>
        <time>2015-06-28T07:34:31.000Z</time>
      </trkpt>
      <trkpt lat="47.49114" lon="6.76522">
        <ele>317</ele>
        <time>2015-06-28T07:34:32.000Z</time>
      </trkpt>
      <trkpt lat="47.49131" lon="6.76515">
        <ele>316</ele>
        <time>2015-06-28T07:34:33.000Z</time>
      </trkpt>
      <trkpt lat="47.49143" lon="6.76515">
        <ele>315</ele>
        <time>2015-06-28T07:34:34.000Z</time>
      </trkpt>
      <trkpt lat="47.4915" lon="6.76509">
        <ele>315</ele>
        <time>2015-06-28T07:34:35.000Z</time>
      </trkpt>
      <trkpt lat="47.49157" lon="6.76505">
        <ele>314</ele>
        <time>2015-06-28T07:34:36.000Z</time>
      </trkpt>
      <trkpt lat="47.49163" lon="6.76502">
        <ele>313</ele>
        <time>2015-06-28T07:34:37.000Z</time>
      </trkpt>
      <trkpt lat="47.49169" lon="6.76497">
        <ele>314</ele>
        <time>2015-06-28T07:34:38.000Z</time>
      </trkpt>
      <trkpt lat="47.49174" lon="6.76493">
        <ele>315</ele>
        <time>2015-06-28T07:34:39.000Z</time>
      </trkpt>
      <trkpt lat="47.49176" lon="6.76485">
        <ele>315</ele>
        <time>2015-06-28T07:34:40.000Z</time>
      </trkpt>
      <trkpt lat="47.49174" lon="6.76483">
        <ele>315</ele>
        <time>2015-06-28T07:34:41.000Z</time>
      </trkpt>
      <trkpt lat="47.49171" lon="6.76482">
        <ele>315</ele>
        <time>2015-06-28T07:34:42.000Z</time>
      </trkpt>
      <trkpt lat="47.49168" lon="6.76478">
        <ele>316</ele>
        <time>2015-06-28T07:34:45.000Z</time>
      </trkpt>
      <trkpt lat="47.49168" lon="6.76477">
        <ele>316</ele>
        <time>2015-06-28T07:34:46.000Z</time>
      </trkpt>
      <trkpt lat="47.49169" lon="6.76483">
        <ele>315</ele>
        <time>2015-06-28T07:36:20.000Z</time>
      </trkpt>
      <trkpt lat="47.49168" lon="6.76484">
        <ele>315</ele>
        <time>2015-06-28T07:36:21.000Z</time>
      </trkpt>
      <trkpt lat="47.49172" lon="6.76481">
        <ele>315</ele>
        <time>2015-06-28T07:36:52.000Z</time>
      </trkpt>
      <trkpt lat="47.49172" lon="6.76481">
        <ele>315</ele>
        <time>2015-06-28T07:36:53.000Z</time>
      </trkpt>
      <trkpt lat="47.49174" lon="6.76486">
        <ele>315</ele>
        <time>2015-06-28T07:37:36.000Z</time>
      </trkpt>
      <trkpt lat="47.49175" lon="6.76489">
        <ele>315</ele>
        <time>2015-06-28T07:37:37.000Z</time>
      </trkpt>
      <trkpt lat="47.49177" lon="6.76494">
        <ele>315</ele>
        <time>2015-06-28T07:37:39.000Z</time>
      </trkpt>
      <trkpt lat="47.49178" lon="6.76497">
        <ele>315</ele>
        <time>2015-06-28T07:37:40.000Z</time>
      </trkpt>
      <trkpt lat="47.49177" lon="6.76501">
        <ele>314</ele>
        <time>2015-06-28T07:37:41.000Z</time>
      </trkpt>
      <trkpt lat="47.49176" lon="6.76504">
        <ele>314</ele>
        <time>2015-06-28T07:37:42.000Z</time>
      </trkpt>
      <trkpt lat="47.49174" lon="6.76506">
        <ele>314</ele>
        <time>2015-06-28T07:37:43.000Z</time>
      </trkpt>
      <trkpt lat="47.49171" lon="6.76508">
        <ele>314</ele>
        <time>2015-06-28T07:37:44.000Z</time>
      </trkpt>
      <trkpt lat="47.49168" lon="6.7651">
        <ele>314</ele>
        <time>2015-06-28T07:37:45.000Z</time>
      </trkpt>
      <trkpt lat="47.49166" lon="6.76512">
        <ele>314</ele>
        <time>2015-06-28T07:37:46.000Z</time>
      </trkpt>
      <trkpt lat="47.49162" lon="6.76513">
        <ele>314</ele>
        <time>2015-06-28T07:37:47.000Z</time>
      </trkpt>
      <trkpt lat="47.49155" lon="6.76516">
        <ele>315</ele>
        <time>2015-06-28T07:37:48.000Z</time>
      </trkpt>
      <trkpt lat="47.4915" lon="6.7652">
        <ele>315</ele>
        <time>2015-06-28T07:37:49.000Z</time>
      </trkpt>
      <trkpt lat="47.49144" lon="6.7652">
        <ele>315</ele>
        <time>2015-06-28T07:37:50.000Z</time>
      </trkpt>
      <trkpt lat="47.49138" lon="6.76521">
        <ele>315</ele>
        <time>2015-06-28T07:37:51.000Z</time>
      </trkpt>
      <trkpt lat="47.49133" lon="6.76521">
        <ele>316</ele>
        <time>2015-06-28T07:37:52.000Z</time>
      </trkpt>
      <trkpt lat="47.49128" lon="6.76524">
        <ele>316</ele>
        <time>2015-06-28T07:37:53.000Z</time>
      </trkpt>
      <trkpt lat="47.49125" lon="6.7653">
        <ele>316</ele>
        <time>2015-06-28T07:37:54.000Z</time>
      </trkpt>
      <trkpt lat="47.49124" lon="6.76537">
        <ele>316</ele>
        <time>2015-06-28T07:37:55.000Z</time>
      </trkpt>
      <trkpt lat="47.49123" lon="6.76544">
        <ele>316</ele>
        <time>2015-06-28T07:37:56.000Z</time>
      </trkpt>
      <trkpt lat="47.49125" lon="6.76552">
        <ele>316</ele>
        <time>2015-06-28T07:37:57.000Z</time>
      </trkpt>
      <trkpt lat="47.49125" lon="6.7656">
        <ele>315</ele>
        <time>2015-06-28T07:37:58.000Z</time>
      </trkpt>
      <trkpt lat="47.49125" lon="6.76567">
        <ele>315</ele>
        <time>2015-06-28T07:37:59.000Z</time>
      </trkpt>
      <trkpt lat="47.49125" lon="6.76575">
        <ele>315</ele>
        <time>2015-06-28T07:38:00.000Z</time>
      </trkpt>
      <trkpt lat="47.49125" lon="6.76581">
        <ele>315</ele>
        <time>2015-06-28T07:38:01.000Z</time>
      </trkpt>
      <trkpt lat="47.49126" lon="6.76587">
        <ele>314</ele>
        <time>2015-06-28T07:38:02.000Z</time>
      </trkpt>
      <trkpt lat="47.49127" lon="6.76595">
        <ele>314</ele>
        <time>2015-06-28T07:38:03.000Z</time>
      </trkpt>
      <trkpt lat="47.49128" lon="6.76603">
        <ele>314</ele>
        <time>2015-06-28T07:38:04.000Z</time>
      </trkpt>
      <trkpt lat="47.49129" lon="6.7661">
        <ele>314</ele>
        <time>2015-06-28T07:38:05.000Z</time>
      </trkpt>
      <trkpt lat="47.4913" lon="6.76617">
        <ele>314</ele>
        <time>2015-06-28T07:38:06.000Z</time>
      </trkpt>
      <trkpt lat="47.49131" lon="6.76624">
        <ele>314</ele>
        <time>2015-06-28T07:38:07.000Z</time>
      </trkpt>
      <trkpt lat="47.49132" lon="6.76632">
        <ele>314</ele>
        <time>2015-06-28T07:38:08.000Z</time>
      </trkpt>
      <trkpt lat="47.49133" lon="6.7664">
        <ele>314</ele>
        <time>2015-06-28T07:38:09.000Z</time>
      </trkpt>
      <trkpt lat="47.49133" lon="6.76648">
        <ele>314</ele>
        <time>2015-06-28T07:38:10.000Z</time>
      </trkpt>
      <trkpt lat="47.49134" lon="6.76655">
        <ele>314</ele>
        <time>2015-06-28T07:38:11.000Z</time>
      </trkpt>
      <trkpt lat="47.49137" lon="6.76662">
        <ele>314</ele>
        <time>2015-06-28T07:38:12.000Z</time>
      </trkpt>
      <trkpt lat="47.49139" lon="6.76669">
        <ele>314</ele>
        <time>2015-06-28T07:38:13.000Z</time>
      </trkpt>
      <trkpt lat="47.49141" lon="6.76676">
        <ele>314</ele>
        <time>2015-06-28T07:38:14.000Z</time>
      </trkpt>
      <trkpt lat="47.49142" lon="6.76684">
        <ele>314</ele>
        <time>2015-06-28T07:38:15.000Z</time>
      </trkpt>
      <trkpt lat="47.49143" lon="6.7669">
        <ele>313</ele>
        <time>2015-06-28T07:38:16.000Z</time>
      </trkpt>
      <trkpt lat="47.49143" lon="6.76701">
        <ele>313</ele>
        <time>2015-06-28T07:38:17.000Z</time>
      </trkpt>
      <trkpt lat="47.49144" lon="6.76707">
        <ele>313</ele>
        <time>2015-06-28T07:38:18.000Z</time>
      </trkpt>
      <trkpt lat="47.49145" lon="6.76715">
        <ele>313</ele>
        <time>2015-06-28T07:38:19.000Z</time>
      </trkpt>
      <trkpt lat="47.49145" lon="6.76721">
        <ele>313</ele>
        <time>2015-06-28T07:38:20.000Z</time>
      </trkpt>
      <trkpt lat="47.49145" lon="6.76727">
        <ele>313</ele>
        <time>2015-06-28T07:38:21.000Z</time>
      </trkpt>
      <trkpt lat="47.49146" lon="6.76733">
        <ele>313</ele>
        <time>2015-06-28T07:38:22.000Z</time>
      </trkpt>
      <trkpt lat="47.49147" lon="6.7674">
        <ele>313</ele>
        <time>2015-06-28T07:38:23.000Z</time>
      </trkpt>
      <trkpt lat="47.49149" lon="6.76746">
        <ele>313</ele>
        <time>2015-06-28T07:38:24.000Z</time>
      </trkpt>
      <trkpt lat="47.49151" lon="6.76752">
        <ele>313</ele>
        <time>2015-06-28T07:38:25.000Z</time>
      </trkpt>
      <trkpt lat="47.4915" lon="6.7676">
        <ele>313</ele>
        <time>2015-06-28T07:38:26.000Z</time>
      </trkpt>
      <trkpt lat="47.49151" lon="6.76766">
        <ele>313</ele>
        <time>2015-06-28T07:38:27.000Z</time>
      </trkpt>
      <trkpt lat="47.49148" lon="6.76773">
        <ele>313</ele>
        <time>2015-06-28T07:38:28.000Z</time>
      </trkpt>
      <trkpt lat="47.49149" lon="6.7678">
        <ele>312</ele>
        <time>2015-06-28T07:38:29.000Z</time>
      </trkpt>
      <trkpt lat="47.49148" lon="6.76786">
        <ele>312</ele>
        <time>2015-06-28T07:38:30.000Z</time>
      </trkpt>
      <trkpt lat="47.49148" lon="6.76792">
        <ele>312</ele>
        <time>2015-06-28T07:38:31.000Z</time>
      </trkpt>
      <trkpt lat="47.49147" lon="6.76798">
        <ele>312</ele>
        <time>2015-06-28T07:38:32.000Z</time>
      </trkpt>
      <trkpt lat="47.49149" lon="6.76807">
        <ele>312</ele>
        <time>2015-06-28T07:38:33.000Z</time>
      </trkpt>
      <trkpt lat="47.4915" lon="6.76816">
        <ele>313</ele>
        <time>2015-06-28T07:38:34.000Z</time>
      </trkpt>
      <trkpt lat="47.4915" lon="6.76824">
        <ele>313</ele>
        <time>2015-06-28T07:38:35.000Z</time>
      </trkpt>
      <trkpt lat="47.4915" lon="6.76831">
        <ele>313</ele>
        <time>2015-06-28T07:38:36.000Z</time>
      </trkpt>
      <trkpt lat="47.4915" lon="6.76838">
        <ele>312</ele>
        <time>2015-06-28T07:38:37.000Z</time>
      </trkpt>
      <trkpt lat="47.49149" lon="6.76845">
        <ele>312</ele>
        <time>2015-06-28T07:38:38.000Z</time>
      </trkpt>
      <trkpt lat="47.49147" lon="6.76853">
        <ele>312</ele>
        <time>2015-06-28T07:38:39.000Z</time>
      </trkpt>
      <trkpt lat="47.49149" lon="6.76861">
        <ele>312</ele>
        <time>2015-06-28T07:38:40.000Z</time>
      </trkpt>
      <trkpt lat="47.49149" lon="6.76866">
        <ele>312</ele>
        <time>2015-06-28T07:38:41.000Z</time>
      </trkpt>
      <trkpt lat="47.49149" lon="6.76872">
        <ele>312</ele>
        <time>2015-06-28T07:38:42.000Z</time>
      </trkpt>
      <trkpt lat="47.49148" lon="6.76879">
        <ele>312</ele>
        <time>2015-06-28T07:38:43.000Z</time>
      </trkpt>
      <trkpt lat="47.49148" lon="6.76888">
        <ele>312</ele>
        <time>2015-06-28T07:38:44.000Z</time>
      </trkpt>
      <trkpt lat="47.49148" lon="6.76893">
        <ele>312</ele>
        <time>2015-06-28T07:38:45.000Z</time>
      </trkpt>
      <trkpt lat="47.49147" lon="6.76901">
        <ele>312</ele>
        <time>2015-06-28T07:38:46.000Z</time>
      </trkpt>
      <trkpt lat="47.49147" lon="6.76909">
        <ele>312</ele>
        <time>2015-06-28T07:38:47.000Z</time>
      </trkpt>
      <trkpt lat="47.49144" lon="6.76918">
        <ele>312</ele>
        <time>2015-06-28T07:38:48.000Z</time>
      </trkpt>
      <trkpt lat="47.49144" lon="6.76925">
        <ele>312</ele>
        <time>2015-06-28T07:38:49.000Z</time>
      </trkpt>
      <trkpt lat="47.49144" lon="6.76931">
        <ele>312</ele>
        <time>2015-06-28T07:38:50.000Z</time>
      </trkpt>
      <trkpt lat="47.49143" lon="6.76938">
        <ele>312</ele>
        <time>2015-06-28T07:38:51.000Z</time>
      </trkpt>
      <trkpt lat="47.49142" lon="6.76945">
        <ele>312</ele>
        <time>2015-06-28T07:38:52.000Z</time>
      </trkpt>
      <trkpt lat="47.49142" lon="6.76951">
        <ele>312</ele>
        <time>2015-06-28T07:38:53.000Z</time>
      </trkpt>
      <trkpt lat="47.49142" lon="6.76968">
        <ele>312</ele>
        <time>2015-06-28T07:38:54.000Z</time>
      </trkpt>
      <trkpt lat="47.49144" lon="6.76978">
        <ele>312</ele>
        <time>2015-06-28T07:38:55.000Z</time>
      </trkpt>
      <trkpt lat="47.49147" lon="6.76986">
        <ele>312</ele>
        <time>2015-06-28T07:38:56.000Z</time>
      </trkpt>
      <trkpt lat="47.4915" lon="6.76992">
        <ele>312</ele>
        <time>2015-06-28T07:38:57.000Z</time>
      </trkpt>
      <trkpt lat="47.49154" lon="6.77">
        <ele>312</ele>
        <time>2015-06-28T07:38:58.000Z</time>
      </trkpt>
      <trkpt lat="47.49156" lon="6.77007">
        <ele>312</ele>
        <time>2015-06-28T07:38:59.000Z</time>
      </trkpt>
      <trkpt lat="47.49159" lon="6.77015">
        <ele>312</ele>
        <time>2015-06-28T07:39:00.000Z</time>
      </trkpt>
      <trkpt lat="47.49161" lon="6.77023">
        <ele>312</ele>
        <time>2015-06-28T07:39:01.000Z</time>
      </trkpt>
      <trkpt lat="47.49162" lon="6.77031">
        <ele>312</ele>
        <time>2015-06-28T07:39:02.000Z</time>
      </trkpt>
      <trkpt lat="47.49163" lon="6.77039">
        <ele>312</ele>
        <time>2015-06-28T07:39:03.000Z</time>
      </trkpt>
      <trkpt lat="47.49163" lon="6.77048">
        <ele>312</ele>
        <time>2015-06-28T07:39:04.000Z</time>
      </trkpt>
      <trkpt lat="47.49165" lon="6.77056">
        <ele>312</ele>
        <time>2015-06-28T07:39:05.000Z</time>
      </trkpt>
      <trkpt lat="47.49166" lon="6.77065">
        <ele>312</ele>
        <time>2015-06-28T07:39:06.000Z</time>
      </trkpt>
      <trkpt lat="47.49166" lon="6.77072">
        <ele>312</ele>
        <time>2015-06-28T07:39:07.000Z</time>
      </trkpt>
      <trkpt lat="47.49167" lon="6.7708">
        <ele>312</ele>
        <time>2015-06-28T07:39:08.000Z</time>
      </trkpt>
      <trkpt lat="47.49168" lon="6.77088">
        <ele>312</ele>
        <time>2015-06-28T07:39:09.000Z</time>
      </trkpt>
      <trkpt lat="47.49171" lon="6.77097">
        <ele>312</ele>
        <time>2015-06-28T07:39:10.000Z</time>
      </trkpt>
      <trkpt lat="47.49173" lon="6.77104">
        <ele>312</ele>
        <time>2015-06-28T07:39:11.000Z</time>
      </trkpt>
      <trkpt lat="47.49175" lon="6.7711">
        <ele>313</ele>
        <time>2015-06-28T07:39:12.000Z</time>
      </trkpt>
      <trkpt lat="47.49176" lon="6.77114">
        <ele>313</ele>
        <time>2015-06-28T07:39:13.000Z</time>
      </trkpt>
      <trkpt lat="47.49177" lon="6.77118">
        <ele>313</ele>
        <time>2015-06-28T07:39:14.000Z</time>
      </trkpt>
      <trkpt lat="47.49177" lon="6.77124">
        <ele>313</ele>
        <time>2015-06-28T07:39:16.000Z</time>
      </trkpt>
      <trkpt lat="47.49177" lon="6.7713">
        <ele>313</ele>
        <time>2015-06-28T07:39:17.000Z</time>
      </trkpt>
      <trkpt lat="47.49178" lon="6.77135">
        <ele>313</ele>
        <time>2015-06-28T07:39:18.000Z</time>
      </trkpt>
      <trkpt lat="47.49179" lon="6.7714">
        <ele>313</ele>
        <time>2015-06-28T07:39:19.000Z</time>
      </trkpt>
      <trkpt lat="47.4918" lon="6.77143">
        <ele>313</ele>
        <time>2015-06-28T07:39:20.000Z</time>
      </trkpt>
      <trkpt lat="47.4918" lon="6.77149">
        <ele>313</ele>
        <time>2015-06-28T07:39:21.000Z</time>
      </trkpt>
      <trkpt lat="47.49181" lon="6.77154">
        <ele>313</ele>
        <time>2015-06-28T07:39:22.000Z</time>
      </trkpt>
      <trkpt lat="47.49182" lon="6.7716">
        <ele>313</ele>
        <time>2015-06-28T07:39:23.000Z</time>
      </trkpt>
      <trkpt lat="47.49182" lon="6.77166">
        <ele>313</ele>
        <time>2015-06-28T07:39:23.998Z</time>
      </trkpt>
      <trkpt lat="47.49182" lon="6.77174">
        <ele>313</ele>
        <time>2015-06-28T07:39:25.000Z</time>
      </trkpt>
      <trkpt lat="47.49182" lon="6.77181">
        <ele>313</ele>
        <time>2015-06-28T07:39:26.000Z</time>
      </trkpt>
      <trkpt lat="47.49181" lon="6.77191">
        <ele>313</ele>
        <time>2015-06-28T07:39:27.000Z</time>
      </trkpt>
      <trkpt lat="47.4918" lon="6.77196">
        <ele>312</ele>
        <time>2015-06-28T07:39:28.000Z</time>
      </trkpt>
      <trkpt lat="47.4918" lon="6.77202">
        <ele>312</ele>
        <time>2015-06-28T07:39:29.000Z</time>
      </trkpt>
      <trkpt lat="47.49179" lon="6.77209">
        <ele>312</ele>
        <time>2015-06-28T07:39:30.000Z</time>
      </trkpt>
      <trkpt lat="47.49178" lon="6.77216">
        <ele>312</ele>
        <time>2015-06-28T07:39:31.000Z</time>
      </trkpt>
      <trkpt lat="47.49178" lon="6.77223">
        <ele>312</ele>
        <time>2015-06-28T07:39:32.000Z</time>
      </trkpt>
      <trkpt lat="47.49178" lon="6.7723">
        <ele>312</ele>
        <time>2015-06-28T07:39:33.000Z</time>
      </trkpt>
      <trkpt lat="47.49178" lon="6.77235">
        <ele>312</ele>
        <time>2015-06-28T07:39:34.000Z</time>
      </trkpt>
      <trkpt lat="47.49181" lon="6.77237">
        <ele>312</ele>
        <time>2015-06-28T07:39:35.000Z</time>
      </trkpt>
      <trkpt lat="47.49182" lon="6.77241">
        <ele>312</ele>
        <time>2015-06-28T07:39:36.000Z</time>
      </trkpt>
      <trkpt lat="47.49182" lon="6.77246">
        <ele>312</ele>
        <time>2015-06-28T07:39:37.000Z</time>
      </trkpt>
      <trkpt lat="47.4918" lon="6.77256">
        <ele>311</ele>
        <time>2015-06-28T07:39:38.000Z</time>
      </trkpt>
      <trkpt lat="47.49178" lon="6.77262">
        <ele>311</ele>
        <time>2015-06-28T07:39:39.000Z</time>
      </trkpt>
      <trkpt lat="47.49177" lon="6.77271">
        <ele>311</ele>
        <time>2015-06-28T07:39:40.000Z</time>
      </trkpt>
      <trkpt lat="47.49177" lon="6.7728">
        <ele>311</ele>
        <time>2015-06-28T07:39:41.000Z</time>
      </trkpt>
      <trkpt lat="47.49177" lon="6.77287">
        <ele>311</ele>
        <time>2015-06-28T07:39:42.000Z</time>
      </trkpt>
      <trkpt lat="47.49177" lon="6.77295">
        <ele>311</ele>
        <time>2015-06-28T07:39:43.000Z</time>
      </trkpt>
      <trkpt lat="47.49176" lon="6.77304">
        <ele>311</ele>
        <time>2015-06-28T07:39:44.000Z</time>
      </trkpt>
      <trkpt lat="47.49176" lon="6.77311">
        <ele>311</ele>
        <time>2015-06-28T07:39:45.000Z</time>
      </trkpt>
      <trkpt lat="47.49173" lon="6.77317">
        <ele>310</ele>
        <time>2015-06-28T07:39:46.000Z</time>
      </trkpt>
      <trkpt lat="47.49171" lon="6.7732">
        <ele>310</ele>
        <time>2015-06-28T07:39:47.000Z</time>
      </trkpt>
      <trkpt lat="47.49167" lon="6.77325">
        <ele>310</ele>
        <time>2015-06-28T07:39:48.000Z</time>
      </trkpt>
      <trkpt lat="47.49164" lon="6.77322">
        <ele>310</ele>
        <time>2015-06-28T07:39:49.000Z</time>
      </trkpt>
      <trkpt lat="47.49159" lon="6.77322">
        <ele>311</ele>
        <time>2015-06-28T07:39:50.000Z</time>
      </trkpt>
      <trkpt lat="47.49155" lon="6.77324">
        <ele>311</ele>
        <time>2015-06-28T07:39:51.000Z</time>
      </trkpt>
      <trkpt lat="47.49151" lon="6.77326">
        <ele>311</ele>
        <time>2015-06-28T07:39:52.000Z</time>
      </trkpt>
      <trkpt lat="47.49147" lon="6.77326">
        <ele>311</ele>
        <time>2015-06-28T07:39:53.000Z</time>
      </trkpt>
      <trkpt lat="47.49142" lon="6.77327">
        <ele>311</ele>
        <time>2015-06-28T07:39:54.000Z</time>
      </trkpt>
      <trkpt lat="47.49137" lon="6.77328">
        <ele>311</ele>
        <time>2015-06-28T07:39:55.000Z</time>
      </trkpt>
      <trkpt lat="47.49131" lon="6.77328">
        <ele>311</ele>
        <time>2015-06-28T07:39:56.000Z</time>
      </trkpt>
      <trkpt lat="47.49126" lon="6.77328">
        <ele>311</ele>
        <time>2015-06-28T07:39:57.000Z</time>
      </trkpt>
      <trkpt lat="47.49121" lon="6.77327">
        <ele>311</ele>
        <time>2015-06-28T07:39:58.000Z</time>
      </trkpt>
      <trkpt lat="47.49116" lon="6.77328">
        <ele>311</ele>
        <time>2015-06-28T07:39:59.000Z</time>
      </trkpt>
      <trkpt lat="47.4911" lon="6.77327">
        <ele>311</ele>
        <time>2015-06-28T07:40:00.000Z</time>
      </trkpt>
      <trkpt lat="47.49105" lon="6.77328">
        <ele>311</ele>
        <time>2015-06-28T07:40:01.000Z</time>
      </trkpt>
      <trkpt lat="47.49099" lon="6.77327">
        <ele>311</ele>
        <time>2015-06-28T07:40:02.000Z</time>
      </trkpt>
      <trkpt lat="47.49094" lon="6.77327">
        <ele>311</ele>
        <time>2015-06-28T07:40:03.000Z</time>
      </trkpt>
      <trkpt lat="47.49088" lon="6.77327">
        <ele>311</ele>
        <time>2015-06-28T07:40:04.000Z</time>
      </trkpt>
      <trkpt lat="47.49083" lon="6.77329">
        <ele>311</ele>
        <time>2015-06-28T07:40:05.000Z</time>
      </trkpt>
      <trkpt lat="47.49077" lon="6.77327">
        <ele>311</ele>
        <time>2015-06-28T07:40:06.000Z</time>
      </trkpt>
      <trkpt lat="47.4907" lon="6.77328">
        <ele>311</ele>
        <time>2015-06-28T07:40:07.000Z</time>
      </trkpt>
      <trkpt lat="47.49064" lon="6.77327">
        <ele>311</ele>
        <time>2015-06-28T07:40:08.000Z</time>
      </trkpt>
      <trkpt lat="47.49057" lon="6.77327">
        <ele>311</ele>
        <time>2015-06-28T07:40:09.000Z</time>
      </trkpt>
      <trkpt lat="47.49052" lon="6.77327">
        <ele>311</ele>
        <time>2015-06-28T07:40:10.000Z</time>
      </trkpt>
      <trkpt lat="47.49045" lon="6.77327">
        <ele>311</ele>
        <time>2015-06-28T07:40:11.000Z</time>
      </trkpt>
      <trkpt lat="47.49039" lon="6.77326">
        <ele>311</ele>
        <time>2015-06-28T07:40:12.000Z</time>
      </trkpt>
      <trkpt lat="47.49033" lon="6.77325">
        <ele>311</ele>
        <time>2015-06-28T07:40:13.000Z</time>
      </trkpt>
      <trkpt lat="47.49027" lon="6.77325">
        <ele>311</ele>
        <time>2015-06-28T07:40:14.000Z</time>
      </trkpt>
      <trkpt lat="47.49021" lon="6.77326">
        <ele>311</ele>
        <time>2015-06-28T07:40:15.000Z</time>
      </trkpt>
      <trkpt lat="47.49016" lon="6.77324">
        <ele>311</ele>
        <time>2015-06-28T07:40:16.000Z</time>
      </trkpt>
      <trkpt lat="47.4901" lon="6.77326">
        <ele>311</ele>
        <time>2015-06-28T07:40:17.000Z</time>
      </trkpt>
      <trkpt lat="47.49004" lon="6.77326">
        <ele>311</ele>
        <time>2015-06-28T07:40:18.000Z</time>
      </trkpt>
      <trkpt lat="47.48997" lon="6.77326">
        <ele>311</ele>
        <time>2015-06-28T07:40:19.000Z</time>
      </trkpt>
      <trkpt lat="47.48991" lon="6.77326">
        <ele>311</ele>
        <time>2015-06-28T07:40:20.000Z</time>
      </trkpt>
      <trkpt lat="47.48985" lon="6.77325">
        <ele>311</ele>
        <time>2015-06-28T07:40:21.000Z</time>
      </trkpt>
      <trkpt lat="47.48981" lon="6.77324">
        <ele>311</ele>
        <time>2015-06-28T07:40:22.000Z</time>
      </trkpt>
      <trkpt lat="47.48975" lon="6.77323">
        <ele>311</ele>
        <time>2015-06-28T07:40:23.000Z</time>
      </trkpt>
      <trkpt lat="47.48969" lon="6.77323">
        <ele>311</ele>
        <time>2015-06-28T07:40:24.000Z</time>
      </trkpt>
      <trkpt lat="47.48963" lon="6.77323">
        <ele>311</ele>
        <time>2015-06-28T07:40:25.000Z</time>
      </trkpt>
      <trkpt lat="47.48956" lon="6.77321">
        <ele>311</ele>
        <time>2015-06-28T07:40:26.000Z</time>
      </trkpt>
      <trkpt lat="47.4895" lon="6.7732">
        <ele>311</ele>
        <time>2015-06-28T07:40:27.000Z</time>
      </trkpt>
      <trkpt lat="47.48945" lon="6.77318">
        <ele>311</ele>
        <time>2015-06-28T07:40:28.000Z</time>
      </trkpt>
      <trkpt lat="47.48939" lon="6.77315">
        <ele>311</ele>
        <time>2015-06-28T07:40:29.000Z</time>
      </trkpt>
      <trkpt lat="47.48933" lon="6.77314">
        <ele>311</ele>
        <time>2015-06-28T07:40:30.000Z</time>
      </trkpt>
      <trkpt lat="47.48928" lon="6.77311">
        <ele>311</ele>
        <time>2015-06-28T07:40:31.000Z</time>
      </trkpt>
      <trkpt lat="47.48922" lon="6.77309">
        <ele>310</ele>
        <time>2015-06-28T07:40:32.000Z</time>
      </trkpt>
      <trkpt lat="47.48916" lon="6.77306">
        <ele>310</ele>
        <time>2015-06-28T07:40:33.000Z</time>
      </trkpt>
      <trkpt lat="47.4891" lon="6.77303">
        <ele>310</ele>
        <time>2015-06-28T07:40:34.000Z</time>
      </trkpt>
      <trkpt lat="47.48904" lon="6.773">
        <ele>310</ele>
        <time>2015-06-28T07:40:35.000Z</time>
      </trkpt>
      <trkpt lat="47.48899" lon="6.77298">
        <ele>310</ele>
        <time>2015-06-28T07:40:36.000Z</time>
      </trkpt>
      <trkpt lat="47.48893" lon="6.77296">
        <ele>310</ele>
        <time>2015-06-28T07:40:37.000Z</time>
      </trkpt>
      <trkpt lat="47.48886" lon="6.77294">
        <ele>310</ele>
        <time>2015-06-28T07:40:38.000Z</time>
      </trkpt>
      <trkpt lat="47.48881" lon="6.7729">
        <ele>310</ele>
        <time>2015-06-28T07:40:39.000Z</time>
      </trkpt>
      <trkpt lat="47.48875" lon="6.77288">
        <ele>310</ele>
        <time>2015-06-28T07:40:40.000Z</time>
      </trkpt>
      <trkpt lat="47.48871" lon="6.77285">
        <ele>310</ele>
        <time>2015-06-28T07:40:41.000Z</time>
      </trkpt>
      <trkpt lat="47.48863" lon="6.77283">
        <ele>310</ele>
        <time>2015-06-28T07:40:42.000Z</time>
      </trkpt>
      <trkpt lat="47.48858" lon="6.7728">
        <ele>310</ele>
        <time>2015-06-28T07:40:43.000Z</time>
      </trkpt>
      <trkpt lat="47.48853" lon="6.77277">
        <ele>310</ele>
        <time>2015-06-28T07:40:44.000Z</time>
      </trkpt>
      <trkpt lat="47.48847" lon="6.77274">
        <ele>310</ele>
        <time>2015-06-28T07:40:45.000Z</time>
      </trkpt>
      <trkpt lat="47.48841" lon="6.77272">
        <ele>310</ele>
        <time>2015-06-28T07:40:46.000Z</time>
      </trkpt>
      <trkpt lat="47.48836" lon="6.77268">
        <ele>310</ele>
        <time>2015-06-28T07:40:47.000Z</time>
      </trkpt>
      <trkpt lat="47.48832" lon="6.77265">
        <ele>310</ele>
        <time>2015-06-28T07:40:48.000Z</time>
      </trkpt>
      <trkpt lat="47.48827" lon="6.77261">
        <ele>310</ele>
        <time>2015-06-28T07:40:49.000Z</time>
      </trkpt>
      <trkpt lat="47.48823" lon="6.77256">
        <ele>310</ele>
        <time>2015-06-28T07:40:50.000Z</time>
      </trkpt>
      <trkpt lat="47.48817" lon="6.77251">
        <ele>310</ele>
        <time>2015-06-28T07:40:51.000Z</time>
      </trkpt>
      <trkpt lat="47.48812" lon="6.77249">
        <ele>311</ele>
        <time>2015-06-28T07:40:52.000Z</time>
      </trkpt>
      <trkpt lat="47.48807" lon="6.77243">
        <ele>311</ele>
        <time>2015-06-28T07:40:53.000Z</time>
      </trkpt>
      <trkpt lat="47.48801" lon="6.77239">
        <ele>310</ele>
        <time>2015-06-28T07:40:54.000Z</time>
      </trkpt>
      <trkpt lat="47.48796" lon="6.77234">
        <ele>310</ele>
        <time>2015-06-28T07:40:55.000Z</time>
      </trkpt>
      <trkpt lat="47.48791" lon="6.77232">
        <ele>310</ele>
        <time>2015-06-28T07:40:56.000Z</time>
      </trkpt>
      <trkpt lat="47.48785" lon="6.77228">
        <ele>310</ele>
        <time>2015-06-28T07:40:57.000Z</time>
      </trkpt>
      <trkpt lat="47.4878" lon="6.77225">
        <ele>310</ele>
        <time>2015-06-28T07:40:58.000Z</time>
      </trkpt>
      <trkpt lat="47.48774" lon="6.77221">
        <ele>310</ele>
        <time>2015-06-28T07:40:59.000Z</time>
      </trkpt>
      <trkpt lat="47.48769" lon="6.77218">
        <ele>310</ele>
        <time>2015-06-28T07:41:00.000Z</time>
      </trkpt>
      <trkpt lat="47.48764" lon="6.77215">
        <ele>310</ele>
        <time>2015-06-28T07:41:01.000Z</time>
      </trkpt>
      <trkpt lat="47.4876" lon="6.77212">
        <ele>310</ele>
        <time>2015-06-28T07:41:02.000Z</time>
      </trkpt>
      <trkpt lat="47.48755" lon="6.77209">
        <ele>310</ele>
        <time>2015-06-28T07:41:03.000Z</time>
      </trkpt>
      <trkpt lat="47.48749" lon="6.77205">
        <ele>310</ele>
        <time>2015-06-28T07:41:04.000Z</time>
      </trkpt>
      <trkpt lat="47.48743" lon="6.77199">
        <ele>310</ele>
        <time>2015-06-28T07:41:05.000Z</time>
      </trkpt>
      <trkpt lat="47.48737" lon="6.77195">
        <ele>310</ele>
        <time>2015-06-28T07:41:06.000Z</time>
      </trkpt>
      <trkpt lat="47.48733" lon="6.77191">
        <ele>310</ele>
        <time>2015-06-28T07:41:07.000Z</time>
      </trkpt>
      <trkpt lat="47.48728" lon="6.77188">
        <ele>310</ele>
        <time>2015-06-28T07:41:08.000Z</time>
      </trkpt>
      <trkpt lat="47.48723" lon="6.77185">
        <ele>310</ele>
        <time>2015-06-28T07:41:09.000Z</time>
      </trkpt>
      <trkpt lat="47.48718" lon="6.77181">
        <ele>310</ele>
        <time>2015-06-28T07:41:10.000Z</time>
      </trkpt>
      <trkpt lat="47.48713" lon="6.77176">
        <ele>310</ele>
        <time>2015-06-28T07:41:11.000Z</time>
      </trkpt>
      <trkpt lat="47.48707" lon="6.77172">
        <ele>311</ele>
        <time>2015-06-28T07:41:12.000Z</time>
      </trkpt>
      <trkpt lat="47.48702" lon="6.77168">
        <ele>311</ele>
        <time>2015-06-28T07:41:13.000Z</time>
      </trkpt>
      <trkpt lat="47.48697" lon="6.77164">
        <ele>311</ele>
        <time>2015-06-28T07:41:14.000Z</time>
      </trkpt>
      <trkpt lat="47.48693" lon="6.77159">
        <ele>311</ele>
        <time>2015-06-28T07:41:15.000Z</time>
      </trkpt>
      <trkpt lat="47.48686" lon="6.77153">
        <ele>311</ele>
        <time>2015-06-28T07:41:16.000Z</time>
      </trkpt>
      <trkpt lat="47.48682" lon="6.77146">
        <ele>311</ele>
        <time>2015-06-28T07:41:17.000Z</time>
      </trkpt>
      <trkpt lat="47.48676" lon="6.77141">
        <ele>311</ele>
        <time>2015-06-28T07:41:18.000Z</time>
      </trkpt>
      <trkpt lat="47.48672" lon="6.77136">
        <ele>312</ele>
        <time>2015-06-28T07:41:19.000Z</time>
      </trkpt>
      <trkpt lat="47.48667" lon="6.7713">
        <ele>312</ele>
        <time>2015-06-28T07:41:20.000Z</time>
      </trkpt>
      <trkpt lat="47.48662" lon="6.77124">
        <ele>312</ele>
        <time>2015-06-28T07:41:21.000Z</time>
      </trkpt>
      <trkpt lat="47.48658" lon="6.77118">
        <ele>312</ele>
        <time>2015-06-28T07:41:22.000Z</time>
      </trkpt>
      <trkpt lat="47.48652" lon="6.77112">
        <ele>312</ele>
        <time>2015-06-28T07:41:23.000Z</time>
      </trkpt>
      <trkpt lat="47.48648" lon="6.77107">
        <ele>312</ele>
        <time>2015-06-28T07:41:24.000Z</time>
      </trkpt>
      <trkpt lat="47.48643" lon="6.77101">
        <ele>312</ele>
        <time>2015-06-28T07:41:25.000Z</time>
      </trkpt>
      <trkpt lat="47.48638" lon="6.77096">
        <ele>312</ele>
        <time>2015-06-28T07:41:26.000Z</time>
      </trkpt>
      <trkpt lat="47.48633" lon="6.77092">
        <ele>312</ele>
        <time>2015-06-28T07:41:27.000Z</time>
      </trkpt>
      <trkpt lat="47.48628" lon="6.77088">
        <ele>312</ele>
        <time>2015-06-28T07:41:28.000Z</time>
      </trkpt>
      <trkpt lat="47.48623" lon="6.77089">
        <ele>312</ele>
        <time>2015-06-28T07:41:29.000Z</time>
      </trkpt>
      <trkpt lat="47.48618" lon="6.77085">
        <ele>312</ele>
        <time>2015-06-28T07:41:30.000Z</time>
      </trkpt>
      <trkpt lat="47.48612" lon="6.77083">
        <ele>313</ele>
        <time>2015-06-28T07:41:31.000Z</time>
      </trkpt>
      <trkpt lat="47.48607" lon="6.7708">
        <ele>313</ele>
        <time>2015-06-28T07:41:32.000Z</time>
      </trkpt>
      <trkpt lat="47.48602" lon="6.77077">
        <ele>313</ele>
        <time>2015-06-28T07:41:32.999Z</time>
      </trkpt>
      <trkpt lat="47.48599" lon="6.77071">
        <ele>313</ele>
        <time>2015-06-28T07:41:34.000Z</time>
      </trkpt>
      <trkpt lat="47.48593" lon="6.77068">
        <ele>313</ele>
        <time>2015-06-28T07:41:35.000Z</time>
      </trkpt>
      <trkpt lat="47.48588" lon="6.77065">
        <ele>313</ele>
        <time>2015-06-28T07:41:36.000Z</time>
      </trkpt>
      <trkpt lat="47.48581" lon="6.77061">
        <ele>314</ele>
        <time>2015-06-28T07:41:37.000Z</time>
      </trkpt>
      <trkpt lat="47.48575" lon="6.77057">
        <ele>314</ele>
        <time>2015-06-28T07:41:38.000Z</time>
      </trkpt>
      <trkpt lat="47.4857" lon="6.77054">
        <ele>314</ele>
        <time>2015-06-28T07:41:39.000Z</time>
      </trkpt>
      <trkpt lat="47.48565" lon="6.77051">
        <ele>314</ele>
        <time>2015-06-28T07:41:40.000Z</time>
      </trkpt>
      <trkpt lat="47.4856" lon="6.77048">
        <ele>314</ele>
        <time>2015-06-28T07:41:41.000Z</time>
      </trkpt>
      <trkpt lat="47.48555" lon="6.77047">
        <ele>314</ele>
        <time>2015-06-28T07:41:42.000Z</time>
      </trkpt>
      <trkpt lat="47.48547" lon="6.77046">
        <ele>314</ele>
        <time>2015-06-28T07:41:43.000Z</time>
      </trkpt>
      <trkpt lat="47.48541" lon="6.77045">
        <ele>314</ele>
        <time>2015-06-28T07:41:44.000Z</time>
      </trkpt>
      <trkpt lat="47.48535" lon="6.77044">
        <ele>314</ele>
        <time>2015-06-28T07:41:45.000Z</time>
      </trkpt>
      <trkpt lat="47.48528" lon="6.77035">
        <ele>314</ele>
        <time>2015-06-28T07:41:46.000Z</time>
      </trkpt>
      <trkpt lat="47.48521" lon="6.77029">
        <ele>314</ele>
        <time>2015-06-28T07:41:47.000Z</time>
      </trkpt>
      <trkpt lat="47.48515" lon="6.77023">
        <ele>315</ele>
        <time>2015-06-28T07:41:48.000Z</time>
      </trkpt>
      <trkpt lat="47.48508" lon="6.77018">
        <ele>315</ele>
        <time>2015-06-28T07:41:49.000Z</time>
      </trkpt>
      <trkpt lat="47.48502" lon="6.77013">
        <ele>315</ele>
        <time>2015-06-28T07:41:50.000Z</time>
      </trkpt>
      <trkpt lat="47.48496" lon="6.77008">
        <ele>315</ele>
        <time>2015-06-28T07:41:51.000Z</time>
      </trkpt>
      <trkpt lat="47.48483" lon="6.76997">
        <ele>315</ele>
        <time>2015-06-28T07:41:53.000Z</time>
      </trkpt>
      <trkpt lat="47.48476" lon="6.76993">
        <ele>315</ele>
        <time>2015-06-28T07:41:54.000Z</time>
      </trkpt>
      <trkpt lat="47.48469" lon="6.7699">
        <ele>315</ele>
        <time>2015-06-28T07:41:55.000Z</time>
      </trkpt>
      <trkpt lat="47.48463" lon="6.76987">
        <ele>315</ele>
        <time>2015-06-28T07:41:56.000Z</time>
      </trkpt>
      <trkpt lat="47.48457" lon="6.7698">
        <ele>315</ele>
        <time>2015-06-28T07:41:57.000Z</time>
      </trkpt>
      <trkpt lat="47.4845" lon="6.76976">
        <ele>315</ele>
        <time>2015-06-28T07:41:58.000Z</time>
      </trkpt>
      <trkpt lat="47.48443" lon="6.76972">
        <ele>315</ele>
        <time>2015-06-28T07:41:59.000Z</time>
      </trkpt>
      <trkpt lat="47.4844" lon="6.76969">
        <ele>315</ele>
        <time>2015-06-28T07:42:00.000Z</time>
      </trkpt>
      <trkpt lat="47.48434" lon="6.76965">
        <ele>314</ele>
        <time>2015-06-28T07:42:01.000Z</time>
      </trkpt>
      <trkpt lat="47.48427" lon="6.76961">
        <ele>314</ele>
        <time>2015-06-28T07:42:02.000Z</time>
      </trkpt>
      <trkpt lat="47.4842" lon="6.76958">
        <ele>314</ele>
        <time>2015-06-28T07:42:03.000Z</time>
      </trkpt>
      <trkpt lat="47.48413" lon="6.76956">
        <ele>312</ele>
        <time>2015-06-28T07:42:04.000Z</time>
      </trkpt>
      <trkpt lat="47.48407" lon="6.76952">
        <ele>312</ele>
        <time>2015-06-28T07:42:05.000Z</time>
      </trkpt>
      <trkpt lat="47.48402" lon="6.76949">
        <ele>312</ele>
        <time>2015-06-28T07:42:06.000Z</time>
      </trkpt>
      <trkpt lat="47.48396" lon="6.76946">
        <ele>312</ele>
        <time>2015-06-28T07:42:07.000Z</time>
      </trkpt>
      <trkpt lat="47.4839" lon="6.76942">
        <ele>312</ele>
        <time>2015-06-28T07:42:08.000Z</time>
      </trkpt>
      <trkpt lat="47.48385" lon="6.76938">
        <ele>312</ele>
        <time>2015-06-28T07:42:09.000Z</time>
      </trkpt>
      <trkpt lat="47.4838" lon="6.76934">
        <ele>312</ele>
        <time>2015-06-28T07:42:10.000Z</time>
      </trkpt>
      <trkpt lat="47.48374" lon="6.7693">
        <ele>312</ele>
        <time>2015-06-28T07:42:11.000Z</time>
      </trkpt>
      <trkpt lat="47.48368" lon="6.76927">
        <ele>311</ele>
        <time>2015-06-28T07:42:12.000Z</time>
      </trkpt>
      <trkpt lat="47.48361" lon="6.76923">
        <ele>311</ele>
        <time>2015-06-28T07:42:13.000Z</time>
      </trkpt>
      <trkpt lat="47.48356" lon="6.76919">
        <ele>311</ele>
        <time>2015-06-28T07:42:14.000Z</time>
      </trkpt>
      <trkpt lat="47.48349" lon="6.76915">
        <ele>310</ele>
        <time>2015-06-28T07:42:15.000Z</time>
      </trkpt>
      <trkpt lat="47.48343" lon="6.76911">
        <ele>310</ele>
        <time>2015-06-28T07:42:16.000Z</time>
      </trkpt>
      <trkpt lat="47.48337" lon="6.76907">
        <ele>310</ele>
        <time>2015-06-28T07:42:17.000Z</time>
      </trkpt>
      <trkpt lat="47.48331" lon="6.76903">
        <ele>310</ele>
        <time>2015-06-28T07:42:18.000Z</time>
      </trkpt>
      <trkpt lat="47.48326" lon="6.76899">
        <ele>310</ele>
        <time>2015-06-28T07:42:19.000Z</time>
      </trkpt>
      <trkpt lat="47.4832" lon="6.76895">
        <ele>310</ele>
        <time>2015-06-28T07:42:20.000Z</time>
      </trkpt>
      <trkpt lat="47.48314" lon="6.7689">
        <ele>310</ele>
        <time>2015-06-28T07:42:21.000Z</time>
      </trkpt>
      <trkpt lat="47.48309" lon="6.76886">
        <ele>310</ele>
        <time>2015-06-28T07:42:22.000Z</time>
      </trkpt>
      <trkpt lat="47.48303" lon="6.76882">
        <ele>310</ele>
        <time>2015-06-28T07:42:23.000Z</time>
      </trkpt>
      <trkpt lat="47.48299" lon="6.76876">
        <ele>310</ele>
        <time>2015-06-28T07:42:24.000Z</time>
      </trkpt>
      <trkpt lat="47.48294" lon="6.76871">
        <ele>310</ele>
        <time>2015-06-28T07:42:25.000Z</time>
      </trkpt>
      <trkpt lat="47.48289" lon="6.76867">
        <ele>310</ele>
        <time>2015-06-28T07:42:26.000Z</time>
      </trkpt>
      <trkpt lat="47.48285" lon="6.7686">
        <ele>310</ele>
        <time>2015-06-28T07:42:27.000Z</time>
      </trkpt>
      <trkpt lat="47.48281" lon="6.76853">
        <ele>310</ele>
        <time>2015-06-28T07:42:28.000Z</time>
      </trkpt>
      <trkpt lat="47.48276" lon="6.76847">
        <ele>311</ele>
        <time>2015-06-28T07:42:29.000Z</time>
      </trkpt>
      <trkpt lat="47.48272" lon="6.7684">
        <ele>311</ele>
        <time>2015-06-28T07:42:30.000Z</time>
      </trkpt>
      <trkpt lat="47.48268" lon="6.76834">
        <ele>311</ele>
        <time>2015-06-28T07:42:31.000Z</time>
      </trkpt>
      <trkpt lat="47.48263" lon="6.76828">
        <ele>312</ele>
        <time>2015-06-28T07:42:32.000Z</time>
      </trkpt>
      <trkpt lat="47.48259" lon="6.76822">
        <ele>312</ele>
        <time>2015-06-28T07:42:33.000Z</time>
      </trkpt>
      <trkpt lat="47.48254" lon="6.76816">
        <ele>312</ele>
        <time>2015-06-28T07:42:34.000Z</time>
      </trkpt>
      <trkpt lat="47.4825" lon="6.7681">
        <ele>312</ele>
        <time>2015-06-28T07:42:35.000Z</time>
      </trkpt>
      <trkpt lat="47.48246" lon="6.76804">
        <ele>312</ele>
        <time>2015-06-28T07:42:35.999Z</time>
      </trkpt>
      <trkpt lat="47.4824" lon="6.768">
        <ele>312</ele>
        <time>2015-06-28T07:42:37.000Z</time>
      </trkpt>
      <trkpt lat="47.48234" lon="6.76797">
        <ele>312</ele>
        <time>2015-06-28T07:42:38.000Z</time>
      </trkpt>
      <trkpt lat="47.48228" lon="6.76792">
        <ele>312</ele>
        <time>2015-06-28T07:42:39.000Z</time>
      </trkpt>
      <trkpt lat="47.48222" lon="6.76789">
        <ele>312</ele>
        <time>2015-06-28T07:42:40.000Z</time>
      </trkpt>
      <trkpt lat="47.48217" lon="6.76787">
        <ele>312</ele>
        <time>2015-06-28T07:42:41.000Z</time>
      </trkpt>
      <trkpt lat="47.48211" lon="6.76785">
        <ele>312</ele>
        <time>2015-06-28T07:42:42.000Z</time>
      </trkpt>
      <trkpt lat="47.48204" lon="6.76782">
        <ele>312</ele>
        <time>2015-06-28T07:42:43.000Z</time>
      </trkpt>
      <trkpt lat="47.48198" lon="6.76779">
        <ele>312</ele>
        <time>2015-06-28T07:42:44.000Z</time>
      </trkpt>
      <trkpt lat="47.48193" lon="6.76774">
        <ele>312</ele>
        <time>2015-06-28T07:42:45.000Z</time>
      </trkpt>
      <trkpt lat="47.48188" lon="6.76769">
        <ele>312</ele>
        <time>2015-06-28T07:42:46.000Z</time>
      </trkpt>
      <trkpt lat="47.48183" lon="6.76764">
        <ele>312</ele>
        <time>2015-06-28T07:42:47.000Z</time>
      </trkpt>
      <trkpt lat="47.48177" lon="6.76759">
        <ele>313</ele>
        <time>2015-06-28T07:42:48.000Z</time>
      </trkpt>
      <trkpt lat="47.48172" lon="6.76752">
        <ele>313</ele>
        <time>2015-06-28T07:42:49.000Z</time>
      </trkpt>
      <trkpt lat="47.48167" lon="6.76746">
        <ele>313</ele>
        <time>2015-06-28T07:42:50.000Z</time>
      </trkpt>
      <trkpt lat="47.48162" lon="6.76739">
        <ele>313</ele>
        <time>2015-06-28T07:42:51.000Z</time>
      </trkpt>
      <trkpt lat="47.48157" lon="6.76732">
        <ele>312</ele>
        <time>2015-06-28T07:42:52.000Z</time>
      </trkpt>
      <trkpt lat="47.48153" lon="6.76725">
        <ele>312</ele>
        <time>2015-06-28T07:42:53.000Z</time>
      </trkpt>
      <trkpt lat="47.4815" lon="6.76716">
        <ele>312</ele>
        <time>2015-06-28T07:42:54.000Z</time>
      </trkpt>
      <trkpt lat="47.48146" lon="6.76709">
        <ele>312</ele>
        <time>2015-06-28T07:42:55.000Z</time>
      </trkpt>
      <trkpt lat="47.48142" lon="6.76701">
        <ele>312</ele>
        <time>2015-06-28T07:42:56.000Z</time>
      </trkpt>
      <trkpt lat="47.48139" lon="6.76694">
        <ele>312</ele>
        <time>2015-06-28T07:42:57.000Z</time>
      </trkpt>
      <trkpt lat="47.48135" lon="6.76687">
        <ele>312</ele>
        <time>2015-06-28T07:42:58.000Z</time>
      </trkpt>
      <trkpt lat="47.48132" lon="6.76681">
        <ele>312</ele>
        <time>2015-06-28T07:42:59.000Z</time>
      </trkpt>
      <trkpt lat="47.48129" lon="6.76675">
        <ele>312</ele>
        <time>2015-06-28T07:43:00.000Z</time>
      </trkpt>
      <trkpt lat="47.48125" lon="6.76669">
        <ele>312</ele>
        <time>2015-06-28T07:43:01.000Z</time>
      </trkpt>
      <trkpt lat="47.48121" lon="6.76664">
        <ele>313</ele>
        <time>2015-06-28T07:43:02.000Z</time>
      </trkpt>
      <trkpt lat="47.48118" lon="6.76659">
        <ele>313</ele>
        <time>2015-06-28T07:43:03.000Z</time>
      </trkpt>
      <trkpt lat="47.48115" lon="6.76653">
        <ele>313</ele>
        <time>2015-06-28T07:43:04.000Z</time>
      </trkpt>
      <trkpt lat="47.48112" lon="6.76647">
        <ele>313</ele>
        <time>2015-06-28T07:43:05.000Z</time>
      </trkpt>
      <trkpt lat="47.48109" lon="6.76642">
        <ele>313</ele>
        <time>2015-06-28T07:43:06.000Z</time>
      </trkpt>
      <trkpt lat="47.48106" lon="6.76637">
        <ele>313</ele>
        <time>2015-06-28T07:43:07.000Z</time>
      </trkpt>
      <trkpt lat="47.48104" lon="6.76632">
        <ele>313</ele>
        <time>2015-06-28T07:43:08.000Z</time>
      </trkpt>
      <trkpt lat="47.48102" lon="6.76626">
        <ele>313</ele>
        <time>2015-06-28T07:43:09.000Z</time>
      </trkpt>
      <trkpt lat="47.48102" lon="6.7662">
        <ele>313</ele>
        <time>2015-06-28T07:43:10.000Z</time>
      </trkpt>
      <trkpt lat="47.48103" lon="6.76614">
        <ele>313</ele>
        <time>2015-06-28T07:43:11.000Z</time>
      </trkpt>
      <trkpt lat="47.48108" lon="6.76608">
        <ele>313</ele>
        <time>2015-06-28T07:43:12.000Z</time>
      </trkpt>
      <trkpt lat="47.48111" lon="6.76605">
        <ele>313</ele>
        <time>2015-06-28T07:43:13.000Z</time>
      </trkpt>
      <trkpt lat="47.48113" lon="6.76602">
        <ele>313</ele>
        <time>2015-06-28T07:43:14.000Z</time>
      </trkpt>
      <trkpt lat="47.48118" lon="6.76591">
        <ele>314</ele>
        <time>2015-06-28T07:43:15.000Z</time>
      </trkpt>
      <trkpt lat="47.48122" lon="6.7659">
        <ele>314</ele>
        <time>2015-06-28T07:43:16.000Z</time>
      </trkpt>
      <trkpt lat="47.48125" lon="6.76587">
        <ele>314</ele>
        <time>2015-06-28T07:43:17.000Z</time>
      </trkpt>
      <trkpt lat="47.48125" lon="6.76582">
        <ele>318</ele>
        <time>2015-06-28T07:43:18.000Z</time>
      </trkpt>
      <trkpt lat="47.48127" lon="6.7658">
        <ele>318</ele>
        <time>2015-06-28T07:43:20.000Z</time>
      </trkpt>
      <trkpt lat="47.48126" lon="6.76572">
        <ele>318</ele>
        <time>2015-06-28T07:43:21.000Z</time>
      </trkpt>
      <trkpt lat="47.48126" lon="6.76567">
        <ele>319</ele>
        <time>2015-06-28T07:43:22.000Z</time>
      </trkpt>
      <trkpt lat="47.48123" lon="6.76559">
        <ele>319</ele>
        <time>2015-06-28T07:43:23.000Z</time>
      </trkpt>
      <trkpt lat="47.48122" lon="6.76549">
        <ele>319</ele>
        <time>2015-06-28T07:43:24.000Z</time>
      </trkpt>
      <trkpt lat="47.48119" lon="6.7654">
        <ele>320</ele>
        <time>2015-06-28T07:43:25.000Z</time>
      </trkpt>
      <trkpt lat="47.48118" lon="6.76535">
        <ele>320</ele>
        <time>2015-06-28T07:43:26.000Z</time>
      </trkpt>
      <trkpt lat="47.48116" lon="6.76529">
        <ele>320</ele>
        <time>2015-06-28T07:43:27.000Z</time>
      </trkpt>
      <trkpt lat="47.48112" lon="6.76526">
        <ele>319</ele>
        <time>2015-06-28T07:43:28.000Z</time>
      </trkpt>
      <trkpt lat="47.48108" lon="6.76526">
        <ele>319</ele>
        <time>2015-06-28T07:43:29.000Z</time>
      </trkpt>
      <trkpt lat="47.48103" lon="6.76528">
        <ele>318</ele>
        <time>2015-06-28T07:43:30.000Z</time>
      </trkpt>
      <trkpt lat="47.48099" lon="6.76532">
        <ele>318</ele>
        <time>2015-06-28T07:43:31.000Z</time>
      </trkpt>
      <trkpt lat="47.48092" lon="6.76537">
        <ele>318</ele>
        <time>2015-06-28T07:43:32.000Z</time>
      </trkpt>
      <trkpt lat="47.48087" lon="6.76541">
        <ele>317</ele>
        <time>2015-06-28T07:43:33.000Z</time>
      </trkpt>
      <trkpt lat="47.48082" lon="6.76544">
        <ele>312</ele>
        <time>2015-06-28T07:43:34.000Z</time>
      </trkpt>
      <trkpt lat="47.48077" lon="6.76547">
        <ele>312</ele>
        <time>2015-06-28T07:43:35.000Z</time>
      </trkpt>
      <trkpt lat="47.48073" lon="6.76551">
        <ele>312</ele>
        <time>2015-06-28T07:43:36.000Z</time>
      </trkpt>
      <trkpt lat="47.48069" lon="6.76555">
        <ele>312</ele>
        <time>2015-06-28T07:43:37.000Z</time>
      </trkpt>
      <trkpt lat="47.48065" lon="6.76559">
        <ele>312</ele>
        <time>2015-06-28T07:43:38.000Z</time>
      </trkpt>
      <trkpt lat="47.48061" lon="6.76563">
        <ele>312</ele>
        <time>2015-06-28T07:43:39.000Z</time>
      </trkpt>
      <trkpt lat="47.48057" lon="6.76567">
        <ele>312</ele>
        <time>2015-06-28T07:43:40.000Z</time>
      </trkpt>
      <trkpt lat="47.48052" lon="6.7657">
        <ele>312</ele>
        <time>2015-06-28T07:43:41.000Z</time>
      </trkpt>
      <trkpt lat="47.48047" lon="6.76574">
        <ele>312</ele>
        <time>2015-06-28T07:43:42.000Z</time>
      </trkpt>
      <trkpt lat="47.48042" lon="6.76578">
        <ele>312</ele>
        <time>2015-06-28T07:43:43.000Z</time>
      </trkpt>
      <trkpt lat="47.48038" lon="6.76582">
        <ele>312</ele>
        <time>2015-06-28T07:43:44.000Z</time>
      </trkpt>
      <trkpt lat="47.48033" lon="6.76586">
        <ele>312</ele>
        <time>2015-06-28T07:43:45.000Z</time>
      </trkpt>
      <trkpt lat="47.48028" lon="6.7659">
        <ele>312</ele>
        <time>2015-06-28T07:43:46.000Z</time>
      </trkpt>
      <trkpt lat="47.48023" lon="6.76592">
        <ele>312</ele>
        <time>2015-06-28T07:43:47.000Z</time>
      </trkpt>
      <trkpt lat="47.48018" lon="6.76595">
        <ele>312</ele>
        <time>2015-06-28T07:43:48.000Z</time>
      </trkpt>
      <trkpt lat="47.48013" lon="6.76597">
        <ele>312</ele>
        <time>2015-06-28T07:43:49.000Z</time>
      </trkpt>
      <trkpt lat="47.48007" lon="6.76601">
        <ele>312</ele>
        <time>2015-06-28T07:43:50.000Z</time>
      </trkpt>
      <trkpt lat="47.48002" lon="6.76603">
        <ele>312</ele>
        <time>2015-06-28T07:43:51.000Z</time>
      </trkpt>
      <trkpt lat="47.47992" lon="6.76606">
        <ele>312</ele>
        <time>2015-06-28T07:43:53.000Z</time>
      </trkpt>
      <trkpt lat="47.47988" lon="6.76607">
        <ele>312</ele>
        <time>2015-06-28T07:43:54.000Z</time>
      </trkpt>
      <trkpt lat="47.47984" lon="6.76609">
        <ele>311</ele>
        <time>2015-06-28T07:43:55.000Z</time>
      </trkpt>
      <trkpt lat="47.47981" lon="6.76609">
        <ele>311</ele>
        <time>2015-06-28T07:43:56.000Z</time>
      </trkpt>
      <trkpt lat="47.47977" lon="6.7661">
        <ele>311</ele>
        <time>2015-06-28T07:43:57.000Z</time>
      </trkpt>
      <trkpt lat="47.47974" lon="6.76611">
        <ele>311</ele>
        <time>2015-06-28T07:43:58.000Z</time>
      </trkpt>
      <trkpt lat="47.47971" lon="6.76612">
        <ele>311</ele>
        <time>2015-06-28T07:43:59.000Z</time>
      </trkpt>
      <trkpt lat="47.47969" lon="6.76614">
        <ele>311</ele>
        <time>2015-06-28T07:44:00.000Z</time>
      </trkpt>
      <trkpt lat="47.47966" lon="6.76615">
        <ele>311</ele>
        <time>2015-06-28T07:44:01.000Z</time>
      </trkpt>
      <trkpt lat="47.47964" lon="6.76615">
        <ele>311</ele>
        <time>2015-06-28T07:44:02.000Z</time>
      </trkpt>
      <trkpt lat="47.47962" lon="6.76615">
        <ele>311</ele>
        <time>2015-06-28T07:44:03.000Z</time>
      </trkpt>
      <trkpt lat="47.47959" lon="6.76614">
        <ele>311</ele>
        <time>2015-06-28T07:44:04.000Z</time>
      </trkpt>
      <trkpt lat="47.47956" lon="6.76612">
        <ele>311</ele>
        <time>2015-06-28T07:44:05.000Z</time>
      </trkpt>
      <trkpt lat="47.47952" lon="6.76605">
        <ele>311</ele>
        <time>2015-06-28T07:44:06.000Z</time>
      </trkpt>
      <trkpt lat="47.4795" lon="6.76599">
        <ele>311</ele>
        <time>2015-06-28T07:44:07.000Z</time>
      </trkpt>
      <trkpt lat="47.47949" lon="6.76589">
        <ele>311</ele>
        <time>2015-06-28T07:44:08.000Z</time>
      </trkpt>
      <trkpt lat="47.47947" lon="6.76579">
        <ele>311</ele>
        <time>2015-06-28T07:44:09.000Z</time>
      </trkpt>
      <trkpt lat="47.47944" lon="6.76569">
        <ele>311</ele>
        <time>2015-06-28T07:44:10.000Z</time>
      </trkpt>
      <trkpt lat="47.47941" lon="6.76559">
        <ele>311</ele>
        <time>2015-06-28T07:44:11.000Z</time>
      </trkpt>
      <trkpt lat="47.47938" lon="6.76551">
        <ele>311</ele>
        <time>2015-06-28T07:44:12.000Z</time>
      </trkpt>
      <trkpt lat="47.47937" lon="6.76542">
        <ele>311</ele>
        <time>2015-06-28T07:44:13.000Z</time>
      </trkpt>
      <trkpt lat="47.47935" lon="6.76533">
        <ele>311</ele>
        <time>2015-06-28T07:44:14.000Z</time>
      </trkpt>
      <trkpt lat="47.47933" lon="6.76525">
        <ele>311</ele>
        <time>2015-06-28T07:44:15.000Z</time>
      </trkpt>
      <trkpt lat="47.47931" lon="6.76516">
        <ele>311</ele>
        <time>2015-06-28T07:44:16.000Z</time>
      </trkpt>
      <trkpt lat="47.47929" lon="6.76508">
        <ele>310</ele>
        <time>2015-06-28T07:44:17.000Z</time>
      </trkpt>
      <trkpt lat="47.47928" lon="6.765">
        <ele>310</ele>
        <time>2015-06-28T07:44:18.000Z</time>
      </trkpt>
      <trkpt lat="47.47926" lon="6.76492">
        <ele>310</ele>
        <time>2015-06-28T07:44:19.000Z</time>
      </trkpt>
      <trkpt lat="47.47924" lon="6.76482">
        <ele>311</ele>
        <time>2015-06-28T07:44:20.000Z</time>
      </trkpt>
      <trkpt lat="47.47921" lon="6.76474">
        <ele>311</ele>
        <time>2015-06-28T07:44:21.000Z</time>
      </trkpt>
      <trkpt lat="47.47919" lon="6.76465">
        <ele>311</ele>
        <time>2015-06-28T07:44:22.000Z</time>
      </trkpt>
      <trkpt lat="47.47917" lon="6.76455">
        <ele>311</ele>
        <time>2015-06-28T07:44:23.000Z</time>
      </trkpt>
      <trkpt lat="47.47915" lon="6.76446">
        <ele>311</ele>
        <time>2015-06-28T07:44:24.000Z</time>
      </trkpt>
      <trkpt lat="47.47913" lon="6.76437">
        <ele>311</ele>
        <time>2015-06-28T07:44:25.000Z</time>
      </trkpt>
      <trkpt lat="47.47911" lon="6.76429">
        <ele>311</ele>
        <time>2015-06-28T07:44:26.000Z</time>
      </trkpt>
      <trkpt lat="47.47908" lon="6.76421">
        <ele>311</ele>
        <time>2015-06-28T07:44:27.000Z</time>
      </trkpt>
      <trkpt lat="47.47906" lon="6.76413">
        <ele>311</ele>
        <time>2015-06-28T07:44:28.000Z</time>
      </trkpt>
      <trkpt lat="47.47903" lon="6.76406">
        <ele>311</ele>
        <time>2015-06-28T07:44:29.000Z</time>
      </trkpt>
      <trkpt lat="47.479" lon="6.76397">
        <ele>311</ele>
        <time>2015-06-28T07:44:30.000Z</time>
      </trkpt>
      <trkpt lat="47.47895" lon="6.76389">
        <ele>311</ele>
        <time>2015-06-28T07:44:31.000Z</time>
      </trkpt>
      <trkpt lat="47.47889" lon="6.76382">
        <ele>311</ele>
        <time>2015-06-28T07:44:32.000Z</time>
      </trkpt>
      <trkpt lat="47.47884" lon="6.76372">
        <ele>311</ele>
        <time>2015-06-28T07:44:33.000Z</time>
      </trkpt>
      <trkpt lat="47.4788" lon="6.76362">
        <ele>311</ele>
        <time>2015-06-28T07:44:34.000Z</time>
      </trkpt>
      <trkpt lat="47.47876" lon="6.76352">
        <ele>311</ele>
        <time>2015-06-28T07:44:35.000Z</time>
      </trkpt>
      <trkpt lat="47.47872" lon="6.76343">
        <ele>311</ele>
        <time>2015-06-28T07:44:36.000Z</time>
      </trkpt>
      <trkpt lat="47.47867" lon="6.76334">
        <ele>311</ele>
        <time>2015-06-28T07:44:37.000Z</time>
      </trkpt>
      <trkpt lat="47.47862" lon="6.76324">
        <ele>310</ele>
        <time>2015-06-28T07:44:38.000Z</time>
      </trkpt>
      <trkpt lat="47.47858" lon="6.76316">
        <ele>310</ele>
        <time>2015-06-28T07:44:39.000Z</time>
      </trkpt>
      <trkpt lat="47.47854" lon="6.76308">
        <ele>310</ele>
        <time>2015-06-28T07:44:40.000Z</time>
      </trkpt>
      <trkpt lat="47.4785" lon="6.763">
        <ele>310</ele>
        <time>2015-06-28T07:44:41.000Z</time>
      </trkpt>
      <trkpt lat="47.47846" lon="6.76293">
        <ele>310</ele>
        <time>2015-06-28T07:44:42.000Z</time>
      </trkpt>
      <trkpt lat="47.47841" lon="6.76287">
        <ele>311</ele>
        <time>2015-06-28T07:44:43.000Z</time>
      </trkpt>
      <trkpt lat="47.47837" lon="6.76282">
        <ele>311</ele>
        <time>2015-06-28T07:44:44.000Z</time>
      </trkpt>
      <trkpt lat="47.47833" lon="6.76275">
        <ele>310</ele>
        <time>2015-06-28T07:44:45.000Z</time>
      </trkpt>
      <trkpt lat="47.47828" lon="6.76268">
        <ele>310</ele>
        <time>2015-06-28T07:44:46.000Z</time>
      </trkpt>
      <trkpt lat="47.47825" lon="6.76262">
        <ele>310</ele>
        <time>2015-06-28T07:44:47.000Z</time>
      </trkpt>
      <trkpt lat="47.47819" lon="6.7626">
        <ele>310</ele>
        <time>2015-06-28T07:44:48.000Z</time>
      </trkpt>
      <trkpt lat="47.47814" lon="6.76258">
        <ele>310</ele>
        <time>2015-06-28T07:44:49.000Z</time>
      </trkpt>
      <trkpt lat="47.47809" lon="6.76255">
        <ele>310</ele>
        <time>2015-06-28T07:44:50.000Z</time>
      </trkpt>
      <trkpt lat="47.47803" lon="6.76253">
        <ele>310</ele>
        <time>2015-06-28T07:44:51.000Z</time>
      </trkpt>
      <trkpt lat="47.47798" lon="6.76251">
        <ele>310</ele>
        <time>2015-06-28T07:44:52.000Z</time>
      </trkpt>
      <trkpt lat="47.47792" lon="6.76249">
        <ele>310</ele>
        <time>2015-06-28T07:44:53.000Z</time>
      </trkpt>
      <trkpt lat="47.47787" lon="6.76244">
        <ele>309</ele>
        <time>2015-06-28T07:44:54.000Z</time>
      </trkpt>
      <trkpt lat="47.47783" lon="6.7624">
        <ele>309</ele>
        <time>2015-06-28T07:44:55.000Z</time>
      </trkpt>
      <trkpt lat="47.47779" lon="6.76235">
        <ele>309</ele>
        <time>2015-06-28T07:44:56.000Z</time>
      </trkpt>
      <trkpt lat="47.47776" lon="6.76229">
        <ele>309</ele>
        <time>2015-06-28T07:44:57.000Z</time>
      </trkpt>
      <trkpt lat="47.47772" lon="6.76223">
        <ele>309</ele>
        <time>2015-06-28T07:44:58.000Z</time>
      </trkpt>
      <trkpt lat="47.47769" lon="6.76217">
        <ele>309</ele>
        <time>2015-06-28T07:44:59.000Z</time>
      </trkpt>
      <trkpt lat="47.47765" lon="6.76211">
        <ele>309</ele>
        <time>2015-06-28T07:45:00.000Z</time>
      </trkpt>
      <trkpt lat="47.47762" lon="6.76205">
        <ele>309</ele>
        <time>2015-06-28T07:45:01.000Z</time>
      </trkpt>
      <trkpt lat="47.47757" lon="6.76199">
        <ele>309</ele>
        <time>2015-06-28T07:45:02.000Z</time>
      </trkpt>
      <trkpt lat="47.47752" lon="6.76194">
        <ele>308</ele>
        <time>2015-06-28T07:45:03.000Z</time>
      </trkpt>
      <trkpt lat="47.47748" lon="6.76188">
        <ele>308</ele>
        <time>2015-06-28T07:45:04.000Z</time>
      </trkpt>
      <trkpt lat="47.47744" lon="6.76182">
        <ele>308</ele>
        <time>2015-06-28T07:45:05.000Z</time>
      </trkpt>
      <trkpt lat="47.4774" lon="6.76176">
        <ele>308</ele>
        <time>2015-06-28T07:45:06.000Z</time>
      </trkpt>
      <trkpt lat="47.47736" lon="6.7617">
        <ele>308</ele>
        <time>2015-06-28T07:45:07.000Z</time>
      </trkpt>
      <trkpt lat="47.47732" lon="6.76164">
        <ele>308</ele>
        <time>2015-06-28T07:45:08.000Z</time>
      </trkpt>
      <trkpt lat="47.47728" lon="6.76159">
        <ele>309</ele>
        <time>2015-06-28T07:45:09.000Z</time>
      </trkpt>
      <trkpt lat="47.47724" lon="6.76154">
        <ele>309</ele>
        <time>2015-06-28T07:45:10.000Z</time>
      </trkpt>
      <trkpt lat="47.47721" lon="6.76148">
        <ele>309</ele>
        <time>2015-06-28T07:45:11.000Z</time>
      </trkpt>
      <trkpt lat="47.47714" lon="6.76142">
        <ele>309</ele>
        <time>2015-06-28T07:45:12.000Z</time>
      </trkpt>
      <trkpt lat="47.4771" lon="6.76135">
        <ele>309</ele>
        <time>2015-06-28T07:45:13.000Z</time>
      </trkpt>
      <trkpt lat="47.47707" lon="6.76129">
        <ele>310</ele>
        <time>2015-06-28T07:45:14.000Z</time>
      </trkpt>
      <trkpt lat="47.47703" lon="6.76123">
        <ele>310</ele>
        <time>2015-06-28T07:45:15.000Z</time>
      </trkpt>
      <trkpt lat="47.47698" lon="6.76116">
        <ele>310</ele>
        <time>2015-06-28T07:45:16.000Z</time>
      </trkpt>
      <trkpt lat="47.47693" lon="6.76109">
        <ele>310</ele>
        <time>2015-06-28T07:45:17.000Z</time>
      </trkpt>
      <trkpt lat="47.47689" lon="6.76102">
        <ele>310</ele>
        <time>2015-06-28T07:45:18.000Z</time>
      </trkpt>
      <trkpt lat="47.47684" lon="6.76096">
        <ele>310</ele>
        <time>2015-06-28T07:45:19.000Z</time>
      </trkpt>
      <trkpt lat="47.4768" lon="6.7609">
        <ele>310</ele>
        <time>2015-06-28T07:45:20.000Z</time>
      </trkpt>
      <trkpt lat="47.47677" lon="6.76083">
        <ele>311</ele>
        <time>2015-06-28T07:45:21.000Z</time>
      </trkpt>
      <trkpt lat="47.47674" lon="6.76076">
        <ele>311</ele>
        <time>2015-06-28T07:45:22.000Z</time>
      </trkpt>
      <trkpt lat="47.47671" lon="6.76069">
        <ele>311</ele>
        <time>2015-06-28T07:45:23.000Z</time>
      </trkpt>
      <trkpt lat="47.47668" lon="6.76061">
        <ele>311</ele>
        <time>2015-06-28T07:45:24.000Z</time>
      </trkpt>
      <trkpt lat="47.47666" lon="6.76051">
        <ele>311</ele>
        <time>2015-06-28T07:45:25.000Z</time>
      </trkpt>
      <trkpt lat="47.47665" lon="6.76042">
        <ele>311</ele>
        <time>2015-06-28T07:45:26.000Z</time>
      </trkpt>
      <trkpt lat="47.47664" lon="6.76033">
        <ele>311</ele>
        <time>2015-06-28T07:45:27.000Z</time>
      </trkpt>
      <trkpt lat="47.47664" lon="6.76025">
        <ele>311</ele>
        <time>2015-06-28T07:45:28.000Z</time>
      </trkpt>
      <trkpt lat="47.47665" lon="6.76016">
        <ele>311</ele>
        <time>2015-06-28T07:45:29.000Z</time>
      </trkpt>
      <trkpt lat="47.47667" lon="6.76008">
        <ele>312</ele>
        <time>2015-06-28T07:45:30.000Z</time>
      </trkpt>
      <trkpt lat="47.47669" lon="6.76">
        <ele>312</ele>
        <time>2015-06-28T07:45:31.000Z</time>
      </trkpt>
      <trkpt lat="47.47672" lon="6.75992">
        <ele>312</ele>
        <time>2015-06-28T07:45:32.000Z</time>
      </trkpt>
      <trkpt lat="47.47675" lon="6.75985">
        <ele>312</ele>
        <time>2015-06-28T07:45:33.000Z</time>
      </trkpt>
      <trkpt lat="47.47678" lon="6.75978">
        <ele>311</ele>
        <time>2015-06-28T07:45:34.000Z</time>
      </trkpt>
      <trkpt lat="47.47682" lon="6.7597">
        <ele>311</ele>
        <time>2015-06-28T07:45:35.000Z</time>
      </trkpt>
      <trkpt lat="47.47685" lon="6.75966">
        <ele>311</ele>
        <time>2015-06-28T07:45:36.000Z</time>
      </trkpt>
      <trkpt lat="47.47689" lon="6.75959">
        <ele>311</ele>
        <time>2015-06-28T07:45:37.000Z</time>
      </trkpt>
      <trkpt lat="47.47691" lon="6.7595">
        <ele>311</ele>
        <time>2015-06-28T07:45:38.000Z</time>
      </trkpt>
      <trkpt lat="47.47694" lon="6.75941">
        <ele>311</ele>
        <time>2015-06-28T07:45:39.000Z</time>
      </trkpt>
      <trkpt lat="47.47695" lon="6.75931">
        <ele>311</ele>
        <time>2015-06-28T07:45:40.000Z</time>
      </trkpt>
      <trkpt lat="47.47696" lon="6.75922">
        <ele>311</ele>
        <time>2015-06-28T07:45:41.000Z</time>
      </trkpt>
      <trkpt lat="47.47696" lon="6.75913">
        <ele>311</ele>
        <time>2015-06-28T07:45:42.000Z</time>
      </trkpt>
      <trkpt lat="47.47696" lon="6.75903">
        <ele>311</ele>
        <time>2015-06-28T07:45:43.000Z</time>
      </trkpt>
      <trkpt lat="47.47697" lon="6.75894">
        <ele>311</ele>
        <time>2015-06-28T07:45:44.000Z</time>
      </trkpt>
      <trkpt lat="47.47697" lon="6.75885">
        <ele>311</ele>
        <time>2015-06-28T07:45:45.000Z</time>
      </trkpt>
      <trkpt lat="47.47697" lon="6.75876">
        <ele>311</ele>
        <time>2015-06-28T07:45:46.000Z</time>
      </trkpt>
      <trkpt lat="47.47697" lon="6.75867">
        <ele>311</ele>
        <time>2015-06-28T07:45:47.000Z</time>
      </trkpt>
      <trkpt lat="47.47696" lon="6.75858">
        <ele>311</ele>
        <time>2015-06-28T07:45:48.000Z</time>
      </trkpt>
      <trkpt lat="47.47696" lon="6.75848">
        <ele>311</ele>
        <time>2015-06-28T07:45:49.000Z</time>
      </trkpt>
      <trkpt lat="47.47698" lon="6.7584">
        <ele>311</ele>
        <time>2015-06-28T07:45:50.000Z</time>
      </trkpt>
      <trkpt lat="47.47698" lon="6.75831">
        <ele>310</ele>
        <time>2015-06-28T07:45:51.000Z</time>
      </trkpt>
      <trkpt lat="47.47699" lon="6.75821">
        <ele>310</ele>
        <time>2015-06-28T07:45:52.000Z</time>
      </trkpt>
      <trkpt lat="47.477" lon="6.75813">
        <ele>310</ele>
        <time>2015-06-28T07:45:53.000Z</time>
      </trkpt>
      <trkpt lat="47.47701" lon="6.75803">
        <ele>310</ele>
        <time>2015-06-28T07:45:54.000Z</time>
      </trkpt>
      <trkpt lat="47.47701" lon="6.75793">
        <ele>310</ele>
        <time>2015-06-28T07:45:55.000Z</time>
      </trkpt>
      <trkpt lat="47.47702" lon="6.7579">
        <ele>310</ele>
        <time>2015-06-28T07:45:56.000Z</time>
      </trkpt>
      <trkpt lat="47.47702" lon="6.75783">
        <ele>310</ele>
        <time>2015-06-28T07:45:57.000Z</time>
      </trkpt>
      <trkpt lat="47.47702" lon="6.75773">
        <ele>310</ele>
        <time>2015-06-28T07:45:58.000Z</time>
      </trkpt>
      <trkpt lat="47.47702" lon="6.75764">
        <ele>310</ele>
        <time>2015-06-28T07:45:59.000Z</time>
      </trkpt>
      <trkpt lat="47.47701" lon="6.75756">
        <ele>310</ele>
        <time>2015-06-28T07:46:00.000Z</time>
      </trkpt>
      <trkpt lat="47.47701" lon="6.75748">
        <ele>310</ele>
        <time>2015-06-28T07:46:01.000Z</time>
      </trkpt>
      <trkpt lat="47.477" lon="6.75733">
        <ele>310</ele>
        <time>2015-06-28T07:46:02.000Z</time>
      </trkpt>
      <trkpt lat="47.47701" lon="6.75725">
        <ele>310</ele>
        <time>2015-06-28T07:46:03.000Z</time>
      </trkpt>
      <trkpt lat="47.47702" lon="6.75716">
        <ele>310</ele>
        <time>2015-06-28T07:46:04.000Z</time>
      </trkpt>
      <trkpt lat="47.47702" lon="6.75707">
        <ele>310</ele>
        <time>2015-06-28T07:46:05.000Z</time>
      </trkpt>
      <trkpt lat="47.47703" lon="6.75697">
        <ele>310</ele>
        <time>2015-06-28T07:46:06.000Z</time>
      </trkpt>
      <trkpt lat="47.47702" lon="6.75687">
        <ele>310</ele>
        <time>2015-06-28T07:46:07.000Z</time>
      </trkpt>
      <trkpt lat="47.47703" lon="6.75677">
        <ele>310</ele>
        <time>2015-06-28T07:46:08.000Z</time>
      </trkpt>
      <trkpt lat="47.47703" lon="6.75667">
        <ele>310</ele>
        <time>2015-06-28T07:46:09.000Z</time>
      </trkpt>
      <trkpt lat="47.47703" lon="6.75657">
        <ele>309</ele>
        <time>2015-06-28T07:46:10.000Z</time>
      </trkpt>
      <trkpt lat="47.47703" lon="6.75647">
        <ele>309</ele>
        <time>2015-06-28T07:46:11.000Z</time>
      </trkpt>
      <trkpt lat="47.47702" lon="6.75635">
        <ele>309</ele>
        <time>2015-06-28T07:46:12.000Z</time>
      </trkpt>
      <trkpt lat="47.47702" lon="6.75625">
        <ele>309</ele>
        <time>2015-06-28T07:46:13.000Z</time>
      </trkpt>
      <trkpt lat="47.47702" lon="6.75615">
        <ele>309</ele>
        <time>2015-06-28T07:46:14.000Z</time>
      </trkpt>
      <trkpt lat="47.47702" lon="6.75606">
        <ele>309</ele>
        <time>2015-06-28T07:46:15.000Z</time>
      </trkpt>
      <trkpt lat="47.47703" lon="6.75595">
        <ele>309</ele>
        <time>2015-06-28T07:46:16.000Z</time>
      </trkpt>
      <trkpt lat="47.47703" lon="6.75586">
        <ele>309</ele>
        <time>2015-06-28T07:46:17.000Z</time>
      </trkpt>
      <trkpt lat="47.47703" lon="6.75577">
        <ele>309</ele>
        <time>2015-06-28T07:46:18.000Z</time>
      </trkpt>
      <trkpt lat="47.47705" lon="6.75568">
        <ele>309</ele>
        <time>2015-06-28T07:46:19.000Z</time>
      </trkpt>
      <trkpt lat="47.47705" lon="6.75558">
        <ele>309</ele>
        <time>2015-06-28T07:46:20.000Z</time>
      </trkpt>
      <trkpt lat="47.47705" lon="6.75548">
        <ele>309</ele>
        <time>2015-06-28T07:46:21.000Z</time>
      </trkpt>
      <trkpt lat="47.47705" lon="6.75539">
        <ele>309</ele>
        <time>2015-06-28T07:46:22.000Z</time>
      </trkpt>
      <trkpt lat="47.47705" lon="6.75528">
        <ele>309</ele>
        <time>2015-06-28T07:46:23.000Z</time>
      </trkpt>
      <trkpt lat="47.47706" lon="6.75519">
        <ele>309</ele>
        <time>2015-06-28T07:46:24.000Z</time>
      </trkpt>
      <trkpt lat="47.47707" lon="6.7551">
        <ele>309</ele>
        <time>2015-06-28T07:46:25.000Z</time>
      </trkpt>
      <trkpt lat="47.47708" lon="6.75501">
        <ele>309</ele>
        <time>2015-06-28T07:46:26.000Z</time>
      </trkpt>
      <trkpt lat="47.47708" lon="6.75492">
        <ele>309</ele>
        <time>2015-06-28T07:46:27.000Z</time>
      </trkpt>
      <trkpt lat="47.47709" lon="6.75482">
        <ele>308</ele>
        <time>2015-06-28T07:46:28.000Z</time>
      </trkpt>
      <trkpt lat="47.47709" lon="6.75472">
        <ele>308</ele>
        <time>2015-06-28T07:46:29.000Z</time>
      </trkpt>
      <trkpt lat="47.47709" lon="6.75463">
        <ele>308</ele>
        <time>2015-06-28T07:46:30.000Z</time>
      </trkpt>
      <trkpt lat="47.47709" lon="6.75452">
        <ele>308</ele>
        <time>2015-06-28T07:46:31.000Z</time>
      </trkpt>
      <trkpt lat="47.47709" lon="6.75443">
        <ele>308</ele>
        <time>2015-06-28T07:46:32.000Z</time>
      </trkpt>
      <trkpt lat="47.4771" lon="6.75433">
        <ele>308</ele>
        <time>2015-06-28T07:46:33.000Z</time>
      </trkpt>
      <trkpt lat="47.47709" lon="6.75422">
        <ele>308</ele>
        <time>2015-06-28T07:46:34.000Z</time>
      </trkpt>
      <trkpt lat="47.4771" lon="6.75414">
        <ele>309</ele>
        <time>2015-06-28T07:46:35.000Z</time>
      </trkpt>
      <trkpt lat="47.4771" lon="6.75403">
        <ele>309</ele>
        <time>2015-06-28T07:46:36.000Z</time>
      </trkpt>
      <trkpt lat="47.4771" lon="6.75394">
        <ele>309</ele>
        <time>2015-06-28T07:46:37.000Z</time>
      </trkpt>
      <trkpt lat="47.47712" lon="6.75382">
        <ele>309</ele>
        <time>2015-06-28T07:46:38.000Z</time>
      </trkpt>
      <trkpt lat="47.47713" lon="6.75371">
        <ele>309</ele>
        <time>2015-06-28T07:46:39.000Z</time>
      </trkpt>
      <trkpt lat="47.47712" lon="6.75362">
        <ele>309</ele>
        <time>2015-06-28T07:46:40.000Z</time>
      </trkpt>
      <trkpt lat="47.47713" lon="6.75353">
        <ele>309</ele>
        <time>2015-06-28T07:46:41.000Z</time>
      </trkpt>
      <trkpt lat="47.47713" lon="6.75345">
        <ele>309</ele>
        <time>2015-06-28T07:46:42.000Z</time>
      </trkpt>
      <trkpt lat="47.47712" lon="6.75335">
        <ele>309</ele>
        <time>2015-06-28T07:46:43.000Z</time>
      </trkpt>
      <trkpt lat="47.47712" lon="6.75326">
        <ele>310</ele>
        <time>2015-06-28T07:46:44.000Z</time>
      </trkpt>
      <trkpt lat="47.47712" lon="6.75317">
        <ele>310</ele>
        <time>2015-06-28T07:46:45.000Z</time>
      </trkpt>
      <trkpt lat="47.47714" lon="6.75309">
        <ele>310</ele>
        <time>2015-06-28T07:46:46.000Z</time>
      </trkpt>
      <trkpt lat="47.47715" lon="6.75301">
        <ele>310</ele>
        <time>2015-06-28T07:46:47.000Z</time>
      </trkpt>
      <trkpt lat="47.47714" lon="6.75292">
        <ele>310</ele>
        <time>2015-06-28T07:46:48.000Z</time>
      </trkpt>
      <trkpt lat="47.47715" lon="6.75283">
        <ele>310</ele>
        <time>2015-06-28T07:46:49.000Z</time>
      </trkpt>
      <trkpt lat="47.47715" lon="6.75273">
        <ele>310</ele>
        <time>2015-06-28T07:46:50.000Z</time>
      </trkpt>
      <trkpt lat="47.47715" lon="6.75264">
        <ele>310</ele>
        <time>2015-06-28T07:46:51.000Z</time>
      </trkpt>
      <trkpt lat="47.47715" lon="6.75255">
        <ele>310</ele>
        <time>2015-06-28T07:46:52.000Z</time>
      </trkpt>
      <trkpt lat="47.47716" lon="6.75246">
        <ele>311</ele>
        <time>2015-06-28T07:46:53.000Z</time>
      </trkpt>
      <trkpt lat="47.47716" lon="6.75236">
        <ele>311</ele>
        <time>2015-06-28T07:46:54.000Z</time>
      </trkpt>
      <trkpt lat="47.47716" lon="6.75226">
        <ele>311</ele>
        <time>2015-06-28T07:46:55.000Z</time>
      </trkpt>
      <trkpt lat="47.47716" lon="6.75217">
        <ele>311</ele>
        <time>2015-06-28T07:46:56.000Z</time>
      </trkpt>
      <trkpt lat="47.47716" lon="6.75208">
        <ele>311</ele>
        <time>2015-06-28T07:46:57.000Z</time>
      </trkpt>
      <trkpt lat="47.47716" lon="6.75199">
        <ele>311</ele>
        <time>2015-06-28T07:46:58.000Z</time>
      </trkpt>
      <trkpt lat="47.47716" lon="6.75188">
        <ele>311</ele>
        <time>2015-06-28T07:46:59.000Z</time>
      </trkpt>
      <trkpt lat="47.47716" lon="6.75178">
        <ele>310</ele>
        <time>2015-06-28T07:47:00.000Z</time>
      </trkpt>
      <trkpt lat="47.47717" lon="6.75169">
        <ele>310</ele>
        <time>2015-06-28T07:47:01.000Z</time>
      </trkpt>
      <trkpt lat="47.47718" lon="6.75159">
        <ele>310</ele>
        <time>2015-06-28T07:47:02.000Z</time>
      </trkpt>
      <trkpt lat="47.47717" lon="6.75149">
        <ele>310</ele>
        <time>2015-06-28T07:47:03.000Z</time>
      </trkpt>
      <trkpt lat="47.47716" lon="6.7514">
        <ele>310</ele>
        <time>2015-06-28T07:47:04.000Z</time>
      </trkpt>
      <trkpt lat="47.47715" lon="6.7513">
        <ele>310</ele>
        <time>2015-06-28T07:47:05.000Z</time>
      </trkpt>
      <trkpt lat="47.47716" lon="6.7512">
        <ele>310</ele>
        <time>2015-06-28T07:47:06.000Z</time>
      </trkpt>
      <trkpt lat="47.47717" lon="6.75112">
        <ele>310</ele>
        <time>2015-06-28T07:47:07.000Z</time>
      </trkpt>
      <trkpt lat="47.47717" lon="6.75102">
        <ele>310</ele>
        <time>2015-06-28T07:47:08.000Z</time>
      </trkpt>
      <trkpt lat="47.47718" lon="6.75093">
        <ele>310</ele>
        <time>2015-06-28T07:47:09.000Z</time>
      </trkpt>
      <trkpt lat="47.47718" lon="6.75084">
        <ele>310</ele>
        <time>2015-06-28T07:47:10.000Z</time>
      </trkpt>
      <trkpt lat="47.47719" lon="6.75073">
        <ele>310</ele>
        <time>2015-06-28T07:47:11.000Z</time>
      </trkpt>
      <trkpt lat="47.4772" lon="6.75063">
        <ele>310</ele>
        <time>2015-06-28T07:47:12.000Z</time>
      </trkpt>
      <trkpt lat="47.4772" lon="6.75054">
        <ele>310</ele>
        <time>2015-06-28T07:47:13.000Z</time>
      </trkpt>
      <trkpt lat="47.47721" lon="6.75045">
        <ele>310</ele>
        <time>2015-06-28T07:47:14.000Z</time>
      </trkpt>
      <trkpt lat="47.47721" lon="6.75036">
        <ele>310</ele>
        <time>2015-06-28T07:47:15.000Z</time>
      </trkpt>
      <trkpt lat="47.47722" lon="6.75027">
        <ele>310</ele>
        <time>2015-06-28T07:47:16.000Z</time>
      </trkpt>
      <trkpt lat="47.47725" lon="6.75019">
        <ele>310</ele>
        <time>2015-06-28T07:47:17.000Z</time>
      </trkpt>
      <trkpt lat="47.47727" lon="6.75011">
        <ele>310</ele>
        <time>2015-06-28T07:47:18.000Z</time>
      </trkpt>
      <trkpt lat="47.47726" lon="6.75001">
        <ele>310</ele>
        <time>2015-06-28T07:47:19.000Z</time>
      </trkpt>
      <trkpt lat="47.47727" lon="6.74991">
        <ele>310</ele>
        <time>2015-06-28T07:47:20.000Z</time>
      </trkpt>
      <trkpt lat="47.47728" lon="6.74982">
        <ele>310</ele>
        <time>2015-06-28T07:47:21.000Z</time>
      </trkpt>
      <trkpt lat="47.47727" lon="6.7497">
        <ele>310</ele>
        <time>2015-06-28T07:47:22.000Z</time>
      </trkpt>
      <trkpt lat="47.47727" lon="6.7496">
        <ele>310</ele>
        <time>2015-06-28T07:47:23.000Z</time>
      </trkpt>
      <trkpt lat="47.47727" lon="6.7495">
        <ele>310</ele>
        <time>2015-06-28T07:47:24.000Z</time>
      </trkpt>
      <trkpt lat="47.47728" lon="6.74941">
        <ele>310</ele>
        <time>2015-06-28T07:47:25.000Z</time>
      </trkpt>
      <trkpt lat="47.47726" lon="6.74929">
        <ele>310</ele>
        <time>2015-06-28T07:47:26.000Z</time>
      </trkpt>
      <trkpt lat="47.47724" lon="6.74917">
        <ele>310</ele>
        <time>2015-06-28T07:47:27.000Z</time>
      </trkpt>
      <trkpt lat="47.47724" lon="6.74907">
        <ele>309</ele>
        <time>2015-06-28T07:47:28.000Z</time>
      </trkpt>
      <trkpt lat="47.47725" lon="6.74899">
        <ele>309</ele>
        <time>2015-06-28T07:47:29.000Z</time>
      </trkpt>
      <trkpt lat="47.47725" lon="6.74891">
        <ele>309</ele>
        <time>2015-06-28T07:47:30.000Z</time>
      </trkpt>
      <trkpt lat="47.47725" lon="6.74883">
        <ele>309</ele>
        <time>2015-06-28T07:47:31.000Z</time>
      </trkpt>
      <trkpt lat="47.47724" lon="6.74874">
        <ele>309</ele>
        <time>2015-06-28T07:47:32.000Z</time>
      </trkpt>
      <trkpt lat="47.47722" lon="6.74865">
        <ele>309</ele>
        <time>2015-06-28T07:47:33.000Z</time>
      </trkpt>
      <trkpt lat="47.47726" lon="6.74857">
        <ele>309</ele>
        <time>2015-06-28T07:47:34.000Z</time>
      </trkpt>
      <trkpt lat="47.47727" lon="6.74848">
        <ele>309</ele>
        <time>2015-06-28T07:47:35.000Z</time>
      </trkpt>
      <trkpt lat="47.47727" lon="6.74836">
        <ele>309</ele>
        <time>2015-06-28T07:47:36.000Z</time>
      </trkpt>
      <trkpt lat="47.47727" lon="6.74827">
        <ele>309</ele>
        <time>2015-06-28T07:47:37.000Z</time>
      </trkpt>
      <trkpt lat="47.47727" lon="6.74817">
        <ele>309</ele>
        <time>2015-06-28T07:47:38.000Z</time>
      </trkpt>
      <trkpt lat="47.47728" lon="6.74809">
        <ele>309</ele>
        <time>2015-06-28T07:47:39.000Z</time>
      </trkpt>
      <trkpt lat="47.47728" lon="6.748">
        <ele>309</ele>
        <time>2015-06-28T07:47:40.000Z</time>
      </trkpt>
      <trkpt lat="47.47728" lon="6.74789">
        <ele>309</ele>
        <time>2015-06-28T07:47:41.000Z</time>
      </trkpt>
      <trkpt lat="47.47729" lon="6.7478">
        <ele>309</ele>
        <time>2015-06-28T07:47:42.000Z</time>
      </trkpt>
      <trkpt lat="47.47728" lon="6.74771">
        <ele>309</ele>
        <time>2015-06-28T07:47:43.000Z</time>
      </trkpt>
      <trkpt lat="47.47734" lon="6.74764">
        <ele>309</ele>
        <time>2015-06-28T07:47:44.000Z</time>
      </trkpt>
      <trkpt lat="47.47737" lon="6.74758">
        <ele>309</ele>
        <time>2015-06-28T07:47:45.000Z</time>
      </trkpt>
      <trkpt lat="47.47739" lon="6.74751">
        <ele>309</ele>
        <time>2015-06-28T07:47:46.000Z</time>
      </trkpt>
      <trkpt lat="47.47731" lon="6.74738">
        <ele>309</ele>
        <time>2015-06-28T07:47:47.000Z</time>
      </trkpt>
      <trkpt lat="47.47728" lon="6.74727">
        <ele>309</ele>
        <time>2015-06-28T07:47:48.000Z</time>
      </trkpt>
      <trkpt lat="47.47731" lon="6.74717">
        <ele>309</ele>
        <time>2015-06-28T07:47:49.000Z</time>
      </trkpt>
      <trkpt lat="47.47731" lon="6.74708">
        <ele>309</ele>
        <time>2015-06-28T07:47:50.000Z</time>
      </trkpt>
      <trkpt lat="47.47733" lon="6.74698">
        <ele>309</ele>
        <time>2015-06-28T07:47:51.000Z</time>
      </trkpt>
      <trkpt lat="47.47733" lon="6.74688">
        <ele>308</ele>
        <time>2015-06-28T07:47:52.000Z</time>
      </trkpt>
      <trkpt lat="47.47732" lon="6.74679">
        <ele>308</ele>
        <time>2015-06-28T07:47:53.000Z</time>
      </trkpt>
      <trkpt lat="47.47732" lon="6.74669">
        <ele>308</ele>
        <time>2015-06-28T07:47:54.000Z</time>
      </trkpt>
      <trkpt lat="47.47733" lon="6.7466">
        <ele>308</ele>
        <time>2015-06-28T07:47:55.000Z</time>
      </trkpt>
      <trkpt lat="47.47734" lon="6.74652">
        <ele>308</ele>
        <time>2015-06-28T07:47:56.000Z</time>
      </trkpt>
      <trkpt lat="47.47733" lon="6.74642">
        <ele>308</ele>
        <time>2015-06-28T07:47:57.000Z</time>
      </trkpt>
      <trkpt lat="47.47731" lon="6.74632">
        <ele>308</ele>
        <time>2015-06-28T07:47:58.000Z</time>
      </trkpt>
      <trkpt lat="47.47732" lon="6.74623">
        <ele>308</ele>
        <time>2015-06-28T07:47:59.000Z</time>
      </trkpt>
      <trkpt lat="47.4773" lon="6.74614">
        <ele>308</ele>
        <time>2015-06-28T07:48:00.000Z</time>
      </trkpt>
      <trkpt lat="47.47729" lon="6.74604">
        <ele>308</ele>
        <time>2015-06-28T07:48:01.000Z</time>
      </trkpt>
      <trkpt lat="47.47727" lon="6.74594">
        <ele>308</ele>
        <time>2015-06-28T07:48:02.000Z</time>
      </trkpt>
      <trkpt lat="47.47727" lon="6.74585">
        <ele>308</ele>
        <time>2015-06-28T07:48:03.000Z</time>
      </trkpt>
      <trkpt lat="47.47726" lon="6.74575">
        <ele>308</ele>
        <time>2015-06-28T07:48:04.000Z</time>
      </trkpt>
      <trkpt lat="47.47724" lon="6.74565">
        <ele>308</ele>
        <time>2015-06-28T07:48:05.000Z</time>
      </trkpt>
      <trkpt lat="47.47723" lon="6.74555">
        <ele>308</ele>
        <time>2015-06-28T07:48:06.000Z</time>
      </trkpt>
      <trkpt lat="47.47721" lon="6.74545">
        <ele>308</ele>
        <time>2015-06-28T07:48:07.000Z</time>
      </trkpt>
      <trkpt lat="47.47716" lon="6.74535">
        <ele>308</ele>
        <time>2015-06-28T07:48:08.000Z</time>
      </trkpt>
      <trkpt lat="47.47714" lon="6.74527">
        <ele>308</ele>
        <time>2015-06-28T07:48:09.000Z</time>
      </trkpt>
      <trkpt lat="47.47713" lon="6.74519">
        <ele>308</ele>
        <time>2015-06-28T07:48:10.000Z</time>
      </trkpt>
      <trkpt lat="47.47712" lon="6.74509">
        <ele>308</ele>
        <time>2015-06-28T07:48:11.000Z</time>
      </trkpt>
      <trkpt lat="47.47712" lon="6.745">
        <ele>308</ele>
        <time>2015-06-28T07:48:12.000Z</time>
      </trkpt>
      <trkpt lat="47.47713" lon="6.74492">
        <ele>308</ele>
        <time>2015-06-28T07:48:13.000Z</time>
      </trkpt>
      <trkpt lat="47.47713" lon="6.74483">
        <ele>308</ele>
        <time>2015-06-28T07:48:14.000Z</time>
      </trkpt>
      <trkpt lat="47.47712" lon="6.74475">
        <ele>308</ele>
        <time>2015-06-28T07:48:15.000Z</time>
      </trkpt>
      <trkpt lat="47.47712" lon="6.74466">
        <ele>308</ele>
        <time>2015-06-28T07:48:16.000Z</time>
      </trkpt>
      <trkpt lat="47.47711" lon="6.74458">
        <ele>308</ele>
        <time>2015-06-28T07:48:17.000Z</time>
      </trkpt>
      <trkpt lat="47.47713" lon="6.7445">
        <ele>308</ele>
        <time>2015-06-28T07:48:18.000Z</time>
      </trkpt>
      <trkpt lat="47.47717" lon="6.74445">
        <ele>308</ele>
        <time>2015-06-28T07:48:19.000Z</time>
      </trkpt>
      <trkpt lat="47.4772" lon="6.74439">
        <ele>308</ele>
        <time>2015-06-28T07:48:20.000Z</time>
      </trkpt>
      <trkpt lat="47.47721" lon="6.74432">
        <ele>308</ele>
        <time>2015-06-28T07:48:21.000Z</time>
      </trkpt>
      <trkpt lat="47.47719" lon="6.74422">
        <ele>308</ele>
        <time>2015-06-28T07:48:22.000Z</time>
      </trkpt>
      <trkpt lat="47.47718" lon="6.74413">
        <ele>309</ele>
        <time>2015-06-28T07:48:23.000Z</time>
      </trkpt>
      <trkpt lat="47.47717" lon="6.74405">
        <ele>309</ele>
        <time>2015-06-28T07:48:24.000Z</time>
      </trkpt>
      <trkpt lat="47.47716" lon="6.74397">
        <ele>309</ele>
        <time>2015-06-28T07:48:25.000Z</time>
      </trkpt>
      <trkpt lat="47.47717" lon="6.74389">
        <ele>309</ele>
        <time>2015-06-28T07:48:26.000Z</time>
      </trkpt>
      <trkpt lat="47.47716" lon="6.7438">
        <ele>309</ele>
        <time>2015-06-28T07:48:27.000Z</time>
      </trkpt>
      <trkpt lat="47.47715" lon="6.74372">
        <ele>309</ele>
        <time>2015-06-28T07:48:28.000Z</time>
      </trkpt>
      <trkpt lat="47.47713" lon="6.74364">
        <ele>309</ele>
        <time>2015-06-28T07:48:29.000Z</time>
      </trkpt>
      <trkpt lat="47.47712" lon="6.74356">
        <ele>309</ele>
        <time>2015-06-28T07:48:30.000Z</time>
      </trkpt>
      <trkpt lat="47.47711" lon="6.74348">
        <ele>309</ele>
        <time>2015-06-28T07:48:31.000Z</time>
      </trkpt>
      <trkpt lat="47.47708" lon="6.74339">
        <ele>309</ele>
        <time>2015-06-28T07:48:32.000Z</time>
      </trkpt>
      <trkpt lat="47.47707" lon="6.7433">
        <ele>310</ele>
        <time>2015-06-28T07:48:33.000Z</time>
      </trkpt>
      <trkpt lat="47.47705" lon="6.74322">
        <ele>310</ele>
        <time>2015-06-28T07:48:34.000Z</time>
      </trkpt>
      <trkpt lat="47.47701" lon="6.74314">
        <ele>310</ele>
        <time>2015-06-28T07:48:35.000Z</time>
      </trkpt>
      <trkpt lat="47.47699" lon="6.74305">
        <ele>310</ele>
        <time>2015-06-28T07:48:36.000Z</time>
      </trkpt>
      <trkpt lat="47.47698" lon="6.74296">
        <ele>310</ele>
        <time>2015-06-28T07:48:37.000Z</time>
      </trkpt>
      <trkpt lat="47.47699" lon="6.74288">
        <ele>310</ele>
        <time>2015-06-28T07:48:38.000Z</time>
      </trkpt>
      <trkpt lat="47.47699" lon="6.74279">
        <ele>310</ele>
        <time>2015-06-28T07:48:39.000Z</time>
      </trkpt>
      <trkpt lat="47.47698" lon="6.74271">
        <ele>310</ele>
        <time>2015-06-28T07:48:40.000Z</time>
      </trkpt>
      <trkpt lat="47.47697" lon="6.74261">
        <ele>310</ele>
        <time>2015-06-28T07:48:41.000Z</time>
      </trkpt>
      <trkpt lat="47.47696" lon="6.74253">
        <ele>310</ele>
        <time>2015-06-28T07:48:42.000Z</time>
      </trkpt>
      <trkpt lat="47.47695" lon="6.74244">
        <ele>310</ele>
        <time>2015-06-28T07:48:43.000Z</time>
      </trkpt>
      <trkpt lat="47.47693" lon="6.74236">
        <ele>310</ele>
        <time>2015-06-28T07:48:44.000Z</time>
      </trkpt>
      <trkpt lat="47.47692" lon="6.74227">
        <ele>310</ele>
        <time>2015-06-28T07:48:45.000Z</time>
      </trkpt>
      <trkpt lat="47.4769" lon="6.74217">
        <ele>310</ele>
        <time>2015-06-28T07:48:46.000Z</time>
      </trkpt>
      <trkpt lat="47.47688" lon="6.74209">
        <ele>310</ele>
        <time>2015-06-28T07:48:47.000Z</time>
      </trkpt>
      <trkpt lat="47.47687" lon="6.742">
        <ele>310</ele>
        <time>2015-06-28T07:48:48.000Z</time>
      </trkpt>
      <trkpt lat="47.47684" lon="6.74192">
        <ele>310</ele>
        <time>2015-06-28T07:48:49.000Z</time>
      </trkpt>
      <trkpt lat="47.47683" lon="6.74185">
        <ele>310</ele>
        <time>2015-06-28T07:48:50.000Z</time>
      </trkpt>
      <trkpt lat="47.47681" lon="6.74176">
        <ele>310</ele>
        <time>2015-06-28T07:48:51.000Z</time>
      </trkpt>
      <trkpt lat="47.47679" lon="6.74168">
        <ele>310</ele>
        <time>2015-06-28T07:48:52.000Z</time>
      </trkpt>
      <trkpt lat="47.47677" lon="6.74159">
        <ele>310</ele>
        <time>2015-06-28T07:48:53.000Z</time>
      </trkpt>
      <trkpt lat="47.47674" lon="6.7415">
        <ele>310</ele>
        <time>2015-06-28T07:48:54.000Z</time>
      </trkpt>
      <trkpt lat="47.47673" lon="6.74142">
        <ele>310</ele>
        <time>2015-06-28T07:48:55.000Z</time>
      </trkpt>
      <trkpt lat="47.47671" lon="6.74135">
        <ele>310</ele>
        <time>2015-06-28T07:48:56.000Z</time>
      </trkpt>
      <trkpt lat="47.47669" lon="6.74127">
        <ele>310</ele>
        <time>2015-06-28T07:48:57.000Z</time>
      </trkpt>
      <trkpt lat="47.47667" lon="6.74119">
        <ele>310</ele>
        <time>2015-06-28T07:48:58.000Z</time>
      </trkpt>
      <trkpt lat="47.47665" lon="6.74114">
        <ele>309</ele>
        <time>2015-06-28T07:48:59.000Z</time>
      </trkpt>
      <trkpt lat="47.47662" lon="6.74111">
        <ele>309</ele>
        <time>2015-06-28T07:49:00.000Z</time>
      </trkpt>
      <trkpt lat="47.47659" lon="6.74108">
        <ele>309</ele>
        <time>2015-06-28T07:49:01.000Z</time>
      </trkpt>
      <trkpt lat="47.47656" lon="6.74104">
        <ele>309</ele>
        <time>2015-06-28T07:49:02.000Z</time>
      </trkpt>
      <trkpt lat="47.47655" lon="6.74098">
        <ele>309</ele>
        <time>2015-06-28T07:49:03.000Z</time>
      </trkpt>
      <trkpt lat="47.47653" lon="6.74092">
        <ele>310</ele>
        <time>2015-06-28T07:49:04.000Z</time>
      </trkpt>
      <trkpt lat="47.4765" lon="6.74085">
        <ele>310</ele>
        <time>2015-06-28T07:49:05.000Z</time>
      </trkpt>
      <trkpt lat="47.47646" lon="6.74078">
        <ele>310</ele>
        <time>2015-06-28T07:49:06.000Z</time>
      </trkpt>
      <trkpt lat="47.47643" lon="6.74071">
        <ele>310</ele>
        <time>2015-06-28T07:49:07.000Z</time>
      </trkpt>
      <trkpt lat="47.47638" lon="6.74065">
        <ele>310</ele>
        <time>2015-06-28T07:49:08.000Z</time>
      </trkpt>
      <trkpt lat="47.47633" lon="6.7406">
        <ele>310</ele>
        <time>2015-06-28T07:49:09.000Z</time>
      </trkpt>
      <trkpt lat="47.47628" lon="6.74057">
        <ele>310</ele>
        <time>2015-06-28T07:49:10.000Z</time>
      </trkpt>
      <trkpt lat="47.47621" lon="6.74054">
        <ele>309</ele>
        <time>2015-06-28T07:49:11.000Z</time>
      </trkpt>
      <trkpt lat="47.47614" lon="6.74056">
        <ele>309</ele>
        <time>2015-06-28T07:49:12.000Z</time>
      </trkpt>
      <trkpt lat="47.47607" lon="6.74058">
        <ele>309</ele>
        <time>2015-06-28T07:49:13.000Z</time>
      </trkpt>
      <trkpt lat="47.47601" lon="6.74062">
        <ele>309</ele>
        <time>2015-06-28T07:49:14.000Z</time>
      </trkpt>
      <trkpt lat="47.47595" lon="6.74066">
        <ele>309</ele>
        <time>2015-06-28T07:49:15.000Z</time>
      </trkpt>
      <trkpt lat="47.47588" lon="6.74069">
        <ele>309</ele>
        <time>2015-06-28T07:49:16.000Z</time>
      </trkpt>
      <trkpt lat="47.47582" lon="6.74073">
        <ele>309</ele>
        <time>2015-06-28T07:49:17.000Z</time>
      </trkpt>
      <trkpt lat="47.47577" lon="6.74078">
        <ele>309</ele>
        <time>2015-06-28T07:49:18.000Z</time>
      </trkpt>
      <trkpt lat="47.47572" lon="6.74083">
        <ele>309</ele>
        <time>2015-06-28T07:49:19.000Z</time>
      </trkpt>
      <trkpt lat="47.47566" lon="6.74087">
        <ele>309</ele>
        <time>2015-06-28T07:49:20.000Z</time>
      </trkpt>
      <trkpt lat="47.4756" lon="6.74091">
        <ele>309</ele>
        <time>2015-06-28T07:49:21.000Z</time>
      </trkpt>
      <trkpt lat="47.47555" lon="6.74095">
        <ele>309</ele>
        <time>2015-06-28T07:49:22.000Z</time>
      </trkpt>
      <trkpt lat="47.47549" lon="6.741">
        <ele>309</ele>
        <time>2015-06-28T07:49:23.000Z</time>
      </trkpt>
      <trkpt lat="47.47543" lon="6.74104">
        <ele>309</ele>
        <time>2015-06-28T07:49:24.000Z</time>
      </trkpt>
      <trkpt lat="47.47539" lon="6.74108">
        <ele>308</ele>
        <time>2015-06-28T07:49:25.000Z</time>
      </trkpt>
      <trkpt lat="47.47534" lon="6.74112">
        <ele>308</ele>
        <time>2015-06-28T07:49:26.000Z</time>
      </trkpt>
      <trkpt lat="47.47528" lon="6.74117">
        <ele>308</ele>
        <time>2015-06-28T07:49:27.000Z</time>
      </trkpt>
      <trkpt lat="47.47523" lon="6.74121">
        <ele>308</ele>
        <time>2015-06-28T07:49:28.000Z</time>
      </trkpt>
      <trkpt lat="47.47518" lon="6.74125">
        <ele>309</ele>
        <time>2015-06-28T07:49:29.000Z</time>
      </trkpt>
      <trkpt lat="47.47513" lon="6.74129">
        <ele>309</ele>
        <time>2015-06-28T07:49:30.000Z</time>
      </trkpt>
      <trkpt lat="47.47508" lon="6.74134">
        <ele>309</ele>
        <time>2015-06-28T07:49:31.000Z</time>
      </trkpt>
      <trkpt lat="47.47503" lon="6.74137">
        <ele>309</ele>
        <time>2015-06-28T07:49:32.000Z</time>
      </trkpt>
      <trkpt lat="47.47498" lon="6.74142">
        <ele>309</ele>
        <time>2015-06-28T07:49:33.000Z</time>
      </trkpt>
      <trkpt lat="47.47493" lon="6.74146">
        <ele>309</ele>
        <time>2015-06-28T07:49:34.000Z</time>
      </trkpt>
      <trkpt lat="47.47488" lon="6.74149">
        <ele>309</ele>
        <time>2015-06-28T07:49:35.000Z</time>
      </trkpt>
      <trkpt lat="47.47485" lon="6.74153">
        <ele>309</ele>
        <time>2015-06-28T07:49:36.000Z</time>
      </trkpt>
      <trkpt lat="47.47481" lon="6.74157">
        <ele>309</ele>
        <time>2015-06-28T07:49:37.000Z</time>
      </trkpt>
      <trkpt lat="47.47476" lon="6.7416">
        <ele>309</ele>
        <time>2015-06-28T07:49:38.000Z</time>
      </trkpt>
      <trkpt lat="47.47472" lon="6.74164">
        <ele>309</ele>
        <time>2015-06-28T07:49:39.000Z</time>
      </trkpt>
      <trkpt lat="47.47468" lon="6.74169">
        <ele>309</ele>
        <time>2015-06-28T07:49:40.000Z</time>
      </trkpt>
      <trkpt lat="47.47464" lon="6.74171">
        <ele>309</ele>
        <time>2015-06-28T07:49:41.000Z</time>
      </trkpt>
      <trkpt lat="47.47461" lon="6.74173">
        <ele>309</ele>
        <time>2015-06-28T07:49:42.000Z</time>
      </trkpt>
      <trkpt lat="47.47455" lon="6.74175">
        <ele>309</ele>
        <time>2015-06-28T07:49:43.000Z</time>
      </trkpt>
      <trkpt lat="47.4745" lon="6.74178">
        <ele>309</ele>
        <time>2015-06-28T07:49:44.000Z</time>
      </trkpt>
      <trkpt lat="47.47444" lon="6.74181">
        <ele>309</ele>
        <time>2015-06-28T07:49:45.000Z</time>
      </trkpt>
      <trkpt lat="47.47439" lon="6.74184">
        <ele>309</ele>
        <time>2015-06-28T07:49:46.000Z</time>
      </trkpt>
      <trkpt lat="47.47433" lon="6.74186">
        <ele>309</ele>
        <time>2015-06-28T07:49:47.000Z</time>
      </trkpt>
      <trkpt lat="47.47427" lon="6.74189">
        <ele>309</ele>
        <time>2015-06-28T07:49:48.000Z</time>
      </trkpt>
      <trkpt lat="47.47422" lon="6.74191">
        <ele>309</ele>
        <time>2015-06-28T07:49:49.000Z</time>
      </trkpt>
      <trkpt lat="47.47416" lon="6.74194">
        <ele>310</ele>
        <time>2015-06-28T07:49:50.000Z</time>
      </trkpt>
      <trkpt lat="47.47411" lon="6.74197">
        <ele>310</ele>
        <time>2015-06-28T07:49:51.000Z</time>
      </trkpt>
      <trkpt lat="47.47405" lon="6.74199">
        <ele>310</ele>
        <time>2015-06-28T07:49:52.000Z</time>
      </trkpt>
      <trkpt lat="47.474" lon="6.74202">
        <ele>310</ele>
        <time>2015-06-28T07:49:53.000Z</time>
      </trkpt>
      <trkpt lat="47.47395" lon="6.74205">
        <ele>310</ele>
        <time>2015-06-28T07:49:54.000Z</time>
      </trkpt>
      <trkpt lat="47.4739" lon="6.74208">
        <ele>310</ele>
        <time>2015-06-28T07:49:55.000Z</time>
      </trkpt>
      <trkpt lat="47.47385" lon="6.74211">
        <ele>310</ele>
        <time>2015-06-28T07:49:56.000Z</time>
      </trkpt>
      <trkpt lat="47.47381" lon="6.74213">
        <ele>310</ele>
        <time>2015-06-28T07:49:57.000Z</time>
      </trkpt>
      <trkpt lat="47.47376" lon="6.74217">
        <ele>310</ele>
        <time>2015-06-28T07:49:58.000Z</time>
      </trkpt>
      <trkpt lat="47.4737" lon="6.74218">
        <ele>310</ele>
        <time>2015-06-28T07:49:59.000Z</time>
      </trkpt>
      <trkpt lat="47.47365" lon="6.7422">
        <ele>310</ele>
        <time>2015-06-28T07:50:00.000Z</time>
      </trkpt>
      <trkpt lat="47.47361" lon="6.74222">
        <ele>310</ele>
        <time>2015-06-28T07:50:01.000Z</time>
      </trkpt>
      <trkpt lat="47.47356" lon="6.74226">
        <ele>310</ele>
        <time>2015-06-28T07:50:02.000Z</time>
      </trkpt>
      <trkpt lat="47.47351" lon="6.74226">
        <ele>310</ele>
        <time>2015-06-28T07:50:03.000Z</time>
      </trkpt>
      <trkpt lat="47.47346" lon="6.74228">
        <ele>310</ele>
        <time>2015-06-28T07:50:04.000Z</time>
      </trkpt>
      <trkpt lat="47.47341" lon="6.74231">
        <ele>310</ele>
        <time>2015-06-28T07:50:05.000Z</time>
      </trkpt>
      <trkpt lat="47.47337" lon="6.74233">
        <ele>310</ele>
        <time>2015-06-28T07:50:06.000Z</time>
      </trkpt>
      <trkpt lat="47.47333" lon="6.74237">
        <ele>311</ele>
        <time>2015-06-28T07:50:07.000Z</time>
      </trkpt>
      <trkpt lat="47.47328" lon="6.74238">
        <ele>311</ele>
        <time>2015-06-28T07:50:08.000Z</time>
      </trkpt>
      <trkpt lat="47.47322" lon="6.74241">
        <ele>311</ele>
        <time>2015-06-28T07:50:09.000Z</time>
      </trkpt>
      <trkpt lat="47.47317" lon="6.74243">
        <ele>311</ele>
        <time>2015-06-28T07:50:10.000Z</time>
      </trkpt>
      <trkpt lat="47.47314" lon="6.74247">
        <ele>312</ele>
        <time>2015-06-28T07:50:11.000Z</time>
      </trkpt>
      <trkpt lat="47.47309" lon="6.7425">
        <ele>312</ele>
        <time>2015-06-28T07:50:12.000Z</time>
      </trkpt>
      <trkpt lat="47.47303" lon="6.7425">
        <ele>312</ele>
        <time>2015-06-28T07:50:13.000Z</time>
      </trkpt>
      <trkpt lat="47.47298" lon="6.74252">
        <ele>312</ele>
        <time>2015-06-28T07:50:14.000Z</time>
      </trkpt>
      <trkpt lat="47.47291" lon="6.74253">
        <ele>312</ele>
        <time>2015-06-28T07:50:15.000Z</time>
      </trkpt>
      <trkpt lat="47.47285" lon="6.74254">
        <ele>312</ele>
        <time>2015-06-28T07:50:16.000Z</time>
      </trkpt>
      <trkpt lat="47.4728" lon="6.74255">
        <ele>313</ele>
        <time>2015-06-28T07:50:17.000Z</time>
      </trkpt>
      <trkpt lat="47.47275" lon="6.74256">
        <ele>313</ele>
        <time>2015-06-28T07:50:18.000Z</time>
      </trkpt>
      <trkpt lat="47.47269" lon="6.74257">
        <ele>313</ele>
        <time>2015-06-28T07:50:19.000Z</time>
      </trkpt>
      <trkpt lat="47.47265" lon="6.74257">
        <ele>313</ele>
        <time>2015-06-28T07:50:20.000Z</time>
      </trkpt>
      <trkpt lat="47.47259" lon="6.74259">
        <ele>313</ele>
        <time>2015-06-28T07:50:21.000Z</time>
      </trkpt>
      <trkpt lat="47.47255" lon="6.74259">
        <ele>313</ele>
        <time>2015-06-28T07:50:22.000Z</time>
      </trkpt>
      <trkpt lat="47.47253" lon="6.74268">
        <ele>313</ele>
        <time>2015-06-28T07:50:23.000Z</time>
      </trkpt>
      <trkpt lat="47.47251" lon="6.74274">
        <ele>313</ele>
        <time>2015-06-28T07:50:24.000Z</time>
      </trkpt>
      <trkpt lat="47.47248" lon="6.74281">
        <ele>315</ele>
        <time>2015-06-28T07:50:25.000Z</time>
      </trkpt>
      <trkpt lat="47.47248" lon="6.74287">
        <ele>315</ele>
        <time>2015-06-28T07:50:26.000Z</time>
      </trkpt>
      <trkpt lat="47.47246" lon="6.74295">
        <ele>315</ele>
        <time>2015-06-28T07:50:27.000Z</time>
      </trkpt>
      <trkpt lat="47.47245" lon="6.74302">
        <ele>315</ele>
        <time>2015-06-28T07:50:28.000Z</time>
      </trkpt>
      <trkpt lat="47.47244" lon="6.74309">
        <ele>315</ele>
        <time>2015-06-28T07:50:29.000Z</time>
      </trkpt>
      <trkpt lat="47.47242" lon="6.74315">
        <ele>315</ele>
        <time>2015-06-28T07:50:30.000Z</time>
      </trkpt>
      <trkpt lat="47.4724" lon="6.74323">
        <ele>315</ele>
        <time>2015-06-28T07:50:31.000Z</time>
      </trkpt>
      <trkpt lat="47.47238" lon="6.74326">
        <ele>315</ele>
        <time>2015-06-28T07:50:32.000Z</time>
      </trkpt>
      <trkpt lat="47.47236" lon="6.74329">
        <ele>315</ele>
        <time>2015-06-28T07:50:33.000Z</time>
      </trkpt>
      <trkpt lat="47.47234" lon="6.74336">
        <ele>316</ele>
        <time>2015-06-28T07:50:34.000Z</time>
      </trkpt>
      <trkpt lat="47.47232" lon="6.74338">
        <ele>316</ele>
        <time>2015-06-28T07:50:35.000Z</time>
      </trkpt>
      <trkpt lat="47.47228" lon="6.74341">
        <ele>317</ele>
        <time>2015-06-28T07:50:36.000Z</time>
      </trkpt>
      <trkpt lat="47.47224" lon="6.74343">
        <ele>317</ele>
        <time>2015-06-28T07:50:37.000Z</time>
      </trkpt>
      <trkpt lat="47.47221" lon="6.74347">
        <ele>317</ele>
        <time>2015-06-28T07:50:38.000Z</time>
      </trkpt>
      <trkpt lat="47.47218" lon="6.74351">
        <ele>318</ele>
        <time>2015-06-28T07:50:39.000Z</time>
      </trkpt>
      <trkpt lat="47.47214" lon="6.74353">
        <ele>318</ele>
        <time>2015-06-28T07:50:40.000Z</time>
      </trkpt>
      <trkpt lat="47.47211" lon="6.74354">
        <ele>318</ele>
        <time>2015-06-28T07:50:41.000Z</time>
      </trkpt>
      <trkpt lat="47.47208" lon="6.74356">
        <ele>318</ele>
        <time>2015-06-28T07:50:42.000Z</time>
      </trkpt>
      <trkpt lat="47.47204" lon="6.74357">
        <ele>318</ele>
        <time>2015-06-28T07:50:44.000Z</time>
      </trkpt>
      <trkpt lat="47.47203" lon="6.74358">
        <ele>319</ele>
        <time>2015-06-28T07:50:45.000Z</time>
      </trkpt>
      <trkpt lat="47.472" lon="6.74359">
        <ele>319</ele>
        <time>2015-06-28T07:50:47.000Z</time>
      </trkpt>
      <trkpt lat="47.47197" lon="6.74361">
        <ele>319</ele>
        <time>2015-06-28T07:50:48.000Z</time>
      </trkpt>
      <trkpt lat="47.47195" lon="6.74361">
        <ele>319</ele>
        <time>2015-06-28T07:50:49.000Z</time>
      </trkpt>
      <trkpt lat="47.47193" lon="6.74362">
        <ele>319</ele>
        <time>2015-06-28T07:50:50.000Z</time>
      </trkpt>
      <trkpt lat="47.47189" lon="6.74362">
        <ele>319</ele>
        <time>2015-06-28T07:50:52.000Z</time>
      </trkpt>
      <trkpt lat="47.47187" lon="6.74362">
        <ele>319</ele>
        <time>2015-06-28T07:50:53.000Z</time>
      </trkpt>
      <trkpt lat="47.47184" lon="6.74363">
        <ele>319</ele>
        <time>2015-06-28T07:50:54.000Z</time>
      </trkpt>
      <trkpt lat="47.47181" lon="6.74363">
        <ele>319</ele>
        <time>2015-06-28T07:50:55.000Z</time>
      </trkpt>
      <trkpt lat="47.47178" lon="6.74364">
        <ele>319</ele>
        <time>2015-06-28T07:50:56.000Z</time>
      </trkpt>
      <trkpt lat="47.47175" lon="6.74363">
        <ele>319</ele>
        <time>2015-06-28T07:50:57.000Z</time>
      </trkpt>
      <trkpt lat="47.47172" lon="6.74363">
        <ele>319</ele>
        <time>2015-06-28T07:50:58.000Z</time>
      </trkpt>
      <trkpt lat="47.47169" lon="6.74362">
        <ele>319</ele>
        <time>2015-06-28T07:50:59.000Z</time>
      </trkpt>
      <trkpt lat="47.47165" lon="6.74362">
        <ele>323</ele>
        <time>2015-06-28T07:51:00.000Z</time>
      </trkpt>
      <trkpt lat="47.47162" lon="6.74362">
        <ele>324</ele>
        <time>2015-06-28T07:51:01.000Z</time>
      </trkpt>
      <trkpt lat="47.47159" lon="6.74362">
        <ele>324</ele>
        <time>2015-06-28T07:51:02.000Z</time>
      </trkpt>
      <trkpt lat="47.47156" lon="6.74362">
        <ele>324</ele>
        <time>2015-06-28T07:51:03.000Z</time>
      </trkpt>
      <trkpt lat="47.47153" lon="6.74363">
        <ele>324</ele>
        <time>2015-06-28T07:51:04.000Z</time>
      </trkpt>
      <trkpt lat="47.4715" lon="6.74363">
        <ele>324</ele>
        <time>2015-06-28T07:51:05.000Z</time>
      </trkpt>
      <trkpt lat="47.47148" lon="6.74363">
        <ele>324</ele>
        <time>2015-06-28T07:51:06.000Z</time>
      </trkpt>
      <trkpt lat="47.47145" lon="6.74364">
        <ele>324</ele>
        <time>2015-06-28T07:51:07.000Z</time>
      </trkpt>
      <trkpt lat="47.47143" lon="6.74365">
        <ele>325</ele>
        <time>2015-06-28T07:51:08.000Z</time>
      </trkpt>
      <trkpt lat="47.4714" lon="6.74366">
        <ele>325</ele>
        <time>2015-06-28T07:51:09.000Z</time>
      </trkpt>
      <trkpt lat="47.47138" lon="6.74367">
        <ele>325</ele>
        <time>2015-06-28T07:51:10.000Z</time>
      </trkpt>
      <trkpt lat="47.47136" lon="6.74367">
        <ele>325</ele>
        <time>2015-06-28T07:51:11.000Z</time>
      </trkpt>
      <trkpt lat="47.47132" lon="6.74365">
        <ele>325</ele>
        <time>2015-06-28T07:51:13.000Z</time>
      </trkpt>
      <trkpt lat="47.4713" lon="6.74363">
        <ele>325</ele>
        <time>2015-06-28T07:51:14.000Z</time>
      </trkpt>
      <trkpt lat="47.47128" lon="6.74362">
        <ele>325</ele>
        <time>2015-06-28T07:51:15.000Z</time>
      </trkpt>
      <trkpt lat="47.47126" lon="6.7436">
        <ele>325</ele>
        <time>2015-06-28T07:51:16.000Z</time>
      </trkpt>
      <trkpt lat="47.47123" lon="6.7436">
        <ele>325</ele>
        <time>2015-06-28T07:51:17.000Z</time>
      </trkpt>
      <trkpt lat="47.47121" lon="6.7436">
        <ele>325</ele>
        <time>2015-06-28T07:51:18.000Z</time>
      </trkpt>
      <trkpt lat="47.47119" lon="6.74361">
        <ele>326</ele>
        <time>2015-06-28T07:51:19.000Z</time>
      </trkpt>
      <trkpt lat="47.47117" lon="6.74362">
        <ele>326</ele>
        <time>2015-06-28T07:51:20.000Z</time>
      </trkpt>
      <trkpt lat="47.47115" lon="6.74364">
        <ele>326</ele>
        <time>2015-06-28T07:51:21.000Z</time>
      </trkpt>
      <trkpt lat="47.47112" lon="6.74366">
        <ele>326</ele>
        <time>2015-06-28T07:51:22.000Z</time>
      </trkpt>
      <trkpt lat="47.47109" lon="6.74369">
        <ele>326</ele>
        <time>2015-06-28T07:51:23.000Z</time>
      </trkpt>
      <trkpt lat="47.47107" lon="6.74371">
        <ele>326</ele>
        <time>2015-06-28T07:51:24.000Z</time>
      </trkpt>
      <trkpt lat="47.47104" lon="6.74372">
        <ele>327</ele>
        <time>2015-06-28T07:51:25.000Z</time>
      </trkpt>
      <trkpt lat="47.47102" lon="6.74374">
        <ele>327</ele>
        <time>2015-06-28T07:51:26.000Z</time>
      </trkpt>
      <trkpt lat="47.47099" lon="6.74374">
        <ele>327</ele>
        <time>2015-06-28T07:51:27.000Z</time>
      </trkpt>
      <trkpt lat="47.47097" lon="6.74375">
        <ele>327</ele>
        <time>2015-06-28T07:51:28.000Z</time>
      </trkpt>
      <trkpt lat="47.47093" lon="6.74375">
        <ele>327</ele>
        <time>2015-06-28T07:51:30.000Z</time>
      </trkpt>
      <trkpt lat="47.47091" lon="6.74375">
        <ele>327</ele>
        <time>2015-06-28T07:51:31.000Z</time>
      </trkpt>
      <trkpt lat="47.47087" lon="6.74376">
        <ele>327</ele>
        <time>2015-06-28T07:51:33.000Z</time>
      </trkpt>
      <trkpt lat="47.47085" lon="6.74377">
        <ele>327</ele>
        <time>2015-06-28T07:51:34.000Z</time>
      </trkpt>
      <trkpt lat="47.47081" lon="6.74377">
        <ele>334</ele>
        <time>2015-06-28T07:51:36.000Z</time>
      </trkpt>
      <trkpt lat="47.4708" lon="6.74378">
        <ele>334</ele>
        <time>2015-06-28T07:51:37.000Z</time>
      </trkpt>
      <trkpt lat="47.47076" lon="6.74378">
        <ele>334</ele>
        <time>2015-06-28T07:51:39.000Z</time>
      </trkpt>
      <trkpt lat="47.47074" lon="6.74379">
        <ele>334</ele>
        <time>2015-06-28T07:51:40.000Z</time>
      </trkpt>
      <trkpt lat="47.4707" lon="6.7438">
        <ele>335</ele>
        <time>2015-06-28T07:51:42.000Z</time>
      </trkpt>
      <trkpt lat="47.47068" lon="6.74381">
        <ele>335</ele>
        <time>2015-06-28T07:51:43.000Z</time>
      </trkpt>
      <trkpt lat="47.47064" lon="6.74384">
        <ele>335</ele>
        <time>2015-06-28T07:51:45.000Z</time>
      </trkpt>
      <trkpt lat="47.47062" lon="6.74385">
        <ele>335</ele>
        <time>2015-06-28T07:51:46.000Z</time>
      </trkpt>
      <trkpt lat="47.47058" lon="6.74387">
        <ele>336</ele>
        <time>2015-06-28T07:51:48.000Z</time>
      </trkpt>
      <trkpt lat="47.47056" lon="6.74388">
        <ele>336</ele>
        <time>2015-06-28T07:51:49.000Z</time>
      </trkpt>
      <trkpt lat="47.47053" lon="6.7439">
        <ele>336</ele>
        <time>2015-06-28T07:51:50.000Z</time>
      </trkpt>
      <trkpt lat="47.47051" lon="6.74391">
        <ele>336</ele>
        <time>2015-06-28T07:51:51.000Z</time>
      </trkpt>
      <trkpt lat="47.47048" lon="6.74393">
        <ele>337</ele>
        <time>2015-06-28T07:51:53.000Z</time>
      </trkpt>
      <trkpt lat="47.47046" lon="6.74395">
        <ele>337</ele>
        <time>2015-06-28T07:51:54.000Z</time>
      </trkpt>
      <trkpt lat="47.47042" lon="6.74399">
        <ele>337</ele>
        <time>2015-06-28T07:51:56.000Z</time>
      </trkpt>
      <trkpt lat="47.47042" lon="6.74401">
        <ele>338</ele>
        <time>2015-06-28T07:51:57.000Z</time>
      </trkpt>
      <trkpt lat="47.47041" lon="6.74406">
        <ele>338</ele>
        <time>2015-06-28T07:51:59.000Z</time>
      </trkpt>
      <trkpt lat="47.47041" lon="6.74408">
        <ele>338</ele>
        <time>2015-06-28T07:52:00.000Z</time>
      </trkpt>
      <trkpt lat="47.47039" lon="6.74412">
        <ele>338</ele>
        <time>2015-06-28T07:52:02.000Z</time>
      </trkpt>
      <trkpt lat="47.47038" lon="6.74413">
        <ele>338</ele>
        <time>2015-06-28T07:52:03.000Z</time>
      </trkpt>
      <trkpt lat="47.47035" lon="6.74417">
        <ele>342</ele>
        <time>2015-06-28T07:52:05.000Z</time>
      </trkpt>
      <trkpt lat="47.47033" lon="6.74419">
        <ele>342</ele>
        <time>2015-06-28T07:52:06.000Z</time>
      </trkpt>
      <trkpt lat="47.4703" lon="6.7442">
        <ele>342</ele>
        <time>2015-06-28T07:52:07.000Z</time>
      </trkpt>
      <trkpt lat="47.47028" lon="6.74422">
        <ele>342</ele>
        <time>2015-06-28T07:52:08.000Z</time>
      </trkpt>
      <trkpt lat="47.47026" lon="6.74423">
        <ele>343</ele>
        <time>2015-06-28T07:52:09.000Z</time>
      </trkpt>
      <trkpt lat="47.47024" lon="6.74425">
        <ele>343</ele>
        <time>2015-06-28T07:52:10.000Z</time>
      </trkpt>
      <trkpt lat="47.47022" lon="6.74427">
        <ele>343</ele>
        <time>2015-06-28T07:52:11.000Z</time>
      </trkpt>
      <trkpt lat="47.4702" lon="6.74429">
        <ele>343</ele>
        <time>2015-06-28T07:52:12.000Z</time>
      </trkpt>
      <trkpt lat="47.47017" lon="6.74432">
        <ele>343</ele>
        <time>2015-06-28T07:52:14.000Z</time>
      </trkpt>
      <trkpt lat="47.47016" lon="6.74434">
        <ele>343</ele>
        <time>2015-06-28T07:52:15.000Z</time>
      </trkpt>
      <trkpt lat="47.47013" lon="6.74438">
        <ele>343</ele>
        <time>2015-06-28T07:52:17.000Z</time>
      </trkpt>
      <trkpt lat="47.47012" lon="6.7444">
        <ele>343</ele>
        <time>2015-06-28T07:52:18.000Z</time>
      </trkpt>
      <trkpt lat="47.47011" lon="6.74444">
        <ele>343</ele>
        <time>2015-06-28T07:52:20.000Z</time>
      </trkpt>
      <trkpt lat="47.4701" lon="6.74447">
        <ele>343</ele>
        <time>2015-06-28T07:52:21.000Z</time>
      </trkpt>
      <trkpt lat="47.47008" lon="6.74452">
        <ele>343</ele>
        <time>2015-06-28T07:52:23.000Z</time>
      </trkpt>
      <trkpt lat="47.47007" lon="6.74455">
        <ele>343</ele>
        <time>2015-06-28T07:52:24.000Z</time>
      </trkpt>
      <trkpt lat="47.47005" lon="6.74461">
        <ele>343</ele>
        <time>2015-06-28T07:52:26.000Z</time>
      </trkpt>
      <trkpt lat="47.47004" lon="6.74464">
        <ele>343</ele>
        <time>2015-06-28T07:52:27.000Z</time>
      </trkpt>
      <trkpt lat="47.47002" lon="6.74468">
        <ele>344</ele>
        <time>2015-06-28T07:52:29.000Z</time>
      </trkpt>
      <trkpt lat="47.47001" lon="6.7447">
        <ele>344</ele>
        <time>2015-06-28T07:52:30.000Z</time>
      </trkpt>
      <trkpt lat="47.46999" lon="6.74474">
        <ele>349</ele>
        <time>2015-06-28T07:52:32.000Z</time>
      </trkpt>
      <trkpt lat="47.46998" lon="6.74476">
        <ele>349</ele>
        <time>2015-06-28T07:52:33.000Z</time>
      </trkpt>
      <trkpt lat="47.46996" lon="6.7448">
        <ele>349</ele>
        <time>2015-06-28T07:52:36.000Z</time>
      </trkpt>
      <trkpt lat="47.46995" lon="6.74481">
        <ele>349</ele>
        <time>2015-06-28T07:52:37.000Z</time>
      </trkpt>
      <trkpt lat="47.46993" lon="6.74484">
        <ele>349</ele>
        <time>2015-06-28T07:52:39.000Z</time>
      </trkpt>
      <trkpt lat="47.46991" lon="6.74486">
        <ele>349</ele>
        <time>2015-06-28T07:52:40.000Z</time>
      </trkpt>
      <trkpt lat="47.46987" lon="6.74487">
        <ele>349</ele>
        <time>2015-06-28T07:52:42.000Z</time>
      </trkpt>
      <trkpt lat="47.46985" lon="6.74488">
        <ele>349</ele>
        <time>2015-06-28T07:52:43.000Z</time>
      </trkpt>
      <trkpt lat="47.46982" lon="6.74491">
        <ele>349</ele>
        <time>2015-06-28T07:52:45.000Z</time>
      </trkpt>
      <trkpt lat="47.46981" lon="6.74492">
        <ele>349</ele>
        <time>2015-06-28T07:52:46.000Z</time>
      </trkpt>
      <trkpt lat="47.46978" lon="6.74495">
        <ele>349</ele>
        <time>2015-06-28T07:52:48.000Z</time>
      </trkpt>
      <trkpt lat="47.46976" lon="6.74496">
        <ele>349</ele>
        <time>2015-06-28T07:52:49.000Z</time>
      </trkpt>
      <trkpt lat="47.46973" lon="6.74499">
        <ele>350</ele>
        <time>2015-06-28T07:52:52.000Z</time>
      </trkpt>
      <trkpt lat="47.46971" lon="6.745">
        <ele>350</ele>
        <time>2015-06-28T07:52:53.000Z</time>
      </trkpt>
      <trkpt lat="47.46968" lon="6.74502">
        <ele>348</ele>
        <time>2015-06-28T07:52:55.000Z</time>
      </trkpt>
      <trkpt lat="47.46966" lon="6.74503">
        <ele>348</ele>
        <time>2015-06-28T07:52:56.000Z</time>
      </trkpt>
      <trkpt lat="47.46963" lon="6.74505">
        <ele>348</ele>
        <time>2015-06-28T07:52:58.000Z</time>
      </trkpt>
      <trkpt lat="47.46962" lon="6.74505">
        <ele>348</ele>
        <time>2015-06-28T07:52:59.000Z</time>
      </trkpt>
      <trkpt lat="47.46958" lon="6.74505">
        <ele>348</ele>
        <time>2015-06-28T07:53:02.000Z</time>
      </trkpt>
      <trkpt lat="47.46956" lon="6.74505">
        <ele>348</ele>
        <time>2015-06-28T07:53:03.000Z</time>
      </trkpt>
      <trkpt lat="47.46953" lon="6.74507">
        <ele>348</ele>
        <time>2015-06-28T07:53:04.000Z</time>
      </trkpt>
      <trkpt lat="47.4695" lon="6.74509">
        <ele>349</ele>
        <time>2015-06-28T07:53:05.000Z</time>
      </trkpt>
      <trkpt lat="47.46947" lon="6.74512">
        <ele>349</ele>
        <time>2015-06-28T07:53:06.000Z</time>
      </trkpt>
      <trkpt lat="47.46945" lon="6.74514">
        <ele>349</ele>
        <time>2015-06-28T07:53:07.000Z</time>
      </trkpt>
      <trkpt lat="47.46943" lon="6.74516">
        <ele>349</ele>
        <time>2015-06-28T07:53:08.000Z</time>
      </trkpt>
      <trkpt lat="47.46941" lon="6.74519">
        <ele>349</ele>
        <time>2015-06-28T07:53:09.000Z</time>
      </trkpt>
      <trkpt lat="47.46939" lon="6.7452">
        <ele>349</ele>
        <time>2015-06-28T07:53:10.000Z</time>
      </trkpt>
      <trkpt lat="47.46936" lon="6.74521">
        <ele>349</ele>
        <time>2015-06-28T07:53:11.000Z</time>
      </trkpt>
      <trkpt lat="47.46933" lon="6.74518">
        <ele>349</ele>
        <time>2015-06-28T07:53:14.000Z</time>
      </trkpt>
      <trkpt lat="47.46932" lon="6.74516">
        <ele>349</ele>
        <time>2015-06-28T07:53:15.000Z</time>
      </trkpt>
      <trkpt lat="47.4693" lon="6.7451">
        <ele>350</ele>
        <time>2015-06-28T07:53:17.000Z</time>
      </trkpt>
      <trkpt lat="47.46929" lon="6.74508">
        <ele>350</ele>
        <time>2015-06-28T07:53:18.000Z</time>
      </trkpt>
      <trkpt lat="47.46927" lon="6.74503">
        <ele>350</ele>
        <time>2015-06-28T07:53:20.000Z</time>
      </trkpt>
      <trkpt lat="47.46926" lon="6.745">
        <ele>351</ele>
        <time>2015-06-28T07:53:21.000Z</time>
      </trkpt>
      <trkpt lat="47.46925" lon="6.74497">
        <ele>352</ele>
        <time>2015-06-28T07:53:22.000Z</time>
      </trkpt>
      <trkpt lat="47.46924" lon="6.74494">
        <ele>352</ele>
        <time>2015-06-28T07:53:23.000Z</time>
      </trkpt>
      <trkpt lat="47.46922" lon="6.74488">
        <ele>352</ele>
        <time>2015-06-28T07:53:25.000Z</time>
      </trkpt>
      <trkpt lat="47.46921" lon="6.74486">
        <ele>352</ele>
        <time>2015-06-28T07:53:26.000Z</time>
      </trkpt>
      <trkpt lat="47.46919" lon="6.74481">
        <ele>352</ele>
        <time>2015-06-28T07:53:28.000Z</time>
      </trkpt>
      <trkpt lat="47.46918" lon="6.74478">
        <ele>352</ele>
        <time>2015-06-28T07:53:29.000Z</time>
      </trkpt>
      <trkpt lat="47.46915" lon="6.74473">
        <ele>360</ele>
        <time>2015-06-28T07:53:31.000Z</time>
      </trkpt>
      <trkpt lat="47.46914" lon="6.74471">
        <ele>360</ele>
        <time>2015-06-28T07:53:32.000Z</time>
      </trkpt>
      <trkpt lat="47.46912" lon="6.74466">
        <ele>361</ele>
        <time>2015-06-28T07:53:35.000Z</time>
      </trkpt>
      <trkpt lat="47.4691" lon="6.74464">
        <ele>361</ele>
        <time>2015-06-28T07:53:36.000Z</time>
      </trkpt>
      <trkpt lat="47.46907" lon="6.74459">
        <ele>362</ele>
        <time>2015-06-28T07:53:38.000Z</time>
      </trkpt>
      <trkpt lat="47.46906" lon="6.74456">
        <ele>362</ele>
        <time>2015-06-28T07:53:39.000Z</time>
      </trkpt>
      <trkpt lat="47.46905" lon="6.7445">
        <ele>362</ele>
        <time>2015-06-28T07:53:41.000Z</time>
      </trkpt>
      <trkpt lat="47.46905" lon="6.74448">
        <ele>362</ele>
        <time>2015-06-28T07:53:42.000Z</time>
      </trkpt>
      <trkpt lat="47.46905" lon="6.74442">
        <ele>362</ele>
        <time>2015-06-28T07:53:44.000Z</time>
      </trkpt>
      <trkpt lat="47.46905" lon="6.7444">
        <ele>362</ele>
        <time>2015-06-28T07:53:45.000Z</time>
      </trkpt>
      <trkpt lat="47.46904" lon="6.74435">
        <ele>362</ele>
        <time>2015-06-28T07:53:47.000Z</time>
      </trkpt>
      <trkpt lat="47.46904" lon="6.74433">
        <ele>362</ele>
        <time>2015-06-28T07:53:48.000Z</time>
      </trkpt>
      <trkpt lat="47.46902" lon="6.74427">
        <ele>362</ele>
        <time>2015-06-28T07:53:51.000Z</time>
      </trkpt>
      <trkpt lat="47.46902" lon="6.74425">
        <ele>362</ele>
        <time>2015-06-28T07:53:52.000Z</time>
      </trkpt>
      <trkpt lat="47.469" lon="6.74421">
        <ele>362</ele>
        <time>2015-06-28T07:53:54.000Z</time>
      </trkpt>
      <trkpt lat="47.46899" lon="6.74419">
        <ele>362</ele>
        <time>2015-06-28T07:53:55.000Z</time>
      </trkpt>
      <trkpt lat="47.46898" lon="6.74414">
        <ele>367</ele>
        <time>2015-06-28T07:53:57.000Z</time>
      </trkpt>
      <trkpt lat="47.46897" lon="6.74412">
        <ele>367</ele>
        <time>2015-06-28T07:53:58.000Z</time>
      </trkpt>
      <trkpt lat="47.46895" lon="6.74408">
        <ele>368</ele>
        <time>2015-06-28T07:54:00.000Z</time>
      </trkpt>
      <trkpt lat="47.46895" lon="6.74405">
        <ele>369</ele>
        <time>2015-06-28T07:54:01.000Z</time>
      </trkpt>
      <trkpt lat="47.46894" lon="6.744">
        <ele>369</ele>
        <time>2015-06-28T07:54:03.000Z</time>
      </trkpt>
      <trkpt lat="47.46894" lon="6.74398">
        <ele>370</ele>
        <time>2015-06-28T07:54:04.000Z</time>
      </trkpt>
      <trkpt lat="47.46892" lon="6.74393">
        <ele>371</ele>
        <time>2015-06-28T07:54:07.000Z</time>
      </trkpt>
      <trkpt lat="47.46892" lon="6.74392">
        <ele>371</ele>
        <time>2015-06-28T07:54:08.000Z</time>
      </trkpt>
      <trkpt lat="47.46889" lon="6.74387">
        <ele>372</ele>
        <time>2015-06-28T07:54:10.000Z</time>
      </trkpt>
      <trkpt lat="47.46887" lon="6.74386">
        <ele>372</ele>
        <time>2015-06-28T07:54:11.000Z</time>
      </trkpt>
      <trkpt lat="47.46884" lon="6.74382">
        <ele>373</ele>
        <time>2015-06-28T07:54:14.000Z</time>
      </trkpt>
      <trkpt lat="47.46883" lon="6.7438">
        <ele>374</ele>
        <time>2015-06-28T07:54:15.000Z</time>
      </trkpt>
      <trkpt lat="47.46882" lon="6.74376">
        <ele>374</ele>
        <time>2015-06-28T07:54:17.000Z</time>
      </trkpt>
      <trkpt lat="47.46882" lon="6.74374">
        <ele>374</ele>
        <time>2015-06-28T07:54:18.000Z</time>
      </trkpt>
      <trkpt lat="47.46882" lon="6.74369">
        <ele>375</ele>
        <time>2015-06-28T07:54:20.000Z</time>
      </trkpt>
      <trkpt lat="47.46882" lon="6.74367">
        <ele>375</ele>
        <time>2015-06-28T07:54:21.000Z</time>
      </trkpt>
      <trkpt lat="47.46883" lon="6.74362">
        <ele>375</ele>
        <time>2015-06-28T07:54:23.000Z</time>
      </trkpt>
      <trkpt lat="47.46883" lon="6.7436">
        <ele>375</ele>
        <time>2015-06-28T07:54:24.000Z</time>
      </trkpt>
      <trkpt lat="47.46884" lon="6.74355">
        <ele>375</ele>
        <time>2015-06-28T07:54:27.000Z</time>
      </trkpt>
      <trkpt lat="47.46885" lon="6.74353">
        <ele>375</ele>
        <time>2015-06-28T07:54:28.000Z</time>
      </trkpt>
      <trkpt lat="47.46887" lon="6.7435">
        <ele>374</ele>
        <time>2015-06-28T07:54:30.000Z</time>
      </trkpt>
      <trkpt lat="47.46887" lon="6.74348">
        <ele>374</ele>
        <time>2015-06-28T07:54:31.000Z</time>
      </trkpt>
      <trkpt lat="47.46887" lon="6.74342">
        <ele>374</ele>
        <time>2015-06-28T07:54:33.000Z</time>
      </trkpt>
      <trkpt lat="47.46887" lon="6.7434">
        <ele>374</ele>
        <time>2015-06-28T07:54:34.000Z</time>
      </trkpt>
      <trkpt lat="47.46887" lon="6.74333">
        <ele>380</ele>
        <time>2015-06-28T07:54:37.000Z</time>
      </trkpt>
      <trkpt lat="47.46887" lon="6.74332">
        <ele>380</ele>
        <time>2015-06-28T07:54:38.000Z</time>
      </trkpt>
      <trkpt lat="47.46886" lon="6.74326">
        <ele>381</ele>
        <time>2015-06-28T07:54:43.000Z</time>
      </trkpt>
      <trkpt lat="47.46886" lon="6.74325">
        <ele>381</ele>
        <time>2015-06-28T07:54:44.000Z</time>
      </trkpt>
      <trkpt lat="47.46889" lon="6.7432">
        <ele>380</ele>
        <time>2015-06-28T07:54:47.000Z</time>
      </trkpt>
      <trkpt lat="47.46889" lon="6.74318">
        <ele>380</ele>
        <time>2015-06-28T07:54:48.000Z</time>
      </trkpt>
      <trkpt lat="47.4689" lon="6.74313">
        <ele>381</ele>
        <time>2015-06-28T07:54:50.000Z</time>
      </trkpt>
      <trkpt lat="47.46891" lon="6.74311">
        <ele>381</ele>
        <time>2015-06-28T07:54:51.000Z</time>
      </trkpt>
      <trkpt lat="47.46893" lon="6.74307">
        <ele>381</ele>
        <time>2015-06-28T07:54:53.000Z</time>
      </trkpt>
      <trkpt lat="47.46894" lon="6.74305">
        <ele>381</ele>
        <time>2015-06-28T07:54:54.000Z</time>
      </trkpt>
      <trkpt lat="47.46895" lon="6.74299">
        <ele>381</ele>
        <time>2015-06-28T07:54:57.000Z</time>
      </trkpt>
      <trkpt lat="47.46895" lon="6.74297">
        <ele>381</ele>
        <time>2015-06-28T07:54:58.000Z</time>
      </trkpt>
      <trkpt lat="47.46894" lon="6.74291">
        <ele>382</ele>
        <time>2015-06-28T07:55:01.000Z</time>
      </trkpt>
      <trkpt lat="47.46895" lon="6.74289">
        <ele>382</ele>
        <time>2015-06-28T07:55:02.000Z</time>
      </trkpt>
      <trkpt lat="47.46896" lon="6.74284">
        <ele>382</ele>
        <time>2015-06-28T07:55:04.000Z</time>
      </trkpt>
      <trkpt lat="47.46897" lon="6.74281">
        <ele>382</ele>
        <time>2015-06-28T07:55:05.000Z</time>
      </trkpt>
      <trkpt lat="47.46898" lon="6.74275">
        <ele>382</ele>
        <time>2015-06-28T07:55:08.000Z</time>
      </trkpt>
      <trkpt lat="47.46899" lon="6.74273">
        <ele>382</ele>
        <time>2015-06-28T07:55:09.000Z</time>
      </trkpt>
      <trkpt lat="47.46899" lon="6.74267">
        <ele>381</ele>
        <time>2015-06-28T07:55:11.000Z</time>
      </trkpt>
      <trkpt lat="47.46899" lon="6.74264">
        <ele>381</ele>
        <time>2015-06-28T07:55:12.000Z</time>
      </trkpt>
      <trkpt lat="47.46899" lon="6.7426">
        <ele>381</ele>
        <time>2015-06-28T07:55:14.000Z</time>
      </trkpt>
      <trkpt lat="47.46899" lon="6.74257">
        <ele>381</ele>
        <time>2015-06-28T07:55:15.000Z</time>
      </trkpt>
      <trkpt lat="47.46899" lon="6.74252">
        <ele>381</ele>
        <time>2015-06-28T07:55:17.000Z</time>
      </trkpt>
      <trkpt lat="47.46898" lon="6.74249">
        <ele>384</ele>
        <time>2015-06-28T07:55:18.000Z</time>
      </trkpt>
      <trkpt lat="47.46898" lon="6.74244">
        <ele>384</ele>
        <time>2015-06-28T07:55:20.000Z</time>
      </trkpt>
      <trkpt lat="47.46898" lon="6.74242">
        <ele>384</ele>
        <time>2015-06-28T07:55:21.000Z</time>
      </trkpt>
      <trkpt lat="47.46898" lon="6.74236">
        <ele>385</ele>
        <time>2015-06-28T07:55:23.000Z</time>
      </trkpt>
      <trkpt lat="47.46899" lon="6.74234">
        <ele>385</ele>
        <time>2015-06-28T07:55:24.000Z</time>
      </trkpt>
      <trkpt lat="47.469" lon="6.74228">
        <ele>386</ele>
        <time>2015-06-28T07:55:26.000Z</time>
      </trkpt>
      <trkpt lat="47.46899" lon="6.74226">
        <ele>386</ele>
        <time>2015-06-28T07:55:27.000Z</time>
      </trkpt>
      <trkpt lat="47.46897" lon="6.74221">
        <ele>387</ele>
        <time>2015-06-28T07:55:29.000Z</time>
      </trkpt>
      <trkpt lat="47.46896" lon="6.74219">
        <ele>387</ele>
        <time>2015-06-28T07:55:30.000Z</time>
      </trkpt>
      <trkpt lat="47.46895" lon="6.74212">
        <ele>388</ele>
        <time>2015-06-28T07:55:33.000Z</time>
      </trkpt>
      <trkpt lat="47.46895" lon="6.74211">
        <ele>388</ele>
        <time>2015-06-28T07:55:34.000Z</time>
      </trkpt>
      <trkpt lat="47.46894" lon="6.74206">
        <ele>388</ele>
        <time>2015-06-28T07:55:36.000Z</time>
      </trkpt>
      <trkpt lat="47.46894" lon="6.74204">
        <ele>388</ele>
        <time>2015-06-28T07:55:37.000Z</time>
      </trkpt>
      <trkpt lat="47.46894" lon="6.74199">
        <ele>389</ele>
        <time>2015-06-28T07:55:39.000Z</time>
      </trkpt>
      <trkpt lat="47.46894" lon="6.74196">
        <ele>389</ele>
        <time>2015-06-28T07:55:40.000Z</time>
      </trkpt>
      <trkpt lat="47.46895" lon="6.74191">
        <ele>388</ele>
        <time>2015-06-28T07:55:42.000Z</time>
      </trkpt>
      <trkpt lat="47.46895" lon="6.74188">
        <ele>388</ele>
        <time>2015-06-28T07:55:43.000Z</time>
      </trkpt>
      <trkpt lat="47.46896" lon="6.74183">
        <ele>388</ele>
        <time>2015-06-28T07:55:45.000Z</time>
      </trkpt>
      <trkpt lat="47.46896" lon="6.7418">
        <ele>388</ele>
        <time>2015-06-28T07:55:46.000Z</time>
      </trkpt>
      <trkpt lat="47.46897" lon="6.74174">
        <ele>387</ele>
        <time>2015-06-28T07:55:48.000Z</time>
      </trkpt>
      <trkpt lat="47.46897" lon="6.7417">
        <ele>387</ele>
        <time>2015-06-28T07:55:49.000Z</time>
      </trkpt>
      <trkpt lat="47.46897" lon="6.74164">
        <ele>389</ele>
        <time>2015-06-28T07:55:51.000Z</time>
      </trkpt>
      <trkpt lat="47.46898" lon="6.74162">
        <ele>389</ele>
        <time>2015-06-28T07:55:52.000Z</time>
      </trkpt>
      <trkpt lat="47.46899" lon="6.74157">
        <ele>389</ele>
        <time>2015-06-28T07:55:54.000Z</time>
      </trkpt>
      <trkpt lat="47.469" lon="6.74155">
        <ele>389</ele>
        <time>2015-06-28T07:55:55.000Z</time>
      </trkpt>
      <trkpt lat="47.469" lon="6.74149">
        <ele>390</ele>
        <time>2015-06-28T07:55:57.000Z</time>
      </trkpt>
      <trkpt lat="47.469" lon="6.74147">
        <ele>390</ele>
        <time>2015-06-28T07:55:58.000Z</time>
      </trkpt>
      <trkpt lat="47.469" lon="6.74142">
        <ele>390</ele>
        <time>2015-06-28T07:56:00.000Z</time>
      </trkpt>
      <trkpt lat="47.469" lon="6.7414">
        <ele>391</ele>
        <time>2015-06-28T07:56:01.000Z</time>
      </trkpt>
      <trkpt lat="47.46899" lon="6.74136">
        <ele>391</ele>
        <time>2015-06-28T07:56:02.000Z</time>
      </trkpt>
      <trkpt lat="47.46899" lon="6.74133">
        <ele>391</ele>
        <time>2015-06-28T07:56:03.000Z</time>
      </trkpt>
      <trkpt lat="47.46898" lon="6.7413">
        <ele>391</ele>
        <time>2015-06-28T07:56:04.000Z</time>
      </trkpt>
      <trkpt lat="47.46897" lon="6.74127">
        <ele>392</ele>
        <time>2015-06-28T07:56:05.000Z</time>
      </trkpt>
      <trkpt lat="47.46896" lon="6.74121">
        <ele>392</ele>
        <time>2015-06-28T07:56:07.000Z</time>
      </trkpt>
      <trkpt lat="47.46896" lon="6.74118">
        <ele>392</ele>
        <time>2015-06-28T07:56:08.000Z</time>
      </trkpt>
      <trkpt lat="47.46895" lon="6.74112">
        <ele>392</ele>
        <time>2015-06-28T07:56:10.000Z</time>
      </trkpt>
      <trkpt lat="47.46895" lon="6.74108">
        <ele>392</ele>
        <time>2015-06-28T07:56:11.000Z</time>
      </trkpt>
      <trkpt lat="47.46895" lon="6.74102">
        <ele>392</ele>
        <time>2015-06-28T07:56:13.000Z</time>
      </trkpt>
      <trkpt lat="47.46895" lon="6.74099">
        <ele>392</ele>
        <time>2015-06-28T07:56:14.000Z</time>
      </trkpt>
      <trkpt lat="47.46895" lon="6.74094">
        <ele>391</ele>
        <time>2015-06-28T07:56:16.000Z</time>
      </trkpt>
      <trkpt lat="47.46895" lon="6.74092">
        <ele>391</ele>
        <time>2015-06-28T07:56:17.000Z</time>
      </trkpt>
      <trkpt lat="47.46894" lon="6.74086">
        <ele>391</ele>
        <time>2015-06-28T07:56:19.000Z</time>
      </trkpt>
      <trkpt lat="47.46894" lon="6.74083">
        <ele>392</ele>
        <time>2015-06-28T07:56:20.000Z</time>
      </trkpt>
      <trkpt lat="47.46893" lon="6.74076">
        <ele>392</ele>
        <time>2015-06-28T07:56:22.000Z</time>
      </trkpt>
      <trkpt lat="47.46893" lon="6.74073">
        <ele>392</ele>
        <time>2015-06-28T07:56:23.000Z</time>
      </trkpt>
      <trkpt lat="47.46893" lon="6.74069">
        <ele>392</ele>
        <time>2015-06-28T07:56:24.000Z</time>
      </trkpt>
      <trkpt lat="47.46893" lon="6.74066">
        <ele>393</ele>
        <time>2015-06-28T07:56:25.000Z</time>
      </trkpt>
      <trkpt lat="47.46892" lon="6.74059">
        <ele>393</ele>
        <time>2015-06-28T07:56:27.000Z</time>
      </trkpt>
      <trkpt lat="47.46892" lon="6.74057">
        <ele>393</ele>
        <time>2015-06-28T07:56:28.000Z</time>
      </trkpt>
      <trkpt lat="47.46893" lon="6.74052">
        <ele>393</ele>
        <time>2015-06-28T07:56:30.000Z</time>
      </trkpt>
      <trkpt lat="47.46893" lon="6.74049">
        <ele>393</ele>
        <time>2015-06-28T07:56:31.000Z</time>
      </trkpt>
      <trkpt lat="47.46893" lon="6.74044">
        <ele>393</ele>
        <time>2015-06-28T07:56:33.000Z</time>
      </trkpt>
      <trkpt lat="47.46893" lon="6.74041">
        <ele>393</ele>
        <time>2015-06-28T07:56:34.000Z</time>
      </trkpt>
      <trkpt lat="47.46893" lon="6.74036">
        <ele>393</ele>
        <time>2015-06-28T07:56:36.000Z</time>
      </trkpt>
      <trkpt lat="47.46893" lon="6.74034">
        <ele>393</ele>
        <time>2015-06-28T07:56:37.000Z</time>
      </trkpt>
      <trkpt lat="47.46892" lon="6.7403">
        <ele>393</ele>
        <time>2015-06-28T07:56:39.000Z</time>
      </trkpt>
      <trkpt lat="47.46891" lon="6.74027">
        <ele>393</ele>
        <time>2015-06-28T07:56:40.000Z</time>
      </trkpt>
      <trkpt lat="47.4689" lon="6.74021">
        <ele>393</ele>
        <time>2015-06-28T07:56:42.000Z</time>
      </trkpt>
      <trkpt lat="47.46889" lon="6.74018">
        <ele>393</ele>
        <time>2015-06-28T07:56:43.000Z</time>
      </trkpt>
      <trkpt lat="47.46888" lon="6.74014">
        <ele>393</ele>
        <time>2015-06-28T07:56:44.000Z</time>
      </trkpt>
      <trkpt lat="47.46887" lon="6.74011">
        <ele>393</ele>
        <time>2015-06-28T07:56:45.000Z</time>
      </trkpt>
      <trkpt lat="47.46886" lon="6.74008">
        <ele>393</ele>
        <time>2015-06-28T07:56:46.000Z</time>
      </trkpt>
      <trkpt lat="47.46885" lon="6.74004">
        <ele>393</ele>
        <time>2015-06-28T07:56:47.000Z</time>
      </trkpt>
      <trkpt lat="47.46884" lon="6.74001">
        <ele>393</ele>
        <time>2015-06-28T07:56:48.000Z</time>
      </trkpt>
      <trkpt lat="47.46884" lon="6.73998">
        <ele>394</ele>
        <time>2015-06-28T07:56:49.000Z</time>
      </trkpt>
      <trkpt lat="47.46883" lon="6.73994">
        <ele>394</ele>
        <time>2015-06-28T07:56:50.000Z</time>
      </trkpt>
      <trkpt lat="47.46882" lon="6.73991">
        <ele>394</ele>
        <time>2015-06-28T07:56:51.000Z</time>
      </trkpt>
      <trkpt lat="47.46881" lon="6.73984">
        <ele>395</ele>
        <time>2015-06-28T07:56:53.000Z</time>
      </trkpt>
      <trkpt lat="47.4688" lon="6.73982">
        <ele>395</ele>
        <time>2015-06-28T07:56:54.000Z</time>
      </trkpt>
      <trkpt lat="47.46878" lon="6.73976">
        <ele>395</ele>
        <time>2015-06-28T07:56:56.000Z</time>
      </trkpt>
      <trkpt lat="47.46878" lon="6.73974">
        <ele>395</ele>
        <time>2015-06-28T07:56:57.000Z</time>
      </trkpt>
      <trkpt lat="47.46876" lon="6.73969">
        <ele>395</ele>
        <time>2015-06-28T07:56:59.000Z</time>
      </trkpt>
      <trkpt lat="47.46875" lon="6.73968">
        <ele>395</ele>
        <time>2015-06-28T07:57:00.000Z</time>
      </trkpt>
      <trkpt lat="47.46873" lon="6.73963">
        <ele>396</ele>
        <time>2015-06-28T07:57:02.000Z</time>
      </trkpt>
      <trkpt lat="47.46872" lon="6.73961">
        <ele>396</ele>
        <time>2015-06-28T07:57:03.000Z</time>
      </trkpt>
      <trkpt lat="47.46871" lon="6.73957">
        <ele>396</ele>
        <time>2015-06-28T07:57:05.000Z</time>
      </trkpt>
      <trkpt lat="47.4687" lon="6.73955">
        <ele>396</ele>
        <time>2015-06-28T07:57:06.000Z</time>
      </trkpt>
      <trkpt lat="47.46868" lon="6.7395">
        <ele>396</ele>
        <time>2015-06-28T07:57:08.000Z</time>
      </trkpt>
      <trkpt lat="47.46868" lon="6.73948">
        <ele>396</ele>
        <time>2015-06-28T07:57:09.000Z</time>
      </trkpt>
      <trkpt lat="47.46866" lon="6.73943">
        <ele>396</ele>
        <time>2015-06-28T07:57:11.000Z</time>
      </trkpt>
      <trkpt lat="47.46865" lon="6.73941">
        <ele>396</ele>
        <time>2015-06-28T07:57:12.000Z</time>
      </trkpt>
      <trkpt lat="47.46863" lon="6.73936">
        <ele>397</ele>
        <time>2015-06-28T07:57:14.000Z</time>
      </trkpt>
      <trkpt lat="47.46862" lon="6.73933">
        <ele>397</ele>
        <time>2015-06-28T07:57:15.000Z</time>
      </trkpt>
      <trkpt lat="47.4686" lon="6.73928">
        <ele>397</ele>
        <time>2015-06-28T07:57:17.000Z</time>
      </trkpt>
      <trkpt lat="47.46859" lon="6.73925">
        <ele>397</ele>
        <time>2015-06-28T07:57:18.000Z</time>
      </trkpt>
      <trkpt lat="47.46856" lon="6.7392">
        <ele>398</ele>
        <time>2015-06-28T07:57:20.000Z</time>
      </trkpt>
      <trkpt lat="47.46855" lon="6.73917">
        <ele>398</ele>
        <time>2015-06-28T07:57:21.000Z</time>
      </trkpt>
      <trkpt lat="47.46853" lon="6.73912">
        <ele>399</ele>
        <time>2015-06-28T07:57:23.000Z</time>
      </trkpt>
      <trkpt lat="47.46852" lon="6.73909">
        <ele>400</ele>
        <time>2015-06-28T07:57:24.000Z</time>
      </trkpt>
      <trkpt lat="47.4685" lon="6.73906">
        <ele>400</ele>
        <time>2015-06-28T07:57:25.000Z</time>
      </trkpt>
      <trkpt lat="47.4685" lon="6.73902">
        <ele>400</ele>
        <time>2015-06-28T07:57:26.000Z</time>
      </trkpt>
      <trkpt lat="47.46849" lon="6.73898">
        <ele>400</ele>
        <time>2015-06-28T07:57:27.000Z</time>
      </trkpt>
      <trkpt lat="47.46848" lon="6.73895">
        <ele>400</ele>
        <time>2015-06-28T07:57:28.000Z</time>
      </trkpt>
      <trkpt lat="47.46848" lon="6.73891">
        <ele>400</ele>
        <time>2015-06-28T07:57:29.000Z</time>
      </trkpt>
      <trkpt lat="47.46848" lon="6.73887">
        <ele>400</ele>
        <time>2015-06-28T07:57:30.000Z</time>
      </trkpt>
      <trkpt lat="47.46848" lon="6.73883">
        <ele>400</ele>
        <time>2015-06-28T07:57:31.000Z</time>
      </trkpt>
      <trkpt lat="47.46848" lon="6.7388">
        <ele>400</ele>
        <time>2015-06-28T07:57:32.000Z</time>
      </trkpt>
      <trkpt lat="47.46848" lon="6.73874">
        <ele>400</ele>
        <time>2015-06-28T07:57:34.000Z</time>
      </trkpt>
      <trkpt lat="47.46848" lon="6.73871">
        <ele>400</ele>
        <time>2015-06-28T07:57:35.000Z</time>
      </trkpt>
      <trkpt lat="47.46848" lon="6.73866">
        <ele>400</ele>
        <time>2015-06-28T07:57:37.000Z</time>
      </trkpt>
      <trkpt lat="47.46848" lon="6.73863">
        <ele>400</ele>
        <time>2015-06-28T07:57:38.000Z</time>
      </trkpt>
      <trkpt lat="47.46847" lon="6.73858">
        <ele>401</ele>
        <time>2015-06-28T07:57:40.000Z</time>
      </trkpt>
      <trkpt lat="47.46846" lon="6.73856">
        <ele>401</ele>
        <time>2015-06-28T07:57:41.000Z</time>
      </trkpt>
      <trkpt lat="47.46843" lon="6.73851">
        <ele>401</ele>
        <time>2015-06-28T07:57:44.000Z</time>
      </trkpt>
      <trkpt lat="47.46843" lon="6.7385">
        <ele>402</ele>
        <time>2015-06-28T07:57:45.000Z</time>
      </trkpt>
      <trkpt lat="47.46839" lon="6.73846">
        <ele>402</ele>
        <time>2015-06-28T07:57:49.000Z</time>
      </trkpt>
      <trkpt lat="47.46839" lon="6.73846">
        <ele>402</ele>
        <time>2015-06-28T07:57:50.000Z</time>
      </trkpt>
      <trkpt lat="47.46835" lon="6.73844">
        <ele>403</ele>
        <time>2015-06-28T07:58:47.000Z</time>
      </trkpt>
      <trkpt lat="47.46835" lon="6.73842">
        <ele>403</ele>
        <time>2015-06-28T07:58:48.000Z</time>
      </trkpt>
      <trkpt lat="47.46835" lon="6.73838">
        <ele>404</ele>
        <time>2015-06-28T07:58:49.000Z</time>
      </trkpt>
      <trkpt lat="47.46835" lon="6.73835">
        <ele>404</ele>
        <time>2015-06-28T07:58:50.000Z</time>
      </trkpt>
      <trkpt lat="47.46835" lon="6.73831">
        <ele>404</ele>
        <time>2015-06-28T07:58:51.000Z</time>
      </trkpt>
      <trkpt lat="47.46835" lon="6.73827">
        <ele>404</ele>
        <time>2015-06-28T07:58:52.000Z</time>
      </trkpt>
      <trkpt lat="47.46835" lon="6.73823">
        <ele>403</ele>
        <time>2015-06-28T07:58:53.000Z</time>
      </trkpt>
      <trkpt lat="47.46834" lon="6.73818">
        <ele>402</ele>
        <time>2015-06-28T07:58:54.000Z</time>
      </trkpt>
      <trkpt lat="47.46834" lon="6.73813">
        <ele>402</ele>
        <time>2015-06-28T07:58:55.000Z</time>
      </trkpt>
      <trkpt lat="47.46833" lon="6.73808">
        <ele>402</ele>
        <time>2015-06-28T07:58:56.000Z</time>
      </trkpt>
      <trkpt lat="47.46833" lon="6.73802">
        <ele>402</ele>
        <time>2015-06-28T07:58:57.000Z</time>
      </trkpt>
      <trkpt lat="47.46832" lon="6.73798">
        <ele>402</ele>
        <time>2015-06-28T07:58:58.000Z</time>
      </trkpt>
      <trkpt lat="47.4683" lon="6.73794">
        <ele>402</ele>
        <time>2015-06-28T07:58:59.000Z</time>
      </trkpt>
      <trkpt lat="47.46828" lon="6.73791">
        <ele>402</ele>
        <time>2015-06-28T07:59:00.000Z</time>
      </trkpt>
      <trkpt lat="47.46826" lon="6.73789">
        <ele>401</ele>
        <time>2015-06-28T07:59:01.000Z</time>
      </trkpt>
      <trkpt lat="47.46823" lon="6.73786">
        <ele>401</ele>
        <time>2015-06-28T07:59:02.000Z</time>
      </trkpt>
      <trkpt lat="47.4682" lon="6.73784">
        <ele>401</ele>
        <time>2015-06-28T07:59:03.000Z</time>
      </trkpt>
      <trkpt lat="47.46817" lon="6.73783">
        <ele>401</ele>
        <time>2015-06-28T07:59:04.000Z</time>
      </trkpt>
      <trkpt lat="47.46813" lon="6.73782">
        <ele>401</ele>
        <time>2015-06-28T07:59:05.000Z</time>
      </trkpt>
      <trkpt lat="47.4681" lon="6.73782">
        <ele>401</ele>
        <time>2015-06-28T07:59:06.000Z</time>
      </trkpt>
      <trkpt lat="47.46807" lon="6.73782">
        <ele>401</ele>
        <time>2015-06-28T07:59:07.000Z</time>
      </trkpt>
      <trkpt lat="47.46804" lon="6.73782">
        <ele>401</ele>
        <time>2015-06-28T07:59:08.000Z</time>
      </trkpt>
      <trkpt lat="47.468" lon="6.73782">
        <ele>401</ele>
        <time>2015-06-28T07:59:09.000Z</time>
      </trkpt>
      <trkpt lat="47.46796" lon="6.73782">
        <ele>401</ele>
        <time>2015-06-28T07:59:10.000Z</time>
      </trkpt>
      <trkpt lat="47.46791" lon="6.73783">
        <ele>400</ele>
        <time>2015-06-28T07:59:11.000Z</time>
      </trkpt>
      <trkpt lat="47.46787" lon="6.73783">
        <ele>400</ele>
        <time>2015-06-28T07:59:12.000Z</time>
      </trkpt>
      <trkpt lat="47.46782" lon="6.73784">
        <ele>400</ele>
        <time>2015-06-28T07:59:13.000Z</time>
      </trkpt>
      <trkpt lat="47.46776" lon="6.73786">
        <ele>400</ele>
        <time>2015-06-28T07:59:14.000Z</time>
      </trkpt>
      <trkpt lat="47.46772" lon="6.73787">
        <ele>400</ele>
        <time>2015-06-28T07:59:15.000Z</time>
      </trkpt>
      <trkpt lat="47.46766" lon="6.73789">
        <ele>400</ele>
        <time>2015-06-28T07:59:16.000Z</time>
      </trkpt>
      <trkpt lat="47.46761" lon="6.73792">
        <ele>400</ele>
        <time>2015-06-28T07:59:17.000Z</time>
      </trkpt>
      <trkpt lat="47.46756" lon="6.73794">
        <ele>400</ele>
        <time>2015-06-28T07:59:18.000Z</time>
      </trkpt>
      <trkpt lat="47.46751" lon="6.73797">
        <ele>400</ele>
        <time>2015-06-28T07:59:19.000Z</time>
      </trkpt>
      <trkpt lat="47.46747" lon="6.73801">
        <ele>399</ele>
        <time>2015-06-28T07:59:20.000Z</time>
      </trkpt>
      <trkpt lat="47.46743" lon="6.73804">
        <ele>399</ele>
        <time>2015-06-28T07:59:21.000Z</time>
      </trkpt>
      <trkpt lat="47.46739" lon="6.73808">
        <ele>399</ele>
        <time>2015-06-28T07:59:22.000Z</time>
      </trkpt>
      <trkpt lat="47.46735" lon="6.73812">
        <ele>400</ele>
        <time>2015-06-28T07:59:23.000Z</time>
      </trkpt>
      <trkpt lat="47.46732" lon="6.73816">
        <ele>400</ele>
        <time>2015-06-28T07:59:24.000Z</time>
      </trkpt>
      <trkpt lat="47.46728" lon="6.7382">
        <ele>400</ele>
        <time>2015-06-28T07:59:25.000Z</time>
      </trkpt>
      <trkpt lat="47.46724" lon="6.73824">
        <ele>400</ele>
        <time>2015-06-28T07:59:26.000Z</time>
      </trkpt>
      <trkpt lat="47.4672" lon="6.73829">
        <ele>400</ele>
        <time>2015-06-28T07:59:27.000Z</time>
      </trkpt>
      <trkpt lat="47.46715" lon="6.73833">
        <ele>400</ele>
        <time>2015-06-28T07:59:28.000Z</time>
      </trkpt>
      <trkpt lat="47.4671" lon="6.73838">
        <ele>402</ele>
        <time>2015-06-28T07:59:29.000Z</time>
      </trkpt>
      <trkpt lat="47.46705" lon="6.73841">
        <ele>401</ele>
        <time>2015-06-28T07:59:30.000Z</time>
      </trkpt>
      <trkpt lat="47.467" lon="6.73843">
        <ele>401</ele>
        <time>2015-06-28T07:59:31.000Z</time>
      </trkpt>
      <trkpt lat="47.46695" lon="6.73842">
        <ele>401</ele>
        <time>2015-06-28T07:59:32.000Z</time>
      </trkpt>
      <trkpt lat="47.4669" lon="6.7384">
        <ele>401</ele>
        <time>2015-06-28T07:59:33.000Z</time>
      </trkpt>
      <trkpt lat="47.46686" lon="6.73838">
        <ele>401</ele>
        <time>2015-06-28T07:59:34.000Z</time>
      </trkpt>
      <trkpt lat="47.46683" lon="6.73835">
        <ele>401</ele>
        <time>2015-06-28T07:59:35.000Z</time>
      </trkpt>
      <trkpt lat="47.46681" lon="6.73829">
        <ele>400</ele>
        <time>2015-06-28T07:59:37.000Z</time>
      </trkpt>
      <trkpt lat="47.46681" lon="6.73826">
        <ele>400</ele>
        <time>2015-06-28T07:59:38.000Z</time>
      </trkpt>
      <trkpt lat="47.4668" lon="6.73821">
        <ele>400</ele>
        <time>2015-06-28T07:59:40.000Z</time>
      </trkpt>
      <trkpt lat="47.46679" lon="6.73818">
        <ele>400</ele>
        <time>2015-06-28T07:59:41.000Z</time>
      </trkpt>
      <trkpt lat="47.46678" lon="6.73813">
        <ele>399</ele>
        <time>2015-06-28T07:59:43.000Z</time>
      </trkpt>
      <trkpt lat="47.46677" lon="6.7381">
        <ele>399</ele>
        <time>2015-06-28T07:59:44.000Z</time>
      </trkpt>
      <trkpt lat="47.46676" lon="6.73807">
        <ele>399</ele>
        <time>2015-06-28T07:59:45.000Z</time>
      </trkpt>
      <trkpt lat="47.46675" lon="6.73805">
        <ele>399</ele>
        <time>2015-06-28T07:59:46.000Z</time>
      </trkpt>
      <trkpt lat="47.46672" lon="6.73801">
        <ele>399</ele>
        <time>2015-06-28T07:59:47.000Z</time>
      </trkpt>
      <trkpt lat="47.4667" lon="6.73796">
        <ele>399</ele>
        <time>2015-06-28T07:59:48.000Z</time>
      </trkpt>
      <trkpt lat="47.46667" lon="6.73792">
        <ele>398</ele>
        <time>2015-06-28T07:59:49.000Z</time>
      </trkpt>
      <trkpt lat="47.46665" lon="6.73787">
        <ele>400</ele>
        <time>2015-06-28T07:59:50.000Z</time>
      </trkpt>
      <trkpt lat="47.46662" lon="6.73783">
        <ele>400</ele>
        <time>2015-06-28T07:59:51.000Z</time>
      </trkpt>
      <trkpt lat="47.4666" lon="6.73779">
        <ele>400</ele>
        <time>2015-06-28T07:59:52.000Z</time>
      </trkpt>
      <trkpt lat="47.46657" lon="6.73775">
        <ele>400</ele>
        <time>2015-06-28T07:59:53.000Z</time>
      </trkpt>
      <trkpt lat="47.46654" lon="6.73772">
        <ele>400</ele>
        <time>2015-06-28T07:59:54.000Z</time>
      </trkpt>
      <trkpt lat="47.46651" lon="6.73768">
        <ele>400</ele>
        <time>2015-06-28T07:59:55.000Z</time>
      </trkpt>
      <trkpt lat="47.46649" lon="6.73764">
        <ele>400</ele>
        <time>2015-06-28T07:59:56.000Z</time>
      </trkpt>
      <trkpt lat="47.46647" lon="6.73761">
        <ele>400</ele>
        <time>2015-06-28T07:59:57.000Z</time>
      </trkpt>
      <trkpt lat="47.46644" lon="6.73758">
        <ele>400</ele>
        <time>2015-06-28T07:59:58.000Z</time>
      </trkpt>
      <trkpt lat="47.46641" lon="6.73754">
        <ele>400</ele>
        <time>2015-06-28T07:59:59.000Z</time>
      </trkpt>
      <trkpt lat="47.46637" lon="6.73751">
        <ele>400</ele>
        <time>2015-06-28T08:00:00.000Z</time>
      </trkpt>
      <trkpt lat="47.46632" lon="6.73748">
        <ele>395</ele>
        <time>2015-06-28T08:00:01.000Z</time>
      </trkpt>
      <trkpt lat="47.46627" lon="6.73746">
        <ele>395</ele>
        <time>2015-06-28T08:00:02.000Z</time>
      </trkpt>
      <trkpt lat="47.46624" lon="6.73744">
        <ele>395</ele>
        <time>2015-06-28T08:00:03.000Z</time>
      </trkpt>
      <trkpt lat="47.46621" lon="6.73744">
        <ele>395</ele>
        <time>2015-06-28T08:00:04.000Z</time>
      </trkpt>
      <trkpt lat="47.46618" lon="6.73743">
        <ele>396</ele>
        <time>2015-06-28T08:00:05.000Z</time>
      </trkpt>
      <trkpt lat="47.46616" lon="6.73742">
        <ele>396</ele>
        <time>2015-06-28T08:00:06.000Z</time>
      </trkpt>
      <trkpt lat="47.46613" lon="6.73741">
        <ele>396</ele>
        <time>2015-06-28T08:00:07.000Z</time>
      </trkpt>
      <trkpt lat="47.46609" lon="6.7374">
        <ele>396</ele>
        <time>2015-06-28T08:00:08.000Z</time>
      </trkpt>
      <trkpt lat="47.46606" lon="6.73739">
        <ele>397</ele>
        <time>2015-06-28T08:00:09.000Z</time>
      </trkpt>
      <trkpt lat="47.46603" lon="6.73738">
        <ele>397</ele>
        <time>2015-06-28T08:00:10.000Z</time>
      </trkpt>
      <trkpt lat="47.46601" lon="6.73737">
        <ele>397</ele>
        <time>2015-06-28T08:00:11.000Z</time>
      </trkpt>
      <trkpt lat="47.46598" lon="6.73736">
        <ele>397</ele>
        <time>2015-06-28T08:00:12.000Z</time>
      </trkpt>
      <trkpt lat="47.46596" lon="6.73735">
        <ele>397</ele>
        <time>2015-06-28T08:00:13.000Z</time>
      </trkpt>
      <trkpt lat="47.46594" lon="6.73734">
        <ele>397</ele>
        <time>2015-06-28T08:00:14.000Z</time>
      </trkpt>
      <trkpt lat="47.46591" lon="6.73732">
        <ele>397</ele>
        <time>2015-06-28T08:00:15.000Z</time>
      </trkpt>
      <trkpt lat="47.46589" lon="6.73729">
        <ele>397</ele>
        <time>2015-06-28T08:00:16.000Z</time>
      </trkpt>
      <trkpt lat="47.46586" lon="6.73727">
        <ele>397</ele>
        <time>2015-06-28T08:00:17.000Z</time>
      </trkpt>
      <trkpt lat="47.46584" lon="6.73724">
        <ele>396</ele>
        <time>2015-06-28T08:00:18.000Z</time>
      </trkpt>
      <trkpt lat="47.46581" lon="6.73721">
        <ele>401</ele>
        <time>2015-06-28T08:00:19.000Z</time>
      </trkpt>
      <trkpt lat="47.46577" lon="6.73718">
        <ele>401</ele>
        <time>2015-06-28T08:00:20.000Z</time>
      </trkpt>
      <trkpt lat="47.46575" lon="6.73715">
        <ele>400</ele>
        <time>2015-06-28T08:00:21.000Z</time>
      </trkpt>
      <trkpt lat="47.46572" lon="6.73714">
        <ele>400</ele>
        <time>2015-06-28T08:00:22.000Z</time>
      </trkpt>
      <trkpt lat="47.46569" lon="6.73713">
        <ele>400</ele>
        <time>2015-06-28T08:00:23.000Z</time>
      </trkpt>
      <trkpt lat="47.46566" lon="6.73712">
        <ele>400</ele>
        <time>2015-06-28T08:00:24.000Z</time>
      </trkpt>
      <trkpt lat="47.46563" lon="6.73711">
        <ele>400</ele>
        <time>2015-06-28T08:00:25.000Z</time>
      </trkpt>
      <trkpt lat="47.4656" lon="6.73711">
        <ele>401</ele>
        <time>2015-06-28T08:00:26.000Z</time>
      </trkpt>
      <trkpt lat="47.46557" lon="6.7371">
        <ele>401</ele>
        <time>2015-06-28T08:00:27.000Z</time>
      </trkpt>
      <trkpt lat="47.46554" lon="6.73709">
        <ele>401</ele>
        <time>2015-06-28T08:00:28.000Z</time>
      </trkpt>
      <trkpt lat="47.46551" lon="6.73707">
        <ele>401</ele>
        <time>2015-06-28T08:00:29.000Z</time>
      </trkpt>
      <trkpt lat="47.46548" lon="6.73706">
        <ele>401</ele>
        <time>2015-06-28T08:00:30.000Z</time>
      </trkpt>
      <trkpt lat="47.46544" lon="6.73705">
        <ele>401</ele>
        <time>2015-06-28T08:00:31.000Z</time>
      </trkpt>
      <trkpt lat="47.4654" lon="6.73705">
        <ele>401</ele>
        <time>2015-06-28T08:00:32.000Z</time>
      </trkpt>
      <trkpt lat="47.46536" lon="6.73705">
        <ele>401</ele>
        <time>2015-06-28T08:00:33.000Z</time>
      </trkpt>
      <trkpt lat="47.46531" lon="6.73706">
        <ele>402</ele>
        <time>2015-06-28T08:00:34.000Z</time>
      </trkpt>
      <trkpt lat="47.46527" lon="6.73706">
        <ele>402</ele>
        <time>2015-06-28T08:00:35.000Z</time>
      </trkpt>
      <trkpt lat="47.46523" lon="6.73707">
        <ele>402</ele>
        <time>2015-06-28T08:00:36.000Z</time>
      </trkpt>
      <trkpt lat="47.46518" lon="6.73708">
        <ele>402</ele>
        <time>2015-06-28T08:00:37.000Z</time>
      </trkpt>
      <trkpt lat="47.46514" lon="6.73709">
        <ele>403</ele>
        <time>2015-06-28T08:00:38.000Z</time>
      </trkpt>
      <trkpt lat="47.4651" lon="6.7371">
        <ele>403</ele>
        <time>2015-06-28T08:00:39.000Z</time>
      </trkpt>
      <trkpt lat="47.46507" lon="6.73711">
        <ele>403</ele>
        <time>2015-06-28T08:00:40.000Z</time>
      </trkpt>
      <trkpt lat="47.46504" lon="6.73713">
        <ele>403</ele>
        <time>2015-06-28T08:00:41.000Z</time>
      </trkpt>
      <trkpt lat="47.46501" lon="6.73716">
        <ele>403</ele>
        <time>2015-06-28T08:00:42.000Z</time>
      </trkpt>
      <trkpt lat="47.46498" lon="6.73718">
        <ele>409</ele>
        <time>2015-06-28T08:00:43.000Z</time>
      </trkpt>
      <trkpt lat="47.46494" lon="6.7372">
        <ele>409</ele>
        <time>2015-06-28T08:00:44.000Z</time>
      </trkpt>
      <trkpt lat="47.46491" lon="6.73723">
        <ele>409</ele>
        <time>2015-06-28T08:00:45.000Z</time>
      </trkpt>
      <trkpt lat="47.46488" lon="6.73725">
        <ele>409</ele>
        <time>2015-06-28T08:00:46.000Z</time>
      </trkpt>
      <trkpt lat="47.46485" lon="6.73727">
        <ele>409</ele>
        <time>2015-06-28T08:00:47.000Z</time>
      </trkpt>
      <trkpt lat="47.46483" lon="6.73729">
        <ele>409</ele>
        <time>2015-06-28T08:00:48.000Z</time>
      </trkpt>
      <trkpt lat="47.4648" lon="6.73731">
        <ele>410</ele>
        <time>2015-06-28T08:00:49.000Z</time>
      </trkpt>
      <trkpt lat="47.46478" lon="6.73733">
        <ele>410</ele>
        <time>2015-06-28T08:00:50.000Z</time>
      </trkpt>
      <trkpt lat="47.46476" lon="6.73734">
        <ele>410</ele>
        <time>2015-06-28T08:00:50.998Z</time>
      </trkpt>
      <trkpt lat="47.46472" lon="6.73735">
        <ele>410</ele>
        <time>2015-06-28T08:00:52.000Z</time>
      </trkpt>
      <trkpt lat="47.4647" lon="6.73735">
        <ele>410</ele>
        <time>2015-06-28T08:00:53.000Z</time>
      </trkpt>
      <trkpt lat="47.46467" lon="6.73735">
        <ele>410</ele>
        <time>2015-06-28T08:00:54.000Z</time>
      </trkpt>
      <trkpt lat="47.46463" lon="6.73736">
        <ele>411</ele>
        <time>2015-06-28T08:00:56.000Z</time>
      </trkpt>
      <trkpt lat="47.46461" lon="6.73736">
        <ele>411</ele>
        <time>2015-06-28T08:00:57.000Z</time>
      </trkpt>
      <trkpt lat="47.46457" lon="6.73736">
        <ele>411</ele>
        <time>2015-06-28T08:00:59.000Z</time>
      </trkpt>
      <trkpt lat="47.46454" lon="6.73736">
        <ele>411</ele>
        <time>2015-06-28T08:01:00.000Z</time>
      </trkpt>
      <trkpt lat="47.46452" lon="6.73735">
        <ele>411</ele>
        <time>2015-06-28T08:01:01.000Z</time>
      </trkpt>
      <trkpt lat="47.46449" lon="6.73734">
        <ele>412</ele>
        <time>2015-06-28T08:01:02.000Z</time>
      </trkpt>
      <trkpt lat="47.46446" lon="6.73732">
        <ele>412</ele>
        <time>2015-06-28T08:01:03.000Z</time>
      </trkpt>
      <trkpt lat="47.46444" lon="6.73731">
        <ele>412</ele>
        <time>2015-06-28T08:01:04.000Z</time>
      </trkpt>
      <trkpt lat="47.4644" lon="6.73729">
        <ele>412</ele>
        <time>2015-06-28T08:01:06.000Z</time>
      </trkpt>
      <trkpt lat="47.46438" lon="6.73728">
        <ele>412</ele>
        <time>2015-06-28T08:01:07.000Z</time>
      </trkpt>
      <trkpt lat="47.46434" lon="6.73729">
        <ele>412</ele>
        <time>2015-06-28T08:01:09.000Z</time>
      </trkpt>
      <trkpt lat="47.46432" lon="6.7373">
        <ele>413</ele>
        <time>2015-06-28T08:01:10.000Z</time>
      </trkpt>
      <trkpt lat="47.46429" lon="6.73731">
        <ele>413</ele>
        <time>2015-06-28T08:01:12.000Z</time>
      </trkpt>
      <trkpt lat="47.46427" lon="6.73732">
        <ele>413</ele>
        <time>2015-06-28T08:01:13.000Z</time>
      </trkpt>
      <trkpt lat="47.46424" lon="6.73732">
        <ele>413</ele>
        <time>2015-06-28T08:01:14.000Z</time>
      </trkpt>
      <trkpt lat="47.46422" lon="6.73731">
        <ele>413</ele>
        <time>2015-06-28T08:01:15.000Z</time>
      </trkpt>
      <trkpt lat="47.46419" lon="6.73731">
        <ele>413</ele>
        <time>2015-06-28T08:01:16.000Z</time>
      </trkpt>
      <trkpt lat="47.46416" lon="6.7373">
        <ele>417</ele>
        <time>2015-06-28T08:01:17.000Z</time>
      </trkpt>
      <trkpt lat="47.46413" lon="6.7373">
        <ele>417</ele>
        <time>2015-06-28T08:01:18.000Z</time>
      </trkpt>
      <trkpt lat="47.46411" lon="6.7373">
        <ele>417</ele>
        <time>2015-06-28T08:01:19.000Z</time>
      </trkpt>
      <trkpt lat="47.46406" lon="6.73731">
        <ele>417</ele>
        <time>2015-06-28T08:01:21.000Z</time>
      </trkpt>
      <trkpt lat="47.46405" lon="6.73731">
        <ele>417</ele>
        <time>2015-06-28T08:01:22.000Z</time>
      </trkpt>
      <trkpt lat="47.46401" lon="6.73732">
        <ele>417</ele>
        <time>2015-06-28T08:01:24.000Z</time>
      </trkpt>
      <trkpt lat="47.46399" lon="6.73733">
        <ele>417</ele>
        <time>2015-06-28T08:01:25.000Z</time>
      </trkpt>
      <trkpt lat="47.46396" lon="6.73732">
        <ele>417</ele>
        <time>2015-06-28T08:01:26.000Z</time>
      </trkpt>
      <trkpt lat="47.46393" lon="6.7373">
        <ele>417</ele>
        <time>2015-06-28T08:01:27.000Z</time>
      </trkpt>
      <trkpt lat="47.4639" lon="6.73729">
        <ele>417</ele>
        <time>2015-06-28T08:01:28.000Z</time>
      </trkpt>
      <trkpt lat="47.46387" lon="6.73727">
        <ele>417</ele>
        <time>2015-06-28T08:01:29.000Z</time>
      </trkpt>
      <trkpt lat="47.46383" lon="6.73726">
        <ele>417</ele>
        <time>2015-06-28T08:01:30.000Z</time>
      </trkpt>
      <trkpt lat="47.4638" lon="6.73725">
        <ele>417</ele>
        <time>2015-06-28T08:01:31.000Z</time>
      </trkpt>
      <trkpt lat="47.46377" lon="6.73724">
        <ele>418</ele>
        <time>2015-06-28T08:01:32.000Z</time>
      </trkpt>
      <trkpt lat="47.46374" lon="6.73724">
        <ele>418</ele>
        <time>2015-06-28T08:01:33.000Z</time>
      </trkpt>
      <trkpt lat="47.46371" lon="6.73723">
        <ele>418</ele>
        <time>2015-06-28T08:01:34.000Z</time>
      </trkpt>
      <trkpt lat="47.46368" lon="6.73723">
        <ele>418</ele>
        <time>2015-06-28T08:01:35.000Z</time>
      </trkpt>
      <trkpt lat="47.46365" lon="6.73722">
        <ele>418</ele>
        <time>2015-06-28T08:01:36.000Z</time>
      </trkpt>
      <trkpt lat="47.46363" lon="6.73722">
        <ele>418</ele>
        <time>2015-06-28T08:01:37.000Z</time>
      </trkpt>
      <trkpt lat="47.4636" lon="6.73721">
        <ele>418</ele>
        <time>2015-06-28T08:01:38.000Z</time>
      </trkpt>
      <trkpt lat="47.46357" lon="6.7372">
        <ele>418</ele>
        <time>2015-06-28T08:01:39.000Z</time>
      </trkpt>
      <trkpt lat="47.46355" lon="6.73719">
        <ele>418</ele>
        <time>2015-06-28T08:01:40.000Z</time>
      </trkpt>
      <trkpt lat="47.46352" lon="6.73717">
        <ele>418</ele>
        <time>2015-06-28T08:01:41.000Z</time>
      </trkpt>
      <trkpt lat="47.4635" lon="6.73714">
        <ele>418</ele>
        <time>2015-06-28T08:01:42.000Z</time>
      </trkpt>
      <trkpt lat="47.46348" lon="6.73712">
        <ele>418</ele>
        <time>2015-06-28T08:01:43.000Z</time>
      </trkpt>
      <trkpt lat="47.46345" lon="6.7371">
        <ele>418</ele>
        <time>2015-06-28T08:01:44.000Z</time>
      </trkpt>
      <trkpt lat="47.46343" lon="6.73709">
        <ele>418</ele>
        <time>2015-06-28T08:01:45.000Z</time>
      </trkpt>
      <trkpt lat="47.46339" lon="6.73707">
        <ele>419</ele>
        <time>2015-06-28T08:01:47.000Z</time>
      </trkpt>
      <trkpt lat="47.46338" lon="6.73706">
        <ele>419</ele>
        <time>2015-06-28T08:01:48.000Z</time>
      </trkpt>
      <trkpt lat="47.46334" lon="6.73703">
        <ele>419</ele>
        <time>2015-06-28T08:01:51.000Z</time>
      </trkpt>
      <trkpt lat="47.46333" lon="6.73702">
        <ele>420</ele>
        <time>2015-06-28T08:01:52.000Z</time>
      </trkpt>
      <trkpt lat="47.46329" lon="6.73704">
        <ele>420</ele>
        <time>2015-06-28T08:01:57.000Z</time>
      </trkpt>
      <trkpt lat="47.46328" lon="6.73704">
        <ele>420</ele>
        <time>2015-06-28T08:01:58.000Z</time>
      </trkpt>
      <trkpt lat="47.46327" lon="6.73698">
        <ele>420</ele>
        <time>2015-06-28T08:02:05.000Z</time>
      </trkpt>
      <trkpt lat="47.46327" lon="6.73695">
        <ele>420</ele>
        <time>2015-06-28T08:02:06.000Z</time>
      </trkpt>
      <trkpt lat="47.46325" lon="6.73691">
        <ele>421</ele>
        <time>2015-06-28T08:02:09.000Z</time>
      </trkpt>
      <trkpt lat="47.46324" lon="6.73689">
        <ele>421</ele>
        <time>2015-06-28T08:02:10.000Z</time>
      </trkpt>
      <trkpt lat="47.46322" lon="6.73685">
        <ele>421</ele>
        <time>2015-06-28T08:02:12.000Z</time>
      </trkpt>
      <trkpt lat="47.46321" lon="6.73682">
        <ele>421</ele>
        <time>2015-06-28T08:02:13.000Z</time>
      </trkpt>
      <trkpt lat="47.4632" lon="6.73679">
        <ele>421</ele>
        <time>2015-06-28T08:02:14.000Z</time>
      </trkpt>
      <trkpt lat="47.46319" lon="6.73675">
        <ele>421</ele>
        <time>2015-06-28T08:02:15.000Z</time>
      </trkpt>
      <trkpt lat="47.46319" lon="6.73671">
        <ele>421</ele>
        <time>2015-06-28T08:02:16.000Z</time>
      </trkpt>
      <trkpt lat="47.46318" lon="6.73668">
        <ele>421</ele>
        <time>2015-06-28T08:02:17.000Z</time>
      </trkpt>
      <trkpt lat="47.46318" lon="6.73663">
        <ele>422</ele>
        <time>2015-06-28T08:02:19.000Z</time>
      </trkpt>
      <trkpt lat="47.46318" lon="6.7366">
        <ele>422</ele>
        <time>2015-06-28T08:02:20.000Z</time>
      </trkpt>
      <trkpt lat="47.46318" lon="6.73656">
        <ele>423</ele>
        <time>2015-06-28T08:02:21.000Z</time>
      </trkpt>
      <trkpt lat="47.46317" lon="6.73652">
        <ele>423</ele>
        <time>2015-06-28T08:02:22.000Z</time>
      </trkpt>
      <trkpt lat="47.46317" lon="6.73648">
        <ele>423</ele>
        <time>2015-06-28T08:02:23.000Z</time>
      </trkpt>
      <trkpt lat="47.46317" lon="6.73644">
        <ele>423</ele>
        <time>2015-06-28T08:02:24.000Z</time>
      </trkpt>
      <trkpt lat="47.46316" lon="6.7364">
        <ele>423</ele>
        <time>2015-06-28T08:02:25.000Z</time>
      </trkpt>
      <trkpt lat="47.46316" lon="6.73636">
        <ele>423</ele>
        <time>2015-06-28T08:02:26.000Z</time>
      </trkpt>
      <trkpt lat="47.46317" lon="6.73632">
        <ele>423</ele>
        <time>2015-06-28T08:02:27.000Z</time>
      </trkpt>
      <trkpt lat="47.46317" lon="6.73628">
        <ele>423</ele>
        <time>2015-06-28T08:02:28.000Z</time>
      </trkpt>
      <trkpt lat="47.46318" lon="6.73624">
        <ele>423</ele>
        <time>2015-06-28T08:02:29.000Z</time>
      </trkpt>
      <trkpt lat="47.46319" lon="6.73619">
        <ele>423</ele>
        <time>2015-06-28T08:02:30.000Z</time>
      </trkpt>
      <trkpt lat="47.46319" lon="6.73615">
        <ele>423</ele>
        <time>2015-06-28T08:02:31.000Z</time>
      </trkpt>
      <trkpt lat="47.4632" lon="6.7361">
        <ele>424</ele>
        <time>2015-06-28T08:02:32.000Z</time>
      </trkpt>
      <trkpt lat="47.46321" lon="6.73606">
        <ele>424</ele>
        <time>2015-06-28T08:02:33.000Z</time>
      </trkpt>
      <trkpt lat="47.46321" lon="6.73603">
        <ele>424</ele>
        <time>2015-06-28T08:02:34.000Z</time>
      </trkpt>
      <trkpt lat="47.46322" lon="6.73598">
        <ele>424</ele>
        <time>2015-06-28T08:02:36.000Z</time>
      </trkpt>
      <trkpt lat="47.46323" lon="6.73595">
        <ele>424</ele>
        <time>2015-06-28T08:02:37.000Z</time>
      </trkpt>
      <trkpt lat="47.46323" lon="6.73591">
        <ele>424</ele>
        <time>2015-06-28T08:02:38.000Z</time>
      </trkpt>
      <trkpt lat="47.46323" lon="6.73588">
        <ele>424</ele>
        <time>2015-06-28T08:02:39.000Z</time>
      </trkpt>
      <trkpt lat="47.46323" lon="6.73583">
        <ele>425</ele>
        <time>2015-06-28T08:02:40.000Z</time>
      </trkpt>
      <trkpt lat="47.46323" lon="6.73579">
        <ele>425</ele>
        <time>2015-06-28T08:02:41.000Z</time>
      </trkpt>
      <trkpt lat="47.46323" lon="6.73574">
        <ele>425</ele>
        <time>2015-06-28T08:02:42.000Z</time>
      </trkpt>
      <trkpt lat="47.46322" lon="6.73569">
        <ele>425</ele>
        <time>2015-06-28T08:02:43.000Z</time>
      </trkpt>
      <trkpt lat="47.46322" lon="6.73564">
        <ele>425</ele>
        <time>2015-06-28T08:02:44.000Z</time>
      </trkpt>
      <trkpt lat="47.46321" lon="6.73559">
        <ele>425</ele>
        <time>2015-06-28T08:02:45.000Z</time>
      </trkpt>
      <trkpt lat="47.4632" lon="6.73555">
        <ele>425</ele>
        <time>2015-06-28T08:02:46.000Z</time>
      </trkpt>
      <trkpt lat="47.46319" lon="6.7355">
        <ele>425</ele>
        <time>2015-06-28T08:02:47.000Z</time>
      </trkpt>
      <trkpt lat="47.46319" lon="6.73544">
        <ele>425</ele>
        <time>2015-06-28T08:02:48.000Z</time>
      </trkpt>
      <trkpt lat="47.46319" lon="6.73539">
        <ele>425</ele>
        <time>2015-06-28T08:02:49.000Z</time>
      </trkpt>
      <trkpt lat="47.46319" lon="6.73533">
        <ele>425</ele>
        <time>2015-06-28T08:02:50.000Z</time>
      </trkpt>
      <trkpt lat="47.46318" lon="6.73528">
        <ele>425</ele>
        <time>2015-06-28T08:02:51.000Z</time>
      </trkpt>
      <trkpt lat="47.46318" lon="6.73523">
        <ele>425</ele>
        <time>2015-06-28T08:02:52.000Z</time>
      </trkpt>
      <trkpt lat="47.46318" lon="6.73519">
        <ele>425</ele>
        <time>2015-06-28T08:02:53.000Z</time>
      </trkpt>
      <trkpt lat="47.46318" lon="6.73514">
        <ele>425</ele>
        <time>2015-06-28T08:02:54.000Z</time>
      </trkpt>
      <trkpt lat="47.46319" lon="6.73509">
        <ele>425</ele>
        <time>2015-06-28T08:02:55.000Z</time>
      </trkpt>
      <trkpt lat="47.46319" lon="6.73504">
        <ele>425</ele>
        <time>2015-06-28T08:02:56.000Z</time>
      </trkpt>
      <trkpt lat="47.46319" lon="6.73498">
        <ele>426</ele>
        <time>2015-06-28T08:02:57.000Z</time>
      </trkpt>
      <trkpt lat="47.46319" lon="6.73492">
        <ele>426</ele>
        <time>2015-06-28T08:02:58.000Z</time>
      </trkpt>
      <trkpt lat="47.4632" lon="6.73487">
        <ele>426</ele>
        <time>2015-06-28T08:02:59.000Z</time>
      </trkpt>
      <trkpt lat="47.46319" lon="6.73482">
        <ele>426</ele>
        <time>2015-06-28T08:03:00.000Z</time>
      </trkpt>
      <trkpt lat="47.4632" lon="6.73477">
        <ele>426</ele>
        <time>2015-06-28T08:03:01.000Z</time>
      </trkpt>
      <trkpt lat="47.4632" lon="6.73472">
        <ele>426</ele>
        <time>2015-06-28T08:03:02.000Z</time>
      </trkpt>
      <trkpt lat="47.4632" lon="6.73467">
        <ele>426</ele>
        <time>2015-06-28T08:03:03.000Z</time>
      </trkpt>
      <trkpt lat="47.4632" lon="6.73462">
        <ele>426</ele>
        <time>2015-06-28T08:03:04.000Z</time>
      </trkpt>
      <trkpt lat="47.46321" lon="6.73457">
        <ele>426</ele>
        <time>2015-06-28T08:03:05.000Z</time>
      </trkpt>
      <trkpt lat="47.46321" lon="6.73452">
        <ele>426</ele>
        <time>2015-06-28T08:03:06.000Z</time>
      </trkpt>
      <trkpt lat="47.46321" lon="6.73447">
        <ele>426</ele>
        <time>2015-06-28T08:03:07.000Z</time>
      </trkpt>
      <trkpt lat="47.46322" lon="6.73441">
        <ele>426</ele>
        <time>2015-06-28T08:03:08.000Z</time>
      </trkpt>
      <trkpt lat="47.46322" lon="6.73436">
        <ele>426</ele>
        <time>2015-06-28T08:03:09.000Z</time>
      </trkpt>
      <trkpt lat="47.46322" lon="6.73429">
        <ele>426</ele>
        <time>2015-06-28T08:03:10.000Z</time>
      </trkpt>
      <trkpt lat="47.46322" lon="6.73423">
        <ele>426</ele>
        <time>2015-06-28T08:03:11.000Z</time>
      </trkpt>
      <trkpt lat="47.46322" lon="6.73417">
        <ele>426</ele>
        <time>2015-06-28T08:03:12.000Z</time>
      </trkpt>
      <trkpt lat="47.46322" lon="6.73411">
        <ele>426</ele>
        <time>2015-06-28T08:03:13.000Z</time>
      </trkpt>
      <trkpt lat="47.46322" lon="6.73406">
        <ele>427</ele>
        <time>2015-06-28T08:03:14.000Z</time>
      </trkpt>
      <trkpt lat="47.46323" lon="6.734">
        <ele>427</ele>
        <time>2015-06-28T08:03:15.000Z</time>
      </trkpt>
      <trkpt lat="47.46323" lon="6.73394">
        <ele>427</ele>
        <time>2015-06-28T08:03:16.000Z</time>
      </trkpt>
      <trkpt lat="47.46322" lon="6.73389">
        <ele>427</ele>
        <time>2015-06-28T08:03:17.000Z</time>
      </trkpt>
      <trkpt lat="47.46322" lon="6.73383">
        <ele>427</ele>
        <time>2015-06-28T08:03:18.000Z</time>
      </trkpt>
      <trkpt lat="47.46321" lon="6.73377">
        <ele>428</ele>
        <time>2015-06-28T08:03:19.000Z</time>
      </trkpt>
      <trkpt lat="47.4632" lon="6.73371">
        <ele>428</ele>
        <time>2015-06-28T08:03:20.000Z</time>
      </trkpt>
      <trkpt lat="47.46319" lon="6.73365">
        <ele>428</ele>
        <time>2015-06-28T08:03:21.000Z</time>
      </trkpt>
      <trkpt lat="47.46318" lon="6.73359">
        <ele>428</ele>
        <time>2015-06-28T08:03:22.000Z</time>
      </trkpt>
      <trkpt lat="47.46318" lon="6.73353">
        <ele>428</ele>
        <time>2015-06-28T08:03:23.000Z</time>
      </trkpt>
      <trkpt lat="47.46317" lon="6.73347">
        <ele>428</ele>
        <time>2015-06-28T08:03:24.000Z</time>
      </trkpt>
      <trkpt lat="47.46317" lon="6.73341">
        <ele>428</ele>
        <time>2015-06-28T08:03:25.000Z</time>
      </trkpt>
      <trkpt lat="47.46317" lon="6.73335">
        <ele>428</ele>
        <time>2015-06-28T08:03:26.000Z</time>
      </trkpt>
      <trkpt lat="47.46317" lon="6.73329">
        <ele>429</ele>
        <time>2015-06-28T08:03:27.000Z</time>
      </trkpt>
      <trkpt lat="47.46318" lon="6.73324">
        <ele>429</ele>
        <time>2015-06-28T08:03:28.000Z</time>
      </trkpt>
      <trkpt lat="47.46318" lon="6.73318">
        <ele>429</ele>
        <time>2015-06-28T08:03:28.998Z</time>
      </trkpt>
      <trkpt lat="47.46319" lon="6.73312">
        <ele>429</ele>
        <time>2015-06-28T08:03:30.000Z</time>
      </trkpt>
      <trkpt lat="47.46319" lon="6.73306">
        <ele>430</ele>
        <time>2015-06-28T08:03:31.000Z</time>
      </trkpt>
      <trkpt lat="47.4632" lon="6.733">
        <ele>430</ele>
        <time>2015-06-28T08:03:32.000Z</time>
      </trkpt>
      <trkpt lat="47.4632" lon="6.73294">
        <ele>430</ele>
        <time>2015-06-28T08:03:33.000Z</time>
      </trkpt>
      <trkpt lat="47.46321" lon="6.73288">
        <ele>430</ele>
        <time>2015-06-28T08:03:34.000Z</time>
      </trkpt>
      <trkpt lat="47.46321" lon="6.73283">
        <ele>431</ele>
        <time>2015-06-28T08:03:35.000Z</time>
      </trkpt>
      <trkpt lat="47.46322" lon="6.73277">
        <ele>431</ele>
        <time>2015-06-28T08:03:36.000Z</time>
      </trkpt>
      <trkpt lat="47.46322" lon="6.73272">
        <ele>431</ele>
        <time>2015-06-28T08:03:37.000Z</time>
      </trkpt>
      <trkpt lat="47.46322" lon="6.73266">
        <ele>431</ele>
        <time>2015-06-28T08:03:38.000Z</time>
      </trkpt>
      <trkpt lat="47.46322" lon="6.73261">
        <ele>431</ele>
        <time>2015-06-28T08:03:39.000Z</time>
      </trkpt>
      <trkpt lat="47.46322" lon="6.73255">
        <ele>431</ele>
        <time>2015-06-28T08:03:40.000Z</time>
      </trkpt>
      <trkpt lat="47.46321" lon="6.7325">
        <ele>433</ele>
        <time>2015-06-28T08:03:41.000Z</time>
      </trkpt>
      <trkpt lat="47.46321" lon="6.73244">
        <ele>433</ele>
        <time>2015-06-28T08:03:42.000Z</time>
      </trkpt>
      <trkpt lat="47.46321" lon="6.73239">
        <ele>433</ele>
        <time>2015-06-28T08:03:43.000Z</time>
      </trkpt>
      <trkpt lat="47.46321" lon="6.73234">
        <ele>433</ele>
        <time>2015-06-28T08:03:44.000Z</time>
      </trkpt>
      <trkpt lat="47.46321" lon="6.73229">
        <ele>433</ele>
        <time>2015-06-28T08:03:45.000Z</time>
      </trkpt>
      <trkpt lat="47.46321" lon="6.73224">
        <ele>433</ele>
        <time>2015-06-28T08:03:46.000Z</time>
      </trkpt>
      <trkpt lat="47.46321" lon="6.73218">
        <ele>433</ele>
        <time>2015-06-28T08:03:47.000Z</time>
      </trkpt>
      <trkpt lat="47.46321" lon="6.73213">
        <ele>434</ele>
        <time>2015-06-28T08:03:48.000Z</time>
      </trkpt>
      <trkpt lat="47.46321" lon="6.73208">
        <ele>434</ele>
        <time>2015-06-28T08:03:49.000Z</time>
      </trkpt>
      <trkpt lat="47.46321" lon="6.73203">
        <ele>434</ele>
        <time>2015-06-28T08:03:50.000Z</time>
      </trkpt>
      <trkpt lat="47.4632" lon="6.73198">
        <ele>434</ele>
        <time>2015-06-28T08:03:51.000Z</time>
      </trkpt>
      <trkpt lat="47.4632" lon="6.73193">
        <ele>434</ele>
        <time>2015-06-28T08:03:52.000Z</time>
      </trkpt>
      <trkpt lat="47.4632" lon="6.73188">
        <ele>434</ele>
        <time>2015-06-28T08:03:53.000Z</time>
      </trkpt>
      <trkpt lat="47.4632" lon="6.73182">
        <ele>434</ele>
        <time>2015-06-28T08:03:54.000Z</time>
      </trkpt>
      <trkpt lat="47.46321" lon="6.73177">
        <ele>434</ele>
        <time>2015-06-28T08:03:55.000Z</time>
      </trkpt>
      <trkpt lat="47.46321" lon="6.73172">
        <ele>434</ele>
        <time>2015-06-28T08:03:56.000Z</time>
      </trkpt>
      <trkpt lat="47.46321" lon="6.73166">
        <ele>435</ele>
        <time>2015-06-28T08:03:57.000Z</time>
      </trkpt>
      <trkpt lat="47.46321" lon="6.73161">
        <ele>435</ele>
        <time>2015-06-28T08:03:58.000Z</time>
      </trkpt>
      <trkpt lat="47.46321" lon="6.73156">
        <ele>435</ele>
        <time>2015-06-28T08:03:59.000Z</time>
      </trkpt>
      <trkpt lat="47.46321" lon="6.73151">
        <ele>435</ele>
        <time>2015-06-28T08:04:00.000Z</time>
      </trkpt>
      <trkpt lat="47.46321" lon="6.73145">
        <ele>435</ele>
        <time>2015-06-28T08:04:01.000Z</time>
      </trkpt>
      <trkpt lat="47.46321" lon="6.7314">
        <ele>435</ele>
        <time>2015-06-28T08:04:02.000Z</time>
      </trkpt>
      <trkpt lat="47.46321" lon="6.73135">
        <ele>435</ele>
        <time>2015-06-28T08:04:03.000Z</time>
      </trkpt>
      <trkpt lat="47.46321" lon="6.7313">
        <ele>435</ele>
        <time>2015-06-28T08:04:04.000Z</time>
      </trkpt>
      <trkpt lat="47.46321" lon="6.73125">
        <ele>435</ele>
        <time>2015-06-28T08:04:05.000Z</time>
      </trkpt>
      <trkpt lat="47.46321" lon="6.73119">
        <ele>435</ele>
        <time>2015-06-28T08:04:06.000Z</time>
      </trkpt>
      <trkpt lat="47.46321" lon="6.73114">
        <ele>435</ele>
        <time>2015-06-28T08:04:07.000Z</time>
      </trkpt>
      <trkpt lat="47.46321" lon="6.73108">
        <ele>435</ele>
        <time>2015-06-28T08:04:08.000Z</time>
      </trkpt>
      <trkpt lat="47.46321" lon="6.73103">
        <ele>435</ele>
        <time>2015-06-28T08:04:09.000Z</time>
      </trkpt>
      <trkpt lat="47.46322" lon="6.73097">
        <ele>435</ele>
        <time>2015-06-28T08:04:10.000Z</time>
      </trkpt>
      <trkpt lat="47.46322" lon="6.73092">
        <ele>435</ele>
        <time>2015-06-28T08:04:11.000Z</time>
      </trkpt>
      <trkpt lat="47.46322" lon="6.73086">
        <ele>435</ele>
        <time>2015-06-28T08:04:12.000Z</time>
      </trkpt>
      <trkpt lat="47.46322" lon="6.7308">
        <ele>435</ele>
        <time>2015-06-28T08:04:13.000Z</time>
      </trkpt>
      <trkpt lat="47.46322" lon="6.73074">
        <ele>435</ele>
        <time>2015-06-28T08:04:14.000Z</time>
      </trkpt>
      <trkpt lat="47.46322" lon="6.73068">
        <ele>435</ele>
        <time>2015-06-28T08:04:15.000Z</time>
      </trkpt>
      <trkpt lat="47.46322" lon="6.73061">
        <ele>436</ele>
        <time>2015-06-28T08:04:16.000Z</time>
      </trkpt>
      <trkpt lat="47.46322" lon="6.73055">
        <ele>436</ele>
        <time>2015-06-28T08:04:17.000Z</time>
      </trkpt>
      <trkpt lat="47.46321" lon="6.73047">
        <ele>436</ele>
        <time>2015-06-28T08:04:18.000Z</time>
      </trkpt>
      <trkpt lat="47.46321" lon="6.73041">
        <ele>436</ele>
        <time>2015-06-28T08:04:19.000Z</time>
      </trkpt>
      <trkpt lat="47.46321" lon="6.73034">
        <ele>436</ele>
        <time>2015-06-28T08:04:20.000Z</time>
      </trkpt>
      <trkpt lat="47.46322" lon="6.73026">
        <ele>436</ele>
        <time>2015-06-28T08:04:21.000Z</time>
      </trkpt>
      <trkpt lat="47.46322" lon="6.73019">
        <ele>436</ele>
        <time>2015-06-28T08:04:22.000Z</time>
      </trkpt>
      <trkpt lat="47.46322" lon="6.73012">
        <ele>436</ele>
        <time>2015-06-28T08:04:23.000Z</time>
      </trkpt>
      <trkpt lat="47.46322" lon="6.73006">
        <ele>436</ele>
        <time>2015-06-28T08:04:24.000Z</time>
      </trkpt>
      <trkpt lat="47.46322" lon="6.72999">
        <ele>435</ele>
        <time>2015-06-28T08:04:25.000Z</time>
      </trkpt>
      <trkpt lat="47.46322" lon="6.72992">
        <ele>436</ele>
        <time>2015-06-28T08:04:26.000Z</time>
      </trkpt>
      <trkpt lat="47.46323" lon="6.72986">
        <ele>436</ele>
        <time>2015-06-28T08:04:27.000Z</time>
      </trkpt>
      <trkpt lat="47.46323" lon="6.72979">
        <ele>436</ele>
        <time>2015-06-28T08:04:28.000Z</time>
      </trkpt>
      <trkpt lat="47.46323" lon="6.72971">
        <ele>436</ele>
        <time>2015-06-28T08:04:29.000Z</time>
      </trkpt>
      <trkpt lat="47.46323" lon="6.72963">
        <ele>436</ele>
        <time>2015-06-28T08:04:30.000Z</time>
      </trkpt>
      <trkpt lat="47.46322" lon="6.72956">
        <ele>435</ele>
        <time>2015-06-28T08:04:31.000Z</time>
      </trkpt>
      <trkpt lat="47.46323" lon="6.72947">
        <ele>435</ele>
        <time>2015-06-28T08:04:32.000Z</time>
      </trkpt>
      <trkpt lat="47.46322" lon="6.72939">
        <ele>435</ele>
        <time>2015-06-28T08:04:33.000Z</time>
      </trkpt>
      <trkpt lat="47.46321" lon="6.72931">
        <ele>435</ele>
        <time>2015-06-28T08:04:34.000Z</time>
      </trkpt>
      <trkpt lat="47.4632" lon="6.72923">
        <ele>434</ele>
        <time>2015-06-28T08:04:35.000Z</time>
      </trkpt>
      <trkpt lat="47.46319" lon="6.72916">
        <ele>433</ele>
        <time>2015-06-28T08:04:36.000Z</time>
      </trkpt>
      <trkpt lat="47.46318" lon="6.72908">
        <ele>433</ele>
        <time>2015-06-28T08:04:37.000Z</time>
      </trkpt>
      <trkpt lat="47.46316" lon="6.729">
        <ele>433</ele>
        <time>2015-06-28T08:04:38.000Z</time>
      </trkpt>
      <trkpt lat="47.46315" lon="6.72893">
        <ele>433</ele>
        <time>2015-06-28T08:04:39.000Z</time>
      </trkpt>
      <trkpt lat="47.46314" lon="6.72886">
        <ele>433</ele>
        <time>2015-06-28T08:04:40.000Z</time>
      </trkpt>
      <trkpt lat="47.46313" lon="6.7288">
        <ele>433</ele>
        <time>2015-06-28T08:04:41.000Z</time>
      </trkpt>
      <trkpt lat="47.4631" lon="6.72873">
        <ele>433</ele>
        <time>2015-06-28T08:04:42.000Z</time>
      </trkpt>
      <trkpt lat="47.46309" lon="6.72866">
        <ele>432</ele>
        <time>2015-06-28T08:04:43.000Z</time>
      </trkpt>
      <trkpt lat="47.46307" lon="6.72861">
        <ele>432</ele>
        <time>2015-06-28T08:04:44.000Z</time>
      </trkpt>
      <trkpt lat="47.46304" lon="6.72856">
        <ele>432</ele>
        <time>2015-06-28T08:04:45.000Z</time>
      </trkpt>
      <trkpt lat="47.46302" lon="6.72851">
        <ele>432</ele>
        <time>2015-06-28T08:04:46.000Z</time>
      </trkpt>
      <trkpt lat="47.463" lon="6.72847">
        <ele>432</ele>
        <time>2015-06-28T08:04:47.000Z</time>
      </trkpt>
      <trkpt lat="47.46298" lon="6.72851">
        <ele>432</ele>
        <time>2015-06-28T08:04:48.000Z</time>
      </trkpt>
      <trkpt lat="47.46296" lon="6.72852">
        <ele>433</ele>
        <time>2015-06-28T08:04:49.000Z</time>
      </trkpt>
      <trkpt lat="47.46293" lon="6.72856">
        <ele>433</ele>
        <time>2015-06-28T08:04:51.000Z</time>
      </trkpt>
      <trkpt lat="47.46292" lon="6.72859">
        <ele>433</ele>
        <time>2015-06-28T08:04:52.000Z</time>
      </trkpt>
      <trkpt lat="47.4629" lon="6.72861">
        <ele>433</ele>
        <time>2015-06-28T08:04:53.000Z</time>
      </trkpt>
      <trkpt lat="47.46288" lon="6.72863">
        <ele>433</ele>
        <time>2015-06-28T08:04:54.000Z</time>
      </trkpt>
      <trkpt lat="47.46286" lon="6.72866">
        <ele>434</ele>
        <time>2015-06-28T08:04:55.000Z</time>
      </trkpt>
      <trkpt lat="47.46284" lon="6.72868">
        <ele>434</ele>
        <time>2015-06-28T08:04:56.000Z</time>
      </trkpt>
      <trkpt lat="47.46281" lon="6.72872">
        <ele>434</ele>
        <time>2015-06-28T08:04:58.000Z</time>
      </trkpt>
      <trkpt lat="47.46279" lon="6.72874">
        <ele>434</ele>
        <time>2015-06-28T08:04:59.000Z</time>
      </trkpt>
      <trkpt lat="47.46276" lon="6.72878">
        <ele>434</ele>
        <time>2015-06-28T08:05:01.000Z</time>
      </trkpt>
      <trkpt lat="47.46274" lon="6.72878">
        <ele>434</ele>
        <time>2015-06-28T08:05:02.000Z</time>
      </trkpt>
      <trkpt lat="47.46271" lon="6.7288">
        <ele>435</ele>
        <time>2015-06-28T08:05:03.000Z</time>
      </trkpt>
      <trkpt lat="47.46269" lon="6.72883">
        <ele>435</ele>
        <time>2015-06-28T08:05:04.000Z</time>
      </trkpt>
      <trkpt lat="47.46266" lon="6.72885">
        <ele>435</ele>
        <time>2015-06-28T08:05:05.000Z</time>
      </trkpt>
      <trkpt lat="47.46263" lon="6.72888">
        <ele>435</ele>
        <time>2015-06-28T08:05:06.000Z</time>
      </trkpt>
      <trkpt lat="47.46259" lon="6.72891">
        <ele>435</ele>
        <time>2015-06-28T08:05:07.000Z</time>
      </trkpt>
      <trkpt lat="47.46256" lon="6.72893">
        <ele>435</ele>
        <time>2015-06-28T08:05:08.000Z</time>
      </trkpt>
      <trkpt lat="47.46253" lon="6.72896">
        <ele>436</ele>
        <time>2015-06-28T08:05:09.000Z</time>
      </trkpt>
      <trkpt lat="47.4625" lon="6.72898">
        <ele>436</ele>
        <time>2015-06-28T08:05:10.000Z</time>
      </trkpt>
      <trkpt lat="47.46248" lon="6.72901">
        <ele>439</ele>
        <time>2015-06-28T08:05:11.000Z</time>
      </trkpt>
      <trkpt lat="47.46246" lon="6.72904">
        <ele>439</ele>
        <time>2015-06-28T08:05:11.998Z</time>
      </trkpt>
      <trkpt lat="47.46243" lon="6.72905">
        <ele>439</ele>
        <time>2015-06-28T08:05:13.000Z</time>
      </trkpt>
      <trkpt lat="47.46241" lon="6.72907">
        <ele>439</ele>
        <time>2015-06-28T08:05:14.000Z</time>
      </trkpt>
      <trkpt lat="47.46238" lon="6.72909">
        <ele>439</ele>
        <time>2015-06-28T08:05:15.000Z</time>
      </trkpt>
      <trkpt lat="47.46236" lon="6.72911">
        <ele>439</ele>
        <time>2015-06-28T08:05:16.000Z</time>
      </trkpt>
      <trkpt lat="47.46233" lon="6.72914">
        <ele>439</ele>
        <time>2015-06-28T08:05:17.000Z</time>
      </trkpt>
      <trkpt lat="47.4623" lon="6.72916">
        <ele>439</ele>
        <time>2015-06-28T08:05:18.000Z</time>
      </trkpt>
      <trkpt lat="47.46227" lon="6.72917">
        <ele>439</ele>
        <time>2015-06-28T08:05:19.000Z</time>
      </trkpt>
      <trkpt lat="47.46224" lon="6.72918">
        <ele>440</ele>
        <time>2015-06-28T08:05:20.001Z</time>
      </trkpt>
      <trkpt lat="47.46221" lon="6.72918">
        <ele>440</ele>
        <time>2015-06-28T08:05:21.000Z</time>
      </trkpt>
      <trkpt lat="47.46219" lon="6.72915">
        <ele>439</ele>
        <time>2015-06-28T08:05:22.000Z</time>
      </trkpt>
      <trkpt lat="47.46217" lon="6.72912">
        <ele>440</ele>
        <time>2015-06-28T08:05:23.000Z</time>
      </trkpt>
      <trkpt lat="47.46216" lon="6.72909">
        <ele>440</ele>
        <time>2015-06-28T08:05:23.999Z</time>
      </trkpt>
      <trkpt lat="47.46216" lon="6.72901">
        <ele>440</ele>
        <time>2015-06-28T08:05:25.000Z</time>
      </trkpt>
      <trkpt lat="47.46216" lon="6.72896">
        <ele>440</ele>
        <time>2015-06-28T08:05:25.999Z</time>
      </trkpt>
      <trkpt lat="47.46214" lon="6.7289">
        <ele>440</ele>
        <time>2015-06-28T08:05:27.000Z</time>
      </trkpt>
      <trkpt lat="47.46213" lon="6.72884">
        <ele>440</ele>
        <time>2015-06-28T08:05:28.000Z</time>
      </trkpt>
      <trkpt lat="47.46213" lon="6.72877">
        <ele>440</ele>
        <time>2015-06-28T08:05:29.000Z</time>
      </trkpt>
      <trkpt lat="47.46212" lon="6.72872">
        <ele>440</ele>
        <time>2015-06-28T08:05:30.000Z</time>
      </trkpt>
      <trkpt lat="47.46211" lon="6.72866">
        <ele>440</ele>
        <time>2015-06-28T08:05:31.000Z</time>
      </trkpt>
      <trkpt lat="47.4621" lon="6.72861">
        <ele>440</ele>
        <time>2015-06-28T08:05:32.000Z</time>
      </trkpt>
      <trkpt lat="47.46208" lon="6.72855">
        <ele>440</ele>
        <time>2015-06-28T08:05:33.000Z</time>
      </trkpt>
      <trkpt lat="47.46206" lon="6.7285">
        <ele>440</ele>
        <time>2015-06-28T08:05:34.000Z</time>
      </trkpt>
      <trkpt lat="47.46205" lon="6.72844">
        <ele>440</ele>
        <time>2015-06-28T08:05:35.000Z</time>
      </trkpt>
      <trkpt lat="47.46203" lon="6.72838">
        <ele>440</ele>
        <time>2015-06-28T08:05:36.000Z</time>
      </trkpt>
      <trkpt lat="47.46203" lon="6.72833">
        <ele>439</ele>
        <time>2015-06-28T08:05:37.000Z</time>
      </trkpt>
      <trkpt lat="47.46201" lon="6.72827">
        <ele>439</ele>
        <time>2015-06-28T08:05:38.000Z</time>
      </trkpt>
      <trkpt lat="47.462" lon="6.72821">
        <ele>439</ele>
        <time>2015-06-28T08:05:39.000Z</time>
      </trkpt>
      <trkpt lat="47.46199" lon="6.72816">
        <ele>439</ele>
        <time>2015-06-28T08:05:40.000Z</time>
      </trkpt>
      <trkpt lat="47.46198" lon="6.72811">
        <ele>439</ele>
        <time>2015-06-28T08:05:41.000Z</time>
      </trkpt>
      <trkpt lat="47.46197" lon="6.72805">
        <ele>439</ele>
        <time>2015-06-28T08:05:42.000Z</time>
      </trkpt>
      <trkpt lat="47.46196" lon="6.72799">
        <ele>439</ele>
        <time>2015-06-28T08:05:43.000Z</time>
      </trkpt>
      <trkpt lat="47.46195" lon="6.72793">
        <ele>439</ele>
        <time>2015-06-28T08:05:44.000Z</time>
      </trkpt>
      <trkpt lat="47.46194" lon="6.72786">
        <ele>439</ele>
        <time>2015-06-28T08:05:45.000Z</time>
      </trkpt>
      <trkpt lat="47.46192" lon="6.7278">
        <ele>439</ele>
        <time>2015-06-28T08:05:46.000Z</time>
      </trkpt>
      <trkpt lat="47.4619" lon="6.72775">
        <ele>439</ele>
        <time>2015-06-28T08:05:47.000Z</time>
      </trkpt>
      <trkpt lat="47.46187" lon="6.72771">
        <ele>439</ele>
        <time>2015-06-28T08:05:48.000Z</time>
      </trkpt>
      <trkpt lat="47.46185" lon="6.72767">
        <ele>439</ele>
        <time>2015-06-28T08:05:49.000Z</time>
      </trkpt>
      <trkpt lat="47.46183" lon="6.72765">
        <ele>440</ele>
        <time>2015-06-28T08:05:50.000Z</time>
      </trkpt>
      <trkpt lat="47.46181" lon="6.72761">
        <ele>440</ele>
        <time>2015-06-28T08:05:51.000Z</time>
      </trkpt>
      <trkpt lat="47.46178" lon="6.72757">
        <ele>440</ele>
        <time>2015-06-28T08:05:52.000Z</time>
      </trkpt>
      <trkpt lat="47.46175" lon="6.72753">
        <ele>441</ele>
        <time>2015-06-28T08:05:53.000Z</time>
      </trkpt>
      <trkpt lat="47.46172" lon="6.72749">
        <ele>440</ele>
        <time>2015-06-28T08:05:54.000Z</time>
      </trkpt>
      <trkpt lat="47.46166" lon="6.72741">
        <ele>442</ele>
        <time>2015-06-28T08:05:55.000Z</time>
      </trkpt>
      <trkpt lat="47.46162" lon="6.72737">
        <ele>442</ele>
        <time>2015-06-28T08:05:56.000Z</time>
      </trkpt>
      <trkpt lat="47.46159" lon="6.72733">
        <ele>441</ele>
        <time>2015-06-28T08:05:57.000Z</time>
      </trkpt>
      <trkpt lat="47.46157" lon="6.72729">
        <ele>441</ele>
        <time>2015-06-28T08:05:58.000Z</time>
      </trkpt>
      <trkpt lat="47.46154" lon="6.72724">
        <ele>441</ele>
        <time>2015-06-28T08:05:59.000Z</time>
      </trkpt>
      <trkpt lat="47.46151" lon="6.7272">
        <ele>441</ele>
        <time>2015-06-28T08:06:00.000Z</time>
      </trkpt>
      <trkpt lat="47.46148" lon="6.72716">
        <ele>441</ele>
        <time>2015-06-28T08:06:01.000Z</time>
      </trkpt>
      <trkpt lat="47.46146" lon="6.72714">
        <ele>441</ele>
        <time>2015-06-28T08:06:02.000Z</time>
      </trkpt>
      <trkpt lat="47.46143" lon="6.72711">
        <ele>441</ele>
        <time>2015-06-28T08:06:03.000Z</time>
      </trkpt>
      <trkpt lat="47.46141" lon="6.72707">
        <ele>441</ele>
        <time>2015-06-28T08:06:04.000Z</time>
      </trkpt>
      <trkpt lat="47.46138" lon="6.72704">
        <ele>441</ele>
        <time>2015-06-28T08:06:05.000Z</time>
      </trkpt>
      <trkpt lat="47.46136" lon="6.72701">
        <ele>441</ele>
        <time>2015-06-28T08:06:06.000Z</time>
      </trkpt>
      <trkpt lat="47.46134" lon="6.72698">
        <ele>441</ele>
        <time>2015-06-28T08:06:07.000Z</time>
      </trkpt>
      <trkpt lat="47.46132" lon="6.72695">
        <ele>441</ele>
        <time>2015-06-28T08:06:08.000Z</time>
      </trkpt>
      <trkpt lat="47.4613" lon="6.72692">
        <ele>441</ele>
        <time>2015-06-28T08:06:09.000Z</time>
      </trkpt>
      <trkpt lat="47.46127" lon="6.72689">
        <ele>441</ele>
        <time>2015-06-28T08:06:10.000Z</time>
      </trkpt>
      <trkpt lat="47.46125" lon="6.72687">
        <ele>441</ele>
        <time>2015-06-28T08:06:11.000Z</time>
      </trkpt>
      <trkpt lat="47.46122" lon="6.72684">
        <ele>441</ele>
        <time>2015-06-28T08:06:12.000Z</time>
      </trkpt>
      <trkpt lat="47.4612" lon="6.72681">
        <ele>441</ele>
        <time>2015-06-28T08:06:13.000Z</time>
      </trkpt>
      <trkpt lat="47.46117" lon="6.72678">
        <ele>441</ele>
        <time>2015-06-28T08:06:14.000Z</time>
      </trkpt>
      <trkpt lat="47.46114" lon="6.72675">
        <ele>441</ele>
        <time>2015-06-28T08:06:15.000Z</time>
      </trkpt>
      <trkpt lat="47.4611" lon="6.72671">
        <ele>441</ele>
        <time>2015-06-28T08:06:16.000Z</time>
      </trkpt>
      <trkpt lat="47.46106" lon="6.72667">
        <ele>439</ele>
        <time>2015-06-28T08:06:17.000Z</time>
      </trkpt>
      <trkpt lat="47.46102" lon="6.72662">
        <ele>439</ele>
        <time>2015-06-28T08:06:18.000Z</time>
      </trkpt>
      <trkpt lat="47.46091" lon="6.7265">
        <ele>439</ele>
        <time>2015-06-28T08:06:19.000Z</time>
      </trkpt>
      <trkpt lat="47.46087" lon="6.72645">
        <ele>439</ele>
        <time>2015-06-28T08:06:20.000Z</time>
      </trkpt>
      <trkpt lat="47.46084" lon="6.72639">
        <ele>439</ele>
        <time>2015-06-28T08:06:21.000Z</time>
      </trkpt>
      <trkpt lat="47.46081" lon="6.72633">
        <ele>441</ele>
        <time>2015-06-28T08:06:22.000Z</time>
      </trkpt>
      <trkpt lat="47.46077" lon="6.72629">
        <ele>441</ele>
        <time>2015-06-28T08:06:23.000Z</time>
      </trkpt>
      <trkpt lat="47.46074" lon="6.72625">
        <ele>440</ele>
        <time>2015-06-28T08:06:24.000Z</time>
      </trkpt>
      <trkpt lat="47.46068" lon="6.7262">
        <ele>440</ele>
        <time>2015-06-28T08:06:25.000Z</time>
      </trkpt>
      <trkpt lat="47.46064" lon="6.72614">
        <ele>440</ele>
        <time>2015-06-28T08:06:26.000Z</time>
      </trkpt>
      <trkpt lat="47.4606" lon="6.7261">
        <ele>440</ele>
        <time>2015-06-28T08:06:27.000Z</time>
      </trkpt>
      <trkpt lat="47.46057" lon="6.72605">
        <ele>440</ele>
        <time>2015-06-28T08:06:28.000Z</time>
      </trkpt>
      <trkpt lat="47.46053" lon="6.726">
        <ele>440</ele>
        <time>2015-06-28T08:06:29.000Z</time>
      </trkpt>
      <trkpt lat="47.46047" lon="6.72596">
        <ele>440</ele>
        <time>2015-06-28T08:06:30.000Z</time>
      </trkpt>
      <trkpt lat="47.46043" lon="6.72591">
        <ele>440</ele>
        <time>2015-06-28T08:06:31.000Z</time>
      </trkpt>
      <trkpt lat="47.46039" lon="6.72587">
        <ele>440</ele>
        <time>2015-06-28T08:06:32.000Z</time>
      </trkpt>
      <trkpt lat="47.46036" lon="6.72582">
        <ele>438</ele>
        <time>2015-06-28T08:06:33.000Z</time>
      </trkpt>
      <trkpt lat="47.46031" lon="6.72577">
        <ele>438</ele>
        <time>2015-06-28T08:06:34.000Z</time>
      </trkpt>
      <trkpt lat="47.46026" lon="6.72572">
        <ele>438</ele>
        <time>2015-06-28T08:06:35.000Z</time>
      </trkpt>
      <trkpt lat="47.46022" lon="6.72567">
        <ele>438</ele>
        <time>2015-06-28T08:06:36.000Z</time>
      </trkpt>
      <trkpt lat="47.4602" lon="6.72562">
        <ele>438</ele>
        <time>2015-06-28T08:06:37.000Z</time>
      </trkpt>
      <trkpt lat="47.46017" lon="6.72558">
        <ele>438</ele>
        <time>2015-06-28T08:06:38.000Z</time>
      </trkpt>
      <trkpt lat="47.46012" lon="6.72555">
        <ele>438</ele>
        <time>2015-06-28T08:06:39.000Z</time>
      </trkpt>
      <trkpt lat="47.46008" lon="6.72551">
        <ele>438</ele>
        <time>2015-06-28T08:06:40.000Z</time>
      </trkpt>
      <trkpt lat="47.46003" lon="6.72547">
        <ele>438</ele>
        <time>2015-06-28T08:06:41.000Z</time>
      </trkpt>
      <trkpt lat="47.46" lon="6.72543">
        <ele>439</ele>
        <time>2015-06-28T08:06:42.000Z</time>
      </trkpt>
      <trkpt lat="47.45999" lon="6.72542">
        <ele>439</ele>
        <time>2015-06-28T08:06:43.000Z</time>
      </trkpt>
      <trkpt lat="47.45996" lon="6.72539">
        <ele>439</ele>
        <time>2015-06-28T08:06:44.000Z</time>
      </trkpt>
      <trkpt lat="47.45994" lon="6.72538">
        <ele>439</ele>
        <time>2015-06-28T08:06:45.000Z</time>
      </trkpt>
      <trkpt lat="47.45992" lon="6.72537">
        <ele>439</ele>
        <time>2015-06-28T08:06:46.000Z</time>
      </trkpt>
      <trkpt lat="47.45989" lon="6.72537">
        <ele>439</ele>
        <time>2015-06-28T08:06:47.000Z</time>
      </trkpt>
      <trkpt lat="47.45985" lon="6.72535">
        <ele>439</ele>
        <time>2015-06-28T08:06:52.000Z</time>
      </trkpt>
      <trkpt lat="47.45984" lon="6.72535">
        <ele>439</ele>
        <time>2015-06-28T08:06:53.000Z</time>
      </trkpt>
      <trkpt lat="47.4598" lon="6.72534">
        <ele>439</ele>
        <time>2015-06-28T08:07:02.000Z</time>
      </trkpt>
      <trkpt lat="47.4598" lon="6.72534">
        <ele>439</ele>
        <time>2015-06-28T08:07:03.000Z</time>
      </trkpt>
      <trkpt lat="47.45978" lon="6.72529">
        <ele>439</ele>
        <time>2015-06-28T08:07:04.000Z</time>
      </trkpt>
      <trkpt lat="47.45978" lon="6.72525">
        <ele>439</ele>
        <time>2015-06-28T08:07:05.000Z</time>
      </trkpt>
      <trkpt lat="47.45978" lon="6.72521">
        <ele>439</ele>
        <time>2015-06-28T08:07:06.000Z</time>
      </trkpt>
      <trkpt lat="47.45978" lon="6.72516">
        <ele>439</ele>
        <time>2015-06-28T08:07:07.000Z</time>
      </trkpt>
      <trkpt lat="47.45978" lon="6.7251">
        <ele>439</ele>
        <time>2015-06-28T08:07:08.000Z</time>
      </trkpt>
      <trkpt lat="47.45979" lon="6.72504">
        <ele>439</ele>
        <time>2015-06-28T08:07:09.000Z</time>
      </trkpt>
      <trkpt lat="47.4598" lon="6.72498">
        <ele>439</ele>
        <time>2015-06-28T08:07:10.000Z</time>
      </trkpt>
      <trkpt lat="47.45981" lon="6.72494">
        <ele>439</ele>
        <time>2015-06-28T08:07:11.000Z</time>
      </trkpt>
      <trkpt lat="47.45982" lon="6.72489">
        <ele>439</ele>
        <time>2015-06-28T08:07:12.000Z</time>
      </trkpt>
      <trkpt lat="47.45982" lon="6.72484">
        <ele>439</ele>
        <time>2015-06-28T08:07:13.000Z</time>
      </trkpt>
      <trkpt lat="47.45983" lon="6.72479">
        <ele>439</ele>
        <time>2015-06-28T08:07:14.000Z</time>
      </trkpt>
      <trkpt lat="47.45983" lon="6.72474">
        <ele>439</ele>
        <time>2015-06-28T08:07:15.000Z</time>
      </trkpt>
      <trkpt lat="47.45983" lon="6.7247">
        <ele>439</ele>
        <time>2015-06-28T08:07:16.000Z</time>
      </trkpt>
      <trkpt lat="47.45984" lon="6.72465">
        <ele>439</ele>
        <time>2015-06-28T08:07:17.000Z</time>
      </trkpt>
      <trkpt lat="47.45984" lon="6.7246">
        <ele>439</ele>
        <time>2015-06-28T08:07:18.000Z</time>
      </trkpt>
      <trkpt lat="47.45984" lon="6.72455">
        <ele>439</ele>
        <time>2015-06-28T08:07:19.000Z</time>
      </trkpt>
      <trkpt lat="47.45985" lon="6.72452">
        <ele>439</ele>
        <time>2015-06-28T08:07:20.030Z</time>
      </trkpt>
      <trkpt lat="47.45983" lon="6.72445">
        <ele>439</ele>
        <time>2015-06-28T08:07:21.000Z</time>
      </trkpt>
      <trkpt lat="47.45982" lon="6.7244">
        <ele>439</ele>
        <time>2015-06-28T08:07:22.000Z</time>
      </trkpt>
      <trkpt lat="47.45981" lon="6.72435">
        <ele>439</ele>
        <time>2015-06-28T08:07:23.000Z</time>
      </trkpt>
      <trkpt lat="47.45979" lon="6.7243">
        <ele>439</ele>
        <time>2015-06-28T08:07:24.000Z</time>
      </trkpt>
      <trkpt lat="47.45977" lon="6.72425">
        <ele>439</ele>
        <time>2015-06-28T08:07:25.000Z</time>
      </trkpt>
      <trkpt lat="47.45974" lon="6.72421">
        <ele>439</ele>
        <time>2015-06-28T08:07:26.000Z</time>
      </trkpt>
      <trkpt lat="47.45972" lon="6.72416">
        <ele>438</ele>
        <time>2015-06-28T08:07:27.000Z</time>
      </trkpt>
      <trkpt lat="47.45969" lon="6.72412">
        <ele>438</ele>
        <time>2015-06-28T08:07:28.000Z</time>
      </trkpt>
      <trkpt lat="47.45966" lon="6.72407">
        <ele>438</ele>
        <time>2015-06-28T08:07:29.000Z</time>
      </trkpt>
      <trkpt lat="47.45963" lon="6.72403">
        <ele>438</ele>
        <time>2015-06-28T08:07:30.000Z</time>
      </trkpt>
      <trkpt lat="47.4596" lon="6.72399">
        <ele>438</ele>
        <time>2015-06-28T08:07:31.000Z</time>
      </trkpt>
      <trkpt lat="47.45958" lon="6.72395">
        <ele>438</ele>
        <time>2015-06-28T08:07:32.000Z</time>
      </trkpt>
      <trkpt lat="47.45955" lon="6.72391">
        <ele>438</ele>
        <time>2015-06-28T08:07:33.000Z</time>
      </trkpt>
      <trkpt lat="47.45953" lon="6.72387">
        <ele>438</ele>
        <time>2015-06-28T08:07:34.000Z</time>
      </trkpt>
      <trkpt lat="47.45951" lon="6.72382">
        <ele>438</ele>
        <time>2015-06-28T08:07:35.000Z</time>
      </trkpt>
      <trkpt lat="47.45949" lon="6.72377">
        <ele>438</ele>
        <time>2015-06-28T08:07:36.000Z</time>
      </trkpt>
      <trkpt lat="47.45948" lon="6.72373">
        <ele>438</ele>
        <time>2015-06-28T08:07:37.000Z</time>
      </trkpt>
      <trkpt lat="47.45947" lon="6.72369">
        <ele>438</ele>
        <time>2015-06-28T08:07:38.000Z</time>
      </trkpt>
      <trkpt lat="47.45946" lon="6.72365">
        <ele>438</ele>
        <time>2015-06-28T08:07:39.000Z</time>
      </trkpt>
      <trkpt lat="47.45945" lon="6.72361">
        <ele>438</ele>
        <time>2015-06-28T08:07:40.000Z</time>
      </trkpt>
      <trkpt lat="47.45945" lon="6.72357">
        <ele>438</ele>
        <time>2015-06-28T08:07:41.000Z</time>
      </trkpt>
      <trkpt lat="47.45951" lon="6.72346">
        <ele>438</ele>
        <time>2015-06-28T08:07:42.000Z</time>
      </trkpt>
      <trkpt lat="47.45951" lon="6.72342">
        <ele>438</ele>
        <time>2015-06-28T08:07:43.000Z</time>
      </trkpt>
      <trkpt lat="47.45952" lon="6.72337">
        <ele>438</ele>
        <time>2015-06-28T08:07:44.000Z</time>
      </trkpt>
      <trkpt lat="47.45952" lon="6.72333">
        <ele>437</ele>
        <time>2015-06-28T08:07:45.000Z</time>
      </trkpt>
      <trkpt lat="47.45952" lon="6.72328">
        <ele>437</ele>
        <time>2015-06-28T08:07:46.000Z</time>
      </trkpt>
      <trkpt lat="47.45953" lon="6.72322">
        <ele>437</ele>
        <time>2015-06-28T08:07:47.000Z</time>
      </trkpt>
      <trkpt lat="47.45953" lon="6.72317">
        <ele>437</ele>
        <time>2015-06-28T08:07:48.000Z</time>
      </trkpt>
      <trkpt lat="47.45951" lon="6.72312">
        <ele>437</ele>
        <time>2015-06-28T08:07:49.000Z</time>
      </trkpt>
      <trkpt lat="47.45949" lon="6.72307">
        <ele>437</ele>
        <time>2015-06-28T08:07:50.000Z</time>
      </trkpt>
      <trkpt lat="47.45946" lon="6.72302">
        <ele>437</ele>
        <time>2015-06-28T08:07:52.000Z</time>
      </trkpt>
      <trkpt lat="47.45944" lon="6.72301">
        <ele>437</ele>
        <time>2015-06-28T08:07:53.000Z</time>
      </trkpt>
      <trkpt lat="47.4594" lon="6.72298">
        <ele>437</ele>
        <time>2015-06-28T08:07:55.000Z</time>
      </trkpt>
      <trkpt lat="47.45939" lon="6.72296">
        <ele>437</ele>
        <time>2015-06-28T08:07:56.000Z</time>
      </trkpt>
      <trkpt lat="47.45935" lon="6.72294">
        <ele>437</ele>
        <time>2015-06-28T08:07:58.000Z</time>
      </trkpt>
      <trkpt lat="47.45932" lon="6.72294">
        <ele>438</ele>
        <time>2015-06-28T08:07:59.000Z</time>
      </trkpt>
      <trkpt lat="47.45928" lon="6.72293">
        <ele>438</ele>
        <time>2015-06-28T08:08:02.000Z</time>
      </trkpt>
      <trkpt lat="47.45927" lon="6.72294">
        <ele>438</ele>
        <time>2015-06-28T08:08:03.000Z</time>
      </trkpt>
      <trkpt lat="47.45927" lon="6.72288">
        <ele>438</ele>
        <time>2015-06-28T08:08:12.000Z</time>
      </trkpt>
      <trkpt lat="47.45928" lon="6.72286">
        <ele>438</ele>
        <time>2015-06-28T08:08:13.000Z</time>
      </trkpt>
      <trkpt lat="47.45931" lon="6.72284">
        <ele>438</ele>
        <time>2015-06-28T08:08:15.000Z</time>
      </trkpt>
      <trkpt lat="47.45933" lon="6.72283">
        <ele>437</ele>
        <time>2015-06-28T08:08:16.000Z</time>
      </trkpt>
      <trkpt lat="47.45936" lon="6.72281">
        <ele>437</ele>
        <time>2015-06-28T08:08:19.000Z</time>
      </trkpt>
      <trkpt lat="47.45937" lon="6.72281">
        <ele>437</ele>
        <time>2015-06-28T08:08:20.000Z</time>
      </trkpt>
      <trkpt lat="47.45941" lon="6.72282">
        <ele>437</ele>
        <time>2015-06-28T08:08:29.000Z</time>
      </trkpt>
      <trkpt lat="47.45942" lon="6.72282">
        <ele>437</ele>
        <time>2015-06-28T08:08:30.000Z</time>
      </trkpt>
      <trkpt lat="47.45945" lon="6.7228">
        <ele>437</ele>
        <time>2015-06-28T08:08:51.000Z</time>
      </trkpt>
      <trkpt lat="47.45946" lon="6.72279">
        <ele>437</ele>
        <time>2015-06-28T08:08:52.000Z</time>
      </trkpt>
      <trkpt lat="47.45948" lon="6.72273">
        <ele>437</ele>
        <time>2015-06-28T08:09:00.000Z</time>
      </trkpt>
      <trkpt lat="47.45948" lon="6.72272">
        <ele>437</ele>
        <time>2015-06-28T08:09:01.000Z</time>
      </trkpt>
      <trkpt lat="47.45951" lon="6.72272">
        <ele>437</ele>
        <time>2015-06-28T08:09:20.000Z</time>
      </trkpt>
      <trkpt lat="47.45952" lon="6.72273">
        <ele>437</ele>
        <time>2015-06-28T08:09:21.000Z</time>
      </trkpt>
      <trkpt lat="47.45955" lon="6.72276">
        <ele>437</ele>
        <time>2015-06-28T08:09:24.000Z</time>
      </trkpt>
      <trkpt lat="47.45957" lon="6.72276">
        <ele>437</ele>
        <time>2015-06-28T08:09:25.000Z</time>
      </trkpt>
      <trkpt lat="47.45961" lon="6.72276">
        <ele>437</ele>
        <time>2015-06-28T08:09:27.000Z</time>
      </trkpt>
      <trkpt lat="47.45963" lon="6.72276">
        <ele>437</ele>
        <time>2015-06-28T08:09:28.000Z</time>
      </trkpt>
      <trkpt lat="47.45967" lon="6.72274">
        <ele>436</ele>
        <time>2015-06-28T08:09:30.000Z</time>
      </trkpt>
      <trkpt lat="47.45969" lon="6.72274">
        <ele>436</ele>
        <time>2015-06-28T08:09:31.000Z</time>
      </trkpt>
      <trkpt lat="47.45971" lon="6.72273">
        <ele>436</ele>
        <time>2015-06-28T08:09:33.000Z</time>
      </trkpt>
      <trkpt lat="47.45973" lon="6.72272">
        <ele>436</ele>
        <time>2015-06-28T08:09:34.000Z</time>
      </trkpt>
      <trkpt lat="47.45976" lon="6.7227">
        <ele>436</ele>
        <time>2015-06-28T08:09:35.000Z</time>
      </trkpt>
      <trkpt lat="47.45979" lon="6.72268">
        <ele>436</ele>
        <time>2015-06-28T08:09:36.000Z</time>
      </trkpt>
      <trkpt lat="47.45982" lon="6.72264">
        <ele>436</ele>
        <time>2015-06-28T08:09:37.000Z</time>
      </trkpt>
      <trkpt lat="47.45984" lon="6.7226">
        <ele>435</ele>
        <time>2015-06-28T08:09:38.000Z</time>
      </trkpt>
      <trkpt lat="47.45987" lon="6.72255">
        <ele>435</ele>
        <time>2015-06-28T08:09:39.000Z</time>
      </trkpt>
      <trkpt lat="47.45989" lon="6.72249">
        <ele>435</ele>
        <time>2015-06-28T08:09:40.000Z</time>
      </trkpt>
      <trkpt lat="47.45991" lon="6.72242">
        <ele>435</ele>
        <time>2015-06-28T08:09:41.000Z</time>
      </trkpt>
      <trkpt lat="47.45993" lon="6.72236">
        <ele>435</ele>
        <time>2015-06-28T08:09:42.000Z</time>
      </trkpt>
      <trkpt lat="47.45995" lon="6.7223">
        <ele>436</ele>
        <time>2015-06-28T08:09:43.000Z</time>
      </trkpt>
      <trkpt lat="47.45996" lon="6.72224">
        <ele>436</ele>
        <time>2015-06-28T08:09:44.000Z</time>
      </trkpt>
      <trkpt lat="47.45997" lon="6.72219">
        <ele>436</ele>
        <time>2015-06-28T08:09:45.000Z</time>
      </trkpt>
      <trkpt lat="47.45997" lon="6.72214">
        <ele>436</ele>
        <time>2015-06-28T08:09:46.000Z</time>
      </trkpt>
      <trkpt lat="47.45997" lon="6.72209">
        <ele>436</ele>
        <time>2015-06-28T08:09:47.000Z</time>
      </trkpt>
      <trkpt lat="47.45997" lon="6.72204">
        <ele>436</ele>
        <time>2015-06-28T08:09:48.000Z</time>
      </trkpt>
      <trkpt lat="47.45997" lon="6.72198">
        <ele>436</ele>
        <time>2015-06-28T08:09:49.000Z</time>
      </trkpt>
      <trkpt lat="47.45997" lon="6.72191">
        <ele>436</ele>
        <time>2015-06-28T08:09:50.000Z</time>
      </trkpt>
      <trkpt lat="47.45996" lon="6.72183">
        <ele>435</ele>
        <time>2015-06-28T08:09:51.000Z</time>
      </trkpt>
      <trkpt lat="47.45996" lon="6.72175">
        <ele>435</ele>
        <time>2015-06-28T08:09:52.000Z</time>
      </trkpt>
      <trkpt lat="47.45996" lon="6.72167">
        <ele>435</ele>
        <time>2015-06-28T08:09:53.000Z</time>
      </trkpt>
      <trkpt lat="47.45995" lon="6.7216">
        <ele>435</ele>
        <time>2015-06-28T08:09:54.000Z</time>
      </trkpt>
      <trkpt lat="47.45994" lon="6.72154">
        <ele>435</ele>
        <time>2015-06-28T08:09:55.000Z</time>
      </trkpt>
      <trkpt lat="47.45994" lon="6.72148">
        <ele>436</ele>
        <time>2015-06-28T08:09:56.000Z</time>
      </trkpt>
      <trkpt lat="47.45995" lon="6.72143">
        <ele>436</ele>
        <time>2015-06-28T08:09:57.000Z</time>
      </trkpt>
      <trkpt lat="47.45996" lon="6.72137">
        <ele>436</ele>
        <time>2015-06-28T08:09:58.000Z</time>
      </trkpt>
      <trkpt lat="47.45996" lon="6.72132">
        <ele>436</ele>
        <time>2015-06-28T08:09:59.000Z</time>
      </trkpt>
      <trkpt lat="47.45997" lon="6.72126">
        <ele>436</ele>
        <time>2015-06-28T08:10:00.000Z</time>
      </trkpt>
      <trkpt lat="47.45997" lon="6.72121">
        <ele>436</ele>
        <time>2015-06-28T08:10:01.000Z</time>
      </trkpt>
      <trkpt lat="47.45997" lon="6.72116">
        <ele>435</ele>
        <time>2015-06-28T08:10:02.000Z</time>
      </trkpt>
      <trkpt lat="47.45997" lon="6.72111">
        <ele>435</ele>
        <time>2015-06-28T08:10:03.000Z</time>
      </trkpt>
      <trkpt lat="47.45997" lon="6.72105">
        <ele>435</ele>
        <time>2015-06-28T08:10:04.000Z</time>
      </trkpt>
      <trkpt lat="47.45996" lon="6.72101">
        <ele>435</ele>
        <time>2015-06-28T08:10:05.000Z</time>
      </trkpt>
      <trkpt lat="47.45996" lon="6.72096">
        <ele>434</ele>
        <time>2015-06-28T08:10:06.000Z</time>
      </trkpt>
      <trkpt lat="47.45996" lon="6.72092">
        <ele>434</ele>
        <time>2015-06-28T08:10:07.000Z</time>
      </trkpt>
      <trkpt lat="47.45997" lon="6.72089">
        <ele>433</ele>
        <time>2015-06-28T08:10:08.000Z</time>
      </trkpt>
      <trkpt lat="47.45998" lon="6.72083">
        <ele>432</ele>
        <time>2015-06-28T08:10:10.000Z</time>
      </trkpt>
      <trkpt lat="47.45998" lon="6.72079">
        <ele>433</ele>
        <time>2015-06-28T08:10:11.000Z</time>
      </trkpt>
      <trkpt lat="47.45999" lon="6.72074">
        <ele>433</ele>
        <time>2015-06-28T08:10:13.000Z</time>
      </trkpt>
      <trkpt lat="47.45999" lon="6.72071">
        <ele>434</ele>
        <time>2015-06-28T08:10:14.000Z</time>
      </trkpt>
      <trkpt lat="47.45998" lon="6.72065">
        <ele>434</ele>
        <time>2015-06-28T08:10:16.000Z</time>
      </trkpt>
      <trkpt lat="47.45997" lon="6.72061">
        <ele>434</ele>
        <time>2015-06-28T08:10:17.000Z</time>
      </trkpt>
      <trkpt lat="47.45995" lon="6.72057">
        <ele>434</ele>
        <time>2015-06-28T08:10:18.000Z</time>
      </trkpt>
      <trkpt lat="47.45994" lon="6.72052">
        <ele>434</ele>
        <time>2015-06-28T08:10:19.000Z</time>
      </trkpt>
      <trkpt lat="47.45992" lon="6.72048">
        <ele>434</ele>
        <time>2015-06-28T08:10:20.000Z</time>
      </trkpt>
      <trkpt lat="47.4599" lon="6.72045">
        <ele>434</ele>
        <time>2015-06-28T08:10:21.000Z</time>
      </trkpt>
      <trkpt lat="47.45989" lon="6.72042">
        <ele>434</ele>
        <time>2015-06-28T08:10:22.000Z</time>
      </trkpt>
      <trkpt lat="47.45987" lon="6.72039">
        <ele>434</ele>
        <time>2015-06-28T08:10:23.000Z</time>
      </trkpt>
      <trkpt lat="47.45985" lon="6.72034">
        <ele>434</ele>
        <time>2015-06-28T08:10:25.000Z</time>
      </trkpt>
      <trkpt lat="47.45984" lon="6.72031">
        <ele>434</ele>
        <time>2015-06-28T08:10:26.000Z</time>
      </trkpt>
      <trkpt lat="47.45983" lon="6.72026">
        <ele>434</ele>
        <time>2015-06-28T08:10:29.000Z</time>
      </trkpt>
      <trkpt lat="47.45983" lon="6.72024">
        <ele>434</ele>
        <time>2015-06-28T08:10:30.000Z</time>
      </trkpt>
      <trkpt lat="47.45982" lon="6.72018">
        <ele>434</ele>
        <time>2015-06-28T08:10:32.000Z</time>
      </trkpt>
      <trkpt lat="47.45982" lon="6.72015">
        <ele>433</ele>
        <time>2015-06-28T08:10:33.000Z</time>
      </trkpt>
      <trkpt lat="47.45982" lon="6.72011">
        <ele>433</ele>
        <time>2015-06-28T08:10:34.000Z</time>
      </trkpt>
      <trkpt lat="47.45982" lon="6.72008">
        <ele>433</ele>
        <time>2015-06-28T08:10:35.000Z</time>
      </trkpt>
      <trkpt lat="47.45981" lon="6.72005">
        <ele>433</ele>
        <time>2015-06-28T08:10:36.000Z</time>
      </trkpt>
      <trkpt lat="47.45981" lon="6.72001">
        <ele>433</ele>
        <time>2015-06-28T08:10:37.000Z</time>
      </trkpt>
      <trkpt lat="47.4598" lon="6.71998">
        <ele>432</ele>
        <time>2015-06-28T08:10:38.000Z</time>
      </trkpt>
      <trkpt lat="47.45979" lon="6.71995">
        <ele>432</ele>
        <time>2015-06-28T08:10:39.000Z</time>
      </trkpt>
      <trkpt lat="47.45978" lon="6.71992">
        <ele>432</ele>
        <time>2015-06-28T08:10:40.000Z</time>
      </trkpt>
      <trkpt lat="47.45977" lon="6.71988">
        <ele>432</ele>
        <time>2015-06-28T08:10:41.000Z</time>
      </trkpt>
      <trkpt lat="47.45977" lon="6.71983">
        <ele>432</ele>
        <time>2015-06-28T08:10:42.000Z</time>
      </trkpt>
      <trkpt lat="47.45976" lon="6.71978">
        <ele>432</ele>
        <time>2015-06-28T08:10:43.000Z</time>
      </trkpt>
      <trkpt lat="47.45976" lon="6.71972">
        <ele>432</ele>
        <time>2015-06-28T08:10:44.000Z</time>
      </trkpt>
      <trkpt lat="47.45975" lon="6.71966">
        <ele>432</ele>
        <time>2015-06-28T08:10:45.000Z</time>
      </trkpt>
      <trkpt lat="47.45974" lon="6.71959">
        <ele>432</ele>
        <time>2015-06-28T08:10:46.000Z</time>
      </trkpt>
      <trkpt lat="47.45973" lon="6.71952">
        <ele>432</ele>
        <time>2015-06-28T08:10:47.000Z</time>
      </trkpt>
      <trkpt lat="47.45972" lon="6.71946">
        <ele>432</ele>
        <time>2015-06-28T08:10:48.000Z</time>
      </trkpt>
      <trkpt lat="47.45972" lon="6.71939">
        <ele>432</ele>
        <time>2015-06-28T08:10:49.000Z</time>
      </trkpt>
      <trkpt lat="47.45971" lon="6.71932">
        <ele>432</ele>
        <time>2015-06-28T08:10:50.000Z</time>
      </trkpt>
      <trkpt lat="47.45971" lon="6.71926">
        <ele>431</ele>
        <time>2015-06-28T08:10:51.000Z</time>
      </trkpt>
      <trkpt lat="47.4597" lon="6.71919">
        <ele>431</ele>
        <time>2015-06-28T08:10:52.000Z</time>
      </trkpt>
      <trkpt lat="47.4597" lon="6.71913">
        <ele>429</ele>
        <time>2015-06-28T08:10:53.000Z</time>
      </trkpt>
      <trkpt lat="47.45969" lon="6.71906">
        <ele>429</ele>
        <time>2015-06-28T08:10:54.000Z</time>
      </trkpt>
      <trkpt lat="47.45969" lon="6.719">
        <ele>429</ele>
        <time>2015-06-28T08:10:55.000Z</time>
      </trkpt>
      <trkpt lat="47.45969" lon="6.71893">
        <ele>429</ele>
        <time>2015-06-28T08:10:56.000Z</time>
      </trkpt>
      <trkpt lat="47.45969" lon="6.71886">
        <ele>429</ele>
        <time>2015-06-28T08:10:57.000Z</time>
      </trkpt>
      <trkpt lat="47.45969" lon="6.7188">
        <ele>428</ele>
        <time>2015-06-28T08:10:58.000Z</time>
      </trkpt>
      <trkpt lat="47.45969" lon="6.71873">
        <ele>428</ele>
        <time>2015-06-28T08:10:59.000Z</time>
      </trkpt>
      <trkpt lat="47.45969" lon="6.71868">
        <ele>428</ele>
        <time>2015-06-28T08:11:00.000Z</time>
      </trkpt>
      <trkpt lat="47.45969" lon="6.71862">
        <ele>428</ele>
        <time>2015-06-28T08:11:01.000Z</time>
      </trkpt>
      <trkpt lat="47.45969" lon="6.71857">
        <ele>428</ele>
        <time>2015-06-28T08:11:02.000Z</time>
      </trkpt>
      <trkpt lat="47.45968" lon="6.71852">
        <ele>427</ele>
        <time>2015-06-28T08:11:03.000Z</time>
      </trkpt>
      <trkpt lat="47.45968" lon="6.71847">
        <ele>427</ele>
        <time>2015-06-28T08:11:04.000Z</time>
      </trkpt>
      <trkpt lat="47.45968" lon="6.71841">
        <ele>427</ele>
        <time>2015-06-28T08:11:05.000Z</time>
      </trkpt>
      <trkpt lat="47.45968" lon="6.71836">
        <ele>427</ele>
        <time>2015-06-28T08:11:06.000Z</time>
      </trkpt>
      <trkpt lat="47.45969" lon="6.7183">
        <ele>425</ele>
        <time>2015-06-28T08:11:07.000Z</time>
      </trkpt>
      <trkpt lat="47.4597" lon="6.71824">
        <ele>425</ele>
        <time>2015-06-28T08:11:08.000Z</time>
      </trkpt>
      <trkpt lat="47.45971" lon="6.71818">
        <ele>425</ele>
        <time>2015-06-28T08:11:09.000Z</time>
      </trkpt>
      <trkpt lat="47.45971" lon="6.71812">
        <ele>425</ele>
        <time>2015-06-28T08:11:10.000Z</time>
      </trkpt>
      <trkpt lat="47.4597" lon="6.71805">
        <ele>425</ele>
        <time>2015-06-28T08:11:11.000Z</time>
      </trkpt>
      <trkpt lat="47.45969" lon="6.71799">
        <ele>425</ele>
        <time>2015-06-28T08:11:12.000Z</time>
      </trkpt>
      <trkpt lat="47.45968" lon="6.71794">
        <ele>425</ele>
        <time>2015-06-28T08:11:13.000Z</time>
      </trkpt>
      <trkpt lat="47.45966" lon="6.71788">
        <ele>425</ele>
        <time>2015-06-28T08:11:14.000Z</time>
      </trkpt>
      <trkpt lat="47.45964" lon="6.71782">
        <ele>425</ele>
        <time>2015-06-28T08:11:15.000Z</time>
      </trkpt>
      <trkpt lat="47.45963" lon="6.71776">
        <ele>425</ele>
        <time>2015-06-28T08:11:16.000Z</time>
      </trkpt>
      <trkpt lat="47.45961" lon="6.71771">
        <ele>425</ele>
        <time>2015-06-28T08:11:17.000Z</time>
      </trkpt>
      <trkpt lat="47.4596" lon="6.71765">
        <ele>425</ele>
        <time>2015-06-28T08:11:18.000Z</time>
      </trkpt>
      <trkpt lat="47.45959" lon="6.7176">
        <ele>425</ele>
        <time>2015-06-28T08:11:19.000Z</time>
      </trkpt>
      <trkpt lat="47.45957" lon="6.71754">
        <ele>425</ele>
        <time>2015-06-28T08:11:20.000Z</time>
      </trkpt>
      <trkpt lat="47.45956" lon="6.71749">
        <ele>424</ele>
        <time>2015-06-28T08:11:21.000Z</time>
      </trkpt>
      <trkpt lat="47.45954" lon="6.71745">
        <ele>424</ele>
        <time>2015-06-28T08:11:22.000Z</time>
      </trkpt>
      <trkpt lat="47.45953" lon="6.7174">
        <ele>424</ele>
        <time>2015-06-28T08:11:23.000Z</time>
      </trkpt>
      <trkpt lat="47.45952" lon="6.71736">
        <ele>424</ele>
        <time>2015-06-28T08:11:24.000Z</time>
      </trkpt>
      <trkpt lat="47.45951" lon="6.71731">
        <ele>424</ele>
        <time>2015-06-28T08:11:25.000Z</time>
      </trkpt>
      <trkpt lat="47.45951" lon="6.71726">
        <ele>424</ele>
        <time>2015-06-28T08:11:26.000Z</time>
      </trkpt>
      <trkpt lat="47.45951" lon="6.71721">
        <ele>423</ele>
        <time>2015-06-28T08:11:27.000Z</time>
      </trkpt>
      <trkpt lat="47.45952" lon="6.71715">
        <ele>423</ele>
        <time>2015-06-28T08:11:28.000Z</time>
      </trkpt>
      <trkpt lat="47.45952" lon="6.71707">
        <ele>423</ele>
        <time>2015-06-28T08:11:29.000Z</time>
      </trkpt>
      <trkpt lat="47.45951" lon="6.71677">
        <ele>422</ele>
        <time>2015-06-28T08:11:30.000Z</time>
      </trkpt>
      <trkpt lat="47.4595" lon="6.71663">
        <ele>418</ele>
        <time>2015-06-28T08:11:31.000Z</time>
      </trkpt>
      <trkpt lat="47.45946" lon="6.71648">
        <ele>418</ele>
        <time>2015-06-28T08:11:32.000Z</time>
      </trkpt>
      <trkpt lat="47.45942" lon="6.71632">
        <ele>417</ele>
        <time>2015-06-28T08:11:33.000Z</time>
      </trkpt>
      <trkpt lat="47.45943" lon="6.71625">
        <ele>417</ele>
        <time>2015-06-28T08:11:34.000Z</time>
      </trkpt>
      <trkpt lat="47.4594" lon="6.71613">
        <ele>416</ele>
        <time>2015-06-28T08:11:35.000Z</time>
      </trkpt>
      <trkpt lat="47.45939" lon="6.71605">
        <ele>416</ele>
        <time>2015-06-28T08:11:36.000Z</time>
      </trkpt>
      <trkpt lat="47.45937" lon="6.71599">
        <ele>416</ele>
        <time>2015-06-28T08:11:37.000Z</time>
      </trkpt>
      <trkpt lat="47.45934" lon="6.71596">
        <ele>416</ele>
        <time>2015-06-28T08:11:38.000Z</time>
      </trkpt>
      <trkpt lat="47.45931" lon="6.71593">
        <ele>416</ele>
        <time>2015-06-28T08:11:39.000Z</time>
      </trkpt>
      <trkpt lat="47.45919" lon="6.71596">
        <ele>416</ele>
        <time>2015-06-28T08:11:40.000Z</time>
      </trkpt>
      <trkpt lat="47.45913" lon="6.71595">
        <ele>419</ele>
        <time>2015-06-28T08:11:41.000Z</time>
      </trkpt>
      <trkpt lat="47.45909" lon="6.71595">
        <ele>419</ele>
        <time>2015-06-28T08:11:42.000Z</time>
      </trkpt>
      <trkpt lat="47.45905" lon="6.71595">
        <ele>419</ele>
        <time>2015-06-28T08:11:43.000Z</time>
      </trkpt>
      <trkpt lat="47.45901" lon="6.71597">
        <ele>420</ele>
        <time>2015-06-28T08:11:45.000Z</time>
      </trkpt>
      <trkpt lat="47.45899" lon="6.71597">
        <ele>420</ele>
        <time>2015-06-28T08:11:46.000Z</time>
      </trkpt>
      <trkpt lat="47.45897" lon="6.71597">
        <ele>420</ele>
        <time>2015-06-28T08:11:47.000Z</time>
      </trkpt>
      <trkpt lat="47.45894" lon="6.71595">
        <ele>420</ele>
        <time>2015-06-28T08:11:48.000Z</time>
      </trkpt>
      <trkpt lat="47.45892" lon="6.71594">
        <ele>420</ele>
        <time>2015-06-28T08:11:49.000Z</time>
      </trkpt>
      <trkpt lat="47.45889" lon="6.71594">
        <ele>421</ele>
        <time>2015-06-28T08:11:50.000Z</time>
      </trkpt>
      <trkpt lat="47.45886" lon="6.71595">
        <ele>421</ele>
        <time>2015-06-28T08:11:51.000Z</time>
      </trkpt>
      <trkpt lat="47.45884" lon="6.71595">
        <ele>421</ele>
        <time>2015-06-28T08:11:52.000Z</time>
      </trkpt>
      <trkpt lat="47.45881" lon="6.71596">
        <ele>421</ele>
        <time>2015-06-28T08:11:53.000Z</time>
      </trkpt>
      <trkpt lat="47.45879" lon="6.71596">
        <ele>421</ele>
        <time>2015-06-28T08:11:54.000Z</time>
      </trkpt>
      <trkpt lat="47.45876" lon="6.71595">
        <ele>421</ele>
        <time>2015-06-28T08:11:55.000Z</time>
      </trkpt>
      <trkpt lat="47.45873" lon="6.71594">
        <ele>421</ele>
        <time>2015-06-28T08:11:56.000Z</time>
      </trkpt>
      <trkpt lat="47.4587" lon="6.71592">
        <ele>421</ele>
        <time>2015-06-28T08:11:57.000Z</time>
      </trkpt>
      <trkpt lat="47.45869" lon="6.7159">
        <ele>421</ele>
        <time>2015-06-28T08:11:58.000Z</time>
      </trkpt>
      <trkpt lat="47.45871" lon="6.71585">
        <ele>421</ele>
        <time>2015-06-28T08:12:04.000Z</time>
      </trkpt>
      <trkpt lat="47.45872" lon="6.71585">
        <ele>421</ele>
        <time>2015-06-28T08:12:05.021Z</time>
      </trkpt>
      <trkpt lat="47.45869" lon="6.7158">
        <ele>416</ele>
        <time>2015-06-28T08:12:07.000Z</time>
      </trkpt>
      <trkpt lat="47.45868" lon="6.7158">
        <ele>416</ele>
        <time>2015-06-28T08:12:08.000Z</time>
      </trkpt>
      <trkpt lat="47.45864" lon="6.71581">
        <ele>416</ele>
        <time>2015-06-28T08:12:14.000Z</time>
      </trkpt>
      <trkpt lat="47.45863" lon="6.71581">
        <ele>416</ele>
        <time>2015-06-28T08:12:15.000Z</time>
      </trkpt>
      <trkpt lat="47.4586" lon="6.71579">
        <ele>416</ele>
        <time>2015-06-28T08:12:20.000Z</time>
      </trkpt>
      <trkpt lat="47.45859" lon="6.71579">
        <ele>416</ele>
        <time>2015-06-28T08:12:21.000Z</time>
      </trkpt>
      <trkpt lat="47.45854" lon="6.71579">
        <ele>417</ele>
        <time>2015-06-28T08:12:25.000Z</time>
      </trkpt>
      <trkpt lat="47.45853" lon="6.7158">
        <ele>417</ele>
        <time>2015-06-28T08:12:26.000Z</time>
      </trkpt>
      <trkpt lat="47.45851" lon="6.71583">
        <ele>417</ele>
        <time>2015-06-28T08:12:28.000Z</time>
      </trkpt>
      <trkpt lat="47.45849" lon="6.71584">
        <ele>421</ele>
        <time>2015-06-28T08:12:29.000Z</time>
      </trkpt>
      <trkpt lat="47.45845" lon="6.71583">
        <ele>420</ele>
        <time>2015-06-28T08:12:31.000Z</time>
      </trkpt>
      <trkpt lat="47.45843" lon="6.71583">
        <ele>418</ele>
        <time>2015-06-28T08:12:32.000Z</time>
      </trkpt>
      <trkpt lat="47.45839" lon="6.71583">
        <ele>420</ele>
        <time>2015-06-28T08:12:34.000Z</time>
      </trkpt>
      <trkpt lat="47.45836" lon="6.71584">
        <ele>419</ele>
        <time>2015-06-28T08:12:35.000Z</time>
      </trkpt>
      <trkpt lat="47.45834" lon="6.71584">
        <ele>419</ele>
        <time>2015-06-28T08:12:36.000Z</time>
      </trkpt>
      <trkpt lat="47.45832" lon="6.71585">
        <ele>419</ele>
        <time>2015-06-28T08:12:37.000Z</time>
      </trkpt>
      <trkpt lat="47.45829" lon="6.71586">
        <ele>420</ele>
        <time>2015-06-28T08:12:38.000Z</time>
      </trkpt>
      <trkpt lat="47.45827" lon="6.71586">
        <ele>420</ele>
        <time>2015-06-28T08:12:39.000Z</time>
      </trkpt>
      <trkpt lat="47.45824" lon="6.71587">
        <ele>420</ele>
        <time>2015-06-28T08:12:40.000Z</time>
      </trkpt>
      <trkpt lat="47.45822" lon="6.71588">
        <ele>421</ele>
        <time>2015-06-28T08:12:41.000Z</time>
      </trkpt>
      <trkpt lat="47.45819" lon="6.71589">
        <ele>421</ele>
        <time>2015-06-28T08:12:42.000Z</time>
      </trkpt>
      <trkpt lat="47.45816" lon="6.7159">
        <ele>421</ele>
        <time>2015-06-28T08:12:43.000Z</time>
      </trkpt>
      <trkpt lat="47.45814" lon="6.71592">
        <ele>421</ele>
        <time>2015-06-28T08:12:44.000Z</time>
      </trkpt>
      <trkpt lat="47.45812" lon="6.71593">
        <ele>421</ele>
        <time>2015-06-28T08:12:45.000Z</time>
      </trkpt>
      <trkpt lat="47.4581" lon="6.71595">
        <ele>421</ele>
        <time>2015-06-28T08:12:46.000Z</time>
      </trkpt>
      <trkpt lat="47.45808" lon="6.71596">
        <ele>422</ele>
        <time>2015-06-28T08:12:47.000Z</time>
      </trkpt>
      <trkpt lat="47.45805" lon="6.71597">
        <ele>422</ele>
        <time>2015-06-28T08:12:48.000Z</time>
      </trkpt>
      <trkpt lat="47.45803" lon="6.71598">
        <ele>422</ele>
        <time>2015-06-28T08:12:49.000Z</time>
      </trkpt>
      <trkpt lat="47.458" lon="6.716">
        <ele>422</ele>
        <time>2015-06-28T08:12:50.000Z</time>
      </trkpt>
      <trkpt lat="47.45797" lon="6.716">
        <ele>422</ele>
        <time>2015-06-28T08:12:51.000Z</time>
      </trkpt>
      <trkpt lat="47.45795" lon="6.71601">
        <ele>422</ele>
        <time>2015-06-28T08:12:52.000Z</time>
      </trkpt>
      <trkpt lat="47.45791" lon="6.71602">
        <ele>422</ele>
        <time>2015-06-28T08:12:53.000Z</time>
      </trkpt>
      <trkpt lat="47.45788" lon="6.71603">
        <ele>422</ele>
        <time>2015-06-28T08:12:54.000Z</time>
      </trkpt>
      <trkpt lat="47.45785" lon="6.71605">
        <ele>422</ele>
        <time>2015-06-28T08:12:55.000Z</time>
      </trkpt>
      <trkpt lat="47.45781" lon="6.71608">
        <ele>422</ele>
        <time>2015-06-28T08:12:56.000Z</time>
      </trkpt>
      <trkpt lat="47.45777" lon="6.7161">
        <ele>422</ele>
        <time>2015-06-28T08:12:57.000Z</time>
      </trkpt>
      <trkpt lat="47.45774" lon="6.71613">
        <ele>422</ele>
        <time>2015-06-28T08:12:58.000Z</time>
      </trkpt>
      <trkpt lat="47.4577" lon="6.71616">
        <ele>422</ele>
        <time>2015-06-28T08:12:59.000Z</time>
      </trkpt>
      <trkpt lat="47.45767" lon="6.71619">
        <ele>422</ele>
        <time>2015-06-28T08:13:00.000Z</time>
      </trkpt>
      <trkpt lat="47.45763" lon="6.71622">
        <ele>422</ele>
        <time>2015-06-28T08:13:01.000Z</time>
      </trkpt>
      <trkpt lat="47.45759" lon="6.71624">
        <ele>422</ele>
        <time>2015-06-28T08:13:02.000Z</time>
      </trkpt>
      <trkpt lat="47.45756" lon="6.71626">
        <ele>423</ele>
        <time>2015-06-28T08:13:03.000Z</time>
      </trkpt>
      <trkpt lat="47.45753" lon="6.71628">
        <ele>423</ele>
        <time>2015-06-28T08:13:04.000Z</time>
      </trkpt>
      <trkpt lat="47.45749" lon="6.7163">
        <ele>422</ele>
        <time>2015-06-28T08:13:05.000Z</time>
      </trkpt>
      <trkpt lat="47.45746" lon="6.71631">
        <ele>422</ele>
        <time>2015-06-28T08:13:06.000Z</time>
      </trkpt>
      <trkpt lat="47.45743" lon="6.71633">
        <ele>422</ele>
        <time>2015-06-28T08:13:07.000Z</time>
      </trkpt>
      <trkpt lat="47.4574" lon="6.71636">
        <ele>422</ele>
        <time>2015-06-28T08:13:08.000Z</time>
      </trkpt>
      <trkpt lat="47.45736" lon="6.71639">
        <ele>422</ele>
        <time>2015-06-28T08:13:09.000Z</time>
      </trkpt>
      <trkpt lat="47.45731" lon="6.71644">
        <ele>422</ele>
        <time>2015-06-28T08:13:10.000Z</time>
      </trkpt>
      <trkpt lat="47.45727" lon="6.71647">
        <ele>422</ele>
        <time>2015-06-28T08:13:11.000Z</time>
      </trkpt>
      <trkpt lat="47.45725" lon="6.7165">
        <ele>423</ele>
        <time>2015-06-28T08:13:12.000Z</time>
      </trkpt>
      <trkpt lat="47.45722" lon="6.7165">
        <ele>423</ele>
        <time>2015-06-28T08:13:13.000Z</time>
      </trkpt>
      <trkpt lat="47.45719" lon="6.71652">
        <ele>422</ele>
        <time>2015-06-28T08:13:14.000Z</time>
      </trkpt>
      <trkpt lat="47.45716" lon="6.71653">
        <ele>422</ele>
        <time>2015-06-28T08:13:15.000Z</time>
      </trkpt>
      <trkpt lat="47.45714" lon="6.71655">
        <ele>422</ele>
        <time>2015-06-28T08:13:16.000Z</time>
      </trkpt>
      <trkpt lat="47.4571" lon="6.71658">
        <ele>423</ele>
        <time>2015-06-28T08:13:17.000Z</time>
      </trkpt>
      <trkpt lat="47.45706" lon="6.7166">
        <ele>423</ele>
        <time>2015-06-28T08:13:18.000Z</time>
      </trkpt>
      <trkpt lat="47.45703" lon="6.71663">
        <ele>423</ele>
        <time>2015-06-28T08:13:19.000Z</time>
      </trkpt>
      <trkpt lat="47.457" lon="6.71664">
        <ele>423</ele>
        <time>2015-06-28T08:13:20.000Z</time>
      </trkpt>
      <trkpt lat="47.45697" lon="6.71666">
        <ele>423</ele>
        <time>2015-06-28T08:13:21.000Z</time>
      </trkpt>
      <trkpt lat="47.45694" lon="6.71667">
        <ele>426</ele>
        <time>2015-06-28T08:13:22.000Z</time>
      </trkpt>
      <trkpt lat="47.45691" lon="6.71668">
        <ele>426</ele>
        <time>2015-06-28T08:13:23.000Z</time>
      </trkpt>
      <trkpt lat="47.45689" lon="6.7167">
        <ele>425</ele>
        <time>2015-06-28T08:13:24.000Z</time>
      </trkpt>
      <trkpt lat="47.45687" lon="6.71672">
        <ele>425</ele>
        <time>2015-06-28T08:13:25.000Z</time>
      </trkpt>
      <trkpt lat="47.45684" lon="6.71674">
        <ele>425</ele>
        <time>2015-06-28T08:13:26.000Z</time>
      </trkpt>
      <trkpt lat="47.45681" lon="6.71677">
        <ele>425</ele>
        <time>2015-06-28T08:13:27.000Z</time>
      </trkpt>
      <trkpt lat="47.45678" lon="6.7168">
        <ele>425</ele>
        <time>2015-06-28T08:13:28.000Z</time>
      </trkpt>
      <trkpt lat="47.45675" lon="6.71682">
        <ele>425</ele>
        <time>2015-06-28T08:13:29.000Z</time>
      </trkpt>
      <trkpt lat="47.45672" lon="6.71684">
        <ele>425</ele>
        <time>2015-06-28T08:13:30.000Z</time>
      </trkpt>
      <trkpt lat="47.45669" lon="6.71686">
        <ele>425</ele>
        <time>2015-06-28T08:13:31.000Z</time>
      </trkpt>
      <trkpt lat="47.45666" lon="6.71689">
        <ele>425</ele>
        <time>2015-06-28T08:13:32.000Z</time>
      </trkpt>
      <trkpt lat="47.45663" lon="6.71691">
        <ele>425</ele>
        <time>2015-06-28T08:13:33.000Z</time>
      </trkpt>
      <trkpt lat="47.4566" lon="6.71694">
        <ele>425</ele>
        <time>2015-06-28T08:13:34.000Z</time>
      </trkpt>
      <trkpt lat="47.45658" lon="6.71696">
        <ele>425</ele>
        <time>2015-06-28T08:13:35.000Z</time>
      </trkpt>
      <trkpt lat="47.45656" lon="6.71698">
        <ele>425</ele>
        <time>2015-06-28T08:13:36.000Z</time>
      </trkpt>
      <trkpt lat="47.45654" lon="6.717">
        <ele>425</ele>
        <time>2015-06-28T08:13:37.000Z</time>
      </trkpt>
      <trkpt lat="47.45652" lon="6.71703">
        <ele>425</ele>
        <time>2015-06-28T08:13:38.000Z</time>
      </trkpt>
      <trkpt lat="47.45649" lon="6.71705">
        <ele>425</ele>
        <time>2015-06-28T08:13:39.000Z</time>
      </trkpt>
      <trkpt lat="47.45646" lon="6.71708">
        <ele>425</ele>
        <time>2015-06-28T08:13:40.000Z</time>
      </trkpt>
      <trkpt lat="47.45643" lon="6.71711">
        <ele>426</ele>
        <time>2015-06-28T08:13:41.000Z</time>
      </trkpt>
      <trkpt lat="47.45638" lon="6.71715">
        <ele>426</ele>
        <time>2015-06-28T08:13:42.000Z</time>
      </trkpt>
      <trkpt lat="47.45634" lon="6.71719">
        <ele>426</ele>
        <time>2015-06-28T08:13:43.000Z</time>
      </trkpt>
      <trkpt lat="47.4563" lon="6.71722">
        <ele>426</ele>
        <time>2015-06-28T08:13:44.000Z</time>
      </trkpt>
      <trkpt lat="47.45625" lon="6.71726">
        <ele>426</ele>
        <time>2015-06-28T08:13:45.000Z</time>
      </trkpt>
      <trkpt lat="47.45621" lon="6.71729">
        <ele>426</ele>
        <time>2015-06-28T08:13:46.000Z</time>
      </trkpt>
      <trkpt lat="47.45616" lon="6.71732">
        <ele>426</ele>
        <time>2015-06-28T08:13:47.000Z</time>
      </trkpt>
      <trkpt lat="47.45612" lon="6.71735">
        <ele>426</ele>
        <time>2015-06-28T08:13:48.000Z</time>
      </trkpt>
      <trkpt lat="47.45607" lon="6.71739">
        <ele>425</ele>
        <time>2015-06-28T08:13:49.000Z</time>
      </trkpt>
      <trkpt lat="47.45603" lon="6.71742">
        <ele>425</ele>
        <time>2015-06-28T08:13:50.000Z</time>
      </trkpt>
      <trkpt lat="47.45588" lon="6.71755">
        <ele>426</ele>
        <time>2015-06-28T08:13:51.000Z</time>
      </trkpt>
      <trkpt lat="47.45582" lon="6.71757">
        <ele>426</ele>
        <time>2015-06-28T08:13:52.000Z</time>
      </trkpt>
      <trkpt lat="47.45576" lon="6.71759">
        <ele>426</ele>
        <time>2015-06-28T08:13:53.000Z</time>
      </trkpt>
      <trkpt lat="47.45571" lon="6.71761">
        <ele>426</ele>
        <time>2015-06-28T08:13:54.000Z</time>
      </trkpt>
      <trkpt lat="47.45566" lon="6.71769">
        <ele>427</ele>
        <time>2015-06-28T08:13:55.000Z</time>
      </trkpt>
      <trkpt lat="47.45562" lon="6.71776">
        <ele>427</ele>
        <time>2015-06-28T08:13:56.000Z</time>
      </trkpt>
      <trkpt lat="47.45554" lon="6.71781">
        <ele>427</ele>
        <time>2015-06-28T08:13:57.000Z</time>
      </trkpt>
      <trkpt lat="47.45547" lon="6.71781">
        <ele>427</ele>
        <time>2015-06-28T08:13:58.000Z</time>
      </trkpt>
      <trkpt lat="47.45544" lon="6.71781">
        <ele>427</ele>
        <time>2015-06-28T08:13:59.000Z</time>
      </trkpt>
      <trkpt lat="47.4554" lon="6.71782">
        <ele>427</ele>
        <time>2015-06-28T08:14:00.000Z</time>
      </trkpt>
      <trkpt lat="47.45536" lon="6.71782">
        <ele>427</ele>
        <time>2015-06-28T08:14:01.000Z</time>
      </trkpt>
      <trkpt lat="47.45531" lon="6.71784">
        <ele>427</ele>
        <time>2015-06-28T08:14:02.000Z</time>
      </trkpt>
      <trkpt lat="47.45527" lon="6.71783">
        <ele>427</ele>
        <time>2015-06-28T08:14:03.000Z</time>
      </trkpt>
      <trkpt lat="47.45524" lon="6.71783">
        <ele>428</ele>
        <time>2015-06-28T08:14:04.000Z</time>
      </trkpt>
      <trkpt lat="47.45522" lon="6.71782">
        <ele>428</ele>
        <time>2015-06-28T08:14:05.000Z</time>
      </trkpt>
      <trkpt lat="47.45519" lon="6.71782">
        <ele>428</ele>
        <time>2015-06-28T08:14:06.000Z</time>
      </trkpt>
      <trkpt lat="47.45516" lon="6.71782">
        <ele>428</ele>
        <time>2015-06-28T08:14:07.000Z</time>
      </trkpt>
      <trkpt lat="47.45513" lon="6.71782">
        <ele>428</ele>
        <time>2015-06-28T08:14:08.000Z</time>
      </trkpt>
      <trkpt lat="47.45511" lon="6.71781">
        <ele>428</ele>
        <time>2015-06-28T08:14:09.000Z</time>
      </trkpt>
      <trkpt lat="47.45507" lon="6.71781">
        <ele>428</ele>
        <time>2015-06-28T08:14:10.000Z</time>
      </trkpt>
      <trkpt lat="47.45503" lon="6.71781">
        <ele>428</ele>
        <time>2015-06-28T08:14:11.000Z</time>
      </trkpt>
      <trkpt lat="47.455" lon="6.71781">
        <ele>429</ele>
        <time>2015-06-28T08:14:12.000Z</time>
      </trkpt>
      <trkpt lat="47.45496" lon="6.71782">
        <ele>429</ele>
        <time>2015-06-28T08:14:13.000Z</time>
      </trkpt>
      <trkpt lat="47.45492" lon="6.71783">
        <ele>429</ele>
        <time>2015-06-28T08:14:14.000Z</time>
      </trkpt>
      <trkpt lat="47.45488" lon="6.71783">
        <ele>429</ele>
        <time>2015-06-28T08:14:15.000Z</time>
      </trkpt>
      <trkpt lat="47.45484" lon="6.71784">
        <ele>429</ele>
        <time>2015-06-28T08:14:16.000Z</time>
      </trkpt>
      <trkpt lat="47.4548" lon="6.71785">
        <ele>429</ele>
        <time>2015-06-28T08:14:17.000Z</time>
      </trkpt>
      <trkpt lat="47.45476" lon="6.71786">
        <ele>430</ele>
        <time>2015-06-28T08:14:18.000Z</time>
      </trkpt>
      <trkpt lat="47.45473" lon="6.71788">
        <ele>430</ele>
        <time>2015-06-28T08:14:19.000Z</time>
      </trkpt>
      <trkpt lat="47.45469" lon="6.71789">
        <ele>430</ele>
        <time>2015-06-28T08:14:20.000Z</time>
      </trkpt>
      <trkpt lat="47.45465" lon="6.71791">
        <ele>430</ele>
        <time>2015-06-28T08:14:21.000Z</time>
      </trkpt>
      <trkpt lat="47.45462" lon="6.71794">
        <ele>430</ele>
        <time>2015-06-28T08:14:22.000Z</time>
      </trkpt>
      <trkpt lat="47.45459" lon="6.71796">
        <ele>430</ele>
        <time>2015-06-28T08:14:23.000Z</time>
      </trkpt>
      <trkpt lat="47.45455" lon="6.71798">
        <ele>430</ele>
        <time>2015-06-28T08:14:24.000Z</time>
      </trkpt>
      <trkpt lat="47.45452" lon="6.718">
        <ele>430</ele>
        <time>2015-06-28T08:14:25.000Z</time>
      </trkpt>
      <trkpt lat="47.45449" lon="6.71801">
        <ele>430</ele>
        <time>2015-06-28T08:14:25.999Z</time>
      </trkpt>
      <trkpt lat="47.45447" lon="6.71804">
        <ele>430</ele>
        <time>2015-06-28T08:14:27.000Z</time>
      </trkpt>
      <trkpt lat="47.45444" lon="6.71805">
        <ele>430</ele>
        <time>2015-06-28T08:14:28.000Z</time>
      </trkpt>
      <trkpt lat="47.4544" lon="6.71807">
        <ele>430</ele>
        <time>2015-06-28T08:14:29.000Z</time>
      </trkpt>
      <trkpt lat="47.45437" lon="6.71807">
        <ele>430</ele>
        <time>2015-06-28T08:14:30.000Z</time>
      </trkpt>
      <trkpt lat="47.45433" lon="6.71807">
        <ele>430</ele>
        <time>2015-06-28T08:14:31.001Z</time>
      </trkpt>
      <trkpt lat="47.45429" lon="6.71807">
        <ele>430</ele>
        <time>2015-06-28T08:14:32.000Z</time>
      </trkpt>
      <trkpt lat="47.45426" lon="6.71807">
        <ele>430</ele>
        <time>2015-06-28T08:14:33.000Z</time>
      </trkpt>
      <trkpt lat="47.45422" lon="6.71807">
        <ele>430</ele>
        <time>2015-06-28T08:14:33.999Z</time>
      </trkpt>
      <trkpt lat="47.45418" lon="6.71807">
        <ele>430</ele>
        <time>2015-06-28T08:14:35.000Z</time>
      </trkpt>
      <trkpt lat="47.45415" lon="6.71806">
        <ele>436</ele>
        <time>2015-06-28T08:14:35.999Z</time>
      </trkpt>
      <trkpt lat="47.45412" lon="6.71805">
        <ele>436</ele>
        <time>2015-06-28T08:14:37.000Z</time>
      </trkpt>
      <trkpt lat="47.45409" lon="6.71804">
        <ele>436</ele>
        <time>2015-06-28T08:14:38.000Z</time>
      </trkpt>
      <trkpt lat="47.45407" lon="6.71803">
        <ele>436</ele>
        <time>2015-06-28T08:14:39.000Z</time>
      </trkpt>
      <trkpt lat="47.45404" lon="6.71801">
        <ele>437</ele>
        <time>2015-06-28T08:14:40.001Z</time>
      </trkpt>
      <trkpt lat="47.45402" lon="6.71799">
        <ele>437</ele>
        <time>2015-06-28T08:14:41.000Z</time>
      </trkpt>
      <trkpt lat="47.45399" lon="6.71797">
        <ele>437</ele>
        <time>2015-06-28T08:14:42.000Z</time>
      </trkpt>
      <trkpt lat="47.45397" lon="6.71794">
        <ele>437</ele>
        <time>2015-06-28T08:14:43.000Z</time>
      </trkpt>
      <trkpt lat="47.45394" lon="6.71792">
        <ele>438</ele>
        <time>2015-06-28T08:14:44.002Z</time>
      </trkpt>
      <trkpt lat="47.45392" lon="6.71788">
        <ele>438</ele>
        <time>2015-06-28T08:14:45.000Z</time>
      </trkpt>
      <trkpt lat="47.45391" lon="6.71785">
        <ele>438</ele>
        <time>2015-06-28T08:14:46.000Z</time>
      </trkpt>
      <trkpt lat="47.45391" lon="6.71781">
        <ele>438</ele>
        <time>2015-06-28T08:14:47.000Z</time>
      </trkpt>
      <trkpt lat="47.4539" lon="6.71778">
        <ele>438</ele>
        <time>2015-06-28T08:14:48.000Z</time>
      </trkpt>
      <trkpt lat="47.4539" lon="6.71774">
        <ele>438</ele>
        <time>2015-06-28T08:14:49.000Z</time>
      </trkpt>
      <trkpt lat="47.45389" lon="6.71771">
        <ele>438</ele>
        <time>2015-06-28T08:14:50.000Z</time>
      </trkpt>
      <trkpt lat="47.45389" lon="6.71767">
        <ele>438</ele>
        <time>2015-06-28T08:14:51.000Z</time>
      </trkpt>
      <trkpt lat="47.45388" lon="6.71764">
        <ele>438</ele>
        <time>2015-06-28T08:14:52.000Z</time>
      </trkpt>
      <trkpt lat="47.45387" lon="6.71761">
        <ele>438</ele>
        <time>2015-06-28T08:14:53.000Z</time>
      </trkpt>
      <trkpt lat="47.45386" lon="6.71758">
        <ele>438</ele>
        <time>2015-06-28T08:14:54.000Z</time>
      </trkpt>
      <trkpt lat="47.45385" lon="6.71753">
        <ele>438</ele>
        <time>2015-06-28T08:14:56.000Z</time>
      </trkpt>
      <trkpt lat="47.45385" lon="6.71751">
        <ele>438</ele>
        <time>2015-06-28T08:14:57.000Z</time>
      </trkpt>
      <trkpt lat="47.45384" lon="6.71747">
        <ele>439</ele>
        <time>2015-06-28T08:14:59.000Z</time>
      </trkpt>
      <trkpt lat="47.45383" lon="6.71744">
        <ele>439</ele>
        <time>2015-06-28T08:15:00.000Z</time>
      </trkpt>
      <trkpt lat="47.45381" lon="6.71739">
        <ele>439</ele>
        <time>2015-06-28T08:15:02.000Z</time>
      </trkpt>
      <trkpt lat="47.4538" lon="6.71736">
        <ele>439</ele>
        <time>2015-06-28T08:15:03.000Z</time>
      </trkpt>
      <trkpt lat="47.45379" lon="6.71732">
        <ele>439</ele>
        <time>2015-06-28T08:15:05.000Z</time>
      </trkpt>
      <trkpt lat="47.45378" lon="6.71729">
        <ele>440</ele>
        <time>2015-06-28T08:15:06.000Z</time>
      </trkpt>
      <trkpt lat="47.45376" lon="6.71724">
        <ele>440</ele>
        <time>2015-06-28T08:15:08.000Z</time>
      </trkpt>
      <trkpt lat="47.45376" lon="6.71721">
        <ele>440</ele>
        <time>2015-06-28T08:15:09.000Z</time>
      </trkpt>
      <trkpt lat="47.45375" lon="6.71715">
        <ele>440</ele>
        <time>2015-06-28T08:15:12.000Z</time>
      </trkpt>
      <trkpt lat="47.45374" lon="6.71713">
        <ele>440</ele>
        <time>2015-06-28T08:15:13.000Z</time>
      </trkpt>
      <trkpt lat="47.45373" lon="6.71708">
        <ele>440</ele>
        <time>2015-06-28T08:15:15.000Z</time>
      </trkpt>
      <trkpt lat="47.45373" lon="6.71706">
        <ele>440</ele>
        <time>2015-06-28T08:15:16.000Z</time>
      </trkpt>
      <trkpt lat="47.45373" lon="6.71701">
        <ele>440</ele>
        <time>2015-06-28T08:15:18.000Z</time>
      </trkpt>
      <trkpt lat="47.45373" lon="6.71698">
        <ele>440</ele>
        <time>2015-06-28T08:15:19.000Z</time>
      </trkpt>
      <trkpt lat="47.45374" lon="6.71692">
        <ele>440</ele>
        <time>2015-06-28T08:15:21.000Z</time>
      </trkpt>
      <trkpt lat="47.45374" lon="6.71689">
        <ele>440</ele>
        <time>2015-06-28T08:15:22.000Z</time>
      </trkpt>
      <trkpt lat="47.45373" lon="6.71685">
        <ele>440</ele>
        <time>2015-06-28T08:15:23.000Z</time>
      </trkpt>
      <trkpt lat="47.45371" lon="6.71682">
        <ele>440</ele>
        <time>2015-06-28T08:15:24.000Z</time>
      </trkpt>
      <trkpt lat="47.4537" lon="6.71678">
        <ele>441</ele>
        <time>2015-06-28T08:15:25.000Z</time>
      </trkpt>
      <trkpt lat="47.45369" lon="6.71674">
        <ele>441</ele>
        <time>2015-06-28T08:15:26.000Z</time>
      </trkpt>
      <trkpt lat="47.45367" lon="6.7167">
        <ele>441</ele>
        <time>2015-06-28T08:15:27.000Z</time>
      </trkpt>
      <trkpt lat="47.45366" lon="6.71667">
        <ele>441</ele>
        <time>2015-06-28T08:15:28.000Z</time>
      </trkpt>
      <trkpt lat="47.45363" lon="6.71663">
        <ele>442</ele>
        <time>2015-06-28T08:15:30.000Z</time>
      </trkpt>
      <trkpt lat="47.45362" lon="6.7166">
        <ele>442</ele>
        <time>2015-06-28T08:15:31.000Z</time>
      </trkpt>
      <trkpt lat="47.45361" lon="6.71656">
        <ele>443</ele>
        <time>2015-06-28T08:15:32.000Z</time>
      </trkpt>
      <trkpt lat="47.45359" lon="6.71653">
        <ele>443</ele>
        <time>2015-06-28T08:15:33.000Z</time>
      </trkpt>
      <trkpt lat="47.45359" lon="6.71648">
        <ele>443</ele>
        <time>2015-06-28T08:15:34.000Z</time>
      </trkpt>
      <trkpt lat="47.45358" lon="6.71644">
        <ele>443</ele>
        <time>2015-06-28T08:15:35.000Z</time>
      </trkpt>
      <trkpt lat="47.45358" lon="6.71639">
        <ele>442</ele>
        <time>2015-06-28T08:15:36.000Z</time>
      </trkpt>
      <trkpt lat="47.45357" lon="6.71636">
        <ele>442</ele>
        <time>2015-06-28T08:15:37.000Z</time>
      </trkpt>
      <trkpt lat="47.45356" lon="6.71632">
        <ele>443</ele>
        <time>2015-06-28T08:15:38.000Z</time>
      </trkpt>
      <trkpt lat="47.45355" lon="6.71629">
        <ele>443</ele>
        <time>2015-06-28T08:15:39.000Z</time>
      </trkpt>
      <trkpt lat="47.45354" lon="6.71625">
        <ele>443</ele>
        <time>2015-06-28T08:15:40.000Z</time>
      </trkpt>
      <trkpt lat="47.45353" lon="6.71622">
        <ele>443</ele>
        <time>2015-06-28T08:15:41.000Z</time>
      </trkpt>
      <trkpt lat="47.45352" lon="6.71618">
        <ele>443</ele>
        <time>2015-06-28T08:15:42.000Z</time>
      </trkpt>
      <trkpt lat="47.4535" lon="6.71615">
        <ele>443</ele>
        <time>2015-06-28T08:15:42.999Z</time>
      </trkpt>
      <trkpt lat="47.4535" lon="6.71611">
        <ele>443</ele>
        <time>2015-06-28T08:15:44.000Z</time>
      </trkpt>
      <trkpt lat="47.45348" lon="6.71608">
        <ele>443</ele>
        <time>2015-06-28T08:15:45.000Z</time>
      </trkpt>
      <trkpt lat="47.45345" lon="6.71603">
        <ele>444</ele>
        <time>2015-06-28T08:15:47.000Z</time>
      </trkpt>
      <trkpt lat="47.45344" lon="6.71601">
        <ele>444</ele>
        <time>2015-06-28T08:15:48.000Z</time>
      </trkpt>
      <trkpt lat="47.4534" lon="6.71597">
        <ele>445</ele>
        <time>2015-06-28T08:15:50.000Z</time>
      </trkpt>
      <trkpt lat="47.45338" lon="6.71596">
        <ele>445</ele>
        <time>2015-06-28T08:15:51.000Z</time>
      </trkpt>
      <trkpt lat="47.45335" lon="6.71593">
        <ele>446</ele>
        <time>2015-06-28T08:15:53.000Z</time>
      </trkpt>
      <trkpt lat="47.45333" lon="6.71591">
        <ele>450</ele>
        <time>2015-06-28T08:15:54.000Z</time>
      </trkpt>
      <trkpt lat="47.4533" lon="6.71587">
        <ele>449</ele>
        <time>2015-06-28T08:15:56.000Z</time>
      </trkpt>
      <trkpt lat="47.45329" lon="6.71584">
        <ele>449</ele>
        <time>2015-06-28T08:15:57.000Z</time>
      </trkpt>
      <trkpt lat="47.45328" lon="6.71581">
        <ele>449</ele>
        <time>2015-06-28T08:15:58.000Z</time>
      </trkpt>
      <trkpt lat="47.45327" lon="6.71577">
        <ele>450</ele>
        <time>2015-06-28T08:15:59.000Z</time>
      </trkpt>
      <trkpt lat="47.45327" lon="6.71573">
        <ele>450</ele>
        <time>2015-06-28T08:16:00.000Z</time>
      </trkpt>
      <trkpt lat="47.45327" lon="6.71568">
        <ele>450</ele>
        <time>2015-06-28T08:16:01.000Z</time>
      </trkpt>
      <trkpt lat="47.45327" lon="6.71563">
        <ele>451</ele>
        <time>2015-06-28T08:16:02.000Z</time>
      </trkpt>
      <trkpt lat="47.45327" lon="6.71558">
        <ele>451</ele>
        <time>2015-06-28T08:16:03.000Z</time>
      </trkpt>
      <trkpt lat="47.45328" lon="6.71552">
        <ele>451</ele>
        <time>2015-06-28T08:16:04.000Z</time>
      </trkpt>
      <trkpt lat="47.45328" lon="6.71547">
        <ele>451</ele>
        <time>2015-06-28T08:16:05.000Z</time>
      </trkpt>
      <trkpt lat="47.45328" lon="6.71542">
        <ele>450</ele>
        <time>2015-06-28T08:16:06.000Z</time>
      </trkpt>
      <trkpt lat="47.45328" lon="6.71536">
        <ele>450</ele>
        <time>2015-06-28T08:16:07.000Z</time>
      </trkpt>
      <trkpt lat="47.45328" lon="6.7153">
        <ele>449</ele>
        <time>2015-06-28T08:16:08.000Z</time>
      </trkpt>
      <trkpt lat="47.45328" lon="6.71524">
        <ele>449</ele>
        <time>2015-06-28T08:16:09.000Z</time>
      </trkpt>
      <trkpt lat="47.45328" lon="6.71518">
        <ele>447</ele>
        <time>2015-06-28T08:16:10.000Z</time>
      </trkpt>
      <trkpt lat="47.45328" lon="6.71511">
        <ele>446</ele>
        <time>2015-06-28T08:16:11.000Z</time>
      </trkpt>
      <trkpt lat="47.45327" lon="6.71505">
        <ele>444</ele>
        <time>2015-06-28T08:16:12.000Z</time>
      </trkpt>
      <trkpt lat="47.45326" lon="6.71498">
        <ele>443</ele>
        <time>2015-06-28T08:16:13.000Z</time>
      </trkpt>
      <trkpt lat="47.45322" lon="6.71488">
        <ele>444</ele>
        <time>2015-06-28T08:16:14.000Z</time>
      </trkpt>
      <trkpt lat="47.45321" lon="6.71482">
        <ele>445</ele>
        <time>2015-06-28T08:16:15.000Z</time>
      </trkpt>
      <trkpt lat="47.45319" lon="6.71475">
        <ele>445</ele>
        <time>2015-06-28T08:16:16.000Z</time>
      </trkpt>
      <trkpt lat="47.45317" lon="6.7147">
        <ele>445</ele>
        <time>2015-06-28T08:16:17.000Z</time>
      </trkpt>
      <trkpt lat="47.45315" lon="6.71465">
        <ele>445</ele>
        <time>2015-06-28T08:16:18.000Z</time>
      </trkpt>
      <trkpt lat="47.45314" lon="6.7146">
        <ele>445</ele>
        <time>2015-06-28T08:16:19.000Z</time>
      </trkpt>
      <trkpt lat="47.45314" lon="6.71455">
        <ele>445</ele>
        <time>2015-06-28T08:16:20.000Z</time>
      </trkpt>
      <trkpt lat="47.45313" lon="6.7145">
        <ele>445</ele>
        <time>2015-06-28T08:16:21.000Z</time>
      </trkpt>
      <trkpt lat="47.45312" lon="6.71445">
        <ele>444</ele>
        <time>2015-06-28T08:16:22.000Z</time>
      </trkpt>
      <trkpt lat="47.45311" lon="6.7144">
        <ele>444</ele>
        <time>2015-06-28T08:16:23.000Z</time>
      </trkpt>
      <trkpt lat="47.4531" lon="6.71435">
        <ele>444</ele>
        <time>2015-06-28T08:16:24.000Z</time>
      </trkpt>
      <trkpt lat="47.45309" lon="6.7143">
        <ele>444</ele>
        <time>2015-06-28T08:16:25.000Z</time>
      </trkpt>
      <trkpt lat="47.45309" lon="6.71425">
        <ele>443</ele>
        <time>2015-06-28T08:16:26.000Z</time>
      </trkpt>
      <trkpt lat="47.45308" lon="6.7142">
        <ele>443</ele>
        <time>2015-06-28T08:16:27.000Z</time>
      </trkpt>
      <trkpt lat="47.45307" lon="6.71415">
        <ele>440</ele>
        <time>2015-06-28T08:16:28.000Z</time>
      </trkpt>
      <trkpt lat="47.45306" lon="6.7141">
        <ele>441</ele>
        <time>2015-06-28T08:16:29.000Z</time>
      </trkpt>
      <trkpt lat="47.45304" lon="6.71406">
        <ele>441</ele>
        <time>2015-06-28T08:16:30.000Z</time>
      </trkpt>
      <trkpt lat="47.45302" lon="6.71401">
        <ele>441</ele>
        <time>2015-06-28T08:16:31.000Z</time>
      </trkpt>
      <trkpt lat="47.45299" lon="6.71396">
        <ele>442</ele>
        <time>2015-06-28T08:16:32.000Z</time>
      </trkpt>
      <trkpt lat="47.45296" lon="6.71391">
        <ele>442</ele>
        <time>2015-06-28T08:16:33.000Z</time>
      </trkpt>
      <trkpt lat="47.45293" lon="6.71386">
        <ele>442</ele>
        <time>2015-06-28T08:16:34.000Z</time>
      </trkpt>
      <trkpt lat="47.4529" lon="6.71381">
        <ele>442</ele>
        <time>2015-06-28T08:16:35.000Z</time>
      </trkpt>
      <trkpt lat="47.45288" lon="6.71376">
        <ele>442</ele>
        <time>2015-06-28T08:16:36.000Z</time>
      </trkpt>
      <trkpt lat="47.45286" lon="6.71371">
        <ele>442</ele>
        <time>2015-06-28T08:16:37.000Z</time>
      </trkpt>
      <trkpt lat="47.45283" lon="6.71366">
        <ele>442</ele>
        <time>2015-06-28T08:16:38.000Z</time>
      </trkpt>
      <trkpt lat="47.4528" lon="6.71362">
        <ele>443</ele>
        <time>2015-06-28T08:16:39.000Z</time>
      </trkpt>
      <trkpt lat="47.45278" lon="6.71358">
        <ele>443</ele>
        <time>2015-06-28T08:16:40.000Z</time>
      </trkpt>
      <trkpt lat="47.45275" lon="6.71353">
        <ele>443</ele>
        <time>2015-06-28T08:16:41.000Z</time>
      </trkpt>
      <trkpt lat="47.45273" lon="6.71349">
        <ele>443</ele>
        <time>2015-06-28T08:16:42.000Z</time>
      </trkpt>
      <trkpt lat="47.45272" lon="6.71344">
        <ele>443</ele>
        <time>2015-06-28T08:16:43.000Z</time>
      </trkpt>
      <trkpt lat="47.4527" lon="6.7134">
        <ele>443</ele>
        <time>2015-06-28T08:16:44.000Z</time>
      </trkpt>
      <trkpt lat="47.45269" lon="6.71335">
        <ele>443</ele>
        <time>2015-06-28T08:16:45.000Z</time>
      </trkpt>
      <trkpt lat="47.45268" lon="6.71333">
        <ele>442</ele>
        <time>2015-06-28T08:16:46.000Z</time>
      </trkpt>
      <trkpt lat="47.45269" lon="6.71326">
        <ele>441</ele>
        <time>2015-06-28T08:17:05.000Z</time>
      </trkpt>
      <trkpt lat="47.45269" lon="6.71323">
        <ele>441</ele>
        <time>2015-06-28T08:17:06.000Z</time>
      </trkpt>
      <trkpt lat="47.45269" lon="6.71319">
        <ele>441</ele>
        <time>2015-06-28T08:17:07.000Z</time>
      </trkpt>
      <trkpt lat="47.45269" lon="6.71316">
        <ele>441</ele>
        <time>2015-06-28T08:17:07.999Z</time>
      </trkpt>
      <trkpt lat="47.45267" lon="6.7131">
        <ele>441</ele>
        <time>2015-06-28T08:17:09.000Z</time>
      </trkpt>
      <trkpt lat="47.45266" lon="6.71307">
        <ele>440</ele>
        <time>2015-06-28T08:17:10.000Z</time>
      </trkpt>
      <trkpt lat="47.45264" lon="6.71304">
        <ele>440</ele>
        <time>2015-06-28T08:17:11.000Z</time>
      </trkpt>
      <trkpt lat="47.45262" lon="6.71301">
        <ele>440</ele>
        <time>2015-06-28T08:17:12.000Z</time>
      </trkpt>
      <trkpt lat="47.4526" lon="6.71298">
        <ele>440</ele>
        <time>2015-06-28T08:17:13.000Z</time>
      </trkpt>
      <trkpt lat="47.45259" lon="6.71294">
        <ele>440</ele>
        <time>2015-06-28T08:17:14.000Z</time>
      </trkpt>
      <trkpt lat="47.45257" lon="6.7129">
        <ele>440</ele>
        <time>2015-06-28T08:17:15.000Z</time>
      </trkpt>
      <trkpt lat="47.45256" lon="6.71287">
        <ele>440</ele>
        <time>2015-06-28T08:17:16.000Z</time>
      </trkpt>
      <trkpt lat="47.45253" lon="6.71282">
        <ele>440</ele>
        <time>2015-06-28T08:17:18.000Z</time>
      </trkpt>
      <trkpt lat="47.45251" lon="6.7128">
        <ele>440</ele>
        <time>2015-06-28T08:17:19.000Z</time>
      </trkpt>
      <trkpt lat="47.45249" lon="6.71276">
        <ele>443</ele>
        <time>2015-06-28T08:17:21.000Z</time>
      </trkpt>
      <trkpt lat="47.45248" lon="6.71274">
        <ele>442</ele>
        <time>2015-06-28T08:17:22.000Z</time>
      </trkpt>
      <trkpt lat="47.45246" lon="6.71269">
        <ele>442</ele>
        <time>2015-06-28T08:17:24.000Z</time>
      </trkpt>
      <trkpt lat="47.45245" lon="6.71266">
        <ele>442</ele>
        <time>2015-06-28T08:17:25.000Z</time>
      </trkpt>
      <trkpt lat="47.45242" lon="6.71261">
        <ele>442</ele>
        <time>2015-06-28T08:17:27.000Z</time>
      </trkpt>
      <trkpt lat="47.45241" lon="6.71258">
        <ele>442</ele>
        <time>2015-06-28T08:17:28.000Z</time>
      </trkpt>
      <trkpt lat="47.45238" lon="6.71253">
        <ele>441</ele>
        <time>2015-06-28T08:17:30.000Z</time>
      </trkpt>
      <trkpt lat="47.45237" lon="6.71251">
        <ele>442</ele>
        <time>2015-06-28T08:17:31.000Z</time>
      </trkpt>
      <trkpt lat="47.45236" lon="6.71248">
        <ele>440</ele>
        <time>2015-06-28T08:17:33.000Z</time>
      </trkpt>
      <trkpt lat="47.45234" lon="6.71246">
        <ele>440</ele>
        <time>2015-06-28T08:17:34.000Z</time>
      </trkpt>
      <trkpt lat="47.45232" lon="6.71241">
        <ele>440</ele>
        <time>2015-06-28T08:17:36.000Z</time>
      </trkpt>
      <trkpt lat="47.4523" lon="6.71239">
        <ele>440</ele>
        <time>2015-06-28T08:17:37.000Z</time>
      </trkpt>
      <trkpt lat="47.45227" lon="6.71235">
        <ele>440</ele>
        <time>2015-06-28T08:17:38.999Z</time>
      </trkpt>
      <trkpt lat="47.45223" lon="6.71232">
        <ele>440</ele>
        <time>2015-06-28T08:17:40.000Z</time>
      </trkpt>
      <trkpt lat="47.45221" lon="6.71229">
        <ele>441</ele>
        <time>2015-06-28T08:17:41.000Z</time>
      </trkpt>
      <trkpt lat="47.45219" lon="6.71226">
        <ele>441</ele>
        <time>2015-06-28T08:17:42.000Z</time>
      </trkpt>
      <trkpt lat="47.45217" lon="6.71224">
        <ele>441</ele>
        <time>2015-06-28T08:17:43.000Z</time>
      </trkpt>
      <trkpt lat="47.45215" lon="6.71222">
        <ele>441</ele>
        <time>2015-06-28T08:17:44.000Z</time>
      </trkpt>
      <trkpt lat="47.45212" lon="6.71218">
        <ele>441</ele>
        <time>2015-06-28T08:17:46.000Z</time>
      </trkpt>
      <trkpt lat="47.45211" lon="6.71215">
        <ele>441</ele>
        <time>2015-06-28T08:17:47.000Z</time>
      </trkpt>
      <trkpt lat="47.4521" lon="6.71212">
        <ele>441</ele>
        <time>2015-06-28T08:17:48.000Z</time>
      </trkpt>
      <trkpt lat="47.45209" lon="6.71209">
        <ele>440</ele>
        <time>2015-06-28T08:17:49.000Z</time>
      </trkpt>
      <trkpt lat="47.45209" lon="6.71205">
        <ele>440</ele>
        <time>2015-06-28T08:17:50.000Z</time>
      </trkpt>
      <trkpt lat="47.45208" lon="6.71202">
        <ele>440</ele>
        <time>2015-06-28T08:17:51.000Z</time>
      </trkpt>
      <trkpt lat="47.45208" lon="6.71198">
        <ele>440</ele>
        <time>2015-06-28T08:17:52.000Z</time>
      </trkpt>
      <trkpt lat="47.45208" lon="6.71194">
        <ele>440</ele>
        <time>2015-06-28T08:17:53.000Z</time>
      </trkpt>
      <trkpt lat="47.45208" lon="6.7119">
        <ele>440</ele>
        <time>2015-06-28T08:17:54.000Z</time>
      </trkpt>
      <trkpt lat="47.45208" lon="6.71186">
        <ele>440</ele>
        <time>2015-06-28T08:17:55.000Z</time>
      </trkpt>
      <trkpt lat="47.45209" lon="6.71181">
        <ele>440</ele>
        <time>2015-06-28T08:17:56.000Z</time>
      </trkpt>
      <trkpt lat="47.45209" lon="6.71177">
        <ele>440</ele>
        <time>2015-06-28T08:17:57.000Z</time>
      </trkpt>
      <trkpt lat="47.45209" lon="6.71173">
        <ele>440</ele>
        <time>2015-06-28T08:17:58.000Z</time>
      </trkpt>
      <trkpt lat="47.45209" lon="6.71168">
        <ele>440</ele>
        <time>2015-06-28T08:17:59.000Z</time>
      </trkpt>
      <trkpt lat="47.45209" lon="6.71164">
        <ele>438</ele>
        <time>2015-06-28T08:18:00.000Z</time>
      </trkpt>
      <trkpt lat="47.45209" lon="6.71159">
        <ele>438</ele>
        <time>2015-06-28T08:18:01.000Z</time>
      </trkpt>
      <trkpt lat="47.45208" lon="6.71152">
        <ele>438</ele>
        <time>2015-06-28T08:18:02.000Z</time>
      </trkpt>
      <trkpt lat="47.45208" lon="6.71146">
        <ele>438</ele>
        <time>2015-06-28T08:18:03.000Z</time>
      </trkpt>
      <trkpt lat="47.45208" lon="6.71139">
        <ele>438</ele>
        <time>2015-06-28T08:18:04.000Z</time>
      </trkpt>
      <trkpt lat="47.45208" lon="6.7113">
        <ele>438</ele>
        <time>2015-06-28T08:18:05.000Z</time>
      </trkpt>
      <trkpt lat="47.45211" lon="6.71101">
        <ele>437</ele>
        <time>2015-06-28T08:18:06.000Z</time>
      </trkpt>
      <trkpt lat="47.45213" lon="6.71087">
        <ele>437</ele>
        <time>2015-06-28T08:18:07.000Z</time>
      </trkpt>
      <trkpt lat="47.45215" lon="6.71075">
        <ele>435</ele>
        <time>2015-06-28T08:18:08.000Z</time>
      </trkpt>
      <trkpt lat="47.45216" lon="6.71062">
        <ele>435</ele>
        <time>2015-06-28T08:18:09.000Z</time>
      </trkpt>
      <trkpt lat="47.45217" lon="6.71047">
        <ele>435</ele>
        <time>2015-06-28T08:18:10.000Z</time>
      </trkpt>
      <trkpt lat="47.45216" lon="6.71041">
        <ele>435</ele>
        <time>2015-06-28T08:18:11.000Z</time>
      </trkpt>
      <trkpt lat="47.45214" lon="6.71033">
        <ele>435</ele>
        <time>2015-06-28T08:18:12.000Z</time>
      </trkpt>
      <trkpt lat="47.45213" lon="6.71026">
        <ele>435</ele>
        <time>2015-06-28T08:18:13.000Z</time>
      </trkpt>
      <trkpt lat="47.45211" lon="6.71019">
        <ele>435</ele>
        <time>2015-06-28T08:18:14.000Z</time>
      </trkpt>
      <trkpt lat="47.4521" lon="6.71012">
        <ele>435</ele>
        <time>2015-06-28T08:18:15.000Z</time>
      </trkpt>
      <trkpt lat="47.45209" lon="6.71006">
        <ele>435</ele>
        <time>2015-06-28T08:18:16.000Z</time>
      </trkpt>
      <trkpt lat="47.45208" lon="6.71">
        <ele>435</ele>
        <time>2015-06-28T08:18:17.000Z</time>
      </trkpt>
      <trkpt lat="47.45207" lon="6.70995">
        <ele>435</ele>
        <time>2015-06-28T08:18:18.000Z</time>
      </trkpt>
      <trkpt lat="47.45206" lon="6.7099">
        <ele>435</ele>
        <time>2015-06-28T08:18:19.000Z</time>
      </trkpt>
      <trkpt lat="47.45206" lon="6.70984">
        <ele>435</ele>
        <time>2015-06-28T08:18:20.000Z</time>
      </trkpt>
      <trkpt lat="47.45206" lon="6.70979">
        <ele>435</ele>
        <time>2015-06-28T08:18:21.000Z</time>
      </trkpt>
      <trkpt lat="47.45206" lon="6.70974">
        <ele>435</ele>
        <time>2015-06-28T08:18:22.000Z</time>
      </trkpt>
      <trkpt lat="47.45206" lon="6.70969">
        <ele>435</ele>
        <time>2015-06-28T08:18:23.000Z</time>
      </trkpt>
      <trkpt lat="47.45206" lon="6.70963">
        <ele>435</ele>
        <time>2015-06-28T08:18:24.000Z</time>
      </trkpt>
      <trkpt lat="47.45205" lon="6.70958">
        <ele>435</ele>
        <time>2015-06-28T08:18:25.000Z</time>
      </trkpt>
      <trkpt lat="47.45204" lon="6.70953">
        <ele>435</ele>
        <time>2015-06-28T08:18:26.000Z</time>
      </trkpt>
      <trkpt lat="47.45203" lon="6.70948">
        <ele>435</ele>
        <time>2015-06-28T08:18:27.000Z</time>
      </trkpt>
      <trkpt lat="47.45202" lon="6.70943">
        <ele>435</ele>
        <time>2015-06-28T08:18:28.000Z</time>
      </trkpt>
      <trkpt lat="47.452" lon="6.70937">
        <ele>435</ele>
        <time>2015-06-28T08:18:29.000Z</time>
      </trkpt>
      <trkpt lat="47.45197" lon="6.70932">
        <ele>435</ele>
        <time>2015-06-28T08:18:30.000Z</time>
      </trkpt>
      <trkpt lat="47.45194" lon="6.70926">
        <ele>435</ele>
        <time>2015-06-28T08:18:31.000Z</time>
      </trkpt>
      <trkpt lat="47.45191" lon="6.70921">
        <ele>435</ele>
        <time>2015-06-28T08:18:32.000Z</time>
      </trkpt>
      <trkpt lat="47.45188" lon="6.70915">
        <ele>434</ele>
        <time>2015-06-28T08:18:33.000Z</time>
      </trkpt>
      <trkpt lat="47.45184" lon="6.70908">
        <ele>434</ele>
        <time>2015-06-28T08:18:34.000Z</time>
      </trkpt>
      <trkpt lat="47.45181" lon="6.709">
        <ele>434</ele>
        <time>2015-06-28T08:18:35.000Z</time>
      </trkpt>
      <trkpt lat="47.45179" lon="6.70892">
        <ele>434</ele>
        <time>2015-06-28T08:18:36.000Z</time>
      </trkpt>
      <trkpt lat="47.45177" lon="6.70885">
        <ele>434</ele>
        <time>2015-06-28T08:18:37.000Z</time>
      </trkpt>
      <trkpt lat="47.45175" lon="6.70877">
        <ele>434</ele>
        <time>2015-06-28T08:18:38.000Z</time>
      </trkpt>
      <trkpt lat="47.45173" lon="6.70869">
        <ele>434</ele>
        <time>2015-06-28T08:18:39.000Z</time>
      </trkpt>
      <trkpt lat="47.45161" lon="6.7085">
        <ele>433</ele>
        <time>2015-06-28T08:18:40.000Z</time>
      </trkpt>
      <trkpt lat="47.45156" lon="6.70837">
        <ele>433</ele>
        <time>2015-06-28T08:18:41.000Z</time>
      </trkpt>
      <trkpt lat="47.45153" lon="6.70828">
        <ele>432</ele>
        <time>2015-06-28T08:18:42.000Z</time>
      </trkpt>
      <trkpt lat="47.4515" lon="6.70817">
        <ele>431</ele>
        <time>2015-06-28T08:18:43.000Z</time>
      </trkpt>
      <trkpt lat="47.45149" lon="6.70809">
        <ele>431</ele>
        <time>2015-06-28T08:18:44.000Z</time>
      </trkpt>
      <trkpt lat="47.45147" lon="6.70803">
        <ele>430</ele>
        <time>2015-06-28T08:18:45.000Z</time>
      </trkpt>
      <trkpt lat="47.45145" lon="6.708">
        <ele>430</ele>
        <time>2015-06-28T08:18:46.000Z</time>
      </trkpt>
      <trkpt lat="47.45141" lon="6.70792">
        <ele>430</ele>
        <time>2015-06-28T08:18:47.000Z</time>
      </trkpt>
      <trkpt lat="47.45136" lon="6.70786">
        <ele>430</ele>
        <time>2015-06-28T08:18:48.000Z</time>
      </trkpt>
      <trkpt lat="47.45133" lon="6.70779">
        <ele>429</ele>
        <time>2015-06-28T08:18:49.000Z</time>
      </trkpt>
      <trkpt lat="47.4513" lon="6.70769">
        <ele>429</ele>
        <time>2015-06-28T08:18:50.000Z</time>
      </trkpt>
      <trkpt lat="47.45127" lon="6.70761">
        <ele>429</ele>
        <time>2015-06-28T08:18:51.000Z</time>
      </trkpt>
      <trkpt lat="47.45126" lon="6.70752">
        <ele>429</ele>
        <time>2015-06-28T08:18:52.000Z</time>
      </trkpt>
      <trkpt lat="47.45124" lon="6.70744">
        <ele>427</ele>
        <time>2015-06-28T08:18:53.000Z</time>
      </trkpt>
      <trkpt lat="47.45122" lon="6.70732">
        <ele>426</ele>
        <time>2015-06-28T08:18:54.000Z</time>
      </trkpt>
      <trkpt lat="47.4512" lon="6.70722">
        <ele>426</ele>
        <time>2015-06-28T08:18:55.000Z</time>
      </trkpt>
      <trkpt lat="47.45118" lon="6.70712">
        <ele>426</ele>
        <time>2015-06-28T08:18:56.000Z</time>
      </trkpt>
      <trkpt lat="47.45115" lon="6.70703">
        <ele>426</ele>
        <time>2015-06-28T08:18:57.000Z</time>
      </trkpt>
      <trkpt lat="47.45111" lon="6.70694">
        <ele>425</ele>
        <time>2015-06-28T08:18:58.000Z</time>
      </trkpt>
      <trkpt lat="47.45109" lon="6.70685">
        <ele>425</ele>
        <time>2015-06-28T08:18:59.000Z</time>
      </trkpt>
      <trkpt lat="47.45108" lon="6.70676">
        <ele>425</ele>
        <time>2015-06-28T08:19:00.000Z</time>
      </trkpt>
      <trkpt lat="47.45103" lon="6.70668">
        <ele>424</ele>
        <time>2015-06-28T08:19:01.000Z</time>
      </trkpt>
      <trkpt lat="47.45101" lon="6.70661">
        <ele>422</ele>
        <time>2015-06-28T08:19:02.000Z</time>
      </trkpt>
      <trkpt lat="47.45098" lon="6.70656">
        <ele>422</ele>
        <time>2015-06-28T08:19:03.000Z</time>
      </trkpt>
      <trkpt lat="47.45095" lon="6.70652">
        <ele>422</ele>
        <time>2015-06-28T08:19:04.000Z</time>
      </trkpt>
      <trkpt lat="47.4509" lon="6.70648">
        <ele>422</ele>
        <time>2015-06-28T08:19:05.000Z</time>
      </trkpt>
      <trkpt lat="47.45086" lon="6.70646">
        <ele>422</ele>
        <time>2015-06-28T08:19:06.000Z</time>
      </trkpt>
      <trkpt lat="47.4508" lon="6.70645">
        <ele>420</ele>
        <time>2015-06-28T08:19:07.000Z</time>
      </trkpt>
      <trkpt lat="47.45074" lon="6.70645">
        <ele>420</ele>
        <time>2015-06-28T08:19:08.000Z</time>
      </trkpt>
      <trkpt lat="47.45068" lon="6.70645">
        <ele>420</ele>
        <time>2015-06-28T08:19:09.000Z</time>
      </trkpt>
      <trkpt lat="47.45062" lon="6.70642">
        <ele>420</ele>
        <time>2015-06-28T08:19:10.000Z</time>
      </trkpt>
      <trkpt lat="47.45059" lon="6.70641">
        <ele>420</ele>
        <time>2015-06-28T08:19:11.000Z</time>
      </trkpt>
      <trkpt lat="47.45055" lon="6.7064">
        <ele>419</ele>
        <time>2015-06-28T08:19:12.000Z</time>
      </trkpt>
      <trkpt lat="47.45052" lon="6.70638">
        <ele>419</ele>
        <time>2015-06-28T08:19:13.000Z</time>
      </trkpt>
      <trkpt lat="47.45049" lon="6.70636">
        <ele>419</ele>
        <time>2015-06-28T08:19:14.000Z</time>
      </trkpt>
      <trkpt lat="47.45046" lon="6.70633">
        <ele>419</ele>
        <time>2015-06-28T08:19:15.000Z</time>
      </trkpt>
      <trkpt lat="47.45044" lon="6.70631">
        <ele>419</ele>
        <time>2015-06-28T08:19:16.000Z</time>
      </trkpt>
      <trkpt lat="47.45039" lon="6.70627">
        <ele>419</ele>
        <time>2015-06-28T08:19:17.000Z</time>
      </trkpt>
      <trkpt lat="47.45006" lon="6.70607">
        <ele>419</ele>
        <time>2015-06-28T08:19:18.000Z</time>
      </trkpt>
      <trkpt lat="47.44996" lon="6.70602">
        <ele>420</ele>
        <time>2015-06-28T08:19:19.000Z</time>
      </trkpt>
      <trkpt lat="47.4499" lon="6.706">
        <ele>420</ele>
        <time>2015-06-28T08:19:20.000Z</time>
      </trkpt>
      <trkpt lat="47.44985" lon="6.70601">
        <ele>420</ele>
        <time>2015-06-28T08:19:21.000Z</time>
      </trkpt>
      <trkpt lat="47.44981" lon="6.70601">
        <ele>420</ele>
        <time>2015-06-28T08:19:22.000Z</time>
      </trkpt>
      <trkpt lat="47.44978" lon="6.70602">
        <ele>420</ele>
        <time>2015-06-28T08:19:23.000Z</time>
      </trkpt>
      <trkpt lat="47.44975" lon="6.70605">
        <ele>420</ele>
        <time>2015-06-28T08:19:24.000Z</time>
      </trkpt>
      <trkpt lat="47.44973" lon="6.70607">
        <ele>420</ele>
        <time>2015-06-28T08:19:25.000Z</time>
      </trkpt>
      <trkpt lat="47.4497" lon="6.70609">
        <ele>420</ele>
        <time>2015-06-28T08:19:26.000Z</time>
      </trkpt>
      <trkpt lat="47.44968" lon="6.70611">
        <ele>420</ele>
        <time>2015-06-28T08:19:27.000Z</time>
      </trkpt>
      <trkpt lat="47.44964" lon="6.70614">
        <ele>420</ele>
        <time>2015-06-28T08:19:29.000Z</time>
      </trkpt>
      <trkpt lat="47.44962" lon="6.70614">
        <ele>420</ele>
        <time>2015-06-28T08:19:30.000Z</time>
      </trkpt>
      <trkpt lat="47.44959" lon="6.70616">
        <ele>421</ele>
        <time>2015-06-28T08:19:32.000Z</time>
      </trkpt>
      <trkpt lat="47.44957" lon="6.70618">
        <ele>421</ele>
        <time>2015-06-28T08:19:33.000Z</time>
      </trkpt>
      <trkpt lat="47.44953" lon="6.70621">
        <ele>421</ele>
        <time>2015-06-28T08:19:35.000Z</time>
      </trkpt>
      <trkpt lat="47.44952" lon="6.70623">
        <ele>421</ele>
        <time>2015-06-28T08:19:36.000Z</time>
      </trkpt>
      <trkpt lat="47.4495" lon="6.70626">
        <ele>421</ele>
        <time>2015-06-28T08:19:37.000Z</time>
      </trkpt>
      <trkpt lat="47.44948" lon="6.70629">
        <ele>421</ele>
        <time>2015-06-28T08:19:38.000Z</time>
      </trkpt>
      <trkpt lat="47.44946" lon="6.70631">
        <ele>421</ele>
        <time>2015-06-28T08:19:39.000Z</time>
      </trkpt>
      <trkpt lat="47.44944" lon="6.70634">
        <ele>421</ele>
        <time>2015-06-28T08:19:40.000Z</time>
      </trkpt>
      <trkpt lat="47.44941" lon="6.70637">
        <ele>421</ele>
        <time>2015-06-28T08:19:42.000Z</time>
      </trkpt>
      <trkpt lat="47.44939" lon="6.70639">
        <ele>421</ele>
        <time>2015-06-28T08:19:43.000Z</time>
      </trkpt>
      <trkpt lat="47.44937" lon="6.70642">
        <ele>421</ele>
        <time>2015-06-28T08:19:44.000Z</time>
      </trkpt>
      <trkpt lat="47.44935" lon="6.70645">
        <ele>421</ele>
        <time>2015-06-28T08:19:45.000Z</time>
      </trkpt>
      <trkpt lat="47.44933" lon="6.70647">
        <ele>421</ele>
        <time>2015-06-28T08:19:46.000Z</time>
      </trkpt>
      <trkpt lat="47.44931" lon="6.7065">
        <ele>422</ele>
        <time>2015-06-28T08:19:47.000Z</time>
      </trkpt>
      <trkpt lat="47.44929" lon="6.70653">
        <ele>422</ele>
        <time>2015-06-28T08:19:48.000Z</time>
      </trkpt>
      <trkpt lat="47.44928" lon="6.70656">
        <ele>422</ele>
        <time>2015-06-28T08:19:49.000Z</time>
      </trkpt>
      <trkpt lat="47.44925" lon="6.7066">
        <ele>422</ele>
        <time>2015-06-28T08:19:51.000Z</time>
      </trkpt>
      <trkpt lat="47.44924" lon="6.70663">
        <ele>422</ele>
        <time>2015-06-28T08:19:52.000Z</time>
      </trkpt>
      <trkpt lat="47.44922" lon="6.70665">
        <ele>422</ele>
        <time>2015-06-28T08:19:53.000Z</time>
      </trkpt>
      <trkpt lat="47.4492" lon="6.70667">
        <ele>423</ele>
        <time>2015-06-28T08:19:54.000Z</time>
      </trkpt>
      <trkpt lat="47.44918" lon="6.70669">
        <ele>423</ele>
        <time>2015-06-28T08:19:55.000Z</time>
      </trkpt>
      <trkpt lat="47.44915" lon="6.70672">
        <ele>425</ele>
        <time>2015-06-28T08:19:56.000Z</time>
      </trkpt>
      <trkpt lat="47.44914" lon="6.70676">
        <ele>426</ele>
        <time>2015-06-28T08:19:57.000Z</time>
      </trkpt>
      <trkpt lat="47.44913" lon="6.70681">
        <ele>427</ele>
        <time>2015-06-28T08:19:58.000Z</time>
      </trkpt>
      <trkpt lat="47.44913" lon="6.70687">
        <ele>428</ele>
        <time>2015-06-28T08:19:59.000Z</time>
      </trkpt>
      <trkpt lat="47.44912" lon="6.70693">
        <ele>429</ele>
        <time>2015-06-28T08:20:00.000Z</time>
      </trkpt>
      <trkpt lat="47.44912" lon="6.70699">
        <ele>429</ele>
        <time>2015-06-28T08:20:01.000Z</time>
      </trkpt>
      <trkpt lat="47.44911" lon="6.70705">
        <ele>429</ele>
        <time>2015-06-28T08:20:02.000Z</time>
      </trkpt>
      <trkpt lat="47.4491" lon="6.7071">
        <ele>430</ele>
        <time>2015-06-28T08:20:03.000Z</time>
      </trkpt>
      <trkpt lat="47.44908" lon="6.70715">
        <ele>430</ele>
        <time>2015-06-28T08:20:04.000Z</time>
      </trkpt>
      <trkpt lat="47.44907" lon="6.7072">
        <ele>430</ele>
        <time>2015-06-28T08:20:05.000Z</time>
      </trkpt>
      <trkpt lat="47.44905" lon="6.70725">
        <ele>430</ele>
        <time>2015-06-28T08:20:06.000Z</time>
      </trkpt>
      <trkpt lat="47.44903" lon="6.70729">
        <ele>430</ele>
        <time>2015-06-28T08:20:07.000Z</time>
      </trkpt>
      <trkpt lat="47.449" lon="6.70733">
        <ele>430</ele>
        <time>2015-06-28T08:20:08.000Z</time>
      </trkpt>
      <trkpt lat="47.44897" lon="6.70736">
        <ele>430</ele>
        <time>2015-06-28T08:20:09.000Z</time>
      </trkpt>
      <trkpt lat="47.44895" lon="6.70739">
        <ele>430</ele>
        <time>2015-06-28T08:20:10.000Z</time>
      </trkpt>
      <trkpt lat="47.44893" lon="6.70741">
        <ele>430</ele>
        <time>2015-06-28T08:20:11.000Z</time>
      </trkpt>
      <trkpt lat="47.4489" lon="6.70743">
        <ele>431</ele>
        <time>2015-06-28T08:20:12.000Z</time>
      </trkpt>
      <trkpt lat="47.44888" lon="6.70744">
        <ele>431</ele>
        <time>2015-06-28T08:20:13.000Z</time>
      </trkpt>
      <trkpt lat="47.44886" lon="6.70745">
        <ele>431</ele>
        <time>2015-06-28T08:20:14.000Z</time>
      </trkpt>
      <trkpt lat="47.44883" lon="6.70746">
        <ele>431</ele>
        <time>2015-06-28T08:20:15.000Z</time>
      </trkpt>
      <trkpt lat="47.44881" lon="6.70747">
        <ele>432</ele>
        <time>2015-06-28T08:20:16.000Z</time>
      </trkpt>
      <trkpt lat="47.44879" lon="6.7075">
        <ele>432</ele>
        <time>2015-06-28T08:20:17.000Z</time>
      </trkpt>
      <trkpt lat="47.44877" lon="6.70752">
        <ele>432</ele>
        <time>2015-06-28T08:20:18.000Z</time>
      </trkpt>
      <trkpt lat="47.44875" lon="6.70756">
        <ele>432</ele>
        <time>2015-06-28T08:20:19.000Z</time>
      </trkpt>
      <trkpt lat="47.44873" lon="6.70759">
        <ele>433</ele>
        <time>2015-06-28T08:20:20.000Z</time>
      </trkpt>
      <trkpt lat="47.44871" lon="6.70762">
        <ele>433</ele>
        <time>2015-06-28T08:20:21.000Z</time>
      </trkpt>
      <trkpt lat="47.44869" lon="6.70766">
        <ele>433</ele>
        <time>2015-06-28T08:20:22.000Z</time>
      </trkpt>
      <trkpt lat="47.44867" lon="6.70769">
        <ele>433</ele>
        <time>2015-06-28T08:20:23.000Z</time>
      </trkpt>
      <trkpt lat="47.44865" lon="6.70773">
        <ele>433</ele>
        <time>2015-06-28T08:20:24.000Z</time>
      </trkpt>
      <trkpt lat="47.44864" lon="6.70776">
        <ele>433</ele>
        <time>2015-06-28T08:20:25.000Z</time>
      </trkpt>
      <trkpt lat="47.44862" lon="6.7078">
        <ele>433</ele>
        <time>2015-06-28T08:20:26.000Z</time>
      </trkpt>
      <trkpt lat="47.4486" lon="6.70783">
        <ele>433</ele>
        <time>2015-06-28T08:20:27.000Z</time>
      </trkpt>
      <trkpt lat="47.44858" lon="6.70786">
        <ele>433</ele>
        <time>2015-06-28T08:20:28.000Z</time>
      </trkpt>
      <trkpt lat="47.44855" lon="6.70788">
        <ele>433</ele>
        <time>2015-06-28T08:20:29.000Z</time>
      </trkpt>
      <trkpt lat="47.44852" lon="6.70789">
        <ele>433</ele>
        <time>2015-06-28T08:20:30.000Z</time>
      </trkpt>
      <trkpt lat="47.44849" lon="6.70792">
        <ele>433</ele>
        <time>2015-06-28T08:20:31.000Z</time>
      </trkpt>
      <trkpt lat="47.44846" lon="6.70795">
        <ele>433</ele>
        <time>2015-06-28T08:20:32.000Z</time>
      </trkpt>
      <trkpt lat="47.44844" lon="6.70799">
        <ele>433</ele>
        <time>2015-06-28T08:20:33.000Z</time>
      </trkpt>
      <trkpt lat="47.44843" lon="6.70803">
        <ele>433</ele>
        <time>2015-06-28T08:20:34.000Z</time>
      </trkpt>
      <trkpt lat="47.44841" lon="6.70807">
        <ele>433</ele>
        <time>2015-06-28T08:20:35.000Z</time>
      </trkpt>
      <trkpt lat="47.4484" lon="6.7081">
        <ele>433</ele>
        <time>2015-06-28T08:20:36.000Z</time>
      </trkpt>
      <trkpt lat="47.44838" lon="6.70816">
        <ele>432</ele>
        <time>2015-06-28T08:20:38.000Z</time>
      </trkpt>
      <trkpt lat="47.44838" lon="6.70818">
        <ele>432</ele>
        <time>2015-06-28T08:20:39.000Z</time>
      </trkpt>
      <trkpt lat="47.44837" lon="6.70822">
        <ele>432</ele>
        <time>2015-06-28T08:20:41.000Z</time>
      </trkpt>
      <trkpt lat="47.44835" lon="6.70824">
        <ele>432</ele>
        <time>2015-06-28T08:20:42.000Z</time>
      </trkpt>
      <trkpt lat="47.44832" lon="6.70828">
        <ele>434</ele>
        <time>2015-06-28T08:20:44.000Z</time>
      </trkpt>
      <trkpt lat="47.4483" lon="6.70831">
        <ele>433</ele>
        <time>2015-06-28T08:20:45.000Z</time>
      </trkpt>
      <trkpt lat="47.44828" lon="6.70833">
        <ele>433</ele>
        <time>2015-06-28T08:20:46.000Z</time>
      </trkpt>
      <trkpt lat="47.44826" lon="6.70836">
        <ele>433</ele>
        <time>2015-06-28T08:20:47.000Z</time>
      </trkpt>
      <trkpt lat="47.44823" lon="6.70839">
        <ele>434</ele>
        <time>2015-06-28T08:20:48.000Z</time>
      </trkpt>
      <trkpt lat="47.44821" lon="6.70842">
        <ele>434</ele>
        <time>2015-06-28T08:20:49.000Z</time>
      </trkpt>
      <trkpt lat="47.44819" lon="6.70845">
        <ele>434</ele>
        <time>2015-06-28T08:20:50.000Z</time>
      </trkpt>
      <trkpt lat="47.44817" lon="6.70848">
        <ele>435</ele>
        <time>2015-06-28T08:20:51.000Z</time>
      </trkpt>
      <trkpt lat="47.44814" lon="6.70851">
        <ele>435</ele>
        <time>2015-06-28T08:20:52.000Z</time>
      </trkpt>
      <trkpt lat="47.44812" lon="6.70853">
        <ele>435</ele>
        <time>2015-06-28T08:20:53.000Z</time>
      </trkpt>
      <trkpt lat="47.44809" lon="6.70856">
        <ele>435</ele>
        <time>2015-06-28T08:20:54.000Z</time>
      </trkpt>
      <trkpt lat="47.44807" lon="6.70858">
        <ele>435</ele>
        <time>2015-06-28T08:20:55.000Z</time>
      </trkpt>
      <trkpt lat="47.44804" lon="6.70862">
        <ele>436</ele>
        <time>2015-06-28T08:20:57.000Z</time>
      </trkpt>
      <trkpt lat="47.44802" lon="6.70864">
        <ele>436</ele>
        <time>2015-06-28T08:20:58.000Z</time>
      </trkpt>
      <trkpt lat="47.44801" lon="6.70867">
        <ele>436</ele>
        <time>2015-06-28T08:20:59.000Z</time>
      </trkpt>
      <trkpt lat="47.44799" lon="6.70869">
        <ele>436</ele>
        <time>2015-06-28T08:21:00.000Z</time>
      </trkpt>
      <trkpt lat="47.44797" lon="6.70872">
        <ele>436</ele>
        <time>2015-06-28T08:21:01.000Z</time>
      </trkpt>
      <trkpt lat="47.44795" lon="6.70875">
        <ele>436</ele>
        <time>2015-06-28T08:21:02.000Z</time>
      </trkpt>
      <trkpt lat="47.44793" lon="6.70877">
        <ele>436</ele>
        <time>2015-06-28T08:21:03.000Z</time>
      </trkpt>
      <trkpt lat="47.4479" lon="6.7088">
        <ele>436</ele>
        <time>2015-06-28T08:21:04.000Z</time>
      </trkpt>
      <trkpt lat="47.44788" lon="6.70882">
        <ele>436</ele>
        <time>2015-06-28T08:21:05.000Z</time>
      </trkpt>
      <trkpt lat="47.44786" lon="6.70884">
        <ele>436</ele>
        <time>2015-06-28T08:21:06.000Z</time>
      </trkpt>
      <trkpt lat="47.44784" lon="6.70886">
        <ele>436</ele>
        <time>2015-06-28T08:21:07.000Z</time>
      </trkpt>
      <trkpt lat="47.44781" lon="6.70889">
        <ele>436</ele>
        <time>2015-06-28T08:21:08.000Z</time>
      </trkpt>
      <trkpt lat="47.44779" lon="6.70892">
        <ele>436</ele>
        <time>2015-06-28T08:21:09.000Z</time>
      </trkpt>
      <trkpt lat="47.44776" lon="6.70894">
        <ele>436</ele>
        <time>2015-06-28T08:21:10.000Z</time>
      </trkpt>
      <trkpt lat="47.44773" lon="6.70897">
        <ele>436</ele>
        <time>2015-06-28T08:21:11.000Z</time>
      </trkpt>
      <trkpt lat="47.4477" lon="6.709">
        <ele>436</ele>
        <time>2015-06-28T08:21:12.000Z</time>
      </trkpt>
      <trkpt lat="47.44767" lon="6.70902">
        <ele>435</ele>
        <time>2015-06-28T08:21:13.000Z</time>
      </trkpt>
      <trkpt lat="47.44764" lon="6.70905">
        <ele>435</ele>
        <time>2015-06-28T08:21:14.000Z</time>
      </trkpt>
      <trkpt lat="47.44761" lon="6.70906">
        <ele>435</ele>
        <time>2015-06-28T08:21:15.000Z</time>
      </trkpt>
      <trkpt lat="47.44759" lon="6.70908">
        <ele>435</ele>
        <time>2015-06-28T08:21:16.000Z</time>
      </trkpt>
      <trkpt lat="47.44756" lon="6.70909">
        <ele>435</ele>
        <time>2015-06-28T08:21:17.000Z</time>
      </trkpt>
      <trkpt lat="47.44754" lon="6.70911">
        <ele>435</ele>
        <time>2015-06-28T08:21:18.000Z</time>
      </trkpt>
      <trkpt lat="47.4475" lon="6.70913">
        <ele>434</ele>
        <time>2015-06-28T08:21:19.000Z</time>
      </trkpt>
      <trkpt lat="47.44747" lon="6.70915">
        <ele>435</ele>
        <time>2015-06-28T08:21:20.000Z</time>
      </trkpt>
      <trkpt lat="47.44743" lon="6.70917">
        <ele>436</ele>
        <time>2015-06-28T08:21:21.000Z</time>
      </trkpt>
      <trkpt lat="47.44739" lon="6.70919">
        <ele>437</ele>
        <time>2015-06-28T08:21:22.000Z</time>
      </trkpt>
      <trkpt lat="47.44736" lon="6.70921">
        <ele>438</ele>
        <time>2015-06-28T08:21:23.000Z</time>
      </trkpt>
      <trkpt lat="47.44732" lon="6.70923">
        <ele>438</ele>
        <time>2015-06-28T08:21:24.000Z</time>
      </trkpt>
      <trkpt lat="47.44729" lon="6.70925">
        <ele>439</ele>
        <time>2015-06-28T08:21:25.000Z</time>
      </trkpt>
      <trkpt lat="47.44727" lon="6.70927">
        <ele>439</ele>
        <time>2015-06-28T08:21:26.000Z</time>
      </trkpt>
      <trkpt lat="47.44725" lon="6.70929">
        <ele>440</ele>
        <time>2015-06-28T08:21:27.000Z</time>
      </trkpt>
      <trkpt lat="47.44723" lon="6.70931">
        <ele>440</ele>
        <time>2015-06-28T08:21:28.000Z</time>
      </trkpt>
      <trkpt lat="47.44721" lon="6.70933">
        <ele>440</ele>
        <time>2015-06-28T08:21:29.000Z</time>
      </trkpt>
      <trkpt lat="47.44718" lon="6.70934">
        <ele>441</ele>
        <time>2015-06-28T08:21:30.000Z</time>
      </trkpt>
      <trkpt lat="47.44716" lon="6.70936">
        <ele>441</ele>
        <time>2015-06-28T08:21:31.000Z</time>
      </trkpt>
      <trkpt lat="47.44713" lon="6.70937">
        <ele>441</ele>
        <time>2015-06-28T08:21:32.000Z</time>
      </trkpt>
      <trkpt lat="47.44709" lon="6.7094">
        <ele>442</ele>
        <time>2015-06-28T08:21:34.000Z</time>
      </trkpt>
      <trkpt lat="47.44706" lon="6.70945">
        <ele>442</ele>
        <time>2015-06-28T08:21:35.000Z</time>
      </trkpt>
      <trkpt lat="47.44704" lon="6.70949">
        <ele>442</ele>
        <time>2015-06-28T08:21:36.000Z</time>
      </trkpt>
      <trkpt lat="47.44702" lon="6.70952">
        <ele>442</ele>
        <time>2015-06-28T08:21:37.000Z</time>
      </trkpt>
      <trkpt lat="47.44699" lon="6.70956">
        <ele>442</ele>
        <time>2015-06-28T08:21:38.000Z</time>
      </trkpt>
      <trkpt lat="47.44696" lon="6.70959">
        <ele>442</ele>
        <time>2015-06-28T08:21:39.000Z</time>
      </trkpt>
      <trkpt lat="47.44693" lon="6.70961">
        <ele>442</ele>
        <time>2015-06-28T08:21:40.000Z</time>
      </trkpt>
      <trkpt lat="47.4469" lon="6.70964">
        <ele>443</ele>
        <time>2015-06-28T08:21:41.000Z</time>
      </trkpt>
      <trkpt lat="47.44687" lon="6.70966">
        <ele>443</ele>
        <time>2015-06-28T08:21:42.000Z</time>
      </trkpt>
      <trkpt lat="47.44684" lon="6.70969">
        <ele>443</ele>
        <time>2015-06-28T08:21:43.000Z</time>
      </trkpt>
      <trkpt lat="47.4468" lon="6.70971">
        <ele>443</ele>
        <time>2015-06-28T08:21:44.000Z</time>
      </trkpt>
      <trkpt lat="47.44676" lon="6.70973">
        <ele>443</ele>
        <time>2015-06-28T08:21:45.000Z</time>
      </trkpt>
      <trkpt lat="47.44673" lon="6.70974">
        <ele>443</ele>
        <time>2015-06-28T08:21:46.000Z</time>
      </trkpt>
      <trkpt lat="47.44669" lon="6.70976">
        <ele>443</ele>
        <time>2015-06-28T08:21:47.000Z</time>
      </trkpt>
      <trkpt lat="47.44666" lon="6.70978">
        <ele>447</ele>
        <time>2015-06-28T08:21:48.000Z</time>
      </trkpt>
      <trkpt lat="47.44663" lon="6.70979">
        <ele>447</ele>
        <time>2015-06-28T08:21:49.000Z</time>
      </trkpt>
      <trkpt lat="47.4466" lon="6.7098">
        <ele>447</ele>
        <time>2015-06-28T08:21:50.000Z</time>
      </trkpt>
      <trkpt lat="47.44657" lon="6.70981">
        <ele>447</ele>
        <time>2015-06-28T08:21:51.000Z</time>
      </trkpt>
      <trkpt lat="47.44654" lon="6.70982">
        <ele>447</ele>
        <time>2015-06-28T08:21:52.000Z</time>
      </trkpt>
      <trkpt lat="47.44651" lon="6.70983">
        <ele>447</ele>
        <time>2015-06-28T08:21:53.000Z</time>
      </trkpt>
      <trkpt lat="47.44648" lon="6.70984">
        <ele>448</ele>
        <time>2015-06-28T08:21:54.000Z</time>
      </trkpt>
      <trkpt lat="47.44644" lon="6.70986">
        <ele>448</ele>
        <time>2015-06-28T08:21:55.000Z</time>
      </trkpt>
      <trkpt lat="47.4464" lon="6.70988">
        <ele>448</ele>
        <time>2015-06-28T08:21:56.000Z</time>
      </trkpt>
      <trkpt lat="47.44636" lon="6.70989">
        <ele>448</ele>
        <time>2015-06-28T08:21:57.000Z</time>
      </trkpt>
      <trkpt lat="47.44632" lon="6.70991">
        <ele>449</ele>
        <time>2015-06-28T08:21:58.000Z</time>
      </trkpt>
      <trkpt lat="47.44628" lon="6.70993">
        <ele>449</ele>
        <time>2015-06-28T08:21:59.000Z</time>
      </trkpt>
      <trkpt lat="47.44624" lon="6.70997">
        <ele>449</ele>
        <time>2015-06-28T08:22:00.000Z</time>
      </trkpt>
      <trkpt lat="47.4462" lon="6.71">
        <ele>449</ele>
        <time>2015-06-28T08:22:01.000Z</time>
      </trkpt>
      <trkpt lat="47.44616" lon="6.71003">
        <ele>446</ele>
        <time>2015-06-28T08:22:02.000Z</time>
      </trkpt>
      <trkpt lat="47.44612" lon="6.71006">
        <ele>446</ele>
        <time>2015-06-28T08:22:03.000Z</time>
      </trkpt>
      <trkpt lat="47.44608" lon="6.7101">
        <ele>447</ele>
        <time>2015-06-28T08:22:04.000Z</time>
      </trkpt>
      <trkpt lat="47.44605" lon="6.71013">
        <ele>447</ele>
        <time>2015-06-28T08:22:05.000Z</time>
      </trkpt>
      <trkpt lat="47.44601" lon="6.71017">
        <ele>447</ele>
        <time>2015-06-28T08:22:06.000Z</time>
      </trkpt>
      <trkpt lat="47.44599" lon="6.7102">
        <ele>447</ele>
        <time>2015-06-28T08:22:07.000Z</time>
      </trkpt>
      <trkpt lat="47.44596" lon="6.71023">
        <ele>447</ele>
        <time>2015-06-28T08:22:08.000Z</time>
      </trkpt>
      <trkpt lat="47.44594" lon="6.71026">
        <ele>447</ele>
        <time>2015-06-28T08:22:09.000Z</time>
      </trkpt>
      <trkpt lat="47.44591" lon="6.71029">
        <ele>446</ele>
        <time>2015-06-28T08:22:10.000Z</time>
      </trkpt>
      <trkpt lat="47.44589" lon="6.71032">
        <ele>446</ele>
        <time>2015-06-28T08:22:11.000Z</time>
      </trkpt>
      <trkpt lat="47.44586" lon="6.71034">
        <ele>446</ele>
        <time>2015-06-28T08:22:12.000Z</time>
      </trkpt>
      <trkpt lat="47.44583" lon="6.71037">
        <ele>449</ele>
        <time>2015-06-28T08:22:13.000Z</time>
      </trkpt>
      <trkpt lat="47.4458" lon="6.7104">
        <ele>448</ele>
        <time>2015-06-28T08:22:14.000Z</time>
      </trkpt>
      <trkpt lat="47.44577" lon="6.71043">
        <ele>448</ele>
        <time>2015-06-28T08:22:15.000Z</time>
      </trkpt>
      <trkpt lat="47.44574" lon="6.71046">
        <ele>448</ele>
        <time>2015-06-28T08:22:16.000Z</time>
      </trkpt>
      <trkpt lat="47.44571" lon="6.71049">
        <ele>448</ele>
        <time>2015-06-28T08:22:17.000Z</time>
      </trkpt>
      <trkpt lat="47.44568" lon="6.71051">
        <ele>448</ele>
        <time>2015-06-28T08:22:18.000Z</time>
      </trkpt>
      <trkpt lat="47.44565" lon="6.71054">
        <ele>448</ele>
        <time>2015-06-28T08:22:19.000Z</time>
      </trkpt>
      <trkpt lat="47.44562" lon="6.71057">
        <ele>448</ele>
        <time>2015-06-28T08:22:20.000Z</time>
      </trkpt>
      <trkpt lat="47.44559" lon="6.71061">
        <ele>448</ele>
        <time>2015-06-28T08:22:21.000Z</time>
      </trkpt>
      <trkpt lat="47.44556" lon="6.71064">
        <ele>448</ele>
        <time>2015-06-28T08:22:22.000Z</time>
      </trkpt>
      <trkpt lat="47.44553" lon="6.71068">
        <ele>448</ele>
        <time>2015-06-28T08:22:23.000Z</time>
      </trkpt>
      <trkpt lat="47.44551" lon="6.71072">
        <ele>448</ele>
        <time>2015-06-28T08:22:24.000Z</time>
      </trkpt>
      <trkpt lat="47.44548" lon="6.71075">
        <ele>448</ele>
        <time>2015-06-28T08:22:25.000Z</time>
      </trkpt>
      <trkpt lat="47.44545" lon="6.71079">
        <ele>448</ele>
        <time>2015-06-28T08:22:26.000Z</time>
      </trkpt>
      <trkpt lat="47.44543" lon="6.71083">
        <ele>448</ele>
        <time>2015-06-28T08:22:27.000Z</time>
      </trkpt>
      <trkpt lat="47.44541" lon="6.71087">
        <ele>445</ele>
        <time>2015-06-28T08:22:28.000Z</time>
      </trkpt>
      <trkpt lat="47.44539" lon="6.71091">
        <ele>445</ele>
        <time>2015-06-28T08:22:29.000Z</time>
      </trkpt>
      <trkpt lat="47.44537" lon="6.71094">
        <ele>445</ele>
        <time>2015-06-28T08:22:30.000Z</time>
      </trkpt>
      <trkpt lat="47.44534" lon="6.71098">
        <ele>445</ele>
        <time>2015-06-28T08:22:31.000Z</time>
      </trkpt>
      <trkpt lat="47.44531" lon="6.71101">
        <ele>445</ele>
        <time>2015-06-28T08:22:32.000Z</time>
      </trkpt>
      <trkpt lat="47.44528" lon="6.71105">
        <ele>446</ele>
        <time>2015-06-28T08:22:33.000Z</time>
      </trkpt>
      <trkpt lat="47.44525" lon="6.71108">
        <ele>446</ele>
        <time>2015-06-28T08:22:34.000Z</time>
      </trkpt>
      <trkpt lat="47.44523" lon="6.71111">
        <ele>446</ele>
        <time>2015-06-28T08:22:35.000Z</time>
      </trkpt>
      <trkpt lat="47.44519" lon="6.71114">
        <ele>446</ele>
        <time>2015-06-28T08:22:36.000Z</time>
      </trkpt>
      <trkpt lat="47.44516" lon="6.71117">
        <ele>446</ele>
        <time>2015-06-28T08:22:37.000Z</time>
      </trkpt>
      <trkpt lat="47.44513" lon="6.7112">
        <ele>446</ele>
        <time>2015-06-28T08:22:38.000Z</time>
      </trkpt>
      <trkpt lat="47.44509" lon="6.71123">
        <ele>446</ele>
        <time>2015-06-28T08:22:39.000Z</time>
      </trkpt>
      <trkpt lat="47.44507" lon="6.71125">
        <ele>446</ele>
        <time>2015-06-28T08:22:40.000Z</time>
      </trkpt>
      <trkpt lat="47.44504" lon="6.71127">
        <ele>446</ele>
        <time>2015-06-28T08:22:41.000Z</time>
      </trkpt>
      <trkpt lat="47.44502" lon="6.71129">
        <ele>445</ele>
        <time>2015-06-28T08:22:42.000Z</time>
      </trkpt>
      <trkpt lat="47.44499" lon="6.71131">
        <ele>448</ele>
        <time>2015-06-28T08:22:43.000Z</time>
      </trkpt>
      <trkpt lat="47.44497" lon="6.71134">
        <ele>448</ele>
        <time>2015-06-28T08:22:44.000Z</time>
      </trkpt>
      <trkpt lat="47.44494" lon="6.71137">
        <ele>448</ele>
        <time>2015-06-28T08:22:45.000Z</time>
      </trkpt>
      <trkpt lat="47.44491" lon="6.71139">
        <ele>448</ele>
        <time>2015-06-28T08:22:46.000Z</time>
      </trkpt>
      <trkpt lat="47.44489" lon="6.71142">
        <ele>448</ele>
        <time>2015-06-28T08:22:47.000Z</time>
      </trkpt>
      <trkpt lat="47.44487" lon="6.71143">
        <ele>448</ele>
        <time>2015-06-28T08:22:48.000Z</time>
      </trkpt>
      <trkpt lat="47.44484" lon="6.71144">
        <ele>448</ele>
        <time>2015-06-28T08:22:49.000Z</time>
      </trkpt>
      <trkpt lat="47.44481" lon="6.71145">
        <ele>448</ele>
        <time>2015-06-28T08:22:50.000Z</time>
      </trkpt>
      <trkpt lat="47.44479" lon="6.71147">
        <ele>448</ele>
        <time>2015-06-28T08:22:51.000Z</time>
      </trkpt>
      <trkpt lat="47.44476" lon="6.71148">
        <ele>449</ele>
        <time>2015-06-28T08:22:52.000Z</time>
      </trkpt>
      <trkpt lat="47.44474" lon="6.71149">
        <ele>449</ele>
        <time>2015-06-28T08:22:53.000Z</time>
      </trkpt>
      <trkpt lat="47.44471" lon="6.7115">
        <ele>449</ele>
        <time>2015-06-28T08:22:54.000Z</time>
      </trkpt>
      <trkpt lat="47.44468" lon="6.71152">
        <ele>449</ele>
        <time>2015-06-28T08:22:55.000Z</time>
      </trkpt>
      <trkpt lat="47.44466" lon="6.71155">
        <ele>449</ele>
        <time>2015-06-28T08:22:56.000Z</time>
      </trkpt>
      <trkpt lat="47.44464" lon="6.71157">
        <ele>449</ele>
        <time>2015-06-28T08:22:57.000Z</time>
      </trkpt>
      <trkpt lat="47.44461" lon="6.7116">
        <ele>449</ele>
        <time>2015-06-28T08:22:58.000Z</time>
      </trkpt>
      <trkpt lat="47.44459" lon="6.71163">
        <ele>449</ele>
        <time>2015-06-28T08:22:59.000Z</time>
      </trkpt>
      <trkpt lat="47.44456" lon="6.71165">
        <ele>449</ele>
        <time>2015-06-28T08:23:00.000Z</time>
      </trkpt>
      <trkpt lat="47.44454" lon="6.71169">
        <ele>449</ele>
        <time>2015-06-28T08:23:01.000Z</time>
      </trkpt>
      <trkpt lat="47.44451" lon="6.71171">
        <ele>449</ele>
        <time>2015-06-28T08:23:02.000Z</time>
      </trkpt>
      <trkpt lat="47.44449" lon="6.71175">
        <ele>449</ele>
        <time>2015-06-28T08:23:03.000Z</time>
      </trkpt>
      <trkpt lat="47.44446" lon="6.71179">
        <ele>449</ele>
        <time>2015-06-28T08:23:04.000Z</time>
      </trkpt>
      <trkpt lat="47.44443" lon="6.71182">
        <ele>449</ele>
        <time>2015-06-28T08:23:05.000Z</time>
      </trkpt>
      <trkpt lat="47.4444" lon="6.71186">
        <ele>449</ele>
        <time>2015-06-28T08:23:06.000Z</time>
      </trkpt>
      <trkpt lat="47.44437" lon="6.71189">
        <ele>449</ele>
        <time>2015-06-28T08:23:07.000Z</time>
      </trkpt>
      <trkpt lat="47.44433" lon="6.71193">
        <ele>449</ele>
        <time>2015-06-28T08:23:08.000Z</time>
      </trkpt>
      <trkpt lat="47.44429" lon="6.71196">
        <ele>450</ele>
        <time>2015-06-28T08:23:09.000Z</time>
      </trkpt>
      <trkpt lat="47.44425" lon="6.712">
        <ele>450</ele>
        <time>2015-06-28T08:23:10.000Z</time>
      </trkpt>
      <trkpt lat="47.44422" lon="6.71204">
        <ele>450</ele>
        <time>2015-06-28T08:23:11.000Z</time>
      </trkpt>
      <trkpt lat="47.44419" lon="6.71208">
        <ele>450</ele>
        <time>2015-06-28T08:23:12.000Z</time>
      </trkpt>
      <trkpt lat="47.44416" lon="6.71212">
        <ele>454</ele>
        <time>2015-06-28T08:23:13.000Z</time>
      </trkpt>
      <trkpt lat="47.44413" lon="6.71216">
        <ele>454</ele>
        <time>2015-06-28T08:23:14.000Z</time>
      </trkpt>
      <trkpt lat="47.44411" lon="6.7122">
        <ele>454</ele>
        <time>2015-06-28T08:23:15.000Z</time>
      </trkpt>
      <trkpt lat="47.44408" lon="6.71224">
        <ele>454</ele>
        <time>2015-06-28T08:23:16.000Z</time>
      </trkpt>
      <trkpt lat="47.44406" lon="6.71227">
        <ele>454</ele>
        <time>2015-06-28T08:23:17.000Z</time>
      </trkpt>
      <trkpt lat="47.44403" lon="6.7123">
        <ele>454</ele>
        <time>2015-06-28T08:23:18.000Z</time>
      </trkpt>
      <trkpt lat="47.444" lon="6.71233">
        <ele>454</ele>
        <time>2015-06-28T08:23:19.000Z</time>
      </trkpt>
      <trkpt lat="47.44397" lon="6.71236">
        <ele>454</ele>
        <time>2015-06-28T08:23:20.000Z</time>
      </trkpt>
      <trkpt lat="47.44394" lon="6.71238">
        <ele>454</ele>
        <time>2015-06-28T08:23:21.000Z</time>
      </trkpt>
      <trkpt lat="47.44391" lon="6.7124">
        <ele>454</ele>
        <time>2015-06-28T08:23:22.000Z</time>
      </trkpt>
      <trkpt lat="47.44389" lon="6.71242">
        <ele>454</ele>
        <time>2015-06-28T08:23:23.000Z</time>
      </trkpt>
      <trkpt lat="47.44386" lon="6.71243">
        <ele>455</ele>
        <time>2015-06-28T08:23:24.000Z</time>
      </trkpt>
      <trkpt lat="47.44384" lon="6.71245">
        <ele>455</ele>
        <time>2015-06-28T08:23:25.000Z</time>
      </trkpt>
      <trkpt lat="47.44381" lon="6.71246">
        <ele>455</ele>
        <time>2015-06-28T08:23:26.000Z</time>
      </trkpt>
      <trkpt lat="47.44379" lon="6.71248">
        <ele>455</ele>
        <time>2015-06-28T08:23:27.000Z</time>
      </trkpt>
      <trkpt lat="47.44376" lon="6.71249">
        <ele>455</ele>
        <time>2015-06-28T08:23:28.000Z</time>
      </trkpt>
      <trkpt lat="47.44373" lon="6.71252">
        <ele>455</ele>
        <time>2015-06-28T08:23:29.000Z</time>
      </trkpt>
      <trkpt lat="47.44369" lon="6.71255">
        <ele>455</ele>
        <time>2015-06-28T08:23:30.000Z</time>
      </trkpt>
      <trkpt lat="47.44366" lon="6.71257">
        <ele>455</ele>
        <time>2015-06-28T08:23:31.000Z</time>
      </trkpt>
      <trkpt lat="47.44363" lon="6.71259">
        <ele>456</ele>
        <time>2015-06-28T08:23:32.000Z</time>
      </trkpt>
      <trkpt lat="47.44359" lon="6.71262">
        <ele>456</ele>
        <time>2015-06-28T08:23:33.000Z</time>
      </trkpt>
      <trkpt lat="47.44356" lon="6.71266">
        <ele>456</ele>
        <time>2015-06-28T08:23:34.000Z</time>
      </trkpt>
      <trkpt lat="47.44353" lon="6.7127">
        <ele>456</ele>
        <time>2015-06-28T08:23:35.000Z</time>
      </trkpt>
      <trkpt lat="47.44351" lon="6.71275">
        <ele>456</ele>
        <time>2015-06-28T08:23:36.000Z</time>
      </trkpt>
      <trkpt lat="47.44348" lon="6.71279">
        <ele>456</ele>
        <time>2015-06-28T08:23:37.000Z</time>
      </trkpt>
      <trkpt lat="47.44346" lon="6.71283">
        <ele>456</ele>
        <time>2015-06-28T08:23:38.000Z</time>
      </trkpt>
      <trkpt lat="47.44345" lon="6.71286">
        <ele>456</ele>
        <time>2015-06-28T08:23:39.000Z</time>
      </trkpt>
      <trkpt lat="47.44342" lon="6.71289">
        <ele>456</ele>
        <time>2015-06-28T08:23:40.000Z</time>
      </trkpt>
      <trkpt lat="47.4434" lon="6.71292">
        <ele>456</ele>
        <time>2015-06-28T08:23:41.000Z</time>
      </trkpt>
      <trkpt lat="47.44338" lon="6.71296">
        <ele>456</ele>
        <time>2015-06-28T08:23:42.000Z</time>
      </trkpt>
      <trkpt lat="47.44336" lon="6.71299">
        <ele>456</ele>
        <time>2015-06-28T08:23:43.000Z</time>
      </trkpt>
      <trkpt lat="47.44334" lon="6.71303">
        <ele>456</ele>
        <time>2015-06-28T08:23:44.000Z</time>
      </trkpt>
      <trkpt lat="47.44332" lon="6.71307">
        <ele>459</ele>
        <time>2015-06-28T08:23:45.000Z</time>
      </trkpt>
      <trkpt lat="47.4433" lon="6.71312">
        <ele>459</ele>
        <time>2015-06-28T08:23:46.000Z</time>
      </trkpt>
      <trkpt lat="47.44329" lon="6.71317">
        <ele>459</ele>
        <time>2015-06-28T08:23:47.000Z</time>
      </trkpt>
      <trkpt lat="47.44327" lon="6.71321">
        <ele>458</ele>
        <time>2015-06-28T08:23:48.000Z</time>
      </trkpt>
      <trkpt lat="47.44325" lon="6.71326">
        <ele>458</ele>
        <time>2015-06-28T08:23:49.000Z</time>
      </trkpt>
      <trkpt lat="47.44322" lon="6.71329">
        <ele>458</ele>
        <time>2015-06-28T08:23:50.000Z</time>
      </trkpt>
      <trkpt lat="47.4432" lon="6.71332">
        <ele>458</ele>
        <time>2015-06-28T08:23:51.000Z</time>
      </trkpt>
      <trkpt lat="47.44318" lon="6.71335">
        <ele>457</ele>
        <time>2015-06-28T08:23:52.000Z</time>
      </trkpt>
      <trkpt lat="47.44315" lon="6.71337">
        <ele>457</ele>
        <time>2015-06-28T08:23:53.000Z</time>
      </trkpt>
      <trkpt lat="47.44313" lon="6.7134">
        <ele>458</ele>
        <time>2015-06-28T08:23:54.000Z</time>
      </trkpt>
      <trkpt lat="47.4431" lon="6.71342">
        <ele>458</ele>
        <time>2015-06-28T08:23:55.000Z</time>
      </trkpt>
      <trkpt lat="47.44308" lon="6.71344">
        <ele>458</ele>
        <time>2015-06-28T08:23:56.000Z</time>
      </trkpt>
      <trkpt lat="47.44305" lon="6.71346">
        <ele>458</ele>
        <time>2015-06-28T08:23:57.000Z</time>
      </trkpt>
      <trkpt lat="47.44303" lon="6.71348">
        <ele>458</ele>
        <time>2015-06-28T08:23:58.000Z</time>
      </trkpt>
      <trkpt lat="47.44301" lon="6.71348">
        <ele>458</ele>
        <time>2015-06-28T08:23:59.000Z</time>
      </trkpt>
      <trkpt lat="47.44298" lon="6.71348">
        <ele>458</ele>
        <time>2015-06-28T08:24:00.000Z</time>
      </trkpt>
      <trkpt lat="47.44296" lon="6.71348">
        <ele>458</ele>
        <time>2015-06-28T08:24:01.000Z</time>
      </trkpt>
      <trkpt lat="47.44293" lon="6.71349">
        <ele>458</ele>
        <time>2015-06-28T08:24:02.000Z</time>
      </trkpt>
      <trkpt lat="47.4429" lon="6.7135">
        <ele>458</ele>
        <time>2015-06-28T08:24:03.000Z</time>
      </trkpt>
      <trkpt lat="47.44288" lon="6.71351">
        <ele>458</ele>
        <time>2015-06-28T08:24:04.000Z</time>
      </trkpt>
      <trkpt lat="47.44285" lon="6.71352">
        <ele>458</ele>
        <time>2015-06-28T08:24:05.000Z</time>
      </trkpt>
      <trkpt lat="47.44283" lon="6.71354">
        <ele>458</ele>
        <time>2015-06-28T08:24:06.000Z</time>
      </trkpt>
      <trkpt lat="47.4428" lon="6.71357">
        <ele>458</ele>
        <time>2015-06-28T08:24:07.000Z</time>
      </trkpt>
      <trkpt lat="47.44279" lon="6.7136">
        <ele>458</ele>
        <time>2015-06-28T08:24:08.000Z</time>
      </trkpt>
      <trkpt lat="47.44277" lon="6.71363">
        <ele>458</ele>
        <time>2015-06-28T08:24:09.000Z</time>
      </trkpt>
      <trkpt lat="47.44275" lon="6.71367">
        <ele>458</ele>
        <time>2015-06-28T08:24:10.000Z</time>
      </trkpt>
      <trkpt lat="47.44272" lon="6.71373">
        <ele>458</ele>
        <time>2015-06-28T08:24:11.000Z</time>
      </trkpt>
      <trkpt lat="47.4427" lon="6.71379">
        <ele>458</ele>
        <time>2015-06-28T08:24:12.000Z</time>
      </trkpt>
      <trkpt lat="47.44269" lon="6.71384">
        <ele>458</ele>
        <time>2015-06-28T08:24:13.000Z</time>
      </trkpt>
      <trkpt lat="47.44267" lon="6.71389">
        <ele>458</ele>
        <time>2015-06-28T08:24:14.000Z</time>
      </trkpt>
      <trkpt lat="47.44266" lon="6.71393">
        <ele>458</ele>
        <time>2015-06-28T08:24:15.000Z</time>
      </trkpt>
      <trkpt lat="47.44263" lon="6.71397">
        <ele>458</ele>
        <time>2015-06-28T08:24:16.000Z</time>
      </trkpt>
      <trkpt lat="47.4426" lon="6.71415">
        <ele>458</ele>
        <time>2015-06-28T08:24:17.000Z</time>
      </trkpt>
      <trkpt lat="47.44258" lon="6.71418">
        <ele>459</ele>
        <time>2015-06-28T08:24:20.000Z</time>
      </trkpt>
      <trkpt lat="47.44256" lon="6.7142">
        <ele>459</ele>
        <time>2015-06-28T08:24:21.000Z</time>
      </trkpt>
      <trkpt lat="47.44256" lon="6.71426">
        <ele>459</ele>
        <time>2015-06-28T08:24:23.000Z</time>
      </trkpt>
      <trkpt lat="47.44256" lon="6.71432">
        <ele>460</ele>
        <time>2015-06-28T08:24:24.000Z</time>
      </trkpt>
      <trkpt lat="47.44256" lon="6.71434">
        <ele>460</ele>
        <time>2015-06-28T08:24:25.000Z</time>
      </trkpt>
      <trkpt lat="47.44255" lon="6.7144">
        <ele>460</ele>
        <time>2015-06-28T08:24:26.000Z</time>
      </trkpt>
      <trkpt lat="47.44254" lon="6.71446">
        <ele>460</ele>
        <time>2015-06-28T08:24:28.000Z</time>
      </trkpt>
      <trkpt lat="47.44254" lon="6.71449">
        <ele>461</ele>
        <time>2015-06-28T08:24:29.000Z</time>
      </trkpt>
      <trkpt lat="47.44253" lon="6.71454">
        <ele>461</ele>
        <time>2015-06-28T08:24:31.000Z</time>
      </trkpt>
      <trkpt lat="47.44253" lon="6.71457">
        <ele>461</ele>
        <time>2015-06-28T08:24:32.000Z</time>
      </trkpt>
      <trkpt lat="47.44253" lon="6.7146">
        <ele>461</ele>
        <time>2015-06-28T08:24:33.000Z</time>
      </trkpt>
      <trkpt lat="47.44253" lon="6.71464">
        <ele>462</ele>
        <time>2015-06-28T08:24:34.000Z</time>
      </trkpt>
      <trkpt lat="47.44253" lon="6.71467">
        <ele>462</ele>
        <time>2015-06-28T08:24:35.000Z</time>
      </trkpt>
      <trkpt lat="47.44253" lon="6.71471">
        <ele>462</ele>
        <time>2015-06-28T08:24:36.000Z</time>
      </trkpt>
      <trkpt lat="47.44253" lon="6.71477">
        <ele>463</ele>
        <time>2015-06-28T08:24:38.000Z</time>
      </trkpt>
      <trkpt lat="47.44253" lon="6.71479">
        <ele>463</ele>
        <time>2015-06-28T08:24:39.000Z</time>
      </trkpt>
      <trkpt lat="47.44251" lon="6.71485">
        <ele>464</ele>
        <time>2015-06-28T08:24:44.000Z</time>
      </trkpt>
      <trkpt lat="47.4425" lon="6.71486">
        <ele>464</ele>
        <time>2015-06-28T08:24:45.000Z</time>
      </trkpt>
      <trkpt lat="47.44248" lon="6.7149">
        <ele>466</ele>
        <time>2015-06-28T08:24:49.000Z</time>
      </trkpt>
      <trkpt lat="47.44247" lon="6.71491">
        <ele>466</ele>
        <time>2015-06-28T08:24:50.000Z</time>
      </trkpt>
      <trkpt lat="47.44246" lon="6.71495">
        <ele>466</ele>
        <time>2015-06-28T08:24:52.000Z</time>
      </trkpt>
      <trkpt lat="47.44245" lon="6.71498">
        <ele>466</ele>
        <time>2015-06-28T08:24:53.000Z</time>
      </trkpt>
      <trkpt lat="47.44243" lon="6.71503">
        <ele>467</ele>
        <time>2015-06-28T08:24:55.000Z</time>
      </trkpt>
      <trkpt lat="47.44242" lon="6.71506">
        <ele>467</ele>
        <time>2015-06-28T08:24:56.000Z</time>
      </trkpt>
      <trkpt lat="47.44239" lon="6.71511">
        <ele>468</ele>
        <time>2015-06-28T08:24:59.000Z</time>
      </trkpt>
      <trkpt lat="47.44238" lon="6.71512">
        <ele>468</ele>
        <time>2015-06-28T08:25:00.000Z</time>
      </trkpt>
      <trkpt lat="47.44235" lon="6.71516">
        <ele>468</ele>
        <time>2015-06-28T08:25:02.000Z</time>
      </trkpt>
      <trkpt lat="47.44234" lon="6.71518">
        <ele>469</ele>
        <time>2015-06-28T08:25:03.000Z</time>
      </trkpt>
      <trkpt lat="47.44233" lon="6.71523">
        <ele>469</ele>
        <time>2015-06-28T08:25:05.000Z</time>
      </trkpt>
      <trkpt lat="47.44232" lon="6.71526">
        <ele>469</ele>
        <time>2015-06-28T08:25:06.000Z</time>
      </trkpt>
      <trkpt lat="47.44232" lon="6.71529">
        <ele>469</ele>
        <time>2015-06-28T08:25:07.000Z</time>
      </trkpt>
      <trkpt lat="47.4423" lon="6.71533">
        <ele>469</ele>
        <time>2015-06-28T08:25:08.000Z</time>
      </trkpt>
      <trkpt lat="47.44229" lon="6.71536">
        <ele>469</ele>
        <time>2015-06-28T08:25:09.000Z</time>
      </trkpt>
      <trkpt lat="47.44228" lon="6.71539">
        <ele>469</ele>
        <time>2015-06-28T08:25:10.000Z</time>
      </trkpt>
      <trkpt lat="47.44227" lon="6.71544">
        <ele>470</ele>
        <time>2015-06-28T08:25:12.000Z</time>
      </trkpt>
      <trkpt lat="47.44226" lon="6.71547">
        <ele>470</ele>
        <time>2015-06-28T08:25:13.000Z</time>
      </trkpt>
      <trkpt lat="47.44227" lon="6.71553">
        <ele>470</ele>
        <time>2015-06-28T08:25:16.000Z</time>
      </trkpt>
      <trkpt lat="47.44227" lon="6.71555">
        <ele>470</ele>
        <time>2015-06-28T08:25:17.000Z</time>
      </trkpt>
      <trkpt lat="47.44227" lon="6.71558">
        <ele>470</ele>
        <time>2015-06-28T08:25:18.000Z</time>
      </trkpt>
      <trkpt lat="47.44227" lon="6.71562">
        <ele>470</ele>
        <time>2015-06-28T08:25:19.000Z</time>
      </trkpt>
      <trkpt lat="47.44226" lon="6.71566">
        <ele>470</ele>
        <time>2015-06-28T08:25:20.000Z</time>
      </trkpt>
      <trkpt lat="47.44225" lon="6.71571">
        <ele>470</ele>
        <time>2015-06-28T08:25:21.000Z</time>
      </trkpt>
      <trkpt lat="47.44225" lon="6.71576">
        <ele>470</ele>
        <time>2015-06-28T08:25:22.000Z</time>
      </trkpt>
      <trkpt lat="47.44224" lon="6.7158">
        <ele>470</ele>
        <time>2015-06-28T08:25:23.000Z</time>
      </trkpt>
      <trkpt lat="47.44222" lon="6.71585">
        <ele>469</ele>
        <time>2015-06-28T08:25:24.000Z</time>
      </trkpt>
      <trkpt lat="47.44221" lon="6.7159">
        <ele>469</ele>
        <time>2015-06-28T08:25:25.000Z</time>
      </trkpt>
      <trkpt lat="47.4422" lon="6.71595">
        <ele>469</ele>
        <time>2015-06-28T08:25:26.000Z</time>
      </trkpt>
      <trkpt lat="47.44219" lon="6.71599">
        <ele>469</ele>
        <time>2015-06-28T08:25:27.000Z</time>
      </trkpt>
      <trkpt lat="47.44218" lon="6.71604">
        <ele>469</ele>
        <time>2015-06-28T08:25:28.000Z</time>
      </trkpt>
      <trkpt lat="47.44217" lon="6.71608">
        <ele>469</ele>
        <time>2015-06-28T08:25:29.000Z</time>
      </trkpt>
      <trkpt lat="47.44216" lon="6.71613">
        <ele>469</ele>
        <time>2015-06-28T08:25:30.000Z</time>
      </trkpt>
      <trkpt lat="47.44216" lon="6.71618">
        <ele>469</ele>
        <time>2015-06-28T08:25:31.000Z</time>
      </trkpt>
      <trkpt lat="47.44215" lon="6.71623">
        <ele>469</ele>
        <time>2015-06-28T08:25:32.000Z</time>
      </trkpt>
      <trkpt lat="47.44215" lon="6.71628">
        <ele>469</ele>
        <time>2015-06-28T08:25:33.000Z</time>
      </trkpt>
      <trkpt lat="47.44214" lon="6.71632">
        <ele>469</ele>
        <time>2015-06-28T08:25:34.000Z</time>
      </trkpt>
      <trkpt lat="47.44213" lon="6.71637">
        <ele>469</ele>
        <time>2015-06-28T08:25:35.000Z</time>
      </trkpt>
      <trkpt lat="47.44212" lon="6.71642">
        <ele>469</ele>
        <time>2015-06-28T08:25:36.000Z</time>
      </trkpt>
      <trkpt lat="47.44211" lon="6.71646">
        <ele>469</ele>
        <time>2015-06-28T08:25:37.000Z</time>
      </trkpt>
      <trkpt lat="47.44211" lon="6.71651">
        <ele>469</ele>
        <time>2015-06-28T08:25:38.000Z</time>
      </trkpt>
      <trkpt lat="47.4421" lon="6.71655">
        <ele>469</ele>
        <time>2015-06-28T08:25:39.000Z</time>
      </trkpt>
      <trkpt lat="47.44208" lon="6.71659">
        <ele>469</ele>
        <time>2015-06-28T08:25:40.000Z</time>
      </trkpt>
      <trkpt lat="47.44207" lon="6.71663">
        <ele>469</ele>
        <time>2015-06-28T08:25:41.000Z</time>
      </trkpt>
      <trkpt lat="47.44205" lon="6.71667">
        <ele>468</ele>
        <time>2015-06-28T08:25:42.000Z</time>
      </trkpt>
      <trkpt lat="47.44202" lon="6.71671">
        <ele>468</ele>
        <time>2015-06-28T08:25:43.000Z</time>
      </trkpt>
      <trkpt lat="47.442" lon="6.71675">
        <ele>468</ele>
        <time>2015-06-28T08:25:44.000Z</time>
      </trkpt>
      <trkpt lat="47.44199" lon="6.7168">
        <ele>468</ele>
        <time>2015-06-28T08:25:45.000Z</time>
      </trkpt>
      <trkpt lat="47.44197" lon="6.71684">
        <ele>468</ele>
        <time>2015-06-28T08:25:46.000Z</time>
      </trkpt>
      <trkpt lat="47.44197" lon="6.71688">
        <ele>468</ele>
        <time>2015-06-28T08:25:47.000Z</time>
      </trkpt>
      <trkpt lat="47.44196" lon="6.71693">
        <ele>468</ele>
        <time>2015-06-28T08:25:48.000Z</time>
      </trkpt>
      <trkpt lat="47.44195" lon="6.71699">
        <ele>468</ele>
        <time>2015-06-28T08:25:49.000Z</time>
      </trkpt>
      <trkpt lat="47.44195" lon="6.71705">
        <ele>468</ele>
        <time>2015-06-28T08:25:50.000Z</time>
      </trkpt>
      <trkpt lat="47.44195" lon="6.71711">
        <ele>468</ele>
        <time>2015-06-28T08:25:51.000Z</time>
      </trkpt>
      <trkpt lat="47.44195" lon="6.71717">
        <ele>468</ele>
        <time>2015-06-28T08:25:52.000Z</time>
      </trkpt>
      <trkpt lat="47.44195" lon="6.71724">
        <ele>468</ele>
        <time>2015-06-28T08:25:53.000Z</time>
      </trkpt>
      <trkpt lat="47.44195" lon="6.71731">
        <ele>468</ele>
        <time>2015-06-28T08:25:54.000Z</time>
      </trkpt>
      <trkpt lat="47.44195" lon="6.71737">
        <ele>468</ele>
        <time>2015-06-28T08:25:55.000Z</time>
      </trkpt>
      <trkpt lat="47.44195" lon="6.71743">
        <ele>468</ele>
        <time>2015-06-28T08:25:56.000Z</time>
      </trkpt>
      <trkpt lat="47.44195" lon="6.71748">
        <ele>468</ele>
        <time>2015-06-28T08:25:57.000Z</time>
      </trkpt>
      <trkpt lat="47.44196" lon="6.71753">
        <ele>469</ele>
        <time>2015-06-28T08:25:58.000Z</time>
      </trkpt>
      <trkpt lat="47.44197" lon="6.71758">
        <ele>469</ele>
        <time>2015-06-28T08:25:59.000Z</time>
      </trkpt>
      <trkpt lat="47.44198" lon="6.71762">
        <ele>469</ele>
        <time>2015-06-28T08:26:00.000Z</time>
      </trkpt>
      <trkpt lat="47.44199" lon="6.71766">
        <ele>469</ele>
        <time>2015-06-28T08:26:01.000Z</time>
      </trkpt>
      <trkpt lat="47.442" lon="6.7177">
        <ele>469</ele>
        <time>2015-06-28T08:26:02.000Z</time>
      </trkpt>
      <trkpt lat="47.44201" lon="6.71774">
        <ele>469</ele>
        <time>2015-06-28T08:26:03.000Z</time>
      </trkpt>
      <trkpt lat="47.44202" lon="6.71778">
        <ele>469</ele>
        <time>2015-06-28T08:26:04.000Z</time>
      </trkpt>
      <trkpt lat="47.44202" lon="6.71781">
        <ele>469</ele>
        <time>2015-06-28T08:26:05.000Z</time>
      </trkpt>
      <trkpt lat="47.44203" lon="6.71784">
        <ele>469</ele>
        <time>2015-06-28T08:26:06.000Z</time>
      </trkpt>
      <trkpt lat="47.44204" lon="6.7179">
        <ele>469</ele>
        <time>2015-06-28T08:26:08.000Z</time>
      </trkpt>
      <trkpt lat="47.44205" lon="6.71793">
        <ele>469</ele>
        <time>2015-06-28T08:26:09.000Z</time>
      </trkpt>
      <trkpt lat="47.44206" lon="6.71799">
        <ele>470</ele>
        <time>2015-06-28T08:26:11.000Z</time>
      </trkpt>
      <trkpt lat="47.44207" lon="6.71803">
        <ele>470</ele>
        <time>2015-06-28T08:26:12.000Z</time>
      </trkpt>
      <trkpt lat="47.44209" lon="6.71808">
        <ele>470</ele>
        <time>2015-06-28T08:26:13.000Z</time>
      </trkpt>
      <trkpt lat="47.4421" lon="6.71814">
        <ele>470</ele>
        <time>2015-06-28T08:26:14.000Z</time>
      </trkpt>
      <trkpt lat="47.44212" lon="6.7182">
        <ele>470</ele>
        <time>2015-06-28T08:26:15.000Z</time>
      </trkpt>
      <trkpt lat="47.44213" lon="6.71825">
        <ele>470</ele>
        <time>2015-06-28T08:26:16.000Z</time>
      </trkpt>
      <trkpt lat="47.44213" lon="6.7183">
        <ele>470</ele>
        <time>2015-06-28T08:26:17.000Z</time>
      </trkpt>
      <trkpt lat="47.44212" lon="6.71833">
        <ele>470</ele>
        <time>2015-06-28T08:26:18.000Z</time>
      </trkpt>
      <trkpt lat="47.44212" lon="6.71837">
        <ele>471</ele>
        <time>2015-06-28T08:26:19.000Z</time>
      </trkpt>
      <trkpt lat="47.44212" lon="6.7184">
        <ele>471</ele>
        <time>2015-06-28T08:26:20.000Z</time>
      </trkpt>
      <trkpt lat="47.44213" lon="6.71844">
        <ele>471</ele>
        <time>2015-06-28T08:26:21.000Z</time>
      </trkpt>
      <trkpt lat="47.44213" lon="6.71847">
        <ele>471</ele>
        <time>2015-06-28T08:26:22.000Z</time>
      </trkpt>
      <trkpt lat="47.44214" lon="6.71851">
        <ele>471</ele>
        <time>2015-06-28T08:26:23.000Z</time>
      </trkpt>
      <trkpt lat="47.44214" lon="6.71854">
        <ele>471</ele>
        <time>2015-06-28T08:26:24.000Z</time>
      </trkpt>
      <trkpt lat="47.44213" lon="6.7186">
        <ele>471</ele>
        <time>2015-06-28T08:26:26.000Z</time>
      </trkpt>
      <trkpt lat="47.44212" lon="6.71862">
        <ele>471</ele>
        <time>2015-06-28T08:26:27.000Z</time>
      </trkpt>
      <trkpt lat="47.44209" lon="6.71866">
        <ele>471</ele>
        <time>2015-06-28T08:26:29.000Z</time>
      </trkpt>
      <trkpt lat="47.44208" lon="6.71867">
        <ele>471</ele>
        <time>2015-06-28T08:26:30.000Z</time>
      </trkpt>
      <trkpt lat="47.44205" lon="6.71872">
        <ele>471</ele>
        <time>2015-06-28T08:26:34.000Z</time>
      </trkpt>
      <trkpt lat="47.44205" lon="6.71873">
        <ele>471</ele>
        <time>2015-06-28T08:26:35.000Z</time>
      </trkpt>
      <trkpt lat="47.442" lon="6.71873">
        <ele>471</ele>
        <time>2015-06-28T08:26:40.000Z</time>
      </trkpt>
      <trkpt lat="47.44198" lon="6.7187">
        <ele>471</ele>
        <time>2015-06-28T08:26:41.000Z</time>
      </trkpt>
      <trkpt lat="47.44195" lon="6.71867">
        <ele>471</ele>
        <time>2015-06-28T08:26:42.000Z</time>
      </trkpt>
      <trkpt lat="47.44192" lon="6.71863">
        <ele>471</ele>
        <time>2015-06-28T08:26:43.000Z</time>
      </trkpt>
      <trkpt lat="47.44189" lon="6.71859">
        <ele>471</ele>
        <time>2015-06-28T08:26:44.000Z</time>
      </trkpt>
      <trkpt lat="47.44186" lon="6.71856">
        <ele>471</ele>
        <time>2015-06-28T08:26:45.000Z</time>
      </trkpt>
      <trkpt lat="47.44183" lon="6.71853">
        <ele>471</ele>
        <time>2015-06-28T08:26:47.000Z</time>
      </trkpt>
      <trkpt lat="47.44182" lon="6.71852">
        <ele>471</ele>
        <time>2015-06-28T08:26:48.000Z</time>
      </trkpt>
      <trkpt lat="47.44179" lon="6.71852">
        <ele>471</ele>
        <time>2015-06-28T08:26:52.000Z</time>
      </trkpt>
      <trkpt lat="47.44177" lon="6.71853">
        <ele>471</ele>
        <time>2015-06-28T08:26:53.000Z</time>
      </trkpt>
      <trkpt lat="47.44174" lon="6.71852">
        <ele>470</ele>
        <time>2015-06-28T08:26:55.000Z</time>
      </trkpt>
      <trkpt lat="47.44172" lon="6.71852">
        <ele>470</ele>
        <time>2015-06-28T08:26:56.000Z</time>
      </trkpt>
      <trkpt lat="47.44168" lon="6.71851">
        <ele>470</ele>
        <time>2015-06-28T08:26:58.000Z</time>
      </trkpt>
      <trkpt lat="47.44166" lon="6.71849">
        <ele>470</ele>
        <time>2015-06-28T08:26:59.000Z</time>
      </trkpt>
      <trkpt lat="47.44163" lon="6.71848">
        <ele>470</ele>
        <time>2015-06-28T08:27:00.000Z</time>
      </trkpt>
      <trkpt lat="47.4416" lon="6.71847">
        <ele>470</ele>
        <time>2015-06-28T08:27:01.000Z</time>
      </trkpt>
      <trkpt lat="47.44156" lon="6.71845">
        <ele>470</ele>
        <time>2015-06-28T08:27:02.000Z</time>
      </trkpt>
      <trkpt lat="47.44153" lon="6.71843">
        <ele>470</ele>
        <time>2015-06-28T08:27:03.000Z</time>
      </trkpt>
      <trkpt lat="47.4415" lon="6.71841">
        <ele>470</ele>
        <time>2015-06-28T08:27:04.000Z</time>
      </trkpt>
      <trkpt lat="47.44147" lon="6.71839">
        <ele>470</ele>
        <time>2015-06-28T08:27:05.000Z</time>
      </trkpt>
      <trkpt lat="47.44144" lon="6.71837">
        <ele>470</ele>
        <time>2015-06-28T08:27:06.000Z</time>
      </trkpt>
      <trkpt lat="47.44141" lon="6.71834">
        <ele>470</ele>
        <time>2015-06-28T08:27:07.000Z</time>
      </trkpt>
      <trkpt lat="47.44138" lon="6.71832">
        <ele>470</ele>
        <time>2015-06-28T08:27:08.000Z</time>
      </trkpt>
      <trkpt lat="47.44134" lon="6.71829">
        <ele>470</ele>
        <time>2015-06-28T08:27:09.000Z</time>
      </trkpt>
      <trkpt lat="47.44131" lon="6.71826">
        <ele>470</ele>
        <time>2015-06-28T08:27:10.000Z</time>
      </trkpt>
      <trkpt lat="47.44127" lon="6.71823">
        <ele>470</ele>
        <time>2015-06-28T08:27:11.000Z</time>
      </trkpt>
      <trkpt lat="47.44123" lon="6.7182">
        <ele>470</ele>
        <time>2015-06-28T08:27:12.000Z</time>
      </trkpt>
      <trkpt lat="47.4412" lon="6.71817">
        <ele>470</ele>
        <time>2015-06-28T08:27:13.000Z</time>
      </trkpt>
      <trkpt lat="47.44116" lon="6.71814">
        <ele>470</ele>
        <time>2015-06-28T08:27:14.000Z</time>
      </trkpt>
      <trkpt lat="47.44114" lon="6.71811">
        <ele>470</ele>
        <time>2015-06-28T08:27:15.000Z</time>
      </trkpt>
      <trkpt lat="47.44111" lon="6.71808">
        <ele>470</ele>
        <time>2015-06-28T08:27:16.000Z</time>
      </trkpt>
      <trkpt lat="47.44109" lon="6.71805">
        <ele>470</ele>
        <time>2015-06-28T08:27:17.000Z</time>
      </trkpt>
      <trkpt lat="47.44108" lon="6.71802">
        <ele>470</ele>
        <time>2015-06-28T08:27:18.000Z</time>
      </trkpt>
      <trkpt lat="47.44105" lon="6.71799">
        <ele>470</ele>
        <time>2015-06-28T08:27:19.000Z</time>
      </trkpt>
      <trkpt lat="47.44103" lon="6.71797">
        <ele>470</ele>
        <time>2015-06-28T08:27:20.000Z</time>
      </trkpt>
      <trkpt lat="47.44101" lon="6.71795">
        <ele>470</ele>
        <time>2015-06-28T08:27:21.000Z</time>
      </trkpt>
      <trkpt lat="47.44097" lon="6.71794">
        <ele>470</ele>
        <time>2015-06-28T08:27:22.000Z</time>
      </trkpt>
      <trkpt lat="47.44094" lon="6.71793">
        <ele>470</ele>
        <time>2015-06-28T08:27:23.000Z</time>
      </trkpt>
      <trkpt lat="47.44091" lon="6.71791">
        <ele>470</ele>
        <time>2015-06-28T08:27:24.000Z</time>
      </trkpt>
      <trkpt lat="47.44087" lon="6.71789">
        <ele>470</ele>
        <time>2015-06-28T08:27:25.000Z</time>
      </trkpt>
      <trkpt lat="47.44084" lon="6.71787">
        <ele>470</ele>
        <time>2015-06-28T08:27:26.000Z</time>
      </trkpt>
      <trkpt lat="47.44082" lon="6.71785">
        <ele>473</ele>
        <time>2015-06-28T08:27:27.000Z</time>
      </trkpt>
      <trkpt lat="47.44079" lon="6.71782">
        <ele>473</ele>
        <time>2015-06-28T08:27:29.000Z</time>
      </trkpt>
      <trkpt lat="47.44077" lon="6.71781">
        <ele>473</ele>
        <time>2015-06-28T08:27:30.000Z</time>
      </trkpt>
      <trkpt lat="47.44074" lon="6.71779">
        <ele>473</ele>
        <time>2015-06-28T08:27:31.000Z</time>
      </trkpt>
      <trkpt lat="47.44072" lon="6.71778">
        <ele>473</ele>
        <time>2015-06-28T08:27:32.000Z</time>
      </trkpt>
      <trkpt lat="47.44069" lon="6.71777">
        <ele>473</ele>
        <time>2015-06-28T08:27:33.000Z</time>
      </trkpt>
      <trkpt lat="47.44067" lon="6.71775">
        <ele>473</ele>
        <time>2015-06-28T08:27:34.000Z</time>
      </trkpt>
      <trkpt lat="47.44063" lon="6.71773">
        <ele>473</ele>
        <time>2015-06-28T08:27:36.000Z</time>
      </trkpt>
      <trkpt lat="47.44062" lon="6.71772">
        <ele>473</ele>
        <time>2015-06-28T08:27:37.000Z</time>
      </trkpt>
      <trkpt lat="47.44058" lon="6.7177">
        <ele>473</ele>
        <time>2015-06-28T08:27:40.000Z</time>
      </trkpt>
      <trkpt lat="47.44058" lon="6.71769">
        <ele>473</ele>
        <time>2015-06-28T08:27:41.000Z</time>
      </trkpt>
      <trkpt lat="47.44054" lon="6.71765">
        <ele>473</ele>
        <time>2015-06-28T08:27:45.000Z</time>
      </trkpt>
      <trkpt lat="47.44051" lon="6.71764">
        <ele>474</ele>
        <time>2015-06-28T08:27:46.000Z</time>
      </trkpt>
      <trkpt lat="47.44047" lon="6.71762">
        <ele>474</ele>
        <time>2015-06-28T08:27:47.000Z</time>
      </trkpt>
      <trkpt lat="47.44043" lon="6.71761">
        <ele>474</ele>
        <time>2015-06-28T08:27:48.000Z</time>
      </trkpt>
      <trkpt lat="47.4404" lon="6.7176">
        <ele>474</ele>
        <time>2015-06-28T08:27:49.000Z</time>
      </trkpt>
      <trkpt lat="47.44036" lon="6.71758">
        <ele>474</ele>
        <time>2015-06-28T08:27:50.000Z</time>
      </trkpt>
      <trkpt lat="47.44033" lon="6.71756">
        <ele>474</ele>
        <time>2015-06-28T08:27:51.000Z</time>
      </trkpt>
      <trkpt lat="47.4403" lon="6.71754">
        <ele>475</ele>
        <time>2015-06-28T08:27:52.000Z</time>
      </trkpt>
      <trkpt lat="47.44027" lon="6.71753">
        <ele>475</ele>
        <time>2015-06-28T08:27:53.000Z</time>
      </trkpt>
      <trkpt lat="47.44025" lon="6.71751">
        <ele>475</ele>
        <time>2015-06-28T08:27:54.000Z</time>
      </trkpt>
      <trkpt lat="47.44022" lon="6.71749">
        <ele>476</ele>
        <time>2015-06-28T08:27:55.000Z</time>
      </trkpt>
      <trkpt lat="47.44019" lon="6.71747">
        <ele>476</ele>
        <time>2015-06-28T08:27:56.000Z</time>
      </trkpt>
      <trkpt lat="47.44017" lon="6.71746">
        <ele>476</ele>
        <time>2015-06-28T08:27:57.000Z</time>
      </trkpt>
      <trkpt lat="47.44014" lon="6.71744">
        <ele>476</ele>
        <time>2015-06-28T08:27:58.000Z</time>
      </trkpt>
      <trkpt lat="47.4401" lon="6.71742">
        <ele>476</ele>
        <time>2015-06-28T08:28:00.000Z</time>
      </trkpt>
      <trkpt lat="47.44008" lon="6.71741">
        <ele>476</ele>
        <time>2015-06-28T08:28:01.000Z</time>
      </trkpt>
      <trkpt lat="47.44004" lon="6.71739">
        <ele>476</ele>
        <time>2015-06-28T08:28:03.000Z</time>
      </trkpt>
      <trkpt lat="47.44002" lon="6.71737">
        <ele>476</ele>
        <time>2015-06-28T08:28:04.000Z</time>
      </trkpt>
      <trkpt lat="47.43999" lon="6.71736">
        <ele>478</ele>
        <time>2015-06-28T08:28:05.000Z</time>
      </trkpt>
      <trkpt lat="47.43997" lon="6.71734">
        <ele>478</ele>
        <time>2015-06-28T08:28:06.000Z</time>
      </trkpt>
      <trkpt lat="47.43994" lon="6.71733">
        <ele>478</ele>
        <time>2015-06-28T08:28:07.000Z</time>
      </trkpt>
      <trkpt lat="47.43992" lon="6.71732">
        <ele>478</ele>
        <time>2015-06-28T08:28:08.000Z</time>
      </trkpt>
      <trkpt lat="47.43989" lon="6.71731">
        <ele>478</ele>
        <time>2015-06-28T08:28:09.000Z</time>
      </trkpt>
      <trkpt lat="47.43987" lon="6.71729">
        <ele>478</ele>
        <time>2015-06-28T08:28:10.000Z</time>
      </trkpt>
      <trkpt lat="47.43983" lon="6.71727">
        <ele>478</ele>
        <time>2015-06-28T08:28:12.000Z</time>
      </trkpt>
      <trkpt lat="47.43981" lon="6.71726">
        <ele>478</ele>
        <time>2015-06-28T08:28:13.000Z</time>
      </trkpt>
      <trkpt lat="47.43979" lon="6.71724">
        <ele>478</ele>
        <time>2015-06-28T08:28:14.000Z</time>
      </trkpt>
      <trkpt lat="47.43977" lon="6.71722">
        <ele>478</ele>
        <time>2015-06-28T08:28:15.000Z</time>
      </trkpt>
      <trkpt lat="47.43975" lon="6.71721">
        <ele>478</ele>
        <time>2015-06-28T08:28:16.000Z</time>
      </trkpt>
      <trkpt lat="47.43973" lon="6.71719">
        <ele>478</ele>
        <time>2015-06-28T08:28:17.000Z</time>
      </trkpt>
      <trkpt lat="47.43971" lon="6.71717">
        <ele>478</ele>
        <time>2015-06-28T08:28:18.000Z</time>
      </trkpt>
      <trkpt lat="47.43968" lon="6.71715">
        <ele>478</ele>
        <time>2015-06-28T08:28:19.000Z</time>
      </trkpt>
      <trkpt lat="47.43966" lon="6.71713">
        <ele>478</ele>
        <time>2015-06-28T08:28:20.000Z</time>
      </trkpt>
      <trkpt lat="47.43964" lon="6.71711">
        <ele>478</ele>
        <time>2015-06-28T08:28:21.000Z</time>
      </trkpt>
      <trkpt lat="47.43961" lon="6.71709">
        <ele>478</ele>
        <time>2015-06-28T08:28:22.000Z</time>
      </trkpt>
      <trkpt lat="47.43959" lon="6.71708">
        <ele>478</ele>
        <time>2015-06-28T08:28:23.000Z</time>
      </trkpt>
      <trkpt lat="47.43956" lon="6.71707">
        <ele>478</ele>
        <time>2015-06-28T08:28:24.000Z</time>
      </trkpt>
      <trkpt lat="47.43953" lon="6.71706">
        <ele>478</ele>
        <time>2015-06-28T08:28:25.000Z</time>
      </trkpt>
      <trkpt lat="47.43951" lon="6.71706">
        <ele>478</ele>
        <time>2015-06-28T08:28:26.000Z</time>
      </trkpt>
      <trkpt lat="47.43949" lon="6.71705">
        <ele>478</ele>
        <time>2015-06-28T08:28:27.000Z</time>
      </trkpt>
      <trkpt lat="47.43945" lon="6.71704">
        <ele>478</ele>
        <time>2015-06-28T08:28:29.000Z</time>
      </trkpt>
      <trkpt lat="47.43943" lon="6.71702">
        <ele>478</ele>
        <time>2015-06-28T08:28:30.000Z</time>
      </trkpt>
      <trkpt lat="47.4394" lon="6.717">
        <ele>478</ele>
        <time>2015-06-28T08:28:32.000Z</time>
      </trkpt>
      <trkpt lat="47.43938" lon="6.71699">
        <ele>479</ele>
        <time>2015-06-28T08:28:33.000Z</time>
      </trkpt>
      <trkpt lat="47.43934" lon="6.71697">
        <ele>479</ele>
        <time>2015-06-28T08:28:35.000Z</time>
      </trkpt>
      <trkpt lat="47.43932" lon="6.71695">
        <ele>479</ele>
        <time>2015-06-28T08:28:36.000Z</time>
      </trkpt>
      <trkpt lat="47.43929" lon="6.71691">
        <ele>479</ele>
        <time>2015-06-28T08:28:38.000Z</time>
      </trkpt>
      <trkpt lat="47.43927" lon="6.71689">
        <ele>479</ele>
        <time>2015-06-28T08:28:39.000Z</time>
      </trkpt>
      <trkpt lat="47.43925" lon="6.71686">
        <ele>479</ele>
        <time>2015-06-28T08:28:40.000Z</time>
      </trkpt>
      <trkpt lat="47.43923" lon="6.71684">
        <ele>479</ele>
        <time>2015-06-28T08:28:41.000Z</time>
      </trkpt>
      <trkpt lat="47.43921" lon="6.71681">
        <ele>479</ele>
        <time>2015-06-28T08:28:42.000Z</time>
      </trkpt>
      <trkpt lat="47.43918" lon="6.71679">
        <ele>479</ele>
        <time>2015-06-28T08:28:43.000Z</time>
      </trkpt>
      <trkpt lat="47.43916" lon="6.71677">
        <ele>478</ele>
        <time>2015-06-28T08:28:44.000Z</time>
      </trkpt>
      <trkpt lat="47.43913" lon="6.71675">
        <ele>479</ele>
        <time>2015-06-28T08:28:45.000Z</time>
      </trkpt>
      <trkpt lat="47.43911" lon="6.71674">
        <ele>479</ele>
        <time>2015-06-28T08:28:46.000Z</time>
      </trkpt>
      <trkpt lat="47.43909" lon="6.71672">
        <ele>479</ele>
        <time>2015-06-28T08:28:47.000Z</time>
      </trkpt>
      <trkpt lat="47.43907" lon="6.71671">
        <ele>478</ele>
        <time>2015-06-28T08:28:48.000Z</time>
      </trkpt>
      <trkpt lat="47.43904" lon="6.71669">
        <ele>478</ele>
        <time>2015-06-28T08:28:49.000Z</time>
      </trkpt>
      <trkpt lat="47.43901" lon="6.71668">
        <ele>478</ele>
        <time>2015-06-28T08:28:50.000Z</time>
      </trkpt>
      <trkpt lat="47.43896" lon="6.71667">
        <ele>477</ele>
        <time>2015-06-28T08:28:51.000Z</time>
      </trkpt>
      <trkpt lat="47.43872" lon="6.71662">
        <ele>478</ele>
        <time>2015-06-28T08:28:52.000Z</time>
      </trkpt>
      <trkpt lat="47.43867" lon="6.71662">
        <ele>478</ele>
        <time>2015-06-28T08:28:53.000Z</time>
      </trkpt>
      <trkpt lat="47.43863" lon="6.71661">
        <ele>477</ele>
        <time>2015-06-28T08:28:54.000Z</time>
      </trkpt>
      <trkpt lat="47.43859" lon="6.71661">
        <ele>477</ele>
        <time>2015-06-28T08:28:55.000Z</time>
      </trkpt>
      <trkpt lat="47.43856" lon="6.71662">
        <ele>477</ele>
        <time>2015-06-28T08:28:56.000Z</time>
      </trkpt>
      <trkpt lat="47.43853" lon="6.71662">
        <ele>477</ele>
        <time>2015-06-28T08:28:57.000Z</time>
      </trkpt>
      <trkpt lat="47.43851" lon="6.71662">
        <ele>476</ele>
        <time>2015-06-28T08:28:58.000Z</time>
      </trkpt>
      <trkpt lat="47.43847" lon="6.71662">
        <ele>476</ele>
        <time>2015-06-28T08:29:00.000Z</time>
      </trkpt>
      <trkpt lat="47.43846" lon="6.7166">
        <ele>476</ele>
        <time>2015-06-28T08:29:01.000Z</time>
      </trkpt>
      <trkpt lat="47.43844" lon="6.71654">
        <ele>476</ele>
        <time>2015-06-28T08:29:04.000Z</time>
      </trkpt>
      <trkpt lat="47.43844" lon="6.71653">
        <ele>476</ele>
        <time>2015-06-28T08:29:05.000Z</time>
      </trkpt>
      <trkpt lat="47.43843" lon="6.71647">
        <ele>477</ele>
        <time>2015-06-28T08:29:12.000Z</time>
      </trkpt>
      <trkpt lat="47.43842" lon="6.71646">
        <ele>477</ele>
        <time>2015-06-28T08:29:13.000Z</time>
      </trkpt>
      <trkpt lat="47.4384" lon="6.71641">
        <ele>477</ele>
        <time>2015-06-28T08:29:18.000Z</time>
      </trkpt>
      <trkpt lat="47.4384" lon="6.7164">
        <ele>477</ele>
        <time>2015-06-28T08:29:19.000Z</time>
      </trkpt>
      <trkpt lat="47.43838" lon="6.71635">
        <ele>477</ele>
        <time>2015-06-28T08:29:29.000Z</time>
      </trkpt>
      <trkpt lat="47.43838" lon="6.71634">
        <ele>477</ele>
        <time>2015-06-28T08:29:30.000Z</time>
      </trkpt>
      <trkpt lat="47.43839" lon="6.71627">
        <ele>477</ele>
        <time>2015-06-28T08:29:37.000Z</time>
      </trkpt>
      <trkpt lat="47.43838" lon="6.71626">
        <ele>477</ele>
        <time>2015-06-28T08:29:38.000Z</time>
      </trkpt>
      <trkpt lat="47.43841" lon="6.71622">
        <ele>478</ele>
        <time>2015-06-28T08:29:44.000Z</time>
      </trkpt>
      <trkpt lat="47.43842" lon="6.71621">
        <ele>478</ele>
        <time>2015-06-28T08:29:45.000Z</time>
      </trkpt>
      <trkpt lat="47.43845" lon="6.71617">
        <ele>478</ele>
        <time>2015-06-28T08:29:47.000Z</time>
      </trkpt>
      <trkpt lat="47.43845" lon="6.71615">
        <ele>478</ele>
        <time>2015-06-28T08:29:48.000Z</time>
      </trkpt>
      <trkpt lat="47.43845" lon="6.71611">
        <ele>478</ele>
        <time>2015-06-28T08:29:49.000Z</time>
      </trkpt>
      <trkpt lat="47.43844" lon="6.71607">
        <ele>478</ele>
        <time>2015-06-28T08:29:50.000Z</time>
      </trkpt>
      <trkpt lat="47.43843" lon="6.71601">
        <ele>478</ele>
        <time>2015-06-28T08:29:51.000Z</time>
      </trkpt>
      <trkpt lat="47.43842" lon="6.71597">
        <ele>478</ele>
        <time>2015-06-28T08:29:52.000Z</time>
      </trkpt>
      <trkpt lat="47.43841" lon="6.71592">
        <ele>478</ele>
        <time>2015-06-28T08:29:53.000Z</time>
      </trkpt>
      <trkpt lat="47.43841" lon="6.71588">
        <ele>477</ele>
        <time>2015-06-28T08:29:54.000Z</time>
      </trkpt>
      <trkpt lat="47.4384" lon="6.71584">
        <ele>477</ele>
        <time>2015-06-28T08:29:55.000Z</time>
      </trkpt>
      <trkpt lat="47.43839" lon="6.71581">
        <ele>478</ele>
        <time>2015-06-28T08:29:56.000Z</time>
      </trkpt>
      <trkpt lat="47.43839" lon="6.71575">
        <ele>478</ele>
        <time>2015-06-28T08:29:58.000Z</time>
      </trkpt>
      <trkpt lat="47.43839" lon="6.71572">
        <ele>478</ele>
        <time>2015-06-28T08:29:59.000Z</time>
      </trkpt>
      <trkpt lat="47.43839" lon="6.71567">
        <ele>478</ele>
        <time>2015-06-28T08:30:01.000Z</time>
      </trkpt>
      <trkpt lat="47.43839" lon="6.71565">
        <ele>479</ele>
        <time>2015-06-28T08:30:02.000Z</time>
      </trkpt>
      <trkpt lat="47.43839" lon="6.7156">
        <ele>479</ele>
        <time>2015-06-28T08:30:04.000Z</time>
      </trkpt>
      <trkpt lat="47.4384" lon="6.71556">
        <ele>479</ele>
        <time>2015-06-28T08:30:05.000Z</time>
      </trkpt>
      <trkpt lat="47.43842" lon="6.71551">
        <ele>479</ele>
        <time>2015-06-28T08:30:06.000Z</time>
      </trkpt>
      <trkpt lat="47.43844" lon="6.71546">
        <ele>479</ele>
        <time>2015-06-28T08:30:07.000Z</time>
      </trkpt>
      <trkpt lat="47.43846" lon="6.71541">
        <ele>479</ele>
        <time>2015-06-28T08:30:08.000Z</time>
      </trkpt>
      <trkpt lat="47.43848" lon="6.71536">
        <ele>479</ele>
        <time>2015-06-28T08:30:09.000Z</time>
      </trkpt>
      <trkpt lat="47.4385" lon="6.7153">
        <ele>479</ele>
        <time>2015-06-28T08:30:10.000Z</time>
      </trkpt>
      <trkpt lat="47.43852" lon="6.71523">
        <ele>479</ele>
        <time>2015-06-28T08:30:11.000Z</time>
      </trkpt>
      <trkpt lat="47.43853" lon="6.71516">
        <ele>479</ele>
        <time>2015-06-28T08:30:12.000Z</time>
      </trkpt>
      <trkpt lat="47.43853" lon="6.71508">
        <ele>479</ele>
        <time>2015-06-28T08:30:13.000Z</time>
      </trkpt>
      <trkpt lat="47.43851" lon="6.715">
        <ele>479</ele>
        <time>2015-06-28T08:30:14.000Z</time>
      </trkpt>
      <trkpt lat="47.43849" lon="6.71491">
        <ele>479</ele>
        <time>2015-06-28T08:30:15.000Z</time>
      </trkpt>
      <trkpt lat="47.43837" lon="6.71466">
        <ele>478</ele>
        <time>2015-06-28T08:30:16.000Z</time>
      </trkpt>
      <trkpt lat="47.43832" lon="6.71456">
        <ele>476</ele>
        <time>2015-06-28T08:30:17.000Z</time>
      </trkpt>
      <trkpt lat="47.43826" lon="6.71442">
        <ele>476</ele>
        <time>2015-06-28T08:30:18.000Z</time>
      </trkpt>
      <trkpt lat="47.43822" lon="6.7143">
        <ele>476</ele>
        <time>2015-06-28T08:30:19.000Z</time>
      </trkpt>
      <trkpt lat="47.43819" lon="6.71422">
        <ele>476</ele>
        <time>2015-06-28T08:30:20.000Z</time>
      </trkpt>
      <trkpt lat="47.43818" lon="6.71412">
        <ele>476</ele>
        <time>2015-06-28T08:30:21.000Z</time>
      </trkpt>
      <trkpt lat="47.43818" lon="6.71402">
        <ele>476</ele>
        <time>2015-06-28T08:30:22.000Z</time>
      </trkpt>
      <trkpt lat="47.43815" lon="6.71392">
        <ele>475</ele>
        <time>2015-06-28T08:30:23.000Z</time>
      </trkpt>
      <trkpt lat="47.4381" lon="6.71378">
        <ele>475</ele>
        <time>2015-06-28T08:30:24.000Z</time>
      </trkpt>
      <trkpt lat="47.43807" lon="6.71368">
        <ele>475</ele>
        <time>2015-06-28T08:30:25.000Z</time>
      </trkpt>
      <trkpt lat="47.43803" lon="6.71355">
        <ele>475</ele>
        <time>2015-06-28T08:30:26.000Z</time>
      </trkpt>
      <trkpt lat="47.43801" lon="6.71345">
        <ele>475</ele>
        <time>2015-06-28T08:30:27.000Z</time>
      </trkpt>
      <trkpt lat="47.43799" lon="6.71336">
        <ele>475</ele>
        <time>2015-06-28T08:30:28.000Z</time>
      </trkpt>
      <trkpt lat="47.43796" lon="6.71327">
        <ele>474</ele>
        <time>2015-06-28T08:30:29.000Z</time>
      </trkpt>
      <trkpt lat="47.43792" lon="6.71314">
        <ele>474</ele>
        <time>2015-06-28T08:30:30.000Z</time>
      </trkpt>
      <trkpt lat="47.43789" lon="6.71304">
        <ele>474</ele>
        <time>2015-06-28T08:30:31.000Z</time>
      </trkpt>
      <trkpt lat="47.43786" lon="6.71293">
        <ele>474</ele>
        <time>2015-06-28T08:30:32.000Z</time>
      </trkpt>
      <trkpt lat="47.43786" lon="6.71285">
        <ele>474</ele>
        <time>2015-06-28T08:30:33.000Z</time>
      </trkpt>
      <trkpt lat="47.43791" lon="6.71282">
        <ele>474</ele>
        <time>2015-06-28T08:30:34.000Z</time>
      </trkpt>
      <trkpt lat="47.43792" lon="6.71277">
        <ele>474</ele>
        <time>2015-06-28T08:30:35.000Z</time>
      </trkpt>
      <trkpt lat="47.43794" lon="6.71273">
        <ele>474</ele>
        <time>2015-06-28T08:30:36.000Z</time>
      </trkpt>
      <trkpt lat="47.43796" lon="6.7127">
        <ele>474</ele>
        <time>2015-06-28T08:30:37.000Z</time>
      </trkpt>
      <trkpt lat="47.43798" lon="6.71268">
        <ele>474</ele>
        <time>2015-06-28T08:30:38.000Z</time>
      </trkpt>
      <trkpt lat="47.43799" lon="6.71264">
        <ele>474</ele>
        <time>2015-06-28T08:30:40.000Z</time>
      </trkpt>
      <trkpt lat="47.43802" lon="6.71262">
        <ele>474</ele>
        <time>2015-06-28T08:30:41.000Z</time>
      </trkpt>
      <trkpt lat="47.43804" lon="6.71257">
        <ele>474</ele>
        <time>2015-06-28T08:30:43.000Z</time>
      </trkpt>
      <trkpt lat="47.43806" lon="6.71255">
        <ele>474</ele>
        <time>2015-06-28T08:30:44.000Z</time>
      </trkpt>
      <trkpt lat="47.43808" lon="6.71253">
        <ele>474</ele>
        <time>2015-06-28T08:30:45.000Z</time>
      </trkpt>
      <trkpt lat="47.4381" lon="6.7125">
        <ele>473</ele>
        <time>2015-06-28T08:30:46.000Z</time>
      </trkpt>
      <trkpt lat="47.43812" lon="6.71246">
        <ele>473</ele>
        <time>2015-06-28T08:30:47.000Z</time>
      </trkpt>
      <trkpt lat="47.43815" lon="6.71243">
        <ele>473</ele>
        <time>2015-06-28T08:30:48.000Z</time>
      </trkpt>
      <trkpt lat="47.43816" lon="6.71239">
        <ele>473</ele>
        <time>2015-06-28T08:30:49.000Z</time>
      </trkpt>
      <trkpt lat="47.43818" lon="6.71235">
        <ele>473</ele>
        <time>2015-06-28T08:30:50.000Z</time>
      </trkpt>
      <trkpt lat="47.43819" lon="6.71232">
        <ele>473</ele>
        <time>2015-06-28T08:30:51.000Z</time>
      </trkpt>
      <trkpt lat="47.43822" lon="6.7123">
        <ele>473</ele>
        <time>2015-06-28T08:30:52.000Z</time>
      </trkpt>
      <trkpt lat="47.43825" lon="6.71228">
        <ele>473</ele>
        <time>2015-06-28T08:30:53.000Z</time>
      </trkpt>
      <trkpt lat="47.43829" lon="6.71228">
        <ele>473</ele>
        <time>2015-06-28T08:30:54.000Z</time>
      </trkpt>
      <trkpt lat="47.43833" lon="6.71227">
        <ele>473</ele>
        <time>2015-06-28T08:30:55.000Z</time>
      </trkpt>
      <trkpt lat="47.43837" lon="6.71225">
        <ele>475</ele>
        <time>2015-06-28T08:30:56.000Z</time>
      </trkpt>
      <trkpt lat="47.43841" lon="6.71223">
        <ele>475</ele>
        <time>2015-06-28T08:30:57.000Z</time>
      </trkpt>
      <trkpt lat="47.43844" lon="6.71221">
        <ele>474</ele>
        <time>2015-06-28T08:30:58.000Z</time>
      </trkpt>
      <trkpt lat="47.43846" lon="6.71219">
        <ele>474</ele>
        <time>2015-06-28T08:30:59.000Z</time>
      </trkpt>
      <trkpt lat="47.43849" lon="6.71217">
        <ele>474</ele>
        <time>2015-06-28T08:31:00.000Z</time>
      </trkpt>
      <trkpt lat="47.43851" lon="6.71216">
        <ele>474</ele>
        <time>2015-06-28T08:31:01.000Z</time>
      </trkpt>
      <trkpt lat="47.43854" lon="6.71214">
        <ele>474</ele>
        <time>2015-06-28T08:31:02.000Z</time>
      </trkpt>
      <trkpt lat="47.43856" lon="6.71213">
        <ele>474</ele>
        <time>2015-06-28T08:31:03.000Z</time>
      </trkpt>
      <trkpt lat="47.43858" lon="6.71212">
        <ele>474</ele>
        <time>2015-06-28T08:31:04.000Z</time>
      </trkpt>
      <trkpt lat="47.43861" lon="6.7121">
        <ele>474</ele>
        <time>2015-06-28T08:31:05.000Z</time>
      </trkpt>
      <trkpt lat="47.43864" lon="6.71207">
        <ele>474</ele>
        <time>2015-06-28T08:31:06.000Z</time>
      </trkpt>
      <trkpt lat="47.43868" lon="6.71203">
        <ele>474</ele>
        <time>2015-06-28T08:31:07.000Z</time>
      </trkpt>
      <trkpt lat="47.43871" lon="6.71197">
        <ele>474</ele>
        <time>2015-06-28T08:31:08.000Z</time>
      </trkpt>
      <trkpt lat="47.43874" lon="6.71191">
        <ele>474</ele>
        <time>2015-06-28T08:31:09.000Z</time>
      </trkpt>
      <trkpt lat="47.43876" lon="6.71182">
        <ele>474</ele>
        <time>2015-06-28T08:31:10.000Z</time>
      </trkpt>
      <trkpt lat="47.43877" lon="6.71174">
        <ele>474</ele>
        <time>2015-06-28T08:31:11.000Z</time>
      </trkpt>
      <trkpt lat="47.43877" lon="6.71165">
        <ele>471</ele>
        <time>2015-06-28T08:31:12.000Z</time>
      </trkpt>
      <trkpt lat="47.43878" lon="6.71158">
        <ele>471</ele>
        <time>2015-06-28T08:31:13.000Z</time>
      </trkpt>
      <trkpt lat="47.43878" lon="6.7115">
        <ele>471</ele>
        <time>2015-06-28T08:31:14.000Z</time>
      </trkpt>
      <trkpt lat="47.43878" lon="6.71143">
        <ele>471</ele>
        <time>2015-06-28T08:31:15.000Z</time>
      </trkpt>
      <trkpt lat="47.43877" lon="6.71136">
        <ele>470</ele>
        <time>2015-06-28T08:31:16.000Z</time>
      </trkpt>
      <trkpt lat="47.43875" lon="6.71129">
        <ele>470</ele>
        <time>2015-06-28T08:31:17.000Z</time>
      </trkpt>
      <trkpt lat="47.43874" lon="6.71121">
        <ele>470</ele>
        <time>2015-06-28T08:31:18.000Z</time>
      </trkpt>
      <trkpt lat="47.43871" lon="6.71094">
        <ele>469</ele>
        <time>2015-06-28T08:31:19.000Z</time>
      </trkpt>
      <trkpt lat="47.4387" lon="6.71084">
        <ele>469</ele>
        <time>2015-06-28T08:31:20.000Z</time>
      </trkpt>
      <trkpt lat="47.43869" lon="6.7107">
        <ele>467</ele>
        <time>2015-06-28T08:31:21.000Z</time>
      </trkpt>
      <trkpt lat="47.43867" lon="6.71058">
        <ele>466</ele>
        <time>2015-06-28T08:31:22.000Z</time>
      </trkpt>
      <trkpt lat="47.43864" lon="6.71047">
        <ele>466</ele>
        <time>2015-06-28T08:31:23.000Z</time>
      </trkpt>
      <trkpt lat="47.43862" lon="6.71033">
        <ele>466</ele>
        <time>2015-06-28T08:31:24.000Z</time>
      </trkpt>
      <trkpt lat="47.4386" lon="6.71021">
        <ele>466</ele>
        <time>2015-06-28T08:31:25.000Z</time>
      </trkpt>
      <trkpt lat="47.43858" lon="6.71007">
        <ele>466</ele>
        <time>2015-06-28T08:31:26.000Z</time>
      </trkpt>
      <trkpt lat="47.43855" lon="6.70997">
        <ele>465</ele>
        <time>2015-06-28T08:31:27.000Z</time>
      </trkpt>
      <trkpt lat="47.43853" lon="6.70983">
        <ele>465</ele>
        <time>2015-06-28T08:31:28.000Z</time>
      </trkpt>
      <trkpt lat="47.43851" lon="6.70972">
        <ele>464</ele>
        <time>2015-06-28T08:31:29.000Z</time>
      </trkpt>
      <trkpt lat="47.43849" lon="6.70959">
        <ele>464</ele>
        <time>2015-06-28T08:31:30.000Z</time>
      </trkpt>
      <trkpt lat="47.43848" lon="6.70949">
        <ele>464</ele>
        <time>2015-06-28T08:31:31.000Z</time>
      </trkpt>
      <trkpt lat="47.43847" lon="6.70942">
        <ele>464</ele>
        <time>2015-06-28T08:31:32.000Z</time>
      </trkpt>
      <trkpt lat="47.4385" lon="6.70938">
        <ele>464</ele>
        <time>2015-06-28T08:31:33.000Z</time>
      </trkpt>
      <trkpt lat="47.43852" lon="6.7093">
        <ele>464</ele>
        <time>2015-06-28T08:31:34.000Z</time>
      </trkpt>
      <trkpt lat="47.43855" lon="6.70922">
        <ele>464</ele>
        <time>2015-06-28T08:31:35.000Z</time>
      </trkpt>
      <trkpt lat="47.43856" lon="6.70913">
        <ele>464</ele>
        <time>2015-06-28T08:31:36.000Z</time>
      </trkpt>
      <trkpt lat="47.43855" lon="6.70901">
        <ele>464</ele>
        <time>2015-06-28T08:31:37.000Z</time>
      </trkpt>
      <trkpt lat="47.43854" lon="6.70889">
        <ele>464</ele>
        <time>2015-06-28T08:31:38.000Z</time>
      </trkpt>
      <trkpt lat="47.43852" lon="6.70878">
        <ele>464</ele>
        <time>2015-06-28T08:31:39.000Z</time>
      </trkpt>
      <trkpt lat="47.43851" lon="6.70866">
        <ele>464</ele>
        <time>2015-06-28T08:31:40.000Z</time>
      </trkpt>
      <trkpt lat="47.43851" lon="6.70856">
        <ele>464</ele>
        <time>2015-06-28T08:31:41.000Z</time>
      </trkpt>
      <trkpt lat="47.4385" lon="6.70846">
        <ele>464</ele>
        <time>2015-06-28T08:31:42.000Z</time>
      </trkpt>
      <trkpt lat="47.4385" lon="6.70836">
        <ele>464</ele>
        <time>2015-06-28T08:31:43.000Z</time>
      </trkpt>
      <trkpt lat="47.43849" lon="6.70825">
        <ele>462</ele>
        <time>2015-06-28T08:31:44.000Z</time>
      </trkpt>
      <trkpt lat="47.43851" lon="6.70811">
        <ele>462</ele>
        <time>2015-06-28T08:31:45.000Z</time>
      </trkpt>
      <trkpt lat="47.43847" lon="6.70802">
        <ele>462</ele>
        <time>2015-06-28T08:31:46.000Z</time>
      </trkpt>
      <trkpt lat="47.43845" lon="6.7079">
        <ele>461</ele>
        <time>2015-06-28T08:31:47.000Z</time>
      </trkpt>
      <trkpt lat="47.43844" lon="6.70783">
        <ele>461</ele>
        <time>2015-06-28T08:31:48.000Z</time>
      </trkpt>
      <trkpt lat="47.43842" lon="6.70773">
        <ele>460</ele>
        <time>2015-06-28T08:31:49.000Z</time>
      </trkpt>
      <trkpt lat="47.4384" lon="6.70765">
        <ele>459</ele>
        <time>2015-06-28T08:31:50.000Z</time>
      </trkpt>
      <trkpt lat="47.43838" lon="6.70757">
        <ele>458</ele>
        <time>2015-06-28T08:31:51.000Z</time>
      </trkpt>
      <trkpt lat="47.43838" lon="6.70749">
        <ele>457</ele>
        <time>2015-06-28T08:31:52.000Z</time>
      </trkpt>
      <trkpt lat="47.43837" lon="6.70739">
        <ele>456</ele>
        <time>2015-06-28T08:31:53.000Z</time>
      </trkpt>
      <trkpt lat="47.43836" lon="6.70728">
        <ele>456</ele>
        <time>2015-06-28T08:31:54.000Z</time>
      </trkpt>
      <trkpt lat="47.43837" lon="6.70718">
        <ele>456</ele>
        <time>2015-06-28T08:31:55.000Z</time>
      </trkpt>
      <trkpt lat="47.43833" lon="6.70706">
        <ele>455</ele>
        <time>2015-06-28T08:31:56.000Z</time>
      </trkpt>
      <trkpt lat="47.43831" lon="6.70696">
        <ele>454</ele>
        <time>2015-06-28T08:31:57.000Z</time>
      </trkpt>
      <trkpt lat="47.43829" lon="6.70684">
        <ele>454</ele>
        <time>2015-06-28T08:31:58.000Z</time>
      </trkpt>
      <trkpt lat="47.43826" lon="6.70674">
        <ele>453</ele>
        <time>2015-06-28T08:31:59.000Z</time>
      </trkpt>
      <trkpt lat="47.43825" lon="6.70667">
        <ele>453</ele>
        <time>2015-06-28T08:32:00.000Z</time>
      </trkpt>
      <trkpt lat="47.43825" lon="6.70659">
        <ele>453</ele>
        <time>2015-06-28T08:32:01.000Z</time>
      </trkpt>
      <trkpt lat="47.43824" lon="6.70647">
        <ele>453</ele>
        <time>2015-06-28T08:32:02.000Z</time>
      </trkpt>
      <trkpt lat="47.43818" lon="6.70637">
        <ele>454</ele>
        <time>2015-06-28T08:32:03.000Z</time>
      </trkpt>
      <trkpt lat="47.43814" lon="6.70628">
        <ele>454</ele>
        <time>2015-06-28T08:32:04.000Z</time>
      </trkpt>
      <trkpt lat="47.43813" lon="6.70619">
        <ele>454</ele>
        <time>2015-06-28T08:32:05.000Z</time>
      </trkpt>
      <trkpt lat="47.43809" lon="6.70609">
        <ele>454</ele>
        <time>2015-06-28T08:32:06.000Z</time>
      </trkpt>
      <trkpt lat="47.43806" lon="6.70602">
        <ele>454</ele>
        <time>2015-06-28T08:32:07.000Z</time>
      </trkpt>
      <trkpt lat="47.43804" lon="6.70594">
        <ele>454</ele>
        <time>2015-06-28T08:32:08.000Z</time>
      </trkpt>
      <trkpt lat="47.43802" lon="6.70588">
        <ele>454</ele>
        <time>2015-06-28T08:32:09.000Z</time>
      </trkpt>
      <trkpt lat="47.43801" lon="6.70584">
        <ele>454</ele>
        <time>2015-06-28T08:32:10.000Z</time>
      </trkpt>
      <trkpt lat="47.43796" lon="6.70581">
        <ele>454</ele>
        <time>2015-06-28T08:32:11.000Z</time>
      </trkpt>
      <trkpt lat="47.43796" lon="6.7057">
        <ele>454</ele>
        <time>2015-06-28T08:32:12.000Z</time>
      </trkpt>
      <trkpt lat="47.43796" lon="6.70562">
        <ele>454</ele>
        <time>2015-06-28T08:32:13.000Z</time>
      </trkpt>
      <trkpt lat="47.43797" lon="6.70554">
        <ele>454</ele>
        <time>2015-06-28T08:32:14.000Z</time>
      </trkpt>
      <trkpt lat="47.43797" lon="6.70546">
        <ele>454</ele>
        <time>2015-06-28T08:32:15.000Z</time>
      </trkpt>
      <trkpt lat="47.43797" lon="6.70534">
        <ele>454</ele>
        <time>2015-06-28T08:32:16.000Z</time>
      </trkpt>
      <trkpt lat="47.43794" lon="6.70522">
        <ele>454</ele>
        <time>2015-06-28T08:32:17.000Z</time>
      </trkpt>
      <trkpt lat="47.43794" lon="6.70511">
        <ele>454</ele>
        <time>2015-06-28T08:32:18.000Z</time>
      </trkpt>
      <trkpt lat="47.43794" lon="6.70499">
        <ele>452</ele>
        <time>2015-06-28T08:32:19.000Z</time>
      </trkpt>
      <trkpt lat="47.43795" lon="6.70484">
        <ele>452</ele>
        <time>2015-06-28T08:32:20.000Z</time>
      </trkpt>
      <trkpt lat="47.43794" lon="6.7047">
        <ele>451</ele>
        <time>2015-06-28T08:32:21.000Z</time>
      </trkpt>
      <trkpt lat="47.43792" lon="6.70459">
        <ele>451</ele>
        <time>2015-06-28T08:32:22.000Z</time>
      </trkpt>
      <trkpt lat="47.43786" lon="6.70444">
        <ele>451</ele>
        <time>2015-06-28T08:32:23.000Z</time>
      </trkpt>
      <trkpt lat="47.4378" lon="6.70429">
        <ele>451</ele>
        <time>2015-06-28T08:32:24.000Z</time>
      </trkpt>
      <trkpt lat="47.43778" lon="6.70417">
        <ele>452</ele>
        <time>2015-06-28T08:32:25.000Z</time>
      </trkpt>
      <trkpt lat="47.43776" lon="6.7041">
        <ele>450</ele>
        <time>2015-06-28T08:32:26.000Z</time>
      </trkpt>
      <trkpt lat="47.43775" lon="6.70403">
        <ele>450</ele>
        <time>2015-06-28T08:32:27.000Z</time>
      </trkpt>
      <trkpt lat="47.43774" lon="6.70395">
        <ele>450</ele>
        <time>2015-06-28T08:32:28.000Z</time>
      </trkpt>
      <trkpt lat="47.43773" lon="6.70391">
        <ele>450</ele>
        <time>2015-06-28T08:32:29.000Z</time>
      </trkpt>
      <trkpt lat="47.43773" lon="6.70384">
        <ele>450</ele>
        <time>2015-06-28T08:32:30.000Z</time>
      </trkpt>
      <trkpt lat="47.43773" lon="6.70377">
        <ele>450</ele>
        <time>2015-06-28T08:32:31.000Z</time>
      </trkpt>
      <trkpt lat="47.43773" lon="6.70372">
        <ele>450</ele>
        <time>2015-06-28T08:32:34.000Z</time>
      </trkpt>
      <trkpt lat="47.43772" lon="6.70371">
        <ele>450</ele>
        <time>2015-06-28T08:32:35.000Z</time>
      </trkpt>
      <trkpt lat="47.43767" lon="6.70371">
        <ele>450</ele>
        <time>2015-06-28T08:32:53.000Z</time>
      </trkpt>
      <trkpt lat="47.43767" lon="6.70371">
        <ele>450</ele>
        <time>2015-06-28T08:32:54.000Z</time>
      </trkpt>
      <trkpt lat="47.43764" lon="6.70373">
        <ele>450</ele>
        <time>2015-06-28T08:33:35.000Z</time>
      </trkpt>
      <trkpt lat="47.43763" lon="6.70373">
        <ele>450</ele>
        <time>2015-06-28T08:33:36.000Z</time>
      </trkpt>
      <trkpt lat="47.4376" lon="6.70371">
        <ele>450</ele>
        <time>2015-06-28T08:33:38.000Z</time>
      </trkpt>
      <trkpt lat="47.43759" lon="6.70368">
        <ele>450</ele>
        <time>2015-06-28T08:33:39.000Z</time>
      </trkpt>
      <trkpt lat="47.43755" lon="6.70364">
        <ele>450</ele>
        <time>2015-06-28T08:33:47.000Z</time>
      </trkpt>
      <trkpt lat="47.43755" lon="6.70364">
        <ele>451</ele>
        <time>2015-06-28T08:33:48.000Z</time>
      </trkpt>
      <trkpt lat="47.43756" lon="6.70371">
        <ele>450</ele>
        <time>2015-06-28T08:34:08.000Z</time>
      </trkpt>
      <trkpt lat="47.43757" lon="6.70372">
        <ele>450</ele>
        <time>2015-06-28T08:34:09.000Z</time>
      </trkpt>
      <trkpt lat="47.43759" lon="6.70373">
        <ele>450</ele>
        <time>2015-06-28T08:34:10.000Z</time>
      </trkpt>
      <trkpt lat="47.43762" lon="6.70374">
        <ele>450</ele>
        <time>2015-06-28T08:34:11.000Z</time>
      </trkpt>
      <trkpt lat="47.43765" lon="6.70374">
        <ele>450</ele>
        <time>2015-06-28T08:34:12.000Z</time>
      </trkpt>
      <trkpt lat="47.43767" lon="6.70375">
        <ele>450</ele>
        <time>2015-06-28T08:34:13.000Z</time>
      </trkpt>
      <trkpt lat="47.43771" lon="6.70375">
        <ele>450</ele>
        <time>2015-06-28T08:34:15.000Z</time>
      </trkpt>
      <trkpt lat="47.43773" lon="6.70375">
        <ele>450</ele>
        <time>2015-06-28T08:34:16.000Z</time>
      </trkpt>
      <trkpt lat="47.43776" lon="6.70374">
        <ele>450</ele>
        <time>2015-06-28T08:34:18.000Z</time>
      </trkpt>
      <trkpt lat="47.43778" lon="6.70374">
        <ele>449</ele>
        <time>2015-06-28T08:34:19.000Z</time>
      </trkpt>
      <trkpt lat="47.43782" lon="6.70374">
        <ele>449</ele>
        <time>2015-06-28T08:34:21.000Z</time>
      </trkpt>
      <trkpt lat="47.43783" lon="6.70373">
        <ele>449</ele>
        <time>2015-06-28T08:34:22.000Z</time>
      </trkpt>
      <trkpt lat="47.43787" lon="6.70372">
        <ele>449</ele>
        <time>2015-06-28T08:34:24.000Z</time>
      </trkpt>
      <trkpt lat="47.43788" lon="6.70371">
        <ele>449</ele>
        <time>2015-06-28T08:34:25.000Z</time>
      </trkpt>
      <trkpt lat="47.43792" lon="6.7037">
        <ele>449</ele>
        <time>2015-06-28T08:34:27.000Z</time>
      </trkpt>
      <trkpt lat="47.43794" lon="6.70369">
        <ele>449</ele>
        <time>2015-06-28T08:34:28.000Z</time>
      </trkpt>
      <trkpt lat="47.43796" lon="6.70367">
        <ele>448</ele>
        <time>2015-06-28T08:34:29.000Z</time>
      </trkpt>
      <trkpt lat="47.43797" lon="6.70365">
        <ele>448</ele>
        <time>2015-06-28T08:34:30.000Z</time>
      </trkpt>
      <trkpt lat="47.43801" lon="6.70361">
        <ele>448</ele>
        <time>2015-06-28T08:34:32.000Z</time>
      </trkpt>
      <trkpt lat="47.43802" lon="6.70359">
        <ele>448</ele>
        <time>2015-06-28T08:34:33.000Z</time>
      </trkpt>
      <trkpt lat="47.43804" lon="6.70356">
        <ele>448</ele>
        <time>2015-06-28T08:34:34.000Z</time>
      </trkpt>
      <trkpt lat="47.43805" lon="6.70354">
        <ele>448</ele>
        <time>2015-06-28T08:34:35.000Z</time>
      </trkpt>
      <trkpt lat="47.43807" lon="6.7035">
        <ele>448</ele>
        <time>2015-06-28T08:34:36.000Z</time>
      </trkpt>
      <trkpt lat="47.43809" lon="6.70347">
        <ele>447</ele>
        <time>2015-06-28T08:34:37.000Z</time>
      </trkpt>
      <trkpt lat="47.43812" lon="6.70343">
        <ele>447</ele>
        <time>2015-06-28T08:34:38.000Z</time>
      </trkpt>
      <trkpt lat="47.43815" lon="6.7034">
        <ele>447</ele>
        <time>2015-06-28T08:34:39.000Z</time>
      </trkpt>
      <trkpt lat="47.43818" lon="6.70336">
        <ele>446</ele>
        <time>2015-06-28T08:34:40.000Z</time>
      </trkpt>
      <trkpt lat="47.43821" lon="6.70332">
        <ele>447</ele>
        <time>2015-06-28T08:34:41.000Z</time>
      </trkpt>
      <trkpt lat="47.43824" lon="6.70328">
        <ele>446</ele>
        <time>2015-06-28T08:34:42.000Z</time>
      </trkpt>
      <trkpt lat="47.43827" lon="6.70324">
        <ele>446</ele>
        <time>2015-06-28T08:34:43.000Z</time>
      </trkpt>
      <trkpt lat="47.43831" lon="6.7032">
        <ele>447</ele>
        <time>2015-06-28T08:34:44.000Z</time>
      </trkpt>
      <trkpt lat="47.43834" lon="6.70317">
        <ele>445</ele>
        <time>2015-06-28T08:34:45.000Z</time>
      </trkpt>
      <trkpt lat="47.43837" lon="6.70314">
        <ele>445</ele>
        <time>2015-06-28T08:34:46.000Z</time>
      </trkpt>
      <trkpt lat="47.4384" lon="6.70311">
        <ele>445</ele>
        <time>2015-06-28T08:34:47.000Z</time>
      </trkpt>
      <trkpt lat="47.43843" lon="6.70308">
        <ele>445</ele>
        <time>2015-06-28T08:34:48.000Z</time>
      </trkpt>
      <trkpt lat="47.43847" lon="6.70304">
        <ele>446</ele>
        <time>2015-06-28T08:34:49.000Z</time>
      </trkpt>
      <trkpt lat="47.4385" lon="6.703">
        <ele>446</ele>
        <time>2015-06-28T08:34:50.000Z</time>
      </trkpt>
      <trkpt lat="47.43853" lon="6.70296">
        <ele>446</ele>
        <time>2015-06-28T08:34:51.000Z</time>
      </trkpt>
      <trkpt lat="47.43856" lon="6.70291">
        <ele>446</ele>
        <time>2015-06-28T08:34:52.000Z</time>
      </trkpt>
      <trkpt lat="47.4386" lon="6.70286">
        <ele>446</ele>
        <time>2015-06-28T08:34:53.000Z</time>
      </trkpt>
      <trkpt lat="47.43865" lon="6.70279">
        <ele>446</ele>
        <time>2015-06-28T08:34:54.000Z</time>
      </trkpt>
      <trkpt lat="47.43869" lon="6.70273">
        <ele>446</ele>
        <time>2015-06-28T08:34:55.000Z</time>
      </trkpt>
      <trkpt lat="47.43873" lon="6.70266">
        <ele>446</ele>
        <time>2015-06-28T08:34:56.000Z</time>
      </trkpt>
      <trkpt lat="47.43876" lon="6.7026">
        <ele>446</ele>
        <time>2015-06-28T08:34:57.000Z</time>
      </trkpt>
      <trkpt lat="47.43879" lon="6.70253">
        <ele>445</ele>
        <time>2015-06-28T08:34:58.000Z</time>
      </trkpt>
      <trkpt lat="47.43882" lon="6.70246">
        <ele>447</ele>
        <time>2015-06-28T08:34:59.000Z</time>
      </trkpt>
      <trkpt lat="47.43885" lon="6.70238">
        <ele>447</ele>
        <time>2015-06-28T08:35:00.000Z</time>
      </trkpt>
      <trkpt lat="47.43888" lon="6.70231">
        <ele>447</ele>
        <time>2015-06-28T08:35:01.000Z</time>
      </trkpt>
      <trkpt lat="47.43895" lon="6.702">
        <ele>448</ele>
        <time>2015-06-28T08:35:02.000Z</time>
      </trkpt>
      <trkpt lat="47.43898" lon="6.70195">
        <ele>448</ele>
        <time>2015-06-28T08:35:03.000Z</time>
      </trkpt>
      <trkpt lat="47.439" lon="6.7019">
        <ele>448</ele>
        <time>2015-06-28T08:35:04.000Z</time>
      </trkpt>
      <trkpt lat="47.43902" lon="6.70186">
        <ele>448</ele>
        <time>2015-06-28T08:35:05.000Z</time>
      </trkpt>
      <trkpt lat="47.43904" lon="6.70182">
        <ele>448</ele>
        <time>2015-06-28T08:35:06.000Z</time>
      </trkpt>
      <trkpt lat="47.43906" lon="6.70178">
        <ele>448</ele>
        <time>2015-06-28T08:35:07.000Z</time>
      </trkpt>
      <trkpt lat="47.43908" lon="6.70175">
        <ele>448</ele>
        <time>2015-06-28T08:35:08.000Z</time>
      </trkpt>
      <trkpt lat="47.43912" lon="6.70173">
        <ele>447</ele>
        <time>2015-06-28T08:35:09.000Z</time>
      </trkpt>
      <trkpt lat="47.43915" lon="6.70171">
        <ele>447</ele>
        <time>2015-06-28T08:35:10.000Z</time>
      </trkpt>
      <trkpt lat="47.43919" lon="6.7017">
        <ele>447</ele>
        <time>2015-06-28T08:35:11.000Z</time>
      </trkpt>
      <trkpt lat="47.43924" lon="6.70169">
        <ele>447</ele>
        <time>2015-06-28T08:35:12.000Z</time>
      </trkpt>
      <trkpt lat="47.43929" lon="6.70169">
        <ele>447</ele>
        <time>2015-06-28T08:35:13.000Z</time>
      </trkpt>
      <trkpt lat="47.43933" lon="6.70169">
        <ele>447</ele>
        <time>2015-06-28T08:35:14.000Z</time>
      </trkpt>
      <trkpt lat="47.43938" lon="6.7017">
        <ele>447</ele>
        <time>2015-06-28T08:35:15.000Z</time>
      </trkpt>
      <trkpt lat="47.43943" lon="6.70171">
        <ele>448</ele>
        <time>2015-06-28T08:35:16.000Z</time>
      </trkpt>
      <trkpt lat="47.43948" lon="6.70172">
        <ele>448</ele>
        <time>2015-06-28T08:35:17.000Z</time>
      </trkpt>
      <trkpt lat="47.43953" lon="6.70173">
        <ele>448</ele>
        <time>2015-06-28T08:35:18.000Z</time>
      </trkpt>
      <trkpt lat="47.43957" lon="6.70174">
        <ele>448</ele>
        <time>2015-06-28T08:35:19.000Z</time>
      </trkpt>
      <trkpt lat="47.43959" lon="6.70174">
        <ele>448</ele>
        <time>2015-06-28T08:35:20.000Z</time>
      </trkpt>
      <trkpt lat="47.43964" lon="6.70175">
        <ele>448</ele>
        <time>2015-06-28T08:35:22.000Z</time>
      </trkpt>
      <trkpt lat="47.43965" lon="6.70176">
        <ele>448</ele>
        <time>2015-06-28T08:35:23.000Z</time>
      </trkpt>
      <trkpt lat="47.43968" lon="6.7018">
        <ele>448</ele>
        <time>2015-06-28T08:35:27.000Z</time>
      </trkpt>
      <trkpt lat="47.43968" lon="6.70181">
        <ele>448</ele>
        <time>2015-06-28T08:35:28.000Z</time>
      </trkpt>
      <trkpt lat="47.43971" lon="6.70185">
        <ele>448</ele>
        <time>2015-06-28T08:35:31.000Z</time>
      </trkpt>
      <trkpt lat="47.43972" lon="6.70187">
        <ele>448</ele>
        <time>2015-06-28T08:35:32.000Z</time>
      </trkpt>
      <trkpt lat="47.43975" lon="6.70191">
        <ele>448</ele>
        <time>2015-06-28T08:35:37.000Z</time>
      </trkpt>
      <trkpt lat="47.43976" lon="6.70192">
        <ele>448</ele>
        <time>2015-06-28T08:35:38.000Z</time>
      </trkpt>
      <trkpt lat="47.43979" lon="6.70191">
        <ele>449</ele>
        <time>2015-06-28T08:35:39.000Z</time>
      </trkpt>
      <trkpt lat="47.43981" lon="6.70192">
        <ele>449</ele>
        <time>2015-06-28T08:35:40.000Z</time>
      </trkpt>
      <trkpt lat="47.43985" lon="6.70192">
        <ele>449</ele>
        <time>2015-06-28T08:35:42.000Z</time>
      </trkpt>
      <trkpt lat="47.43989" lon="6.70193">
        <ele>449</ele>
        <time>2015-06-28T08:35:43.000Z</time>
      </trkpt>
      <trkpt lat="47.43993" lon="6.70193">
        <ele>449</ele>
        <time>2015-06-28T08:35:44.000Z</time>
      </trkpt>
      <trkpt lat="47.43997" lon="6.70194">
        <ele>449</ele>
        <time>2015-06-28T08:35:45.000Z</time>
      </trkpt>
      <trkpt lat="47.44" lon="6.70195">
        <ele>451</ele>
        <time>2015-06-28T08:35:46.000Z</time>
      </trkpt>
      <trkpt lat="47.44003" lon="6.70196">
        <ele>451</ele>
        <time>2015-06-28T08:35:47.000Z</time>
      </trkpt>
      <trkpt lat="47.44006" lon="6.70197">
        <ele>451</ele>
        <time>2015-06-28T08:35:48.000Z</time>
      </trkpt>
      <trkpt lat="47.44008" lon="6.70197">
        <ele>451</ele>
        <time>2015-06-28T08:35:49.000Z</time>
      </trkpt>
      <trkpt lat="47.44011" lon="6.70198">
        <ele>451</ele>
        <time>2015-06-28T08:35:50.000Z</time>
      </trkpt>
      <trkpt lat="47.44013" lon="6.70199">
        <ele>451</ele>
        <time>2015-06-28T08:35:51.000Z</time>
      </trkpt>
      <trkpt lat="47.44016" lon="6.702">
        <ele>451</ele>
        <time>2015-06-28T08:35:52.000Z</time>
      </trkpt>
      <trkpt lat="47.44019" lon="6.70201">
        <ele>451</ele>
        <time>2015-06-28T08:35:53.000Z</time>
      </trkpt>
      <trkpt lat="47.44021" lon="6.70203">
        <ele>451</ele>
        <time>2015-06-28T08:35:54.000Z</time>
      </trkpt>
      <trkpt lat="47.44023" lon="6.70203">
        <ele>451</ele>
        <time>2015-06-28T08:35:55.000Z</time>
      </trkpt>
      <trkpt lat="47.44027" lon="6.70203">
        <ele>451</ele>
        <time>2015-06-28T08:35:56.000Z</time>
      </trkpt>
      <trkpt lat="47.4403" lon="6.70201">
        <ele>451</ele>
        <time>2015-06-28T08:35:57.000Z</time>
      </trkpt>
      <trkpt lat="47.44034" lon="6.70199">
        <ele>451</ele>
        <time>2015-06-28T08:35:58.000Z</time>
      </trkpt>
      <trkpt lat="47.44037" lon="6.70197">
        <ele>451</ele>
        <time>2015-06-28T08:35:59.000Z</time>
      </trkpt>
      <trkpt lat="47.4404" lon="6.70195">
        <ele>451</ele>
        <time>2015-06-28T08:36:00.000Z</time>
      </trkpt>
      <trkpt lat="47.44042" lon="6.70192">
        <ele>451</ele>
        <time>2015-06-28T08:36:01.000Z</time>
      </trkpt>
      <trkpt lat="47.44044" lon="6.7019">
        <ele>451</ele>
        <time>2015-06-28T08:36:02.000Z</time>
      </trkpt>
      <trkpt lat="47.44046" lon="6.70188">
        <ele>451</ele>
        <time>2015-06-28T08:36:03.000Z</time>
      </trkpt>
      <trkpt lat="47.44047" lon="6.70186">
        <ele>451</ele>
        <time>2015-06-28T08:36:04.000Z</time>
      </trkpt>
      <trkpt lat="47.44049" lon="6.70183">
        <ele>451</ele>
        <time>2015-06-28T08:36:05.000Z</time>
      </trkpt>
      <trkpt lat="47.44051" lon="6.70181">
        <ele>451</ele>
        <time>2015-06-28T08:36:06.000Z</time>
      </trkpt>
      <trkpt lat="47.44053" lon="6.70179">
        <ele>451</ele>
        <time>2015-06-28T08:36:07.000Z</time>
      </trkpt>
      <trkpt lat="47.44054" lon="6.70177">
        <ele>451</ele>
        <time>2015-06-28T08:36:08.000Z</time>
      </trkpt>
      <trkpt lat="47.44056" lon="6.70174">
        <ele>451</ele>
        <time>2015-06-28T08:36:09.000Z</time>
      </trkpt>
      <trkpt lat="47.44058" lon="6.70172">
        <ele>452</ele>
        <time>2015-06-28T08:36:10.000Z</time>
      </trkpt>
      <trkpt lat="47.44059" lon="6.70169">
        <ele>452</ele>
        <time>2015-06-28T08:36:11.000Z</time>
      </trkpt>
      <trkpt lat="47.4406" lon="6.70166">
        <ele>454</ele>
        <time>2015-06-28T08:36:12.000Z</time>
      </trkpt>
      <trkpt lat="47.44062" lon="6.70162">
        <ele>454</ele>
        <time>2015-06-28T08:36:13.000Z</time>
      </trkpt>
      <trkpt lat="47.44063" lon="6.70157">
        <ele>454</ele>
        <time>2015-06-28T08:36:14.000Z</time>
      </trkpt>
      <trkpt lat="47.44065" lon="6.70151">
        <ele>454</ele>
        <time>2015-06-28T08:36:15.000Z</time>
      </trkpt>
      <trkpt lat="47.44067" lon="6.70145">
        <ele>454</ele>
        <time>2015-06-28T08:36:16.000Z</time>
      </trkpt>
      <trkpt lat="47.44068" lon="6.70139">
        <ele>455</ele>
        <time>2015-06-28T08:36:17.000Z</time>
      </trkpt>
      <trkpt lat="47.4407" lon="6.70134">
        <ele>455</ele>
        <time>2015-06-28T08:36:18.000Z</time>
      </trkpt>
      <trkpt lat="47.44071" lon="6.70129">
        <ele>455</ele>
        <time>2015-06-28T08:36:19.000Z</time>
      </trkpt>
      <trkpt lat="47.44071" lon="6.70123">
        <ele>455</ele>
        <time>2015-06-28T08:36:20.000Z</time>
      </trkpt>
      <trkpt lat="47.4407" lon="6.70118">
        <ele>455</ele>
        <time>2015-06-28T08:36:21.000Z</time>
      </trkpt>
      <trkpt lat="47.4407" lon="6.70112">
        <ele>455</ele>
        <time>2015-06-28T08:36:22.000Z</time>
      </trkpt>
      <trkpt lat="47.44069" lon="6.70107">
        <ele>456</ele>
        <time>2015-06-28T08:36:23.000Z</time>
      </trkpt>
      <trkpt lat="47.44069" lon="6.70101">
        <ele>456</ele>
        <time>2015-06-28T08:36:24.000Z</time>
      </trkpt>
      <trkpt lat="47.44069" lon="6.70096">
        <ele>456</ele>
        <time>2015-06-28T08:36:25.000Z</time>
      </trkpt>
      <trkpt lat="47.4407" lon="6.70091">
        <ele>456</ele>
        <time>2015-06-28T08:36:26.000Z</time>
      </trkpt>
      <trkpt lat="47.44077" lon="6.70083">
        <ele>456</ele>
        <time>2015-06-28T08:36:27.000Z</time>
      </trkpt>
      <trkpt lat="47.44079" lon="6.70078">
        <ele>457</ele>
        <time>2015-06-28T08:36:27.999Z</time>
      </trkpt>
      <trkpt lat="47.44078" lon="6.70073">
        <ele>457</ele>
        <time>2015-06-28T08:36:29.000Z</time>
      </trkpt>
      <trkpt lat="47.44078" lon="6.70064">
        <ele>458</ele>
        <time>2015-06-28T08:36:30.000Z</time>
      </trkpt>
      <trkpt lat="47.44078" lon="6.70057">
        <ele>458</ele>
        <time>2015-06-28T08:36:31.000Z</time>
      </trkpt>
      <trkpt lat="47.4408" lon="6.70054">
        <ele>458</ele>
        <time>2015-06-28T08:36:32.000Z</time>
      </trkpt>
      <trkpt lat="47.44081" lon="6.7005">
        <ele>458</ele>
        <time>2015-06-28T08:36:33.000Z</time>
      </trkpt>
      <trkpt lat="47.44082" lon="6.70045">
        <ele>458</ele>
        <time>2015-06-28T08:36:34.000Z</time>
      </trkpt>
      <trkpt lat="47.44081" lon="6.70041">
        <ele>459</ele>
        <time>2015-06-28T08:36:35.000Z</time>
      </trkpt>
      <trkpt lat="47.44082" lon="6.70037">
        <ele>459</ele>
        <time>2015-06-28T08:36:36.000Z</time>
      </trkpt>
      <trkpt lat="47.44083" lon="6.70033">
        <ele>459</ele>
        <time>2015-06-28T08:36:37.000Z</time>
      </trkpt>
      <trkpt lat="47.44083" lon="6.70027">
        <ele>458</ele>
        <time>2015-06-28T08:36:38.000Z</time>
      </trkpt>
      <trkpt lat="47.44084" lon="6.7002">
        <ele>454</ele>
        <time>2015-06-28T08:36:39.000Z</time>
      </trkpt>
      <trkpt lat="47.44084" lon="6.70015">
        <ele>454</ele>
        <time>2015-06-28T08:36:40.000Z</time>
      </trkpt>
      <trkpt lat="47.44085" lon="6.7001">
        <ele>455</ele>
        <time>2015-06-28T08:36:41.000Z</time>
      </trkpt>
      <trkpt lat="47.44086" lon="6.70006">
        <ele>456</ele>
        <time>2015-06-28T08:36:42.000Z</time>
      </trkpt>
      <trkpt lat="47.44088" lon="6.70001">
        <ele>456</ele>
        <time>2015-06-28T08:36:43.000Z</time>
      </trkpt>
      <trkpt lat="47.44089" lon="6.69997">
        <ele>456</ele>
        <time>2015-06-28T08:36:44.000Z</time>
      </trkpt>
      <trkpt lat="47.44091" lon="6.69992">
        <ele>455</ele>
        <time>2015-06-28T08:36:45.000Z</time>
      </trkpt>
      <trkpt lat="47.44092" lon="6.69988">
        <ele>455</ele>
        <time>2015-06-28T08:36:46.000Z</time>
      </trkpt>
      <trkpt lat="47.44093" lon="6.69983">
        <ele>455</ele>
        <time>2015-06-28T08:36:47.000Z</time>
      </trkpt>
      <trkpt lat="47.44094" lon="6.69979">
        <ele>454</ele>
        <time>2015-06-28T08:36:48.000Z</time>
      </trkpt>
      <trkpt lat="47.44095" lon="6.69974">
        <ele>454</ele>
        <time>2015-06-28T08:36:49.000Z</time>
      </trkpt>
      <trkpt lat="47.44094" lon="6.69969">
        <ele>454</ele>
        <time>2015-06-28T08:36:50.000Z</time>
      </trkpt>
      <trkpt lat="47.44093" lon="6.69964">
        <ele>454</ele>
        <time>2015-06-28T08:36:51.000Z</time>
      </trkpt>
      <trkpt lat="47.44092" lon="6.69961">
        <ele>454</ele>
        <time>2015-06-28T08:36:52.000Z</time>
      </trkpt>
      <trkpt lat="47.4409" lon="6.69958">
        <ele>454</ele>
        <time>2015-06-28T08:36:53.000Z</time>
      </trkpt>
      <trkpt lat="47.44089" lon="6.69953">
        <ele>453</ele>
        <time>2015-06-28T08:36:55.000Z</time>
      </trkpt>
      <trkpt lat="47.44088" lon="6.69951">
        <ele>453</ele>
        <time>2015-06-28T08:36:56.000Z</time>
      </trkpt>
      <trkpt lat="47.44087" lon="6.69946">
        <ele>453</ele>
        <time>2015-06-28T08:36:58.000Z</time>
      </trkpt>
      <trkpt lat="47.44085" lon="6.69944">
        <ele>453</ele>
        <time>2015-06-28T08:36:59.000Z</time>
      </trkpt>
      <trkpt lat="47.44082" lon="6.6994">
        <ele>456</ele>
        <time>2015-06-28T08:37:01.000Z</time>
      </trkpt>
      <trkpt lat="47.44081" lon="6.69939">
        <ele>456</ele>
        <time>2015-06-28T08:37:02.000Z</time>
      </trkpt>
      <trkpt lat="47.44078" lon="6.69936">
        <ele>456</ele>
        <time>2015-06-28T08:37:04.000Z</time>
      </trkpt>
      <trkpt lat="47.44077" lon="6.69935">
        <ele>456</ele>
        <time>2015-06-28T08:37:05.000Z</time>
      </trkpt>
      <trkpt lat="47.44074" lon="6.69932">
        <ele>456</ele>
        <time>2015-06-28T08:37:07.000Z</time>
      </trkpt>
      <trkpt lat="47.44072" lon="6.6993">
        <ele>456</ele>
        <time>2015-06-28T08:37:08.000Z</time>
      </trkpt>
      <trkpt lat="47.4407" lon="6.69926">
        <ele>456</ele>
        <time>2015-06-28T08:37:10.000Z</time>
      </trkpt>
      <trkpt lat="47.44069" lon="6.69925">
        <ele>456</ele>
        <time>2015-06-28T08:37:11.000Z</time>
      </trkpt>
      <trkpt lat="47.44065" lon="6.69922">
        <ele>456</ele>
        <time>2015-06-28T08:37:13.000Z</time>
      </trkpt>
      <trkpt lat="47.44063" lon="6.69921">
        <ele>456</ele>
        <time>2015-06-28T08:37:14.000Z</time>
      </trkpt>
      <trkpt lat="47.44061" lon="6.69919">
        <ele>457</ele>
        <time>2015-06-28T08:37:15.000Z</time>
      </trkpt>
      <trkpt lat="47.44059" lon="6.69918">
        <ele>457</ele>
        <time>2015-06-28T08:37:16.000Z</time>
      </trkpt>
      <trkpt lat="47.44056" lon="6.69917">
        <ele>457</ele>
        <time>2015-06-28T08:37:17.000Z</time>
      </trkpt>
      <trkpt lat="47.44054" lon="6.69916">
        <ele>455</ele>
        <time>2015-06-28T08:37:18.000Z</time>
      </trkpt>
      <trkpt lat="47.44051" lon="6.69915">
        <ele>455</ele>
        <time>2015-06-28T08:37:19.000Z</time>
      </trkpt>
      <trkpt lat="47.44049" lon="6.69913">
        <ele>455</ele>
        <time>2015-06-28T08:37:20.000Z</time>
      </trkpt>
      <trkpt lat="47.44046" lon="6.69909">
        <ele>456</ele>
        <time>2015-06-28T08:37:22.000Z</time>
      </trkpt>
      <trkpt lat="47.44044" lon="6.69908">
        <ele>456</ele>
        <time>2015-06-28T08:37:23.000Z</time>
      </trkpt>
      <trkpt lat="47.44041" lon="6.69905">
        <ele>456</ele>
        <time>2015-06-28T08:37:25.000Z</time>
      </trkpt>
      <trkpt lat="47.4404" lon="6.69904">
        <ele>456</ele>
        <time>2015-06-28T08:37:26.000Z</time>
      </trkpt>
      <trkpt lat="47.44036" lon="6.69903">
        <ele>456</ele>
        <time>2015-06-28T08:37:28.000Z</time>
      </trkpt>
      <trkpt lat="47.44034" lon="6.69901">
        <ele>456</ele>
        <time>2015-06-28T08:37:29.000Z</time>
      </trkpt>
      <trkpt lat="47.44031" lon="6.69899">
        <ele>456</ele>
        <time>2015-06-28T08:37:31.000Z</time>
      </trkpt>
      <trkpt lat="47.44029" lon="6.69898">
        <ele>456</ele>
        <time>2015-06-28T08:37:32.000Z</time>
      </trkpt>
      <trkpt lat="47.44026" lon="6.69896">
        <ele>457</ele>
        <time>2015-06-28T08:37:33.000Z</time>
      </trkpt>
      <trkpt lat="47.44024" lon="6.69895">
        <ele>457</ele>
        <time>2015-06-28T08:37:34.000Z</time>
      </trkpt>
      <trkpt lat="47.44022" lon="6.69894">
        <ele>457</ele>
        <time>2015-06-28T08:37:35.000Z</time>
      </trkpt>
      <trkpt lat="47.44019" lon="6.69893">
        <ele>457</ele>
        <time>2015-06-28T08:37:36.000Z</time>
      </trkpt>
      <trkpt lat="47.44017" lon="6.69892">
        <ele>457</ele>
        <time>2015-06-28T08:37:37.000Z</time>
      </trkpt>
      <trkpt lat="47.44015" lon="6.69891">
        <ele>457</ele>
        <time>2015-06-28T08:37:38.000Z</time>
      </trkpt>
      <trkpt lat="47.44013" lon="6.69889">
        <ele>457</ele>
        <time>2015-06-28T08:37:39.000Z</time>
      </trkpt>
      <trkpt lat="47.4401" lon="6.69888">
        <ele>457</ele>
        <time>2015-06-28T08:37:40.000Z</time>
      </trkpt>
      <trkpt lat="47.44008" lon="6.69886">
        <ele>457</ele>
        <time>2015-06-28T08:37:41.000Z</time>
      </trkpt>
      <trkpt lat="47.44005" lon="6.69885">
        <ele>457</ele>
        <time>2015-06-28T08:37:42.000Z</time>
      </trkpt>
      <trkpt lat="47.44002" lon="6.69884">
        <ele>457</ele>
        <time>2015-06-28T08:37:43.000Z</time>
      </trkpt>
      <trkpt lat="47.43999" lon="6.69882">
        <ele>459</ele>
        <time>2015-06-28T08:37:44.000Z</time>
      </trkpt>
      <trkpt lat="47.43996" lon="6.6988">
        <ele>459</ele>
        <time>2015-06-28T08:37:45.000Z</time>
      </trkpt>
      <trkpt lat="47.43992" lon="6.69878">
        <ele>459</ele>
        <time>2015-06-28T08:37:46.000Z</time>
      </trkpt>
      <trkpt lat="47.43989" lon="6.69876">
        <ele>459</ele>
        <time>2015-06-28T08:37:47.000Z</time>
      </trkpt>
      <trkpt lat="47.43985" lon="6.69874">
        <ele>458</ele>
        <time>2015-06-28T08:37:48.000Z</time>
      </trkpt>
      <trkpt lat="47.43982" lon="6.69871">
        <ele>458</ele>
        <time>2015-06-28T08:37:49.000Z</time>
      </trkpt>
      <trkpt lat="47.43978" lon="6.69869">
        <ele>458</ele>
        <time>2015-06-28T08:37:50.000Z</time>
      </trkpt>
      <trkpt lat="47.43974" lon="6.69867">
        <ele>458</ele>
        <time>2015-06-28T08:37:51.000Z</time>
      </trkpt>
      <trkpt lat="47.43971" lon="6.69866">
        <ele>458</ele>
        <time>2015-06-28T08:37:52.000Z</time>
      </trkpt>
      <trkpt lat="47.43967" lon="6.69865">
        <ele>458</ele>
        <time>2015-06-28T08:37:53.000Z</time>
      </trkpt>
      <trkpt lat="47.43964" lon="6.69864">
        <ele>458</ele>
        <time>2015-06-28T08:37:54.000Z</time>
      </trkpt>
      <trkpt lat="47.43959" lon="6.69865">
        <ele>458</ele>
        <time>2015-06-28T08:38:02.000Z</time>
      </trkpt>
      <trkpt lat="47.43959" lon="6.69865">
        <ele>458</ele>
        <time>2015-06-28T08:38:03.000Z</time>
      </trkpt>
      <trkpt lat="47.43956" lon="6.69862">
        <ele>458</ele>
        <time>2015-06-28T08:38:33.000Z</time>
      </trkpt>
      <trkpt lat="47.43955" lon="6.6986">
        <ele>458</ele>
        <time>2015-06-28T08:38:34.000Z</time>
      </trkpt>
      <trkpt lat="47.43952" lon="6.69856">
        <ele>458</ele>
        <time>2015-06-28T08:38:36.000Z</time>
      </trkpt>
      <trkpt lat="47.43951" lon="6.69854">
        <ele>458</ele>
        <time>2015-06-28T08:38:37.000Z</time>
      </trkpt>
      <trkpt lat="47.43948" lon="6.69849">
        <ele>458</ele>
        <time>2015-06-28T08:38:39.000Z</time>
      </trkpt>
      <trkpt lat="47.43946" lon="6.69847">
        <ele>458</ele>
        <time>2015-06-28T08:38:40.000Z</time>
      </trkpt>
      <trkpt lat="47.43944" lon="6.69845">
        <ele>458</ele>
        <time>2015-06-28T08:38:41.000Z</time>
      </trkpt>
      <trkpt lat="47.43942" lon="6.69844">
        <ele>458</ele>
        <time>2015-06-28T08:38:42.000Z</time>
      </trkpt>
      <trkpt lat="47.43939" lon="6.69842">
        <ele>458</ele>
        <time>2015-06-28T08:38:43.000Z</time>
      </trkpt>
      <trkpt lat="47.43937" lon="6.6984">
        <ele>458</ele>
        <time>2015-06-28T08:38:44.000Z</time>
      </trkpt>
      <trkpt lat="47.43934" lon="6.69837">
        <ele>458</ele>
        <time>2015-06-28T08:38:45.000Z</time>
      </trkpt>
      <trkpt lat="47.43931" lon="6.69834">
        <ele>458</ele>
        <time>2015-06-28T08:38:46.000Z</time>
      </trkpt>
      <trkpt lat="47.43928" lon="6.69831">
        <ele>456</ele>
        <time>2015-06-28T08:38:47.000Z</time>
      </trkpt>
      <trkpt lat="47.43924" lon="6.69828">
        <ele>456</ele>
        <time>2015-06-28T08:38:48.000Z</time>
      </trkpt>
      <trkpt lat="47.4392" lon="6.69825">
        <ele>456</ele>
        <time>2015-06-28T08:38:49.000Z</time>
      </trkpt>
      <trkpt lat="47.43916" lon="6.69821">
        <ele>456</ele>
        <time>2015-06-28T08:38:50.000Z</time>
      </trkpt>
      <trkpt lat="47.43912" lon="6.69818">
        <ele>456</ele>
        <time>2015-06-28T08:38:51.000Z</time>
      </trkpt>
      <trkpt lat="47.43908" lon="6.69815">
        <ele>455</ele>
        <time>2015-06-28T08:38:52.000Z</time>
      </trkpt>
      <trkpt lat="47.43904" lon="6.69811">
        <ele>455</ele>
        <time>2015-06-28T08:38:53.000Z</time>
      </trkpt>
      <trkpt lat="47.439" lon="6.69807">
        <ele>455</ele>
        <time>2015-06-28T08:38:54.000Z</time>
      </trkpt>
      <trkpt lat="47.43896" lon="6.69803">
        <ele>455</ele>
        <time>2015-06-28T08:38:55.000Z</time>
      </trkpt>
      <trkpt lat="47.43892" lon="6.69799">
        <ele>455</ele>
        <time>2015-06-28T08:38:56.000Z</time>
      </trkpt>
      <trkpt lat="47.43888" lon="6.69795">
        <ele>454</ele>
        <time>2015-06-28T08:38:57.000Z</time>
      </trkpt>
      <trkpt lat="47.43884" lon="6.69791">
        <ele>454</ele>
        <time>2015-06-28T08:38:58.001Z</time>
      </trkpt>
      <trkpt lat="47.4388" lon="6.69788">
        <ele>454</ele>
        <time>2015-06-28T08:38:59.000Z</time>
      </trkpt>
      <trkpt lat="47.43877" lon="6.69784">
        <ele>454</ele>
        <time>2015-06-28T08:39:00.000Z</time>
      </trkpt>
      <trkpt lat="47.43875" lon="6.69781">
        <ele>454</ele>
        <time>2015-06-28T08:39:01.000Z</time>
      </trkpt>
      <trkpt lat="47.43873" lon="6.69778">
        <ele>454</ele>
        <time>2015-06-28T08:39:01.999Z</time>
      </trkpt>
      <trkpt lat="47.4387" lon="6.69774">
        <ele>454</ele>
        <time>2015-06-28T08:39:06.001Z</time>
      </trkpt>
      <trkpt lat="47.43869" lon="6.69772">
        <ele>454</ele>
        <time>2015-06-28T08:39:07.000Z</time>
      </trkpt>
      <trkpt lat="47.43867" lon="6.69766">
        <ele>454</ele>
        <time>2015-06-28T08:39:09.000Z</time>
      </trkpt>
      <trkpt lat="47.43866" lon="6.69764">
        <ele>454</ele>
        <time>2015-06-28T08:39:10.000Z</time>
      </trkpt>
      <trkpt lat="47.43866" lon="6.6976">
        <ele>453</ele>
        <time>2015-06-28T08:39:11.000Z</time>
      </trkpt>
      <trkpt lat="47.43866" lon="6.69755">
        <ele>453</ele>
        <time>2015-06-28T08:39:12.000Z</time>
      </trkpt>
      <trkpt lat="47.43866" lon="6.69751">
        <ele>453</ele>
        <time>2015-06-28T08:39:13.000Z</time>
      </trkpt>
      <trkpt lat="47.43865" lon="6.69747">
        <ele>450</ele>
        <time>2015-06-28T08:39:14.000Z</time>
      </trkpt>
      <trkpt lat="47.43866" lon="6.6974">
        <ele>450</ele>
        <time>2015-06-28T08:39:16.000Z</time>
      </trkpt>
      <trkpt lat="47.43866" lon="6.69738">
        <ele>449</ele>
        <time>2015-06-28T08:39:17.000Z</time>
      </trkpt>
      <trkpt lat="47.43868" lon="6.69733">
        <ele>449</ele>
        <time>2015-06-28T08:39:19.000Z</time>
      </trkpt>
      <trkpt lat="47.43868" lon="6.6973">
        <ele>449</ele>
        <time>2015-06-28T08:39:20.000Z</time>
      </trkpt>
      <trkpt lat="47.43869" lon="6.69727">
        <ele>449</ele>
        <time>2015-06-28T08:39:21.000Z</time>
      </trkpt>
      <trkpt lat="47.4387" lon="6.69723">
        <ele>449</ele>
        <time>2015-06-28T08:39:22.000Z</time>
      </trkpt>
      <trkpt lat="47.43871" lon="6.6972">
        <ele>449</ele>
        <time>2015-06-28T08:39:23.000Z</time>
      </trkpt>
      <trkpt lat="47.43871" lon="6.69717">
        <ele>449</ele>
        <time>2015-06-28T08:39:24.000Z</time>
      </trkpt>
      <trkpt lat="47.43872" lon="6.69714">
        <ele>448</ele>
        <time>2015-06-28T08:39:25.000Z</time>
      </trkpt>
      <trkpt lat="47.43872" lon="6.6971">
        <ele>448</ele>
        <time>2015-06-28T08:39:26.000Z</time>
      </trkpt>
      <trkpt lat="47.43872" lon="6.69704">
        <ele>448</ele>
        <time>2015-06-28T08:39:28.000Z</time>
      </trkpt>
      <trkpt lat="47.43871" lon="6.697">
        <ele>448</ele>
        <time>2015-06-28T08:39:29.000Z</time>
      </trkpt>
      <trkpt lat="47.4387" lon="6.69697">
        <ele>448</ele>
        <time>2015-06-28T08:39:30.000Z</time>
      </trkpt>
      <trkpt lat="47.43869" lon="6.69693">
        <ele>447</ele>
        <time>2015-06-28T08:39:31.000Z</time>
      </trkpt>
      <trkpt lat="47.43869" lon="6.69688">
        <ele>447</ele>
        <time>2015-06-28T08:39:32.000Z</time>
      </trkpt>
      <trkpt lat="47.43868" lon="6.69683">
        <ele>447</ele>
        <time>2015-06-28T08:39:33.000Z</time>
      </trkpt>
      <trkpt lat="47.43867" lon="6.69678">
        <ele>447</ele>
        <time>2015-06-28T08:39:34.000Z</time>
      </trkpt>
      <trkpt lat="47.43866" lon="6.69674">
        <ele>447</ele>
        <time>2015-06-28T08:39:35.000Z</time>
      </trkpt>
      <trkpt lat="47.43865" lon="6.6967">
        <ele>446</ele>
        <time>2015-06-28T08:39:36.000Z</time>
      </trkpt>
      <trkpt lat="47.43864" lon="6.69666">
        <ele>442</ele>
        <time>2015-06-28T08:39:37.000Z</time>
      </trkpt>
      <trkpt lat="47.43863" lon="6.69663">
        <ele>442</ele>
        <time>2015-06-28T08:39:38.000Z</time>
      </trkpt>
      <trkpt lat="47.43862" lon="6.69659">
        <ele>442</ele>
        <time>2015-06-28T08:39:39.000Z</time>
      </trkpt>
      <trkpt lat="47.43861" lon="6.69656">
        <ele>442</ele>
        <time>2015-06-28T08:39:40.000Z</time>
      </trkpt>
      <trkpt lat="47.4386" lon="6.69652">
        <ele>442</ele>
        <time>2015-06-28T08:39:41.000Z</time>
      </trkpt>
      <trkpt lat="47.43858" lon="6.69648">
        <ele>442</ele>
        <time>2015-06-28T08:39:42.000Z</time>
      </trkpt>
      <trkpt lat="47.43855" lon="6.69645">
        <ele>442</ele>
        <time>2015-06-28T08:39:43.000Z</time>
      </trkpt>
      <trkpt lat="47.43853" lon="6.69642">
        <ele>442</ele>
        <time>2015-06-28T08:39:44.000Z</time>
      </trkpt>
      <trkpt lat="47.4385" lon="6.69639">
        <ele>441</ele>
        <time>2015-06-28T08:39:45.000Z</time>
      </trkpt>
      <trkpt lat="47.43847" lon="6.69637">
        <ele>441</ele>
        <time>2015-06-28T08:39:46.000Z</time>
      </trkpt>
      <trkpt lat="47.43845" lon="6.69635">
        <ele>441</ele>
        <time>2015-06-28T08:39:47.000Z</time>
      </trkpt>
      <trkpt lat="47.43842" lon="6.69634">
        <ele>441</ele>
        <time>2015-06-28T08:39:48.000Z</time>
      </trkpt>
      <trkpt lat="47.4384" lon="6.69633">
        <ele>441</ele>
        <time>2015-06-28T08:39:49.000Z</time>
      </trkpt>
      <trkpt lat="47.43837" lon="6.69633">
        <ele>441</ele>
        <time>2015-06-28T08:39:50.000Z</time>
      </trkpt>
      <trkpt lat="47.43834" lon="6.69633">
        <ele>441</ele>
        <time>2015-06-28T08:39:51.000Z</time>
      </trkpt>
      <trkpt lat="47.43831" lon="6.69633">
        <ele>437</ele>
        <time>2015-06-28T08:39:52.000Z</time>
      </trkpt>
      <trkpt lat="47.43828" lon="6.69632">
        <ele>437</ele>
        <time>2015-06-28T08:39:53.000Z</time>
      </trkpt>
      <trkpt lat="47.43826" lon="6.69629">
        <ele>437</ele>
        <time>2015-06-28T08:39:54.000Z</time>
      </trkpt>
      <trkpt lat="47.43823" lon="6.69626">
        <ele>437</ele>
        <time>2015-06-28T08:39:55.000Z</time>
      </trkpt>
      <trkpt lat="47.4382" lon="6.69621">
        <ele>437</ele>
        <time>2015-06-28T08:39:56.000Z</time>
      </trkpt>
      <trkpt lat="47.43818" lon="6.69616">
        <ele>436</ele>
        <time>2015-06-28T08:39:57.000Z</time>
      </trkpt>
      <trkpt lat="47.43816" lon="6.69611">
        <ele>436</ele>
        <time>2015-06-28T08:39:58.000Z</time>
      </trkpt>
      <trkpt lat="47.43815" lon="6.69606">
        <ele>436</ele>
        <time>2015-06-28T08:39:59.000Z</time>
      </trkpt>
      <trkpt lat="47.43814" lon="6.69601">
        <ele>436</ele>
        <time>2015-06-28T08:40:00.000Z</time>
      </trkpt>
      <trkpt lat="47.43813" lon="6.69595">
        <ele>436</ele>
        <time>2015-06-28T08:40:01.000Z</time>
      </trkpt>
      <trkpt lat="47.43811" lon="6.6959">
        <ele>435</ele>
        <time>2015-06-28T08:40:02.000Z</time>
      </trkpt>
      <trkpt lat="47.43809" lon="6.69585">
        <ele>435</ele>
        <time>2015-06-28T08:40:03.000Z</time>
      </trkpt>
      <trkpt lat="47.43807" lon="6.6958">
        <ele>432</ele>
        <time>2015-06-28T08:40:04.000Z</time>
      </trkpt>
      <trkpt lat="47.43804" lon="6.69574">
        <ele>431</ele>
        <time>2015-06-28T08:40:05.000Z</time>
      </trkpt>
      <trkpt lat="47.43801" lon="6.69569">
        <ele>431</ele>
        <time>2015-06-28T08:40:06.000Z</time>
      </trkpt>
      <trkpt lat="47.43797" lon="6.69565">
        <ele>431</ele>
        <time>2015-06-28T08:40:07.000Z</time>
      </trkpt>
      <trkpt lat="47.43792" lon="6.69563">
        <ele>431</ele>
        <time>2015-06-28T08:40:08.000Z</time>
      </trkpt>
      <trkpt lat="47.43786" lon="6.6956">
        <ele>430</ele>
        <time>2015-06-28T08:40:09.000Z</time>
      </trkpt>
      <trkpt lat="47.43782" lon="6.69558">
        <ele>430</ele>
        <time>2015-06-28T08:40:10.000Z</time>
      </trkpt>
      <trkpt lat="47.43778" lon="6.69555">
        <ele>430</ele>
        <time>2015-06-28T08:40:11.000Z</time>
      </trkpt>
      <trkpt lat="47.43775" lon="6.69551">
        <ele>430</ele>
        <time>2015-06-28T08:40:12.000Z</time>
      </trkpt>
      <trkpt lat="47.43773" lon="6.69549">
        <ele>430</ele>
        <time>2015-06-28T08:40:12.998Z</time>
      </trkpt>
      <trkpt lat="47.4377" lon="6.69542">
        <ele>429</ele>
        <time>2015-06-28T08:40:14.000Z</time>
      </trkpt>
      <trkpt lat="47.43766" lon="6.69537">
        <ele>429</ele>
        <time>2015-06-28T08:40:15.000Z</time>
      </trkpt>
      <trkpt lat="47.43762" lon="6.69533">
        <ele>428</ele>
        <time>2015-06-28T08:40:16.000Z</time>
      </trkpt>
      <trkpt lat="47.43758" lon="6.69528">
        <ele>428</ele>
        <time>2015-06-28T08:40:17.000Z</time>
      </trkpt>
      <trkpt lat="47.43752" lon="6.69524">
        <ele>427</ele>
        <time>2015-06-28T08:40:18.000Z</time>
      </trkpt>
      <trkpt lat="47.43747" lon="6.69521">
        <ele>425</ele>
        <time>2015-06-28T08:40:19.000Z</time>
      </trkpt>
      <trkpt lat="47.43743" lon="6.69518">
        <ele>425</ele>
        <time>2015-06-28T08:40:20.000Z</time>
      </trkpt>
      <trkpt lat="47.43739" lon="6.69515">
        <ele>424</ele>
        <time>2015-06-28T08:40:21.000Z</time>
      </trkpt>
      <trkpt lat="47.43736" lon="6.69513">
        <ele>424</ele>
        <time>2015-06-28T08:40:22.000Z</time>
      </trkpt>
      <trkpt lat="47.43733" lon="6.6951">
        <ele>424</ele>
        <time>2015-06-28T08:40:23.000Z</time>
      </trkpt>
      <trkpt lat="47.4373" lon="6.69507">
        <ele>424</ele>
        <time>2015-06-28T08:40:24.000Z</time>
      </trkpt>
      <trkpt lat="47.43726" lon="6.69504">
        <ele>424</ele>
        <time>2015-06-28T08:40:25.000Z</time>
      </trkpt>
      <trkpt lat="47.43722" lon="6.69501">
        <ele>424</ele>
        <time>2015-06-28T08:40:26.000Z</time>
      </trkpt>
      <trkpt lat="47.43717" lon="6.69499">
        <ele>421</ele>
        <time>2015-06-28T08:40:27.000Z</time>
      </trkpt>
      <trkpt lat="47.43714" lon="6.69496">
        <ele>421</ele>
        <time>2015-06-28T08:40:28.000Z</time>
      </trkpt>
      <trkpt lat="47.43711" lon="6.69493">
        <ele>421</ele>
        <time>2015-06-28T08:40:29.000Z</time>
      </trkpt>
      <trkpt lat="47.43708" lon="6.6949">
        <ele>421</ele>
        <time>2015-06-28T08:40:30.000Z</time>
      </trkpt>
      <trkpt lat="47.43705" lon="6.69486">
        <ele>421</ele>
        <time>2015-06-28T08:40:31.000Z</time>
      </trkpt>
      <trkpt lat="47.43704" lon="6.69483">
        <ele>421</ele>
        <time>2015-06-28T08:40:32.000Z</time>
      </trkpt>
      <trkpt lat="47.43702" lon="6.69479">
        <ele>421</ele>
        <time>2015-06-28T08:40:33.000Z</time>
      </trkpt>
      <trkpt lat="47.437" lon="6.69476">
        <ele>421</ele>
        <time>2015-06-28T08:40:34.000Z</time>
      </trkpt>
      <trkpt lat="47.43696" lon="6.69473">
        <ele>420</ele>
        <time>2015-06-28T08:40:35.000Z</time>
      </trkpt>
      <trkpt lat="47.43692" lon="6.69471">
        <ele>420</ele>
        <time>2015-06-28T08:40:36.000Z</time>
      </trkpt>
      <trkpt lat="47.43688" lon="6.69469">
        <ele>420</ele>
        <time>2015-06-28T08:40:37.000Z</time>
      </trkpt>
      <trkpt lat="47.43684" lon="6.69468">
        <ele>420</ele>
        <time>2015-06-28T08:40:38.000Z</time>
      </trkpt>
      <trkpt lat="47.43681" lon="6.69466">
        <ele>420</ele>
        <time>2015-06-28T08:40:39.000Z</time>
      </trkpt>
      <trkpt lat="47.43677" lon="6.69464">
        <ele>420</ele>
        <time>2015-06-28T08:40:40.000Z</time>
      </trkpt>
      <trkpt lat="47.43672" lon="6.69462">
        <ele>420</ele>
        <time>2015-06-28T08:40:41.000Z</time>
      </trkpt>
      <trkpt lat="47.43666" lon="6.6946">
        <ele>418</ele>
        <time>2015-06-28T08:40:42.000Z</time>
      </trkpt>
      <trkpt lat="47.4366" lon="6.69457">
        <ele>418</ele>
        <time>2015-06-28T08:40:43.000Z</time>
      </trkpt>
      <trkpt lat="47.43655" lon="6.69453">
        <ele>418</ele>
        <time>2015-06-28T08:40:44.000Z</time>
      </trkpt>
      <trkpt lat="47.4365" lon="6.6945">
        <ele>417</ele>
        <time>2015-06-28T08:40:45.000Z</time>
      </trkpt>
      <trkpt lat="47.43645" lon="6.69447">
        <ele>417</ele>
        <time>2015-06-28T08:40:46.000Z</time>
      </trkpt>
      <trkpt lat="47.4364" lon="6.69444">
        <ele>417</ele>
        <time>2015-06-28T08:40:47.000Z</time>
      </trkpt>
      <trkpt lat="47.43615" lon="6.69442">
        <ele>416</ele>
        <time>2015-06-28T08:40:48.000Z</time>
      </trkpt>
      <trkpt lat="47.43609" lon="6.69439">
        <ele>416</ele>
        <time>2015-06-28T08:40:49.000Z</time>
      </trkpt>
      <trkpt lat="47.43598" lon="6.69432">
        <ele>415</ele>
        <time>2015-06-28T08:40:50.000Z</time>
      </trkpt>
      <trkpt lat="47.43586" lon="6.6943">
        <ele>414</ele>
        <time>2015-06-28T08:40:51.000Z</time>
      </trkpt>
      <trkpt lat="47.43576" lon="6.69427">
        <ele>412</ele>
        <time>2015-06-28T08:40:52.000Z</time>
      </trkpt>
      <trkpt lat="47.43569" lon="6.69426">
        <ele>412</ele>
        <time>2015-06-28T08:40:53.000Z</time>
      </trkpt>
      <trkpt lat="47.43564" lon="6.69424">
        <ele>412</ele>
        <time>2015-06-28T08:40:54.000Z</time>
      </trkpt>
      <trkpt lat="47.43559" lon="6.69423">
        <ele>412</ele>
        <time>2015-06-28T08:40:55.000Z</time>
      </trkpt>
      <trkpt lat="47.43555" lon="6.69421">
        <ele>412</ele>
        <time>2015-06-28T08:40:56.000Z</time>
      </trkpt>
      <trkpt lat="47.43552" lon="6.69419">
        <ele>412</ele>
        <time>2015-06-28T08:40:57.000Z</time>
      </trkpt>
      <trkpt lat="47.43549" lon="6.6942">
        <ele>412</ele>
        <time>2015-06-28T08:40:59.000Z</time>
      </trkpt>
      <trkpt lat="47.43547" lon="6.69421">
        <ele>412</ele>
        <time>2015-06-28T08:41:00.000Z</time>
      </trkpt>
      <trkpt lat="47.43543" lon="6.6942">
        <ele>412</ele>
        <time>2015-06-28T08:41:02.000Z</time>
      </trkpt>
      <trkpt lat="47.43542" lon="6.6942">
        <ele>412</ele>
        <time>2015-06-28T08:41:03.000Z</time>
      </trkpt>
      <trkpt lat="47.43539" lon="6.69421">
        <ele>412</ele>
        <time>2015-06-28T08:41:06.000Z</time>
      </trkpt>
      <trkpt lat="47.43538" lon="6.69421">
        <ele>412</ele>
        <time>2015-06-28T08:41:07.000Z</time>
      </trkpt>
      <trkpt lat="47.43533" lon="6.69422">
        <ele>412</ele>
        <time>2015-06-28T08:41:10.000Z</time>
      </trkpt>
      <trkpt lat="47.43532" lon="6.69423">
        <ele>412</ele>
        <time>2015-06-28T08:41:11.000Z</time>
      </trkpt>
      <trkpt lat="47.43529" lon="6.69424">
        <ele>412</ele>
        <time>2015-06-28T08:41:15.000Z</time>
      </trkpt>
      <trkpt lat="47.43528" lon="6.69424">
        <ele>411</ele>
        <time>2015-06-28T08:41:16.000Z</time>
      </trkpt>
      <trkpt lat="47.43526" lon="6.69419">
        <ele>411</ele>
        <time>2015-06-28T08:41:23.000Z</time>
      </trkpt>
      <trkpt lat="47.43525" lon="6.69418">
        <ele>411</ele>
        <time>2015-06-28T08:41:24.000Z</time>
      </trkpt>
      <trkpt lat="47.43522" lon="6.69414">
        <ele>408</ele>
        <time>2015-06-28T08:41:26.000Z</time>
      </trkpt>
      <trkpt lat="47.4352" lon="6.69412">
        <ele>408</ele>
        <time>2015-06-28T08:41:27.000Z</time>
      </trkpt>
      <trkpt lat="47.43517" lon="6.69409">
        <ele>408</ele>
        <time>2015-06-28T08:41:28.000Z</time>
      </trkpt>
      <trkpt lat="47.43512" lon="6.69407">
        <ele>408</ele>
        <time>2015-06-28T08:41:29.000Z</time>
      </trkpt>
      <trkpt lat="47.43508" lon="6.69404">
        <ele>408</ele>
        <time>2015-06-28T08:41:30.000Z</time>
      </trkpt>
      <trkpt lat="47.43503" lon="6.69401">
        <ele>408</ele>
        <time>2015-06-28T08:41:31.000Z</time>
      </trkpt>
      <trkpt lat="47.43498" lon="6.69397">
        <ele>405</ele>
        <time>2015-06-28T08:41:32.000Z</time>
      </trkpt>
      <trkpt lat="47.43482" lon="6.69386">
        <ele>404</ele>
        <time>2015-06-28T08:41:33.000Z</time>
      </trkpt>
      <trkpt lat="47.43476" lon="6.69379">
        <ele>404</ele>
        <time>2015-06-28T08:41:34.000Z</time>
      </trkpt>
      <trkpt lat="47.43471" lon="6.69372">
        <ele>403</ele>
        <time>2015-06-28T08:41:35.000Z</time>
      </trkpt>
      <trkpt lat="47.43465" lon="6.69365">
        <ele>403</ele>
        <time>2015-06-28T08:41:36.000Z</time>
      </trkpt>
      <trkpt lat="47.43457" lon="6.69362">
        <ele>403</ele>
        <time>2015-06-28T08:41:37.000Z</time>
      </trkpt>
      <trkpt lat="47.43451" lon="6.69365">
        <ele>403</ele>
        <time>2015-06-28T08:41:38.000Z</time>
      </trkpt>
      <trkpt lat="47.43447" lon="6.69364">
        <ele>402</ele>
        <time>2015-06-28T08:41:39.000Z</time>
      </trkpt>
      <trkpt lat="47.43447" lon="6.69362">
        <ele>402</ele>
        <time>2015-06-28T08:41:40.000Z</time>
      </trkpt>
      <trkpt lat="47.43443" lon="6.69358">
        <ele>402</ele>
        <time>2015-06-28T08:41:43.000Z</time>
      </trkpt>
      <trkpt lat="47.43441" lon="6.69362">
        <ele>402</ele>
        <time>2015-06-28T08:41:44.000Z</time>
      </trkpt>
      <trkpt lat="47.43436" lon="6.69361">
        <ele>402</ele>
        <time>2015-06-28T08:41:47.000Z</time>
      </trkpt>
      <trkpt lat="47.43436" lon="6.6936">
        <ele>402</ele>
        <time>2015-06-28T08:41:48.000Z</time>
      </trkpt>
      <trkpt lat="47.43437" lon="6.69355">
        <ele>402</ele>
        <time>2015-06-28T08:41:56.000Z</time>
      </trkpt>
      <trkpt lat="47.43438" lon="6.69354">
        <ele>402</ele>
        <time>2015-06-28T08:41:57.000Z</time>
      </trkpt>
      <trkpt lat="47.43441" lon="6.6935">
        <ele>402</ele>
        <time>2015-06-28T08:42:04.000Z</time>
      </trkpt>
      <trkpt lat="47.43442" lon="6.69349">
        <ele>402</ele>
        <time>2015-06-28T08:42:05.000Z</time>
      </trkpt>
      <trkpt lat="47.43446" lon="6.69347">
        <ele>402</ele>
        <time>2015-06-28T08:42:08.000Z</time>
      </trkpt>
      <trkpt lat="47.43447" lon="6.69346">
        <ele>402</ele>
        <time>2015-06-28T08:42:09.000Z</time>
      </trkpt>
      <trkpt lat="47.4345" lon="6.69344">
        <ele>402</ele>
        <time>2015-06-28T08:42:11.000Z</time>
      </trkpt>
      <trkpt lat="47.43452" lon="6.69342">
        <ele>402</ele>
        <time>2015-06-28T08:42:12.000Z</time>
      </trkpt>
      <trkpt lat="47.43455" lon="6.69338">
        <ele>402</ele>
        <time>2015-06-28T08:42:14.000Z</time>
      </trkpt>
      <trkpt lat="47.43455" lon="6.69335">
        <ele>402</ele>
        <time>2015-06-28T08:42:15.000Z</time>
      </trkpt>
      <trkpt lat="47.43456" lon="6.69331">
        <ele>404</ele>
        <time>2015-06-28T08:42:16.000Z</time>
      </trkpt>
      <trkpt lat="47.43457" lon="6.69327">
        <ele>404</ele>
        <time>2015-06-28T08:42:17.000Z</time>
      </trkpt>
      <trkpt lat="47.43457" lon="6.69323">
        <ele>404</ele>
        <time>2015-06-28T08:42:18.000Z</time>
      </trkpt>
      <trkpt lat="47.43458" lon="6.6932">
        <ele>404</ele>
        <time>2015-06-28T08:42:19.000Z</time>
      </trkpt>
      <trkpt lat="47.4346" lon="6.69317">
        <ele>404</ele>
        <time>2015-06-28T08:42:20.000Z</time>
      </trkpt>
      <trkpt lat="47.43462" lon="6.69314">
        <ele>404</ele>
        <time>2015-06-28T08:42:21.000Z</time>
      </trkpt>
      <trkpt lat="47.43465" lon="6.69312">
        <ele>405</ele>
        <time>2015-06-28T08:42:23.000Z</time>
      </trkpt>
      <trkpt lat="47.43466" lon="6.69311">
        <ele>405</ele>
        <time>2015-06-28T08:42:24.000Z</time>
      </trkpt>
      <trkpt lat="47.4347" lon="6.6931">
        <ele>405</ele>
        <time>2015-06-28T08:42:27.000Z</time>
      </trkpt>
      <trkpt lat="47.43471" lon="6.69308">
        <ele>405</ele>
        <time>2015-06-28T08:42:28.000Z</time>
      </trkpt>
      <trkpt lat="47.43474" lon="6.69306">
        <ele>405</ele>
        <time>2015-06-28T08:42:30.000Z</time>
      </trkpt>
      <trkpt lat="47.43476" lon="6.69305">
        <ele>405</ele>
        <time>2015-06-28T08:42:31.000Z</time>
      </trkpt>
      <trkpt lat="47.4348" lon="6.69302">
        <ele>405</ele>
        <time>2015-06-28T08:42:33.000Z</time>
      </trkpt>
      <trkpt lat="47.43482" lon="6.69301">
        <ele>405</ele>
        <time>2015-06-28T08:42:34.000Z</time>
      </trkpt>
      <trkpt lat="47.43485" lon="6.69298">
        <ele>405</ele>
        <time>2015-06-28T08:42:36.000Z</time>
      </trkpt>
      <trkpt lat="47.43486" lon="6.69297">
        <ele>405</ele>
        <time>2015-06-28T08:42:37.000Z</time>
      </trkpt>
      <trkpt lat="47.4349" lon="6.69294">
        <ele>405</ele>
        <time>2015-06-28T08:42:40.000Z</time>
      </trkpt>
      <trkpt lat="47.43491" lon="6.69293">
        <ele>405</ele>
        <time>2015-06-28T08:42:41.000Z</time>
      </trkpt>
      <trkpt lat="47.43494" lon="6.69291">
        <ele>405</ele>
        <time>2015-06-28T08:42:43.000Z</time>
      </trkpt>
      <trkpt lat="47.43495" lon="6.69289">
        <ele>405</ele>
        <time>2015-06-28T08:42:44.000Z</time>
      </trkpt>
      <trkpt lat="47.43499" lon="6.69287">
        <ele>405</ele>
        <time>2015-06-28T08:42:47.000Z</time>
      </trkpt>
      <trkpt lat="47.43501" lon="6.69287">
        <ele>408</ele>
        <time>2015-06-28T08:42:48.000Z</time>
      </trkpt>
      <trkpt lat="47.43504" lon="6.69286">
        <ele>408</ele>
        <time>2015-06-28T08:42:50.998Z</time>
      </trkpt>
      <trkpt lat="47.43506" lon="6.69284">
        <ele>408</ele>
        <time>2015-06-28T08:42:52.000Z</time>
      </trkpt>
      <trkpt lat="47.43508" lon="6.6928">
        <ele>407</ele>
        <time>2015-06-28T08:42:54.000Z</time>
      </trkpt>
      <trkpt lat="47.43508" lon="6.69277">
        <ele>407</ele>
        <time>2015-06-28T08:42:55.000Z</time>
      </trkpt>
      <trkpt lat="47.4351" lon="6.69272">
        <ele>407</ele>
        <time>2015-06-28T08:42:57.000Z</time>
      </trkpt>
      <trkpt lat="47.43511" lon="6.6927">
        <ele>407</ele>
        <time>2015-06-28T08:42:58.000Z</time>
      </trkpt>
      <trkpt lat="47.43513" lon="6.69266">
        <ele>407</ele>
        <time>2015-06-28T08:43:00.000Z</time>
      </trkpt>
      <trkpt lat="47.43514" lon="6.69264">
        <ele>407</ele>
        <time>2015-06-28T08:43:01.000Z</time>
      </trkpt>
      <trkpt lat="47.43517" lon="6.69261">
        <ele>407</ele>
        <time>2015-06-28T08:43:03.000Z</time>
      </trkpt>
      <trkpt lat="47.43519" lon="6.69259">
        <ele>407</ele>
        <time>2015-06-28T08:43:04.000Z</time>
      </trkpt>
      <trkpt lat="47.43521" lon="6.69257">
        <ele>407</ele>
        <time>2015-06-28T08:43:05.000Z</time>
      </trkpt>
      <trkpt lat="47.43523" lon="6.69255">
        <ele>407</ele>
        <time>2015-06-28T08:43:06.000Z</time>
      </trkpt>
      <trkpt lat="47.43526" lon="6.69251">
        <ele>408</ele>
        <time>2015-06-28T08:43:08.000Z</time>
      </trkpt>
      <trkpt lat="47.43528" lon="6.6925">
        <ele>408</ele>
        <time>2015-06-28T08:43:09.000Z</time>
      </trkpt>
      <trkpt lat="47.43531" lon="6.69246">
        <ele>408</ele>
        <time>2015-06-28T08:43:12.000Z</time>
      </trkpt>
      <trkpt lat="47.43532" lon="6.69245">
        <ele>408</ele>
        <time>2015-06-28T08:43:13.000Z</time>
      </trkpt>
      <trkpt lat="47.43534" lon="6.69243">
        <ele>409</ele>
        <time>2015-06-28T08:43:14.000Z</time>
      </trkpt>
      <trkpt lat="47.43537" lon="6.6924">
        <ele>409</ele>
        <time>2015-06-28T08:43:15.000Z</time>
      </trkpt>
      <trkpt lat="47.43539" lon="6.69237">
        <ele>409</ele>
        <time>2015-06-28T08:43:16.000Z</time>
      </trkpt>
      <trkpt lat="47.43542" lon="6.69235">
        <ele>409</ele>
        <time>2015-06-28T08:43:17.000Z</time>
      </trkpt>
      <trkpt lat="47.43545" lon="6.69233">
        <ele>409</ele>
        <time>2015-06-28T08:43:18.000Z</time>
      </trkpt>
      <trkpt lat="47.43548" lon="6.69232">
        <ele>410</ele>
        <time>2015-06-28T08:43:19.000Z</time>
      </trkpt>
      <trkpt lat="47.4355" lon="6.6923">
        <ele>410</ele>
        <time>2015-06-28T08:43:20.000Z</time>
      </trkpt>
      <trkpt lat="47.43553" lon="6.69229">
        <ele>410</ele>
        <time>2015-06-28T08:43:21.000Z</time>
      </trkpt>
      <trkpt lat="47.43555" lon="6.69227">
        <ele>410</ele>
        <time>2015-06-28T08:43:22.000Z</time>
      </trkpt>
      <trkpt lat="47.43557" lon="6.69225">
        <ele>410</ele>
        <time>2015-06-28T08:43:23.000Z</time>
      </trkpt>
      <trkpt lat="47.4356" lon="6.69223">
        <ele>410</ele>
        <time>2015-06-28T08:43:24.000Z</time>
      </trkpt>
      <trkpt lat="47.43562" lon="6.69222">
        <ele>410</ele>
        <time>2015-06-28T08:43:25.000Z</time>
      </trkpt>
      <trkpt lat="47.43564" lon="6.6922">
        <ele>410</ele>
        <time>2015-06-28T08:43:26.000Z</time>
      </trkpt>
      <trkpt lat="47.43566" lon="6.69218">
        <ele>410</ele>
        <time>2015-06-28T08:43:27.000Z</time>
      </trkpt>
      <trkpt lat="47.4357" lon="6.69216">
        <ele>410</ele>
        <time>2015-06-28T08:43:29.000Z</time>
      </trkpt>
      <trkpt lat="47.43572" lon="6.69215">
        <ele>410</ele>
        <time>2015-06-28T08:43:30.000Z</time>
      </trkpt>
      <trkpt lat="47.43575" lon="6.69214">
        <ele>410</ele>
        <time>2015-06-28T08:43:32.000Z</time>
      </trkpt>
      <trkpt lat="47.43577" lon="6.69213">
        <ele>410</ele>
        <time>2015-06-28T08:43:33.000Z</time>
      </trkpt>
      <trkpt lat="47.4358" lon="6.69212">
        <ele>410</ele>
        <time>2015-06-28T08:43:35.000Z</time>
      </trkpt>
      <trkpt lat="47.43582" lon="6.6921">
        <ele>410</ele>
        <time>2015-06-28T08:43:36.000Z</time>
      </trkpt>
      <trkpt lat="47.43584" lon="6.69208">
        <ele>413</ele>
        <time>2015-06-28T08:43:37.000Z</time>
      </trkpt>
      <trkpt lat="47.43586" lon="6.69206">
        <ele>413</ele>
        <time>2015-06-28T08:43:38.000Z</time>
      </trkpt>
      <trkpt lat="47.43589" lon="6.69204">
        <ele>413</ele>
        <time>2015-06-28T08:43:39.000Z</time>
      </trkpt>
      <trkpt lat="47.43591" lon="6.69201">
        <ele>413</ele>
        <time>2015-06-28T08:43:40.000Z</time>
      </trkpt>
      <trkpt lat="47.43594" lon="6.69199">
        <ele>413</ele>
        <time>2015-06-28T08:43:41.000Z</time>
      </trkpt>
      <trkpt lat="47.43596" lon="6.69197">
        <ele>413</ele>
        <time>2015-06-28T08:43:42.000Z</time>
      </trkpt>
      <trkpt lat="47.43599" lon="6.69195">
        <ele>413</ele>
        <time>2015-06-28T08:43:43.000Z</time>
      </trkpt>
      <trkpt lat="47.43601" lon="6.69193">
        <ele>413</ele>
        <time>2015-06-28T08:43:44.000Z</time>
      </trkpt>
      <trkpt lat="47.43603" lon="6.69191">
        <ele>413</ele>
        <time>2015-06-28T08:43:45.000Z</time>
      </trkpt>
      <trkpt lat="47.43605" lon="6.69189">
        <ele>413</ele>
        <time>2015-06-28T08:43:46.000Z</time>
      </trkpt>
      <trkpt lat="47.43607" lon="6.69187">
        <ele>413</ele>
        <time>2015-06-28T08:43:47.000Z</time>
      </trkpt>
      <trkpt lat="47.43609" lon="6.69184">
        <ele>413</ele>
        <time>2015-06-28T08:43:48.000Z</time>
      </trkpt>
      <trkpt lat="47.43611" lon="6.69182">
        <ele>413</ele>
        <time>2015-06-28T08:43:49.000Z</time>
      </trkpt>
      <trkpt lat="47.43612" lon="6.69179">
        <ele>413</ele>
        <time>2015-06-28T08:43:50.000Z</time>
      </trkpt>
      <trkpt lat="47.43614" lon="6.69176">
        <ele>413</ele>
        <time>2015-06-28T08:43:51.000Z</time>
      </trkpt>
      <trkpt lat="47.43615" lon="6.69174">
        <ele>413</ele>
        <time>2015-06-28T08:43:52.000Z</time>
      </trkpt>
      <trkpt lat="47.43617" lon="6.69172">
        <ele>413</ele>
        <time>2015-06-28T08:43:53.000Z</time>
      </trkpt>
      <trkpt lat="47.43618" lon="6.69169">
        <ele>413</ele>
        <time>2015-06-28T08:43:54.000Z</time>
      </trkpt>
      <trkpt lat="47.4362" lon="6.69167">
        <ele>413</ele>
        <time>2015-06-28T08:43:55.000Z</time>
      </trkpt>
      <trkpt lat="47.43622" lon="6.69164">
        <ele>413</ele>
        <time>2015-06-28T08:43:56.000Z</time>
      </trkpt>
      <trkpt lat="47.43624" lon="6.69162">
        <ele>413</ele>
        <time>2015-06-28T08:43:57.000Z</time>
      </trkpt>
      <trkpt lat="47.43626" lon="6.6916">
        <ele>413</ele>
        <time>2015-06-28T08:43:58.000Z</time>
      </trkpt>
      <trkpt lat="47.43628" lon="6.69157">
        <ele>413</ele>
        <time>2015-06-28T08:43:59.000Z</time>
      </trkpt>
      <trkpt lat="47.43631" lon="6.69154">
        <ele>413</ele>
        <time>2015-06-28T08:44:00.000Z</time>
      </trkpt>
      <trkpt lat="47.43634" lon="6.69151">
        <ele>413</ele>
        <time>2015-06-28T08:44:01.000Z</time>
      </trkpt>
      <trkpt lat="47.43638" lon="6.69148">
        <ele>413</ele>
        <time>2015-06-28T08:44:02.000Z</time>
      </trkpt>
      <trkpt lat="47.43641" lon="6.69145">
        <ele>413</ele>
        <time>2015-06-28T08:44:03.000Z</time>
      </trkpt>
      <trkpt lat="47.43644" lon="6.69142">
        <ele>413</ele>
        <time>2015-06-28T08:44:04.000Z</time>
      </trkpt>
      <trkpt lat="47.43646" lon="6.69139">
        <ele>413</ele>
        <time>2015-06-28T08:44:05.000Z</time>
      </trkpt>
      <trkpt lat="47.43648" lon="6.69136">
        <ele>413</ele>
        <time>2015-06-28T08:44:06.000Z</time>
      </trkpt>
      <trkpt lat="47.4365" lon="6.69134">
        <ele>413</ele>
        <time>2015-06-28T08:44:07.000Z</time>
      </trkpt>
      <trkpt lat="47.43651" lon="6.69131">
        <ele>413</ele>
        <time>2015-06-28T08:44:08.000Z</time>
      </trkpt>
      <trkpt lat="47.43653" lon="6.69129">
        <ele>413</ele>
        <time>2015-06-28T08:44:09.000Z</time>
      </trkpt>
      <trkpt lat="47.43655" lon="6.69126">
        <ele>414</ele>
        <time>2015-06-28T08:44:10.000Z</time>
      </trkpt>
      <trkpt lat="47.43656" lon="6.69124">
        <ele>414</ele>
        <time>2015-06-28T08:44:11.000Z</time>
      </trkpt>
      <trkpt lat="47.43658" lon="6.69122">
        <ele>414</ele>
        <time>2015-06-28T08:44:12.000Z</time>
      </trkpt>
      <trkpt lat="47.4366" lon="6.69119">
        <ele>414</ele>
        <time>2015-06-28T08:44:13.000Z</time>
      </trkpt>
      <trkpt lat="47.43662" lon="6.69117">
        <ele>414</ele>
        <time>2015-06-28T08:44:14.000Z</time>
      </trkpt>
      <trkpt lat="47.43665" lon="6.69114">
        <ele>414</ele>
        <time>2015-06-28T08:44:15.000Z</time>
      </trkpt>
      <trkpt lat="47.43668" lon="6.69111">
        <ele>416</ele>
        <time>2015-06-28T08:44:16.000Z</time>
      </trkpt>
      <trkpt lat="47.4367" lon="6.69108">
        <ele>416</ele>
        <time>2015-06-28T08:44:17.000Z</time>
      </trkpt>
      <trkpt lat="47.43673" lon="6.69105">
        <ele>416</ele>
        <time>2015-06-28T08:44:18.000Z</time>
      </trkpt>
      <trkpt lat="47.43676" lon="6.69102">
        <ele>416</ele>
        <time>2015-06-28T08:44:19.000Z</time>
      </trkpt>
      <trkpt lat="47.43679" lon="6.69099">
        <ele>416</ele>
        <time>2015-06-28T08:44:20.000Z</time>
      </trkpt>
      <trkpt lat="47.43683" lon="6.69097">
        <ele>416</ele>
        <time>2015-06-28T08:44:21.000Z</time>
      </trkpt>
      <trkpt lat="47.43686" lon="6.69095">
        <ele>416</ele>
        <time>2015-06-28T08:44:22.000Z</time>
      </trkpt>
      <trkpt lat="47.43689" lon="6.69093">
        <ele>416</ele>
        <time>2015-06-28T08:44:23.000Z</time>
      </trkpt>
      <trkpt lat="47.43691" lon="6.69092">
        <ele>417</ele>
        <time>2015-06-28T08:44:24.000Z</time>
      </trkpt>
      <trkpt lat="47.43694" lon="6.69088">
        <ele>417</ele>
        <time>2015-06-28T08:44:27.000Z</time>
      </trkpt>
      <trkpt lat="47.43695" lon="6.69087">
        <ele>417</ele>
        <time>2015-06-28T08:44:28.000Z</time>
      </trkpt>
      <trkpt lat="47.43698" lon="6.69084">
        <ele>417</ele>
        <time>2015-06-28T08:44:30.000Z</time>
      </trkpt>
      <trkpt lat="47.437" lon="6.69083">
        <ele>419</ele>
        <time>2015-06-28T08:44:31.000Z</time>
      </trkpt>
      <trkpt lat="47.43702" lon="6.69082">
        <ele>419</ele>
        <time>2015-06-28T08:44:32.000Z</time>
      </trkpt>
      <trkpt lat="47.43705" lon="6.6908">
        <ele>419</ele>
        <time>2015-06-28T08:44:33.000Z</time>
      </trkpt>
      <trkpt lat="47.43708" lon="6.69079">
        <ele>420</ele>
        <time>2015-06-28T08:44:34.000Z</time>
      </trkpt>
      <trkpt lat="47.4371" lon="6.69078">
        <ele>420</ele>
        <time>2015-06-28T08:44:35.000Z</time>
      </trkpt>
      <trkpt lat="47.43713" lon="6.69077">
        <ele>420</ele>
        <time>2015-06-28T08:44:36.000Z</time>
      </trkpt>
      <trkpt lat="47.43715" lon="6.69076">
        <ele>420</ele>
        <time>2015-06-28T08:44:37.000Z</time>
      </trkpt>
      <trkpt lat="47.43719" lon="6.69075">
        <ele>421</ele>
        <time>2015-06-28T08:44:39.000Z</time>
      </trkpt>
      <trkpt lat="47.4372" lon="6.69075">
        <ele>421</ele>
        <time>2015-06-28T08:44:40.000Z</time>
      </trkpt>
      <trkpt lat="47.43723" lon="6.69074">
        <ele>421</ele>
        <time>2015-06-28T08:44:43.000Z</time>
      </trkpt>
      <trkpt lat="47.43725" lon="6.69073">
        <ele>421</ele>
        <time>2015-06-28T08:44:44.000Z</time>
      </trkpt>
      <trkpt lat="47.43729" lon="6.69072">
        <ele>421</ele>
        <time>2015-06-28T08:44:46.000Z</time>
      </trkpt>
      <trkpt lat="47.43731" lon="6.69072">
        <ele>422</ele>
        <time>2015-06-28T08:44:47.000Z</time>
      </trkpt>
      <trkpt lat="47.43735" lon="6.69071">
        <ele>422</ele>
        <time>2015-06-28T08:44:49.000Z</time>
      </trkpt>
      <trkpt lat="47.43737" lon="6.6907">
        <ele>422</ele>
        <time>2015-06-28T08:44:50.000Z</time>
      </trkpt>
      <trkpt lat="47.4374" lon="6.69068">
        <ele>422</ele>
        <time>2015-06-28T08:44:52.000Z</time>
      </trkpt>
      <trkpt lat="47.43742" lon="6.69067">
        <ele>422</ele>
        <time>2015-06-28T08:44:53.000Z</time>
      </trkpt>
      <trkpt lat="47.43746" lon="6.69065">
        <ele>422</ele>
        <time>2015-06-28T08:44:55.000Z</time>
      </trkpt>
      <trkpt lat="47.43748" lon="6.69064">
        <ele>422</ele>
        <time>2015-06-28T08:44:56.000Z</time>
      </trkpt>
      <trkpt lat="47.43752" lon="6.69062">
        <ele>426</ele>
        <time>2015-06-28T08:44:58.000Z</time>
      </trkpt>
      <trkpt lat="47.43754" lon="6.6906">
        <ele>426</ele>
        <time>2015-06-28T08:44:59.000Z</time>
      </trkpt>
      <trkpt lat="47.43757" lon="6.69057">
        <ele>426</ele>
        <time>2015-06-28T08:45:01.000Z</time>
      </trkpt>
      <trkpt lat="47.43759" lon="6.69055">
        <ele>427</ele>
        <time>2015-06-28T08:45:02.000Z</time>
      </trkpt>
      <trkpt lat="47.43763" lon="6.69052">
        <ele>427</ele>
        <time>2015-06-28T08:45:04.000Z</time>
      </trkpt>
      <trkpt lat="47.43765" lon="6.69051">
        <ele>427</ele>
        <time>2015-06-28T08:45:05.000Z</time>
      </trkpt>
      <trkpt lat="47.43768" lon="6.69049">
        <ele>427</ele>
        <time>2015-06-28T08:45:06.000Z</time>
      </trkpt>
      <trkpt lat="47.4377" lon="6.69048">
        <ele>427</ele>
        <time>2015-06-28T08:45:07.000Z</time>
      </trkpt>
      <trkpt lat="47.43773" lon="6.69046">
        <ele>427</ele>
        <time>2015-06-28T08:45:08.000Z</time>
      </trkpt>
      <trkpt lat="47.43775" lon="6.69044">
        <ele>427</ele>
        <time>2015-06-28T08:45:09.000Z</time>
      </trkpt>
      <trkpt lat="47.43778" lon="6.69043">
        <ele>427</ele>
        <time>2015-06-28T08:45:10.000Z</time>
      </trkpt>
      <trkpt lat="47.43781" lon="6.69041">
        <ele>427</ele>
        <time>2015-06-28T08:45:11.000Z</time>
      </trkpt>
      <trkpt lat="47.43783" lon="6.6904">
        <ele>428</ele>
        <time>2015-06-28T08:45:12.000Z</time>
      </trkpt>
      <trkpt lat="47.43786" lon="6.69039">
        <ele>428</ele>
        <time>2015-06-28T08:45:13.000Z</time>
      </trkpt>
      <trkpt lat="47.43788" lon="6.69037">
        <ele>428</ele>
        <time>2015-06-28T08:45:14.000Z</time>
      </trkpt>
      <trkpt lat="47.4379" lon="6.69036">
        <ele>428</ele>
        <time>2015-06-28T08:45:15.000Z</time>
      </trkpt>
      <trkpt lat="47.43793" lon="6.69034">
        <ele>428</ele>
        <time>2015-06-28T08:45:16.000Z</time>
      </trkpt>
      <trkpt lat="47.43795" lon="6.69033">
        <ele>428</ele>
        <time>2015-06-28T08:45:17.000Z</time>
      </trkpt>
      <trkpt lat="47.43799" lon="6.6903">
        <ele>428</ele>
        <time>2015-06-28T08:45:19.000Z</time>
      </trkpt>
      <trkpt lat="47.43801" lon="6.69029">
        <ele>428</ele>
        <time>2015-06-28T08:45:20.000Z</time>
      </trkpt>
      <trkpt lat="47.43803" lon="6.69028">
        <ele>428</ele>
        <time>2015-06-28T08:45:21.000Z</time>
      </trkpt>
      <trkpt lat="47.43806" lon="6.69027">
        <ele>428</ele>
        <time>2015-06-28T08:45:22.000Z</time>
      </trkpt>
      <trkpt lat="47.43808" lon="6.69027">
        <ele>428</ele>
        <time>2015-06-28T08:45:23.000Z</time>
      </trkpt>
      <trkpt lat="47.4381" lon="6.69026">
        <ele>428</ele>
        <time>2015-06-28T08:45:24.000Z</time>
      </trkpt>
      <trkpt lat="47.43812" lon="6.69026">
        <ele>429</ele>
        <time>2015-06-28T08:45:25.000Z</time>
      </trkpt>
      <trkpt lat="47.43815" lon="6.69025">
        <ele>429</ele>
        <time>2015-06-28T08:45:26.000Z</time>
      </trkpt>
      <trkpt lat="47.43817" lon="6.69025">
        <ele>429</ele>
        <time>2015-06-28T08:45:27.000Z</time>
      </trkpt>
      <trkpt lat="47.43819" lon="6.69024">
        <ele>429</ele>
        <time>2015-06-28T08:45:28.000Z</time>
      </trkpt>
      <trkpt lat="47.43821" lon="6.69023">
        <ele>429</ele>
        <time>2015-06-28T08:45:29.000Z</time>
      </trkpt>
      <trkpt lat="47.43824" lon="6.69022">
        <ele>429</ele>
        <time>2015-06-28T08:45:30.000Z</time>
      </trkpt>
      <trkpt lat="47.43826" lon="6.6902">
        <ele>429</ele>
        <time>2015-06-28T08:45:31.000Z</time>
      </trkpt>
      <trkpt lat="47.43828" lon="6.69019">
        <ele>429</ele>
        <time>2015-06-28T08:45:32.000Z</time>
      </trkpt>
      <trkpt lat="47.43831" lon="6.69017">
        <ele>429</ele>
        <time>2015-06-28T08:45:34.000Z</time>
      </trkpt>
      <trkpt lat="47.43833" lon="6.69016">
        <ele>429</ele>
        <time>2015-06-28T08:45:35.000Z</time>
      </trkpt>
      <trkpt lat="47.43836" lon="6.69016">
        <ele>432</ele>
        <time>2015-06-28T08:45:37.000Z</time>
      </trkpt>
      <trkpt lat="47.43838" lon="6.69015">
        <ele>432</ele>
        <time>2015-06-28T08:45:38.000Z</time>
      </trkpt>
      <trkpt lat="47.43841" lon="6.69014">
        <ele>432</ele>
        <time>2015-06-28T08:45:40.000Z</time>
      </trkpt>
      <trkpt lat="47.43843" lon="6.69014">
        <ele>433</ele>
        <time>2015-06-28T08:45:41.000Z</time>
      </trkpt>
      <trkpt lat="47.43846" lon="6.69015">
        <ele>433</ele>
        <time>2015-06-28T08:45:43.000Z</time>
      </trkpt>
      <trkpt lat="47.43847" lon="6.69015">
        <ele>433</ele>
        <time>2015-06-28T08:45:44.000Z</time>
      </trkpt>
      <trkpt lat="47.43851" lon="6.69019">
        <ele>434</ele>
        <time>2015-06-28T08:45:47.000Z</time>
      </trkpt>
      <trkpt lat="47.43851" lon="6.69021">
        <ele>434</ele>
        <time>2015-06-28T08:45:48.000Z</time>
      </trkpt>
      <trkpt lat="47.4385" lon="6.69026">
        <ele>434</ele>
        <time>2015-06-28T08:45:50.000Z</time>
      </trkpt>
      <trkpt lat="47.4385" lon="6.69028">
        <ele>434</ele>
        <time>2015-06-28T08:45:51.000Z</time>
      </trkpt>
      <trkpt lat="47.43853" lon="6.69032">
        <ele>435</ele>
        <time>2015-06-28T08:45:54.000Z</time>
      </trkpt>
      <trkpt lat="47.43855" lon="6.69032">
        <ele>435</ele>
        <time>2015-06-28T08:45:55.000Z</time>
      </trkpt>
      <trkpt lat="47.43858" lon="6.69033">
        <ele>435</ele>
        <time>2015-06-28T08:45:57.000Z</time>
      </trkpt>
      <trkpt lat="47.4386" lon="6.69034">
        <ele>435</ele>
        <time>2015-06-28T08:45:58.000Z</time>
      </trkpt>
      <trkpt lat="47.43863" lon="6.69035">
        <ele>435</ele>
        <time>2015-06-28T08:46:00.000Z</time>
      </trkpt>
      <trkpt lat="47.43865" lon="6.69036">
        <ele>436</ele>
        <time>2015-06-28T08:46:01.000Z</time>
      </trkpt>
      <trkpt lat="47.43868" lon="6.69038">
        <ele>436</ele>
        <time>2015-06-28T08:46:03.000Z</time>
      </trkpt>
      <trkpt lat="47.43869" lon="6.69039">
        <ele>436</ele>
        <time>2015-06-28T08:46:04.000Z</time>
      </trkpt>
      <trkpt lat="47.43872" lon="6.69043">
        <ele>436</ele>
        <time>2015-06-28T08:46:06.000Z</time>
      </trkpt>
      <trkpt lat="47.43873" lon="6.69046">
        <ele>436</ele>
        <time>2015-06-28T08:46:07.000Z</time>
      </trkpt>
      <trkpt lat="47.43874" lon="6.69048">
        <ele>436</ele>
        <time>2015-06-28T08:46:08.000Z</time>
      </trkpt>
      <trkpt lat="47.43876" lon="6.69051">
        <ele>436</ele>
        <time>2015-06-28T08:46:09.000Z</time>
      </trkpt>
      <trkpt lat="47.43878" lon="6.69055">
        <ele>437</ele>
        <time>2015-06-28T08:46:11.000Z</time>
      </trkpt>
      <trkpt lat="47.4388" lon="6.69056">
        <ele>437</ele>
        <time>2015-06-28T08:46:12.000Z</time>
      </trkpt>
      <trkpt lat="47.43883" lon="6.6906">
        <ele>437</ele>
        <time>2015-06-28T08:46:18.000Z</time>
      </trkpt>
      <trkpt lat="47.43884" lon="6.69061">
        <ele>437</ele>
        <time>2015-06-28T08:46:19.000Z</time>
      </trkpt>
      <trkpt lat="47.43888" lon="6.69064">
        <ele>437</ele>
        <time>2015-06-28T08:46:23.000Z</time>
      </trkpt>
      <trkpt lat="47.43888" lon="6.69065">
        <ele>437</ele>
        <time>2015-06-28T08:46:24.000Z</time>
      </trkpt>
      <trkpt lat="47.43891" lon="6.6907">
        <ele>437</ele>
        <time>2015-06-28T08:46:28.000Z</time>
      </trkpt>
      <trkpt lat="47.43891" lon="6.69071">
        <ele>437</ele>
        <time>2015-06-28T08:46:29.000Z</time>
      </trkpt>
      <trkpt lat="47.43895" lon="6.69074">
        <ele>438</ele>
        <time>2015-06-28T08:46:33.000Z</time>
      </trkpt>
      <trkpt lat="47.43896" lon="6.69075">
        <ele>438</ele>
        <time>2015-06-28T08:46:34.000Z</time>
      </trkpt>
      <trkpt lat="47.439" lon="6.69078">
        <ele>438</ele>
        <time>2015-06-28T08:46:37.000Z</time>
      </trkpt>
      <trkpt lat="47.439" lon="6.69079">
        <ele>438</ele>
        <time>2015-06-28T08:46:38.000Z</time>
      </trkpt>
      <trkpt lat="47.43902" lon="6.69083">
        <ele>438</ele>
        <time>2015-06-28T08:46:40.000Z</time>
      </trkpt>
      <trkpt lat="47.43903" lon="6.69085">
        <ele>440</ele>
        <time>2015-06-28T08:46:41.000Z</time>
      </trkpt>
      <trkpt lat="47.43904" lon="6.69091">
        <ele>440</ele>
        <time>2015-06-28T08:46:44.000Z</time>
      </trkpt>
      <trkpt lat="47.43904" lon="6.69093">
        <ele>440</ele>
        <time>2015-06-28T08:46:45.000Z</time>
      </trkpt>
      <trkpt lat="47.43903" lon="6.69099">
        <ele>440</ele>
        <time>2015-06-28T08:46:49.000Z</time>
      </trkpt>
      <trkpt lat="47.43903" lon="6.691">
        <ele>440</ele>
        <time>2015-06-28T08:46:50.000Z</time>
      </trkpt>
      <trkpt lat="47.43902" lon="6.69106">
        <ele>440</ele>
        <time>2015-06-28T08:46:54.000Z</time>
      </trkpt>
      <trkpt lat="47.43903" lon="6.69107">
        <ele>440</ele>
        <time>2015-06-28T08:46:55.000Z</time>
      </trkpt>
      <trkpt lat="47.43905" lon="6.69113">
        <ele>441</ele>
        <time>2015-06-28T08:46:58.000Z</time>
      </trkpt>
      <trkpt lat="47.43906" lon="6.69115">
        <ele>441</ele>
        <time>2015-06-28T08:46:59.000Z</time>
      </trkpt>
      <trkpt lat="47.43908" lon="6.69119">
        <ele>441</ele>
        <time>2015-06-28T08:47:01.000Z</time>
      </trkpt>
      <trkpt lat="47.4391" lon="6.6912">
        <ele>441</ele>
        <time>2015-06-28T08:47:02.000Z</time>
      </trkpt>
      <trkpt lat="47.43913" lon="6.69124">
        <ele>441</ele>
        <time>2015-06-28T08:47:04.000Z</time>
      </trkpt>
      <trkpt lat="47.43915" lon="6.69126">
        <ele>442</ele>
        <time>2015-06-28T08:47:05.000Z</time>
      </trkpt>
      <trkpt lat="47.43917" lon="6.69127">
        <ele>447</ele>
        <time>2015-06-28T08:47:06.000Z</time>
      </trkpt>
      <trkpt lat="47.4392" lon="6.69128">
        <ele>447</ele>
        <time>2015-06-28T08:47:07.000Z</time>
      </trkpt>
      <trkpt lat="47.43922" lon="6.69129">
        <ele>447</ele>
        <time>2015-06-28T08:47:08.000Z</time>
      </trkpt>
      <trkpt lat="47.43924" lon="6.69129">
        <ele>447</ele>
        <time>2015-06-28T08:47:09.000Z</time>
      </trkpt>
      <trkpt lat="47.43926" lon="6.6913">
        <ele>447</ele>
        <time>2015-06-28T08:47:10.000Z</time>
      </trkpt>
      <trkpt lat="47.43929" lon="6.6913">
        <ele>447</ele>
        <time>2015-06-28T08:47:11.000Z</time>
      </trkpt>
      <trkpt lat="47.43931" lon="6.6913">
        <ele>447</ele>
        <time>2015-06-28T08:47:12.000Z</time>
      </trkpt>
      <trkpt lat="47.43934" lon="6.6913">
        <ele>447</ele>
        <time>2015-06-28T08:47:13.000Z</time>
      </trkpt>
      <trkpt lat="47.43936" lon="6.6913">
        <ele>447</ele>
        <time>2015-06-28T08:47:14.000Z</time>
      </trkpt>
      <trkpt lat="47.43938" lon="6.6913">
        <ele>448</ele>
        <time>2015-06-28T08:47:15.000Z</time>
      </trkpt>
      <trkpt lat="47.43942" lon="6.6913">
        <ele>448</ele>
        <time>2015-06-28T08:47:17.000Z</time>
      </trkpt>
      <trkpt lat="47.43944" lon="6.6913">
        <ele>448</ele>
        <time>2015-06-28T08:47:18.000Z</time>
      </trkpt>
      <trkpt lat="47.43947" lon="6.69128">
        <ele>448</ele>
        <time>2015-06-28T08:47:20.000Z</time>
      </trkpt>
      <trkpt lat="47.43949" lon="6.69127">
        <ele>448</ele>
        <time>2015-06-28T08:47:21.000Z</time>
      </trkpt>
      <trkpt lat="47.43952" lon="6.69126">
        <ele>448</ele>
        <time>2015-06-28T08:47:22.000Z</time>
      </trkpt>
      <trkpt lat="47.43955" lon="6.69125">
        <ele>448</ele>
        <time>2015-06-28T08:47:23.000Z</time>
      </trkpt>
      <trkpt lat="47.43958" lon="6.69123">
        <ele>448</ele>
        <time>2015-06-28T08:47:24.000Z</time>
      </trkpt>
      <trkpt lat="47.4396" lon="6.69121">
        <ele>449</ele>
        <time>2015-06-28T08:47:25.000Z</time>
      </trkpt>
      <trkpt lat="47.43962" lon="6.69119">
        <ele>449</ele>
        <time>2015-06-28T08:47:26.000Z</time>
      </trkpt>
      <trkpt lat="47.43964" lon="6.69118">
        <ele>449</ele>
        <time>2015-06-28T08:47:27.000Z</time>
      </trkpt>
      <trkpt lat="47.43967" lon="6.69116">
        <ele>449</ele>
        <time>2015-06-28T08:47:28.000Z</time>
      </trkpt>
      <trkpt lat="47.43969" lon="6.69115">
        <ele>449</ele>
        <time>2015-06-28T08:47:29.000Z</time>
      </trkpt>
      <trkpt lat="47.43973" lon="6.69113">
        <ele>449</ele>
        <time>2015-06-28T08:47:31.000Z</time>
      </trkpt>
      <trkpt lat="47.43975" lon="6.69112">
        <ele>450</ele>
        <time>2015-06-28T08:47:32.000Z</time>
      </trkpt>
      <trkpt lat="47.43978" lon="6.6911">
        <ele>450</ele>
        <time>2015-06-28T08:47:34.000Z</time>
      </trkpt>
      <trkpt lat="47.4398" lon="6.69109">
        <ele>450</ele>
        <time>2015-06-28T08:47:35.000Z</time>
      </trkpt>
      <trkpt lat="47.43983" lon="6.69104">
        <ele>450</ele>
        <time>2015-06-28T08:47:38.000Z</time>
      </trkpt>
      <trkpt lat="47.43983" lon="6.69103">
        <ele>451</ele>
        <time>2015-06-28T08:47:39.000Z</time>
      </trkpt>
      <trkpt lat="47.43986" lon="6.69099">
        <ele>451</ele>
        <time>2015-06-28T08:47:45.000Z</time>
      </trkpt>
      <trkpt lat="47.43987" lon="6.69098">
        <ele>451</ele>
        <time>2015-06-28T08:47:46.000Z</time>
      </trkpt>
      <trkpt lat="47.4399" lon="6.69093">
        <ele>452</ele>
        <time>2015-06-28T08:47:49.000Z</time>
      </trkpt>
      <trkpt lat="47.43991" lon="6.69091">
        <ele>452</ele>
        <time>2015-06-28T08:47:50.000Z</time>
      </trkpt>
      <trkpt lat="47.43993" lon="6.69087">
        <ele>453</ele>
        <time>2015-06-28T08:47:52.000Z</time>
      </trkpt>
      <trkpt lat="47.43994" lon="6.69085">
        <ele>453</ele>
        <time>2015-06-28T08:47:53.000Z</time>
      </trkpt>
      <trkpt lat="47.43996" lon="6.69082">
        <ele>454</ele>
        <time>2015-06-28T08:47:55.000Z</time>
      </trkpt>
      <trkpt lat="47.43997" lon="6.6908">
        <ele>454</ele>
        <time>2015-06-28T08:47:56.000Z</time>
      </trkpt>
      <trkpt lat="47.43999" lon="6.69076">
        <ele>453</ele>
        <time>2015-06-28T08:47:58.000Z</time>
      </trkpt>
      <trkpt lat="47.44" lon="6.69074">
        <ele>456</ele>
        <time>2015-06-28T08:47:59.000Z</time>
      </trkpt>
      <trkpt lat="47.44002" lon="6.6907">
        <ele>456</ele>
        <time>2015-06-28T08:48:02.000Z</time>
      </trkpt>
      <trkpt lat="47.44002" lon="6.69068">
        <ele>456</ele>
        <time>2015-06-28T08:48:03.000Z</time>
      </trkpt>
      <trkpt lat="47.44004" lon="6.69064">
        <ele>456</ele>
        <time>2015-06-28T08:48:05.000Z</time>
      </trkpt>
      <trkpt lat="47.44005" lon="6.69062">
        <ele>456</ele>
        <time>2015-06-28T08:48:06.000Z</time>
      </trkpt>
      <trkpt lat="47.44008" lon="6.69058">
        <ele>456</ele>
        <time>2015-06-28T08:48:08.000Z</time>
      </trkpt>
      <trkpt lat="47.44009" lon="6.69057">
        <ele>456</ele>
        <time>2015-06-28T08:48:09.000Z</time>
      </trkpt>
      <trkpt lat="47.44011" lon="6.69053">
        <ele>456</ele>
        <time>2015-06-28T08:48:11.000Z</time>
      </trkpt>
      <trkpt lat="47.44012" lon="6.69051">
        <ele>456</ele>
        <time>2015-06-28T08:48:12.000Z</time>
      </trkpt>
      <trkpt lat="47.44013" lon="6.69046">
        <ele>456</ele>
        <time>2015-06-28T08:48:15.000Z</time>
      </trkpt>
      <trkpt lat="47.44014" lon="6.69043">
        <ele>456</ele>
        <time>2015-06-28T08:48:16.000Z</time>
      </trkpt>
      <trkpt lat="47.44015" lon="6.69036">
        <ele>456</ele>
        <time>2015-06-28T08:50:15.000Z</time>
      </trkpt>
      <trkpt lat="47.44015" lon="6.69036">
        <ele>456</ele>
        <time>2015-06-28T08:50:16.000Z</time>
      </trkpt>
      <trkpt lat="47.44017" lon="6.69032">
        <ele>456</ele>
        <time>2015-06-28T08:52:54.000Z</time>
      </trkpt>
      <trkpt lat="47.44019" lon="6.69032">
        <ele>456</ele>
        <time>2015-06-28T08:52:55.000Z</time>
      </trkpt>
      <trkpt lat="47.44021" lon="6.69028">
        <ele>456</ele>
        <time>2015-06-28T08:53:42.000Z</time>
      </trkpt>
      <trkpt lat="47.4402" lon="6.69024">
        <ele>456</ele>
        <time>2015-06-28T08:53:43.000Z</time>
      </trkpt>
      <trkpt lat="47.44019" lon="6.69021">
        <ele>455</ele>
        <time>2015-06-28T08:53:44.000Z</time>
      </trkpt>
      <trkpt lat="47.44017" lon="6.69016">
        <ele>455</ele>
        <time>2015-06-28T08:53:45.000Z</time>
      </trkpt>
      <trkpt lat="47.44016" lon="6.69011">
        <ele>455</ele>
        <time>2015-06-28T08:53:46.000Z</time>
      </trkpt>
      <trkpt lat="47.44015" lon="6.69005">
        <ele>455</ele>
        <time>2015-06-28T08:53:47.000Z</time>
      </trkpt>
      <trkpt lat="47.44013" lon="6.68997">
        <ele>453</ele>
        <time>2015-06-28T08:53:48.000Z</time>
      </trkpt>
      <trkpt lat="47.44011" lon="6.68989">
        <ele>453</ele>
        <time>2015-06-28T08:53:49.000Z</time>
      </trkpt>
      <trkpt lat="47.44007" lon="6.68968">
        <ele>453</ele>
        <time>2015-06-28T08:53:50.000Z</time>
      </trkpt>
      <trkpt lat="47.44003" lon="6.6896">
        <ele>453</ele>
        <time>2015-06-28T08:53:51.000Z</time>
      </trkpt>
      <trkpt lat="47.44" lon="6.68951">
        <ele>450</ele>
        <time>2015-06-28T08:53:52.000Z</time>
      </trkpt>
      <trkpt lat="47.43998" lon="6.68943">
        <ele>450</ele>
        <time>2015-06-28T08:53:53.000Z</time>
      </trkpt>
      <trkpt lat="47.43996" lon="6.68935">
        <ele>450</ele>
        <time>2015-06-28T08:53:54.000Z</time>
      </trkpt>
      <trkpt lat="47.43996" lon="6.68927">
        <ele>451</ele>
        <time>2015-06-28T08:53:55.000Z</time>
      </trkpt>
      <trkpt lat="47.43992" lon="6.68916">
        <ele>451</ele>
        <time>2015-06-28T08:53:56.000Z</time>
      </trkpt>
      <trkpt lat="47.43987" lon="6.68907">
        <ele>451</ele>
        <time>2015-06-28T08:53:57.000Z</time>
      </trkpt>
      <trkpt lat="47.43983" lon="6.68896">
        <ele>450</ele>
        <time>2015-06-28T08:53:58.000Z</time>
      </trkpt>
      <trkpt lat="47.43979" lon="6.68884">
        <ele>450</ele>
        <time>2015-06-28T08:53:59.000Z</time>
      </trkpt>
      <trkpt lat="47.43973" lon="6.68874">
        <ele>449</ele>
        <time>2015-06-28T08:54:00.000Z</time>
      </trkpt>
      <trkpt lat="47.43967" lon="6.68863">
        <ele>449</ele>
        <time>2015-06-28T08:54:01.000Z</time>
      </trkpt>
      <trkpt lat="47.43961" lon="6.6885">
        <ele>449</ele>
        <time>2015-06-28T08:54:02.000Z</time>
      </trkpt>
      <trkpt lat="47.43956" lon="6.6884">
        <ele>449</ele>
        <time>2015-06-28T08:54:03.000Z</time>
      </trkpt>
      <trkpt lat="47.43955" lon="6.68828">
        <ele>448</ele>
        <time>2015-06-28T08:54:04.000Z</time>
      </trkpt>
      <trkpt lat="47.43951" lon="6.68819">
        <ele>448</ele>
        <time>2015-06-28T08:54:05.000Z</time>
      </trkpt>
      <trkpt lat="47.43945" lon="6.68815">
        <ele>448</ele>
        <time>2015-06-28T08:54:06.000Z</time>
      </trkpt>
      <trkpt lat="47.43934" lon="6.68813">
        <ele>448</ele>
        <time>2015-06-28T08:54:07.000Z</time>
      </trkpt>
      <trkpt lat="47.43926" lon="6.68812">
        <ele>448</ele>
        <time>2015-06-28T08:54:08.000Z</time>
      </trkpt>
      <trkpt lat="47.43921" lon="6.6881">
        <ele>448</ele>
        <time>2015-06-28T08:54:09.000Z</time>
      </trkpt>
      <trkpt lat="47.43916" lon="6.68808">
        <ele>446</ele>
        <time>2015-06-28T08:54:10.000Z</time>
      </trkpt>
      <trkpt lat="47.43913" lon="6.68805">
        <ele>446</ele>
        <time>2015-06-28T08:54:11.000Z</time>
      </trkpt>
      <trkpt lat="47.43911" lon="6.68802">
        <ele>446</ele>
        <time>2015-06-28T08:54:12.000Z</time>
      </trkpt>
      <trkpt lat="47.4391" lon="6.68799">
        <ele>446</ele>
        <time>2015-06-28T08:54:13.000Z</time>
      </trkpt>
      <trkpt lat="47.43908" lon="6.68795">
        <ele>446</ele>
        <time>2015-06-28T08:54:14.000Z</time>
      </trkpt>
      <trkpt lat="47.43905" lon="6.68792">
        <ele>446</ele>
        <time>2015-06-28T08:54:15.000Z</time>
      </trkpt>
      <trkpt lat="47.43904" lon="6.68788">
        <ele>446</ele>
        <time>2015-06-28T08:54:16.000Z</time>
      </trkpt>
      <trkpt lat="47.43903" lon="6.68784">
        <ele>446</ele>
        <time>2015-06-28T08:54:17.000Z</time>
      </trkpt>
      <trkpt lat="47.439" lon="6.6878">
        <ele>446</ele>
        <time>2015-06-28T08:54:18.000Z</time>
      </trkpt>
      <trkpt lat="47.43899" lon="6.68775">
        <ele>446</ele>
        <time>2015-06-28T08:54:19.000Z</time>
      </trkpt>
      <trkpt lat="47.43898" lon="6.68771">
        <ele>446</ele>
        <time>2015-06-28T08:54:20.000Z</time>
      </trkpt>
      <trkpt lat="47.43898" lon="6.68766">
        <ele>446</ele>
        <time>2015-06-28T08:54:21.000Z</time>
      </trkpt>
      <trkpt lat="47.43897" lon="6.68762">
        <ele>446</ele>
        <time>2015-06-28T08:54:22.000Z</time>
      </trkpt>
      <trkpt lat="47.43896" lon="6.68759">
        <ele>446</ele>
        <time>2015-06-28T08:54:23.000Z</time>
      </trkpt>
      <trkpt lat="47.43895" lon="6.68756">
        <ele>446</ele>
        <time>2015-06-28T08:54:24.000Z</time>
      </trkpt>
      <trkpt lat="47.43893" lon="6.68753">
        <ele>445</ele>
        <time>2015-06-28T08:54:25.000Z</time>
      </trkpt>
      <trkpt lat="47.43891" lon="6.6875">
        <ele>445</ele>
        <time>2015-06-28T08:54:26.000Z</time>
      </trkpt>
      <trkpt lat="47.43889" lon="6.68747">
        <ele>443</ele>
        <time>2015-06-28T08:54:27.000Z</time>
      </trkpt>
      <trkpt lat="47.43887" lon="6.68743">
        <ele>443</ele>
        <time>2015-06-28T08:54:28.000Z</time>
      </trkpt>
      <trkpt lat="47.43884" lon="6.68739">
        <ele>443</ele>
        <time>2015-06-28T08:54:29.000Z</time>
      </trkpt>
      <trkpt lat="47.43881" lon="6.68733">
        <ele>442</ele>
        <time>2015-06-28T08:54:30.000Z</time>
      </trkpt>
      <trkpt lat="47.43877" lon="6.68728">
        <ele>442</ele>
        <time>2015-06-28T08:54:31.000Z</time>
      </trkpt>
      <trkpt lat="47.43874" lon="6.68723">
        <ele>442</ele>
        <time>2015-06-28T08:54:32.000Z</time>
      </trkpt>
      <trkpt lat="47.43872" lon="6.68717">
        <ele>442</ele>
        <time>2015-06-28T08:54:33.000Z</time>
      </trkpt>
      <trkpt lat="47.4387" lon="6.68713">
        <ele>441</ele>
        <time>2015-06-28T08:54:34.000Z</time>
      </trkpt>
      <trkpt lat="47.43869" lon="6.68709">
        <ele>441</ele>
        <time>2015-06-28T08:54:35.000Z</time>
      </trkpt>
      <trkpt lat="47.43868" lon="6.68706">
        <ele>441</ele>
        <time>2015-06-28T08:54:36.000Z</time>
      </trkpt>
      <trkpt lat="47.43867" lon="6.68701">
        <ele>441</ele>
        <time>2015-06-28T08:54:38.000Z</time>
      </trkpt>
      <trkpt lat="47.43867" lon="6.68697">
        <ele>441</ele>
        <time>2015-06-28T08:54:39.000Z</time>
      </trkpt>
      <trkpt lat="47.43868" lon="6.68691">
        <ele>440</ele>
        <time>2015-06-28T08:54:41.000Z</time>
      </trkpt>
      <trkpt lat="47.43869" lon="6.68689">
        <ele>440</ele>
        <time>2015-06-28T08:54:42.000Z</time>
      </trkpt>
      <trkpt lat="47.43871" lon="6.68685">
        <ele>440</ele>
        <time>2015-06-28T08:54:44.000Z</time>
      </trkpt>
      <trkpt lat="47.43874" lon="6.68683">
        <ele>440</ele>
        <time>2015-06-28T08:54:45.000Z</time>
      </trkpt>
      <trkpt lat="47.43876" lon="6.68679">
        <ele>440</ele>
        <time>2015-06-28T08:54:46.000Z</time>
      </trkpt>
      <trkpt lat="47.43879" lon="6.68675">
        <ele>440</ele>
        <time>2015-06-28T08:54:47.000Z</time>
      </trkpt>
      <trkpt lat="47.43881" lon="6.68672">
        <ele>440</ele>
        <time>2015-06-28T08:54:48.000Z</time>
      </trkpt>
      <trkpt lat="47.43883" lon="6.68669">
        <ele>440</ele>
        <time>2015-06-28T08:54:49.000Z</time>
      </trkpt>
      <trkpt lat="47.43885" lon="6.68667">
        <ele>436</ele>
        <time>2015-06-28T08:54:50.000Z</time>
      </trkpt>
      <trkpt lat="47.43888" lon="6.68664">
        <ele>436</ele>
        <time>2015-06-28T08:54:51.000Z</time>
      </trkpt>
      <trkpt lat="47.43892" lon="6.6866">
        <ele>436</ele>
        <time>2015-06-28T08:54:52.000Z</time>
      </trkpt>
      <trkpt lat="47.43896" lon="6.68656">
        <ele>436</ele>
        <time>2015-06-28T08:54:53.000Z</time>
      </trkpt>
      <trkpt lat="47.439" lon="6.68652">
        <ele>436</ele>
        <time>2015-06-28T08:54:54.000Z</time>
      </trkpt>
      <trkpt lat="47.43904" lon="6.68649">
        <ele>436</ele>
        <time>2015-06-28T08:54:55.000Z</time>
      </trkpt>
      <trkpt lat="47.43907" lon="6.68645">
        <ele>436</ele>
        <time>2015-06-28T08:54:56.000Z</time>
      </trkpt>
      <trkpt lat="47.43911" lon="6.68642">
        <ele>436</ele>
        <time>2015-06-28T08:54:57.000Z</time>
      </trkpt>
      <trkpt lat="47.43915" lon="6.68639">
        <ele>436</ele>
        <time>2015-06-28T08:54:58.000Z</time>
      </trkpt>
      <trkpt lat="47.4392" lon="6.68635">
        <ele>437</ele>
        <time>2015-06-28T08:54:59.000Z</time>
      </trkpt>
      <trkpt lat="47.43925" lon="6.68631">
        <ele>437</ele>
        <time>2015-06-28T08:55:00.000Z</time>
      </trkpt>
      <trkpt lat="47.4393" lon="6.68625">
        <ele>436</ele>
        <time>2015-06-28T08:55:01.000Z</time>
      </trkpt>
      <trkpt lat="47.43935" lon="6.68619">
        <ele>436</ele>
        <time>2015-06-28T08:55:02.000Z</time>
      </trkpt>
      <trkpt lat="47.4394" lon="6.68613">
        <ele>436</ele>
        <time>2015-06-28T08:55:03.000Z</time>
      </trkpt>
      <trkpt lat="47.43946" lon="6.68607">
        <ele>436</ele>
        <time>2015-06-28T08:55:04.000Z</time>
      </trkpt>
      <trkpt lat="47.43951" lon="6.68601">
        <ele>436</ele>
        <time>2015-06-28T08:55:05.000Z</time>
      </trkpt>
      <trkpt lat="47.43957" lon="6.68597">
        <ele>436</ele>
        <time>2015-06-28T08:55:06.000Z</time>
      </trkpt>
      <trkpt lat="47.43962" lon="6.68593">
        <ele>436</ele>
        <time>2015-06-28T08:55:07.000Z</time>
      </trkpt>
      <trkpt lat="47.43967" lon="6.68589">
        <ele>436</ele>
        <time>2015-06-28T08:55:08.000Z</time>
      </trkpt>
      <trkpt lat="47.43972" lon="6.68585">
        <ele>436</ele>
        <time>2015-06-28T08:55:09.000Z</time>
      </trkpt>
      <trkpt lat="47.43977" lon="6.68582">
        <ele>433</ele>
        <time>2015-06-28T08:55:10.000Z</time>
      </trkpt>
      <trkpt lat="47.43982" lon="6.68578">
        <ele>433</ele>
        <time>2015-06-28T08:55:11.000Z</time>
      </trkpt>
      <trkpt lat="47.43988" lon="6.68575">
        <ele>433</ele>
        <time>2015-06-28T08:55:12.000Z</time>
      </trkpt>
      <trkpt lat="47.43993" lon="6.68572">
        <ele>433</ele>
        <time>2015-06-28T08:55:13.000Z</time>
      </trkpt>
      <trkpt lat="47.43999" lon="6.68568">
        <ele>433</ele>
        <time>2015-06-28T08:55:14.000Z</time>
      </trkpt>
      <trkpt lat="47.44005" lon="6.68566">
        <ele>434</ele>
        <time>2015-06-28T08:55:15.000Z</time>
      </trkpt>
      <trkpt lat="47.44012" lon="6.68563">
        <ele>433</ele>
        <time>2015-06-28T08:55:16.000Z</time>
      </trkpt>
      <trkpt lat="47.44018" lon="6.6856">
        <ele>433</ele>
        <time>2015-06-28T08:55:17.000Z</time>
      </trkpt>
      <trkpt lat="47.44024" lon="6.68558">
        <ele>433</ele>
        <time>2015-06-28T08:55:18.000Z</time>
      </trkpt>
      <trkpt lat="47.4403" lon="6.68557">
        <ele>433</ele>
        <time>2015-06-28T08:55:19.000Z</time>
      </trkpt>
      <trkpt lat="47.44037" lon="6.68555">
        <ele>433</ele>
        <time>2015-06-28T08:55:20.000Z</time>
      </trkpt>
      <trkpt lat="47.44043" lon="6.68552">
        <ele>433</ele>
        <time>2015-06-28T08:55:21.000Z</time>
      </trkpt>
      <trkpt lat="47.44049" lon="6.68549">
        <ele>433</ele>
        <time>2015-06-28T08:55:22.000Z</time>
      </trkpt>
      <trkpt lat="47.44054" lon="6.68546">
        <ele>433</ele>
        <time>2015-06-28T08:55:23.000Z</time>
      </trkpt>
      <trkpt lat="47.44059" lon="6.68544">
        <ele>433</ele>
        <time>2015-06-28T08:55:24.000Z</time>
      </trkpt>
      <trkpt lat="47.44062" lon="6.68541">
        <ele>432</ele>
        <time>2015-06-28T08:55:25.000Z</time>
      </trkpt>
      <trkpt lat="47.44064" lon="6.68539">
        <ele>432</ele>
        <time>2015-06-28T08:55:26.000Z</time>
      </trkpt>
      <trkpt lat="47.44066" lon="6.68535">
        <ele>432</ele>
        <time>2015-06-28T08:55:28.000Z</time>
      </trkpt>
      <trkpt lat="47.44066" lon="6.68534">
        <ele>432</ele>
        <time>2015-06-28T08:55:29.000Z</time>
      </trkpt>
      <trkpt lat="47.44067" lon="6.6853">
        <ele>432</ele>
        <time>2015-06-28T08:55:33.000Z</time>
      </trkpt>
      <trkpt lat="47.44069" lon="6.68525">
        <ele>432</ele>
        <time>2015-06-28T08:55:34.000Z</time>
      </trkpt>
      <trkpt lat="47.44072" lon="6.68521">
        <ele>432</ele>
        <time>2015-06-28T08:55:37.000Z</time>
      </trkpt>
      <trkpt lat="47.44073" lon="6.6852">
        <ele>432</ele>
        <time>2015-06-28T08:55:38.000Z</time>
      </trkpt>
      <trkpt lat="47.44076" lon="6.68516">
        <ele>431</ele>
        <time>2015-06-28T08:55:41.000Z</time>
      </trkpt>
      <trkpt lat="47.44076" lon="6.68516">
        <ele>431</ele>
        <time>2015-06-28T08:55:42.000Z</time>
      </trkpt>
      <trkpt lat="47.4408" lon="6.68515">
        <ele>431</ele>
        <time>2015-06-28T08:55:54.000Z</time>
      </trkpt>
      <trkpt lat="47.44081" lon="6.68515">
        <ele>431</ele>
        <time>2015-06-28T08:55:55.000Z</time>
      </trkpt>
      <trkpt lat="47.44084" lon="6.68513">
        <ele>430</ele>
        <time>2015-06-28T08:55:57.000Z</time>
      </trkpt>
      <trkpt lat="47.44085" lon="6.68513">
        <ele>430</ele>
        <time>2015-06-28T08:55:58.000Z</time>
      </trkpt>
      <trkpt lat="47.44089" lon="6.68513">
        <ele>430</ele>
        <time>2015-06-28T08:56:01.000Z</time>
      </trkpt>
      <trkpt lat="47.44091" lon="6.68512">
        <ele>430</ele>
        <time>2015-06-28T08:56:02.000Z</time>
      </trkpt>
      <trkpt lat="47.44093" lon="6.68508">
        <ele>430</ele>
        <time>2015-06-28T08:56:05.000Z</time>
      </trkpt>
      <trkpt lat="47.44093" lon="6.68506">
        <ele>430</ele>
        <time>2015-06-28T08:56:06.000Z</time>
      </trkpt>
      <trkpt lat="47.44094" lon="6.68501">
        <ele>430</ele>
        <time>2015-06-28T08:56:08.000Z</time>
      </trkpt>
      <trkpt lat="47.44094" lon="6.68499">
        <ele>429</ele>
        <time>2015-06-28T08:56:09.000Z</time>
      </trkpt>
      <trkpt lat="47.44094" lon="6.68493">
        <ele>428</ele>
        <time>2015-06-28T08:56:11.000Z</time>
      </trkpt>
      <trkpt lat="47.44095" lon="6.6849">
        <ele>428</ele>
        <time>2015-06-28T08:56:12.000Z</time>
      </trkpt>
      <trkpt lat="47.44095" lon="6.68486">
        <ele>428</ele>
        <time>2015-06-28T08:56:13.000Z</time>
      </trkpt>
      <trkpt lat="47.44096" lon="6.68483">
        <ele>428</ele>
        <time>2015-06-28T08:56:14.000Z</time>
      </trkpt>
      <trkpt lat="47.44097" lon="6.68478">
        <ele>427</ele>
        <time>2015-06-28T08:56:16.000Z</time>
      </trkpt>
      <trkpt lat="47.44098" lon="6.68477">
        <ele>427</ele>
        <time>2015-06-28T08:56:17.000Z</time>
      </trkpt>
      <trkpt lat="47.44102" lon="6.68481">
        <ele>427</ele>
        <time>2015-06-28T08:56:30.000Z</time>
      </trkpt>
      <trkpt lat="47.44102" lon="6.68481">
        <ele>427</ele>
        <time>2015-06-28T08:56:31.000Z</time>
      </trkpt>
      <trkpt lat="47.44102" lon="6.68476">
        <ele>427</ele>
        <time>2015-06-28T08:57:31.000Z</time>
      </trkpt>
      <trkpt lat="47.44103" lon="6.68474">
        <ele>427</ele>
        <time>2015-06-28T08:57:32.000Z</time>
      </trkpt>
      <trkpt lat="47.44103" lon="6.6847">
        <ele>427</ele>
        <time>2015-06-28T08:57:33.000Z</time>
      </trkpt>
      <trkpt lat="47.44103" lon="6.68465">
        <ele>427</ele>
        <time>2015-06-28T08:57:34.000Z</time>
      </trkpt>
      <trkpt lat="47.44104" lon="6.68459">
        <ele>426</ele>
        <time>2015-06-28T08:57:35.000Z</time>
      </trkpt>
      <trkpt lat="47.44105" lon="6.68453">
        <ele>426</ele>
        <time>2015-06-28T08:57:36.000Z</time>
      </trkpt>
      <trkpt lat="47.44106" lon="6.68446">
        <ele>426</ele>
        <time>2015-06-28T08:57:37.000Z</time>
      </trkpt>
      <trkpt lat="47.44106" lon="6.68439">
        <ele>426</ele>
        <time>2015-06-28T08:57:38.000Z</time>
      </trkpt>
      <trkpt lat="47.44107" lon="6.68431">
        <ele>426</ele>
        <time>2015-06-28T08:57:39.000Z</time>
      </trkpt>
      <trkpt lat="47.44107" lon="6.68424">
        <ele>426</ele>
        <time>2015-06-28T08:57:40.000Z</time>
      </trkpt>
      <trkpt lat="47.44106" lon="6.68418">
        <ele>426</ele>
        <time>2015-06-28T08:57:41.000Z</time>
      </trkpt>
      <trkpt lat="47.44105" lon="6.68411">
        <ele>426</ele>
        <time>2015-06-28T08:57:42.000Z</time>
      </trkpt>
      <trkpt lat="47.44105" lon="6.68405">
        <ele>426</ele>
        <time>2015-06-28T08:57:43.000Z</time>
      </trkpt>
      <trkpt lat="47.44105" lon="6.68399">
        <ele>426</ele>
        <time>2015-06-28T08:57:44.000Z</time>
      </trkpt>
      <trkpt lat="47.44105" lon="6.68392">
        <ele>426</ele>
        <time>2015-06-28T08:57:45.000Z</time>
      </trkpt>
      <trkpt lat="47.44105" lon="6.68386">
        <ele>426</ele>
        <time>2015-06-28T08:57:46.000Z</time>
      </trkpt>
      <trkpt lat="47.44105" lon="6.6838">
        <ele>426</ele>
        <time>2015-06-28T08:57:47.000Z</time>
      </trkpt>
      <trkpt lat="47.44106" lon="6.68375">
        <ele>426</ele>
        <time>2015-06-28T08:57:48.000Z</time>
      </trkpt>
      <trkpt lat="47.44107" lon="6.68372">
        <ele>426</ele>
        <time>2015-06-28T08:57:49.000Z</time>
      </trkpt>
      <trkpt lat="47.44109" lon="6.6837">
        <ele>425</ele>
        <time>2015-06-28T08:57:50.000Z</time>
      </trkpt>
      <trkpt lat="47.44112" lon="6.68369">
        <ele>425</ele>
        <time>2015-06-28T08:57:51.000Z</time>
      </trkpt>
      <trkpt lat="47.44115" lon="6.68369">
        <ele>425</ele>
        <time>2015-06-28T08:57:52.000Z</time>
      </trkpt>
      <trkpt lat="47.44119" lon="6.68369">
        <ele>425</ele>
        <time>2015-06-28T08:57:53.000Z</time>
      </trkpt>
      <trkpt lat="47.44124" lon="6.68369">
        <ele>425</ele>
        <time>2015-06-28T08:57:54.000Z</time>
      </trkpt>
      <trkpt lat="47.44135" lon="6.68362">
        <ele>425</ele>
        <time>2015-06-28T08:57:55.000Z</time>
      </trkpt>
      <trkpt lat="47.44141" lon="6.68361">
        <ele>425</ele>
        <time>2015-06-28T08:57:56.000Z</time>
      </trkpt>
      <trkpt lat="47.44149" lon="6.68359">
        <ele>425</ele>
        <time>2015-06-28T08:57:57.000Z</time>
      </trkpt>
      <trkpt lat="47.44155" lon="6.68357">
        <ele>424</ele>
        <time>2015-06-28T08:57:58.000Z</time>
      </trkpt>
      <trkpt lat="47.4416" lon="6.68354">
        <ele>424</ele>
        <time>2015-06-28T08:57:59.000Z</time>
      </trkpt>
      <trkpt lat="47.44167" lon="6.68349">
        <ele>422</ele>
        <time>2015-06-28T08:58:00.000Z</time>
      </trkpt>
      <trkpt lat="47.44172" lon="6.6835">
        <ele>422</ele>
        <time>2015-06-28T08:58:01.000Z</time>
      </trkpt>
      <trkpt lat="47.44178" lon="6.68353">
        <ele>422</ele>
        <time>2015-06-28T08:58:02.000Z</time>
      </trkpt>
      <trkpt lat="47.44184" lon="6.68353">
        <ele>422</ele>
        <time>2015-06-28T08:58:03.000Z</time>
      </trkpt>
      <trkpt lat="47.4419" lon="6.68355">
        <ele>421</ele>
        <time>2015-06-28T08:58:04.000Z</time>
      </trkpt>
      <trkpt lat="47.44197" lon="6.68355">
        <ele>421</ele>
        <time>2015-06-28T08:58:05.000Z</time>
      </trkpt>
      <trkpt lat="47.44204" lon="6.68352">
        <ele>421</ele>
        <time>2015-06-28T08:58:06.000Z</time>
      </trkpt>
      <trkpt lat="47.4421" lon="6.68354">
        <ele>420</ele>
        <time>2015-06-28T08:58:07.000Z</time>
      </trkpt>
      <trkpt lat="47.44216" lon="6.68356">
        <ele>420</ele>
        <time>2015-06-28T08:58:08.000Z</time>
      </trkpt>
      <trkpt lat="47.44221" lon="6.68361">
        <ele>420</ele>
        <time>2015-06-28T08:58:09.000Z</time>
      </trkpt>
      <trkpt lat="47.4424" lon="6.68362">
        <ele>419</ele>
        <time>2015-06-28T08:58:10.000Z</time>
      </trkpt>
      <trkpt lat="47.4425" lon="6.68364">
        <ele>419</ele>
        <time>2015-06-28T08:58:11.000Z</time>
      </trkpt>
      <trkpt lat="47.44258" lon="6.68364">
        <ele>415</ele>
        <time>2015-06-28T08:58:12.000Z</time>
      </trkpt>
      <trkpt lat="47.44264" lon="6.68365">
        <ele>415</ele>
        <time>2015-06-28T08:58:13.000Z</time>
      </trkpt>
      <trkpt lat="47.44271" lon="6.68364">
        <ele>414</ele>
        <time>2015-06-28T08:58:14.000Z</time>
      </trkpt>
      <trkpt lat="47.4428" lon="6.68364">
        <ele>414</ele>
        <time>2015-06-28T08:58:15.000Z</time>
      </trkpt>
      <trkpt lat="47.44289" lon="6.6837">
        <ele>414</ele>
        <time>2015-06-28T08:58:16.000Z</time>
      </trkpt>
      <trkpt lat="47.44301" lon="6.68376">
        <ele>413</ele>
        <time>2015-06-28T08:58:17.000Z</time>
      </trkpt>
      <trkpt lat="47.4431" lon="6.6838">
        <ele>413</ele>
        <time>2015-06-28T08:58:18.000Z</time>
      </trkpt>
      <trkpt lat="47.44315" lon="6.68384">
        <ele>413</ele>
        <time>2015-06-28T08:58:19.000Z</time>
      </trkpt>
      <trkpt lat="47.44318" lon="6.68386">
        <ele>413</ele>
        <time>2015-06-28T08:58:20.000Z</time>
      </trkpt>
      <trkpt lat="47.44322" lon="6.68385">
        <ele>413</ele>
        <time>2015-06-28T08:58:21.000Z</time>
      </trkpt>
      <trkpt lat="47.44324" lon="6.68387">
        <ele>413</ele>
        <time>2015-06-28T08:58:22.000Z</time>
      </trkpt>
      <trkpt lat="47.44327" lon="6.68388">
        <ele>413</ele>
        <time>2015-06-28T08:58:23.000Z</time>
      </trkpt>
      <trkpt lat="47.4433" lon="6.6839">
        <ele>413</ele>
        <time>2015-06-28T08:58:24.000Z</time>
      </trkpt>
      <trkpt lat="47.44333" lon="6.68391">
        <ele>413</ele>
        <time>2015-06-28T08:58:25.000Z</time>
      </trkpt>
      <trkpt lat="47.44338" lon="6.68393">
        <ele>409</ele>
        <time>2015-06-28T08:58:26.000Z</time>
      </trkpt>
      <trkpt lat="47.44341" lon="6.68394">
        <ele>409</ele>
        <time>2015-06-28T08:58:27.000Z</time>
      </trkpt>
      <trkpt lat="47.44346" lon="6.68397">
        <ele>409</ele>
        <time>2015-06-28T08:58:28.000Z</time>
      </trkpt>
      <trkpt lat="47.4435" lon="6.68398">
        <ele>408</ele>
        <time>2015-06-28T08:58:29.000Z</time>
      </trkpt>
      <trkpt lat="47.44358" lon="6.68401">
        <ele>408</ele>
        <time>2015-06-28T08:58:30.000Z</time>
      </trkpt>
      <trkpt lat="47.44365" lon="6.68403">
        <ele>407</ele>
        <time>2015-06-28T08:58:31.000Z</time>
      </trkpt>
      <trkpt lat="47.44369" lon="6.68406">
        <ele>407</ele>
        <time>2015-06-28T08:58:32.000Z</time>
      </trkpt>
      <trkpt lat="47.44377" lon="6.68408">
        <ele>407</ele>
        <time>2015-06-28T08:58:33.000Z</time>
      </trkpt>
      <trkpt lat="47.44383" lon="6.68413">
        <ele>406</ele>
        <time>2015-06-28T08:58:34.000Z</time>
      </trkpt>
      <trkpt lat="47.44388" lon="6.68417">
        <ele>407</ele>
        <time>2015-06-28T08:58:35.000Z</time>
      </trkpt>
      <trkpt lat="47.44393" lon="6.6842">
        <ele>407</ele>
        <time>2015-06-28T08:58:36.000Z</time>
      </trkpt>
      <trkpt lat="47.444" lon="6.68424">
        <ele>406</ele>
        <time>2015-06-28T08:58:37.000Z</time>
      </trkpt>
      <trkpt lat="47.44407" lon="6.68426">
        <ele>406</ele>
        <time>2015-06-28T08:58:38.000Z</time>
      </trkpt>
      <trkpt lat="47.44415" lon="6.6843">
        <ele>406</ele>
        <time>2015-06-28T08:58:39.000Z</time>
      </trkpt>
      <trkpt lat="47.44422" lon="6.68432">
        <ele>402</ele>
        <time>2015-06-28T08:58:40.000Z</time>
      </trkpt>
      <trkpt lat="47.44428" lon="6.68431">
        <ele>402</ele>
        <time>2015-06-28T08:58:41.000Z</time>
      </trkpt>
      <trkpt lat="47.44432" lon="6.6843">
        <ele>401</ele>
        <time>2015-06-28T08:58:42.000Z</time>
      </trkpt>
      <trkpt lat="47.44436" lon="6.68431">
        <ele>401</ele>
        <time>2015-06-28T08:58:43.000Z</time>
      </trkpt>
      <trkpt lat="47.4444" lon="6.68432">
        <ele>401</ele>
        <time>2015-06-28T08:58:44.000Z</time>
      </trkpt>
      <trkpt lat="47.44444" lon="6.68433">
        <ele>400</ele>
        <time>2015-06-28T08:58:45.000Z</time>
      </trkpt>
      <trkpt lat="47.44449" lon="6.68436">
        <ele>400</ele>
        <time>2015-06-28T08:58:46.000Z</time>
      </trkpt>
      <trkpt lat="47.44452" lon="6.68435">
        <ele>400</ele>
        <time>2015-06-28T08:58:47.000Z</time>
      </trkpt>
      <trkpt lat="47.44457" lon="6.68437">
        <ele>399</ele>
        <time>2015-06-28T08:58:48.000Z</time>
      </trkpt>
      <trkpt lat="47.44462" lon="6.68441">
        <ele>399</ele>
        <time>2015-06-28T08:58:49.000Z</time>
      </trkpt>
      <trkpt lat="47.44468" lon="6.68444">
        <ele>398</ele>
        <time>2015-06-28T08:58:50.000Z</time>
      </trkpt>
      <trkpt lat="47.44474" lon="6.68447">
        <ele>398</ele>
        <time>2015-06-28T08:58:51.000Z</time>
      </trkpt>
      <trkpt lat="47.44478" lon="6.6845">
        <ele>398</ele>
        <time>2015-06-28T08:58:52.000Z</time>
      </trkpt>
      <trkpt lat="47.44483" lon="6.68453">
        <ele>398</ele>
        <time>2015-06-28T08:58:53.000Z</time>
      </trkpt>
      <trkpt lat="47.4449" lon="6.68462">
        <ele>398</ele>
        <time>2015-06-28T08:58:54.000Z</time>
      </trkpt>
      <trkpt lat="47.445" lon="6.68467">
        <ele>397</ele>
        <time>2015-06-28T08:58:55.000Z</time>
      </trkpt>
      <trkpt lat="47.44514" lon="6.68479">
        <ele>389</ele>
        <time>2015-06-28T08:58:56.000Z</time>
      </trkpt>
      <trkpt lat="47.44524" lon="6.68483">
        <ele>388</ele>
        <time>2015-06-28T08:58:57.000Z</time>
      </trkpt>
      <trkpt lat="47.44532" lon="6.68487">
        <ele>387</ele>
        <time>2015-06-28T08:58:58.000Z</time>
      </trkpt>
      <trkpt lat="47.44539" lon="6.68493">
        <ele>387</ele>
        <time>2015-06-28T08:58:59.000Z</time>
      </trkpt>
      <trkpt lat="47.44544" lon="6.685">
        <ele>386</ele>
        <time>2015-06-28T08:59:00.000Z</time>
      </trkpt>
      <trkpt lat="47.4455" lon="6.68506">
        <ele>388</ele>
        <time>2015-06-28T08:59:01.000Z</time>
      </trkpt>
      <trkpt lat="47.44555" lon="6.6851">
        <ele>387</ele>
        <time>2015-06-28T08:59:02.000Z</time>
      </trkpt>
      <trkpt lat="47.4456" lon="6.68513">
        <ele>387</ele>
        <time>2015-06-28T08:59:03.000Z</time>
      </trkpt>
      <trkpt lat="47.44567" lon="6.68514">
        <ele>386</ele>
        <time>2015-06-28T08:59:04.000Z</time>
      </trkpt>
      <trkpt lat="47.44576" lon="6.68517">
        <ele>385</ele>
        <time>2015-06-28T08:59:05.000Z</time>
      </trkpt>
      <trkpt lat="47.44586" lon="6.6852">
        <ele>374</ele>
        <time>2015-06-28T08:59:06.000Z</time>
      </trkpt>
      <trkpt lat="47.44591" lon="6.68528">
        <ele>372</ele>
        <time>2015-06-28T08:59:07.000Z</time>
      </trkpt>
      <trkpt lat="47.44596" lon="6.68532">
        <ele>371</ele>
        <time>2015-06-28T08:59:08.000Z</time>
      </trkpt>
      <trkpt lat="47.446" lon="6.68535">
        <ele>370</ele>
        <time>2015-06-28T08:59:09.000Z</time>
      </trkpt>
      <trkpt lat="47.44606" lon="6.68542">
        <ele>369</ele>
        <time>2015-06-28T08:59:10.000Z</time>
      </trkpt>
      <trkpt lat="47.4461" lon="6.68547">
        <ele>369</ele>
        <time>2015-06-28T08:59:11.000Z</time>
      </trkpt>
      <trkpt lat="47.44615" lon="6.68551">
        <ele>368</ele>
        <time>2015-06-28T08:59:12.000Z</time>
      </trkpt>
      <trkpt lat="47.44622" lon="6.68558">
        <ele>367</ele>
        <time>2015-06-28T08:59:13.000Z</time>
      </trkpt>
      <trkpt lat="47.44627" lon="6.68563">
        <ele>366</ele>
        <time>2015-06-28T08:59:14.000Z</time>
      </trkpt>
      <trkpt lat="47.4463" lon="6.68565">
        <ele>365</ele>
        <time>2015-06-28T08:59:15.000Z</time>
      </trkpt>
      <trkpt lat="47.44635" lon="6.68571">
        <ele>364</ele>
        <time>2015-06-28T08:59:16.000Z</time>
      </trkpt>
      <trkpt lat="47.4464" lon="6.68578">
        <ele>363</ele>
        <time>2015-06-28T08:59:17.000Z</time>
      </trkpt>
      <trkpt lat="47.44644" lon="6.68582">
        <ele>362</ele>
        <time>2015-06-28T08:59:18.000Z</time>
      </trkpt>
      <trkpt lat="47.44649" lon="6.68589">
        <ele>365</ele>
        <time>2015-06-28T08:59:19.000Z</time>
      </trkpt>
      <trkpt lat="47.44653" lon="6.68595">
        <ele>365</ele>
        <time>2015-06-28T08:59:20.000Z</time>
      </trkpt>
      <trkpt lat="47.44657" lon="6.68599">
        <ele>365</ele>
        <time>2015-06-28T08:59:21.000Z</time>
      </trkpt>
      <trkpt lat="47.44662" lon="6.68605">
        <ele>366</ele>
        <time>2015-06-28T08:59:22.000Z</time>
      </trkpt>
      <trkpt lat="47.44668" lon="6.68614">
        <ele>350</ele>
        <time>2015-06-28T08:59:23.000Z</time>
      </trkpt>
      <trkpt lat="47.44672" lon="6.68621">
        <ele>350</ele>
        <time>2015-06-28T08:59:24.000Z</time>
      </trkpt>
      <trkpt lat="47.44676" lon="6.6863">
        <ele>351</ele>
        <time>2015-06-28T08:59:25.000Z</time>
      </trkpt>
      <trkpt lat="47.44679" lon="6.68637">
        <ele>351</ele>
        <time>2015-06-28T08:59:26.000Z</time>
      </trkpt>
      <trkpt lat="47.44682" lon="6.68643">
        <ele>352</ele>
        <time>2015-06-28T08:59:26.998Z</time>
      </trkpt>
      <trkpt lat="47.44686" lon="6.68648">
        <ele>352</ele>
        <time>2015-06-28T08:59:28.000Z</time>
      </trkpt>
      <trkpt lat="47.44688" lon="6.68652">
        <ele>352</ele>
        <time>2015-06-28T08:59:29.000Z</time>
      </trkpt>
      <trkpt lat="47.44692" lon="6.68656">
        <ele>352</ele>
        <time>2015-06-28T08:59:30.000Z</time>
      </trkpt>
      <trkpt lat="47.44695" lon="6.6866">
        <ele>351</ele>
        <time>2015-06-28T08:59:31.000Z</time>
      </trkpt>
      <trkpt lat="47.44697" lon="6.68667">
        <ele>357</ele>
        <time>2015-06-28T08:59:32.000Z</time>
      </trkpt>
      <trkpt lat="47.44701" lon="6.68682">
        <ele>355</ele>
        <time>2015-06-28T08:59:33.000Z</time>
      </trkpt>
      <trkpt lat="47.44704" lon="6.68689">
        <ele>354</ele>
        <time>2015-06-28T08:59:34.000Z</time>
      </trkpt>
      <trkpt lat="47.44706" lon="6.68695">
        <ele>354</ele>
        <time>2015-06-28T08:59:35.000Z</time>
      </trkpt>
      <trkpt lat="47.44709" lon="6.68701">
        <ele>354</ele>
        <time>2015-06-28T08:59:36.000Z</time>
      </trkpt>
      <trkpt lat="47.44711" lon="6.68706">
        <ele>353</ele>
        <time>2015-06-28T08:59:37.000Z</time>
      </trkpt>
      <trkpt lat="47.44714" lon="6.68711">
        <ele>353</ele>
        <time>2015-06-28T08:59:38.000Z</time>
      </trkpt>
      <trkpt lat="47.44717" lon="6.68716">
        <ele>352</ele>
        <time>2015-06-28T08:59:39.000Z</time>
      </trkpt>
      <trkpt lat="47.4472" lon="6.6872">
        <ele>352</ele>
        <time>2015-06-28T08:59:40.000Z</time>
      </trkpt>
      <trkpt lat="47.44724" lon="6.68725">
        <ele>351</ele>
        <time>2015-06-28T08:59:41.000Z</time>
      </trkpt>
      <trkpt lat="47.44728" lon="6.6873">
        <ele>349</ele>
        <time>2015-06-28T08:59:42.000Z</time>
      </trkpt>
      <trkpt lat="47.44746" lon="6.68753">
        <ele>343</ele>
        <time>2015-06-28T08:59:43.000Z</time>
      </trkpt>
      <trkpt lat="47.44756" lon="6.68766">
        <ele>335</ele>
        <time>2015-06-28T08:59:44.000Z</time>
      </trkpt>
      <trkpt lat="47.44766" lon="6.68774">
        <ele>334</ele>
        <time>2015-06-28T08:59:45.000Z</time>
      </trkpt>
      <trkpt lat="47.44774" lon="6.6878">
        <ele>334</ele>
        <time>2015-06-28T08:59:46.000Z</time>
      </trkpt>
      <trkpt lat="47.44781" lon="6.6879">
        <ele>333</ele>
        <time>2015-06-28T08:59:47.000Z</time>
      </trkpt>
      <trkpt lat="47.44786" lon="6.68797">
        <ele>333</ele>
        <time>2015-06-28T08:59:48.000Z</time>
      </trkpt>
      <trkpt lat="47.44791" lon="6.68796">
        <ele>332</ele>
        <time>2015-06-28T08:59:49.000Z</time>
      </trkpt>
      <trkpt lat="47.44794" lon="6.68797">
        <ele>332</ele>
        <time>2015-06-28T08:59:50.000Z</time>
      </trkpt>
      <trkpt lat="47.44798" lon="6.68798">
        <ele>332</ele>
        <time>2015-06-28T08:59:51.000Z</time>
      </trkpt>
      <trkpt lat="47.44801" lon="6.68801">
        <ele>331</ele>
        <time>2015-06-28T08:59:53.000Z</time>
      </trkpt>
      <trkpt lat="47.44804" lon="6.68803">
        <ele>331</ele>
        <time>2015-06-28T08:59:54.000Z</time>
      </trkpt>
      <trkpt lat="47.44807" lon="6.68804">
        <ele>331</ele>
        <time>2015-06-28T08:59:56.000Z</time>
      </trkpt>
      <trkpt lat="47.44809" lon="6.68804">
        <ele>330</ele>
        <time>2015-06-28T08:59:57.000Z</time>
      </trkpt>
      <trkpt lat="47.44811" lon="6.68804">
        <ele>330</ele>
        <time>2015-06-28T08:59:58.000Z</time>
      </trkpt>
      <trkpt lat="47.44813" lon="6.68805">
        <ele>330</ele>
        <time>2015-06-28T08:59:59.000Z</time>
      </trkpt>
      <trkpt lat="47.44817" lon="6.68806">
        <ele>329</ele>
        <time>2015-06-28T09:00:00.000Z</time>
      </trkpt>
      <trkpt lat="47.4482" lon="6.68808">
        <ele>329</ele>
        <time>2015-06-28T09:00:01.000Z</time>
      </trkpt>
      <trkpt lat="47.44824" lon="6.68809">
        <ele>329</ele>
        <time>2015-06-28T09:00:02.000Z</time>
      </trkpt>
      <trkpt lat="47.44828" lon="6.6881">
        <ele>328</ele>
        <time>2015-06-28T09:00:03.000Z</time>
      </trkpt>
      <trkpt lat="47.44831" lon="6.68811">
        <ele>328</ele>
        <time>2015-06-28T09:00:04.000Z</time>
      </trkpt>
      <trkpt lat="47.44835" lon="6.68812">
        <ele>318</ele>
        <time>2015-06-28T09:00:05.000Z</time>
      </trkpt>
      <trkpt lat="47.44839" lon="6.68812">
        <ele>318</ele>
        <time>2015-06-28T09:00:06.000Z</time>
      </trkpt>
      <trkpt lat="47.44843" lon="6.68813">
        <ele>318</ele>
        <time>2015-06-28T09:00:07.000Z</time>
      </trkpt>
      <trkpt lat="47.44845" lon="6.68814">
        <ele>318</ele>
        <time>2015-06-28T09:00:08.000Z</time>
      </trkpt>
      <trkpt lat="47.44849" lon="6.68815">
        <ele>318</ele>
        <time>2015-06-28T09:00:09.000Z</time>
      </trkpt>
      <trkpt lat="47.44852" lon="6.68816">
        <ele>317</ele>
        <time>2015-06-28T09:00:10.000Z</time>
      </trkpt>
      <trkpt lat="47.44855" lon="6.68818">
        <ele>317</ele>
        <time>2015-06-28T09:00:11.000Z</time>
      </trkpt>
      <trkpt lat="47.44859" lon="6.68821">
        <ele>317</ele>
        <time>2015-06-28T09:00:12.000Z</time>
      </trkpt>
      <trkpt lat="47.44862" lon="6.68823">
        <ele>316</ele>
        <time>2015-06-28T09:00:13.000Z</time>
      </trkpt>
      <trkpt lat="47.44865" lon="6.68826">
        <ele>316</ele>
        <time>2015-06-28T09:00:14.000Z</time>
      </trkpt>
      <trkpt lat="47.44868" lon="6.68828">
        <ele>315</ele>
        <time>2015-06-28T09:00:15.000Z</time>
      </trkpt>
      <trkpt lat="47.4487" lon="6.6883">
        <ele>315</ele>
        <time>2015-06-28T09:00:16.000Z</time>
      </trkpt>
      <trkpt lat="47.44873" lon="6.68832">
        <ele>315</ele>
        <time>2015-06-28T09:00:17.000Z</time>
      </trkpt>
      <trkpt lat="47.4487" lon="6.6883">
        <ele>315</ele>
        <time>2015-06-28T09:00:24.000Z</time>
      </trkpt>
      <trkpt lat="47.44869" lon="6.68827">
        <ele>315</ele>
        <time>2015-06-28T09:00:25.000Z</time>
      </trkpt>
      <trkpt lat="47.44868" lon="6.68822">
        <ele>315</ele>
        <time>2015-06-28T09:00:27.000Z</time>
      </trkpt>
      <trkpt lat="47.44868" lon="6.6882">
        <ele>315</ele>
        <time>2015-06-28T09:00:28.000Z</time>
      </trkpt>
      <trkpt lat="47.44865" lon="6.68816">
        <ele>315</ele>
        <time>2015-06-28T09:00:31.000Z</time>
      </trkpt>
      <trkpt lat="47.44864" lon="6.68815">
        <ele>315</ele>
        <time>2015-06-28T09:00:32.000Z</time>
      </trkpt>
      <trkpt lat="47.44861" lon="6.68811">
        <ele>316</ele>
        <time>2015-06-28T09:00:35.000Z</time>
      </trkpt>
      <trkpt lat="47.44859" lon="6.6881">
        <ele>316</ele>
        <time>2015-06-28T09:00:36.000Z</time>
      </trkpt>
      <trkpt lat="47.44855" lon="6.68808">
        <ele>316</ele>
        <time>2015-06-28T09:00:38.000Z</time>
      </trkpt>
      <trkpt lat="47.44853" lon="6.6881">
        <ele>316</ele>
        <time>2015-06-28T09:00:39.000Z</time>
      </trkpt>
      <trkpt lat="47.4485" lon="6.68812">
        <ele>317</ele>
        <time>2015-06-28T09:00:41.000Z</time>
      </trkpt>
      <trkpt lat="47.44849" lon="6.68814">
        <ele>317</ele>
        <time>2015-06-28T09:00:42.000Z</time>
      </trkpt>
      <trkpt lat="47.4485" lon="6.68819">
        <ele>318</ele>
        <time>2015-06-28T09:00:44.000Z</time>
      </trkpt>
      <trkpt lat="47.44851" lon="6.68822">
        <ele>318</ele>
        <time>2015-06-28T09:00:45.000Z</time>
      </trkpt>
      <trkpt lat="47.44853" lon="6.68827">
        <ele>318</ele>
        <time>2015-06-28T09:00:51.000Z</time>
      </trkpt>
      <trkpt lat="47.44854" lon="6.68828">
        <ele>318</ele>
        <time>2015-06-28T09:00:52.000Z</time>
      </trkpt>
      <trkpt lat="47.44855" lon="6.68832">
        <ele>318</ele>
        <time>2015-06-28T09:00:54.000Z</time>
      </trkpt>
      <trkpt lat="47.44856" lon="6.68834">
        <ele>323</ele>
        <time>2015-06-28T09:00:55.000Z</time>
      </trkpt>
      <trkpt lat="47.44858" lon="6.68838">
        <ele>322</ele>
        <time>2015-06-28T09:00:58.000Z</time>
      </trkpt>
      <trkpt lat="47.44859" lon="6.68838">
        <ele>322</ele>
        <time>2015-06-28T09:00:59.000Z</time>
      </trkpt>
      <trkpt lat="47.44862" lon="6.68841">
        <ele>322</ele>
        <time>2015-06-28T09:01:02.000Z</time>
      </trkpt>
      <trkpt lat="47.44863" lon="6.68843">
        <ele>322</ele>
        <time>2015-06-28T09:01:03.000Z</time>
      </trkpt>
      <trkpt lat="47.44865" lon="6.68848">
        <ele>322</ele>
        <time>2015-06-28T09:01:06.000Z</time>
      </trkpt>
      <trkpt lat="47.44866" lon="6.6885">
        <ele>322</ele>
        <time>2015-06-28T09:01:07.000Z</time>
      </trkpt>
      <trkpt lat="47.44868" lon="6.68854">
        <ele>322</ele>
        <time>2015-06-28T09:01:09.000Z</time>
      </trkpt>
      <trkpt lat="47.4487" lon="6.68856">
        <ele>322</ele>
        <time>2015-06-28T09:01:10.000Z</time>
      </trkpt>
      <trkpt lat="47.44873" lon="6.6886">
        <ele>322</ele>
        <time>2015-06-28T09:01:13.000Z</time>
      </trkpt>
      <trkpt lat="47.44873" lon="6.68862">
        <ele>322</ele>
        <time>2015-06-28T09:01:14.000Z</time>
      </trkpt>
      <trkpt lat="47.44875" lon="6.68866">
        <ele>322</ele>
        <time>2015-06-28T09:01:16.000Z</time>
      </trkpt>
      <trkpt lat="47.44876" lon="6.68868">
        <ele>322</ele>
        <time>2015-06-28T09:01:17.000Z</time>
      </trkpt>
      <trkpt lat="47.44879" lon="6.68873">
        <ele>322</ele>
        <time>2015-06-28T09:01:20.000Z</time>
      </trkpt>
      <trkpt lat="47.4488" lon="6.68874">
        <ele>322</ele>
        <time>2015-06-28T09:01:21.000Z</time>
      </trkpt>
      <trkpt lat="47.44883" lon="6.68878">
        <ele>322</ele>
        <time>2015-06-28T09:01:23.000Z</time>
      </trkpt>
      <trkpt lat="47.44884" lon="6.6888">
        <ele>322</ele>
        <time>2015-06-28T09:01:24.000Z</time>
      </trkpt>
      <trkpt lat="47.44886" lon="6.68884">
        <ele>322</ele>
        <time>2015-06-28T09:01:26.000Z</time>
      </trkpt>
      <trkpt lat="47.44887" lon="6.68885">
        <ele>322</ele>
        <time>2015-06-28T09:01:27.000Z</time>
      </trkpt>
      <trkpt lat="47.44889" lon="6.68888">
        <ele>322</ele>
        <time>2015-06-28T09:01:29.000Z</time>
      </trkpt>
      <trkpt lat="47.44891" lon="6.68891">
        <ele>322</ele>
        <time>2015-06-28T09:01:30.000Z</time>
      </trkpt>
      <trkpt lat="47.44893" lon="6.68895">
        <ele>322</ele>
        <time>2015-06-28T09:01:32.000Z</time>
      </trkpt>
      <trkpt lat="47.44894" lon="6.68896">
        <ele>322</ele>
        <time>2015-06-28T09:01:33.000Z</time>
      </trkpt>
      <trkpt lat="47.44897" lon="6.68901">
        <ele>322</ele>
        <time>2015-06-28T09:01:35.998Z</time>
      </trkpt>
      <trkpt lat="47.44899" lon="6.68904">
        <ele>321</ele>
        <time>2015-06-28T09:01:37.000Z</time>
      </trkpt>
      <trkpt lat="47.44901" lon="6.68909">
        <ele>321</ele>
        <time>2015-06-28T09:01:39.000Z</time>
      </trkpt>
      <trkpt lat="47.44902" lon="6.68912">
        <ele>321</ele>
        <time>2015-06-28T09:01:40.000Z</time>
      </trkpt>
      <trkpt lat="47.44903" lon="6.68915">
        <ele>321</ele>
        <time>2015-06-28T09:01:41.000Z</time>
      </trkpt>
      <trkpt lat="47.44905" lon="6.68919">
        <ele>326</ele>
        <time>2015-06-28T09:01:42.000Z</time>
      </trkpt>
      <trkpt lat="47.44906" lon="6.68922">
        <ele>326</ele>
        <time>2015-06-28T09:01:43.000Z</time>
      </trkpt>
      <trkpt lat="47.44907" lon="6.68925">
        <ele>326</ele>
        <time>2015-06-28T09:01:44.000Z</time>
      </trkpt>
      <trkpt lat="47.4491" lon="6.68929">
        <ele>327</ele>
        <time>2015-06-28T09:01:46.000Z</time>
      </trkpt>
      <trkpt lat="47.44911" lon="6.6893">
        <ele>327</ele>
        <time>2015-06-28T09:01:47.000Z</time>
      </trkpt>
      <trkpt lat="47.44914" lon="6.68934">
        <ele>328</ele>
        <time>2015-06-28T09:01:50.000Z</time>
      </trkpt>
      <trkpt lat="47.44916" lon="6.68936">
        <ele>329</ele>
        <time>2015-06-28T09:01:51.000Z</time>
      </trkpt>
      <trkpt lat="47.4492" lon="6.6894">
        <ele>323</ele>
        <time>2015-06-28T09:01:53.000Z</time>
      </trkpt>
      <trkpt lat="47.44921" lon="6.68942">
        <ele>324</ele>
        <time>2015-06-28T09:01:54.000Z</time>
      </trkpt>
      <trkpt lat="47.44924" lon="6.68945">
        <ele>324</ele>
        <time>2015-06-28T09:01:56.000Z</time>
      </trkpt>
      <trkpt lat="47.44925" lon="6.68947">
        <ele>324</ele>
        <time>2015-06-28T09:01:57.000Z</time>
      </trkpt>
      <trkpt lat="47.44928" lon="6.68951">
        <ele>325</ele>
        <time>2015-06-28T09:01:59.000Z</time>
      </trkpt>
      <trkpt lat="47.44929" lon="6.68953">
        <ele>325</ele>
        <time>2015-06-28T09:02:00.000Z</time>
      </trkpt>
      <trkpt lat="47.44932" lon="6.68956">
        <ele>326</ele>
        <time>2015-06-28T09:02:02.000Z</time>
      </trkpt>
      <trkpt lat="47.44932" lon="6.68958">
        <ele>326</ele>
        <time>2015-06-28T09:02:03.000Z</time>
      </trkpt>
      <trkpt lat="47.44935" lon="6.68962">
        <ele>326</ele>
        <time>2015-06-28T09:02:06.000Z</time>
      </trkpt>
      <trkpt lat="47.44936" lon="6.68963">
        <ele>327</ele>
        <time>2015-06-28T09:02:07.000Z</time>
      </trkpt>
      <trkpt lat="47.44937" lon="6.68968">
        <ele>327</ele>
        <time>2015-06-28T09:02:11.000Z</time>
      </trkpt>
      <trkpt lat="47.44938" lon="6.68971">
        <ele>328</ele>
        <time>2015-06-28T09:02:12.000Z</time>
      </trkpt>
      <trkpt lat="47.4494" lon="6.68975">
        <ele>328</ele>
        <time>2015-06-28T09:02:13.000Z</time>
      </trkpt>
      <trkpt lat="47.44941" lon="6.68978">
        <ele>329</ele>
        <time>2015-06-28T09:02:14.000Z</time>
      </trkpt>
      <trkpt lat="47.44943" lon="6.6898">
        <ele>329</ele>
        <time>2015-06-28T09:02:15.000Z</time>
      </trkpt>
      <trkpt lat="47.44944" lon="6.68983">
        <ele>329</ele>
        <time>2015-06-28T09:02:16.000Z</time>
      </trkpt>
      <trkpt lat="47.44946" lon="6.68985">
        <ele>329</ele>
        <time>2015-06-28T09:02:17.000Z</time>
      </trkpt>
      <trkpt lat="47.44948" lon="6.68988">
        <ele>329</ele>
        <time>2015-06-28T09:02:18.000Z</time>
      </trkpt>
      <trkpt lat="47.44949" lon="6.68991">
        <ele>329</ele>
        <time>2015-06-28T09:02:19.000Z</time>
      </trkpt>
      <trkpt lat="47.44951" lon="6.68995">
        <ele>329</ele>
        <time>2015-06-28T09:02:20.000Z</time>
      </trkpt>
      <trkpt lat="47.44952" lon="6.68998">
        <ele>329</ele>
        <time>2015-06-28T09:02:21.000Z</time>
      </trkpt>
      <trkpt lat="47.44953" lon="6.69001">
        <ele>342</ele>
        <time>2015-06-28T09:02:22.000Z</time>
      </trkpt>
      <trkpt lat="47.44955" lon="6.69005">
        <ele>342</ele>
        <time>2015-06-28T09:02:24.000Z</time>
      </trkpt>
      <trkpt lat="47.44956" lon="6.69007">
        <ele>342</ele>
        <time>2015-06-28T09:02:25.000Z</time>
      </trkpt>
      <trkpt lat="47.44959" lon="6.6901">
        <ele>342</ele>
        <time>2015-06-28T09:02:27.000Z</time>
      </trkpt>
      <trkpt lat="47.4496" lon="6.69012">
        <ele>342</ele>
        <time>2015-06-28T09:02:28.000Z</time>
      </trkpt>
      <trkpt lat="47.44962" lon="6.69017">
        <ele>342</ele>
        <time>2015-06-28T09:02:30.000Z</time>
      </trkpt>
      <trkpt lat="47.44963" lon="6.69019">
        <ele>342</ele>
        <time>2015-06-28T09:02:31.000Z</time>
      </trkpt>
      <trkpt lat="47.44965" lon="6.69024">
        <ele>343</ele>
        <time>2015-06-28T09:02:33.000Z</time>
      </trkpt>
      <trkpt lat="47.44966" lon="6.69026">
        <ele>343</ele>
        <time>2015-06-28T09:02:34.000Z</time>
      </trkpt>
      <trkpt lat="47.44969" lon="6.6903">
        <ele>343</ele>
        <time>2015-06-28T09:02:36.000Z</time>
      </trkpt>
      <trkpt lat="47.4497" lon="6.69032">
        <ele>343</ele>
        <time>2015-06-28T09:02:37.000Z</time>
      </trkpt>
      <trkpt lat="47.44972" lon="6.69036">
        <ele>343</ele>
        <time>2015-06-28T09:02:39.000Z</time>
      </trkpt>
      <trkpt lat="47.44974" lon="6.69038">
        <ele>344</ele>
        <time>2015-06-28T09:02:40.000Z</time>
      </trkpt>
      <trkpt lat="47.44975" lon="6.69041">
        <ele>344</ele>
        <time>2015-06-28T09:02:41.000Z</time>
      </trkpt>
      <trkpt lat="47.44976" lon="6.69044">
        <ele>344</ele>
        <time>2015-06-28T09:02:42.000Z</time>
      </trkpt>
      <trkpt lat="47.44978" lon="6.69047">
        <ele>345</ele>
        <time>2015-06-28T09:02:43.000Z</time>
      </trkpt>
      <trkpt lat="47.44979" lon="6.69049">
        <ele>345</ele>
        <time>2015-06-28T09:02:44.000Z</time>
      </trkpt>
      <trkpt lat="47.44982" lon="6.69052">
        <ele>345</ele>
        <time>2015-06-28T09:02:46.000Z</time>
      </trkpt>
      <trkpt lat="47.44984" lon="6.69053">
        <ele>345</ele>
        <time>2015-06-28T09:02:47.000Z</time>
      </trkpt>
      <trkpt lat="47.44986" lon="6.69057">
        <ele>346</ele>
        <time>2015-06-28T09:02:49.000Z</time>
      </trkpt>
      <trkpt lat="47.44987" lon="6.6906">
        <ele>346</ele>
        <time>2015-06-28T09:02:50.000Z</time>
      </trkpt>
      <trkpt lat="47.44988" lon="6.69064">
        <ele>347</ele>
        <time>2015-06-28T09:02:51.000Z</time>
      </trkpt>
      <trkpt lat="47.44989" lon="6.69067">
        <ele>347</ele>
        <time>2015-06-28T09:02:52.000Z</time>
      </trkpt>
      <trkpt lat="47.44991" lon="6.69072">
        <ele>347</ele>
        <time>2015-06-28T09:02:54.000Z</time>
      </trkpt>
      <trkpt lat="47.44992" lon="6.69074">
        <ele>348</ele>
        <time>2015-06-28T09:02:55.000Z</time>
      </trkpt>
      <trkpt lat="47.44993" lon="6.69079">
        <ele>348</ele>
        <time>2015-06-28T09:02:57.000Z</time>
      </trkpt>
      <trkpt lat="47.44994" lon="6.69082">
        <ele>348</ele>
        <time>2015-06-28T09:02:58.000Z</time>
      </trkpt>
      <trkpt lat="47.44995" lon="6.69085">
        <ele>352</ele>
        <time>2015-06-28T09:02:59.000Z</time>
      </trkpt>
      <trkpt lat="47.44996" lon="6.69088">
        <ele>352</ele>
        <time>2015-06-28T09:03:00.000Z</time>
      </trkpt>
      <trkpt lat="47.44997" lon="6.69091">
        <ele>353</ele>
        <time>2015-06-28T09:03:01.000Z</time>
      </trkpt>
      <trkpt lat="47.44998" lon="6.69095">
        <ele>355</ele>
        <time>2015-06-28T09:03:02.000Z</time>
      </trkpt>
      <trkpt lat="47.44999" lon="6.69101">
        <ele>356</ele>
        <time>2015-06-28T09:03:04.000Z</time>
      </trkpt>
      <trkpt lat="47.45" lon="6.69103">
        <ele>357</ele>
        <time>2015-06-28T09:03:05.000Z</time>
      </trkpt>
      <trkpt lat="47.45001" lon="6.69109">
        <ele>344</ele>
        <time>2015-06-28T09:03:07.000Z</time>
      </trkpt>
      <trkpt lat="47.45001" lon="6.69113">
        <ele>344</ele>
        <time>2015-06-28T09:03:08.000Z</time>
      </trkpt>
      <trkpt lat="47.45001" lon="6.69119">
        <ele>344</ele>
        <time>2015-06-28T09:03:10.000Z</time>
      </trkpt>
      <trkpt lat="47.45001" lon="6.69121">
        <ele>344</ele>
        <time>2015-06-28T09:03:11.000Z</time>
      </trkpt>
      <trkpt lat="47.44999" lon="6.69127">
        <ele>361</ele>
        <time>2015-06-28T09:03:19.000Z</time>
      </trkpt>
      <trkpt lat="47.44999" lon="6.69128">
        <ele>362</ele>
        <time>2015-06-28T09:03:20.000Z</time>
      </trkpt>
      <trkpt lat="47.45" lon="6.69134">
        <ele>362</ele>
        <time>2015-06-28T09:03:23.000Z</time>
      </trkpt>
      <trkpt lat="47.45" lon="6.69136">
        <ele>347</ele>
        <time>2015-06-28T09:03:24.000Z</time>
      </trkpt>
      <trkpt lat="47.45003" lon="6.6914">
        <ele>348</ele>
        <time>2015-06-28T09:03:27.000Z</time>
      </trkpt>
      <trkpt lat="47.45004" lon="6.69142">
        <ele>348</ele>
        <time>2015-06-28T09:03:28.000Z</time>
      </trkpt>
      <trkpt lat="47.45006" lon="6.69147">
        <ele>350</ele>
        <time>2015-06-28T09:03:31.000Z</time>
      </trkpt>
      <trkpt lat="47.45007" lon="6.6915">
        <ele>350</ele>
        <time>2015-06-28T09:03:32.000Z</time>
      </trkpt>
      <trkpt lat="47.45008" lon="6.69152">
        <ele>351</ele>
        <time>2015-06-28T09:03:33.000Z</time>
      </trkpt>
      <trkpt lat="47.45009" lon="6.69156">
        <ele>353</ele>
        <time>2015-06-28T09:03:34.000Z</time>
      </trkpt>
      <trkpt lat="47.4501" lon="6.69159">
        <ele>354</ele>
        <time>2015-06-28T09:03:35.000Z</time>
      </trkpt>
      <trkpt lat="47.4501" lon="6.69163">
        <ele>354</ele>
        <time>2015-06-28T09:03:36.000Z</time>
      </trkpt>
      <trkpt lat="47.4501" lon="6.69169">
        <ele>358</ele>
        <time>2015-06-28T09:03:38.000Z</time>
      </trkpt>
      <trkpt lat="47.4501" lon="6.69172">
        <ele>358</ele>
        <time>2015-06-28T09:03:39.000Z</time>
      </trkpt>
      <trkpt lat="47.4501" lon="6.69178">
        <ele>357</ele>
        <time>2015-06-28T09:03:41.000Z</time>
      </trkpt>
      <trkpt lat="47.45009" lon="6.6918">
        <ele>357</ele>
        <time>2015-06-28T09:03:42.000Z</time>
      </trkpt>
      <trkpt lat="47.45009" lon="6.69184">
        <ele>356</ele>
        <time>2015-06-28T09:03:44.000Z</time>
      </trkpt>
      <trkpt lat="47.45009" lon="6.69187">
        <ele>355</ele>
        <time>2015-06-28T09:03:45.000Z</time>
      </trkpt>
      <trkpt lat="47.45009" lon="6.69193">
        <ele>355</ele>
        <time>2015-06-28T09:03:47.000Z</time>
      </trkpt>
      <trkpt lat="47.45009" lon="6.69195">
        <ele>355</ele>
        <time>2015-06-28T09:03:48.000Z</time>
      </trkpt>
      <trkpt lat="47.4501" lon="6.69201">
        <ele>354</ele>
        <time>2015-06-28T09:03:50.000Z</time>
      </trkpt>
      <trkpt lat="47.4501" lon="6.69203">
        <ele>354</ele>
        <time>2015-06-28T09:03:51.000Z</time>
      </trkpt>
      <trkpt lat="47.45011" lon="6.69209">
        <ele>355</ele>
        <time>2015-06-28T09:03:54.000Z</time>
      </trkpt>
      <trkpt lat="47.45011" lon="6.69211">
        <ele>355</ele>
        <time>2015-06-28T09:03:55.000Z</time>
      </trkpt>
      <trkpt lat="47.45011" lon="6.69216">
        <ele>356</ele>
        <time>2015-06-28T09:03:58.000Z</time>
      </trkpt>
      <trkpt lat="47.45011" lon="6.69218">
        <ele>356</ele>
        <time>2015-06-28T09:03:59.000Z</time>
      </trkpt>
      <trkpt lat="47.45009" lon="6.69224">
        <ele>357</ele>
        <time>2015-06-28T09:04:02.000Z</time>
      </trkpt>
      <trkpt lat="47.45009" lon="6.69226">
        <ele>358</ele>
        <time>2015-06-28T09:04:03.000Z</time>
      </trkpt>
      <trkpt lat="47.45007" lon="6.69232">
        <ele>360</ele>
        <time>2015-06-28T09:04:08.000Z</time>
      </trkpt>
      <trkpt lat="47.45006" lon="6.69233">
        <ele>361</ele>
        <time>2015-06-28T09:04:09.000Z</time>
      </trkpt>
      <trkpt lat="47.45005" lon="6.69239">
        <ele>364</ele>
        <time>2015-06-28T09:04:15.000Z</time>
      </trkpt>
      <trkpt lat="47.45005" lon="6.69241">
        <ele>365</ele>
        <time>2015-06-28T09:04:16.000Z</time>
      </trkpt>
      <trkpt lat="47.45005" lon="6.69247">
        <ele>367</ele>
        <time>2015-06-28T09:04:25.000Z</time>
      </trkpt>
      <trkpt lat="47.45005" lon="6.69247">
        <ele>368</ele>
        <time>2015-06-28T09:04:26.000Z</time>
      </trkpt>
      <trkpt lat="47.45006" lon="6.69253">
        <ele>369</ele>
        <time>2015-06-28T09:04:38.000Z</time>
      </trkpt>
      <trkpt lat="47.45006" lon="6.69254">
        <ele>369</ele>
        <time>2015-06-28T09:04:39.000Z</time>
      </trkpt>
      <trkpt lat="47.45005" lon="6.69261">
        <ele>368</ele>
        <time>2015-06-28T09:04:42.000Z</time>
      </trkpt>
      <trkpt lat="47.45005" lon="6.69262">
        <ele>367</ele>
        <time>2015-06-28T09:04:43.000Z</time>
      </trkpt>
      <trkpt lat="47.45004" lon="6.69269">
        <ele>366</ele>
        <time>2015-06-28T09:04:46.000Z</time>
      </trkpt>
      <trkpt lat="47.45004" lon="6.6927">
        <ele>366</ele>
        <time>2015-06-28T09:04:47.000Z</time>
      </trkpt>
      <trkpt lat="47.45003" lon="6.69276">
        <ele>365</ele>
        <time>2015-06-28T09:04:50.000Z</time>
      </trkpt>
      <trkpt lat="47.45003" lon="6.69278">
        <ele>365</ele>
        <time>2015-06-28T09:04:51.000Z</time>
      </trkpt>
      <trkpt lat="47.45002" lon="6.69284">
        <ele>365</ele>
        <time>2015-06-28T09:04:54.000Z</time>
      </trkpt>
      <trkpt lat="47.45002" lon="6.69286">
        <ele>365</ele>
        <time>2015-06-28T09:04:55.000Z</time>
      </trkpt>
      <trkpt lat="47.45" lon="6.69291">
        <ele>365</ele>
        <time>2015-06-28T09:04:58.000Z</time>
      </trkpt>
      <trkpt lat="47.45" lon="6.69293">
        <ele>380</ele>
        <time>2015-06-28T09:04:59.000Z</time>
      </trkpt>
      <trkpt lat="47.44999" lon="6.69298">
        <ele>380</ele>
        <time>2015-06-28T09:05:02.000Z</time>
      </trkpt>
      <trkpt lat="47.44999" lon="6.693">
        <ele>380</ele>
        <time>2015-06-28T09:05:03.000Z</time>
      </trkpt>
      <trkpt lat="47.44998" lon="6.69305">
        <ele>381</ele>
        <time>2015-06-28T09:05:06.000Z</time>
      </trkpt>
      <trkpt lat="47.44998" lon="6.69306">
        <ele>381</ele>
        <time>2015-06-28T09:05:07.000Z</time>
      </trkpt>
      <trkpt lat="47.44997" lon="6.69311">
        <ele>381</ele>
        <time>2015-06-28T09:05:10.000Z</time>
      </trkpt>
      <trkpt lat="47.44997" lon="6.69314">
        <ele>381</ele>
        <time>2015-06-28T09:05:11.000Z</time>
      </trkpt>
      <trkpt lat="47.44996" lon="6.69319">
        <ele>381</ele>
        <time>2015-06-28T09:05:13.000Z</time>
      </trkpt>
      <trkpt lat="47.44996" lon="6.69321">
        <ele>382</ele>
        <time>2015-06-28T09:05:14.000Z</time>
      </trkpt>
      <trkpt lat="47.44996" lon="6.69326">
        <ele>382</ele>
        <time>2015-06-28T09:05:17.000Z</time>
      </trkpt>
      <trkpt lat="47.44996" lon="6.69328">
        <ele>382</ele>
        <time>2015-06-28T09:05:18.000Z</time>
      </trkpt>
      <trkpt lat="47.44994" lon="6.69334">
        <ele>383</ele>
        <time>2015-06-28T09:05:23.000Z</time>
      </trkpt>
      <trkpt lat="47.44994" lon="6.69334">
        <ele>383</ele>
        <time>2015-06-28T09:05:24.000Z</time>
      </trkpt>
      <trkpt lat="47.44994" lon="6.6934">
        <ele>384</ele>
        <time>2015-06-28T09:05:31.000Z</time>
      </trkpt>
      <trkpt lat="47.44994" lon="6.69341">
        <ele>384</ele>
        <time>2015-06-28T09:05:32.000Z</time>
      </trkpt>
      <trkpt lat="47.44994" lon="6.69348">
        <ele>385</ele>
        <time>2015-06-28T09:05:34.000Z</time>
      </trkpt>
      <trkpt lat="47.44994" lon="6.6935">
        <ele>385</ele>
        <time>2015-06-28T09:05:35.000Z</time>
      </trkpt>
      <trkpt lat="47.44994" lon="6.69356">
        <ele>386</ele>
        <time>2015-06-28T09:05:45.000Z</time>
      </trkpt>
      <trkpt lat="47.44993" lon="6.69357">
        <ele>386</ele>
        <time>2015-06-28T09:05:46.000Z</time>
      </trkpt>
      <trkpt lat="47.44994" lon="6.69363">
        <ele>386</ele>
        <time>2015-06-28T09:05:49.000Z</time>
      </trkpt>
      <trkpt lat="47.44994" lon="6.69364">
        <ele>387</ele>
        <time>2015-06-28T09:05:50.000Z</time>
      </trkpt>
      <trkpt lat="47.44993" lon="6.6937">
        <ele>387</ele>
        <time>2015-06-28T09:05:58.000Z</time>
      </trkpt>
      <trkpt lat="47.44992" lon="6.69371">
        <ele>387</ele>
        <time>2015-06-28T09:05:59.000Z</time>
      </trkpt>
      <trkpt lat="47.44991" lon="6.69377">
        <ele>387</ele>
        <time>2015-06-28T09:06:09.000Z</time>
      </trkpt>
      <trkpt lat="47.44991" lon="6.69377">
        <ele>387</ele>
        <time>2015-06-28T09:06:10.000Z</time>
      </trkpt>
      <trkpt lat="47.44988" lon="6.69382">
        <ele>388</ele>
        <time>2015-06-28T09:06:24.000Z</time>
      </trkpt>
      <trkpt lat="47.44987" lon="6.69383">
        <ele>388</ele>
        <time>2015-06-28T09:06:25.000Z</time>
      </trkpt>
      <trkpt lat="47.44984" lon="6.69386">
        <ele>388</ele>
        <time>2015-06-28T09:06:29.000Z</time>
      </trkpt>
      <trkpt lat="47.44983" lon="6.69387">
        <ele>388</ele>
        <time>2015-06-28T09:06:30.000Z</time>
      </trkpt>
      <trkpt lat="47.4498" lon="6.6939">
        <ele>388</ele>
        <time>2015-06-28T09:06:36.000Z</time>
      </trkpt>
      <trkpt lat="47.44979" lon="6.69391">
        <ele>388</ele>
        <time>2015-06-28T09:06:37.000Z</time>
      </trkpt>
      <trkpt lat="47.44976" lon="6.69394">
        <ele>388</ele>
        <time>2015-06-28T09:06:41.000Z</time>
      </trkpt>
      <trkpt lat="47.44976" lon="6.69395">
        <ele>388</ele>
        <time>2015-06-28T09:06:42.000Z</time>
      </trkpt>
      <trkpt lat="47.44974" lon="6.69401">
        <ele>389</ele>
        <time>2015-06-28T09:06:46.000Z</time>
      </trkpt>
      <trkpt lat="47.44974" lon="6.69402">
        <ele>389</ele>
        <time>2015-06-28T09:06:47.000Z</time>
      </trkpt>
      <trkpt lat="47.44971" lon="6.69407">
        <ele>389</ele>
        <time>2015-06-28T09:07:28.000Z</time>
      </trkpt>
      <trkpt lat="47.44971" lon="6.69407">
        <ele>389</ele>
        <time>2015-06-28T09:07:29.000Z</time>
      </trkpt>
      <trkpt lat="47.44968" lon="6.69411">
        <ele>389</ele>
        <time>2015-06-28T09:07:33.000Z</time>
      </trkpt>
      <trkpt lat="47.44967" lon="6.69411">
        <ele>389</ele>
        <time>2015-06-28T09:07:34.000Z</time>
      </trkpt>
      <trkpt lat="47.44963" lon="6.69411">
        <ele>389</ele>
        <time>2015-06-28T09:07:40.000Z</time>
      </trkpt>
      <trkpt lat="47.44962" lon="6.69411">
        <ele>389</ele>
        <time>2015-06-28T09:07:41.000Z</time>
      </trkpt>
      <trkpt lat="47.44958" lon="6.69413">
        <ele>389</ele>
        <time>2015-06-28T09:07:48.000Z</time>
      </trkpt>
      <trkpt lat="47.44957" lon="6.69413">
        <ele>389</ele>
        <time>2015-06-28T09:07:49.000Z</time>
      </trkpt>
      <trkpt lat="47.44953" lon="6.69415">
        <ele>389</ele>
        <time>2015-06-28T09:07:56.000Z</time>
      </trkpt>
      <trkpt lat="47.44952" lon="6.69415">
        <ele>390</ele>
        <time>2015-06-28T09:07:57.000Z</time>
      </trkpt>
      <trkpt lat="47.4495" lon="6.6942">
        <ele>394</ele>
        <time>2015-06-28T09:08:01.000Z</time>
      </trkpt>
      <trkpt lat="47.4495" lon="6.69422">
        <ele>394</ele>
        <time>2015-06-28T09:08:02.000Z</time>
      </trkpt>
      <trkpt lat="47.44948" lon="6.69427">
        <ele>394</ele>
        <time>2015-06-28T09:08:05.000Z</time>
      </trkpt>
      <trkpt lat="47.44947" lon="6.69428">
        <ele>394</ele>
        <time>2015-06-28T09:08:06.000Z</time>
      </trkpt>
      <trkpt lat="47.44944" lon="6.69431">
        <ele>395</ele>
        <time>2015-06-28T09:08:09.000Z</time>
      </trkpt>
      <trkpt lat="47.44943" lon="6.69433">
        <ele>395</ele>
        <time>2015-06-28T09:08:10.000Z</time>
      </trkpt>
      <trkpt lat="47.44943" lon="6.69437">
        <ele>395</ele>
        <time>2015-06-28T09:08:12.000Z</time>
      </trkpt>
      <trkpt lat="47.44942" lon="6.69439">
        <ele>395</ele>
        <time>2015-06-28T09:08:13.000Z</time>
      </trkpt>
      <trkpt lat="47.4494" lon="6.69444">
        <ele>395</ele>
        <time>2015-06-28T09:08:17.000Z</time>
      </trkpt>
      <trkpt lat="47.4494" lon="6.69445">
        <ele>395</ele>
        <time>2015-06-28T09:08:18.000Z</time>
      </trkpt>
      <trkpt lat="47.44937" lon="6.69449">
        <ele>396</ele>
        <time>2015-06-28T09:08:23.000Z</time>
      </trkpt>
      <trkpt lat="47.44935" lon="6.6945">
        <ele>396</ele>
        <time>2015-06-28T09:08:24.000Z</time>
      </trkpt>
      <trkpt lat="47.44933" lon="6.69452">
        <ele>396</ele>
        <time>2015-06-28T09:08:27.000Z</time>
      </trkpt>
      <trkpt lat="47.44932" lon="6.69454">
        <ele>396</ele>
        <time>2015-06-28T09:08:28.000Z</time>
      </trkpt>
      <trkpt lat="47.4493" lon="6.69458">
        <ele>396</ele>
        <time>2015-06-28T09:08:32.000Z</time>
      </trkpt>
      <trkpt lat="47.4493" lon="6.6946">
        <ele>396</ele>
        <time>2015-06-28T09:08:33.000Z</time>
      </trkpt>
      <trkpt lat="47.44929" lon="6.69465">
        <ele>397</ele>
        <time>2015-06-28T09:08:37.000Z</time>
      </trkpt>
      <trkpt lat="47.44928" lon="6.69466">
        <ele>397</ele>
        <time>2015-06-28T09:08:38.000Z</time>
      </trkpt>
      <trkpt lat="47.44926" lon="6.69472">
        <ele>397</ele>
        <time>2015-06-28T09:08:45.000Z</time>
      </trkpt>
      <trkpt lat="47.44925" lon="6.69474">
        <ele>398</ele>
        <time>2015-06-28T09:08:46.000Z</time>
      </trkpt>
      <trkpt lat="47.44924" lon="6.69479">
        <ele>398</ele>
        <time>2015-06-28T09:08:48.000Z</time>
      </trkpt>
      <trkpt lat="47.44923" lon="6.69481">
        <ele>399</ele>
        <time>2015-06-28T09:08:49.000Z</time>
      </trkpt>
      <trkpt lat="47.44922" lon="6.69485">
        <ele>399</ele>
        <time>2015-06-28T09:08:51.000Z</time>
      </trkpt>
      <trkpt lat="47.44922" lon="6.69487">
        <ele>399</ele>
        <time>2015-06-28T09:08:52.000Z</time>
      </trkpt>
      <trkpt lat="47.44921" lon="6.69492">
        <ele>400</ele>
        <time>2015-06-28T09:08:54.000Z</time>
      </trkpt>
      <trkpt lat="47.4492" lon="6.69494">
        <ele>400</ele>
        <time>2015-06-28T09:08:55.000Z</time>
      </trkpt>
      <trkpt lat="47.44918" lon="6.69499">
        <ele>402</ele>
        <time>2015-06-28T09:08:58.000Z</time>
      </trkpt>
      <trkpt lat="47.44918" lon="6.69502">
        <ele>402</ele>
        <time>2015-06-28T09:08:59.000Z</time>
      </trkpt>
      <trkpt lat="47.44916" lon="6.69508">
        <ele>403</ele>
        <time>2015-06-28T09:09:01.000Z</time>
      </trkpt>
      <trkpt lat="47.44916" lon="6.6951">
        <ele>403</ele>
        <time>2015-06-28T09:09:02.000Z</time>
      </trkpt>
      <trkpt lat="47.44914" lon="6.69516">
        <ele>403</ele>
        <time>2015-06-28T09:09:05.000Z</time>
      </trkpt>
      <trkpt lat="47.44914" lon="6.69518">
        <ele>403</ele>
        <time>2015-06-28T09:09:06.000Z</time>
      </trkpt>
      <trkpt lat="47.44913" lon="6.69522">
        <ele>404</ele>
        <time>2015-06-28T09:09:08.000Z</time>
      </trkpt>
      <trkpt lat="47.44912" lon="6.69525">
        <ele>404</ele>
        <time>2015-06-28T09:09:09.000Z</time>
      </trkpt>
      <trkpt lat="47.4491" lon="6.6953">
        <ele>404</ele>
        <time>2015-06-28T09:09:12.000Z</time>
      </trkpt>
      <trkpt lat="47.44909" lon="6.69531">
        <ele>404</ele>
        <time>2015-06-28T09:09:13.000Z</time>
      </trkpt>
      <trkpt lat="47.44907" lon="6.69536">
        <ele>404</ele>
        <time>2015-06-28T09:09:15.000Z</time>
      </trkpt>
      <trkpt lat="47.44906" lon="6.69538">
        <ele>404</ele>
        <time>2015-06-28T09:09:16.000Z</time>
      </trkpt>
      <trkpt lat="47.44903" lon="6.69542">
        <ele>404</ele>
        <time>2015-06-28T09:09:19.000Z</time>
      </trkpt>
      <trkpt lat="47.44902" lon="6.69543">
        <ele>405</ele>
        <time>2015-06-28T09:09:20.000Z</time>
      </trkpt>
      <trkpt lat="47.44902" lon="6.69547">
        <ele>405</ele>
        <time>2015-06-28T09:09:22.000Z</time>
      </trkpt>
      <trkpt lat="47.44901" lon="6.6955">
        <ele>405</ele>
        <time>2015-06-28T09:09:23.000Z</time>
      </trkpt>
      <trkpt lat="47.44901" lon="6.69554">
        <ele>405</ele>
        <time>2015-06-28T09:09:24.000Z</time>
      </trkpt>
      <trkpt lat="47.44901" lon="6.69557">
        <ele>405</ele>
        <time>2015-06-28T09:09:25.000Z</time>
      </trkpt>
      <trkpt lat="47.44901" lon="6.69562">
        <ele>405</ele>
        <time>2015-06-28T09:09:27.000Z</time>
      </trkpt>
      <trkpt lat="47.44901" lon="6.69564">
        <ele>405</ele>
        <time>2015-06-28T09:09:28.000Z</time>
      </trkpt>
      <trkpt lat="47.44898" lon="6.69568">
        <ele>406</ele>
        <time>2015-06-28T09:09:32.000Z</time>
      </trkpt>
      <trkpt lat="47.44897" lon="6.69571">
        <ele>406</ele>
        <time>2015-06-28T09:09:33.000Z</time>
      </trkpt>
      <trkpt lat="47.44896" lon="6.69575">
        <ele>406</ele>
        <time>2015-06-28T09:09:34.000Z</time>
      </trkpt>
      <trkpt lat="47.44895" lon="6.69579">
        <ele>406</ele>
        <time>2015-06-28T09:09:35.000Z</time>
      </trkpt>
      <trkpt lat="47.44894" lon="6.69585">
        <ele>409</ele>
        <time>2015-06-28T09:09:37.000Z</time>
      </trkpt>
      <trkpt lat="47.44894" lon="6.69587">
        <ele>409</ele>
        <time>2015-06-28T09:09:38.000Z</time>
      </trkpt>
      <trkpt lat="47.44894" lon="6.6959">
        <ele>409</ele>
        <time>2015-06-28T09:09:41.000Z</time>
      </trkpt>
      <trkpt lat="47.44895" lon="6.69594">
        <ele>409</ele>
        <time>2015-06-28T09:09:42.000Z</time>
      </trkpt>
      <trkpt lat="47.44895" lon="6.69597">
        <ele>409</ele>
        <time>2015-06-28T09:09:43.000Z</time>
      </trkpt>
      <trkpt lat="47.44897" lon="6.69601">
        <ele>409</ele>
        <time>2015-06-28T09:09:44.000Z</time>
      </trkpt>
      <trkpt lat="47.44899" lon="6.69607">
        <ele>409</ele>
        <time>2015-06-28T09:09:52.000Z</time>
      </trkpt>
      <trkpt lat="47.44899" lon="6.69607">
        <ele>409</ele>
        <time>2015-06-28T09:09:53.000Z</time>
      </trkpt>
      <trkpt lat="47.44901" lon="6.69612">
        <ele>409</ele>
        <time>2015-06-28T09:09:57.000Z</time>
      </trkpt>
      <trkpt lat="47.44903" lon="6.69613">
        <ele>409</ele>
        <time>2015-06-28T09:09:58.000Z</time>
      </trkpt>
      <trkpt lat="47.44905" lon="6.69616">
        <ele>409</ele>
        <time>2015-06-28T09:10:00.000Z</time>
      </trkpt>
      <trkpt lat="47.44907" lon="6.69617">
        <ele>409</ele>
        <time>2015-06-28T09:10:01.000Z</time>
      </trkpt>
      <trkpt lat="47.44911" lon="6.69619">
        <ele>409</ele>
        <time>2015-06-28T09:10:04.000Z</time>
      </trkpt>
      <trkpt lat="47.44911" lon="6.69619">
        <ele>409</ele>
        <time>2015-06-28T09:10:04.998Z</time>
      </trkpt>
      <trkpt lat="47.44913" lon="6.69625">
        <ele>410</ele>
        <time>2015-06-28T09:10:28.000Z</time>
      </trkpt>
      <trkpt lat="47.44914" lon="6.69625">
        <ele>410</ele>
        <time>2015-06-28T09:10:29.000Z</time>
      </trkpt>
      <trkpt lat="47.44917" lon="6.69624">
        <ele>410</ele>
        <time>2015-06-28T09:10:31.000Z</time>
      </trkpt>
      <trkpt lat="47.44918" lon="6.69623">
        <ele>410</ele>
        <time>2015-06-28T09:10:32.000Z</time>
      </trkpt>
      <trkpt lat="47.44921" lon="6.69623">
        <ele>410</ele>
        <time>2015-06-28T09:10:34.000Z</time>
      </trkpt>
      <trkpt lat="47.44923" lon="6.69623">
        <ele>410</ele>
        <time>2015-06-28T09:10:35.000Z</time>
      </trkpt>
      <trkpt lat="47.44926" lon="6.69624">
        <ele>410</ele>
        <time>2015-06-28T09:10:37.000Z</time>
      </trkpt>
      <trkpt lat="47.44928" lon="6.69624">
        <ele>410</ele>
        <time>2015-06-28T09:10:38.000Z</time>
      </trkpt>
      <trkpt lat="47.44932" lon="6.69626">
        <ele>410</ele>
        <time>2015-06-28T09:10:42.000Z</time>
      </trkpt>
      <trkpt lat="47.44933" lon="6.69626">
        <ele>410</ele>
        <time>2015-06-28T09:10:43.000Z</time>
      </trkpt>
      <trkpt lat="47.44936" lon="6.69628">
        <ele>411</ele>
        <time>2015-06-28T09:10:47.000Z</time>
      </trkpt>
      <trkpt lat="47.44937" lon="6.69629">
        <ele>411</ele>
        <time>2015-06-28T09:10:48.000Z</time>
      </trkpt>
      <trkpt lat="47.44941" lon="6.69631">
        <ele>411</ele>
        <time>2015-06-28T09:10:52.000Z</time>
      </trkpt>
      <trkpt lat="47.44942" lon="6.6963">
        <ele>411</ele>
        <time>2015-06-28T09:10:53.000Z</time>
      </trkpt>
      <trkpt lat="47.44946" lon="6.69628">
        <ele>411</ele>
        <time>2015-06-28T09:11:04.000Z</time>
      </trkpt>
      <trkpt lat="47.44946" lon="6.69628">
        <ele>411</ele>
        <time>2015-06-28T09:11:05.000Z</time>
      </trkpt>
      <trkpt lat="47.44949" lon="6.69633">
        <ele>411</ele>
        <time>2015-06-28T09:11:45.000Z</time>
      </trkpt>
      <trkpt lat="47.4495" lon="6.69632">
        <ele>411</ele>
        <time>2015-06-28T09:11:46.000Z</time>
      </trkpt>
      <trkpt lat="47.44953" lon="6.69631">
        <ele>411</ele>
        <time>2015-06-28T09:11:47.000Z</time>
      </trkpt>
      <trkpt lat="47.44955" lon="6.6963">
        <ele>411</ele>
        <time>2015-06-28T09:11:48.000Z</time>
      </trkpt>
      <trkpt lat="47.44958" lon="6.69632">
        <ele>411</ele>
        <time>2015-06-28T09:11:53.000Z</time>
      </trkpt>
      <trkpt lat="47.44959" lon="6.69633">
        <ele>411</ele>
        <time>2015-06-28T09:11:54.000Z</time>
      </trkpt>
      <trkpt lat="47.4496" lon="6.69637">
        <ele>411</ele>
        <time>2015-06-28T09:11:57.000Z</time>
      </trkpt>
      <trkpt lat="47.44961" lon="6.69639">
        <ele>411</ele>
        <time>2015-06-28T09:11:58.000Z</time>
      </trkpt>
      <trkpt lat="47.44964" lon="6.69642">
        <ele>412</ele>
        <time>2015-06-28T09:11:59.000Z</time>
      </trkpt>
      <trkpt lat="47.44966" lon="6.69646">
        <ele>412</ele>
        <time>2015-06-28T09:12:00.000Z</time>
      </trkpt>
      <trkpt lat="47.44969" lon="6.69649">
        <ele>412</ele>
        <time>2015-06-28T09:12:01.000Z</time>
      </trkpt>
      <trkpt lat="47.44971" lon="6.69651">
        <ele>412</ele>
        <time>2015-06-28T09:12:02.000Z</time>
      </trkpt>
      <trkpt lat="47.44973" lon="6.69655">
        <ele>412</ele>
        <time>2015-06-28T09:12:05.000Z</time>
      </trkpt>
      <trkpt lat="47.44975" lon="6.69657">
        <ele>413</ele>
        <time>2015-06-28T09:12:06.000Z</time>
      </trkpt>
      <trkpt lat="47.44977" lon="6.69661">
        <ele>413</ele>
        <time>2015-06-28T09:12:08.000Z</time>
      </trkpt>
      <trkpt lat="47.44977" lon="6.69664">
        <ele>413</ele>
        <time>2015-06-28T09:12:09.000Z</time>
      </trkpt>
      <trkpt lat="47.44979" lon="6.69669">
        <ele>416</ele>
        <time>2015-06-28T09:12:11.000Z</time>
      </trkpt>
      <trkpt lat="47.4498" lon="6.69671">
        <ele>416</ele>
        <time>2015-06-28T09:12:12.000Z</time>
      </trkpt>
      <trkpt lat="47.44982" lon="6.69676">
        <ele>416</ele>
        <time>2015-06-28T09:12:14.000Z</time>
      </trkpt>
      <trkpt lat="47.44983" lon="6.69679">
        <ele>416</ele>
        <time>2015-06-28T09:12:15.000Z</time>
      </trkpt>
      <trkpt lat="47.44985" lon="6.69684">
        <ele>416</ele>
        <time>2015-06-28T09:12:17.000Z</time>
      </trkpt>
      <trkpt lat="47.44985" lon="6.69687">
        <ele>416</ele>
        <time>2015-06-28T09:12:18.000Z</time>
      </trkpt>
      <trkpt lat="47.44985" lon="6.69693">
        <ele>416</ele>
        <time>2015-06-28T09:12:20.000Z</time>
      </trkpt>
      <trkpt lat="47.44984" lon="6.69696">
        <ele>416</ele>
        <time>2015-06-28T09:12:21.000Z</time>
      </trkpt>
      <trkpt lat="47.44984" lon="6.69702">
        <ele>416</ele>
        <time>2015-06-28T09:12:23.000Z</time>
      </trkpt>
      <trkpt lat="47.44984" lon="6.69705">
        <ele>417</ele>
        <time>2015-06-28T09:12:24.000Z</time>
      </trkpt>
      <trkpt lat="47.44985" lon="6.6971">
        <ele>417</ele>
        <time>2015-06-28T09:12:26.000Z</time>
      </trkpt>
      <trkpt lat="47.44986" lon="6.69712">
        <ele>417</ele>
        <time>2015-06-28T09:12:27.000Z</time>
      </trkpt>
      <trkpt lat="47.44988" lon="6.69717">
        <ele>417</ele>
        <time>2015-06-28T09:12:29.000Z</time>
      </trkpt>
      <trkpt lat="47.4499" lon="6.69719">
        <ele>417</ele>
        <time>2015-06-28T09:12:30.000Z</time>
      </trkpt>
      <trkpt lat="47.44992" lon="6.69725">
        <ele>418</ele>
        <time>2015-06-28T09:12:32.000Z</time>
      </trkpt>
      <trkpt lat="47.44993" lon="6.69728">
        <ele>418</ele>
        <time>2015-06-28T09:12:33.000Z</time>
      </trkpt>
      <trkpt lat="47.44994" lon="6.69731">
        <ele>418</ele>
        <time>2015-06-28T09:12:34.000Z</time>
      </trkpt>
      <trkpt lat="47.44995" lon="6.69736">
        <ele>419</ele>
        <time>2015-06-28T09:12:35.000Z</time>
      </trkpt>
      <trkpt lat="47.44997" lon="6.6974">
        <ele>419</ele>
        <time>2015-06-28T09:12:36.000Z</time>
      </trkpt>
      <trkpt lat="47.44998" lon="6.69744">
        <ele>420</ele>
        <time>2015-06-28T09:12:37.000Z</time>
      </trkpt>
      <trkpt lat="47.45" lon="6.69749">
        <ele>420</ele>
        <time>2015-06-28T09:12:38.000Z</time>
      </trkpt>
      <trkpt lat="47.45002" lon="6.69753">
        <ele>420</ele>
        <time>2015-06-28T09:12:39.000Z</time>
      </trkpt>
      <trkpt lat="47.45005" lon="6.69756">
        <ele>419</ele>
        <time>2015-06-28T09:12:40.000Z</time>
      </trkpt>
      <trkpt lat="47.45008" lon="6.6976">
        <ele>418</ele>
        <time>2015-06-28T09:12:41.000Z</time>
      </trkpt>
      <trkpt lat="47.4501" lon="6.69764">
        <ele>417</ele>
        <time>2015-06-28T09:12:42.000Z</time>
      </trkpt>
      <trkpt lat="47.45012" lon="6.69768">
        <ele>417</ele>
        <time>2015-06-28T09:12:43.000Z</time>
      </trkpt>
      <trkpt lat="47.45014" lon="6.69771">
        <ele>416</ele>
        <time>2015-06-28T09:12:44.000Z</time>
      </trkpt>
      <trkpt lat="47.45015" lon="6.69775">
        <ele>416</ele>
        <time>2015-06-28T09:12:45.000Z</time>
      </trkpt>
      <trkpt lat="47.45016" lon="6.69778">
        <ele>416</ele>
        <time>2015-06-28T09:12:46.000Z</time>
      </trkpt>
      <trkpt lat="47.45017" lon="6.69781">
        <ele>416</ele>
        <time>2015-06-28T09:12:47.000Z</time>
      </trkpt>
      <trkpt lat="47.45019" lon="6.69785">
        <ele>415</ele>
        <time>2015-06-28T09:12:48.000Z</time>
      </trkpt>
      <trkpt lat="47.45022" lon="6.6979">
        <ele>415</ele>
        <time>2015-06-28T09:12:49.000Z</time>
      </trkpt>
      <trkpt lat="47.45025" lon="6.69794">
        <ele>415</ele>
        <time>2015-06-28T09:12:50.000Z</time>
      </trkpt>
      <trkpt lat="47.45027" lon="6.69797">
        <ele>415</ele>
        <time>2015-06-28T09:12:51.000Z</time>
      </trkpt>
      <trkpt lat="47.45029" lon="6.69802">
        <ele>415</ele>
        <time>2015-06-28T09:12:53.000Z</time>
      </trkpt>
      <trkpt lat="47.4503" lon="6.69805">
        <ele>415</ele>
        <time>2015-06-28T09:12:54.000Z</time>
      </trkpt>
      <trkpt lat="47.45031" lon="6.69808">
        <ele>415</ele>
        <time>2015-06-28T09:12:55.000Z</time>
      </trkpt>
      <trkpt lat="47.45032" lon="6.69812">
        <ele>415</ele>
        <time>2015-06-28T09:12:56.000Z</time>
      </trkpt>
      <trkpt lat="47.45033" lon="6.69816">
        <ele>415</ele>
        <time>2015-06-28T09:12:57.000Z</time>
      </trkpt>
      <trkpt lat="47.45034" lon="6.69819">
        <ele>415</ele>
        <time>2015-06-28T09:12:58.000Z</time>
      </trkpt>
      <trkpt lat="47.45035" lon="6.69823">
        <ele>415</ele>
        <time>2015-06-28T09:12:59.000Z</time>
      </trkpt>
      <trkpt lat="47.45036" lon="6.69827">
        <ele>415</ele>
        <time>2015-06-28T09:13:00.000Z</time>
      </trkpt>
      <trkpt lat="47.45036" lon="6.6983">
        <ele>415</ele>
        <time>2015-06-28T09:13:01.000Z</time>
      </trkpt>
      <trkpt lat="47.45038" lon="6.69833">
        <ele>414</ele>
        <time>2015-06-28T09:13:02.000Z</time>
      </trkpt>
      <trkpt lat="47.4504" lon="6.69837">
        <ele>417</ele>
        <time>2015-06-28T09:13:03.000Z</time>
      </trkpt>
      <trkpt lat="47.45042" lon="6.6984">
        <ele>417</ele>
        <time>2015-06-28T09:13:04.000Z</time>
      </trkpt>
      <trkpt lat="47.45044" lon="6.69843">
        <ele>417</ele>
        <time>2015-06-28T09:13:05.000Z</time>
      </trkpt>
      <trkpt lat="47.45046" lon="6.69847">
        <ele>417</ele>
        <time>2015-06-28T09:13:06.000Z</time>
      </trkpt>
      <trkpt lat="47.45047" lon="6.69852">
        <ele>417</ele>
        <time>2015-06-28T09:13:07.000Z</time>
      </trkpt>
      <trkpt lat="47.45049" lon="6.69856">
        <ele>417</ele>
        <time>2015-06-28T09:13:08.000Z</time>
      </trkpt>
      <trkpt lat="47.4505" lon="6.6986">
        <ele>417</ele>
        <time>2015-06-28T09:13:09.000Z</time>
      </trkpt>
      <trkpt lat="47.45052" lon="6.69864">
        <ele>417</ele>
        <time>2015-06-28T09:13:10.000Z</time>
      </trkpt>
      <trkpt lat="47.45053" lon="6.69868">
        <ele>417</ele>
        <time>2015-06-28T09:13:11.000Z</time>
      </trkpt>
      <trkpt lat="47.45055" lon="6.69872">
        <ele>417</ele>
        <time>2015-06-28T09:13:12.000Z</time>
      </trkpt>
      <trkpt lat="47.45057" lon="6.69876">
        <ele>418</ele>
        <time>2015-06-28T09:13:13.000Z</time>
      </trkpt>
      <trkpt lat="47.45059" lon="6.6988">
        <ele>418</ele>
        <time>2015-06-28T09:13:14.000Z</time>
      </trkpt>
      <trkpt lat="47.45061" lon="6.69884">
        <ele>418</ele>
        <time>2015-06-28T09:13:15.000Z</time>
      </trkpt>
      <trkpt lat="47.45064" lon="6.69888">
        <ele>418</ele>
        <time>2015-06-28T09:13:16.000Z</time>
      </trkpt>
      <trkpt lat="47.45065" lon="6.69892">
        <ele>418</ele>
        <time>2015-06-28T09:13:17.000Z</time>
      </trkpt>
      <trkpt lat="47.45066" lon="6.69896">
        <ele>419</ele>
        <time>2015-06-28T09:13:18.000Z</time>
      </trkpt>
      <trkpt lat="47.45066" lon="6.699">
        <ele>419</ele>
        <time>2015-06-28T09:13:19.000Z</time>
      </trkpt>
      <trkpt lat="47.45067" lon="6.69904">
        <ele>419</ele>
        <time>2015-06-28T09:13:20.000Z</time>
      </trkpt>
      <trkpt lat="47.45069" lon="6.69908">
        <ele>419</ele>
        <time>2015-06-28T09:13:21.000Z</time>
      </trkpt>
      <trkpt lat="47.4507" lon="6.69913">
        <ele>420</ele>
        <time>2015-06-28T09:13:22.000Z</time>
      </trkpt>
      <trkpt lat="47.45072" lon="6.69917">
        <ele>422</ele>
        <time>2015-06-28T09:13:23.000Z</time>
      </trkpt>
      <trkpt lat="47.45074" lon="6.69922">
        <ele>422</ele>
        <time>2015-06-28T09:13:24.000Z</time>
      </trkpt>
      <trkpt lat="47.45076" lon="6.69927">
        <ele>422</ele>
        <time>2015-06-28T09:13:25.000Z</time>
      </trkpt>
      <trkpt lat="47.45079" lon="6.69933">
        <ele>422</ele>
        <time>2015-06-28T09:13:26.000Z</time>
      </trkpt>
      <trkpt lat="47.45081" lon="6.69938">
        <ele>422</ele>
        <time>2015-06-28T09:13:27.000Z</time>
      </trkpt>
      <trkpt lat="47.45083" lon="6.69944">
        <ele>422</ele>
        <time>2015-06-28T09:13:28.000Z</time>
      </trkpt>
      <trkpt lat="47.45084" lon="6.69949">
        <ele>419</ele>
        <time>2015-06-28T09:13:29.000Z</time>
      </trkpt>
      <trkpt lat="47.45084" lon="6.69953">
        <ele>419</ele>
        <time>2015-06-28T09:13:30.000Z</time>
      </trkpt>
      <trkpt lat="47.45084" lon="6.69957">
        <ele>419</ele>
        <time>2015-06-28T09:13:31.000Z</time>
      </trkpt>
      <trkpt lat="47.45085" lon="6.6996">
        <ele>419</ele>
        <time>2015-06-28T09:13:32.000Z</time>
      </trkpt>
      <trkpt lat="47.45087" lon="6.69964">
        <ele>419</ele>
        <time>2015-06-28T09:13:33.000Z</time>
      </trkpt>
      <trkpt lat="47.45088" lon="6.69967">
        <ele>420</ele>
        <time>2015-06-28T09:13:34.000Z</time>
      </trkpt>
      <trkpt lat="47.4509" lon="6.69972">
        <ele>420</ele>
        <time>2015-06-28T09:13:35.000Z</time>
      </trkpt>
      <trkpt lat="47.45092" lon="6.69977">
        <ele>420</ele>
        <time>2015-06-28T09:13:36.000Z</time>
      </trkpt>
      <trkpt lat="47.45094" lon="6.69982">
        <ele>421</ele>
        <time>2015-06-28T09:13:37.000Z</time>
      </trkpt>
      <trkpt lat="47.45096" lon="6.69987">
        <ele>421</ele>
        <time>2015-06-28T09:13:38.000Z</time>
      </trkpt>
      <trkpt lat="47.45098" lon="6.69991">
        <ele>422</ele>
        <time>2015-06-28T09:13:39.000Z</time>
      </trkpt>
      <trkpt lat="47.45099" lon="6.69997">
        <ele>422</ele>
        <time>2015-06-28T09:13:41.000Z</time>
      </trkpt>
      <trkpt lat="47.45099" lon="6.69999">
        <ele>422</ele>
        <time>2015-06-28T09:13:42.000Z</time>
      </trkpt>
      <trkpt lat="47.45099" lon="6.70004">
        <ele>425</ele>
        <time>2015-06-28T09:13:44.000Z</time>
      </trkpt>
      <trkpt lat="47.451" lon="6.70006">
        <ele>425</ele>
        <time>2015-06-28T09:13:45.000Z</time>
      </trkpt>
      <trkpt lat="47.451" lon="6.7001">
        <ele>425</ele>
        <time>2015-06-28T09:13:46.000Z</time>
      </trkpt>
      <trkpt lat="47.45101" lon="6.70014">
        <ele>425</ele>
        <time>2015-06-28T09:13:47.000Z</time>
      </trkpt>
      <trkpt lat="47.45101" lon="6.70017">
        <ele>425</ele>
        <time>2015-06-28T09:13:48.000Z</time>
      </trkpt>
      <trkpt lat="47.45101" lon="6.70021">
        <ele>425</ele>
        <time>2015-06-28T09:13:49.000Z</time>
      </trkpt>
      <trkpt lat="47.45101" lon="6.70027">
        <ele>425</ele>
        <time>2015-06-28T09:13:51.000Z</time>
      </trkpt>
      <trkpt lat="47.45102" lon="6.70029">
        <ele>425</ele>
        <time>2015-06-28T09:13:52.000Z</time>
      </trkpt>
      <trkpt lat="47.45103" lon="6.70034">
        <ele>425</ele>
        <time>2015-06-28T09:13:54.000Z</time>
      </trkpt>
      <trkpt lat="47.45103" lon="6.70036">
        <ele>425</ele>
        <time>2015-06-28T09:13:55.000Z</time>
      </trkpt>
      <trkpt lat="47.45104" lon="6.70042">
        <ele>425</ele>
        <time>2015-06-28T09:13:58.000Z</time>
      </trkpt>
      <trkpt lat="47.45104" lon="6.70044">
        <ele>425</ele>
        <time>2015-06-28T09:13:59.000Z</time>
      </trkpt>
      <trkpt lat="47.45104" lon="6.7005">
        <ele>425</ele>
        <time>2015-06-28T09:14:02.000Z</time>
      </trkpt>
      <trkpt lat="47.45104" lon="6.70051">
        <ele>425</ele>
        <time>2015-06-28T09:14:03.000Z</time>
      </trkpt>
      <trkpt lat="47.45103" lon="6.70058">
        <ele>425</ele>
        <time>2015-06-28T09:14:07.000Z</time>
      </trkpt>
      <trkpt lat="47.45103" lon="6.7006">
        <ele>425</ele>
        <time>2015-06-28T09:14:08.000Z</time>
      </trkpt>
      <trkpt lat="47.45102" lon="6.70066">
        <ele>425</ele>
        <time>2015-06-28T09:14:12.000Z</time>
      </trkpt>
      <trkpt lat="47.45101" lon="6.70068">
        <ele>425</ele>
        <time>2015-06-28T09:14:13.000Z</time>
      </trkpt>
      <trkpt lat="47.451" lon="6.70074">
        <ele>426</ele>
        <time>2015-06-28T09:14:15.000Z</time>
      </trkpt>
      <trkpt lat="47.451" lon="6.70077">
        <ele>426</ele>
        <time>2015-06-28T09:14:16.000Z</time>
      </trkpt>
      <trkpt lat="47.45101" lon="6.70081">
        <ele>426</ele>
        <time>2015-06-28T09:14:17.000Z</time>
      </trkpt>
      <trkpt lat="47.45102" lon="6.70085">
        <ele>427</ele>
        <time>2015-06-28T09:14:18.000Z</time>
      </trkpt>
      <trkpt lat="47.45103" lon="6.7009">
        <ele>427</ele>
        <time>2015-06-28T09:14:19.000Z</time>
      </trkpt>
      <trkpt lat="47.45104" lon="6.70094">
        <ele>427</ele>
        <time>2015-06-28T09:14:20.000Z</time>
      </trkpt>
      <trkpt lat="47.45106" lon="6.701">
        <ele>427</ele>
        <time>2015-06-28T09:14:22.000Z</time>
      </trkpt>
      <trkpt lat="47.45106" lon="6.70102">
        <ele>427</ele>
        <time>2015-06-28T09:14:23.000Z</time>
      </trkpt>
      <trkpt lat="47.45107" lon="6.70108">
        <ele>427</ele>
        <time>2015-06-28T09:14:25.000Z</time>
      </trkpt>
      <trkpt lat="47.45108" lon="6.7011">
        <ele>427</ele>
        <time>2015-06-28T09:14:26.000Z</time>
      </trkpt>
      <trkpt lat="47.45111" lon="6.70112">
        <ele>427</ele>
        <time>2015-06-28T09:14:28.000Z</time>
      </trkpt>
      <trkpt lat="47.45113" lon="6.70113">
        <ele>427</ele>
        <time>2015-06-28T09:14:29.000Z</time>
      </trkpt>
      <trkpt lat="47.45115" lon="6.70114">
        <ele>427</ele>
        <time>2015-06-28T09:14:30.000Z</time>
      </trkpt>
      <trkpt lat="47.45117" lon="6.70116">
        <ele>427</ele>
        <time>2015-06-28T09:14:31.000Z</time>
      </trkpt>
      <trkpt lat="47.45121" lon="6.70119">
        <ele>427</ele>
        <time>2015-06-28T09:14:33.000Z</time>
      </trkpt>
      <trkpt lat="47.45122" lon="6.70121">
        <ele>427</ele>
        <time>2015-06-28T09:14:34.000Z</time>
      </trkpt>
      <trkpt lat="47.45125" lon="6.70124">
        <ele>427</ele>
        <time>2015-06-28T09:14:39.000Z</time>
      </trkpt>
      <trkpt lat="47.45125" lon="6.70125">
        <ele>427</ele>
        <time>2015-06-28T09:14:40.000Z</time>
      </trkpt>
      <trkpt lat="47.45128" lon="6.70127">
        <ele>427</ele>
        <time>2015-06-28T09:14:42.998Z</time>
      </trkpt>
      <trkpt lat="47.45129" lon="6.7013">
        <ele>427</ele>
        <time>2015-06-28T09:14:44.000Z</time>
      </trkpt>
      <trkpt lat="47.45132" lon="6.70135">
        <ele>427</ele>
        <time>2015-06-28T09:14:55.000Z</time>
      </trkpt>
      <trkpt lat="47.45132" lon="6.70135">
        <ele>427</ele>
        <time>2015-06-28T09:14:56.000Z</time>
      </trkpt>
      <trkpt lat="47.45134" lon="6.70137">
        <ele>427</ele>
        <time>2015-06-28T09:15:05.000Z</time>
      </trkpt>
      <trkpt lat="47.45136" lon="6.70139">
        <ele>427</ele>
        <time>2015-06-28T09:15:06.000Z</time>
      </trkpt>
      <trkpt lat="47.45138" lon="6.70142">
        <ele>427</ele>
        <time>2015-06-28T09:15:07.000Z</time>
      </trkpt>
      <trkpt lat="47.45141" lon="6.70145">
        <ele>427</ele>
        <time>2015-06-28T09:15:08.000Z</time>
      </trkpt>
      <trkpt lat="47.45145" lon="6.70149">
        <ele>427</ele>
        <time>2015-06-28T09:15:09.000Z</time>
      </trkpt>
      <trkpt lat="47.45149" lon="6.70153">
        <ele>427</ele>
        <time>2015-06-28T09:15:10.000Z</time>
      </trkpt>
      <trkpt lat="47.45154" lon="6.70157">
        <ele>428</ele>
        <time>2015-06-28T09:15:11.000Z</time>
      </trkpt>
      <trkpt lat="47.45159" lon="6.7016">
        <ele>428</ele>
        <time>2015-06-28T09:15:12.000Z</time>
      </trkpt>
      <trkpt lat="47.45163" lon="6.7016">
        <ele>428</ele>
        <time>2015-06-28T09:15:13.000Z</time>
      </trkpt>
      <trkpt lat="47.45166" lon="6.70159">
        <ele>428</ele>
        <time>2015-06-28T09:15:14.000Z</time>
      </trkpt>
      <trkpt lat="47.45169" lon="6.70156">
        <ele>426</ele>
        <time>2015-06-28T09:15:15.000Z</time>
      </trkpt>
      <trkpt lat="47.45172" lon="6.70154">
        <ele>425</ele>
        <time>2015-06-28T09:15:16.000Z</time>
      </trkpt>
      <trkpt lat="47.45174" lon="6.70152">
        <ele>425</ele>
        <time>2015-06-28T09:15:17.000Z</time>
      </trkpt>
      <trkpt lat="47.45176" lon="6.70151">
        <ele>425</ele>
        <time>2015-06-28T09:15:18.000Z</time>
      </trkpt>
      <trkpt lat="47.4518" lon="6.7015">
        <ele>424</ele>
        <time>2015-06-28T09:15:20.000Z</time>
      </trkpt>
      <trkpt lat="47.45181" lon="6.7015">
        <ele>424</ele>
        <time>2015-06-28T09:15:21.000Z</time>
      </trkpt>
      <trkpt lat="47.45185" lon="6.7015">
        <ele>424</ele>
        <time>2015-06-28T09:15:23.000Z</time>
      </trkpt>
      <trkpt lat="47.45186" lon="6.7015">
        <ele>424</ele>
        <time>2015-06-28T09:15:24.000Z</time>
      </trkpt>
      <trkpt lat="47.4519" lon="6.70153">
        <ele>424</ele>
        <time>2015-06-28T09:15:28.000Z</time>
      </trkpt>
      <trkpt lat="47.45191" lon="6.70154">
        <ele>424</ele>
        <time>2015-06-28T09:15:29.000Z</time>
      </trkpt>
      <trkpt lat="47.45194" lon="6.70155">
        <ele>423</ele>
        <time>2015-06-28T09:15:32.000Z</time>
      </trkpt>
      <trkpt lat="47.45195" lon="6.70156">
        <ele>423</ele>
        <time>2015-06-28T09:15:33.000Z</time>
      </trkpt>
      <trkpt lat="47.45199" lon="6.70156">
        <ele>423</ele>
        <time>2015-06-28T09:15:35.000Z</time>
      </trkpt>
      <trkpt lat="47.45201" lon="6.70156">
        <ele>423</ele>
        <time>2015-06-28T09:15:36.000Z</time>
      </trkpt>
      <trkpt lat="47.45204" lon="6.70157">
        <ele>422</ele>
        <time>2015-06-28T09:15:38.000Z</time>
      </trkpt>
      <trkpt lat="47.45206" lon="6.70157">
        <ele>422</ele>
        <time>2015-06-28T09:15:39.000Z</time>
      </trkpt>
      <trkpt lat="47.4521" lon="6.70155">
        <ele>422</ele>
        <time>2015-06-28T09:15:43.000Z</time>
      </trkpt>
      <trkpt lat="47.45211" lon="6.70154">
        <ele>422</ele>
        <time>2015-06-28T09:15:44.000Z</time>
      </trkpt>
      <trkpt lat="47.45215" lon="6.70152">
        <ele>422</ele>
        <time>2015-06-28T09:15:51.000Z</time>
      </trkpt>
      <trkpt lat="47.45215" lon="6.70152">
        <ele>422</ele>
        <time>2015-06-28T09:15:52.000Z</time>
      </trkpt>
      <trkpt lat="47.45217" lon="6.70152">
        <ele>421</ele>
        <time>2015-06-28T09:16:17.000Z</time>
      </trkpt>
      <trkpt lat="47.45222" lon="6.70154">
        <ele>421</ele>
        <time>2015-06-28T09:16:18.000Z</time>
      </trkpt>
      <trkpt lat="47.45225" lon="6.70156">
        <ele>421</ele>
        <time>2015-06-28T09:16:19.000Z</time>
      </trkpt>
      <trkpt lat="47.4523" lon="6.70158">
        <ele>421</ele>
        <time>2015-06-28T09:16:20.000Z</time>
      </trkpt>
      <trkpt lat="47.45235" lon="6.70161">
        <ele>420</ele>
        <time>2015-06-28T09:16:21.000Z</time>
      </trkpt>
      <trkpt lat="47.4524" lon="6.70164">
        <ele>420</ele>
        <time>2015-06-28T09:16:22.000Z</time>
      </trkpt>
      <trkpt lat="47.45245" lon="6.70166">
        <ele>419</ele>
        <time>2015-06-28T09:16:23.000Z</time>
      </trkpt>
      <trkpt lat="47.4525" lon="6.7017">
        <ele>420</ele>
        <time>2015-06-28T09:16:24.000Z</time>
      </trkpt>
      <trkpt lat="47.45253" lon="6.70173">
        <ele>417</ele>
        <time>2015-06-28T09:16:25.000Z</time>
      </trkpt>
      <trkpt lat="47.45256" lon="6.70177">
        <ele>417</ele>
        <time>2015-06-28T09:16:26.000Z</time>
      </trkpt>
      <trkpt lat="47.45258" lon="6.70181">
        <ele>416</ele>
        <time>2015-06-28T09:16:27.000Z</time>
      </trkpt>
      <trkpt lat="47.45259" lon="6.70185">
        <ele>416</ele>
        <time>2015-06-28T09:16:28.000Z</time>
      </trkpt>
      <trkpt lat="47.45261" lon="6.70189">
        <ele>416</ele>
        <time>2015-06-28T09:16:31.000Z</time>
      </trkpt>
      <trkpt lat="47.45262" lon="6.70191">
        <ele>415</ele>
        <time>2015-06-28T09:16:32.000Z</time>
      </trkpt>
      <trkpt lat="47.45262" lon="6.70197">
        <ele>415</ele>
        <time>2015-06-28T09:16:36.000Z</time>
      </trkpt>
      <trkpt lat="47.45262" lon="6.70199">
        <ele>415</ele>
        <time>2015-06-28T09:16:37.000Z</time>
      </trkpt>
      <trkpt lat="47.45264" lon="6.70204">
        <ele>415</ele>
        <time>2015-06-28T09:16:40.000Z</time>
      </trkpt>
      <trkpt lat="47.45265" lon="6.70207">
        <ele>415</ele>
        <time>2015-06-28T09:16:41.000Z</time>
      </trkpt>
      <trkpt lat="47.45266" lon="6.70212">
        <ele>415</ele>
        <time>2015-06-28T09:16:43.000Z</time>
      </trkpt>
      <trkpt lat="47.45266" lon="6.70215">
        <ele>415</ele>
        <time>2015-06-28T09:16:44.000Z</time>
      </trkpt>
      <trkpt lat="47.45267" lon="6.70218">
        <ele>415</ele>
        <time>2015-06-28T09:16:45.000Z</time>
      </trkpt>
      <trkpt lat="47.45269" lon="6.70222">
        <ele>415</ele>
        <time>2015-06-28T09:16:46.000Z</time>
      </trkpt>
      <trkpt lat="47.45271" lon="6.70226">
        <ele>415</ele>
        <time>2015-06-28T09:16:47.000Z</time>
      </trkpt>
      <trkpt lat="47.45272" lon="6.7023">
        <ele>416</ele>
        <time>2015-06-28T09:16:48.000Z</time>
      </trkpt>
      <trkpt lat="47.45273" lon="6.70234">
        <ele>416</ele>
        <time>2015-06-28T09:16:49.000Z</time>
      </trkpt>
      <trkpt lat="47.45273" lon="6.70238">
        <ele>416</ele>
        <time>2015-06-28T09:16:50.000Z</time>
      </trkpt>
      <trkpt lat="47.45273" lon="6.70241">
        <ele>416</ele>
        <time>2015-06-28T09:16:51.000Z</time>
      </trkpt>
      <trkpt lat="47.45273" lon="6.70245">
        <ele>416</ele>
        <time>2015-06-28T09:16:52.000Z</time>
      </trkpt>
      <trkpt lat="47.45273" lon="6.70249">
        <ele>416</ele>
        <time>2015-06-28T09:16:53.000Z</time>
      </trkpt>
      <trkpt lat="47.45273" lon="6.70254">
        <ele>417</ele>
        <time>2015-06-28T09:16:54.000Z</time>
      </trkpt>
      <trkpt lat="47.45274" lon="6.70259">
        <ele>417</ele>
        <time>2015-06-28T09:16:55.000Z</time>
      </trkpt>
      <trkpt lat="47.45275" lon="6.70263">
        <ele>417</ele>
        <time>2015-06-28T09:16:56.000Z</time>
      </trkpt>
      <trkpt lat="47.45276" lon="6.70269">
        <ele>416</ele>
        <time>2015-06-28T09:16:58.000Z</time>
      </trkpt>
      <trkpt lat="47.45277" lon="6.70271">
        <ele>416</ele>
        <time>2015-06-28T09:16:59.000Z</time>
      </trkpt>
      <trkpt lat="47.45277" lon="6.70277">
        <ele>416</ele>
        <time>2015-06-28T09:17:02.000Z</time>
      </trkpt>
      <trkpt lat="47.45277" lon="6.70279">
        <ele>416</ele>
        <time>2015-06-28T09:17:03.000Z</time>
      </trkpt>
      <trkpt lat="47.45278" lon="6.70283">
        <ele>416</ele>
        <time>2015-06-28T09:17:05.000Z</time>
      </trkpt>
      <trkpt lat="47.45279" lon="6.70286">
        <ele>416</ele>
        <time>2015-06-28T09:17:06.000Z</time>
      </trkpt>
      <trkpt lat="47.4528" lon="6.70291">
        <ele>416</ele>
        <time>2015-06-28T09:17:08.000Z</time>
      </trkpt>
      <trkpt lat="47.45281" lon="6.70294">
        <ele>416</ele>
        <time>2015-06-28T09:17:09.000Z</time>
      </trkpt>
      <trkpt lat="47.45283" lon="6.70298">
        <ele>416</ele>
        <time>2015-06-28T09:17:11.000Z</time>
      </trkpt>
      <trkpt lat="47.45284" lon="6.70301">
        <ele>416</ele>
        <time>2015-06-28T09:17:12.000Z</time>
      </trkpt>
      <trkpt lat="47.45284" lon="6.70307">
        <ele>416</ele>
        <time>2015-06-28T09:17:14.000Z</time>
      </trkpt>
      <trkpt lat="47.45283" lon="6.70309">
        <ele>416</ele>
        <time>2015-06-28T09:17:15.000Z</time>
      </trkpt>
      <trkpt lat="47.45283" lon="6.70312">
        <ele>416</ele>
        <time>2015-06-28T09:17:16.000Z</time>
      </trkpt>
      <trkpt lat="47.45282" lon="6.70316">
        <ele>416</ele>
        <time>2015-06-28T09:17:17.000Z</time>
      </trkpt>
      <trkpt lat="47.45282" lon="6.7032">
        <ele>416</ele>
        <time>2015-06-28T09:17:18.000Z</time>
      </trkpt>
      <trkpt lat="47.45282" lon="6.70323">
        <ele>416</ele>
        <time>2015-06-28T09:17:19.000Z</time>
      </trkpt>
      <trkpt lat="47.45283" lon="6.70328">
        <ele>416</ele>
        <time>2015-06-28T09:17:21.000Z</time>
      </trkpt>
      <trkpt lat="47.45283" lon="6.70331">
        <ele>416</ele>
        <time>2015-06-28T09:17:22.000Z</time>
      </trkpt>
      <trkpt lat="47.45281" lon="6.70336">
        <ele>419</ele>
        <time>2015-06-28T09:17:25.000Z</time>
      </trkpt>
      <trkpt lat="47.45281" lon="6.70338">
        <ele>419</ele>
        <time>2015-06-28T09:17:26.000Z</time>
      </trkpt>
      <trkpt lat="47.45279" lon="6.70342">
        <ele>419</ele>
        <time>2015-06-28T09:17:28.000Z</time>
      </trkpt>
      <trkpt lat="47.45278" lon="6.70344">
        <ele>419</ele>
        <time>2015-06-28T09:17:29.000Z</time>
      </trkpt>
      <trkpt lat="47.45276" lon="6.70348">
        <ele>420</ele>
        <time>2015-06-28T09:17:31.000Z</time>
      </trkpt>
      <trkpt lat="47.45275" lon="6.7035">
        <ele>420</ele>
        <time>2015-06-28T09:17:32.000Z</time>
      </trkpt>
      <trkpt lat="47.45273" lon="6.70356">
        <ele>420</ele>
        <time>2015-06-28T09:17:34.000Z</time>
      </trkpt>
      <trkpt lat="47.45272" lon="6.7036">
        <ele>420</ele>
        <time>2015-06-28T09:17:35.000Z</time>
      </trkpt>
      <trkpt lat="47.45271" lon="6.70363">
        <ele>420</ele>
        <time>2015-06-28T09:17:36.000Z</time>
      </trkpt>
      <trkpt lat="47.4527" lon="6.70366">
        <ele>420</ele>
        <time>2015-06-28T09:17:37.000Z</time>
      </trkpt>
      <trkpt lat="47.45268" lon="6.70372">
        <ele>420</ele>
        <time>2015-06-28T09:17:39.000Z</time>
      </trkpt>
      <trkpt lat="47.45268" lon="6.70374">
        <ele>420</ele>
        <time>2015-06-28T09:17:40.000Z</time>
      </trkpt>
      <trkpt lat="47.45265" lon="6.70378">
        <ele>421</ele>
        <time>2015-06-28T09:17:42.000Z</time>
      </trkpt>
      <trkpt lat="47.45264" lon="6.7038">
        <ele>421</ele>
        <time>2015-06-28T09:17:43.000Z</time>
      </trkpt>
      <trkpt lat="47.45261" lon="6.70382">
        <ele>421</ele>
        <time>2015-06-28T09:17:45.000Z</time>
      </trkpt>
      <trkpt lat="47.45259" lon="6.70383">
        <ele>421</ele>
        <time>2015-06-28T09:17:46.000Z</time>
      </trkpt>
      <trkpt lat="47.45256" lon="6.70384">
        <ele>421</ele>
        <time>2015-06-28T09:17:48.000Z</time>
      </trkpt>
      <trkpt lat="47.45255" lon="6.70385">
        <ele>422</ele>
        <time>2015-06-28T09:17:49.000Z</time>
      </trkpt>
      <trkpt lat="47.45252" lon="6.70386">
        <ele>422</ele>
        <time>2015-06-28T09:17:51.000Z</time>
      </trkpt>
      <trkpt lat="47.4525" lon="6.70387">
        <ele>422</ele>
        <time>2015-06-28T09:17:52.000Z</time>
      </trkpt>
      <trkpt lat="47.45247" lon="6.7039">
        <ele>426</ele>
        <time>2015-06-28T09:17:54.000Z</time>
      </trkpt>
      <trkpt lat="47.45245" lon="6.70391">
        <ele>426</ele>
        <time>2015-06-28T09:17:55.000Z</time>
      </trkpt>
      <trkpt lat="47.45242" lon="6.70395">
        <ele>426</ele>
        <time>2015-06-28T09:17:57.000Z</time>
      </trkpt>
      <trkpt lat="47.4524" lon="6.70396">
        <ele>426</ele>
        <time>2015-06-28T09:17:58.000Z</time>
      </trkpt>
      <trkpt lat="47.45238" lon="6.70398">
        <ele>426</ele>
        <time>2015-06-28T09:17:59.000Z</time>
      </trkpt>
      <trkpt lat="47.45236" lon="6.70399">
        <ele>426</ele>
        <time>2015-06-28T09:18:00.000Z</time>
      </trkpt>
      <trkpt lat="47.45234" lon="6.704">
        <ele>426</ele>
        <time>2015-06-28T09:18:01.000Z</time>
      </trkpt>
      <trkpt lat="47.45231" lon="6.70402">
        <ele>426</ele>
        <time>2015-06-28T09:18:02.000Z</time>
      </trkpt>
      <trkpt lat="47.45229" lon="6.70403">
        <ele>426</ele>
        <time>2015-06-28T09:18:03.000Z</time>
      </trkpt>
      <trkpt lat="47.45226" lon="6.70405">
        <ele>426</ele>
        <time>2015-06-28T09:18:04.000Z</time>
      </trkpt>
      <trkpt lat="47.45223" lon="6.70408">
        <ele>426</ele>
        <time>2015-06-28T09:18:05.000Z</time>
      </trkpt>
      <trkpt lat="47.4522" lon="6.70411">
        <ele>426</ele>
        <time>2015-06-28T09:18:06.000Z</time>
      </trkpt>
      <trkpt lat="47.45217" lon="6.70415">
        <ele>426</ele>
        <time>2015-06-28T09:18:07.000Z</time>
      </trkpt>
      <trkpt lat="47.45215" lon="6.70418">
        <ele>427</ele>
        <time>2015-06-28T09:18:08.000Z</time>
      </trkpt>
      <trkpt lat="47.45212" lon="6.70421">
        <ele>427</ele>
        <time>2015-06-28T09:18:09.000Z</time>
      </trkpt>
      <trkpt lat="47.45208" lon="6.70424">
        <ele>427</ele>
        <time>2015-06-28T09:18:10.000Z</time>
      </trkpt>
      <trkpt lat="47.45195" lon="6.70432">
        <ele>427</ele>
        <time>2015-06-28T09:18:11.000Z</time>
      </trkpt>
      <trkpt lat="47.45186" lon="6.70434">
        <ele>427</ele>
        <time>2015-06-28T09:18:12.000Z</time>
      </trkpt>
      <trkpt lat="47.45176" lon="6.70441">
        <ele>427</ele>
        <time>2015-06-28T09:18:13.000Z</time>
      </trkpt>
      <trkpt lat="47.4517" lon="6.70446">
        <ele>427</ele>
        <time>2015-06-28T09:18:14.000Z</time>
      </trkpt>
      <trkpt lat="47.45159" lon="6.70462">
        <ele>426</ele>
        <time>2015-06-28T09:18:15.000Z</time>
      </trkpt>
      <trkpt lat="47.4515" lon="6.70473">
        <ele>426</ele>
        <time>2015-06-28T09:18:16.000Z</time>
      </trkpt>
      <trkpt lat="47.45144" lon="6.70481">
        <ele>426</ele>
        <time>2015-06-28T09:18:17.000Z</time>
      </trkpt>
      <trkpt lat="47.45137" lon="6.70485">
        <ele>426</ele>
        <time>2015-06-28T09:18:18.000Z</time>
      </trkpt>
      <trkpt lat="47.45134" lon="6.70487">
        <ele>426</ele>
        <time>2015-06-28T09:18:19.000Z</time>
      </trkpt>
      <trkpt lat="47.45128" lon="6.70492">
        <ele>426</ele>
        <time>2015-06-28T09:18:20.000Z</time>
      </trkpt>
      <trkpt lat="47.45121" lon="6.70497">
        <ele>426</ele>
        <time>2015-06-28T09:18:21.000Z</time>
      </trkpt>
      <trkpt lat="47.45114" lon="6.70501">
        <ele>423</ele>
        <time>2015-06-28T09:18:22.000Z</time>
      </trkpt>
      <trkpt lat="47.45107" lon="6.70504">
        <ele>423</ele>
        <time>2015-06-28T09:18:23.000Z</time>
      </trkpt>
      <trkpt lat="47.45099" lon="6.70515">
        <ele>423</ele>
        <time>2015-06-28T09:18:24.000Z</time>
      </trkpt>
      <trkpt lat="47.45089" lon="6.70526">
        <ele>423</ele>
        <time>2015-06-28T09:18:25.000Z</time>
      </trkpt>
      <trkpt lat="47.45083" lon="6.70534">
        <ele>423</ele>
        <time>2015-06-28T09:18:26.000Z</time>
      </trkpt>
      <trkpt lat="47.45076" lon="6.70537">
        <ele>423</ele>
        <time>2015-06-28T09:18:27.000Z</time>
      </trkpt>
      <trkpt lat="47.4507" lon="6.70547">
        <ele>422</ele>
        <time>2015-06-28T09:18:28.000Z</time>
      </trkpt>
      <trkpt lat="47.45066" lon="6.70553">
        <ele>422</ele>
        <time>2015-06-28T09:18:29.000Z</time>
      </trkpt>
      <trkpt lat="47.45066" lon="6.70559">
        <ele>422</ele>
        <time>2015-06-28T09:18:30.000Z</time>
      </trkpt>
      <trkpt lat="47.45067" lon="6.70567">
        <ele>421</ele>
        <time>2015-06-28T09:18:31.000Z</time>
      </trkpt>
      <trkpt lat="47.45067" lon="6.70572">
        <ele>421</ele>
        <time>2015-06-28T09:18:32.000Z</time>
      </trkpt>
      <trkpt lat="47.45064" lon="6.70577">
        <ele>421</ele>
        <time>2015-06-28T09:18:33.000Z</time>
      </trkpt>
      <trkpt lat="47.45062" lon="6.70582">
        <ele>421</ele>
        <time>2015-06-28T09:18:35.000Z</time>
      </trkpt>
      <trkpt lat="47.45061" lon="6.70585">
        <ele>419</ele>
        <time>2015-06-28T09:18:36.000Z</time>
      </trkpt>
      <trkpt lat="47.4506" lon="6.70589">
        <ele>419</ele>
        <time>2015-06-28T09:18:40.000Z</time>
      </trkpt>
      <trkpt lat="47.45062" lon="6.70593">
        <ele>419</ele>
        <time>2015-06-28T09:18:41.000Z</time>
      </trkpt>
      <trkpt lat="47.45063" lon="6.70598">
        <ele>419</ele>
        <time>2015-06-28T09:18:45.000Z</time>
      </trkpt>
      <trkpt lat="47.45064" lon="6.706">
        <ele>419</ele>
        <time>2015-06-28T09:18:46.000Z</time>
      </trkpt>
      <trkpt lat="47.45066" lon="6.70604">
        <ele>419</ele>
        <time>2015-06-28T09:18:48.000Z</time>
      </trkpt>
      <trkpt lat="47.45066" lon="6.70606">
        <ele>419</ele>
        <time>2015-06-28T09:18:49.000Z</time>
      </trkpt>
      <trkpt lat="47.45068" lon="6.7061">
        <ele>419</ele>
        <time>2015-06-28T09:18:51.000Z</time>
      </trkpt>
      <trkpt lat="47.45068" lon="6.70613">
        <ele>419</ele>
        <time>2015-06-28T09:18:52.000Z</time>
      </trkpt>
      <trkpt lat="47.45069" lon="6.70616">
        <ele>419</ele>
        <time>2015-06-28T09:18:53.000Z</time>
      </trkpt>
      <trkpt lat="47.4507" lon="6.7062">
        <ele>419</ele>
        <time>2015-06-28T09:18:54.000Z</time>
      </trkpt>
      <trkpt lat="47.45072" lon="6.70624">
        <ele>419</ele>
        <time>2015-06-28T09:18:55.000Z</time>
      </trkpt>
      <trkpt lat="47.45075" lon="6.70629">
        <ele>420</ele>
        <time>2015-06-28T09:18:56.000Z</time>
      </trkpt>
      <trkpt lat="47.45077" lon="6.70633">
        <ele>420</ele>
        <time>2015-06-28T09:18:57.000Z</time>
      </trkpt>
      <trkpt lat="47.45079" lon="6.70638">
        <ele>420</ele>
        <time>2015-06-28T09:18:58.000Z</time>
      </trkpt>
      <trkpt lat="47.45081" lon="6.70642">
        <ele>420</ele>
        <time>2015-06-28T09:18:59.000Z</time>
      </trkpt>
      <trkpt lat="47.45082" lon="6.70645">
        <ele>420</ele>
        <time>2015-06-28T09:19:00.000Z</time>
      </trkpt>
      <trkpt lat="47.45084" lon="6.7065">
        <ele>422</ele>
        <time>2015-06-28T09:19:02.000Z</time>
      </trkpt>
      <trkpt lat="47.45085" lon="6.70653">
        <ele>422</ele>
        <time>2015-06-28T09:19:03.000Z</time>
      </trkpt>
      <trkpt lat="47.45085" lon="6.7066">
        <ele>422</ele>
        <time>2015-06-28T09:19:05.000Z</time>
      </trkpt>
      <trkpt lat="47.45086" lon="6.70662">
        <ele>422</ele>
        <time>2015-06-28T09:19:06.000Z</time>
      </trkpt>
      <trkpt lat="47.45087" lon="6.70668">
        <ele>423</ele>
        <time>2015-06-28T09:19:09.000Z</time>
      </trkpt>
      <trkpt lat="47.45088" lon="6.7067">
        <ele>423</ele>
        <time>2015-06-28T09:19:10.000Z</time>
      </trkpt>
      <trkpt lat="47.45092" lon="6.70672">
        <ele>423</ele>
        <time>2015-06-28T09:19:12.000Z</time>
      </trkpt>
      <trkpt lat="47.45094" lon="6.70673">
        <ele>424</ele>
        <time>2015-06-28T09:19:13.000Z</time>
      </trkpt>
      <trkpt lat="47.45097" lon="6.70672">
        <ele>424</ele>
        <time>2015-06-28T09:19:14.000Z</time>
      </trkpt>
      <trkpt lat="47.45099" lon="6.70672">
        <ele>424</ele>
        <time>2015-06-28T09:19:15.000Z</time>
      </trkpt>
      <trkpt lat="47.45103" lon="6.70673">
        <ele>424</ele>
        <time>2015-06-28T09:19:17.000Z</time>
      </trkpt>
      <trkpt lat="47.45106" lon="6.70676">
        <ele>424</ele>
        <time>2015-06-28T09:19:18.000Z</time>
      </trkpt>
      <trkpt lat="47.45108" lon="6.70678">
        <ele>425</ele>
        <time>2015-06-28T09:19:19.000Z</time>
      </trkpt>
      <trkpt lat="47.4511" lon="6.70682">
        <ele>425</ele>
        <time>2015-06-28T09:19:20.000Z</time>
      </trkpt>
      <trkpt lat="47.45112" lon="6.70685">
        <ele>425</ele>
        <time>2015-06-28T09:19:21.000Z</time>
      </trkpt>
      <trkpt lat="47.45113" lon="6.70688">
        <ele>425</ele>
        <time>2015-06-28T09:19:22.000Z</time>
      </trkpt>
      <trkpt lat="47.45114" lon="6.70692">
        <ele>425</ele>
        <time>2015-06-28T09:19:23.000Z</time>
      </trkpt>
      <trkpt lat="47.45115" lon="6.70695">
        <ele>425</ele>
        <time>2015-06-28T09:19:24.000Z</time>
      </trkpt>
      <trkpt lat="47.45115" lon="6.70699">
        <ele>425</ele>
        <time>2015-06-28T09:19:25.000Z</time>
      </trkpt>
      <trkpt lat="47.45114" lon="6.70702">
        <ele>426</ele>
        <time>2015-06-28T09:19:26.000Z</time>
      </trkpt>
      <trkpt lat="47.45113" lon="6.70709">
        <ele>426</ele>
        <time>2015-06-28T09:19:28.000Z</time>
      </trkpt>
      <trkpt lat="47.45114" lon="6.70712">
        <ele>426</ele>
        <time>2015-06-28T09:19:29.000Z</time>
      </trkpt>
      <trkpt lat="47.45115" lon="6.70716">
        <ele>426</ele>
        <time>2015-06-28T09:19:30.000Z</time>
      </trkpt>
      <trkpt lat="47.45116" lon="6.70719">
        <ele>426</ele>
        <time>2015-06-28T09:19:31.000Z</time>
      </trkpt>
      <trkpt lat="47.45117" lon="6.70722">
        <ele>426</ele>
        <time>2015-06-28T09:19:32.000Z</time>
      </trkpt>
      <trkpt lat="47.45117" lon="6.70726">
        <ele>426</ele>
        <time>2015-06-28T09:19:33.000Z</time>
      </trkpt>
      <trkpt lat="47.45117" lon="6.70731">
        <ele>426</ele>
        <time>2015-06-28T09:19:35.000Z</time>
      </trkpt>
      <trkpt lat="47.45116" lon="6.70734">
        <ele>426</ele>
        <time>2015-06-28T09:19:36.000Z</time>
      </trkpt>
      <trkpt lat="47.45116" lon="6.70738">
        <ele>426</ele>
        <time>2015-06-28T09:19:38.000Z</time>
      </trkpt>
      <trkpt lat="47.45115" lon="6.7074">
        <ele>426</ele>
        <time>2015-06-28T09:19:39.000Z</time>
      </trkpt>
      <trkpt lat="47.45113" lon="6.70744">
        <ele>426</ele>
        <time>2015-06-28T09:19:41.000Z</time>
      </trkpt>
      <trkpt lat="47.45111" lon="6.70746">
        <ele>426</ele>
        <time>2015-06-28T09:19:42.000Z</time>
      </trkpt>
      <trkpt lat="47.4511" lon="6.7075">
        <ele>426</ele>
        <time>2015-06-28T09:19:44.000Z</time>
      </trkpt>
      <trkpt lat="47.45109" lon="6.70753">
        <ele>428</ele>
        <time>2015-06-28T09:19:45.000Z</time>
      </trkpt>
      <trkpt lat="47.45109" lon="6.70757">
        <ele>428</ele>
        <time>2015-06-28T09:19:46.000Z</time>
      </trkpt>
      <trkpt lat="47.45108" lon="6.7076">
        <ele>428</ele>
        <time>2015-06-28T09:19:47.000Z</time>
      </trkpt>
      <trkpt lat="47.45108" lon="6.70763">
        <ele>428</ele>
        <time>2015-06-28T09:19:47.999Z</time>
      </trkpt>
      <trkpt lat="47.45108" lon="6.70767">
        <ele>428</ele>
        <time>2015-06-28T09:19:49.000Z</time>
      </trkpt>
      <trkpt lat="47.45107" lon="6.70771">
        <ele>428</ele>
        <time>2015-06-28T09:19:49.998Z</time>
      </trkpt>
      <trkpt lat="47.45106" lon="6.70774">
        <ele>428</ele>
        <time>2015-06-28T09:19:51.000Z</time>
      </trkpt>
      <trkpt lat="47.45105" lon="6.70779">
        <ele>428</ele>
        <time>2015-06-28T09:19:53.000Z</time>
      </trkpt>
      <trkpt lat="47.45105" lon="6.7078">
        <ele>428</ele>
        <time>2015-06-28T09:19:54.000Z</time>
      </trkpt>
      <trkpt lat="47.45108" lon="6.70783">
        <ele>429</ele>
        <time>2015-06-28T09:19:56.000Z</time>
      </trkpt>
      <trkpt lat="47.45109" lon="6.70785">
        <ele>429</ele>
        <time>2015-06-28T09:19:57.000Z</time>
      </trkpt>
      <trkpt lat="47.45112" lon="6.70789">
        <ele>429</ele>
        <time>2015-06-28T09:19:59.998Z</time>
      </trkpt>
      <trkpt lat="47.45113" lon="6.7079">
        <ele>429</ele>
        <time>2015-06-28T09:20:01.000Z</time>
      </trkpt>
      <trkpt lat="47.45116" lon="6.70794">
        <ele>429</ele>
        <time>2015-06-28T09:20:04.000Z</time>
      </trkpt>
      <trkpt lat="47.45116" lon="6.70796">
        <ele>429</ele>
        <time>2015-06-28T09:20:05.000Z</time>
      </trkpt>
      <trkpt lat="47.45117" lon="6.70799">
        <ele>429</ele>
        <time>2015-06-28T09:20:07.000Z</time>
      </trkpt>
      <trkpt lat="47.45118" lon="6.70802">
        <ele>429</ele>
        <time>2015-06-28T09:20:08.000Z</time>
      </trkpt>
      <trkpt lat="47.45119" lon="6.70806">
        <ele>429</ele>
        <time>2015-06-28T09:20:10.000Z</time>
      </trkpt>
      <trkpt lat="47.4512" lon="6.70808">
        <ele>429</ele>
        <time>2015-06-28T09:20:11.000Z</time>
      </trkpt>
      <trkpt lat="47.45121" lon="6.70813">
        <ele>429</ele>
        <time>2015-06-28T09:20:14.000Z</time>
      </trkpt>
      <trkpt lat="47.45122" lon="6.70815">
        <ele>429</ele>
        <time>2015-06-28T09:20:15.000Z</time>
      </trkpt>
      <trkpt lat="47.45124" lon="6.7082">
        <ele>430</ele>
        <time>2015-06-28T09:20:18.000Z</time>
      </trkpt>
      <trkpt lat="47.45125" lon="6.70823">
        <ele>430</ele>
        <time>2015-06-28T09:20:19.000Z</time>
      </trkpt>
      <trkpt lat="47.45126" lon="6.70826">
        <ele>430</ele>
        <time>2015-06-28T09:20:20.000Z</time>
      </trkpt>
      <trkpt lat="47.45127" lon="6.70829">
        <ele>430</ele>
        <time>2015-06-28T09:20:21.000Z</time>
      </trkpt>
      <trkpt lat="47.45128" lon="6.70835">
        <ele>431</ele>
        <time>2015-06-28T09:20:24.000Z</time>
      </trkpt>
      <trkpt lat="47.45128" lon="6.70836">
        <ele>431</ele>
        <time>2015-06-28T09:20:25.000Z</time>
      </trkpt>
      <trkpt lat="47.45129" lon="6.7084">
        <ele>431</ele>
        <time>2015-06-28T09:20:27.000Z</time>
      </trkpt>
      <trkpt lat="47.45131" lon="6.70843">
        <ele>431</ele>
        <time>2015-06-28T09:20:28.000Z</time>
      </trkpt>
      <trkpt lat="47.45132" lon="6.70846">
        <ele>431</ele>
        <time>2015-06-28T09:20:29.000Z</time>
      </trkpt>
      <trkpt lat="47.45134" lon="6.7085">
        <ele>432</ele>
        <time>2015-06-28T09:20:30.000Z</time>
      </trkpt>
      <trkpt lat="47.45136" lon="6.70855">
        <ele>432</ele>
        <time>2015-06-28T09:20:31.000Z</time>
      </trkpt>
      <trkpt lat="47.45137" lon="6.7086">
        <ele>432</ele>
        <time>2015-06-28T09:20:32.000Z</time>
      </trkpt>
      <trkpt lat="47.45139" lon="6.70865">
        <ele>432</ele>
        <time>2015-06-28T09:20:33.000Z</time>
      </trkpt>
      <trkpt lat="47.45141" lon="6.7087">
        <ele>432</ele>
        <time>2015-06-28T09:20:34.000Z</time>
      </trkpt>
      <trkpt lat="47.45143" lon="6.70874">
        <ele>432</ele>
        <time>2015-06-28T09:20:35.000Z</time>
      </trkpt>
      <trkpt lat="47.45145" lon="6.70878">
        <ele>432</ele>
        <time>2015-06-28T09:20:36.000Z</time>
      </trkpt>
      <trkpt lat="47.45147" lon="6.70881">
        <ele>432</ele>
        <time>2015-06-28T09:20:37.000Z</time>
      </trkpt>
      <trkpt lat="47.45149" lon="6.70883">
        <ele>432</ele>
        <time>2015-06-28T09:20:38.000Z</time>
      </trkpt>
      <trkpt lat="47.45151" lon="6.70886">
        <ele>433</ele>
        <time>2015-06-28T09:20:39.000Z</time>
      </trkpt>
      <trkpt lat="47.45152" lon="6.70888">
        <ele>433</ele>
        <time>2015-06-28T09:20:40.000Z</time>
      </trkpt>
      <trkpt lat="47.45153" lon="6.70891">
        <ele>433</ele>
        <time>2015-06-28T09:20:41.000Z</time>
      </trkpt>
      <trkpt lat="47.45154" lon="6.70895">
        <ele>433</ele>
        <time>2015-06-28T09:20:42.000Z</time>
      </trkpt>
      <trkpt lat="47.45155" lon="6.70898">
        <ele>433</ele>
        <time>2015-06-28T09:20:43.000Z</time>
      </trkpt>
      <trkpt lat="47.45156" lon="6.70902">
        <ele>434</ele>
        <time>2015-06-28T09:20:44.000Z</time>
      </trkpt>
      <trkpt lat="47.45157" lon="6.70906">
        <ele>434</ele>
        <time>2015-06-28T09:20:45.000Z</time>
      </trkpt>
      <trkpt lat="47.45158" lon="6.7091">
        <ele>434</ele>
        <time>2015-06-28T09:20:46.000Z</time>
      </trkpt>
      <trkpt lat="47.4516" lon="6.70914">
        <ele>435</ele>
        <time>2015-06-28T09:20:47.000Z</time>
      </trkpt>
      <trkpt lat="47.45162" lon="6.70918">
        <ele>435</ele>
        <time>2015-06-28T09:20:48.000Z</time>
      </trkpt>
      <trkpt lat="47.45163" lon="6.70923">
        <ele>435</ele>
        <time>2015-06-28T09:20:49.000Z</time>
      </trkpt>
      <trkpt lat="47.45165" lon="6.70928">
        <ele>435</ele>
        <time>2015-06-28T09:20:50.000Z</time>
      </trkpt>
      <trkpt lat="47.45168" lon="6.70933">
        <ele>435</ele>
        <time>2015-06-28T09:20:51.000Z</time>
      </trkpt>
      <trkpt lat="47.4517" lon="6.70939">
        <ele>435</ele>
        <time>2015-06-28T09:20:52.000Z</time>
      </trkpt>
      <trkpt lat="47.45172" lon="6.70944">
        <ele>435</ele>
        <time>2015-06-28T09:20:53.000Z</time>
      </trkpt>
      <trkpt lat="47.45174" lon="6.7095">
        <ele>435</ele>
        <time>2015-06-28T09:20:54.000Z</time>
      </trkpt>
      <trkpt lat="47.45176" lon="6.70955">
        <ele>435</ele>
        <time>2015-06-28T09:20:55.000Z</time>
      </trkpt>
      <trkpt lat="47.45178" lon="6.70961">
        <ele>435</ele>
        <time>2015-06-28T09:20:56.000Z</time>
      </trkpt>
      <trkpt lat="47.4518" lon="6.70967">
        <ele>435</ele>
        <time>2015-06-28T09:20:57.000Z</time>
      </trkpt>
      <trkpt lat="47.45182" lon="6.70971">
        <ele>435</ele>
        <time>2015-06-28T09:20:58.000Z</time>
      </trkpt>
      <trkpt lat="47.45183" lon="6.70976">
        <ele>435</ele>
        <time>2015-06-28T09:20:59.000Z</time>
      </trkpt>
      <trkpt lat="47.45185" lon="6.70979">
        <ele>435</ele>
        <time>2015-06-28T09:21:00.000Z</time>
      </trkpt>
      <trkpt lat="47.45186" lon="6.70984">
        <ele>435</ele>
        <time>2015-06-28T09:21:01.000Z</time>
      </trkpt>
      <trkpt lat="47.45187" lon="6.70989">
        <ele>435</ele>
        <time>2015-06-28T09:21:02.000Z</time>
      </trkpt>
      <trkpt lat="47.45187" lon="6.70994">
        <ele>435</ele>
        <time>2015-06-28T09:21:03.000Z</time>
      </trkpt>
      <trkpt lat="47.45187" lon="6.71">
        <ele>435</ele>
        <time>2015-06-28T09:21:04.000Z</time>
      </trkpt>
      <trkpt lat="47.45188" lon="6.71005">
        <ele>435</ele>
        <time>2015-06-28T09:21:05.000Z</time>
      </trkpt>
      <trkpt lat="47.45188" lon="6.71008">
        <ele>435</ele>
        <time>2015-06-28T09:21:06.000Z</time>
      </trkpt>
      <trkpt lat="47.4519" lon="6.71014">
        <ele>435</ele>
        <time>2015-06-28T09:21:08.000Z</time>
      </trkpt>
      <trkpt lat="47.4519" lon="6.71017">
        <ele>435</ele>
        <time>2015-06-28T09:21:09.000Z</time>
      </trkpt>
      <trkpt lat="47.45192" lon="6.71021">
        <ele>435</ele>
        <time>2015-06-28T09:21:11.000Z</time>
      </trkpt>
      <trkpt lat="47.45193" lon="6.71022">
        <ele>435</ele>
        <time>2015-06-28T09:21:12.000Z</time>
      </trkpt>
      <trkpt lat="47.45196" lon="6.71026">
        <ele>435</ele>
        <time>2015-06-28T09:21:14.000Z</time>
      </trkpt>
      <trkpt lat="47.45198" lon="6.71029">
        <ele>435</ele>
        <time>2015-06-28T09:21:15.000Z</time>
      </trkpt>
      <trkpt lat="47.45199" lon="6.71032">
        <ele>435</ele>
        <time>2015-06-28T09:21:16.000Z</time>
      </trkpt>
      <trkpt lat="47.45201" lon="6.71035">
        <ele>435</ele>
        <time>2015-06-28T09:21:17.000Z</time>
      </trkpt>
      <trkpt lat="47.45202" lon="6.71039">
        <ele>435</ele>
        <time>2015-06-28T09:21:18.000Z</time>
      </trkpt>
      <trkpt lat="47.45204" lon="6.71043">
        <ele>435</ele>
        <time>2015-06-28T09:21:19.000Z</time>
      </trkpt>
      <trkpt lat="47.45205" lon="6.71047">
        <ele>435</ele>
        <time>2015-06-28T09:21:20.000Z</time>
      </trkpt>
      <trkpt lat="47.45206" lon="6.7105">
        <ele>435</ele>
        <time>2015-06-28T09:21:21.000Z</time>
      </trkpt>
      <trkpt lat="47.45207" lon="6.71053">
        <ele>435</ele>
        <time>2015-06-28T09:21:22.000Z</time>
      </trkpt>
      <trkpt lat="47.45209" lon="6.71056">
        <ele>435</ele>
        <time>2015-06-28T09:21:23.000Z</time>
      </trkpt>
      <trkpt lat="47.45211" lon="6.71059">
        <ele>435</ele>
        <time>2015-06-28T09:21:24.000Z</time>
      </trkpt>
      <trkpt lat="47.45212" lon="6.71062">
        <ele>435</ele>
        <time>2015-06-28T09:21:25.000Z</time>
      </trkpt>
      <trkpt lat="47.45214" lon="6.71065">
        <ele>435</ele>
        <time>2015-06-28T09:21:26.000Z</time>
      </trkpt>
      <trkpt lat="47.45216" lon="6.71068">
        <ele>435</ele>
        <time>2015-06-28T09:21:27.000Z</time>
      </trkpt>
      <trkpt lat="47.45217" lon="6.71071">
        <ele>436</ele>
        <time>2015-06-28T09:21:28.000Z</time>
      </trkpt>
      <trkpt lat="47.45218" lon="6.71074">
        <ele>436</ele>
        <time>2015-06-28T09:21:29.000Z</time>
      </trkpt>
      <trkpt lat="47.45219" lon="6.71078">
        <ele>436</ele>
        <time>2015-06-28T09:21:30.000Z</time>
      </trkpt>
      <trkpt lat="47.45221" lon="6.71081">
        <ele>436</ele>
        <time>2015-06-28T09:21:31.000Z</time>
      </trkpt>
      <trkpt lat="47.45222" lon="6.71084">
        <ele>437</ele>
        <time>2015-06-28T09:21:32.000Z</time>
      </trkpt>
      <trkpt lat="47.45224" lon="6.71087">
        <ele>437</ele>
        <time>2015-06-28T09:21:33.000Z</time>
      </trkpt>
      <trkpt lat="47.45226" lon="6.7109">
        <ele>437</ele>
        <time>2015-06-28T09:21:34.000Z</time>
      </trkpt>
      <trkpt lat="47.45228" lon="6.71093">
        <ele>437</ele>
        <time>2015-06-28T09:21:35.000Z</time>
      </trkpt>
      <trkpt lat="47.45229" lon="6.71096">
        <ele>437</ele>
        <time>2015-06-28T09:21:36.000Z</time>
      </trkpt>
      <trkpt lat="47.45232" lon="6.711">
        <ele>437</ele>
        <time>2015-06-28T09:21:37.000Z</time>
      </trkpt>
      <trkpt lat="47.45234" lon="6.71103">
        <ele>437</ele>
        <time>2015-06-28T09:21:38.000Z</time>
      </trkpt>
      <trkpt lat="47.45236" lon="6.71106">
        <ele>437</ele>
        <time>2015-06-28T09:21:39.000Z</time>
      </trkpt>
      <trkpt lat="47.45238" lon="6.71109">
        <ele>437</ele>
        <time>2015-06-28T09:21:40.000Z</time>
      </trkpt>
      <trkpt lat="47.4524" lon="6.71112">
        <ele>437</ele>
        <time>2015-06-28T09:21:41.000Z</time>
      </trkpt>
      <trkpt lat="47.45241" lon="6.71116">
        <ele>437</ele>
        <time>2015-06-28T09:21:42.000Z</time>
      </trkpt>
      <trkpt lat="47.45243" lon="6.71119">
        <ele>438</ele>
        <time>2015-06-28T09:21:43.000Z</time>
      </trkpt>
      <trkpt lat="47.45246" lon="6.71123">
        <ele>438</ele>
        <time>2015-06-28T09:21:44.000Z</time>
      </trkpt>
      <trkpt lat="47.45248" lon="6.71127">
        <ele>438</ele>
        <time>2015-06-28T09:21:45.000Z</time>
      </trkpt>
      <trkpt lat="47.4525" lon="6.71131">
        <ele>436</ele>
        <time>2015-06-28T09:21:46.000Z</time>
      </trkpt>
      <trkpt lat="47.45252" lon="6.71134">
        <ele>436</ele>
        <time>2015-06-28T09:21:47.000Z</time>
      </trkpt>
      <trkpt lat="47.45254" lon="6.71137">
        <ele>436</ele>
        <time>2015-06-28T09:21:48.000Z</time>
      </trkpt>
      <trkpt lat="47.45255" lon="6.7114">
        <ele>436</ele>
        <time>2015-06-28T09:21:49.000Z</time>
      </trkpt>
      <trkpt lat="47.45257" lon="6.71146">
        <ele>436</ele>
        <time>2015-06-28T09:21:51.000Z</time>
      </trkpt>
      <trkpt lat="47.45259" lon="6.71148">
        <ele>436</ele>
        <time>2015-06-28T09:21:52.000Z</time>
      </trkpt>
      <trkpt lat="47.45261" lon="6.71153">
        <ele>437</ele>
        <time>2015-06-28T09:21:54.000Z</time>
      </trkpt>
      <trkpt lat="47.45262" lon="6.71156">
        <ele>437</ele>
        <time>2015-06-28T09:21:55.000Z</time>
      </trkpt>
      <trkpt lat="47.45263" lon="6.71159">
        <ele>437</ele>
        <time>2015-06-28T09:21:56.000Z</time>
      </trkpt>
      <trkpt lat="47.45264" lon="6.71162">
        <ele>437</ele>
        <time>2015-06-28T09:21:57.000Z</time>
      </trkpt>
      <trkpt lat="47.45265" lon="6.71165">
        <ele>437</ele>
        <time>2015-06-28T09:21:58.000Z</time>
      </trkpt>
      <trkpt lat="47.45267" lon="6.71169">
        <ele>438</ele>
        <time>2015-06-28T09:21:59.000Z</time>
      </trkpt>
      <trkpt lat="47.45268" lon="6.71172">
        <ele>438</ele>
        <time>2015-06-28T09:22:00.000Z</time>
      </trkpt>
      <trkpt lat="47.45269" lon="6.71176">
        <ele>438</ele>
        <time>2015-06-28T09:22:01.000Z</time>
      </trkpt>
      <trkpt lat="47.45271" lon="6.71179">
        <ele>437</ele>
        <time>2015-06-28T09:22:02.000Z</time>
      </trkpt>
      <trkpt lat="47.45272" lon="6.71182">
        <ele>437</ele>
        <time>2015-06-28T09:22:03.000Z</time>
      </trkpt>
      <trkpt lat="47.45274" lon="6.71185">
        <ele>437</ele>
        <time>2015-06-28T09:22:04.000Z</time>
      </trkpt>
      <trkpt lat="47.45275" lon="6.71188">
        <ele>437</ele>
        <time>2015-06-28T09:22:05.000Z</time>
      </trkpt>
      <trkpt lat="47.45277" lon="6.71194">
        <ele>437</ele>
        <time>2015-06-28T09:22:07.000Z</time>
      </trkpt>
      <trkpt lat="47.45278" lon="6.71196">
        <ele>437</ele>
        <time>2015-06-28T09:22:08.000Z</time>
      </trkpt>
      <trkpt lat="47.4528" lon="6.712">
        <ele>437</ele>
        <time>2015-06-28T09:22:10.000Z</time>
      </trkpt>
      <trkpt lat="47.45281" lon="6.71202">
        <ele>437</ele>
        <time>2015-06-28T09:22:11.000Z</time>
      </trkpt>
      <trkpt lat="47.45284" lon="6.71206">
        <ele>437</ele>
        <time>2015-06-28T09:22:14.000Z</time>
      </trkpt>
      <trkpt lat="47.45284" lon="6.71207">
        <ele>437</ele>
        <time>2015-06-28T09:22:15.000Z</time>
      </trkpt>
      <trkpt lat="47.45286" lon="6.71213">
        <ele>437</ele>
        <time>2015-06-28T09:22:45.000Z</time>
      </trkpt>
      <trkpt lat="47.45287" lon="6.71215">
        <ele>437</ele>
        <time>2015-06-28T09:22:46.000Z</time>
      </trkpt>
      <trkpt lat="47.45289" lon="6.7122">
        <ele>437</ele>
        <time>2015-06-28T09:22:48.000Z</time>
      </trkpt>
      <trkpt lat="47.45289" lon="6.71224">
        <ele>437</ele>
        <time>2015-06-28T09:22:49.000Z</time>
      </trkpt>
      <trkpt lat="47.4529" lon="6.71229">
        <ele>437</ele>
        <time>2015-06-28T09:22:50.000Z</time>
      </trkpt>
      <trkpt lat="47.45291" lon="6.71234">
        <ele>437</ele>
        <time>2015-06-28T09:22:51.000Z</time>
      </trkpt>
      <trkpt lat="47.45292" lon="6.7124">
        <ele>437</ele>
        <time>2015-06-28T09:22:52.000Z</time>
      </trkpt>
      <trkpt lat="47.45292" lon="6.71246">
        <ele>437</ele>
        <time>2015-06-28T09:22:53.000Z</time>
      </trkpt>
      <trkpt lat="47.45292" lon="6.7125">
        <ele>438</ele>
        <time>2015-06-28T09:22:54.000Z</time>
      </trkpt>
      <trkpt lat="47.45292" lon="6.71254">
        <ele>438</ele>
        <time>2015-06-28T09:22:55.000Z</time>
      </trkpt>
      <trkpt lat="47.45291" lon="6.71258">
        <ele>438</ele>
        <time>2015-06-28T09:22:56.000Z</time>
      </trkpt>
      <trkpt lat="47.4529" lon="6.71261">
        <ele>438</ele>
        <time>2015-06-28T09:22:57.000Z</time>
      </trkpt>
      <trkpt lat="47.45288" lon="6.71266">
        <ele>439</ele>
        <time>2015-06-28T09:22:59.000Z</time>
      </trkpt>
      <trkpt lat="47.45286" lon="6.71268">
        <ele>439</ele>
        <time>2015-06-28T09:23:00.000Z</time>
      </trkpt>
      <trkpt lat="47.45284" lon="6.71272">
        <ele>439</ele>
        <time>2015-06-28T09:23:02.000Z</time>
      </trkpt>
      <trkpt lat="47.45283" lon="6.71273">
        <ele>439</ele>
        <time>2015-06-28T09:23:03.000Z</time>
      </trkpt>
      <trkpt lat="47.4528" lon="6.71276">
        <ele>439</ele>
        <time>2015-06-28T09:23:05.000Z</time>
      </trkpt>
      <trkpt lat="47.45278" lon="6.71277">
        <ele>439</ele>
        <time>2015-06-28T09:23:06.000Z</time>
      </trkpt>
      <trkpt lat="47.45276" lon="6.71279">
        <ele>439</ele>
        <time>2015-06-28T09:23:07.000Z</time>
      </trkpt>
      <trkpt lat="47.45273" lon="6.71281">
        <ele>439</ele>
        <time>2015-06-28T09:23:08.000Z</time>
      </trkpt>
      <trkpt lat="47.4527" lon="6.71283">
        <ele>439</ele>
        <time>2015-06-28T09:23:09.000Z</time>
      </trkpt>
      <trkpt lat="47.45268" lon="6.71285">
        <ele>440</ele>
        <time>2015-06-28T09:23:10.000Z</time>
      </trkpt>
      <trkpt lat="47.45265" lon="6.71289">
        <ele>440</ele>
        <time>2015-06-28T09:23:12.000Z</time>
      </trkpt>
      <trkpt lat="47.45265" lon="6.71291">
        <ele>440</ele>
        <time>2015-06-28T09:23:13.000Z</time>
      </trkpt>
      <trkpt lat="47.45266" lon="6.71296">
        <ele>440</ele>
        <time>2015-06-28T09:23:15.000Z</time>
      </trkpt>
      <trkpt lat="47.45267" lon="6.71298">
        <ele>440</ele>
        <time>2015-06-28T09:23:16.000Z</time>
      </trkpt>
      <trkpt lat="47.45268" lon="6.71303">
        <ele>440</ele>
        <time>2015-06-28T09:23:18.000Z</time>
      </trkpt>
      <trkpt lat="47.45268" lon="6.71306">
        <ele>440</ele>
        <time>2015-06-28T09:23:19.000Z</time>
      </trkpt>
      <trkpt lat="47.45268" lon="6.71309">
        <ele>441</ele>
        <time>2015-06-28T09:23:20.000Z</time>
      </trkpt>
      <trkpt lat="47.45267" lon="6.71312">
        <ele>441</ele>
        <time>2015-06-28T09:23:21.000Z</time>
      </trkpt>
      <trkpt lat="47.45266" lon="6.71316">
        <ele>441</ele>
        <time>2015-06-28T09:23:22.000Z</time>
      </trkpt>
      <trkpt lat="47.45266" lon="6.71319">
        <ele>441</ele>
        <time>2015-06-28T09:23:23.000Z</time>
      </trkpt>
      <trkpt lat="47.45267" lon="6.71323">
        <ele>441</ele>
        <time>2015-06-28T09:23:24.000Z</time>
      </trkpt>
      <trkpt lat="47.45267" lon="6.71327">
        <ele>442</ele>
        <time>2015-06-28T09:23:25.000Z</time>
      </trkpt>
      <trkpt lat="47.45268" lon="6.7133">
        <ele>442</ele>
        <time>2015-06-28T09:23:26.000Z</time>
      </trkpt>
      <trkpt lat="47.45268" lon="6.71333">
        <ele>443</ele>
        <time>2015-06-28T09:23:27.000Z</time>
      </trkpt>
      <trkpt lat="47.4527" lon="6.71339">
        <ele>443</ele>
        <time>2015-06-28T09:23:29.000Z</time>
      </trkpt>
      <trkpt lat="47.45271" lon="6.71342">
        <ele>443</ele>
        <time>2015-06-28T09:23:30.000Z</time>
      </trkpt>
      <trkpt lat="47.45273" lon="6.71348">
        <ele>443</ele>
        <time>2015-06-28T09:23:32.000Z</time>
      </trkpt>
      <trkpt lat="47.45273" lon="6.71351">
        <ele>443</ele>
        <time>2015-06-28T09:23:33.000Z</time>
      </trkpt>
      <trkpt lat="47.45274" lon="6.71355">
        <ele>443</ele>
        <time>2015-06-28T09:23:34.000Z</time>
      </trkpt>
      <trkpt lat="47.45274" lon="6.71359">
        <ele>443</ele>
        <time>2015-06-28T09:23:35.000Z</time>
      </trkpt>
      <trkpt lat="47.45275" lon="6.71363">
        <ele>443</ele>
        <time>2015-06-28T09:23:36.000Z</time>
      </trkpt>
      <trkpt lat="47.45276" lon="6.71367">
        <ele>443</ele>
        <time>2015-06-28T09:23:37.000Z</time>
      </trkpt>
      <trkpt lat="47.45277" lon="6.71371">
        <ele>443</ele>
        <time>2015-06-28T09:23:38.000Z</time>
      </trkpt>
      <trkpt lat="47.45278" lon="6.71374">
        <ele>443</ele>
        <time>2015-06-28T09:23:39.000Z</time>
      </trkpt>
      <trkpt lat="47.45279" lon="6.71378">
        <ele>443</ele>
        <time>2015-06-28T09:23:40.000Z</time>
      </trkpt>
      <trkpt lat="47.45279" lon="6.71382">
        <ele>443</ele>
        <time>2015-06-28T09:23:41.000Z</time>
      </trkpt>
      <trkpt lat="47.4528" lon="6.71386">
        <ele>443</ele>
        <time>2015-06-28T09:23:42.000Z</time>
      </trkpt>
      <trkpt lat="47.45281" lon="6.7139">
        <ele>444</ele>
        <time>2015-06-28T09:23:43.000Z</time>
      </trkpt>
      <trkpt lat="47.45282" lon="6.71394">
        <ele>444</ele>
        <time>2015-06-28T09:23:44.000Z</time>
      </trkpt>
      <trkpt lat="47.45283" lon="6.71398">
        <ele>444</ele>
        <time>2015-06-28T09:23:45.000Z</time>
      </trkpt>
      <trkpt lat="47.45285" lon="6.71401">
        <ele>444</ele>
        <time>2015-06-28T09:23:46.000Z</time>
      </trkpt>
      <trkpt lat="47.45286" lon="6.71404">
        <ele>443</ele>
        <time>2015-06-28T09:23:47.000Z</time>
      </trkpt>
      <trkpt lat="47.45287" lon="6.71407">
        <ele>443</ele>
        <time>2015-06-28T09:23:48.000Z</time>
      </trkpt>
      <trkpt lat="47.45288" lon="6.7141">
        <ele>443</ele>
        <time>2015-06-28T09:23:49.000Z</time>
      </trkpt>
      <trkpt lat="47.4529" lon="6.71413">
        <ele>443</ele>
        <time>2015-06-28T09:23:50.000Z</time>
      </trkpt>
      <trkpt lat="47.45291" lon="6.71416">
        <ele>443</ele>
        <time>2015-06-28T09:23:51.000Z</time>
      </trkpt>
      <trkpt lat="47.45292" lon="6.71421">
        <ele>446</ele>
        <time>2015-06-28T09:23:53.000Z</time>
      </trkpt>
      <trkpt lat="47.45293" lon="6.71424">
        <ele>446</ele>
        <time>2015-06-28T09:23:54.000Z</time>
      </trkpt>
      <trkpt lat="47.45294" lon="6.71427">
        <ele>446</ele>
        <time>2015-06-28T09:23:55.000Z</time>
      </trkpt>
      <trkpt lat="47.45295" lon="6.7143">
        <ele>446</ele>
        <time>2015-06-28T09:23:56.000Z</time>
      </trkpt>
      <trkpt lat="47.45296" lon="6.71436">
        <ele>446</ele>
        <time>2015-06-28T09:23:58.000Z</time>
      </trkpt>
      <trkpt lat="47.45296" lon="6.71438">
        <ele>446</ele>
        <time>2015-06-28T09:23:59.000Z</time>
      </trkpt>
      <trkpt lat="47.45294" lon="6.71442">
        <ele>447</ele>
        <time>2015-06-28T09:24:19.000Z</time>
      </trkpt>
      <trkpt lat="47.45292" lon="6.71442">
        <ele>447</ele>
        <time>2015-06-28T09:24:20.000Z</time>
      </trkpt>
      <trkpt lat="47.45288" lon="6.71442">
        <ele>447</ele>
        <time>2015-06-28T09:24:23.000Z</time>
      </trkpt>
      <trkpt lat="47.45287" lon="6.71442">
        <ele>447</ele>
        <time>2015-06-28T09:24:24.000Z</time>
      </trkpt>
      <trkpt lat="47.45283" lon="6.71441">
        <ele>448</ele>
        <time>2015-06-28T09:24:27.000Z</time>
      </trkpt>
      <trkpt lat="47.45282" lon="6.71441">
        <ele>448</ele>
        <time>2015-06-28T09:24:28.000Z</time>
      </trkpt>
      <trkpt lat="47.45278" lon="6.71439">
        <ele>448</ele>
        <time>2015-06-28T09:24:33.000Z</time>
      </trkpt>
      <trkpt lat="47.45276" lon="6.71438">
        <ele>449</ele>
        <time>2015-06-28T09:24:34.000Z</time>
      </trkpt>
      <trkpt lat="47.45272" lon="6.71437">
        <ele>449</ele>
        <time>2015-06-28T09:24:36.000Z</time>
      </trkpt>
      <trkpt lat="47.45271" lon="6.71436">
        <ele>449</ele>
        <time>2015-06-28T09:24:37.000Z</time>
      </trkpt>
      <trkpt lat="47.45267" lon="6.71433">
        <ele>450</ele>
        <time>2015-06-28T09:24:39.000Z</time>
      </trkpt>
      <trkpt lat="47.45265" lon="6.71431">
        <ele>450</ele>
        <time>2015-06-28T09:24:40.000Z</time>
      </trkpt>
      <trkpt lat="47.45263" lon="6.71429">
        <ele>450</ele>
        <time>2015-06-28T09:24:41.000Z</time>
      </trkpt>
      <trkpt lat="47.45261" lon="6.71428">
        <ele>451</ele>
        <time>2015-06-28T09:24:42.000Z</time>
      </trkpt>
      <trkpt lat="47.45258" lon="6.71426">
        <ele>451</ele>
        <time>2015-06-28T09:24:43.000Z</time>
      </trkpt>
      <trkpt lat="47.45256" lon="6.71425">
        <ele>451</ele>
        <time>2015-06-28T09:24:44.000Z</time>
      </trkpt>
      <trkpt lat="47.45253" lon="6.71425">
        <ele>452</ele>
        <time>2015-06-28T09:24:45.000Z</time>
      </trkpt>
      <trkpt lat="47.4525" lon="6.71425">
        <ele>452</ele>
        <time>2015-06-28T09:24:46.000Z</time>
      </trkpt>
      <trkpt lat="47.45248" lon="6.71426">
        <ele>455</ele>
        <time>2015-06-28T09:24:47.000Z</time>
      </trkpt>
      <trkpt lat="47.45246" lon="6.71427">
        <ele>455</ele>
        <time>2015-06-28T09:24:48.000Z</time>
      </trkpt>
      <trkpt lat="47.45244" lon="6.71428">
        <ele>456</ele>
        <time>2015-06-28T09:24:49.000Z</time>
      </trkpt>
      <trkpt lat="47.45242" lon="6.7143">
        <ele>456</ele>
        <time>2015-06-28T09:24:50.000Z</time>
      </trkpt>
      <trkpt lat="47.45239" lon="6.7143">
        <ele>456</ele>
        <time>2015-06-28T09:24:51.000Z</time>
      </trkpt>
      <trkpt lat="47.45237" lon="6.71431">
        <ele>456</ele>
        <time>2015-06-28T09:24:52.000Z</time>
      </trkpt>
      <trkpt lat="47.45235" lon="6.71431">
        <ele>457</ele>
        <time>2015-06-28T09:24:53.000Z</time>
      </trkpt>
      <trkpt lat="47.45232" lon="6.71431">
        <ele>457</ele>
        <time>2015-06-28T09:24:54.000Z</time>
      </trkpt>
      <trkpt lat="47.45229" lon="6.71431">
        <ele>457</ele>
        <time>2015-06-28T09:24:55.000Z</time>
      </trkpt>
      <trkpt lat="47.45226" lon="6.71431">
        <ele>457</ele>
        <time>2015-06-28T09:24:56.000Z</time>
      </trkpt>
      <trkpt lat="47.45223" lon="6.7143">
        <ele>457</ele>
        <time>2015-06-28T09:24:57.000Z</time>
      </trkpt>
      <trkpt lat="47.45221" lon="6.71431">
        <ele>458</ele>
        <time>2015-06-28T09:24:58.000Z</time>
      </trkpt>
      <trkpt lat="47.45217" lon="6.71432">
        <ele>458</ele>
        <time>2015-06-28T09:25:00.000Z</time>
      </trkpt>
      <trkpt lat="47.45215" lon="6.71432">
        <ele>458</ele>
        <time>2015-06-28T09:25:01.000Z</time>
      </trkpt>
      <trkpt lat="47.45213" lon="6.71432">
        <ele>458</ele>
        <time>2015-06-28T09:25:03.000Z</time>
      </trkpt>
      <trkpt lat="47.45211" lon="6.71431">
        <ele>458</ele>
        <time>2015-06-28T09:25:04.000Z</time>
      </trkpt>
      <trkpt lat="47.45208" lon="6.71431">
        <ele>458</ele>
        <time>2015-06-28T09:25:05.000Z</time>
      </trkpt>
      <trkpt lat="47.45206" lon="6.7143">
        <ele>458</ele>
        <time>2015-06-28T09:25:06.000Z</time>
      </trkpt>
      <trkpt lat="47.45203" lon="6.71429">
        <ele>458</ele>
        <time>2015-06-28T09:25:07.000Z</time>
      </trkpt>
      <trkpt lat="47.452" lon="6.71429">
        <ele>458</ele>
        <time>2015-06-28T09:25:08.000Z</time>
      </trkpt>
      <trkpt lat="47.45197" lon="6.71429">
        <ele>458</ele>
        <time>2015-06-28T09:25:09.000Z</time>
      </trkpt>
      <trkpt lat="47.45194" lon="6.71429">
        <ele>458</ele>
        <time>2015-06-28T09:25:10.000Z</time>
      </trkpt>
      <trkpt lat="47.45191" lon="6.71429">
        <ele>458</ele>
        <time>2015-06-28T09:25:11.000Z</time>
      </trkpt>
      <trkpt lat="47.45188" lon="6.71428">
        <ele>458</ele>
        <time>2015-06-28T09:25:12.000Z</time>
      </trkpt>
      <trkpt lat="47.45185" lon="6.71427">
        <ele>458</ele>
        <time>2015-06-28T09:25:13.000Z</time>
      </trkpt>
      <trkpt lat="47.45183" lon="6.71426">
        <ele>458</ele>
        <time>2015-06-28T09:25:14.000Z</time>
      </trkpt>
      <trkpt lat="47.45179" lon="6.71424">
        <ele>458</ele>
        <time>2015-06-28T09:25:16.000Z</time>
      </trkpt>
      <trkpt lat="47.45178" lon="6.71422">
        <ele>458</ele>
        <time>2015-06-28T09:25:17.000Z</time>
      </trkpt>
      <trkpt lat="47.45175" lon="6.7142">
        <ele>458</ele>
        <time>2015-06-28T09:25:19.000Z</time>
      </trkpt>
      <trkpt lat="47.45174" lon="6.71419">
        <ele>458</ele>
        <time>2015-06-28T09:25:20.000Z</time>
      </trkpt>
      <trkpt lat="47.4517" lon="6.71416">
        <ele>456</ele>
        <time>2015-06-28T09:25:22.000Z</time>
      </trkpt>
      <trkpt lat="47.45168" lon="6.71415">
        <ele>456</ele>
        <time>2015-06-28T09:25:23.000Z</time>
      </trkpt>
      <trkpt lat="47.45166" lon="6.71413">
        <ele>457</ele>
        <time>2015-06-28T09:25:24.000Z</time>
      </trkpt>
      <trkpt lat="47.45164" lon="6.71412">
        <ele>457</ele>
        <time>2015-06-28T09:25:25.000Z</time>
      </trkpt>
      <trkpt lat="47.45162" lon="6.7141">
        <ele>457</ele>
        <time>2015-06-28T09:25:26.000Z</time>
      </trkpt>
      <trkpt lat="47.4516" lon="6.71409">
        <ele>457</ele>
        <time>2015-06-28T09:25:27.000Z</time>
      </trkpt>
      <trkpt lat="47.45157" lon="6.71407">
        <ele>457</ele>
        <time>2015-06-28T09:25:28.000Z</time>
      </trkpt>
      <trkpt lat="47.45155" lon="6.71406">
        <ele>458</ele>
        <time>2015-06-28T09:25:29.000Z</time>
      </trkpt>
      <trkpt lat="47.45152" lon="6.71405">
        <ele>458</ele>
        <time>2015-06-28T09:25:30.000Z</time>
      </trkpt>
      <trkpt lat="47.4515" lon="6.71404">
        <ele>458</ele>
        <time>2015-06-28T09:25:31.000Z</time>
      </trkpt>
      <trkpt lat="47.45147" lon="6.71403">
        <ele>458</ele>
        <time>2015-06-28T09:25:32.000Z</time>
      </trkpt>
      <trkpt lat="47.45143" lon="6.71403">
        <ele>458</ele>
        <time>2015-06-28T09:25:33.000Z</time>
      </trkpt>
      <trkpt lat="47.4514" lon="6.71402">
        <ele>458</ele>
        <time>2015-06-28T09:25:34.000Z</time>
      </trkpt>
      <trkpt lat="47.45136" lon="6.71401">
        <ele>458</ele>
        <time>2015-06-28T09:25:35.000Z</time>
      </trkpt>
      <trkpt lat="47.45133" lon="6.714">
        <ele>459</ele>
        <time>2015-06-28T09:25:36.000Z</time>
      </trkpt>
      <trkpt lat="47.4513" lon="6.71399">
        <ele>459</ele>
        <time>2015-06-28T09:25:37.000Z</time>
      </trkpt>
      <trkpt lat="47.45127" lon="6.71397">
        <ele>459</ele>
        <time>2015-06-28T09:25:38.000Z</time>
      </trkpt>
      <trkpt lat="47.45125" lon="6.71396">
        <ele>459</ele>
        <time>2015-06-28T09:25:39.000Z</time>
      </trkpt>
      <trkpt lat="47.45122" lon="6.71395">
        <ele>459</ele>
        <time>2015-06-28T09:25:40.000Z</time>
      </trkpt>
      <trkpt lat="47.45118" lon="6.71395">
        <ele>460</ele>
        <time>2015-06-28T09:25:41.000Z</time>
      </trkpt>
      <trkpt lat="47.45114" lon="6.71395">
        <ele>460</ele>
        <time>2015-06-28T09:25:42.000Z</time>
      </trkpt>
      <trkpt lat="47.4511" lon="6.71395">
        <ele>460</ele>
        <time>2015-06-28T09:25:43.000Z</time>
      </trkpt>
      <trkpt lat="47.45106" lon="6.71395">
        <ele>460</ele>
        <time>2015-06-28T09:25:44.000Z</time>
      </trkpt>
      <trkpt lat="47.45102" lon="6.71395">
        <ele>461</ele>
        <time>2015-06-28T09:25:45.000Z</time>
      </trkpt>
      <trkpt lat="47.45099" lon="6.71395">
        <ele>461</ele>
        <time>2015-06-28T09:25:46.000Z</time>
      </trkpt>
      <trkpt lat="47.45095" lon="6.71395">
        <ele>461</ele>
        <time>2015-06-28T09:25:47.000Z</time>
      </trkpt>
      <trkpt lat="47.45091" lon="6.71394">
        <ele>461</ele>
        <time>2015-06-28T09:25:48.000Z</time>
      </trkpt>
      <trkpt lat="47.45088" lon="6.71393">
        <ele>462</ele>
        <time>2015-06-28T09:25:49.000Z</time>
      </trkpt>
      <trkpt lat="47.45085" lon="6.71392">
        <ele>462</ele>
        <time>2015-06-28T09:25:50.000Z</time>
      </trkpt>
      <trkpt lat="47.45082" lon="6.71391">
        <ele>467</ele>
        <time>2015-06-28T09:25:51.000Z</time>
      </trkpt>
      <trkpt lat="47.4508" lon="6.71391">
        <ele>467</ele>
        <time>2015-06-28T09:25:52.000Z</time>
      </trkpt>
      <trkpt lat="47.45077" lon="6.7139">
        <ele>467</ele>
        <time>2015-06-28T09:25:53.000Z</time>
      </trkpt>
      <trkpt lat="47.45073" lon="6.71391">
        <ele>467</ele>
        <time>2015-06-28T09:25:55.000Z</time>
      </trkpt>
      <trkpt lat="47.45071" lon="6.71392">
        <ele>467</ele>
        <time>2015-06-28T09:25:56.000Z</time>
      </trkpt>
      <trkpt lat="47.45067" lon="6.71393">
        <ele>467</ele>
        <time>2015-06-28T09:25:58.000Z</time>
      </trkpt>
      <trkpt lat="47.45065" lon="6.71393">
        <ele>467</ele>
        <time>2015-06-28T09:25:59.000Z</time>
      </trkpt>
      <trkpt lat="47.45062" lon="6.71393">
        <ele>467</ele>
        <time>2015-06-28T09:26:00.000Z</time>
      </trkpt>
      <trkpt lat="47.4506" lon="6.71392">
        <ele>467</ele>
        <time>2015-06-28T09:26:01.000Z</time>
      </trkpt>
      <trkpt lat="47.45058" lon="6.71391">
        <ele>467</ele>
        <time>2015-06-28T09:26:02.000Z</time>
      </trkpt>
      <trkpt lat="47.45055" lon="6.71391">
        <ele>467</ele>
        <time>2015-06-28T09:26:03.000Z</time>
      </trkpt>
      <trkpt lat="47.45052" lon="6.7139">
        <ele>467</ele>
        <time>2015-06-28T09:26:04.000Z</time>
      </trkpt>
      <trkpt lat="47.45048" lon="6.71389">
        <ele>468</ele>
        <time>2015-06-28T09:26:05.000Z</time>
      </trkpt>
      <trkpt lat="47.45045" lon="6.71388">
        <ele>468</ele>
        <time>2015-06-28T09:26:06.000Z</time>
      </trkpt>
      <trkpt lat="47.45041" lon="6.71387">
        <ele>468</ele>
        <time>2015-06-28T09:26:07.000Z</time>
      </trkpt>
      <trkpt lat="47.45038" lon="6.71387">
        <ele>468</ele>
        <time>2015-06-28T09:26:08.000Z</time>
      </trkpt>
      <trkpt lat="47.45034" lon="6.71386">
        <ele>468</ele>
        <time>2015-06-28T09:26:09.000Z</time>
      </trkpt>
      <trkpt lat="47.45031" lon="6.71386">
        <ele>468</ele>
        <time>2015-06-28T09:26:10.000Z</time>
      </trkpt>
      <trkpt lat="47.45027" lon="6.71385">
        <ele>468</ele>
        <time>2015-06-28T09:26:11.000Z</time>
      </trkpt>
      <trkpt lat="47.45024" lon="6.71385">
        <ele>469</ele>
        <time>2015-06-28T09:26:12.000Z</time>
      </trkpt>
      <trkpt lat="47.4502" lon="6.71385">
        <ele>469</ele>
        <time>2015-06-28T09:26:13.000Z</time>
      </trkpt>
      <trkpt lat="47.45016" lon="6.71385">
        <ele>469</ele>
        <time>2015-06-28T09:26:14.000Z</time>
      </trkpt>
      <trkpt lat="47.45013" lon="6.71385">
        <ele>469</ele>
        <time>2015-06-28T09:26:15.000Z</time>
      </trkpt>
      <trkpt lat="47.4501" lon="6.71385">
        <ele>469</ele>
        <time>2015-06-28T09:26:16.000Z</time>
      </trkpt>
      <trkpt lat="47.45007" lon="6.71384">
        <ele>469</ele>
        <time>2015-06-28T09:26:17.000Z</time>
      </trkpt>
      <trkpt lat="47.45004" lon="6.71384">
        <ele>469</ele>
        <time>2015-06-28T09:26:18.000Z</time>
      </trkpt>
      <trkpt lat="47.45" lon="6.71384">
        <ele>469</ele>
        <time>2015-06-28T09:26:19.000Z</time>
      </trkpt>
      <trkpt lat="47.44997" lon="6.71383">
        <ele>470</ele>
        <time>2015-06-28T09:26:20.000Z</time>
      </trkpt>
      <trkpt lat="47.44994" lon="6.71382">
        <ele>470</ele>
        <time>2015-06-28T09:26:21.000Z</time>
      </trkpt>
      <trkpt lat="47.44991" lon="6.71382">
        <ele>470</ele>
        <time>2015-06-28T09:26:22.000Z</time>
      </trkpt>
      <trkpt lat="47.44988" lon="6.71381">
        <ele>470</ele>
        <time>2015-06-28T09:26:23.000Z</time>
      </trkpt>
      <trkpt lat="47.44985" lon="6.7138">
        <ele>470</ele>
        <time>2015-06-28T09:26:24.000Z</time>
      </trkpt>
      <trkpt lat="47.44981" lon="6.71379">
        <ele>470</ele>
        <time>2015-06-28T09:26:25.000Z</time>
      </trkpt>
      <trkpt lat="47.44978" lon="6.71378">
        <ele>470</ele>
        <time>2015-06-28T09:26:26.000Z</time>
      </trkpt>
      <trkpt lat="47.44975" lon="6.71377">
        <ele>470</ele>
        <time>2015-06-28T09:26:27.000Z</time>
      </trkpt>
      <trkpt lat="47.44971" lon="6.71376">
        <ele>470</ele>
        <time>2015-06-28T09:26:28.000Z</time>
      </trkpt>
      <trkpt lat="47.44967" lon="6.71376">
        <ele>470</ele>
        <time>2015-06-28T09:26:29.000Z</time>
      </trkpt>
      <trkpt lat="47.44963" lon="6.71376">
        <ele>470</ele>
        <time>2015-06-28T09:26:30.000Z</time>
      </trkpt>
      <trkpt lat="47.44959" lon="6.71375">
        <ele>470</ele>
        <time>2015-06-28T09:26:31.000Z</time>
      </trkpt>
      <trkpt lat="47.44954" lon="6.71375">
        <ele>470</ele>
        <time>2015-06-28T09:26:32.000Z</time>
      </trkpt>
      <trkpt lat="47.4495" lon="6.71375">
        <ele>470</ele>
        <time>2015-06-28T09:26:33.000Z</time>
      </trkpt>
      <trkpt lat="47.44945" lon="6.71375">
        <ele>470</ele>
        <time>2015-06-28T09:26:34.000Z</time>
      </trkpt>
      <trkpt lat="47.44938" lon="6.71377">
        <ele>469</ele>
        <time>2015-06-28T09:26:35.000Z</time>
      </trkpt>
      <trkpt lat="47.44934" lon="6.71378">
        <ele>469</ele>
        <time>2015-06-28T09:26:36.000Z</time>
      </trkpt>
      <trkpt lat="47.44929" lon="6.71382">
        <ele>469</ele>
        <time>2015-06-28T09:26:37.000Z</time>
      </trkpt>
      <trkpt lat="47.44924" lon="6.71384">
        <ele>469</ele>
        <time>2015-06-28T09:26:38.000Z</time>
      </trkpt>
      <trkpt lat="47.44919" lon="6.71384">
        <ele>469</ele>
        <time>2015-06-28T09:26:39.000Z</time>
      </trkpt>
      <trkpt lat="47.44915" lon="6.71386">
        <ele>467</ele>
        <time>2015-06-28T09:26:40.000Z</time>
      </trkpt>
      <trkpt lat="47.44911" lon="6.71389">
        <ele>467</ele>
        <time>2015-06-28T09:26:41.000Z</time>
      </trkpt>
      <trkpt lat="47.44907" lon="6.71386">
        <ele>467</ele>
        <time>2015-06-28T09:26:42.000Z</time>
      </trkpt>
      <trkpt lat="47.44903" lon="6.71387">
        <ele>467</ele>
        <time>2015-06-28T09:26:43.000Z</time>
      </trkpt>
      <trkpt lat="47.449" lon="6.71389">
        <ele>467</ele>
        <time>2015-06-28T09:26:44.000Z</time>
      </trkpt>
      <trkpt lat="47.44896" lon="6.7139">
        <ele>467</ele>
        <time>2015-06-28T09:26:45.000Z</time>
      </trkpt>
      <trkpt lat="47.44893" lon="6.71391">
        <ele>466</ele>
        <time>2015-06-28T09:26:46.000Z</time>
      </trkpt>
      <trkpt lat="47.44889" lon="6.71395">
        <ele>466</ele>
        <time>2015-06-28T09:26:47.000Z</time>
      </trkpt>
      <trkpt lat="47.44886" lon="6.71397">
        <ele>466</ele>
        <time>2015-06-28T09:26:48.000Z</time>
      </trkpt>
      <trkpt lat="47.44883" lon="6.71397">
        <ele>466</ele>
        <time>2015-06-28T09:26:49.000Z</time>
      </trkpt>
      <trkpt lat="47.4488" lon="6.71395">
        <ele>466</ele>
        <time>2015-06-28T09:27:12.000Z</time>
      </trkpt>
      <trkpt lat="47.44877" lon="6.71395">
        <ele>466</ele>
        <time>2015-06-28T09:27:13.000Z</time>
      </trkpt>
      <trkpt lat="47.44873" lon="6.71396">
        <ele>466</ele>
        <time>2015-06-28T09:27:14.000Z</time>
      </trkpt>
      <trkpt lat="47.44868" lon="6.71395">
        <ele>466</ele>
        <time>2015-06-28T09:27:15.000Z</time>
      </trkpt>
      <trkpt lat="47.44865" lon="6.71395">
        <ele>465</ele>
        <time>2015-06-28T09:27:16.000Z</time>
      </trkpt>
      <trkpt lat="47.44861" lon="6.71395">
        <ele>465</ele>
        <time>2015-06-28T09:27:17.000Z</time>
      </trkpt>
      <trkpt lat="47.44858" lon="6.71395">
        <ele>465</ele>
        <time>2015-06-28T09:27:18.000Z</time>
      </trkpt>
      <trkpt lat="47.44854" lon="6.71396">
        <ele>465</ele>
        <time>2015-06-28T09:27:19.000Z</time>
      </trkpt>
      <trkpt lat="47.4485" lon="6.71396">
        <ele>465</ele>
        <time>2015-06-28T09:27:20.000Z</time>
      </trkpt>
      <trkpt lat="47.44845" lon="6.71397">
        <ele>465</ele>
        <time>2015-06-28T09:27:21.000Z</time>
      </trkpt>
      <trkpt lat="47.4484" lon="6.71399">
        <ele>464</ele>
        <time>2015-06-28T09:27:22.000Z</time>
      </trkpt>
      <trkpt lat="47.44835" lon="6.71401">
        <ele>464</ele>
        <time>2015-06-28T09:27:23.000Z</time>
      </trkpt>
      <trkpt lat="47.4483" lon="6.71402">
        <ele>462</ele>
        <time>2015-06-28T09:27:24.000Z</time>
      </trkpt>
      <trkpt lat="47.44826" lon="6.71403">
        <ele>462</ele>
        <time>2015-06-28T09:27:25.000Z</time>
      </trkpt>
      <trkpt lat="47.44822" lon="6.71403">
        <ele>461</ele>
        <time>2015-06-28T09:27:26.000Z</time>
      </trkpt>
      <trkpt lat="47.44818" lon="6.71403">
        <ele>461</ele>
        <time>2015-06-28T09:27:27.000Z</time>
      </trkpt>
      <trkpt lat="47.44815" lon="6.71402">
        <ele>461</ele>
        <time>2015-06-28T09:27:28.000Z</time>
      </trkpt>
      <trkpt lat="47.44812" lon="6.71402">
        <ele>461</ele>
        <time>2015-06-28T09:27:29.000Z</time>
      </trkpt>
      <trkpt lat="47.44809" lon="6.71403">
        <ele>461</ele>
        <time>2015-06-28T09:27:30.000Z</time>
      </trkpt>
      <trkpt lat="47.44806" lon="6.71403">
        <ele>461</ele>
        <time>2015-06-28T09:27:31.000Z</time>
      </trkpt>
      <trkpt lat="47.44803" lon="6.71404">
        <ele>461</ele>
        <time>2015-06-28T09:27:32.000Z</time>
      </trkpt>
      <trkpt lat="47.44799" lon="6.71406">
        <ele>460</ele>
        <time>2015-06-28T09:27:33.000Z</time>
      </trkpt>
      <trkpt lat="47.44794" lon="6.71408">
        <ele>460</ele>
        <time>2015-06-28T09:27:34.000Z</time>
      </trkpt>
      <trkpt lat="47.4479" lon="6.71412">
        <ele>460</ele>
        <time>2015-06-28T09:27:35.000Z</time>
      </trkpt>
      <trkpt lat="47.44786" lon="6.71415">
        <ele>460</ele>
        <time>2015-06-28T09:27:36.000Z</time>
      </trkpt>
      <trkpt lat="47.44782" lon="6.71418">
        <ele>458</ele>
        <time>2015-06-28T09:27:37.000Z</time>
      </trkpt>
      <trkpt lat="47.44779" lon="6.7142">
        <ele>458</ele>
        <time>2015-06-28T09:27:38.000Z</time>
      </trkpt>
      <trkpt lat="47.44775" lon="6.71423">
        <ele>458</ele>
        <time>2015-06-28T09:27:39.000Z</time>
      </trkpt>
      <trkpt lat="47.44771" lon="6.71424">
        <ele>458</ele>
        <time>2015-06-28T09:27:40.000Z</time>
      </trkpt>
      <trkpt lat="47.44767" lon="6.71425">
        <ele>458</ele>
        <time>2015-06-28T09:27:41.000Z</time>
      </trkpt>
      <trkpt lat="47.44763" lon="6.71426">
        <ele>458</ele>
        <time>2015-06-28T09:27:42.000Z</time>
      </trkpt>
      <trkpt lat="47.44759" lon="6.71425">
        <ele>457</ele>
        <time>2015-06-28T09:27:43.000Z</time>
      </trkpt>
      <trkpt lat="47.44754" lon="6.71424">
        <ele>457</ele>
        <time>2015-06-28T09:27:44.000Z</time>
      </trkpt>
      <trkpt lat="47.44751" lon="6.71421">
        <ele>457</ele>
        <time>2015-06-28T09:27:45.000Z</time>
      </trkpt>
      <trkpt lat="47.44747" lon="6.71418">
        <ele>457</ele>
        <time>2015-06-28T09:27:46.000Z</time>
      </trkpt>
      <trkpt lat="47.44744" lon="6.71414">
        <ele>457</ele>
        <time>2015-06-28T09:27:47.000Z</time>
      </trkpt>
      <trkpt lat="47.44741" lon="6.7141">
        <ele>456</ele>
        <time>2015-06-28T09:27:48.000Z</time>
      </trkpt>
      <trkpt lat="47.44738" lon="6.71406">
        <ele>456</ele>
        <time>2015-06-28T09:27:49.000Z</time>
      </trkpt>
      <trkpt lat="47.44733" lon="6.71403">
        <ele>456</ele>
        <time>2015-06-28T09:27:50.000Z</time>
      </trkpt>
      <trkpt lat="47.44728" lon="6.71399">
        <ele>456</ele>
        <time>2015-06-28T09:27:51.000Z</time>
      </trkpt>
      <trkpt lat="47.44722" lon="6.71395">
        <ele>456</ele>
        <time>2015-06-28T09:27:52.000Z</time>
      </trkpt>
      <trkpt lat="47.447" lon="6.71396">
        <ele>455</ele>
        <time>2015-06-28T09:27:53.000Z</time>
      </trkpt>
      <trkpt lat="47.44694" lon="6.71395">
        <ele>455</ele>
        <time>2015-06-28T09:27:54.000Z</time>
      </trkpt>
      <trkpt lat="47.44688" lon="6.71393">
        <ele>455</ele>
        <time>2015-06-28T09:27:55.000Z</time>
      </trkpt>
      <trkpt lat="47.44674" lon="6.71394">
        <ele>454</ele>
        <time>2015-06-28T09:27:56.000Z</time>
      </trkpt>
      <trkpt lat="47.44666" lon="6.71395">
        <ele>453</ele>
        <time>2015-06-28T09:27:57.000Z</time>
      </trkpt>
      <trkpt lat="47.44655" lon="6.71396">
        <ele>453</ele>
        <time>2015-06-28T09:27:58.000Z</time>
      </trkpt>
      <trkpt lat="47.44644" lon="6.71398">
        <ele>453</ele>
        <time>2015-06-28T09:27:59.000Z</time>
      </trkpt>
      <trkpt lat="47.44638" lon="6.71397">
        <ele>453</ele>
        <time>2015-06-28T09:28:00.000Z</time>
      </trkpt>
      <trkpt lat="47.44632" lon="6.71394">
        <ele>453</ele>
        <time>2015-06-28T09:28:01.000Z</time>
      </trkpt>
      <trkpt lat="47.44624" lon="6.71392">
        <ele>453</ele>
        <time>2015-06-28T09:28:02.000Z</time>
      </trkpt>
      <trkpt lat="47.44618" lon="6.71389">
        <ele>453</ele>
        <time>2015-06-28T09:28:03.000Z</time>
      </trkpt>
      <trkpt lat="47.44608" lon="6.71387">
        <ele>453</ele>
        <time>2015-06-28T09:28:04.000Z</time>
      </trkpt>
      <trkpt lat="47.44599" lon="6.71386">
        <ele>453</ele>
        <time>2015-06-28T09:28:05.000Z</time>
      </trkpt>
      <trkpt lat="47.44584" lon="6.71389">
        <ele>454</ele>
        <time>2015-06-28T09:28:06.000Z</time>
      </trkpt>
      <trkpt lat="47.44579" lon="6.71391">
        <ele>455</ele>
        <time>2015-06-28T09:28:07.000Z</time>
      </trkpt>
      <trkpt lat="47.44562" lon="6.71407">
        <ele>455</ele>
        <time>2015-06-28T09:28:08.000Z</time>
      </trkpt>
      <trkpt lat="47.44555" lon="6.71415">
        <ele>455</ele>
        <time>2015-06-28T09:28:09.000Z</time>
      </trkpt>
      <trkpt lat="47.4455" lon="6.71419">
        <ele>456</ele>
        <time>2015-06-28T09:28:10.000Z</time>
      </trkpt>
      <trkpt lat="47.44549" lon="6.71424">
        <ele>456</ele>
        <time>2015-06-28T09:28:11.000Z</time>
      </trkpt>
      <trkpt lat="47.44547" lon="6.71427">
        <ele>456</ele>
        <time>2015-06-28T09:28:12.000Z</time>
      </trkpt>
      <trkpt lat="47.44545" lon="6.71432">
        <ele>456</ele>
        <time>2015-06-28T09:28:13.000Z</time>
      </trkpt>
      <trkpt lat="47.44543" lon="6.71437">
        <ele>456</ele>
        <time>2015-06-28T09:28:14.000Z</time>
      </trkpt>
      <trkpt lat="47.44541" lon="6.71439">
        <ele>456</ele>
        <time>2015-06-28T09:28:15.000Z</time>
      </trkpt>
      <trkpt lat="47.44538" lon="6.71439">
        <ele>456</ele>
        <time>2015-06-28T09:28:16.000Z</time>
      </trkpt>
      <trkpt lat="47.44535" lon="6.71442">
        <ele>456</ele>
        <time>2015-06-28T09:28:18.000Z</time>
      </trkpt>
      <trkpt lat="47.44532" lon="6.71443">
        <ele>456</ele>
        <time>2015-06-28T09:28:19.000Z</time>
      </trkpt>
      <trkpt lat="47.44529" lon="6.71444">
        <ele>456</ele>
        <time>2015-06-28T09:28:20.000Z</time>
      </trkpt>
      <trkpt lat="47.44526" lon="6.71447">
        <ele>456</ele>
        <time>2015-06-28T09:28:21.000Z</time>
      </trkpt>
      <trkpt lat="47.44522" lon="6.7145">
        <ele>456</ele>
        <time>2015-06-28T09:28:22.000Z</time>
      </trkpt>
      <trkpt lat="47.44519" lon="6.71454">
        <ele>456</ele>
        <time>2015-06-28T09:28:23.000Z</time>
      </trkpt>
      <trkpt lat="47.44516" lon="6.71457">
        <ele>457</ele>
        <time>2015-06-28T09:28:24.000Z</time>
      </trkpt>
      <trkpt lat="47.44513" lon="6.7146">
        <ele>457</ele>
        <time>2015-06-28T09:28:25.000Z</time>
      </trkpt>
      <trkpt lat="47.44511" lon="6.71462">
        <ele>457</ele>
        <time>2015-06-28T09:28:26.000Z</time>
      </trkpt>
      <trkpt lat="47.44509" lon="6.71463">
        <ele>457</ele>
        <time>2015-06-28T09:28:27.000Z</time>
      </trkpt>
      <trkpt lat="47.44507" lon="6.71465">
        <ele>457</ele>
        <time>2015-06-28T09:28:28.000Z</time>
      </trkpt>
      <trkpt lat="47.44504" lon="6.71467">
        <ele>457</ele>
        <time>2015-06-28T09:28:29.000Z</time>
      </trkpt>
      <trkpt lat="47.44502" lon="6.71469">
        <ele>457</ele>
        <time>2015-06-28T09:28:30.000Z</time>
      </trkpt>
      <trkpt lat="47.445" lon="6.71471">
        <ele>458</ele>
        <time>2015-06-28T09:28:31.000Z</time>
      </trkpt>
      <trkpt lat="47.44497" lon="6.71473">
        <ele>458</ele>
        <time>2015-06-28T09:28:32.000Z</time>
      </trkpt>
      <trkpt lat="47.44495" lon="6.71476">
        <ele>458</ele>
        <time>2015-06-28T09:28:33.000Z</time>
      </trkpt>
      <trkpt lat="47.44493" lon="6.71479">
        <ele>458</ele>
        <time>2015-06-28T09:28:34.000Z</time>
      </trkpt>
      <trkpt lat="47.44491" lon="6.71482">
        <ele>458</ele>
        <time>2015-06-28T09:28:35.000Z</time>
      </trkpt>
      <trkpt lat="47.44488" lon="6.71485">
        <ele>458</ele>
        <time>2015-06-28T09:28:36.000Z</time>
      </trkpt>
      <trkpt lat="47.44486" lon="6.71489">
        <ele>458</ele>
        <time>2015-06-28T09:28:37.000Z</time>
      </trkpt>
      <trkpt lat="47.44484" lon="6.71492">
        <ele>458</ele>
        <time>2015-06-28T09:28:38.000Z</time>
      </trkpt>
      <trkpt lat="47.44482" lon="6.71495">
        <ele>458</ele>
        <time>2015-06-28T09:28:39.000Z</time>
      </trkpt>
      <trkpt lat="47.4448" lon="6.71498">
        <ele>458</ele>
        <time>2015-06-28T09:28:40.000Z</time>
      </trkpt>
      <trkpt lat="47.44478" lon="6.71501">
        <ele>459</ele>
        <time>2015-06-28T09:28:41.000Z</time>
      </trkpt>
      <trkpt lat="47.44476" lon="6.71504">
        <ele>459</ele>
        <time>2015-06-28T09:28:42.000Z</time>
      </trkpt>
      <trkpt lat="47.44474" lon="6.71506">
        <ele>459</ele>
        <time>2015-06-28T09:28:43.000Z</time>
      </trkpt>
      <trkpt lat="47.44472" lon="6.71509">
        <ele>459</ele>
        <time>2015-06-28T09:28:44.000Z</time>
      </trkpt>
      <trkpt lat="47.4447" lon="6.71511">
        <ele>459</ele>
        <time>2015-06-28T09:28:45.000Z</time>
      </trkpt>
      <trkpt lat="47.44468" lon="6.71515">
        <ele>459</ele>
        <time>2015-06-28T09:28:47.000Z</time>
      </trkpt>
      <trkpt lat="47.44466" lon="6.71517">
        <ele>459</ele>
        <time>2015-06-28T09:28:48.000Z</time>
      </trkpt>
      <trkpt lat="47.44463" lon="6.7152">
        <ele>459</ele>
        <time>2015-06-28T09:28:50.000Z</time>
      </trkpt>
      <trkpt lat="47.44461" lon="6.7152">
        <ele>459</ele>
        <time>2015-06-28T09:28:51.000Z</time>
      </trkpt>
      <trkpt lat="47.44458" lon="6.71521">
        <ele>459</ele>
        <time>2015-06-28T09:28:52.000Z</time>
      </trkpt>
      <trkpt lat="47.44456" lon="6.71522">
        <ele>459</ele>
        <time>2015-06-28T09:28:53.000Z</time>
      </trkpt>
      <trkpt lat="47.44453" lon="6.71523">
        <ele>459</ele>
        <time>2015-06-28T09:28:54.000Z</time>
      </trkpt>
      <trkpt lat="47.44451" lon="6.71524">
        <ele>459</ele>
        <time>2015-06-28T09:28:55.000Z</time>
      </trkpt>
      <trkpt lat="47.44447" lon="6.71527">
        <ele>459</ele>
        <time>2015-06-28T09:28:57.000Z</time>
      </trkpt>
      <trkpt lat="47.44445" lon="6.71527">
        <ele>459</ele>
        <time>2015-06-28T09:28:58.000Z</time>
      </trkpt>
      <trkpt lat="47.44441" lon="6.71529">
        <ele>459</ele>
        <time>2015-06-28T09:29:00.000Z</time>
      </trkpt>
      <trkpt lat="47.4444" lon="6.71529">
        <ele>459</ele>
        <time>2015-06-28T09:29:01.000Z</time>
      </trkpt>
      <trkpt lat="47.44437" lon="6.71529">
        <ele>459</ele>
        <time>2015-06-28T09:29:02.000Z</time>
      </trkpt>
      <trkpt lat="47.44434" lon="6.71529">
        <ele>459</ele>
        <time>2015-06-28T09:29:03.000Z</time>
      </trkpt>
      <trkpt lat="47.44432" lon="6.7153">
        <ele>459</ele>
        <time>2015-06-28T09:29:04.000Z</time>
      </trkpt>
      <trkpt lat="47.44429" lon="6.71531">
        <ele>459</ele>
        <time>2015-06-28T09:29:05.000Z</time>
      </trkpt>
      <trkpt lat="47.44425" lon="6.71532">
        <ele>459</ele>
        <time>2015-06-28T09:29:07.000Z</time>
      </trkpt>
      <trkpt lat="47.44423" lon="6.71533">
        <ele>459</ele>
        <time>2015-06-28T09:29:08.000Z</time>
      </trkpt>
      <trkpt lat="47.44421" lon="6.71534">
        <ele>459</ele>
        <time>2015-06-28T09:29:09.000Z</time>
      </trkpt>
      <trkpt lat="47.44418" lon="6.71535">
        <ele>459</ele>
        <time>2015-06-28T09:29:10.000Z</time>
      </trkpt>
      <trkpt lat="47.44416" lon="6.71535">
        <ele>461</ele>
        <time>2015-06-28T09:29:11.000Z</time>
      </trkpt>
      <trkpt lat="47.44414" lon="6.71536">
        <ele>462</ele>
        <time>2015-06-28T09:29:12.000Z</time>
      </trkpt>
      <trkpt lat="47.4441" lon="6.71537">
        <ele>462</ele>
        <time>2015-06-28T09:29:14.000Z</time>
      </trkpt>
      <trkpt lat="47.44408" lon="6.71538">
        <ele>462</ele>
        <time>2015-06-28T09:29:15.000Z</time>
      </trkpt>
      <trkpt lat="47.44404" lon="6.71539">
        <ele>462</ele>
        <time>2015-06-28T09:29:17.000Z</time>
      </trkpt>
      <trkpt lat="47.44402" lon="6.71539">
        <ele>462</ele>
        <time>2015-06-28T09:29:18.000Z</time>
      </trkpt>
      <trkpt lat="47.44399" lon="6.71539">
        <ele>462</ele>
        <time>2015-06-28T09:29:19.000Z</time>
      </trkpt>
      <trkpt lat="47.44397" lon="6.71539">
        <ele>462</ele>
        <time>2015-06-28T09:29:20.000Z</time>
      </trkpt>
      <trkpt lat="47.44394" lon="6.71539">
        <ele>462</ele>
        <time>2015-06-28T09:29:21.000Z</time>
      </trkpt>
      <trkpt lat="47.44392" lon="6.71538">
        <ele>462</ele>
        <time>2015-06-28T09:29:22.000Z</time>
      </trkpt>
      <trkpt lat="47.4439" lon="6.71537">
        <ele>462</ele>
        <time>2015-06-28T09:29:23.000Z</time>
      </trkpt>
      <trkpt lat="47.44387" lon="6.71535">
        <ele>462</ele>
        <time>2015-06-28T09:29:24.000Z</time>
      </trkpt>
      <trkpt lat="47.44384" lon="6.71534">
        <ele>462</ele>
        <time>2015-06-28T09:29:25.000Z</time>
      </trkpt>
      <trkpt lat="47.44381" lon="6.71533">
        <ele>462</ele>
        <time>2015-06-28T09:29:26.000Z</time>
      </trkpt>
      <trkpt lat="47.44379" lon="6.71531">
        <ele>462</ele>
        <time>2015-06-28T09:29:27.000Z</time>
      </trkpt>
      <trkpt lat="47.44376" lon="6.7153">
        <ele>462</ele>
        <time>2015-06-28T09:29:28.000Z</time>
      </trkpt>
      <trkpt lat="47.44373" lon="6.71529">
        <ele>463</ele>
        <time>2015-06-28T09:29:29.000Z</time>
      </trkpt>
      <trkpt lat="47.4437" lon="6.71528">
        <ele>463</ele>
        <time>2015-06-28T09:29:30.000Z</time>
      </trkpt>
      <trkpt lat="47.44366" lon="6.71527">
        <ele>463</ele>
        <time>2015-06-28T09:29:31.000Z</time>
      </trkpt>
      <trkpt lat="47.44363" lon="6.71525">
        <ele>463</ele>
        <time>2015-06-28T09:29:32.000Z</time>
      </trkpt>
      <trkpt lat="47.44361" lon="6.71524">
        <ele>463</ele>
        <time>2015-06-28T09:29:33.000Z</time>
      </trkpt>
      <trkpt lat="47.44358" lon="6.71523">
        <ele>463</ele>
        <time>2015-06-28T09:29:34.000Z</time>
      </trkpt>
      <trkpt lat="47.44355" lon="6.71522">
        <ele>463</ele>
        <time>2015-06-28T09:29:35.000Z</time>
      </trkpt>
      <trkpt lat="47.44351" lon="6.7152">
        <ele>463</ele>
        <time>2015-06-28T09:29:36.000Z</time>
      </trkpt>
      <trkpt lat="47.44347" lon="6.71519">
        <ele>463</ele>
        <time>2015-06-28T09:29:37.000Z</time>
      </trkpt>
      <trkpt lat="47.44343" lon="6.71518">
        <ele>463</ele>
        <time>2015-06-28T09:29:38.000Z</time>
      </trkpt>
      <trkpt lat="47.44338" lon="6.71518">
        <ele>463</ele>
        <time>2015-06-28T09:29:39.000Z</time>
      </trkpt>
      <trkpt lat="47.44334" lon="6.71518">
        <ele>464</ele>
        <time>2015-06-28T09:29:40.000Z</time>
      </trkpt>
      <trkpt lat="47.44331" lon="6.71517">
        <ele>465</ele>
        <time>2015-06-28T09:29:41.000Z</time>
      </trkpt>
      <trkpt lat="47.44327" lon="6.71517">
        <ele>465</ele>
        <time>2015-06-28T09:29:42.000Z</time>
      </trkpt>
      <trkpt lat="47.44324" lon="6.71517">
        <ele>465</ele>
        <time>2015-06-28T09:29:43.000Z</time>
      </trkpt>
      <trkpt lat="47.44321" lon="6.71516">
        <ele>465</ele>
        <time>2015-06-28T09:29:44.000Z</time>
      </trkpt>
      <trkpt lat="47.44319" lon="6.71516">
        <ele>465</ele>
        <time>2015-06-28T09:29:45.000Z</time>
      </trkpt>
      <trkpt lat="47.44316" lon="6.71516">
        <ele>466</ele>
        <time>2015-06-28T09:29:46.000Z</time>
      </trkpt>
      <trkpt lat="47.44313" lon="6.71516">
        <ele>466</ele>
        <time>2015-06-28T09:29:47.000Z</time>
      </trkpt>
      <trkpt lat="47.44311" lon="6.71515">
        <ele>466</ele>
        <time>2015-06-28T09:29:48.000Z</time>
      </trkpt>
      <trkpt lat="47.44308" lon="6.71515">
        <ele>466</ele>
        <time>2015-06-28T09:29:49.000Z</time>
      </trkpt>
      <trkpt lat="47.44305" lon="6.71515">
        <ele>466</ele>
        <time>2015-06-28T09:29:50.000Z</time>
      </trkpt>
      <trkpt lat="47.44302" lon="6.71514">
        <ele>466</ele>
        <time>2015-06-28T09:29:51.000Z</time>
      </trkpt>
      <trkpt lat="47.443" lon="6.71514">
        <ele>466</ele>
        <time>2015-06-28T09:29:52.000Z</time>
      </trkpt>
      <trkpt lat="47.44297" lon="6.71513">
        <ele>466</ele>
        <time>2015-06-28T09:29:53.000Z</time>
      </trkpt>
      <trkpt lat="47.44293" lon="6.71512">
        <ele>466</ele>
        <time>2015-06-28T09:29:54.000Z</time>
      </trkpt>
      <trkpt lat="47.44289" lon="6.71512">
        <ele>466</ele>
        <time>2015-06-28T09:29:55.000Z</time>
      </trkpt>
      <trkpt lat="47.44286" lon="6.71511">
        <ele>466</ele>
        <time>2015-06-28T09:29:56.000Z</time>
      </trkpt>
      <trkpt lat="47.44282" lon="6.71512">
        <ele>466</ele>
        <time>2015-06-28T09:29:57.000Z</time>
      </trkpt>
      <trkpt lat="47.44278" lon="6.71513">
        <ele>466</ele>
        <time>2015-06-28T09:29:58.000Z</time>
      </trkpt>
      <trkpt lat="47.44275" lon="6.71515">
        <ele>466</ele>
        <time>2015-06-28T09:29:59.000Z</time>
      </trkpt>
      <trkpt lat="47.44273" lon="6.71518">
        <ele>466</ele>
        <time>2015-06-28T09:30:00.000Z</time>
      </trkpt>
      <trkpt lat="47.44271" lon="6.71523">
        <ele>466</ele>
        <time>2015-06-28T09:30:01.000Z</time>
      </trkpt>
      <trkpt lat="47.44269" lon="6.71527">
        <ele>466</ele>
        <time>2015-06-28T09:30:02.000Z</time>
      </trkpt>
      <trkpt lat="47.44268" lon="6.71531">
        <ele>467</ele>
        <time>2015-06-28T09:30:03.000Z</time>
      </trkpt>
      <trkpt lat="47.44266" lon="6.71534">
        <ele>467</ele>
        <time>2015-06-28T09:30:04.000Z</time>
      </trkpt>
      <trkpt lat="47.44263" lon="6.71537">
        <ele>467</ele>
        <time>2015-06-28T09:30:05.000Z</time>
      </trkpt>
      <trkpt lat="47.4426" lon="6.71539">
        <ele>467</ele>
        <time>2015-06-28T09:30:06.000Z</time>
      </trkpt>
      <trkpt lat="47.44256" lon="6.71542">
        <ele>467</ele>
        <time>2015-06-28T09:30:07.000Z</time>
      </trkpt>
      <trkpt lat="47.44252" lon="6.71547">
        <ele>467</ele>
        <time>2015-06-28T09:30:08.000Z</time>
      </trkpt>
      <trkpt lat="47.44247" lon="6.71551">
        <ele>469</ele>
        <time>2015-06-28T09:30:09.000Z</time>
      </trkpt>
      <trkpt lat="47.44243" lon="6.71556">
        <ele>469</ele>
        <time>2015-06-28T09:30:10.000Z</time>
      </trkpt>
      <trkpt lat="47.44239" lon="6.71561">
        <ele>469</ele>
        <time>2015-06-28T09:30:11.000Z</time>
      </trkpt>
      <trkpt lat="47.44236" lon="6.71566">
        <ele>469</ele>
        <time>2015-06-28T09:30:12.000Z</time>
      </trkpt>
      <trkpt lat="47.44234" lon="6.7157">
        <ele>469</ele>
        <time>2015-06-28T09:30:13.000Z</time>
      </trkpt>
      <trkpt lat="47.44232" lon="6.71574">
        <ele>469</ele>
        <time>2015-06-28T09:30:14.000Z</time>
      </trkpt>
      <trkpt lat="47.44231" lon="6.71578">
        <ele>469</ele>
        <time>2015-06-28T09:30:15.000Z</time>
      </trkpt>
      <trkpt lat="47.4423" lon="6.71583">
        <ele>469</ele>
        <time>2015-06-28T09:30:16.000Z</time>
      </trkpt>
      <trkpt lat="47.4423" lon="6.71587">
        <ele>469</ele>
        <time>2015-06-28T09:30:17.000Z</time>
      </trkpt>
      <trkpt lat="47.44229" lon="6.71592">
        <ele>469</ele>
        <time>2015-06-28T09:30:18.000Z</time>
      </trkpt>
      <trkpt lat="47.44228" lon="6.71596">
        <ele>469</ele>
        <time>2015-06-28T09:30:19.000Z</time>
      </trkpt>
      <trkpt lat="47.44228" lon="6.716">
        <ele>469</ele>
        <time>2015-06-28T09:30:20.000Z</time>
      </trkpt>
      <trkpt lat="47.44227" lon="6.71604">
        <ele>469</ele>
        <time>2015-06-28T09:30:21.000Z</time>
      </trkpt>
      <trkpt lat="47.44226" lon="6.71608">
        <ele>469</ele>
        <time>2015-06-28T09:30:22.000Z</time>
      </trkpt>
      <trkpt lat="47.44226" lon="6.71612">
        <ele>469</ele>
        <time>2015-06-28T09:30:23.000Z</time>
      </trkpt>
      <trkpt lat="47.44225" lon="6.71616">
        <ele>469</ele>
        <time>2015-06-28T09:30:24.000Z</time>
      </trkpt>
      <trkpt lat="47.44225" lon="6.7162">
        <ele>469</ele>
        <time>2015-06-28T09:30:25.000Z</time>
      </trkpt>
      <trkpt lat="47.44225" lon="6.71625">
        <ele>469</ele>
        <time>2015-06-28T09:30:26.000Z</time>
      </trkpt>
      <trkpt lat="47.44225" lon="6.71629">
        <ele>469</ele>
        <time>2015-06-28T09:30:27.000Z</time>
      </trkpt>
      <trkpt lat="47.44224" lon="6.71633">
        <ele>469</ele>
        <time>2015-06-28T09:30:28.000Z</time>
      </trkpt>
      <trkpt lat="47.44224" lon="6.71637">
        <ele>469</ele>
        <time>2015-06-28T09:30:29.000Z</time>
      </trkpt>
      <trkpt lat="47.44223" lon="6.71641">
        <ele>469</ele>
        <time>2015-06-28T09:30:30.000Z</time>
      </trkpt>
      <trkpt lat="47.44222" lon="6.71644">
        <ele>469</ele>
        <time>2015-06-28T09:30:31.000Z</time>
      </trkpt>
      <trkpt lat="47.44221" lon="6.71648">
        <ele>469</ele>
        <time>2015-06-28T09:30:32.000Z</time>
      </trkpt>
      <trkpt lat="47.4422" lon="6.71651">
        <ele>469</ele>
        <time>2015-06-28T09:30:33.000Z</time>
      </trkpt>
      <trkpt lat="47.4422" lon="6.71655">
        <ele>469</ele>
        <time>2015-06-28T09:30:34.000Z</time>
      </trkpt>
      <trkpt lat="47.44219" lon="6.71659">
        <ele>469</ele>
        <time>2015-06-28T09:30:35.000Z</time>
      </trkpt>
      <trkpt lat="47.44218" lon="6.71663">
        <ele>469</ele>
        <time>2015-06-28T09:30:36.000Z</time>
      </trkpt>
      <trkpt lat="47.44216" lon="6.71667">
        <ele>468</ele>
        <time>2015-06-28T09:30:37.000Z</time>
      </trkpt>
      <trkpt lat="47.44215" lon="6.71671">
        <ele>468</ele>
        <time>2015-06-28T09:30:38.000Z</time>
      </trkpt>
      <trkpt lat="47.44214" lon="6.71674">
        <ele>468</ele>
        <time>2015-06-28T09:30:39.000Z</time>
      </trkpt>
      <trkpt lat="47.44213" lon="6.71678">
        <ele>468</ele>
        <time>2015-06-28T09:30:40.000Z</time>
      </trkpt>
      <trkpt lat="47.44211" lon="6.71682">
        <ele>468</ele>
        <time>2015-06-28T09:30:41.000Z</time>
      </trkpt>
      <trkpt lat="47.4421" lon="6.71686">
        <ele>468</ele>
        <time>2015-06-28T09:30:42.000Z</time>
      </trkpt>
      <trkpt lat="47.44208" lon="6.7169">
        <ele>468</ele>
        <time>2015-06-28T09:30:43.000Z</time>
      </trkpt>
      <trkpt lat="47.44205" lon="6.71695">
        <ele>468</ele>
        <time>2015-06-28T09:30:44.000Z</time>
      </trkpt>
      <trkpt lat="47.44203" lon="6.717">
        <ele>468</ele>
        <time>2015-06-28T09:30:45.000Z</time>
      </trkpt>
      <trkpt lat="47.442" lon="6.71705">
        <ele>468</ele>
        <time>2015-06-28T09:30:46.000Z</time>
      </trkpt>
      <trkpt lat="47.44199" lon="6.7171">
        <ele>468</ele>
        <time>2015-06-28T09:30:47.000Z</time>
      </trkpt>
      <trkpt lat="47.44198" lon="6.71714">
        <ele>468</ele>
        <time>2015-06-28T09:30:48.000Z</time>
      </trkpt>
      <trkpt lat="47.44198" lon="6.7172">
        <ele>468</ele>
        <time>2015-06-28T09:30:49.000Z</time>
      </trkpt>
      <trkpt lat="47.44198" lon="6.71725">
        <ele>468</ele>
        <time>2015-06-28T09:30:50.000Z</time>
      </trkpt>
      <trkpt lat="47.442" lon="6.7173">
        <ele>468</ele>
        <time>2015-06-28T09:30:51.000Z</time>
      </trkpt>
      <trkpt lat="47.44201" lon="6.71734">
        <ele>468</ele>
        <time>2015-06-28T09:30:52.000Z</time>
      </trkpt>
      <trkpt lat="47.44202" lon="6.71738">
        <ele>468</ele>
        <time>2015-06-28T09:30:53.000Z</time>
      </trkpt>
      <trkpt lat="47.44203" lon="6.71743">
        <ele>468</ele>
        <time>2015-06-28T09:30:54.000Z</time>
      </trkpt>
      <trkpt lat="47.44204" lon="6.71747">
        <ele>468</ele>
        <time>2015-06-28T09:30:55.000Z</time>
      </trkpt>
      <trkpt lat="47.44204" lon="6.71752">
        <ele>469</ele>
        <time>2015-06-28T09:30:56.000Z</time>
      </trkpt>
      <trkpt lat="47.44205" lon="6.71756">
        <ele>469</ele>
        <time>2015-06-28T09:30:57.000Z</time>
      </trkpt>
      <trkpt lat="47.44205" lon="6.71761">
        <ele>469</ele>
        <time>2015-06-28T09:30:58.000Z</time>
      </trkpt>
      <trkpt lat="47.44205" lon="6.71766">
        <ele>469</ele>
        <time>2015-06-28T09:30:59.000Z</time>
      </trkpt>
      <trkpt lat="47.44205" lon="6.7177">
        <ele>469</ele>
        <time>2015-06-28T09:31:00.000Z</time>
      </trkpt>
      <trkpt lat="47.44205" lon="6.71775">
        <ele>469</ele>
        <time>2015-06-28T09:31:01.000Z</time>
      </trkpt>
      <trkpt lat="47.44204" lon="6.71779">
        <ele>469</ele>
        <time>2015-06-28T09:31:02.000Z</time>
      </trkpt>
      <trkpt lat="47.44205" lon="6.71782">
        <ele>469</ele>
        <time>2015-06-28T09:31:03.000Z</time>
      </trkpt>
      <trkpt lat="47.44205" lon="6.71786">
        <ele>469</ele>
        <time>2015-06-28T09:31:04.000Z</time>
      </trkpt>
      <trkpt lat="47.44205" lon="6.7179">
        <ele>469</ele>
        <time>2015-06-28T09:31:05.000Z</time>
      </trkpt>
      <trkpt lat="47.44206" lon="6.71794">
        <ele>469</ele>
        <time>2015-06-28T09:31:06.000Z</time>
      </trkpt>
      <trkpt lat="47.44206" lon="6.71797">
        <ele>470</ele>
        <time>2015-06-28T09:31:07.000Z</time>
      </trkpt>
      <trkpt lat="47.44207" lon="6.71802">
        <ele>470</ele>
        <time>2015-06-28T09:31:08.000Z</time>
      </trkpt>
      <trkpt lat="47.44208" lon="6.71806">
        <ele>470</ele>
        <time>2015-06-28T09:31:09.000Z</time>
      </trkpt>
      <trkpt lat="47.44209" lon="6.7181">
        <ele>470</ele>
        <time>2015-06-28T09:31:10.000Z</time>
      </trkpt>
      <trkpt lat="47.44209" lon="6.71814">
        <ele>470</ele>
        <time>2015-06-28T09:31:11.000Z</time>
      </trkpt>
      <trkpt lat="47.44209" lon="6.71818">
        <ele>470</ele>
        <time>2015-06-28T09:31:12.000Z</time>
      </trkpt>
      <trkpt lat="47.44209" lon="6.71822">
        <ele>470</ele>
        <time>2015-06-28T09:31:13.000Z</time>
      </trkpt>
      <trkpt lat="47.44209" lon="6.71826">
        <ele>470</ele>
        <time>2015-06-28T09:31:14.000Z</time>
      </trkpt>
      <trkpt lat="47.44209" lon="6.71831">
        <ele>470</ele>
        <time>2015-06-28T09:31:15.000Z</time>
      </trkpt>
      <trkpt lat="47.4421" lon="6.71835">
        <ele>471</ele>
        <time>2015-06-28T09:31:16.000Z</time>
      </trkpt>
      <trkpt lat="47.4421" lon="6.71839">
        <ele>471</ele>
        <time>2015-06-28T09:31:17.000Z</time>
      </trkpt>
      <trkpt lat="47.44211" lon="6.71844">
        <ele>471</ele>
        <time>2015-06-28T09:31:18.000Z</time>
      </trkpt>
      <trkpt lat="47.44211" lon="6.71848">
        <ele>471</ele>
        <time>2015-06-28T09:31:19.000Z</time>
      </trkpt>
      <trkpt lat="47.44212" lon="6.71853">
        <ele>471</ele>
        <time>2015-06-28T09:31:21.000Z</time>
      </trkpt>
      <trkpt lat="47.44212" lon="6.71856">
        <ele>471</ele>
        <time>2015-06-28T09:31:22.000Z</time>
      </trkpt>
      <trkpt lat="47.44213" lon="6.71861">
        <ele>471</ele>
        <time>2015-06-28T09:31:25.000Z</time>
      </trkpt>
      <trkpt lat="47.44214" lon="6.71863">
        <ele>471</ele>
        <time>2015-06-28T09:31:26.000Z</time>
      </trkpt>
      <trkpt lat="47.44216" lon="6.71867">
        <ele>472</ele>
        <time>2015-06-28T09:31:28.000Z</time>
      </trkpt>
      <trkpt lat="47.44217" lon="6.71869">
        <ele>472</ele>
        <time>2015-06-28T09:31:29.000Z</time>
      </trkpt>
      <trkpt lat="47.44218" lon="6.71876">
        <ele>472</ele>
        <time>2015-06-28T09:31:39.000Z</time>
      </trkpt>
      <trkpt lat="47.44218" lon="6.71876">
        <ele>472</ele>
        <time>2015-06-28T09:31:40.000Z</time>
      </trkpt>
      <trkpt lat="47.44218" lon="6.71882">
        <ele>472</ele>
        <time>2015-06-28T09:31:44.000Z</time>
      </trkpt>
      <trkpt lat="47.44218" lon="6.71884">
        <ele>472</ele>
        <time>2015-06-28T09:31:45.000Z</time>
      </trkpt>
      <trkpt lat="47.44218" lon="6.71888">
        <ele>472</ele>
        <time>2015-06-28T09:31:46.000Z</time>
      </trkpt>
      <trkpt lat="47.44218" lon="6.71891">
        <ele>472</ele>
        <time>2015-06-28T09:31:47.000Z</time>
      </trkpt>
      <trkpt lat="47.44218" lon="6.71895">
        <ele>472</ele>
        <time>2015-06-28T09:31:48.000Z</time>
      </trkpt>
      <trkpt lat="47.44219" lon="6.71899">
        <ele>472</ele>
        <time>2015-06-28T09:31:49.000Z</time>
      </trkpt>
      <trkpt lat="47.4422" lon="6.71902">
        <ele>472</ele>
        <time>2015-06-28T09:31:50.000Z</time>
      </trkpt>
      <trkpt lat="47.44222" lon="6.71906">
        <ele>472</ele>
        <time>2015-06-28T09:31:51.000Z</time>
      </trkpt>
      <trkpt lat="47.44223" lon="6.71909">
        <ele>472</ele>
        <time>2015-06-28T09:31:52.000Z</time>
      </trkpt>
      <trkpt lat="47.44224" lon="6.71912">
        <ele>472</ele>
        <time>2015-06-28T09:31:53.000Z</time>
      </trkpt>
      <trkpt lat="47.44225" lon="6.71915">
        <ele>472</ele>
        <time>2015-06-28T09:31:54.000Z</time>
      </trkpt>
      <trkpt lat="47.44227" lon="6.71918">
        <ele>473</ele>
        <time>2015-06-28T09:31:55.000Z</time>
      </trkpt>
      <trkpt lat="47.44228" lon="6.71921">
        <ele>473</ele>
        <time>2015-06-28T09:31:56.000Z</time>
      </trkpt>
      <trkpt lat="47.4423" lon="6.71924">
        <ele>473</ele>
        <time>2015-06-28T09:31:57.000Z</time>
      </trkpt>
      <trkpt lat="47.44232" lon="6.71926">
        <ele>473</ele>
        <time>2015-06-28T09:31:58.000Z</time>
      </trkpt>
      <trkpt lat="47.44233" lon="6.71929">
        <ele>473</ele>
        <time>2015-06-28T09:31:59.000Z</time>
      </trkpt>
      <trkpt lat="47.44235" lon="6.71932">
        <ele>473</ele>
        <time>2015-06-28T09:32:00.000Z</time>
      </trkpt>
      <trkpt lat="47.44237" lon="6.71935">
        <ele>473</ele>
        <time>2015-06-28T09:32:01.000Z</time>
      </trkpt>
      <trkpt lat="47.44238" lon="6.71938">
        <ele>473</ele>
        <time>2015-06-28T09:32:02.000Z</time>
      </trkpt>
      <trkpt lat="47.4424" lon="6.71942">
        <ele>473</ele>
        <time>2015-06-28T09:32:03.000Z</time>
      </trkpt>
      <trkpt lat="47.44242" lon="6.71945">
        <ele>473</ele>
        <time>2015-06-28T09:32:04.000Z</time>
      </trkpt>
      <trkpt lat="47.44245" lon="6.71948">
        <ele>473</ele>
        <time>2015-06-28T09:32:05.000Z</time>
      </trkpt>
      <trkpt lat="47.44249" lon="6.71952">
        <ele>473</ele>
        <time>2015-06-28T09:32:06.000Z</time>
      </trkpt>
      <trkpt lat="47.44252" lon="6.71957">
        <ele>472</ele>
        <time>2015-06-28T09:32:07.000Z</time>
      </trkpt>
      <trkpt lat="47.44256" lon="6.7196">
        <ele>472</ele>
        <time>2015-06-28T09:32:08.000Z</time>
      </trkpt>
      <trkpt lat="47.44258" lon="6.71964">
        <ele>472</ele>
        <time>2015-06-28T09:32:09.000Z</time>
      </trkpt>
      <trkpt lat="47.44261" lon="6.71967">
        <ele>472</ele>
        <time>2015-06-28T09:32:10.000Z</time>
      </trkpt>
      <trkpt lat="47.44264" lon="6.71971">
        <ele>472</ele>
        <time>2015-06-28T09:32:11.000Z</time>
      </trkpt>
      <trkpt lat="47.44267" lon="6.71975">
        <ele>472</ele>
        <time>2015-06-28T09:32:12.000Z</time>
      </trkpt>
      <trkpt lat="47.44271" lon="6.71979">
        <ele>472</ele>
        <time>2015-06-28T09:32:13.000Z</time>
      </trkpt>
      <trkpt lat="47.44275" lon="6.71983">
        <ele>472</ele>
        <time>2015-06-28T09:32:14.000Z</time>
      </trkpt>
      <trkpt lat="47.44279" lon="6.71987">
        <ele>472</ele>
        <time>2015-06-28T09:32:15.000Z</time>
      </trkpt>
      <trkpt lat="47.44283" lon="6.71989">
        <ele>472</ele>
        <time>2015-06-28T09:32:16.000Z</time>
      </trkpt>
      <trkpt lat="47.44286" lon="6.71992">
        <ele>472</ele>
        <time>2015-06-28T09:32:17.000Z</time>
      </trkpt>
      <trkpt lat="47.4429" lon="6.71993">
        <ele>472</ele>
        <time>2015-06-28T09:32:18.000Z</time>
      </trkpt>
      <trkpt lat="47.44294" lon="6.71993">
        <ele>472</ele>
        <time>2015-06-28T09:32:19.000Z</time>
      </trkpt>
      <trkpt lat="47.44298" lon="6.71993">
        <ele>472</ele>
        <time>2015-06-28T09:32:20.000Z</time>
      </trkpt>
      <trkpt lat="47.44302" lon="6.71993">
        <ele>472</ele>
        <time>2015-06-28T09:32:21.000Z</time>
      </trkpt>
      <trkpt lat="47.44306" lon="6.71993">
        <ele>472</ele>
        <time>2015-06-28T09:32:22.000Z</time>
      </trkpt>
      <trkpt lat="47.4431" lon="6.71992">
        <ele>472</ele>
        <time>2015-06-28T09:32:23.000Z</time>
      </trkpt>
      <trkpt lat="47.44314" lon="6.71992">
        <ele>472</ele>
        <time>2015-06-28T09:32:24.000Z</time>
      </trkpt>
      <trkpt lat="47.44318" lon="6.71992">
        <ele>472</ele>
        <time>2015-06-28T09:32:25.000Z</time>
      </trkpt>
      <trkpt lat="47.44322" lon="6.71994">
        <ele>472</ele>
        <time>2015-06-28T09:32:26.000Z</time>
      </trkpt>
      <trkpt lat="47.44326" lon="6.71997">
        <ele>472</ele>
        <time>2015-06-28T09:32:27.000Z</time>
      </trkpt>
      <trkpt lat="47.44331" lon="6.72002">
        <ele>472</ele>
        <time>2015-06-28T09:32:28.000Z</time>
      </trkpt>
      <trkpt lat="47.44335" lon="6.72006">
        <ele>471</ele>
        <time>2015-06-28T09:32:29.000Z</time>
      </trkpt>
      <trkpt lat="47.44338" lon="6.7201">
        <ele>471</ele>
        <time>2015-06-28T09:32:30.000Z</time>
      </trkpt>
      <trkpt lat="47.44342" lon="6.72014">
        <ele>470</ele>
        <time>2015-06-28T09:32:31.000Z</time>
      </trkpt>
      <trkpt lat="47.44345" lon="6.72017">
        <ele>470</ele>
        <time>2015-06-28T09:32:32.000Z</time>
      </trkpt>
      <trkpt lat="47.44349" lon="6.72021">
        <ele>470</ele>
        <time>2015-06-28T09:32:33.000Z</time>
      </trkpt>
      <trkpt lat="47.44353" lon="6.72024">
        <ele>470</ele>
        <time>2015-06-28T09:32:34.000Z</time>
      </trkpt>
      <trkpt lat="47.44357" lon="6.72028">
        <ele>469</ele>
        <time>2015-06-28T09:32:35.000Z</time>
      </trkpt>
      <trkpt lat="47.44377" lon="6.72037">
        <ele>468</ele>
        <time>2015-06-28T09:32:36.000Z</time>
      </trkpt>
      <trkpt lat="47.44387" lon="6.72041">
        <ele>468</ele>
        <time>2015-06-28T09:32:37.000Z</time>
      </trkpt>
      <trkpt lat="47.44389" lon="6.72047">
        <ele>468</ele>
        <time>2015-06-28T09:32:38.000Z</time>
      </trkpt>
      <trkpt lat="47.44393" lon="6.72049">
        <ele>468</ele>
        <time>2015-06-28T09:32:39.000Z</time>
      </trkpt>
      <trkpt lat="47.44397" lon="6.72051">
        <ele>468</ele>
        <time>2015-06-28T09:32:40.000Z</time>
      </trkpt>
      <trkpt lat="47.44401" lon="6.72055">
        <ele>468</ele>
        <time>2015-06-28T09:32:41.000Z</time>
      </trkpt>
      <trkpt lat="47.44404" lon="6.72059">
        <ele>467</ele>
        <time>2015-06-28T09:32:42.000Z</time>
      </trkpt>
      <trkpt lat="47.44405" lon="6.72066">
        <ele>467</ele>
        <time>2015-06-28T09:32:43.000Z</time>
      </trkpt>
      <trkpt lat="47.44407" lon="6.72071">
        <ele>467</ele>
        <time>2015-06-28T09:32:44.000Z</time>
      </trkpt>
      <trkpt lat="47.44409" lon="6.72076">
        <ele>467</ele>
        <time>2015-06-28T09:32:45.000Z</time>
      </trkpt>
      <trkpt lat="47.4441" lon="6.7208">
        <ele>467</ele>
        <time>2015-06-28T09:32:46.000Z</time>
      </trkpt>
      <trkpt lat="47.44411" lon="6.72086">
        <ele>467</ele>
        <time>2015-06-28T09:32:47.000Z</time>
      </trkpt>
      <trkpt lat="47.44413" lon="6.72091">
        <ele>467</ele>
        <time>2015-06-28T09:32:48.000Z</time>
      </trkpt>
      <trkpt lat="47.44414" lon="6.72095">
        <ele>467</ele>
        <time>2015-06-28T09:32:49.000Z</time>
      </trkpt>
      <trkpt lat="47.44415" lon="6.721">
        <ele>468</ele>
        <time>2015-06-28T09:32:50.000Z</time>
      </trkpt>
      <trkpt lat="47.44416" lon="6.72104">
        <ele>468</ele>
        <time>2015-06-28T09:32:51.000Z</time>
      </trkpt>
      <trkpt lat="47.44417" lon="6.72108">
        <ele>465</ele>
        <time>2015-06-28T09:32:52.000Z</time>
      </trkpt>
      <trkpt lat="47.44418" lon="6.72112">
        <ele>465</ele>
        <time>2015-06-28T09:32:53.000Z</time>
      </trkpt>
      <trkpt lat="47.44419" lon="6.72116">
        <ele>465</ele>
        <time>2015-06-28T09:32:54.000Z</time>
      </trkpt>
      <trkpt lat="47.44419" lon="6.72121">
        <ele>465</ele>
        <time>2015-06-28T09:32:55.000Z</time>
      </trkpt>
      <trkpt lat="47.4442" lon="6.72126">
        <ele>465</ele>
        <time>2015-06-28T09:32:56.000Z</time>
      </trkpt>
      <trkpt lat="47.44421" lon="6.7213">
        <ele>465</ele>
        <time>2015-06-28T09:32:57.000Z</time>
      </trkpt>
      <trkpt lat="47.44423" lon="6.72133">
        <ele>465</ele>
        <time>2015-06-28T09:32:58.000Z</time>
      </trkpt>
      <trkpt lat="47.44425" lon="6.72136">
        <ele>465</ele>
        <time>2015-06-28T09:32:59.000Z</time>
      </trkpt>
      <trkpt lat="47.44426" lon="6.72139">
        <ele>465</ele>
        <time>2015-06-28T09:33:00.000Z</time>
      </trkpt>
      <trkpt lat="47.44427" lon="6.72143">
        <ele>465</ele>
        <time>2015-06-28T09:33:01.000Z</time>
      </trkpt>
      <trkpt lat="47.44429" lon="6.72146">
        <ele>465</ele>
        <time>2015-06-28T09:33:02.000Z</time>
      </trkpt>
      <trkpt lat="47.4443" lon="6.7215">
        <ele>465</ele>
        <time>2015-06-28T09:33:03.000Z</time>
      </trkpt>
      <trkpt lat="47.44431" lon="6.72153">
        <ele>465</ele>
        <time>2015-06-28T09:33:04.000Z</time>
      </trkpt>
      <trkpt lat="47.44432" lon="6.72156">
        <ele>466</ele>
        <time>2015-06-28T09:33:05.000Z</time>
      </trkpt>
      <trkpt lat="47.44433" lon="6.72161">
        <ele>466</ele>
        <time>2015-06-28T09:33:06.000Z</time>
      </trkpt>
      <trkpt lat="47.44433" lon="6.72165">
        <ele>466</ele>
        <time>2015-06-28T09:33:07.000Z</time>
      </trkpt>
      <trkpt lat="47.44434" lon="6.7217">
        <ele>467</ele>
        <time>2015-06-28T09:33:08.000Z</time>
      </trkpt>
      <trkpt lat="47.44434" lon="6.72174">
        <ele>467</ele>
        <time>2015-06-28T09:33:09.000Z</time>
      </trkpt>
      <trkpt lat="47.44435" lon="6.72179">
        <ele>467</ele>
        <time>2015-06-28T09:33:10.000Z</time>
      </trkpt>
      <trkpt lat="47.44436" lon="6.72183">
        <ele>467</ele>
        <time>2015-06-28T09:33:11.000Z</time>
      </trkpt>
      <trkpt lat="47.44437" lon="6.72187">
        <ele>467</ele>
        <time>2015-06-28T09:33:12.000Z</time>
      </trkpt>
      <trkpt lat="47.44438" lon="6.72191">
        <ele>467</ele>
        <time>2015-06-28T09:33:13.000Z</time>
      </trkpt>
      <trkpt lat="47.44439" lon="6.72194">
        <ele>468</ele>
        <time>2015-06-28T09:33:14.000Z</time>
      </trkpt>
      <trkpt lat="47.4444" lon="6.72198">
        <ele>468</ele>
        <time>2015-06-28T09:33:15.000Z</time>
      </trkpt>
      <trkpt lat="47.44441" lon="6.72203">
        <ele>468</ele>
        <time>2015-06-28T09:33:16.000Z</time>
      </trkpt>
      <trkpt lat="47.44442" lon="6.72206">
        <ele>468</ele>
        <time>2015-06-28T09:33:17.000Z</time>
      </trkpt>
      <trkpt lat="47.44443" lon="6.7221">
        <ele>468</ele>
        <time>2015-06-28T09:33:18.000Z</time>
      </trkpt>
      <trkpt lat="47.44443" lon="6.72214">
        <ele>468</ele>
        <time>2015-06-28T09:33:19.000Z</time>
      </trkpt>
      <trkpt lat="47.44444" lon="6.72218">
        <ele>468</ele>
        <time>2015-06-28T09:33:20.000Z</time>
      </trkpt>
      <trkpt lat="47.44445" lon="6.72222">
        <ele>468</ele>
        <time>2015-06-28T09:33:21.000Z</time>
      </trkpt>
      <trkpt lat="47.44446" lon="6.72226">
        <ele>468</ele>
        <time>2015-06-28T09:33:22.000Z</time>
      </trkpt>
      <trkpt lat="47.44446" lon="6.72231">
        <ele>468</ele>
        <time>2015-06-28T09:33:23.000Z</time>
      </trkpt>
      <trkpt lat="47.44447" lon="6.72235">
        <ele>469</ele>
        <time>2015-06-28T09:33:24.000Z</time>
      </trkpt>
      <trkpt lat="47.44448" lon="6.72239">
        <ele>469</ele>
        <time>2015-06-28T09:33:25.000Z</time>
      </trkpt>
      <trkpt lat="47.44449" lon="6.72243">
        <ele>469</ele>
        <time>2015-06-28T09:33:26.000Z</time>
      </trkpt>
      <trkpt lat="47.4445" lon="6.72248">
        <ele>469</ele>
        <time>2015-06-28T09:33:27.000Z</time>
      </trkpt>
      <trkpt lat="47.4445" lon="6.72252">
        <ele>472</ele>
        <time>2015-06-28T09:33:28.000Z</time>
      </trkpt>
      <trkpt lat="47.44451" lon="6.72256">
        <ele>472</ele>
        <time>2015-06-28T09:33:29.001Z</time>
      </trkpt>
      <trkpt lat="47.44452" lon="6.72261">
        <ele>472</ele>
        <time>2015-06-28T09:33:30.000Z</time>
      </trkpt>
      <trkpt lat="47.44452" lon="6.72265">
        <ele>472</ele>
        <time>2015-06-28T09:33:31.000Z</time>
      </trkpt>
      <trkpt lat="47.44453" lon="6.72269">
        <ele>472</ele>
        <time>2015-06-28T09:33:32.000Z</time>
      </trkpt>
      <trkpt lat="47.44454" lon="6.72273">
        <ele>472</ele>
        <time>2015-06-28T09:33:33.000Z</time>
      </trkpt>
      <trkpt lat="47.44454" lon="6.72277">
        <ele>472</ele>
        <time>2015-06-28T09:33:33.999Z</time>
      </trkpt>
      <trkpt lat="47.44455" lon="6.72282">
        <ele>472</ele>
        <time>2015-06-28T09:33:35.000Z</time>
      </trkpt>
      <trkpt lat="47.44456" lon="6.72286">
        <ele>472</ele>
        <time>2015-06-28T09:33:35.999Z</time>
      </trkpt>
      <trkpt lat="47.44457" lon="6.7229">
        <ele>472</ele>
        <time>2015-06-28T09:33:37.000Z</time>
      </trkpt>
      <trkpt lat="47.44458" lon="6.72294">
        <ele>472</ele>
        <time>2015-06-28T09:33:38.000Z</time>
      </trkpt>
      <trkpt lat="47.4446" lon="6.72298">
        <ele>472</ele>
        <time>2015-06-28T09:33:39.000Z</time>
      </trkpt>
      <trkpt lat="47.44461" lon="6.72301">
        <ele>473</ele>
        <time>2015-06-28T09:33:40.001Z</time>
      </trkpt>
      <trkpt lat="47.44462" lon="6.72305">
        <ele>473</ele>
        <time>2015-06-28T09:33:41.000Z</time>
      </trkpt>
      <trkpt lat="47.44463" lon="6.72309">
        <ele>473</ele>
        <time>2015-06-28T09:33:42.000Z</time>
      </trkpt>
      <trkpt lat="47.44464" lon="6.72313">
        <ele>473</ele>
        <time>2015-06-28T09:33:43.000Z</time>
      </trkpt>
      <trkpt lat="47.44464" lon="6.72317">
        <ele>473</ele>
        <time>2015-06-28T09:33:44.000Z</time>
      </trkpt>
      <trkpt lat="47.44465" lon="6.72321">
        <ele>473</ele>
        <time>2015-06-28T09:33:45.000Z</time>
      </trkpt>
      <trkpt lat="47.44466" lon="6.72325">
        <ele>473</ele>
        <time>2015-06-28T09:33:46.000Z</time>
      </trkpt>
      <trkpt lat="47.44468" lon="6.72328">
        <ele>473</ele>
        <time>2015-06-28T09:33:47.000Z</time>
      </trkpt>
      <trkpt lat="47.44469" lon="6.72331">
        <ele>473</ele>
        <time>2015-06-28T09:33:48.000Z</time>
      </trkpt>
      <trkpt lat="47.44471" lon="6.72334">
        <ele>477</ele>
        <time>2015-06-28T09:33:49.000Z</time>
      </trkpt>
      <trkpt lat="47.44472" lon="6.72336">
        <ele>477</ele>
        <time>2015-06-28T09:33:50.000Z</time>
      </trkpt>
      <trkpt lat="47.44473" lon="6.72339">
        <ele>477</ele>
        <time>2015-06-28T09:33:51.000Z</time>
      </trkpt>
      <trkpt lat="47.44477" lon="6.72347">
        <ele>477</ele>
        <time>2015-06-28T09:33:52.000Z</time>
      </trkpt>
      <trkpt lat="47.44479" lon="6.72353">
        <ele>478</ele>
        <time>2015-06-28T09:33:59.000Z</time>
      </trkpt>
      <trkpt lat="47.44479" lon="6.72353">
        <ele>478</ele>
        <time>2015-06-28T09:34:00.000Z</time>
      </trkpt>
      <trkpt lat="47.44483" lon="6.72355">
        <ele>478</ele>
        <time>2015-06-28T09:35:47.000Z</time>
      </trkpt>
      <trkpt lat="47.44484" lon="6.72355">
        <ele>478</ele>
        <time>2015-06-28T09:35:48.000Z</time>
      </trkpt>
      <trkpt lat="47.44486" lon="6.72356">
        <ele>478</ele>
        <time>2015-06-28T09:35:49.000Z</time>
      </trkpt>
      <trkpt lat="47.44489" lon="6.72358">
        <ele>478</ele>
        <time>2015-06-28T09:35:50.000Z</time>
      </trkpt>
      <trkpt lat="47.44491" lon="6.72361">
        <ele>478</ele>
        <time>2015-06-28T09:35:51.000Z</time>
      </trkpt>
      <trkpt lat="47.44493" lon="6.72363">
        <ele>478</ele>
        <time>2015-06-28T09:35:52.000Z</time>
      </trkpt>
      <trkpt lat="47.44494" lon="6.72367">
        <ele>478</ele>
        <time>2015-06-28T09:35:53.000Z</time>
      </trkpt>
      <trkpt lat="47.44495" lon="6.7237">
        <ele>479</ele>
        <time>2015-06-28T09:35:54.000Z</time>
      </trkpt>
      <trkpt lat="47.44496" lon="6.72374">
        <ele>479</ele>
        <time>2015-06-28T09:35:55.000Z</time>
      </trkpt>
      <trkpt lat="47.44496" lon="6.72379">
        <ele>479</ele>
        <time>2015-06-28T09:35:56.000Z</time>
      </trkpt>
      <trkpt lat="47.44497" lon="6.72383">
        <ele>479</ele>
        <time>2015-06-28T09:35:57.000Z</time>
      </trkpt>
      <trkpt lat="47.44498" lon="6.72387">
        <ele>480</ele>
        <time>2015-06-28T09:35:58.000Z</time>
      </trkpt>
      <trkpt lat="47.44499" lon="6.72392">
        <ele>480</ele>
        <time>2015-06-28T09:35:59.000Z</time>
      </trkpt>
      <trkpt lat="47.445" lon="6.72397">
        <ele>481</ele>
        <time>2015-06-28T09:36:00.000Z</time>
      </trkpt>
      <trkpt lat="47.44501" lon="6.72403">
        <ele>483</ele>
        <time>2015-06-28T09:36:01.000Z</time>
      </trkpt>
      <trkpt lat="47.44502" lon="6.72408">
        <ele>483</ele>
        <time>2015-06-28T09:36:02.000Z</time>
      </trkpt>
      <trkpt lat="47.44503" lon="6.72413">
        <ele>483</ele>
        <time>2015-06-28T09:36:03.000Z</time>
      </trkpt>
      <trkpt lat="47.44503" lon="6.72418">
        <ele>484</ele>
        <time>2015-06-28T09:36:04.000Z</time>
      </trkpt>
      <trkpt lat="47.44504" lon="6.72422">
        <ele>484</ele>
        <time>2015-06-28T09:36:05.000Z</time>
      </trkpt>
      <trkpt lat="47.44505" lon="6.72425">
        <ele>484</ele>
        <time>2015-06-28T09:36:06.000Z</time>
      </trkpt>
      <trkpt lat="47.44506" lon="6.72431">
        <ele>484</ele>
        <time>2015-06-28T09:36:08.000Z</time>
      </trkpt>
      <trkpt lat="47.44506" lon="6.72434">
        <ele>484</ele>
        <time>2015-06-28T09:36:09.000Z</time>
      </trkpt>
      <trkpt lat="47.44506" lon="6.72438">
        <ele>484</ele>
        <time>2015-06-28T09:36:10.000Z</time>
      </trkpt>
      <trkpt lat="47.44506" lon="6.72443">
        <ele>484</ele>
        <time>2015-06-28T09:36:11.000Z</time>
      </trkpt>
      <trkpt lat="47.44506" lon="6.72448">
        <ele>484</ele>
        <time>2015-06-28T09:36:12.000Z</time>
      </trkpt>
      <trkpt lat="47.44505" lon="6.72454">
        <ele>484</ele>
        <time>2015-06-28T09:36:13.000Z</time>
      </trkpt>
      <trkpt lat="47.44509" lon="6.72469">
        <ele>484</ele>
        <time>2015-06-28T09:36:14.000Z</time>
      </trkpt>
      <trkpt lat="47.44512" lon="6.72477">
        <ele>484</ele>
        <time>2015-06-28T09:36:15.000Z</time>
      </trkpt>
      <trkpt lat="47.44513" lon="6.72482">
        <ele>484</ele>
        <time>2015-06-28T09:36:16.000Z</time>
      </trkpt>
      <trkpt lat="47.44514" lon="6.72489">
        <ele>484</ele>
        <time>2015-06-28T09:36:17.000Z</time>
      </trkpt>
      <trkpt lat="47.44515" lon="6.72495">
        <ele>484</ele>
        <time>2015-06-28T09:36:18.000Z</time>
      </trkpt>
      <trkpt lat="47.44518" lon="6.72503">
        <ele>484</ele>
        <time>2015-06-28T09:36:19.000Z</time>
      </trkpt>
      <trkpt lat="47.44521" lon="6.7251">
        <ele>484</ele>
        <time>2015-06-28T09:36:20.000Z</time>
      </trkpt>
      <trkpt lat="47.44522" lon="6.72517">
        <ele>484</ele>
        <time>2015-06-28T09:36:21.000Z</time>
      </trkpt>
      <trkpt lat="47.44524" lon="6.72524">
        <ele>484</ele>
        <time>2015-06-28T09:36:22.000Z</time>
      </trkpt>
      <trkpt lat="47.44523" lon="6.72529">
        <ele>484</ele>
        <time>2015-06-28T09:36:23.000Z</time>
      </trkpt>
      <trkpt lat="47.44524" lon="6.72534">
        <ele>484</ele>
        <time>2015-06-28T09:36:24.000Z</time>
      </trkpt>
      <trkpt lat="47.44524" lon="6.72539">
        <ele>484</ele>
        <time>2015-06-28T09:36:25.000Z</time>
      </trkpt>
      <trkpt lat="47.44525" lon="6.72544">
        <ele>484</ele>
        <time>2015-06-28T09:36:26.000Z</time>
      </trkpt>
      <trkpt lat="47.44527" lon="6.72551">
        <ele>484</ele>
        <time>2015-06-28T09:36:27.000Z</time>
      </trkpt>
      <trkpt lat="47.4453" lon="6.72557">
        <ele>484</ele>
        <time>2015-06-28T09:36:28.000Z</time>
      </trkpt>
      <trkpt lat="47.44532" lon="6.72562">
        <ele>484</ele>
        <time>2015-06-28T09:36:29.000Z</time>
      </trkpt>
      <trkpt lat="47.44533" lon="6.72567">
        <ele>484</ele>
        <time>2015-06-28T09:36:30.000Z</time>
      </trkpt>
      <trkpt lat="47.44531" lon="6.72578">
        <ele>483</ele>
        <time>2015-06-28T09:36:31.000Z</time>
      </trkpt>
      <trkpt lat="47.44539" lon="6.72592">
        <ele>482</ele>
        <time>2015-06-28T09:36:32.000Z</time>
      </trkpt>
      <trkpt lat="47.44541" lon="6.726">
        <ele>482</ele>
        <time>2015-06-28T09:36:33.000Z</time>
      </trkpt>
      <trkpt lat="47.44541" lon="6.72606">
        <ele>482</ele>
        <time>2015-06-28T09:36:34.000Z</time>
      </trkpt>
      <trkpt lat="47.44541" lon="6.72609">
        <ele>482</ele>
        <time>2015-06-28T09:36:35.000Z</time>
      </trkpt>
      <trkpt lat="47.44541" lon="6.72613">
        <ele>482</ele>
        <time>2015-06-28T09:36:36.000Z</time>
      </trkpt>
      <trkpt lat="47.44541" lon="6.72619">
        <ele>482</ele>
        <time>2015-06-28T09:36:37.000Z</time>
      </trkpt>
      <trkpt lat="47.4454" lon="6.72624">
        <ele>482</ele>
        <time>2015-06-28T09:36:38.000Z</time>
      </trkpt>
      <trkpt lat="47.44542" lon="6.72628">
        <ele>482</ele>
        <time>2015-06-28T09:36:39.000Z</time>
      </trkpt>
      <trkpt lat="47.44543" lon="6.72632">
        <ele>482</ele>
        <time>2015-06-28T09:36:40.000Z</time>
      </trkpt>
      <trkpt lat="47.44545" lon="6.72637">
        <ele>482</ele>
        <time>2015-06-28T09:36:41.000Z</time>
      </trkpt>
      <trkpt lat="47.44546" lon="6.72643">
        <ele>482</ele>
        <time>2015-06-28T09:36:42.000Z</time>
      </trkpt>
      <trkpt lat="47.44548" lon="6.72648">
        <ele>482</ele>
        <time>2015-06-28T09:36:43.000Z</time>
      </trkpt>
      <trkpt lat="47.4455" lon="6.72654">
        <ele>482</ele>
        <time>2015-06-28T09:36:44.000Z</time>
      </trkpt>
      <trkpt lat="47.44552" lon="6.7266">
        <ele>482</ele>
        <time>2015-06-28T09:36:45.000Z</time>
      </trkpt>
      <trkpt lat="47.44555" lon="6.72666">
        <ele>482</ele>
        <time>2015-06-28T09:36:46.000Z</time>
      </trkpt>
      <trkpt lat="47.44557" lon="6.72672">
        <ele>481</ele>
        <time>2015-06-28T09:36:47.000Z</time>
      </trkpt>
      <trkpt lat="47.4456" lon="6.72679">
        <ele>481</ele>
        <time>2015-06-28T09:36:48.000Z</time>
      </trkpt>
      <trkpt lat="47.44564" lon="6.72686">
        <ele>481</ele>
        <time>2015-06-28T09:36:49.000Z</time>
      </trkpt>
      <trkpt lat="47.44568" lon="6.72693">
        <ele>481</ele>
        <time>2015-06-28T09:36:50.000Z</time>
      </trkpt>
      <trkpt lat="47.44571" lon="6.727">
        <ele>481</ele>
        <time>2015-06-28T09:36:51.000Z</time>
      </trkpt>
      <trkpt lat="47.44575" lon="6.72706">
        <ele>481</ele>
        <time>2015-06-28T09:36:52.000Z</time>
      </trkpt>
      <trkpt lat="47.44578" lon="6.72713">
        <ele>481</ele>
        <time>2015-06-28T09:36:53.000Z</time>
      </trkpt>
      <trkpt lat="47.4458" lon="6.72719">
        <ele>481</ele>
        <time>2015-06-28T09:36:54.000Z</time>
      </trkpt>
      <trkpt lat="47.44583" lon="6.72725">
        <ele>481</ele>
        <time>2015-06-28T09:36:55.000Z</time>
      </trkpt>
      <trkpt lat="47.44585" lon="6.72731">
        <ele>482</ele>
        <time>2015-06-28T09:36:56.000Z</time>
      </trkpt>
      <trkpt lat="47.44586" lon="6.72736">
        <ele>482</ele>
        <time>2015-06-28T09:36:57.000Z</time>
      </trkpt>
      <trkpt lat="47.44587" lon="6.7274">
        <ele>482</ele>
        <time>2015-06-28T09:36:58.000Z</time>
      </trkpt>
      <trkpt lat="47.44587" lon="6.72744">
        <ele>482</ele>
        <time>2015-06-28T09:36:59.000Z</time>
      </trkpt>
      <trkpt lat="47.44588" lon="6.72747">
        <ele>482</ele>
        <time>2015-06-28T09:36:59.999Z</time>
      </trkpt>
      <trkpt lat="47.44587" lon="6.72755">
        <ele>482</ele>
        <time>2015-06-28T09:37:01.000Z</time>
      </trkpt>
      <trkpt lat="47.44586" lon="6.72761">
        <ele>481</ele>
        <time>2015-06-28T09:37:02.000Z</time>
      </trkpt>
      <trkpt lat="47.44586" lon="6.72769">
        <ele>481</ele>
        <time>2015-06-28T09:37:03.000Z</time>
      </trkpt>
      <trkpt lat="47.44587" lon="6.72778">
        <ele>481</ele>
        <time>2015-06-28T09:37:04.000Z</time>
      </trkpt>
      <trkpt lat="47.44595" lon="6.72805">
        <ele>480</ele>
        <time>2015-06-28T09:37:05.000Z</time>
      </trkpt>
      <trkpt lat="47.44599" lon="6.72814">
        <ele>480</ele>
        <time>2015-06-28T09:37:06.000Z</time>
      </trkpt>
      <trkpt lat="47.44603" lon="6.72823">
        <ele>480</ele>
        <time>2015-06-28T09:37:07.000Z</time>
      </trkpt>
      <trkpt lat="47.44605" lon="6.72832">
        <ele>480</ele>
        <time>2015-06-28T09:37:08.000Z</time>
      </trkpt>
      <trkpt lat="47.44609" lon="6.72843">
        <ele>479</ele>
        <time>2015-06-28T09:37:09.000Z</time>
      </trkpt>
      <trkpt lat="47.44613" lon="6.72853">
        <ele>479</ele>
        <time>2015-06-28T09:37:10.000Z</time>
      </trkpt>
      <trkpt lat="47.44616" lon="6.72862">
        <ele>479</ele>
        <time>2015-06-28T09:37:11.000Z</time>
      </trkpt>
      <trkpt lat="47.44623" lon="6.72875">
        <ele>479</ele>
        <time>2015-06-28T09:37:12.000Z</time>
      </trkpt>
      <trkpt lat="47.44629" lon="6.72885">
        <ele>479</ele>
        <time>2015-06-28T09:37:13.000Z</time>
      </trkpt>
      <trkpt lat="47.44636" lon="6.72896">
        <ele>479</ele>
        <time>2015-06-28T09:37:14.000Z</time>
      </trkpt>
      <trkpt lat="47.44643" lon="6.72908">
        <ele>479</ele>
        <time>2015-06-28T09:37:15.000Z</time>
      </trkpt>
      <trkpt lat="47.44647" lon="6.72914">
        <ele>479</ele>
        <time>2015-06-28T09:37:16.000Z</time>
      </trkpt>
      <trkpt lat="47.44652" lon="6.72923">
        <ele>479</ele>
        <time>2015-06-28T09:37:17.000Z</time>
      </trkpt>
      <trkpt lat="47.44655" lon="6.7293">
        <ele>478</ele>
        <time>2015-06-28T09:37:18.000Z</time>
      </trkpt>
      <trkpt lat="47.44658" lon="6.72936">
        <ele>478</ele>
        <time>2015-06-28T09:37:19.000Z</time>
      </trkpt>
      <trkpt lat="47.4466" lon="6.72941">
        <ele>478</ele>
        <time>2015-06-28T09:37:20.000Z</time>
      </trkpt>
      <trkpt lat="47.44663" lon="6.72947">
        <ele>478</ele>
        <time>2015-06-28T09:37:21.000Z</time>
      </trkpt>
      <trkpt lat="47.44665" lon="6.72952">
        <ele>478</ele>
        <time>2015-06-28T09:37:22.000Z</time>
      </trkpt>
      <trkpt lat="47.44668" lon="6.72959">
        <ele>477</ele>
        <time>2015-06-28T09:37:23.000Z</time>
      </trkpt>
      <trkpt lat="47.44672" lon="6.72967">
        <ele>477</ele>
        <time>2015-06-28T09:37:24.000Z</time>
      </trkpt>
      <trkpt lat="47.44676" lon="6.72974">
        <ele>477</ele>
        <time>2015-06-28T09:37:25.000Z</time>
      </trkpt>
      <trkpt lat="47.4468" lon="6.72978">
        <ele>477</ele>
        <time>2015-06-28T09:37:26.000Z</time>
      </trkpt>
      <trkpt lat="47.44685" lon="6.7298">
        <ele>477</ele>
        <time>2015-06-28T09:37:27.000Z</time>
      </trkpt>
      <trkpt lat="47.44689" lon="6.72981">
        <ele>477</ele>
        <time>2015-06-28T09:37:28.000Z</time>
      </trkpt>
      <trkpt lat="47.44693" lon="6.72981">
        <ele>477</ele>
        <time>2015-06-28T09:37:29.000Z</time>
      </trkpt>
      <trkpt lat="47.44696" lon="6.72981">
        <ele>477</ele>
        <time>2015-06-28T09:37:30.000Z</time>
      </trkpt>
      <trkpt lat="47.44699" lon="6.7298">
        <ele>477</ele>
        <time>2015-06-28T09:37:31.000Z</time>
      </trkpt>
      <trkpt lat="47.44702" lon="6.7298">
        <ele>477</ele>
        <time>2015-06-28T09:37:32.000Z</time>
      </trkpt>
      <trkpt lat="47.44704" lon="6.72979">
        <ele>477</ele>
        <time>2015-06-28T09:37:33.000Z</time>
      </trkpt>
      <trkpt lat="47.44706" lon="6.72979">
        <ele>477</ele>
        <time>2015-06-28T09:37:33.999Z</time>
      </trkpt>
      <trkpt lat="47.44709" lon="6.7298">
        <ele>477</ele>
        <time>2015-06-28T09:37:35.000Z</time>
      </trkpt>
      <trkpt lat="47.44712" lon="6.72981">
        <ele>477</ele>
        <time>2015-06-28T09:37:36.000Z</time>
      </trkpt>
      <trkpt lat="47.44714" lon="6.72982">
        <ele>476</ele>
        <time>2015-06-28T09:37:37.000Z</time>
      </trkpt>
      <trkpt lat="47.44716" lon="6.72982">
        <ele>476</ele>
        <time>2015-06-28T09:37:38.000Z</time>
      </trkpt>
      <trkpt lat="47.44719" lon="6.72982">
        <ele>476</ele>
        <time>2015-06-28T09:37:39.000Z</time>
      </trkpt>
      <trkpt lat="47.44721" lon="6.72982">
        <ele>476</ele>
        <time>2015-06-28T09:37:40.000Z</time>
      </trkpt>
      <trkpt lat="47.44724" lon="6.72982">
        <ele>476</ele>
        <time>2015-06-28T09:37:41.000Z</time>
      </trkpt>
      <trkpt lat="47.44727" lon="6.72982">
        <ele>476</ele>
        <time>2015-06-28T09:37:42.000Z</time>
      </trkpt>
      <trkpt lat="47.44731" lon="6.72981">
        <ele>476</ele>
        <time>2015-06-28T09:37:43.000Z</time>
      </trkpt>
      <trkpt lat="47.44735" lon="6.72981">
        <ele>476</ele>
        <time>2015-06-28T09:37:44.000Z</time>
      </trkpt>
      <trkpt lat="47.4474" lon="6.72982">
        <ele>476</ele>
        <time>2015-06-28T09:37:45.000Z</time>
      </trkpt>
      <trkpt lat="47.44745" lon="6.72982">
        <ele>476</ele>
        <time>2015-06-28T09:37:46.000Z</time>
      </trkpt>
      <trkpt lat="47.44751" lon="6.72983">
        <ele>473</ele>
        <time>2015-06-28T09:37:47.000Z</time>
      </trkpt>
      <trkpt lat="47.44756" lon="6.72984">
        <ele>473</ele>
        <time>2015-06-28T09:37:48.000Z</time>
      </trkpt>
      <trkpt lat="47.44762" lon="6.72984">
        <ele>472</ele>
        <time>2015-06-28T09:37:49.000Z</time>
      </trkpt>
      <trkpt lat="47.44779" lon="6.7298">
        <ele>471</ele>
        <time>2015-06-28T09:37:50.000Z</time>
      </trkpt>
      <trkpt lat="47.44786" lon="6.72979">
        <ele>470</ele>
        <time>2015-06-28T09:37:51.000Z</time>
      </trkpt>
      <trkpt lat="47.44792" lon="6.72982">
        <ele>470</ele>
        <time>2015-06-28T09:37:52.000Z</time>
      </trkpt>
      <trkpt lat="47.44797" lon="6.72985">
        <ele>469</ele>
        <time>2015-06-28T09:37:53.000Z</time>
      </trkpt>
      <trkpt lat="47.44802" lon="6.72987">
        <ele>469</ele>
        <time>2015-06-28T09:37:54.000Z</time>
      </trkpt>
      <trkpt lat="47.4481" lon="6.7299">
        <ele>468</ele>
        <time>2015-06-28T09:37:55.000Z</time>
      </trkpt>
      <trkpt lat="47.44816" lon="6.72995">
        <ele>467</ele>
        <time>2015-06-28T09:37:56.000Z</time>
      </trkpt>
      <trkpt lat="47.44821" lon="6.72999">
        <ele>466</ele>
        <time>2015-06-28T09:37:57.000Z</time>
      </trkpt>
      <trkpt lat="47.44828" lon="6.73004">
        <ele>465</ele>
        <time>2015-06-28T09:37:58.000Z</time>
      </trkpt>
      <trkpt lat="47.44834" lon="6.73006">
        <ele>463</ele>
        <time>2015-06-28T09:37:59.000Z</time>
      </trkpt>
      <trkpt lat="47.44839" lon="6.73008">
        <ele>462</ele>
        <time>2015-06-28T09:38:00.000Z</time>
      </trkpt>
      <trkpt lat="47.44843" lon="6.7301">
        <ele>462</ele>
        <time>2015-06-28T09:38:01.000Z</time>
      </trkpt>
      <trkpt lat="47.44845" lon="6.73011">
        <ele>462</ele>
        <time>2015-06-28T09:38:02.000Z</time>
      </trkpt>
      <trkpt lat="47.44846" lon="6.7301">
        <ele>462</ele>
        <time>2015-06-28T09:38:03.000Z</time>
      </trkpt>
      <trkpt lat="47.44847" lon="6.73005">
        <ele>462</ele>
        <time>2015-06-28T09:38:04.000Z</time>
      </trkpt>
      <trkpt lat="47.44843" lon="6.73001">
        <ele>462</ele>
        <time>2015-06-28T09:38:05.000Z</time>
      </trkpt>
      <trkpt lat="47.44842" lon="6.72998">
        <ele>463</ele>
        <time>2015-06-28T09:38:06.000Z</time>
      </trkpt>
      <trkpt lat="47.44845" lon="6.72995">
        <ele>462</ele>
        <time>2015-06-28T09:38:20.000Z</time>
      </trkpt>
      <trkpt lat="47.44845" lon="6.72994">
        <ele>462</ele>
        <time>2015-06-28T09:38:21.000Z</time>
      </trkpt>
      <trkpt lat="47.44845" lon="6.72994">
        <ele>462</ele>
        <time>2015-06-28T09:38:22.000Z</time>
      </trkpt>
      <trkpt lat="47.44855" lon="6.72986">
        <ele>461</ele>
        <time>2015-06-28T09:38:23.000Z</time>
      </trkpt>
      <trkpt lat="47.44852" lon="6.7299">
        <ele>462</ele>
        <time>2015-06-28T09:38:30.000Z</time>
      </trkpt>
      <trkpt lat="47.44852" lon="6.72991">
        <ele>462</ele>
        <time>2015-06-28T09:38:31.000Z</time>
      </trkpt>
      <trkpt lat="47.4485" lon="6.72995">
        <ele>462</ele>
        <time>2015-06-28T09:38:33.000Z</time>
      </trkpt>
      <trkpt lat="47.44849" lon="6.72998">
        <ele>462</ele>
        <time>2015-06-28T09:38:34.000Z</time>
      </trkpt>
      <trkpt lat="47.44846" lon="6.73001">
        <ele>462</ele>
        <time>2015-06-28T09:38:36.000Z</time>
      </trkpt>
      <trkpt lat="47.44845" lon="6.73003">
        <ele>462</ele>
        <time>2015-06-28T09:38:37.000Z</time>
      </trkpt>
      <trkpt lat="47.44842" lon="6.73006">
        <ele>462</ele>
        <time>2015-06-28T09:38:39.000Z</time>
      </trkpt>
      <trkpt lat="47.44842" lon="6.73008">
        <ele>462</ele>
        <time>2015-06-28T09:38:40.000Z</time>
      </trkpt>
      <trkpt lat="47.44841" lon="6.73013">
        <ele>462</ele>
        <time>2015-06-28T09:38:42.000Z</time>
      </trkpt>
      <trkpt lat="47.4484" lon="6.73016">
        <ele>462</ele>
        <time>2015-06-28T09:38:43.000Z</time>
      </trkpt>
      <trkpt lat="47.44839" lon="6.73019">
        <ele>461</ele>
        <time>2015-06-28T09:38:44.000Z</time>
      </trkpt>
      <trkpt lat="47.44838" lon="6.73022">
        <ele>461</ele>
        <time>2015-06-28T09:38:45.000Z</time>
      </trkpt>
      <trkpt lat="47.44837" lon="6.73026">
        <ele>461</ele>
        <time>2015-06-28T09:38:46.000Z</time>
      </trkpt>
      <trkpt lat="47.44837" lon="6.7303">
        <ele>461</ele>
        <time>2015-06-28T09:38:47.000Z</time>
      </trkpt>
      <trkpt lat="47.44836" lon="6.73036">
        <ele>461</ele>
        <time>2015-06-28T09:38:48.000Z</time>
      </trkpt>
      <trkpt lat="47.44836" lon="6.73042">
        <ele>461</ele>
        <time>2015-06-28T09:38:49.000Z</time>
      </trkpt>
      <trkpt lat="47.44836" lon="6.73048">
        <ele>461</ele>
        <time>2015-06-28T09:38:50.000Z</time>
      </trkpt>
      <trkpt lat="47.44836" lon="6.73054">
        <ele>461</ele>
        <time>2015-06-28T09:38:51.000Z</time>
      </trkpt>
      <trkpt lat="47.44835" lon="6.73059">
        <ele>461</ele>
        <time>2015-06-28T09:38:52.000Z</time>
      </trkpt>
      <trkpt lat="47.44834" lon="6.73063">
        <ele>462</ele>
        <time>2015-06-28T09:38:53.000Z</time>
      </trkpt>
      <trkpt lat="47.44833" lon="6.73068">
        <ele>467</ele>
        <time>2015-06-28T09:38:54.000Z</time>
      </trkpt>
      <trkpt lat="47.44832" lon="6.73072">
        <ele>466</ele>
        <time>2015-06-28T09:38:55.000Z</time>
      </trkpt>
      <trkpt lat="47.44831" lon="6.73077">
        <ele>466</ele>
        <time>2015-06-28T09:38:56.000Z</time>
      </trkpt>
      <trkpt lat="47.44831" lon="6.73082">
        <ele>465</ele>
        <time>2015-06-28T09:38:57.000Z</time>
      </trkpt>
      <trkpt lat="47.4483" lon="6.73087">
        <ele>465</ele>
        <time>2015-06-28T09:38:58.000Z</time>
      </trkpt>
      <trkpt lat="47.44829" lon="6.73092">
        <ele>466</ele>
        <time>2015-06-28T09:38:59.000Z</time>
      </trkpt>
      <trkpt lat="47.44828" lon="6.73097">
        <ele>466</ele>
        <time>2015-06-28T09:39:00.000Z</time>
      </trkpt>
      <trkpt lat="47.44828" lon="6.73101">
        <ele>466</ele>
        <time>2015-06-28T09:39:01.000Z</time>
      </trkpt>
      <trkpt lat="47.44827" lon="6.73105">
        <ele>466</ele>
        <time>2015-06-28T09:39:02.000Z</time>
      </trkpt>
      <trkpt lat="47.44826" lon="6.7311">
        <ele>466</ele>
        <time>2015-06-28T09:39:03.000Z</time>
      </trkpt>
      <trkpt lat="47.44825" lon="6.73115">
        <ele>466</ele>
        <time>2015-06-28T09:39:04.000Z</time>
      </trkpt>
      <trkpt lat="47.44825" lon="6.73121">
        <ele>466</ele>
        <time>2015-06-28T09:39:05.000Z</time>
      </trkpt>
      <trkpt lat="47.44825" lon="6.73127">
        <ele>466</ele>
        <time>2015-06-28T09:39:06.000Z</time>
      </trkpt>
      <trkpt lat="47.44824" lon="6.73133">
        <ele>466</ele>
        <time>2015-06-28T09:39:07.000Z</time>
      </trkpt>
      <trkpt lat="47.44824" lon="6.73138">
        <ele>466</ele>
        <time>2015-06-28T09:39:08.000Z</time>
      </trkpt>
      <trkpt lat="47.44823" lon="6.73143">
        <ele>466</ele>
        <time>2015-06-28T09:39:09.000Z</time>
      </trkpt>
      <trkpt lat="47.44822" lon="6.73149">
        <ele>466</ele>
        <time>2015-06-28T09:39:10.000Z</time>
      </trkpt>
      <trkpt lat="47.44821" lon="6.73155">
        <ele>466</ele>
        <time>2015-06-28T09:39:11.000Z</time>
      </trkpt>
      <trkpt lat="47.44821" lon="6.73161">
        <ele>466</ele>
        <time>2015-06-28T09:39:12.000Z</time>
      </trkpt>
      <trkpt lat="47.4482" lon="6.73168">
        <ele>465</ele>
        <time>2015-06-28T09:39:13.000Z</time>
      </trkpt>
      <trkpt lat="47.4482" lon="6.73177">
        <ele>466</ele>
        <time>2015-06-28T09:39:14.000Z</time>
      </trkpt>
      <trkpt lat="47.44821" lon="6.73187">
        <ele>466</ele>
        <time>2015-06-28T09:39:15.000Z</time>
      </trkpt>
      <trkpt lat="47.44821" lon="6.73198">
        <ele>466</ele>
        <time>2015-06-28T09:39:16.000Z</time>
      </trkpt>
      <trkpt lat="47.4482" lon="6.73208">
        <ele>466</ele>
        <time>2015-06-28T09:39:17.000Z</time>
      </trkpt>
      <trkpt lat="47.4482" lon="6.73218">
        <ele>466</ele>
        <time>2015-06-28T09:39:18.000Z</time>
      </trkpt>
      <trkpt lat="47.4482" lon="6.73228">
        <ele>466</ele>
        <time>2015-06-28T09:39:19.000Z</time>
      </trkpt>
      <trkpt lat="47.4482" lon="6.73237">
        <ele>466</ele>
        <time>2015-06-28T09:39:20.000Z</time>
      </trkpt>
      <trkpt lat="47.44821" lon="6.73246">
        <ele>466</ele>
        <time>2015-06-28T09:39:21.000Z</time>
      </trkpt>
      <trkpt lat="47.44821" lon="6.73255">
        <ele>466</ele>
        <time>2015-06-28T09:39:22.000Z</time>
      </trkpt>
      <trkpt lat="47.44821" lon="6.73263">
        <ele>465</ele>
        <time>2015-06-28T09:39:23.000Z</time>
      </trkpt>
      <trkpt lat="47.4482" lon="6.73272">
        <ele>465</ele>
        <time>2015-06-28T09:39:24.000Z</time>
      </trkpt>
      <trkpt lat="47.44819" lon="6.7328">
        <ele>465</ele>
        <time>2015-06-28T09:39:25.000Z</time>
      </trkpt>
      <trkpt lat="47.44817" lon="6.73287">
        <ele>465</ele>
        <time>2015-06-28T09:39:26.000Z</time>
      </trkpt>
      <trkpt lat="47.44815" lon="6.73293">
        <ele>465</ele>
        <time>2015-06-28T09:39:27.000Z</time>
      </trkpt>
      <trkpt lat="47.44813" lon="6.733">
        <ele>465</ele>
        <time>2015-06-28T09:39:28.000Z</time>
      </trkpt>
      <trkpt lat="47.44811" lon="6.73307">
        <ele>465</ele>
        <time>2015-06-28T09:39:29.000Z</time>
      </trkpt>
      <trkpt lat="47.4481" lon="6.73312">
        <ele>465</ele>
        <time>2015-06-28T09:39:30.000Z</time>
      </trkpt>
      <trkpt lat="47.44808" lon="6.73318">
        <ele>465</ele>
        <time>2015-06-28T09:39:31.000Z</time>
      </trkpt>
      <trkpt lat="47.44807" lon="6.73324">
        <ele>465</ele>
        <time>2015-06-28T09:39:32.000Z</time>
      </trkpt>
      <trkpt lat="47.44806" lon="6.7333">
        <ele>465</ele>
        <time>2015-06-28T09:39:33.000Z</time>
      </trkpt>
      <trkpt lat="47.44806" lon="6.73337">
        <ele>463</ele>
        <time>2015-06-28T09:39:34.000Z</time>
      </trkpt>
      <trkpt lat="47.44805" lon="6.73344">
        <ele>463</ele>
        <time>2015-06-28T09:39:35.000Z</time>
      </trkpt>
      <trkpt lat="47.44805" lon="6.73351">
        <ele>462</ele>
        <time>2015-06-28T09:39:36.000Z</time>
      </trkpt>
      <trkpt lat="47.44806" lon="6.73359">
        <ele>462</ele>
        <time>2015-06-28T09:39:37.000Z</time>
      </trkpt>
      <trkpt lat="47.44805" lon="6.73367">
        <ele>462</ele>
        <time>2015-06-28T09:39:38.000Z</time>
      </trkpt>
      <trkpt lat="47.44805" lon="6.73375">
        <ele>462</ele>
        <time>2015-06-28T09:39:39.000Z</time>
      </trkpt>
      <trkpt lat="47.44803" lon="6.73382">
        <ele>462</ele>
        <time>2015-06-28T09:39:40.000Z</time>
      </trkpt>
      <trkpt lat="47.44802" lon="6.7339">
        <ele>461</ele>
        <time>2015-06-28T09:39:41.000Z</time>
      </trkpt>
      <trkpt lat="47.4481" lon="6.73426">
        <ele>459</ele>
        <time>2015-06-28T09:39:42.000Z</time>
      </trkpt>
      <trkpt lat="47.44814" lon="6.73443">
        <ele>459</ele>
        <time>2015-06-28T09:39:43.000Z</time>
      </trkpt>
      <trkpt lat="47.44814" lon="6.73452">
        <ele>458</ele>
        <time>2015-06-28T09:39:44.000Z</time>
      </trkpt>
      <trkpt lat="47.44816" lon="6.73462">
        <ele>458</ele>
        <time>2015-06-28T09:39:45.000Z</time>
      </trkpt>
      <trkpt lat="47.44816" lon="6.73472">
        <ele>458</ele>
        <time>2015-06-28T09:39:46.000Z</time>
      </trkpt>
      <trkpt lat="47.44816" lon="6.73481">
        <ele>458</ele>
        <time>2015-06-28T09:39:47.000Z</time>
      </trkpt>
      <trkpt lat="47.44816" lon="6.7349">
        <ele>458</ele>
        <time>2015-06-28T09:39:48.000Z</time>
      </trkpt>
      <trkpt lat="47.44815" lon="6.73501">
        <ele>456</ele>
        <time>2015-06-28T09:39:49.000Z</time>
      </trkpt>
      <trkpt lat="47.44811" lon="6.73507">
        <ele>455</ele>
        <time>2015-06-28T09:39:50.000Z</time>
      </trkpt>
      <trkpt lat="47.44808" lon="6.73512">
        <ele>455</ele>
        <time>2015-06-28T09:39:50.999Z</time>
      </trkpt>
      <trkpt lat="47.44803" lon="6.73531">
        <ele>454</ele>
        <time>2015-06-28T09:39:52.000Z</time>
      </trkpt>
      <trkpt lat="47.44803" lon="6.73539">
        <ele>454</ele>
        <time>2015-06-28T09:39:53.000Z</time>
      </trkpt>
      <trkpt lat="47.44803" lon="6.73551">
        <ele>453</ele>
        <time>2015-06-28T09:39:54.000Z</time>
      </trkpt>
      <trkpt lat="47.44801" lon="6.73559">
        <ele>453</ele>
        <time>2015-06-28T09:39:55.000Z</time>
      </trkpt>
      <trkpt lat="47.44802" lon="6.73569">
        <ele>453</ele>
        <time>2015-06-28T09:39:56.000Z</time>
      </trkpt>
      <trkpt lat="47.44802" lon="6.73578">
        <ele>453</ele>
        <time>2015-06-28T09:39:57.000Z</time>
      </trkpt>
      <trkpt lat="47.44801" lon="6.73585">
        <ele>450</ele>
        <time>2015-06-28T09:39:58.000Z</time>
      </trkpt>
      <trkpt lat="47.44801" lon="6.73596">
        <ele>450</ele>
        <time>2015-06-28T09:39:59.000Z</time>
      </trkpt>
      <trkpt lat="47.44801" lon="6.73605">
        <ele>449</ele>
        <time>2015-06-28T09:40:00.000Z</time>
      </trkpt>
      <trkpt lat="47.44803" lon="6.73619">
        <ele>449</ele>
        <time>2015-06-28T09:40:01.000Z</time>
      </trkpt>
      <trkpt lat="47.448" lon="6.73632">
        <ele>448</ele>
        <time>2015-06-28T09:40:02.000Z</time>
      </trkpt>
      <trkpt lat="47.44799" lon="6.73643">
        <ele>448</ele>
        <time>2015-06-28T09:40:03.000Z</time>
      </trkpt>
      <trkpt lat="47.44799" lon="6.73655">
        <ele>448</ele>
        <time>2015-06-28T09:40:04.000Z</time>
      </trkpt>
      <trkpt lat="47.44798" lon="6.73669">
        <ele>444</ele>
        <time>2015-06-28T09:40:05.000Z</time>
      </trkpt>
      <trkpt lat="47.44797" lon="6.73682">
        <ele>444</ele>
        <time>2015-06-28T09:40:06.000Z</time>
      </trkpt>
      <trkpt lat="47.44799" lon="6.737">
        <ele>444</ele>
        <time>2015-06-28T09:40:07.000Z</time>
      </trkpt>
      <trkpt lat="47.44799" lon="6.73718">
        <ele>443</ele>
        <time>2015-06-28T09:40:08.000Z</time>
      </trkpt>
      <trkpt lat="47.44795" lon="6.73733">
        <ele>443</ele>
        <time>2015-06-28T09:40:09.000Z</time>
      </trkpt>
      <trkpt lat="47.44793" lon="6.7375">
        <ele>442</ele>
        <time>2015-06-28T09:40:10.000Z</time>
      </trkpt>
      <trkpt lat="47.44792" lon="6.73762">
        <ele>439</ele>
        <time>2015-06-28T09:40:11.000Z</time>
      </trkpt>
      <trkpt lat="47.44792" lon="6.73775">
        <ele>438</ele>
        <time>2015-06-28T09:40:12.000Z</time>
      </trkpt>
      <trkpt lat="47.44793" lon="6.7379">
        <ele>438</ele>
        <time>2015-06-28T09:40:13.000Z</time>
      </trkpt>
      <trkpt lat="47.44791" lon="6.73805">
        <ele>437</ele>
        <time>2015-06-28T09:40:14.000Z</time>
      </trkpt>
      <trkpt lat="47.44786" lon="6.73813">
        <ele>437</ele>
        <time>2015-06-28T09:40:15.000Z</time>
      </trkpt>
      <trkpt lat="47.44787" lon="6.73831">
        <ele>436</ele>
        <time>2015-06-28T09:40:16.000Z</time>
      </trkpt>
      <trkpt lat="47.44784" lon="6.73841">
        <ele>432</ele>
        <time>2015-06-28T09:40:17.000Z</time>
      </trkpt>
      <trkpt lat="47.44779" lon="6.7385">
        <ele>432</ele>
        <time>2015-06-28T09:40:18.000Z</time>
      </trkpt>
      <trkpt lat="47.44774" lon="6.73869">
        <ele>431</ele>
        <time>2015-06-28T09:40:19.000Z</time>
      </trkpt>
      <trkpt lat="47.4477" lon="6.73876">
        <ele>431</ele>
        <time>2015-06-28T09:40:20.000Z</time>
      </trkpt>
      <trkpt lat="47.44767" lon="6.73883">
        <ele>430</ele>
        <time>2015-06-28T09:40:21.000Z</time>
      </trkpt>
      <trkpt lat="47.44763" lon="6.7389">
        <ele>430</ele>
        <time>2015-06-28T09:40:22.000Z</time>
      </trkpt>
      <trkpt lat="47.44761" lon="6.73897">
        <ele>429</ele>
        <time>2015-06-28T09:40:23.000Z</time>
      </trkpt>
      <trkpt lat="47.44758" lon="6.73905">
        <ele>428</ele>
        <time>2015-06-28T09:40:24.000Z</time>
      </trkpt>
      <trkpt lat="47.44758" lon="6.73915">
        <ele>427</ele>
        <time>2015-06-28T09:40:25.000Z</time>
      </trkpt>
      <trkpt lat="47.44759" lon="6.73929">
        <ele>424</ele>
        <time>2015-06-28T09:40:26.000Z</time>
      </trkpt>
      <trkpt lat="47.4476" lon="6.73943">
        <ele>424</ele>
        <time>2015-06-28T09:40:27.000Z</time>
      </trkpt>
      <trkpt lat="47.44759" lon="6.73959">
        <ele>423</ele>
        <time>2015-06-28T09:40:28.000Z</time>
      </trkpt>
      <trkpt lat="47.44758" lon="6.73972">
        <ele>422</ele>
        <time>2015-06-28T09:40:29.000Z</time>
      </trkpt>
      <trkpt lat="47.44762" lon="6.73991">
        <ele>420</ele>
        <time>2015-06-28T09:40:30.000Z</time>
      </trkpt>
      <trkpt lat="47.44766" lon="6.74014">
        <ele>416</ele>
        <time>2015-06-28T09:40:31.000Z</time>
      </trkpt>
      <trkpt lat="47.44767" lon="6.74029">
        <ele>415</ele>
        <time>2015-06-28T09:40:32.000Z</time>
      </trkpt>
      <trkpt lat="47.44766" lon="6.74041">
        <ele>414</ele>
        <time>2015-06-28T09:40:33.000Z</time>
      </trkpt>
      <trkpt lat="47.44767" lon="6.74049">
        <ele>414</ele>
        <time>2015-06-28T09:40:34.000Z</time>
      </trkpt>
      <trkpt lat="47.44769" lon="6.74058">
        <ele>413</ele>
        <time>2015-06-28T09:40:35.000Z</time>
      </trkpt>
      <trkpt lat="47.44772" lon="6.74074">
        <ele>412</ele>
        <time>2015-06-28T09:40:36.000Z</time>
      </trkpt>
      <trkpt lat="47.44773" lon="6.74084">
        <ele>407</ele>
        <time>2015-06-28T09:40:37.000Z</time>
      </trkpt>
      <trkpt lat="47.44777" lon="6.7409">
        <ele>407</ele>
        <time>2015-06-28T09:40:38.000Z</time>
      </trkpt>
      <trkpt lat="47.44782" lon="6.74103">
        <ele>406</ele>
        <time>2015-06-28T09:40:39.000Z</time>
      </trkpt>
      <trkpt lat="47.44789" lon="6.74121">
        <ele>405</ele>
        <time>2015-06-28T09:40:40.000Z</time>
      </trkpt>
      <trkpt lat="47.44798" lon="6.74133">
        <ele>404</ele>
        <time>2015-06-28T09:40:41.000Z</time>
      </trkpt>
      <trkpt lat="47.44804" lon="6.74142">
        <ele>404</ele>
        <time>2015-06-28T09:40:42.000Z</time>
      </trkpt>
      <trkpt lat="47.44809" lon="6.74154">
        <ele>403</ele>
        <time>2015-06-28T09:40:43.000Z</time>
      </trkpt>
      <trkpt lat="47.44814" lon="6.74164">
        <ele>403</ele>
        <time>2015-06-28T09:40:44.000Z</time>
      </trkpt>
      <trkpt lat="47.44816" lon="6.74171">
        <ele>399</ele>
        <time>2015-06-28T09:40:45.000Z</time>
      </trkpt>
      <trkpt lat="47.44817" lon="6.74176">
        <ele>399</ele>
        <time>2015-06-28T09:40:46.000Z</time>
      </trkpt>
      <trkpt lat="47.44818" lon="6.74184">
        <ele>399</ele>
        <time>2015-06-28T09:40:47.000Z</time>
      </trkpt>
      <trkpt lat="47.44819" lon="6.74191">
        <ele>398</ele>
        <time>2015-06-28T09:40:48.000Z</time>
      </trkpt>
      <trkpt lat="47.44822" lon="6.74203">
        <ele>398</ele>
        <time>2015-06-28T09:40:49.000Z</time>
      </trkpt>
      <trkpt lat="47.44824" lon="6.74211">
        <ele>397</ele>
        <time>2015-06-28T09:40:50.000Z</time>
      </trkpt>
      <trkpt lat="47.44827" lon="6.74217">
        <ele>397</ele>
        <time>2015-06-28T09:40:51.000Z</time>
      </trkpt>
      <trkpt lat="47.44829" lon="6.74228">
        <ele>397</ele>
        <time>2015-06-28T09:40:52.000Z</time>
      </trkpt>
      <trkpt lat="47.4483" lon="6.74236">
        <ele>396</ele>
        <time>2015-06-28T09:40:53.000Z</time>
      </trkpt>
      <trkpt lat="47.44835" lon="6.7425">
        <ele>396</ele>
        <time>2015-06-28T09:40:54.000Z</time>
      </trkpt>
      <trkpt lat="47.44843" lon="6.74266">
        <ele>392</ele>
        <time>2015-06-28T09:40:55.000Z</time>
      </trkpt>
      <trkpt lat="47.4485" lon="6.74282">
        <ele>391</ele>
        <time>2015-06-28T09:40:56.000Z</time>
      </trkpt>
      <trkpt lat="47.44857" lon="6.74296">
        <ele>390</ele>
        <time>2015-06-28T09:40:57.000Z</time>
      </trkpt>
      <trkpt lat="47.44868" lon="6.74314">
        <ele>389</ele>
        <time>2015-06-28T09:40:58.000Z</time>
      </trkpt>
      <trkpt lat="47.44873" lon="6.74326">
        <ele>389</ele>
        <time>2015-06-28T09:40:59.000Z</time>
      </trkpt>
      <trkpt lat="47.44879" lon="6.74337">
        <ele>386</ele>
        <time>2015-06-28T09:41:00.000Z</time>
      </trkpt>
      <trkpt lat="47.44884" lon="6.74348">
        <ele>386</ele>
        <time>2015-06-28T09:41:01.000Z</time>
      </trkpt>
      <trkpt lat="47.4489" lon="6.74356">
        <ele>385</ele>
        <time>2015-06-28T09:41:02.000Z</time>
      </trkpt>
      <trkpt lat="47.44895" lon="6.74364">
        <ele>385</ele>
        <time>2015-06-28T09:41:03.000Z</time>
      </trkpt>
      <trkpt lat="47.44902" lon="6.74371">
        <ele>385</ele>
        <time>2015-06-28T09:41:04.000Z</time>
      </trkpt>
      <trkpt lat="47.44907" lon="6.74377">
        <ele>384</ele>
        <time>2015-06-28T09:41:05.000Z</time>
      </trkpt>
      <trkpt lat="47.44914" lon="6.74385">
        <ele>384</ele>
        <time>2015-06-28T09:41:06.000Z</time>
      </trkpt>
      <trkpt lat="47.44921" lon="6.74392">
        <ele>380</ele>
        <time>2015-06-28T09:41:07.000Z</time>
      </trkpt>
      <trkpt lat="47.44927" lon="6.74396">
        <ele>380</ele>
        <time>2015-06-28T09:41:08.000Z</time>
      </trkpt>
      <trkpt lat="47.44932" lon="6.74402">
        <ele>380</ele>
        <time>2015-06-28T09:41:09.000Z</time>
      </trkpt>
      <trkpt lat="47.44937" lon="6.74407">
        <ele>380</ele>
        <time>2015-06-28T09:41:10.000Z</time>
      </trkpt>
      <trkpt lat="47.44939" lon="6.74412">
        <ele>380</ele>
        <time>2015-06-28T09:41:11.000Z</time>
      </trkpt>
      <trkpt lat="47.44942" lon="6.74416">
        <ele>379</ele>
        <time>2015-06-28T09:41:13.000Z</time>
      </trkpt>
      <trkpt lat="47.44944" lon="6.74418">
        <ele>379</ele>
        <time>2015-06-28T09:41:14.000Z</time>
      </trkpt>
      <trkpt lat="47.44947" lon="6.74416">
        <ele>379</ele>
        <time>2015-06-28T09:41:54.000Z</time>
      </trkpt>
      <trkpt lat="47.44951" lon="6.74423">
        <ele>378</ele>
        <time>2015-06-28T09:41:55.000Z</time>
      </trkpt>
      <trkpt lat="47.44953" lon="6.74427">
        <ele>378</ele>
        <time>2015-06-28T09:41:57.000Z</time>
      </trkpt>
      <trkpt lat="47.44954" lon="6.74428">
        <ele>378</ele>
        <time>2015-06-28T09:41:58.000Z</time>
      </trkpt>
      <trkpt lat="47.44958" lon="6.74429">
        <ele>378</ele>
        <time>2015-06-28T09:42:02.000Z</time>
      </trkpt>
      <trkpt lat="47.44959" lon="6.74429">
        <ele>378</ele>
        <time>2015-06-28T09:42:03.000Z</time>
      </trkpt>
      <trkpt lat="47.44961" lon="6.7443">
        <ele>378</ele>
        <time>2015-06-28T09:42:04.000Z</time>
      </trkpt>
      <trkpt lat="47.44964" lon="6.74431">
        <ele>378</ele>
        <time>2015-06-28T09:42:05.000Z</time>
      </trkpt>
      <trkpt lat="47.44966" lon="6.74433">
        <ele>378</ele>
        <time>2015-06-28T09:42:06.000Z</time>
      </trkpt>
      <trkpt lat="47.44969" lon="6.74434">
        <ele>377</ele>
        <time>2015-06-28T09:42:07.000Z</time>
      </trkpt>
      <trkpt lat="47.44973" lon="6.74435">
        <ele>377</ele>
        <time>2015-06-28T09:42:09.000Z</time>
      </trkpt>
      <trkpt lat="47.44975" lon="6.74435">
        <ele>377</ele>
        <time>2015-06-28T09:42:10.000Z</time>
      </trkpt>
      <trkpt lat="47.44979" lon="6.74436">
        <ele>377</ele>
        <time>2015-06-28T09:42:12.000Z</time>
      </trkpt>
      <trkpt lat="47.4498" lon="6.74436">
        <ele>377</ele>
        <time>2015-06-28T09:42:13.000Z</time>
      </trkpt>
      <trkpt lat="47.44985" lon="6.74436">
        <ele>376</ele>
        <time>2015-06-28T09:42:16.000Z</time>
      </trkpt>
      <trkpt lat="47.44986" lon="6.74436">
        <ele>376</ele>
        <time>2015-06-28T09:42:17.000Z</time>
      </trkpt>
      <trkpt lat="47.4499" lon="6.74436">
        <ele>376</ele>
        <time>2015-06-28T09:42:20.000Z</time>
      </trkpt>
      <trkpt lat="47.44991" lon="6.74436">
        <ele>376</ele>
        <time>2015-06-28T09:42:21.000Z</time>
      </trkpt>
      <trkpt lat="47.44995" lon="6.74435">
        <ele>376</ele>
        <time>2015-06-28T09:42:25.000Z</time>
      </trkpt>
      <trkpt lat="47.44996" lon="6.74435">
        <ele>376</ele>
        <time>2015-06-28T09:42:26.000Z</time>
      </trkpt>
      <trkpt lat="47.45" lon="6.74433">
        <ele>375</ele>
        <time>2015-06-28T09:42:30.000Z</time>
      </trkpt>
      <trkpt lat="47.45001" lon="6.74432">
        <ele>375</ele>
        <time>2015-06-28T09:42:31.000Z</time>
      </trkpt>
      <trkpt lat="47.45005" lon="6.74428">
        <ele>375</ele>
        <time>2015-06-28T09:42:35.000Z</time>
      </trkpt>
      <trkpt lat="47.45006" lon="6.74427">
        <ele>375</ele>
        <time>2015-06-28T09:42:36.000Z</time>
      </trkpt>
      <trkpt lat="47.45009" lon="6.74425">
        <ele>375</ele>
        <time>2015-06-28T09:42:39.000Z</time>
      </trkpt>
      <trkpt lat="47.4501" lon="6.74424">
        <ele>375</ele>
        <time>2015-06-28T09:42:40.000Z</time>
      </trkpt>
      <trkpt lat="47.45014" lon="6.74422">
        <ele>375</ele>
        <time>2015-06-28T09:42:43.000Z</time>
      </trkpt>
      <trkpt lat="47.45015" lon="6.74421">
        <ele>375</ele>
        <time>2015-06-28T09:42:44.000Z</time>
      </trkpt>
      <trkpt lat="47.45019" lon="6.74419">
        <ele>376</ele>
        <time>2015-06-28T09:42:47.000Z</time>
      </trkpt>
      <trkpt lat="47.4502" lon="6.74418">
        <ele>376</ele>
        <time>2015-06-28T09:42:48.000Z</time>
      </trkpt>
      <trkpt lat="47.45022" lon="6.74414">
        <ele>377</ele>
        <time>2015-06-28T09:42:51.000Z</time>
      </trkpt>
      <trkpt lat="47.45023" lon="6.74413">
        <ele>377</ele>
        <time>2015-06-28T09:42:52.000Z</time>
      </trkpt>
      <trkpt lat="47.45027" lon="6.74411">
        <ele>378</ele>
        <time>2015-06-28T09:42:54.000Z</time>
      </trkpt>
      <trkpt lat="47.45028" lon="6.7441">
        <ele>378</ele>
        <time>2015-06-28T09:42:55.000Z</time>
      </trkpt>
      <trkpt lat="47.45031" lon="6.74407">
        <ele>379</ele>
        <time>2015-06-28T09:42:57.000Z</time>
      </trkpt>
      <trkpt lat="47.45033" lon="6.74405">
        <ele>379</ele>
        <time>2015-06-28T09:42:58.000Z</time>
      </trkpt>
      <trkpt lat="47.45035" lon="6.74403">
        <ele>379</ele>
        <time>2015-06-28T09:43:00.000Z</time>
      </trkpt>
      <trkpt lat="47.45036" lon="6.74401">
        <ele>379</ele>
        <time>2015-06-28T09:43:01.000Z</time>
      </trkpt>
      <trkpt lat="47.45039" lon="6.74401">
        <ele>379</ele>
        <time>2015-06-28T09:43:03.000Z</time>
      </trkpt>
      <trkpt lat="47.45041" lon="6.744">
        <ele>380</ele>
        <time>2015-06-28T09:43:04.000Z</time>
      </trkpt>
      <trkpt lat="47.45044" lon="6.74397">
        <ele>380</ele>
        <time>2015-06-28T09:43:07.000Z</time>
      </trkpt>
      <trkpt lat="47.45045" lon="6.74396">
        <ele>380</ele>
        <time>2015-06-28T09:43:08.000Z</time>
      </trkpt>
      <trkpt lat="47.45048" lon="6.74391">
        <ele>380</ele>
        <time>2015-06-28T09:43:11.000Z</time>
      </trkpt>
      <trkpt lat="47.45049" lon="6.7439">
        <ele>380</ele>
        <time>2015-06-28T09:43:12.000Z</time>
      </trkpt>
      <trkpt lat="47.45053" lon="6.74386">
        <ele>381</ele>
        <time>2015-06-28T09:43:16.000Z</time>
      </trkpt>
      <trkpt lat="47.45054" lon="6.74386">
        <ele>381</ele>
        <time>2015-06-28T09:43:17.000Z</time>
      </trkpt>
      <trkpt lat="47.45057" lon="6.74383">
        <ele>381</ele>
        <time>2015-06-28T09:43:20.000Z</time>
      </trkpt>
      <trkpt lat="47.45058" lon="6.74382">
        <ele>381</ele>
        <time>2015-06-28T09:43:21.000Z</time>
      </trkpt>
      <trkpt lat="47.45061" lon="6.74378">
        <ele>381</ele>
        <time>2015-06-28T09:43:23.000Z</time>
      </trkpt>
      <trkpt lat="47.45062" lon="6.74377">
        <ele>382</ele>
        <time>2015-06-28T09:43:24.000Z</time>
      </trkpt>
      <trkpt lat="47.45065" lon="6.74372">
        <ele>382</ele>
        <time>2015-06-28T09:43:28.000Z</time>
      </trkpt>
      <trkpt lat="47.45066" lon="6.74371">
        <ele>382</ele>
        <time>2015-06-28T09:43:29.000Z</time>
      </trkpt>
      <trkpt lat="47.45068" lon="6.74367">
        <ele>382</ele>
        <time>2015-06-28T09:43:33.000Z</time>
      </trkpt>
      <trkpt lat="47.45069" lon="6.74366">
        <ele>382</ele>
        <time>2015-06-28T09:43:34.000Z</time>
      </trkpt>
      <trkpt lat="47.45071" lon="6.74361">
        <ele>383</ele>
        <time>2015-06-28T09:43:37.000Z</time>
      </trkpt>
      <trkpt lat="47.45072" lon="6.74359">
        <ele>383</ele>
        <time>2015-06-28T09:43:38.000Z</time>
      </trkpt>
      <trkpt lat="47.45075" lon="6.74356">
        <ele>384</ele>
        <time>2015-06-28T09:43:41.000Z</time>
      </trkpt>
      <trkpt lat="47.45076" lon="6.74355">
        <ele>384</ele>
        <time>2015-06-28T09:43:42.000Z</time>
      </trkpt>
      <trkpt lat="47.45079" lon="6.74351">
        <ele>385</ele>
        <time>2015-06-28T09:43:45.000Z</time>
      </trkpt>
      <trkpt lat="47.4508" lon="6.74351">
        <ele>385</ele>
        <time>2015-06-28T09:43:46.000Z</time>
      </trkpt>
      <trkpt lat="47.45081" lon="6.74345">
        <ele>386</ele>
        <time>2015-06-28T09:43:55.000Z</time>
      </trkpt>
      <trkpt lat="47.45082" lon="6.74344">
        <ele>386</ele>
        <time>2015-06-28T09:43:56.000Z</time>
      </trkpt>
      <trkpt lat="47.45084" lon="6.74341">
        <ele>390</ele>
        <time>2015-06-28T09:43:59.000Z</time>
      </trkpt>
      <trkpt lat="47.45085" lon="6.74339">
        <ele>390</ele>
        <time>2015-06-28T09:44:00.000Z</time>
      </trkpt>
      <trkpt lat="47.45088" lon="6.74336">
        <ele>390</ele>
        <time>2015-06-28T09:44:02.000Z</time>
      </trkpt>
      <trkpt lat="47.45089" lon="6.74334">
        <ele>390</ele>
        <time>2015-06-28T09:44:03.000Z</time>
      </trkpt>
      <trkpt lat="47.45092" lon="6.7433">
        <ele>392</ele>
        <time>2015-06-28T09:44:05.000Z</time>
      </trkpt>
      <trkpt lat="47.45093" lon="6.74328">
        <ele>393</ele>
        <time>2015-06-28T09:44:06.000Z</time>
      </trkpt>
      <trkpt lat="47.45096" lon="6.74324">
        <ele>394</ele>
        <time>2015-06-28T09:44:08.000Z</time>
      </trkpt>
      <trkpt lat="47.45097" lon="6.74321">
        <ele>394</ele>
        <time>2015-06-28T09:44:09.000Z</time>
      </trkpt>
      <trkpt lat="47.45098" lon="6.74318">
        <ele>395</ele>
        <time>2015-06-28T09:44:10.000Z</time>
      </trkpt>
      <trkpt lat="47.451" lon="6.74316">
        <ele>395</ele>
        <time>2015-06-28T09:44:11.000Z</time>
      </trkpt>
      <trkpt lat="47.45101" lon="6.74313">
        <ele>396</ele>
        <time>2015-06-28T09:44:12.000Z</time>
      </trkpt>
      <trkpt lat="47.45102" lon="6.74309">
        <ele>396</ele>
        <time>2015-06-28T09:44:13.000Z</time>
      </trkpt>
      <trkpt lat="47.45104" lon="6.74306">
        <ele>396</ele>
        <time>2015-06-28T09:44:14.000Z</time>
      </trkpt>
      <trkpt lat="47.45105" lon="6.74303">
        <ele>397</ele>
        <time>2015-06-28T09:44:15.000Z</time>
      </trkpt>
      <trkpt lat="47.45107" lon="6.74298">
        <ele>397</ele>
        <time>2015-06-28T09:44:17.000Z</time>
      </trkpt>
      <trkpt lat="47.45108" lon="6.74296">
        <ele>397</ele>
        <time>2015-06-28T09:44:18.000Z</time>
      </trkpt>
      <trkpt lat="47.4511" lon="6.74291">
        <ele>398</ele>
        <time>2015-06-28T09:44:20.000Z</time>
      </trkpt>
      <trkpt lat="47.45111" lon="6.74289">
        <ele>398</ele>
        <time>2015-06-28T09:44:21.000Z</time>
      </trkpt>
      <trkpt lat="47.45114" lon="6.74284">
        <ele>398</ele>
        <time>2015-06-28T09:44:25.000Z</time>
      </trkpt>
      <trkpt lat="47.45115" lon="6.74283">
        <ele>398</ele>
        <time>2015-06-28T09:44:26.000Z</time>
      </trkpt>
      <trkpt lat="47.45118" lon="6.7428">
        <ele>399</ele>
        <time>2015-06-28T09:44:30.000Z</time>
      </trkpt>
      <trkpt lat="47.45119" lon="6.74279">
        <ele>399</ele>
        <time>2015-06-28T09:44:31.000Z</time>
      </trkpt>
      <trkpt lat="47.45122" lon="6.74275">
        <ele>399</ele>
        <time>2015-06-28T09:44:34.000Z</time>
      </trkpt>
      <trkpt lat="47.45123" lon="6.74274">
        <ele>399</ele>
        <time>2015-06-28T09:44:35.000Z</time>
      </trkpt>
      <trkpt lat="47.45127" lon="6.74271">
        <ele>400</ele>
        <time>2015-06-28T09:44:39.000Z</time>
      </trkpt>
      <trkpt lat="47.45128" lon="6.7427">
        <ele>400</ele>
        <time>2015-06-28T09:44:40.000Z</time>
      </trkpt>
      <trkpt lat="47.45131" lon="6.74267">
        <ele>400</ele>
        <time>2015-06-28T09:44:43.000Z</time>
      </trkpt>
      <trkpt lat="47.45132" lon="6.74266">
        <ele>400</ele>
        <time>2015-06-28T09:44:44.000Z</time>
      </trkpt>
      <trkpt lat="47.45134" lon="6.74261">
        <ele>401</ele>
        <time>2015-06-28T09:44:47.000Z</time>
      </trkpt>
      <trkpt lat="47.45134" lon="6.74259">
        <ele>401</ele>
        <time>2015-06-28T09:44:48.000Z</time>
      </trkpt>
      <trkpt lat="47.45137" lon="6.74256">
        <ele>401</ele>
        <time>2015-06-28T09:44:52.000Z</time>
      </trkpt>
      <trkpt lat="47.45138" lon="6.74256">
        <ele>401</ele>
        <time>2015-06-28T09:44:53.000Z</time>
      </trkpt>
      <trkpt lat="47.45141" lon="6.74253">
        <ele>402</ele>
        <time>2015-06-28T09:44:57.000Z</time>
      </trkpt>
      <trkpt lat="47.45142" lon="6.74253">
        <ele>402</ele>
        <time>2015-06-28T09:44:58.000Z</time>
      </trkpt>
      <trkpt lat="47.45146" lon="6.74249">
        <ele>406</ele>
        <time>2015-06-28T09:45:03.000Z</time>
      </trkpt>
      <trkpt lat="47.45146" lon="6.74249">
        <ele>406</ele>
        <time>2015-06-28T09:45:04.000Z</time>
      </trkpt>
      <trkpt lat="47.45149" lon="6.74245">
        <ele>407</ele>
        <time>2015-06-28T09:45:18.000Z</time>
      </trkpt>
      <trkpt lat="47.45149" lon="6.74245">
        <ele>407</ele>
        <time>2015-06-28T09:45:19.000Z</time>
      </trkpt>
      <trkpt lat="47.45152" lon="6.74242">
        <ele>407</ele>
        <time>2015-06-28T09:45:22.000Z</time>
      </trkpt>
      <trkpt lat="47.45153" lon="6.7424">
        <ele>407</ele>
        <time>2015-06-28T09:45:23.000Z</time>
      </trkpt>
      <trkpt lat="47.45156" lon="6.74237">
        <ele>407</ele>
        <time>2015-06-28T09:45:25.000Z</time>
      </trkpt>
      <trkpt lat="47.45157" lon="6.74236">
        <ele>407</ele>
        <time>2015-06-28T09:45:26.000Z</time>
      </trkpt>
      <trkpt lat="47.4516" lon="6.74232">
        <ele>407</ele>
        <time>2015-06-28T09:45:28.000Z</time>
      </trkpt>
      <trkpt lat="47.45162" lon="6.74229">
        <ele>407</ele>
        <time>2015-06-28T09:45:29.000Z</time>
      </trkpt>
      <trkpt lat="47.45164" lon="6.74225">
        <ele>407</ele>
        <time>2015-06-28T09:45:30.000Z</time>
      </trkpt>
      <trkpt lat="47.45166" lon="6.74222">
        <ele>408</ele>
        <time>2015-06-28T09:45:31.000Z</time>
      </trkpt>
      <trkpt lat="47.45168" lon="6.74219">
        <ele>415</ele>
        <time>2015-06-28T09:45:32.000Z</time>
      </trkpt>
      <trkpt lat="47.45169" lon="6.74216">
        <ele>416</ele>
        <time>2015-06-28T09:45:33.000Z</time>
      </trkpt>
      <trkpt lat="47.45172" lon="6.74213">
        <ele>416</ele>
        <time>2015-06-28T09:45:35.000Z</time>
      </trkpt>
      <trkpt lat="47.45174" lon="6.74212">
        <ele>416</ele>
        <time>2015-06-28T09:45:36.000Z</time>
      </trkpt>
      <trkpt lat="47.45177" lon="6.74209">
        <ele>416</ele>
        <time>2015-06-28T09:45:38.000Z</time>
      </trkpt>
      <trkpt lat="47.45179" lon="6.74208">
        <ele>417</ele>
        <time>2015-06-28T09:45:39.000Z</time>
      </trkpt>
      <trkpt lat="47.45183" lon="6.74206">
        <ele>417</ele>
        <time>2015-06-28T09:45:41.000Z</time>
      </trkpt>
      <trkpt lat="47.45184" lon="6.74205">
        <ele>417</ele>
        <time>2015-06-28T09:45:42.000Z</time>
      </trkpt>
      <trkpt lat="47.45186" lon="6.74203">
        <ele>417</ele>
        <time>2015-06-28T09:45:44.000Z</time>
      </trkpt>
      <trkpt lat="47.45188" lon="6.74201">
        <ele>418</ele>
        <time>2015-06-28T09:45:45.000Z</time>
      </trkpt>
      <trkpt lat="47.45191" lon="6.74198">
        <ele>418</ele>
        <time>2015-06-28T09:45:47.000Z</time>
      </trkpt>
      <trkpt lat="47.45192" lon="6.74197">
        <ele>418</ele>
        <time>2015-06-28T09:45:48.000Z</time>
      </trkpt>
      <trkpt lat="47.45196" lon="6.74193">
        <ele>418</ele>
        <time>2015-06-28T09:45:51.000Z</time>
      </trkpt>
      <trkpt lat="47.45197" lon="6.74192">
        <ele>419</ele>
        <time>2015-06-28T09:45:52.000Z</time>
      </trkpt>
      <trkpt lat="47.45199" lon="6.74188">
        <ele>419</ele>
        <time>2015-06-28T09:45:54.000Z</time>
      </trkpt>
      <trkpt lat="47.452" lon="6.74186">
        <ele>419</ele>
        <time>2015-06-28T09:45:55.000Z</time>
      </trkpt>
      <trkpt lat="47.45203" lon="6.74183">
        <ele>419</ele>
        <time>2015-06-28T09:45:58.000Z</time>
      </trkpt>
      <trkpt lat="47.45204" lon="6.74182">
        <ele>419</ele>
        <time>2015-06-28T09:45:59.000Z</time>
      </trkpt>
      <trkpt lat="47.45207" lon="6.74179">
        <ele>420</ele>
        <time>2015-06-28T09:46:02.000Z</time>
      </trkpt>
      <trkpt lat="47.45208" lon="6.74177">
        <ele>420</ele>
        <time>2015-06-28T09:46:03.000Z</time>
      </trkpt>
      <trkpt lat="47.45211" lon="6.74174">
        <ele>420</ele>
        <time>2015-06-28T09:46:06.000Z</time>
      </trkpt>
      <trkpt lat="47.45212" lon="6.74173">
        <ele>421</ele>
        <time>2015-06-28T09:46:07.000Z</time>
      </trkpt>
      <trkpt lat="47.45215" lon="6.7417">
        <ele>421</ele>
        <time>2015-06-28T09:46:10.000Z</time>
      </trkpt>
      <trkpt lat="47.45217" lon="6.74168">
        <ele>421</ele>
        <time>2015-06-28T09:46:11.000Z</time>
      </trkpt>
      <trkpt lat="47.4522" lon="6.74164">
        <ele>425</ele>
        <time>2015-06-28T09:46:14.000Z</time>
      </trkpt>
      <trkpt lat="47.45221" lon="6.74163">
        <ele>425</ele>
        <time>2015-06-28T09:46:15.000Z</time>
      </trkpt>
      <trkpt lat="47.45224" lon="6.74159">
        <ele>426</ele>
        <time>2015-06-28T09:46:18.000Z</time>
      </trkpt>
      <trkpt lat="47.45225" lon="6.74158">
        <ele>426</ele>
        <time>2015-06-28T09:46:19.000Z</time>
      </trkpt>
      <trkpt lat="47.45228" lon="6.74155">
        <ele>426</ele>
        <time>2015-06-28T09:46:21.000Z</time>
      </trkpt>
      <trkpt lat="47.4523" lon="6.74152">
        <ele>426</ele>
        <time>2015-06-28T09:46:22.000Z</time>
      </trkpt>
      <trkpt lat="47.45232" lon="6.7415">
        <ele>426</ele>
        <time>2015-06-28T09:46:23.000Z</time>
      </trkpt>
      <trkpt lat="47.45234" lon="6.74147">
        <ele>426</ele>
        <time>2015-06-28T09:46:24.000Z</time>
      </trkpt>
      <trkpt lat="47.45238" lon="6.74143">
        <ele>426</ele>
        <time>2015-06-28T09:46:26.000Z</time>
      </trkpt>
      <trkpt lat="47.45239" lon="6.74141">
        <ele>426</ele>
        <time>2015-06-28T09:46:27.000Z</time>
      </trkpt>
      <trkpt lat="47.45241" lon="6.74136">
        <ele>426</ele>
        <time>2015-06-28T09:46:30.000Z</time>
      </trkpt>
      <trkpt lat="47.45242" lon="6.74135">
        <ele>426</ele>
        <time>2015-06-28T09:46:31.000Z</time>
      </trkpt>
      <trkpt lat="47.45244" lon="6.74129">
        <ele>427</ele>
        <time>2015-06-28T09:46:34.000Z</time>
      </trkpt>
      <trkpt lat="47.45245" lon="6.74127">
        <ele>427</ele>
        <time>2015-06-28T09:46:35.000Z</time>
      </trkpt>
      <trkpt lat="47.45247" lon="6.74123">
        <ele>427</ele>
        <time>2015-06-28T09:46:37.000Z</time>
      </trkpt>
      <trkpt lat="47.45248" lon="6.74121">
        <ele>427</ele>
        <time>2015-06-28T09:46:38.000Z</time>
      </trkpt>
      <trkpt lat="47.4525" lon="6.74117">
        <ele>433</ele>
        <time>2015-06-28T09:46:40.000Z</time>
      </trkpt>
      <trkpt lat="47.45251" lon="6.74115">
        <ele>433</ele>
        <time>2015-06-28T09:46:41.000Z</time>
      </trkpt>
      <trkpt lat="47.45254" lon="6.74111">
        <ele>433</ele>
        <time>2015-06-28T09:46:43.000Z</time>
      </trkpt>
      <trkpt lat="47.45255" lon="6.74109">
        <ele>433</ele>
        <time>2015-06-28T09:46:44.000Z</time>
      </trkpt>
      <trkpt lat="47.45257" lon="6.74105">
        <ele>433</ele>
        <time>2015-06-28T09:46:47.000Z</time>
      </trkpt>
      <trkpt lat="47.45258" lon="6.74103">
        <ele>433</ele>
        <time>2015-06-28T09:46:48.000Z</time>
      </trkpt>
      <trkpt lat="47.4526" lon="6.74099">
        <ele>433</ele>
        <time>2015-06-28T09:46:50.000Z</time>
      </trkpt>
      <trkpt lat="47.45262" lon="6.74097">
        <ele>433</ele>
        <time>2015-06-28T09:46:51.000Z</time>
      </trkpt>
      <trkpt lat="47.45265" lon="6.74092">
        <ele>433</ele>
        <time>2015-06-28T09:46:54.000Z</time>
      </trkpt>
      <trkpt lat="47.45265" lon="6.7409">
        <ele>433</ele>
        <time>2015-06-28T09:46:55.000Z</time>
      </trkpt>
      <trkpt lat="47.45268" lon="6.74087">
        <ele>433</ele>
        <time>2015-06-28T09:46:57.000Z</time>
      </trkpt>
      <trkpt lat="47.45269" lon="6.74085">
        <ele>433</ele>
        <time>2015-06-28T09:46:58.000Z</time>
      </trkpt>
      <trkpt lat="47.45272" lon="6.74082">
        <ele>435</ele>
        <time>2015-06-28T09:47:00.000Z</time>
      </trkpt>
      <trkpt lat="47.45273" lon="6.74081">
        <ele>435</ele>
        <time>2015-06-28T09:47:01.000Z</time>
      </trkpt>
      <trkpt lat="47.45276" lon="6.74078">
        <ele>436</ele>
        <time>2015-06-28T09:47:03.000Z</time>
      </trkpt>
      <trkpt lat="47.45278" lon="6.74076">
        <ele>436</ele>
        <time>2015-06-28T09:47:04.000Z</time>
      </trkpt>
      <trkpt lat="47.4528" lon="6.74074">
        <ele>436</ele>
        <time>2015-06-28T09:47:06.000Z</time>
      </trkpt>
      <trkpt lat="47.45282" lon="6.74073">
        <ele>436</ele>
        <time>2015-06-28T09:47:07.000Z</time>
      </trkpt>
      <trkpt lat="47.45285" lon="6.74071">
        <ele>437</ele>
        <time>2015-06-28T09:47:09.000Z</time>
      </trkpt>
      <trkpt lat="47.45286" lon="6.74069">
        <ele>437</ele>
        <time>2015-06-28T09:47:10.000Z</time>
      </trkpt>
      <trkpt lat="47.45288" lon="6.74065">
        <ele>437</ele>
        <time>2015-06-28T09:47:12.000Z</time>
      </trkpt>
      <trkpt lat="47.4529" lon="6.74063">
        <ele>437</ele>
        <time>2015-06-28T09:47:13.000Z</time>
      </trkpt>
      <trkpt lat="47.45292" lon="6.74059">
        <ele>438</ele>
        <time>2015-06-28T09:47:15.000Z</time>
      </trkpt>
      <trkpt lat="47.45294" lon="6.74058">
        <ele>438</ele>
        <time>2015-06-28T09:47:16.000Z</time>
      </trkpt>
      <trkpt lat="47.45296" lon="6.74055">
        <ele>438</ele>
        <time>2015-06-28T09:47:18.000Z</time>
      </trkpt>
      <trkpt lat="47.45298" lon="6.74053">
        <ele>438</ele>
        <time>2015-06-28T09:47:19.000Z</time>
      </trkpt>
      <trkpt lat="47.45301" lon="6.74051">
        <ele>438</ele>
        <time>2015-06-28T09:47:21.000Z</time>
      </trkpt>
      <trkpt lat="47.45302" lon="6.7405">
        <ele>438</ele>
        <time>2015-06-28T09:47:22.000Z</time>
      </trkpt>
      <trkpt lat="47.45305" lon="6.74047">
        <ele>438</ele>
        <time>2015-06-28T09:47:24.000Z</time>
      </trkpt>
      <trkpt lat="47.45307" lon="6.74045">
        <ele>439</ele>
        <time>2015-06-28T09:47:25.000Z</time>
      </trkpt>
      <trkpt lat="47.45308" lon="6.74043">
        <ele>439</ele>
        <time>2015-06-28T09:47:26.000Z</time>
      </trkpt>
      <trkpt lat="47.4531" lon="6.7404">
        <ele>439</ele>
        <time>2015-06-28T09:47:27.000Z</time>
      </trkpt>
      <trkpt lat="47.45311" lon="6.74037">
        <ele>439</ele>
        <time>2015-06-28T09:47:28.000Z</time>
      </trkpt>
      <trkpt lat="47.45313" lon="6.74032">
        <ele>439</ele>
        <time>2015-06-28T09:47:29.000Z</time>
      </trkpt>
      <trkpt lat="47.45316" lon="6.74028">
        <ele>440</ele>
        <time>2015-06-28T09:47:31.000Z</time>
      </trkpt>
      <trkpt lat="47.45317" lon="6.74027">
        <ele>440</ele>
        <time>2015-06-28T09:47:32.000Z</time>
      </trkpt>
      <trkpt lat="47.45319" lon="6.74023">
        <ele>440</ele>
        <time>2015-06-28T09:47:34.000Z</time>
      </trkpt>
      <trkpt lat="47.45321" lon="6.74021">
        <ele>440</ele>
        <time>2015-06-28T09:47:35.000Z</time>
      </trkpt>
      <trkpt lat="47.45323" lon="6.74017">
        <ele>441</ele>
        <time>2015-06-28T09:47:38.000Z</time>
      </trkpt>
      <trkpt lat="47.45323" lon="6.74015">
        <ele>441</ele>
        <time>2015-06-28T09:47:39.000Z</time>
      </trkpt>
      <trkpt lat="47.45325" lon="6.74009">
        <ele>442</ele>
        <time>2015-06-28T09:47:41.000Z</time>
      </trkpt>
      <trkpt lat="47.45326" lon="6.74008">
        <ele>442</ele>
        <time>2015-06-28T09:47:42.000Z</time>
      </trkpt>
      <trkpt lat="47.45329" lon="6.74006">
        <ele>443</ele>
        <time>2015-06-28T09:47:44.000Z</time>
      </trkpt>
      <trkpt lat="47.45331" lon="6.74005">
        <ele>443</ele>
        <time>2015-06-28T09:47:45.000Z</time>
      </trkpt>
      <trkpt lat="47.45332" lon="6.74">
        <ele>444</ele>
        <time>2015-06-28T09:47:47.000Z</time>
      </trkpt>
      <trkpt lat="47.45333" lon="6.73996">
        <ele>444</ele>
        <time>2015-06-28T09:47:48.000Z</time>
      </trkpt>
      <trkpt lat="47.45333" lon="6.73993">
        <ele>444</ele>
        <time>2015-06-28T09:47:49.000Z</time>
      </trkpt>
      <trkpt lat="47.45334" lon="6.73989">
        <ele>446</ele>
        <time>2015-06-28T09:47:50.000Z</time>
      </trkpt>
      <trkpt lat="47.45334" lon="6.73985">
        <ele>446</ele>
        <time>2015-06-28T09:47:51.000Z</time>
      </trkpt>
      <trkpt lat="47.45335" lon="6.73982">
        <ele>447</ele>
        <time>2015-06-28T09:47:52.000Z</time>
      </trkpt>
      <trkpt lat="47.45336" lon="6.73977">
        <ele>447</ele>
        <time>2015-06-28T09:47:54.000Z</time>
      </trkpt>
      <trkpt lat="47.45337" lon="6.73974">
        <ele>447</ele>
        <time>2015-06-28T09:47:55.000Z</time>
      </trkpt>
      <trkpt lat="47.45338" lon="6.73969">
        <ele>448</ele>
        <time>2015-06-28T09:47:57.000Z</time>
      </trkpt>
      <trkpt lat="47.45338" lon="6.73967">
        <ele>448</ele>
        <time>2015-06-28T09:47:58.000Z</time>
      </trkpt>
      <trkpt lat="47.45339" lon="6.73961">
        <ele>448</ele>
        <time>2015-06-28T09:48:01.000Z</time>
      </trkpt>
      <trkpt lat="47.45339" lon="6.7396">
        <ele>448</ele>
        <time>2015-06-28T09:48:02.000Z</time>
      </trkpt>
      <trkpt lat="47.45338" lon="6.73954">
        <ele>448</ele>
        <time>2015-06-28T09:48:05.000Z</time>
      </trkpt>
      <trkpt lat="47.45338" lon="6.73953">
        <ele>448</ele>
        <time>2015-06-28T09:48:06.000Z</time>
      </trkpt>
      <trkpt lat="47.45339" lon="6.73947">
        <ele>448</ele>
        <time>2015-06-28T09:48:09.000Z</time>
      </trkpt>
      <trkpt lat="47.45339" lon="6.73945">
        <ele>448</ele>
        <time>2015-06-28T09:48:10.000Z</time>
      </trkpt>
      <trkpt lat="47.4534" lon="6.73942">
        <ele>448</ele>
        <time>2015-06-28T09:48:12.000Z</time>
      </trkpt>
      <trkpt lat="47.45341" lon="6.73939">
        <ele>448</ele>
        <time>2015-06-28T09:48:13.000Z</time>
      </trkpt>
      <trkpt lat="47.45342" lon="6.73935">
        <ele>448</ele>
        <time>2015-06-28T09:48:15.000Z</time>
      </trkpt>
      <trkpt lat="47.45342" lon="6.73932">
        <ele>448</ele>
        <time>2015-06-28T09:48:16.000Z</time>
      </trkpt>
      <trkpt lat="47.45343" lon="6.73926">
        <ele>448</ele>
        <time>2015-06-28T09:48:18.000Z</time>
      </trkpt>
      <trkpt lat="47.45343" lon="6.73924">
        <ele>448</ele>
        <time>2015-06-28T09:48:19.000Z</time>
      </trkpt>
      <trkpt lat="47.45344" lon="6.73919">
        <ele>448</ele>
        <time>2015-06-28T09:48:21.000Z</time>
      </trkpt>
      <trkpt lat="47.45345" lon="6.73917">
        <ele>448</ele>
        <time>2015-06-28T09:48:22.000Z</time>
      </trkpt>
      <trkpt lat="47.45347" lon="6.73912">
        <ele>449</ele>
        <time>2015-06-28T09:48:24.000Z</time>
      </trkpt>
      <trkpt lat="47.45348" lon="6.7391">
        <ele>449</ele>
        <time>2015-06-28T09:48:25.000Z</time>
      </trkpt>
      <trkpt lat="47.45349" lon="6.73904">
        <ele>450</ele>
        <time>2015-06-28T09:48:27.000Z</time>
      </trkpt>
      <trkpt lat="47.4535" lon="6.73901">
        <ele>450</ele>
        <time>2015-06-28T09:48:28.000Z</time>
      </trkpt>
      <trkpt lat="47.45351" lon="6.73897">
        <ele>450</ele>
        <time>2015-06-28T09:48:29.000Z</time>
      </trkpt>
      <trkpt lat="47.45352" lon="6.73894">
        <ele>450</ele>
        <time>2015-06-28T09:48:30.000Z</time>
      </trkpt>
      <trkpt lat="47.45354" lon="6.7389">
        <ele>451</ele>
        <time>2015-06-28T09:48:31.000Z</time>
      </trkpt>
      <trkpt lat="47.45355" lon="6.73886">
        <ele>451</ele>
        <time>2015-06-28T09:48:32.000Z</time>
      </trkpt>
      <trkpt lat="47.45357" lon="6.73882">
        <ele>451</ele>
        <time>2015-06-28T09:48:33.000Z</time>
      </trkpt>
      <trkpt lat="47.45359" lon="6.73877">
        <ele>451</ele>
        <time>2015-06-28T09:48:34.000Z</time>
      </trkpt>
      <trkpt lat="47.4536" lon="6.73873">
        <ele>451</ele>
        <time>2015-06-28T09:48:35.000Z</time>
      </trkpt>
      <trkpt lat="47.45362" lon="6.73869">
        <ele>451</ele>
        <time>2015-06-28T09:48:36.000Z</time>
      </trkpt>
      <trkpt lat="47.45363" lon="6.73866">
        <ele>452</ele>
        <time>2015-06-28T09:48:37.000Z</time>
      </trkpt>
      <trkpt lat="47.45364" lon="6.73863">
        <ele>452</ele>
        <time>2015-06-28T09:48:38.000Z</time>
      </trkpt>
      <trkpt lat="47.45366" lon="6.73859">
        <ele>452</ele>
        <time>2015-06-28T09:48:39.000Z</time>
      </trkpt>
      <trkpt lat="47.45367" lon="6.73856">
        <ele>452</ele>
        <time>2015-06-28T09:48:40.000Z</time>
      </trkpt>
      <trkpt lat="47.45369" lon="6.7385">
        <ele>452</ele>
        <time>2015-06-28T09:48:42.000Z</time>
      </trkpt>
      <trkpt lat="47.4537" lon="6.73848">
        <ele>452</ele>
        <time>2015-06-28T09:48:43.000Z</time>
      </trkpt>
      <trkpt lat="47.45372" lon="6.73843">
        <ele>452</ele>
        <time>2015-06-28T09:48:45.000Z</time>
      </trkpt>
      <trkpt lat="47.45373" lon="6.73842">
        <ele>452</ele>
        <time>2015-06-28T09:48:46.000Z</time>
      </trkpt>
      <trkpt lat="47.45376" lon="6.73838">
        <ele>452</ele>
        <time>2015-06-28T09:48:48.000Z</time>
      </trkpt>
      <trkpt lat="47.45377" lon="6.73836">
        <ele>452</ele>
        <time>2015-06-28T09:48:49.000Z</time>
      </trkpt>
      <trkpt lat="47.45381" lon="6.73831">
        <ele>454</ele>
        <time>2015-06-28T09:48:51.000Z</time>
      </trkpt>
      <trkpt lat="47.45382" lon="6.73829">
        <ele>454</ele>
        <time>2015-06-28T09:48:52.000Z</time>
      </trkpt>
      <trkpt lat="47.45385" lon="6.73826">
        <ele>454</ele>
        <time>2015-06-28T09:48:54.000Z</time>
      </trkpt>
      <trkpt lat="47.45386" lon="6.73824">
        <ele>454</ele>
        <time>2015-06-28T09:48:55.000Z</time>
      </trkpt>
      <trkpt lat="47.45389" lon="6.7382">
        <ele>454</ele>
        <time>2015-06-28T09:48:59.000Z</time>
      </trkpt>
      <trkpt lat="47.4539" lon="6.73818">
        <ele>454</ele>
        <time>2015-06-28T09:49:00.000Z</time>
      </trkpt>
      <trkpt lat="47.45392" lon="6.73813">
        <ele>454</ele>
        <time>2015-06-28T09:49:02.000Z</time>
      </trkpt>
      <trkpt lat="47.45394" lon="6.73809">
        <ele>454</ele>
        <time>2015-06-28T09:49:03.000Z</time>
      </trkpt>
      <trkpt lat="47.45395" lon="6.73806">
        <ele>454</ele>
        <time>2015-06-28T09:49:04.000Z</time>
      </trkpt>
      <trkpt lat="47.45396" lon="6.73802">
        <ele>455</ele>
        <time>2015-06-28T09:49:05.000Z</time>
      </trkpt>
      <trkpt lat="47.45398" lon="6.73799">
        <ele>455</ele>
        <time>2015-06-28T09:49:06.000Z</time>
      </trkpt>
      <trkpt lat="47.454" lon="6.73796">
        <ele>455</ele>
        <time>2015-06-28T09:49:07.000Z</time>
      </trkpt>
      <trkpt lat="47.45401" lon="6.73793">
        <ele>455</ele>
        <time>2015-06-28T09:49:08.000Z</time>
      </trkpt>
      <trkpt lat="47.45403" lon="6.7379">
        <ele>455</ele>
        <time>2015-06-28T09:49:09.000Z</time>
      </trkpt>
      <trkpt lat="47.45406" lon="6.73785">
        <ele>455</ele>
        <time>2015-06-28T09:49:11.000Z</time>
      </trkpt>
      <trkpt lat="47.45407" lon="6.73783">
        <ele>455</ele>
        <time>2015-06-28T09:49:12.000Z</time>
      </trkpt>
      <trkpt lat="47.45409" lon="6.73778">
        <ele>455</ele>
        <time>2015-06-28T09:49:14.000Z</time>
      </trkpt>
      <trkpt lat="47.4541" lon="6.73776">
        <ele>455</ele>
        <time>2015-06-28T09:49:15.000Z</time>
      </trkpt>
      <trkpt lat="47.45413" lon="6.73773">
        <ele>455</ele>
        <time>2015-06-28T09:49:17.000Z</time>
      </trkpt>
      <trkpt lat="47.45414" lon="6.73771">
        <ele>455</ele>
        <time>2015-06-28T09:49:18.000Z</time>
      </trkpt>
      <trkpt lat="47.45418" lon="6.73769">
        <ele>458</ele>
        <time>2015-06-28T09:49:20.000Z</time>
      </trkpt>
      <trkpt lat="47.4542" lon="6.73769">
        <ele>458</ele>
        <time>2015-06-28T09:49:21.000Z</time>
      </trkpt>
      <trkpt lat="47.45424" lon="6.7377">
        <ele>458</ele>
        <time>2015-06-28T09:49:23.000Z</time>
      </trkpt>
      <trkpt lat="47.45426" lon="6.7377">
        <ele>458</ele>
        <time>2015-06-28T09:49:24.000Z</time>
      </trkpt>
      <trkpt lat="47.4543" lon="6.73768">
        <ele>458</ele>
        <time>2015-06-28T09:49:26.000Z</time>
      </trkpt>
      <trkpt lat="47.45431" lon="6.73767">
        <ele>458</ele>
        <time>2015-06-28T09:49:27.000Z</time>
      </trkpt>
      <trkpt lat="47.45435" lon="6.73765">
        <ele>458</ele>
        <time>2015-06-28T09:49:29.000Z</time>
      </trkpt>
      <trkpt lat="47.45436" lon="6.73764">
        <ele>458</ele>
        <time>2015-06-28T09:49:30.000Z</time>
      </trkpt>
      <trkpt lat="47.4544" lon="6.73762">
        <ele>458</ele>
        <time>2015-06-28T09:49:34.000Z</time>
      </trkpt>
      <trkpt lat="47.45441" lon="6.73762">
        <ele>458</ele>
        <time>2015-06-28T09:49:35.000Z</time>
      </trkpt>
      <trkpt lat="47.45445" lon="6.73762">
        <ele>458</ele>
        <time>2015-06-28T09:49:37.000Z</time>
      </trkpt>
      <trkpt lat="47.45447" lon="6.73761">
        <ele>458</ele>
        <time>2015-06-28T09:49:38.000Z</time>
      </trkpt>
      <trkpt lat="47.45451" lon="6.7376">
        <ele>458</ele>
        <time>2015-06-28T09:49:40.000Z</time>
      </trkpt>
      <trkpt lat="47.45453" lon="6.73759">
        <ele>458</ele>
        <time>2015-06-28T09:49:41.000Z</time>
      </trkpt>
      <trkpt lat="47.45456" lon="6.73757">
        <ele>459</ele>
        <time>2015-06-28T09:49:42.000Z</time>
      </trkpt>
      <trkpt lat="47.45459" lon="6.73756">
        <ele>459</ele>
        <time>2015-06-28T09:49:43.000Z</time>
      </trkpt>
      <trkpt lat="47.45463" lon="6.73755">
        <ele>459</ele>
        <time>2015-06-28T09:49:44.000Z</time>
      </trkpt>
      <trkpt lat="47.45466" lon="6.73754">
        <ele>459</ele>
        <time>2015-06-28T09:49:45.000Z</time>
      </trkpt>
      <trkpt lat="47.45469" lon="6.73753">
        <ele>459</ele>
        <time>2015-06-28T09:49:46.000Z</time>
      </trkpt>
      <trkpt lat="47.45471" lon="6.73753">
        <ele>459</ele>
        <time>2015-06-28T09:49:47.000Z</time>
      </trkpt>
      <trkpt lat="47.45474" lon="6.73752">
        <ele>459</ele>
        <time>2015-06-28T09:49:48.000Z</time>
      </trkpt>
      <trkpt lat="47.45477" lon="6.73752">
        <ele>459</ele>
        <time>2015-06-28T09:49:49.000Z</time>
      </trkpt>
      <trkpt lat="47.45481" lon="6.73751">
        <ele>460</ele>
        <time>2015-06-28T09:49:51.000Z</time>
      </trkpt>
      <trkpt lat="47.45483" lon="6.73751">
        <ele>460</ele>
        <time>2015-06-28T09:49:52.000Z</time>
      </trkpt>
      <trkpt lat="47.45485" lon="6.73749">
        <ele>460</ele>
        <time>2015-06-28T09:49:53.000Z</time>
      </trkpt>
      <trkpt lat="47.45487" lon="6.73748">
        <ele>460</ele>
        <time>2015-06-28T09:49:54.000Z</time>
      </trkpt>
      <trkpt lat="47.4549" lon="6.73746">
        <ele>460</ele>
        <time>2015-06-28T09:49:55.000Z</time>
      </trkpt>
      <trkpt lat="47.45492" lon="6.73745">
        <ele>461</ele>
        <time>2015-06-28T09:49:56.000Z</time>
      </trkpt>
      <trkpt lat="47.45494" lon="6.73743">
        <ele>461</ele>
        <time>2015-06-28T09:49:57.000Z</time>
      </trkpt>
      <trkpt lat="47.45497" lon="6.73742">
        <ele>461</ele>
        <time>2015-06-28T09:49:58.000Z</time>
      </trkpt>
      <trkpt lat="47.455" lon="6.7374">
        <ele>461</ele>
        <time>2015-06-28T09:49:59.000Z</time>
      </trkpt>
      <trkpt lat="47.45502" lon="6.73739">
        <ele>461</ele>
        <time>2015-06-28T09:50:00.000Z</time>
      </trkpt>
      <trkpt lat="47.45504" lon="6.73737">
        <ele>461</ele>
        <time>2015-06-28T09:50:01.000Z</time>
      </trkpt>
      <trkpt lat="47.45506" lon="6.73735">
        <ele>461</ele>
        <time>2015-06-28T09:50:02.000Z</time>
      </trkpt>
      <trkpt lat="47.45508" lon="6.73734">
        <ele>461</ele>
        <time>2015-06-28T09:50:03.000Z</time>
      </trkpt>
      <trkpt lat="47.4551" lon="6.73732">
        <ele>461</ele>
        <time>2015-06-28T09:50:04.000Z</time>
      </trkpt>
      <trkpt lat="47.45512" lon="6.7373">
        <ele>461</ele>
        <time>2015-06-28T09:50:05.000Z</time>
      </trkpt>
      <trkpt lat="47.45514" lon="6.73728">
        <ele>461</ele>
        <time>2015-06-28T09:50:06.000Z</time>
      </trkpt>
      <trkpt lat="47.45516" lon="6.73726">
        <ele>461</ele>
        <time>2015-06-28T09:50:07.000Z</time>
      </trkpt>
      <trkpt lat="47.45519" lon="6.73724">
        <ele>461</ele>
        <time>2015-06-28T09:50:08.000Z</time>
      </trkpt>
      <trkpt lat="47.45521" lon="6.73723">
        <ele>461</ele>
        <time>2015-06-28T09:50:09.000Z</time>
      </trkpt>
      <trkpt lat="47.45524" lon="6.73721">
        <ele>461</ele>
        <time>2015-06-28T09:50:10.000Z</time>
      </trkpt>
      <trkpt lat="47.45527" lon="6.73719">
        <ele>461</ele>
        <time>2015-06-28T09:50:11.000Z</time>
      </trkpt>
      <trkpt lat="47.45529" lon="6.73717">
        <ele>461</ele>
        <time>2015-06-28T09:50:12.000Z</time>
      </trkpt>
      <trkpt lat="47.45531" lon="6.73714">
        <ele>461</ele>
        <time>2015-06-28T09:50:14.000Z</time>
      </trkpt>
      <trkpt lat="47.45532" lon="6.73713">
        <ele>461</ele>
        <time>2015-06-28T09:50:15.000Z</time>
      </trkpt>
      <trkpt lat="47.45535" lon="6.7371">
        <ele>461</ele>
        <time>2015-06-28T09:50:17.000Z</time>
      </trkpt>
      <trkpt lat="47.45537" lon="6.73708">
        <ele>461</ele>
        <time>2015-06-28T09:50:18.000Z</time>
      </trkpt>
      <trkpt lat="47.4554" lon="6.73705">
        <ele>461</ele>
        <time>2015-06-28T09:50:20.000Z</time>
      </trkpt>
      <trkpt lat="47.45541" lon="6.73704">
        <ele>461</ele>
        <time>2015-06-28T09:50:21.000Z</time>
      </trkpt>
      <trkpt lat="47.45544" lon="6.73702">
        <ele>461</ele>
        <time>2015-06-28T09:50:24.000Z</time>
      </trkpt>
      <trkpt lat="47.45545" lon="6.73701">
        <ele>461</ele>
        <time>2015-06-28T09:50:25.000Z</time>
      </trkpt>
      <trkpt lat="47.45549" lon="6.737">
        <ele>461</ele>
        <time>2015-06-28T09:50:28.000Z</time>
      </trkpt>
      <trkpt lat="47.4555" lon="6.73699">
        <ele>461</ele>
        <time>2015-06-28T09:50:29.000Z</time>
      </trkpt>
      <trkpt lat="47.45554" lon="6.737">
        <ele>461</ele>
        <time>2015-06-28T09:50:31.000Z</time>
      </trkpt>
      <trkpt lat="47.45557" lon="6.737">
        <ele>461</ele>
        <time>2015-06-28T09:50:32.000Z</time>
      </trkpt>
      <trkpt lat="47.45561" lon="6.73699">
        <ele>461</ele>
        <time>2015-06-28T09:50:34.000Z</time>
      </trkpt>
      <trkpt lat="47.45563" lon="6.73698">
        <ele>461</ele>
        <time>2015-06-28T09:50:35.000Z</time>
      </trkpt>
      <trkpt lat="47.45566" lon="6.73697">
        <ele>461</ele>
        <time>2015-06-28T09:50:37.000Z</time>
      </trkpt>
      <trkpt lat="47.45568" lon="6.73696">
        <ele>461</ele>
        <time>2015-06-28T09:50:38.000Z</time>
      </trkpt>
      <trkpt lat="47.45572" lon="6.73695">
        <ele>461</ele>
        <time>2015-06-28T09:50:40.000Z</time>
      </trkpt>
      <trkpt lat="47.45574" lon="6.73695">
        <ele>461</ele>
        <time>2015-06-28T09:50:41.000Z</time>
      </trkpt>
      <trkpt lat="47.45576" lon="6.73695">
        <ele>461</ele>
        <time>2015-06-28T09:50:42.000Z</time>
      </trkpt>
      <trkpt lat="47.45579" lon="6.73695">
        <ele>461</ele>
        <time>2015-06-28T09:50:43.000Z</time>
      </trkpt>
      <trkpt lat="47.45582" lon="6.73696">
        <ele>461</ele>
        <time>2015-06-28T09:50:44.000Z</time>
      </trkpt>
      <trkpt lat="47.45585" lon="6.73697">
        <ele>458</ele>
        <time>2015-06-28T09:50:45.000Z</time>
      </trkpt>
      <trkpt lat="47.45588" lon="6.73698">
        <ele>458</ele>
        <time>2015-06-28T09:50:46.000Z</time>
      </trkpt>
      <trkpt lat="47.45591" lon="6.73699">
        <ele>458</ele>
        <time>2015-06-28T09:50:47.000Z</time>
      </trkpt>
      <trkpt lat="47.45595" lon="6.73699">
        <ele>458</ele>
        <time>2015-06-28T09:50:48.000Z</time>
      </trkpt>
      <trkpt lat="47.45598" lon="6.73699">
        <ele>458</ele>
        <time>2015-06-28T09:50:49.000Z</time>
      </trkpt>
      <trkpt lat="47.45602" lon="6.737">
        <ele>458</ele>
        <time>2015-06-28T09:50:50.000Z</time>
      </trkpt>
      <trkpt lat="47.45606" lon="6.737">
        <ele>458</ele>
        <time>2015-06-28T09:50:51.000Z</time>
      </trkpt>
      <trkpt lat="47.45609" lon="6.737">
        <ele>458</ele>
        <time>2015-06-28T09:50:52.000Z</time>
      </trkpt>
      <trkpt lat="47.45612" lon="6.737">
        <ele>458</ele>
        <time>2015-06-28T09:50:53.000Z</time>
      </trkpt>
      <trkpt lat="47.45615" lon="6.73701">
        <ele>457</ele>
        <time>2015-06-28T09:50:54.000Z</time>
      </trkpt>
      <trkpt lat="47.45617" lon="6.73701">
        <ele>457</ele>
        <time>2015-06-28T09:50:55.000Z</time>
      </trkpt>
      <trkpt lat="47.45619" lon="6.73701">
        <ele>457</ele>
        <time>2015-06-28T09:50:56.000Z</time>
      </trkpt>
      <trkpt lat="47.45621" lon="6.73701">
        <ele>457</ele>
        <time>2015-06-28T09:50:57.000Z</time>
      </trkpt>
      <trkpt lat="47.45624" lon="6.737">
        <ele>457</ele>
        <time>2015-06-28T09:50:58.000Z</time>
      </trkpt>
      <trkpt lat="47.45627" lon="6.737">
        <ele>457</ele>
        <time>2015-06-28T09:50:59.000Z</time>
      </trkpt>
      <trkpt lat="47.4563" lon="6.73697">
        <ele>457</ele>
        <time>2015-06-28T09:51:01.000Z</time>
      </trkpt>
      <trkpt lat="47.45631" lon="6.73695">
        <ele>457</ele>
        <time>2015-06-28T09:51:02.000Z</time>
      </trkpt>
      <trkpt lat="47.45634" lon="6.7369">
        <ele>456</ele>
        <time>2015-06-28T09:51:08.000Z</time>
      </trkpt>
      <trkpt lat="47.45634" lon="6.7369">
        <ele>456</ele>
        <time>2015-06-28T09:51:09.000Z</time>
      </trkpt>
      <trkpt lat="47.45637" lon="6.73685">
        <ele>456</ele>
        <time>2015-06-28T09:52:40.000Z</time>
      </trkpt>
      <trkpt lat="47.45637" lon="6.73685">
        <ele>456</ele>
        <time>2015-06-28T09:52:41.000Z</time>
      </trkpt>
      <trkpt lat="47.45641" lon="6.73681">
        <ele>456</ele>
        <time>2015-06-28T09:53:25.000Z</time>
      </trkpt>
      <trkpt lat="47.45641" lon="6.73681">
        <ele>456</ele>
        <time>2015-06-28T09:53:26.000Z</time>
      </trkpt>
      <trkpt lat="47.45643" lon="6.73686">
        <ele>456</ele>
        <time>2015-06-28T09:54:34.000Z</time>
      </trkpt>
      <trkpt lat="47.45643" lon="6.73688">
        <ele>456</ele>
        <time>2015-06-28T09:54:35.000Z</time>
      </trkpt>
      <trkpt lat="47.45642" lon="6.73691">
        <ele>456</ele>
        <time>2015-06-28T09:54:55.000Z</time>
      </trkpt>
      <trkpt lat="47.45642" lon="6.73694">
        <ele>456</ele>
        <time>2015-06-28T09:54:56.000Z</time>
      </trkpt>
      <trkpt lat="47.45641" lon="6.73698">
        <ele>456</ele>
        <time>2015-06-28T09:54:57.000Z</time>
      </trkpt>
      <trkpt lat="47.45639" lon="6.73702">
        <ele>456</ele>
        <time>2015-06-28T09:54:58.000Z</time>
      </trkpt>
      <trkpt lat="47.45637" lon="6.73706">
        <ele>456</ele>
        <time>2015-06-28T09:54:59.000Z</time>
      </trkpt>
      <trkpt lat="47.45635" lon="6.7371">
        <ele>457</ele>
        <time>2015-06-28T09:55:00.000Z</time>
      </trkpt>
      <trkpt lat="47.45633" lon="6.73714">
        <ele>457</ele>
        <time>2015-06-28T09:55:01.000Z</time>
      </trkpt>
      <trkpt lat="47.45631" lon="6.73718">
        <ele>457</ele>
        <time>2015-06-28T09:55:02.000Z</time>
      </trkpt>
      <trkpt lat="47.45628" lon="6.73722">
        <ele>457</ele>
        <time>2015-06-28T09:55:03.000Z</time>
      </trkpt>
      <trkpt lat="47.45625" lon="6.73726">
        <ele>457</ele>
        <time>2015-06-28T09:55:04.000Z</time>
      </trkpt>
      <trkpt lat="47.45622" lon="6.73729">
        <ele>457</ele>
        <time>2015-06-28T09:55:05.000Z</time>
      </trkpt>
      <trkpt lat="47.4562" lon="6.73734">
        <ele>457</ele>
        <time>2015-06-28T09:55:06.000Z</time>
      </trkpt>
      <trkpt lat="47.45618" lon="6.73739">
        <ele>458</ele>
        <time>2015-06-28T09:55:07.000Z</time>
      </trkpt>
      <trkpt lat="47.45618" lon="6.73743">
        <ele>458</ele>
        <time>2015-06-28T09:55:08.000Z</time>
      </trkpt>
      <trkpt lat="47.45617" lon="6.73748">
        <ele>458</ele>
        <time>2015-06-28T09:55:09.000Z</time>
      </trkpt>
      <trkpt lat="47.45617" lon="6.73752">
        <ele>457</ele>
        <time>2015-06-28T09:55:10.000Z</time>
      </trkpt>
      <trkpt lat="47.45616" lon="6.73755">
        <ele>457</ele>
        <time>2015-06-28T09:55:11.000Z</time>
      </trkpt>
      <trkpt lat="47.45616" lon="6.73759">
        <ele>457</ele>
        <time>2015-06-28T09:55:12.000Z</time>
      </trkpt>
      <trkpt lat="47.45616" lon="6.73763">
        <ele>457</ele>
        <time>2015-06-28T09:55:13.000Z</time>
      </trkpt>
      <trkpt lat="47.45615" lon="6.73767">
        <ele>457</ele>
        <time>2015-06-28T09:55:14.000Z</time>
      </trkpt>
      <trkpt lat="47.45615" lon="6.73771">
        <ele>457</ele>
        <time>2015-06-28T09:55:15.000Z</time>
      </trkpt>
      <trkpt lat="47.45614" lon="6.73776">
        <ele>457</ele>
        <time>2015-06-28T09:55:16.000Z</time>
      </trkpt>
      <trkpt lat="47.45614" lon="6.73781">
        <ele>457</ele>
        <time>2015-06-28T09:55:17.000Z</time>
      </trkpt>
      <trkpt lat="47.45614" lon="6.73787">
        <ele>457</ele>
        <time>2015-06-28T09:55:18.000Z</time>
      </trkpt>
      <trkpt lat="47.4561" lon="6.73801">
        <ele>457</ele>
        <time>2015-06-28T09:55:19.000Z</time>
      </trkpt>
      <trkpt lat="47.45609" lon="6.73808">
        <ele>457</ele>
        <time>2015-06-28T09:55:20.000Z</time>
      </trkpt>
      <trkpt lat="47.45611" lon="6.73823">
        <ele>457</ele>
        <time>2015-06-28T09:55:21.000Z</time>
      </trkpt>
      <trkpt lat="47.45612" lon="6.73832">
        <ele>457</ele>
        <time>2015-06-28T09:55:22.000Z</time>
      </trkpt>
      <trkpt lat="47.45612" lon="6.7384">
        <ele>456</ele>
        <time>2015-06-28T09:55:23.000Z</time>
      </trkpt>
      <trkpt lat="47.45612" lon="6.73852">
        <ele>456</ele>
        <time>2015-06-28T09:55:24.000Z</time>
      </trkpt>
      <trkpt lat="47.45613" lon="6.73858">
        <ele>456</ele>
        <time>2015-06-28T09:55:25.000Z</time>
      </trkpt>
      <trkpt lat="47.45613" lon="6.73862">
        <ele>456</ele>
        <time>2015-06-28T09:55:26.000Z</time>
      </trkpt>
      <trkpt lat="47.45616" lon="6.73867">
        <ele>456</ele>
        <time>2015-06-28T09:55:28.000Z</time>
      </trkpt>
      <trkpt lat="47.45618" lon="6.73871">
        <ele>456</ele>
        <time>2015-06-28T09:55:29.000Z</time>
      </trkpt>
      <trkpt lat="47.4563" lon="6.73884">
        <ele>455</ele>
        <time>2015-06-28T09:55:30.000Z</time>
      </trkpt>
      <trkpt lat="47.45636" lon="6.7389">
        <ele>455</ele>
        <time>2015-06-28T09:55:31.000Z</time>
      </trkpt>
      <trkpt lat="47.45642" lon="6.73899">
        <ele>454</ele>
        <time>2015-06-28T09:55:32.000Z</time>
      </trkpt>
      <trkpt lat="47.45645" lon="6.7391">
        <ele>454</ele>
        <time>2015-06-28T09:55:33.000Z</time>
      </trkpt>
      <trkpt lat="47.4565" lon="6.73922">
        <ele>454</ele>
        <time>2015-06-28T09:55:34.000Z</time>
      </trkpt>
      <trkpt lat="47.45655" lon="6.73932">
        <ele>454</ele>
        <time>2015-06-28T09:55:35.000Z</time>
      </trkpt>
      <trkpt lat="47.45658" lon="6.73938">
        <ele>454</ele>
        <time>2015-06-28T09:55:36.000Z</time>
      </trkpt>
      <trkpt lat="47.45663" lon="6.73948">
        <ele>454</ele>
        <time>2015-06-28T09:55:37.000Z</time>
      </trkpt>
      <trkpt lat="47.45667" lon="6.73957">
        <ele>449</ele>
        <time>2015-06-28T09:55:38.000Z</time>
      </trkpt>
      <trkpt lat="47.45671" lon="6.73962">
        <ele>449</ele>
        <time>2015-06-28T09:55:39.000Z</time>
      </trkpt>
      <trkpt lat="47.45673" lon="6.73967">
        <ele>450</ele>
        <time>2015-06-28T09:55:40.000Z</time>
      </trkpt>
      <trkpt lat="47.45675" lon="6.73972">
        <ele>450</ele>
        <time>2015-06-28T09:55:41.000Z</time>
      </trkpt>
      <trkpt lat="47.45677" lon="6.73977">
        <ele>450</ele>
        <time>2015-06-28T09:55:44.000Z</time>
      </trkpt>
      <trkpt lat="47.45678" lon="6.73978">
        <ele>450</ele>
        <time>2015-06-28T09:55:45.000Z</time>
      </trkpt>
      <trkpt lat="47.45679" lon="6.73983">
        <ele>450</ele>
        <time>2015-06-28T09:55:48.000Z</time>
      </trkpt>
      <trkpt lat="47.4568" lon="6.73984">
        <ele>450</ele>
        <time>2015-06-28T09:55:49.000Z</time>
      </trkpt>
      <trkpt lat="47.45681" lon="6.7399">
        <ele>450</ele>
        <time>2015-06-28T09:55:54.000Z</time>
      </trkpt>
      <trkpt lat="47.45682" lon="6.73991">
        <ele>450</ele>
        <time>2015-06-28T09:55:55.000Z</time>
      </trkpt>
      <trkpt lat="47.45684" lon="6.73995">
        <ele>450</ele>
        <time>2015-06-28T09:56:00.000Z</time>
      </trkpt>
      <trkpt lat="47.45685" lon="6.73996">
        <ele>450</ele>
        <time>2015-06-28T09:56:01.000Z</time>
      </trkpt>
      <trkpt lat="47.45686" lon="6.74001">
        <ele>449</ele>
        <time>2015-06-28T09:56:07.000Z</time>
      </trkpt>
      <trkpt lat="47.45687" lon="6.74002">
        <ele>449</ele>
        <time>2015-06-28T09:56:08.000Z</time>
      </trkpt>
      <trkpt lat="47.45689" lon="6.74004">
        <ele>448</ele>
        <time>2015-06-28T09:56:22.000Z</time>
      </trkpt>
      <trkpt lat="47.45692" lon="6.74006">
        <ele>448</ele>
        <time>2015-06-28T09:56:23.000Z</time>
      </trkpt>
      <trkpt lat="47.45694" lon="6.74008">
        <ele>448</ele>
        <time>2015-06-28T09:56:24.000Z</time>
      </trkpt>
      <trkpt lat="47.45696" lon="6.7401">
        <ele>447</ele>
        <time>2015-06-28T09:56:25.000Z</time>
      </trkpt>
      <trkpt lat="47.45698" lon="6.74013">
        <ele>447</ele>
        <time>2015-06-28T09:56:26.000Z</time>
      </trkpt>
      <trkpt lat="47.457" lon="6.74017">
        <ele>447</ele>
        <time>2015-06-28T09:56:27.000Z</time>
      </trkpt>
      <trkpt lat="47.45702" lon="6.7402">
        <ele>447</ele>
        <time>2015-06-28T09:56:28.000Z</time>
      </trkpt>
      <trkpt lat="47.45704" lon="6.74023">
        <ele>446</ele>
        <time>2015-06-28T09:56:29.000Z</time>
      </trkpt>
      <trkpt lat="47.45706" lon="6.74028">
        <ele>446</ele>
        <time>2015-06-28T09:56:30.000Z</time>
      </trkpt>
      <trkpt lat="47.45709" lon="6.74033">
        <ele>446</ele>
        <time>2015-06-28T09:56:31.000Z</time>
      </trkpt>
      <trkpt lat="47.45712" lon="6.74039">
        <ele>445</ele>
        <time>2015-06-28T09:56:32.000Z</time>
      </trkpt>
      <trkpt lat="47.45715" lon="6.74046">
        <ele>445</ele>
        <time>2015-06-28T09:56:33.000Z</time>
      </trkpt>
      <trkpt lat="47.45728" lon="6.74063">
        <ele>443</ele>
        <time>2015-06-28T09:56:34.000Z</time>
      </trkpt>
      <trkpt lat="47.45733" lon="6.74074">
        <ele>442</ele>
        <time>2015-06-28T09:56:35.000Z</time>
      </trkpt>
      <trkpt lat="47.45737" lon="6.74082">
        <ele>440</ele>
        <time>2015-06-28T09:56:36.000Z</time>
      </trkpt>
      <trkpt lat="47.45741" lon="6.74091">
        <ele>439</ele>
        <time>2015-06-28T09:56:37.000Z</time>
      </trkpt>
      <trkpt lat="47.45747" lon="6.74099">
        <ele>439</ele>
        <time>2015-06-28T09:56:38.000Z</time>
      </trkpt>
      <trkpt lat="47.4575" lon="6.74105">
        <ele>434</ele>
        <time>2015-06-28T09:56:39.000Z</time>
      </trkpt>
      <trkpt lat="47.45753" lon="6.74113">
        <ele>434</ele>
        <time>2015-06-28T09:56:40.000Z</time>
      </trkpt>
      <trkpt lat="47.45759" lon="6.74122">
        <ele>433</ele>
        <time>2015-06-28T09:56:41.000Z</time>
      </trkpt>
      <trkpt lat="47.45767" lon="6.74126">
        <ele>433</ele>
        <time>2015-06-28T09:56:42.000Z</time>
      </trkpt>
      <trkpt lat="47.45772" lon="6.74128">
        <ele>433</ele>
        <time>2015-06-28T09:56:42.998Z</time>
      </trkpt>
      <trkpt lat="47.45778" lon="6.7414">
        <ele>432</ele>
        <time>2015-06-28T09:56:44.000Z</time>
      </trkpt>
      <trkpt lat="47.45781" lon="6.74143">
        <ele>432</ele>
        <time>2015-06-28T09:56:45.000Z</time>
      </trkpt>
      <trkpt lat="47.45784" lon="6.74149">
        <ele>432</ele>
        <time>2015-06-28T09:56:46.000Z</time>
      </trkpt>
      <trkpt lat="47.45789" lon="6.74156">
        <ele>432</ele>
        <time>2015-06-28T09:56:47.000Z</time>
      </trkpt>
      <trkpt lat="47.45799" lon="6.74168">
        <ele>426</ele>
        <time>2015-06-28T09:56:48.000Z</time>
      </trkpt>
      <trkpt lat="47.45807" lon="6.74179">
        <ele>425</ele>
        <time>2015-06-28T09:56:49.000Z</time>
      </trkpt>
      <trkpt lat="47.45812" lon="6.74184">
        <ele>425</ele>
        <time>2015-06-28T09:56:50.000Z</time>
      </trkpt>
      <trkpt lat="47.45816" lon="6.74188">
        <ele>425</ele>
        <time>2015-06-28T09:56:51.000Z</time>
      </trkpt>
      <trkpt lat="47.45819" lon="6.74191">
        <ele>425</ele>
        <time>2015-06-28T09:56:52.000Z</time>
      </trkpt>
      <trkpt lat="47.45822" lon="6.74193">
        <ele>424</ele>
        <time>2015-06-28T09:56:53.000Z</time>
      </trkpt>
      <trkpt lat="47.45825" lon="6.74196">
        <ele>424</ele>
        <time>2015-06-28T09:56:54.000Z</time>
      </trkpt>
      <trkpt lat="47.45828" lon="6.74198">
        <ele>424</ele>
        <time>2015-06-28T09:56:55.000Z</time>
      </trkpt>
      <trkpt lat="47.45831" lon="6.74199">
        <ele>424</ele>
        <time>2015-06-28T09:56:56.000Z</time>
      </trkpt>
      <trkpt lat="47.45835" lon="6.742">
        <ele>420</ele>
        <time>2015-06-28T09:56:57.000Z</time>
      </trkpt>
      <trkpt lat="47.4584" lon="6.74201">
        <ele>420</ele>
        <time>2015-06-28T09:56:58.000Z</time>
      </trkpt>
      <trkpt lat="47.45844" lon="6.74202">
        <ele>419</ele>
        <time>2015-06-28T09:56:59.000Z</time>
      </trkpt>
      <trkpt lat="47.45849" lon="6.74203">
        <ele>419</ele>
        <time>2015-06-28T09:57:00.000Z</time>
      </trkpt>
      <trkpt lat="47.45854" lon="6.74204">
        <ele>419</ele>
        <time>2015-06-28T09:57:01.000Z</time>
      </trkpt>
      <trkpt lat="47.45859" lon="6.74205">
        <ele>419</ele>
        <time>2015-06-28T09:57:02.000Z</time>
      </trkpt>
      <trkpt lat="47.45863" lon="6.74206">
        <ele>418</ele>
        <time>2015-06-28T09:57:03.000Z</time>
      </trkpt>
      <trkpt lat="47.45868" lon="6.74207">
        <ele>418</ele>
        <time>2015-06-28T09:57:04.000Z</time>
      </trkpt>
      <trkpt lat="47.45872" lon="6.74208">
        <ele>418</ele>
        <time>2015-06-28T09:57:05.000Z</time>
      </trkpt>
      <trkpt lat="47.45876" lon="6.74208">
        <ele>418</ele>
        <time>2015-06-28T09:57:06.000Z</time>
      </trkpt>
      <trkpt lat="47.4588" lon="6.74209">
        <ele>418</ele>
        <time>2015-06-28T09:57:07.000Z</time>
      </trkpt>
      <trkpt lat="47.45885" lon="6.7421">
        <ele>417</ele>
        <time>2015-06-28T09:57:08.000Z</time>
      </trkpt>
      <trkpt lat="47.45889" lon="6.7421">
        <ele>417</ele>
        <time>2015-06-28T09:57:09.000Z</time>
      </trkpt>
      <trkpt lat="47.45895" lon="6.7421">
        <ele>417</ele>
        <time>2015-06-28T09:57:10.000Z</time>
      </trkpt>
      <trkpt lat="47.459" lon="6.7421">
        <ele>417</ele>
        <time>2015-06-28T09:57:11.000Z</time>
      </trkpt>
      <trkpt lat="47.45906" lon="6.74209">
        <ele>417</ele>
        <time>2015-06-28T09:57:12.000Z</time>
      </trkpt>
      <trkpt lat="47.45911" lon="6.7421">
        <ele>417</ele>
        <time>2015-06-28T09:57:13.000Z</time>
      </trkpt>
      <trkpt lat="47.45927" lon="6.74205">
        <ele>416</ele>
        <time>2015-06-28T09:57:14.000Z</time>
      </trkpt>
      <trkpt lat="47.45933" lon="6.74204">
        <ele>416</ele>
        <time>2015-06-28T09:57:15.000Z</time>
      </trkpt>
      <trkpt lat="47.45936" lon="6.74203">
        <ele>416</ele>
        <time>2015-06-28T09:57:16.000Z</time>
      </trkpt>
      <trkpt lat="47.45939" lon="6.74203">
        <ele>416</ele>
        <time>2015-06-28T09:57:17.000Z</time>
      </trkpt>
      <trkpt lat="47.45942" lon="6.74205">
        <ele>416</ele>
        <time>2015-06-28T09:57:18.000Z</time>
      </trkpt>
      <trkpt lat="47.45947" lon="6.74203">
        <ele>416</ele>
        <time>2015-06-28T09:57:19.000Z</time>
      </trkpt>
      <trkpt lat="47.45949" lon="6.74203">
        <ele>416</ele>
        <time>2015-06-28T09:57:20.000Z</time>
      </trkpt>
      <trkpt lat="47.45951" lon="6.74206">
        <ele>416</ele>
        <time>2015-06-28T09:57:21.000Z</time>
      </trkpt>
      <trkpt lat="47.45954" lon="6.74208">
        <ele>416</ele>
        <time>2015-06-28T09:57:22.000Z</time>
      </trkpt>
      <trkpt lat="47.45956" lon="6.7421">
        <ele>416</ele>
        <time>2015-06-28T09:57:23.000Z</time>
      </trkpt>
      <trkpt lat="47.45957" lon="6.74212">
        <ele>415</ele>
        <time>2015-06-28T09:57:24.000Z</time>
      </trkpt>
      <trkpt lat="47.45959" lon="6.74215">
        <ele>415</ele>
        <time>2015-06-28T09:57:25.000Z</time>
      </trkpt>
      <trkpt lat="47.4596" lon="6.74218">
        <ele>415</ele>
        <time>2015-06-28T09:57:26.000Z</time>
      </trkpt>
      <trkpt lat="47.45962" lon="6.7422">
        <ele>415</ele>
        <time>2015-06-28T09:57:27.000Z</time>
      </trkpt>
      <trkpt lat="47.45965" lon="6.74223">
        <ele>415</ele>
        <time>2015-06-28T09:57:28.000Z</time>
      </trkpt>
      <trkpt lat="47.45968" lon="6.74224">
        <ele>415</ele>
        <time>2015-06-28T09:57:29.000Z</time>
      </trkpt>
      <trkpt lat="47.45971" lon="6.74225">
        <ele>415</ele>
        <time>2015-06-28T09:57:30.000Z</time>
      </trkpt>
      <trkpt lat="47.45974" lon="6.74225">
        <ele>415</ele>
        <time>2015-06-28T09:57:31.000Z</time>
      </trkpt>
      <trkpt lat="47.45977" lon="6.74225">
        <ele>415</ele>
        <time>2015-06-28T09:57:32.000Z</time>
      </trkpt>
      <trkpt lat="47.45981" lon="6.74226">
        <ele>414</ele>
        <time>2015-06-28T09:57:33.000Z</time>
      </trkpt>
      <trkpt lat="47.45984" lon="6.74226">
        <ele>414</ele>
        <time>2015-06-28T09:57:34.000Z</time>
      </trkpt>
      <trkpt lat="47.45988" lon="6.74226">
        <ele>414</ele>
        <time>2015-06-28T09:57:35.000Z</time>
      </trkpt>
      <trkpt lat="47.45992" lon="6.74226">
        <ele>414</ele>
        <time>2015-06-28T09:57:36.000Z</time>
      </trkpt>
      <trkpt lat="47.45995" lon="6.74226">
        <ele>414</ele>
        <time>2015-06-28T09:57:37.000Z</time>
      </trkpt>
      <trkpt lat="47.45997" lon="6.74225">
        <ele>414</ele>
        <time>2015-06-28T09:57:38.000Z</time>
      </trkpt>
      <trkpt lat="47.46" lon="6.74226">
        <ele>414</ele>
        <time>2015-06-28T09:57:39.000Z</time>
      </trkpt>
      <trkpt lat="47.46002" lon="6.74226">
        <ele>415</ele>
        <time>2015-06-28T09:57:40.000Z</time>
      </trkpt>
      <trkpt lat="47.46005" lon="6.74226">
        <ele>415</ele>
        <time>2015-06-28T09:57:41.000Z</time>
      </trkpt>
      <trkpt lat="47.46009" lon="6.74227">
        <ele>415</ele>
        <time>2015-06-28T09:57:43.000Z</time>
      </trkpt>
      <trkpt lat="47.46011" lon="6.74227">
        <ele>415</ele>
        <time>2015-06-28T09:57:44.000Z</time>
      </trkpt>
      <trkpt lat="47.46014" lon="6.74228">
        <ele>415</ele>
        <time>2015-06-28T09:57:45.000Z</time>
      </trkpt>
      <trkpt lat="47.46016" lon="6.74228">
        <ele>416</ele>
        <time>2015-06-28T09:57:46.000Z</time>
      </trkpt>
      <trkpt lat="47.46018" lon="6.74228">
        <ele>416</ele>
        <time>2015-06-28T09:57:47.000Z</time>
      </trkpt>
      <trkpt lat="47.4602" lon="6.74227">
        <ele>416</ele>
        <time>2015-06-28T09:57:48.000Z</time>
      </trkpt>
      <trkpt lat="47.46025" lon="6.74227">
        <ele>416</ele>
        <time>2015-06-28T09:57:50.000Z</time>
      </trkpt>
      <trkpt lat="47.46027" lon="6.74227">
        <ele>416</ele>
        <time>2015-06-28T09:57:51.000Z</time>
      </trkpt>
      <trkpt lat="47.46029" lon="6.74228">
        <ele>416</ele>
        <time>2015-06-28T09:57:52.000Z</time>
      </trkpt>
      <trkpt lat="47.46031" lon="6.74228">
        <ele>416</ele>
        <time>2015-06-28T09:57:53.000Z</time>
      </trkpt>
      <trkpt lat="47.46034" lon="6.74228">
        <ele>416</ele>
        <time>2015-06-28T09:57:54.000Z</time>
      </trkpt>
      <trkpt lat="47.46037" lon="6.74227">
        <ele>416</ele>
        <time>2015-06-28T09:57:55.000Z</time>
      </trkpt>
      <trkpt lat="47.46041" lon="6.74227">
        <ele>416</ele>
        <time>2015-06-28T09:57:56.000Z</time>
      </trkpt>
      <trkpt lat="47.46044" lon="6.74227">
        <ele>416</ele>
        <time>2015-06-28T09:57:57.000Z</time>
      </trkpt>
      <trkpt lat="47.46047" lon="6.74228">
        <ele>416</ele>
        <time>2015-06-28T09:57:58.000Z</time>
      </trkpt>
      <trkpt lat="47.4605" lon="6.74229">
        <ele>416</ele>
        <time>2015-06-28T09:57:59.000Z</time>
      </trkpt>
      <trkpt lat="47.46053" lon="6.7423">
        <ele>416</ele>
        <time>2015-06-28T09:58:00.000Z</time>
      </trkpt>
      <trkpt lat="47.46056" lon="6.74231">
        <ele>416</ele>
        <time>2015-06-28T09:58:01.000Z</time>
      </trkpt>
      <trkpt lat="47.46059" lon="6.74231">
        <ele>416</ele>
        <time>2015-06-28T09:58:02.000Z</time>
      </trkpt>
      <trkpt lat="47.46062" lon="6.74231">
        <ele>416</ele>
        <time>2015-06-28T09:58:03.000Z</time>
      </trkpt>
      <trkpt lat="47.46065" lon="6.74233">
        <ele>416</ele>
        <time>2015-06-28T09:58:05.000Z</time>
      </trkpt>
      <trkpt lat="47.46067" lon="6.74234">
        <ele>416</ele>
        <time>2015-06-28T09:58:06.000Z</time>
      </trkpt>
      <trkpt lat="47.46069" lon="6.74236">
        <ele>416</ele>
        <time>2015-06-28T09:58:07.000Z</time>
      </trkpt>
      <trkpt lat="47.46071" lon="6.74237">
        <ele>416</ele>
        <time>2015-06-28T09:58:08.000Z</time>
      </trkpt>
      <trkpt lat="47.46074" lon="6.74239">
        <ele>416</ele>
        <time>2015-06-28T09:58:09.000Z</time>
      </trkpt>
      <trkpt lat="47.46076" lon="6.74239">
        <ele>415</ele>
        <time>2015-06-28T09:58:10.000Z</time>
      </trkpt>
      <trkpt lat="47.46079" lon="6.74239">
        <ele>415</ele>
        <time>2015-06-28T09:58:11.000Z</time>
      </trkpt>
      <trkpt lat="47.46081" lon="6.74239">
        <ele>415</ele>
        <time>2015-06-28T09:58:12.000Z</time>
      </trkpt>
      <trkpt lat="47.46085" lon="6.74239">
        <ele>416</ele>
        <time>2015-06-28T09:58:14.000Z</time>
      </trkpt>
      <trkpt lat="47.46087" lon="6.74239">
        <ele>416</ele>
        <time>2015-06-28T09:58:15.000Z</time>
      </trkpt>
      <trkpt lat="47.46091" lon="6.7424">
        <ele>416</ele>
        <time>2015-06-28T09:58:17.000Z</time>
      </trkpt>
      <trkpt lat="47.46093" lon="6.74241">
        <ele>416</ele>
        <time>2015-06-28T09:58:18.000Z</time>
      </trkpt>
      <trkpt lat="47.46096" lon="6.74241">
        <ele>416</ele>
        <time>2015-06-28T09:58:19.000Z</time>
      </trkpt>
      <trkpt lat="47.46099" lon="6.74242">
        <ele>416</ele>
        <time>2015-06-28T09:58:20.000Z</time>
      </trkpt>
      <trkpt lat="47.46103" lon="6.74243">
        <ele>416</ele>
        <time>2015-06-28T09:58:21.000Z</time>
      </trkpt>
      <trkpt lat="47.46106" lon="6.74243">
        <ele>417</ele>
        <time>2015-06-28T09:58:22.000Z</time>
      </trkpt>
      <trkpt lat="47.4611" lon="6.74242">
        <ele>417</ele>
        <time>2015-06-28T09:58:23.000Z</time>
      </trkpt>
      <trkpt lat="47.46113" lon="6.74242">
        <ele>417</ele>
        <time>2015-06-28T09:58:24.000Z</time>
      </trkpt>
      <trkpt lat="47.46117" lon="6.74241">
        <ele>417</ele>
        <time>2015-06-28T09:58:26.000Z</time>
      </trkpt>
      <trkpt lat="47.46118" lon="6.7424">
        <ele>417</ele>
        <time>2015-06-28T09:58:27.000Z</time>
      </trkpt>
      <trkpt lat="47.46122" lon="6.74236">
        <ele>417</ele>
        <time>2015-06-28T09:58:34.000Z</time>
      </trkpt>
      <trkpt lat="47.46122" lon="6.74236">
        <ele>417</ele>
        <time>2015-06-28T09:58:35.000Z</time>
      </trkpt>
      <trkpt lat="47.46126" lon="6.74239">
        <ele>417</ele>
        <time>2015-06-28T09:58:39.000Z</time>
      </trkpt>
      <trkpt lat="47.46128" lon="6.7424">
        <ele>417</ele>
        <time>2015-06-28T09:58:40.000Z</time>
      </trkpt>
      <trkpt lat="47.46131" lon="6.74242">
        <ele>417</ele>
        <time>2015-06-28T09:58:41.000Z</time>
      </trkpt>
      <trkpt lat="47.46133" lon="6.74244">
        <ele>417</ele>
        <time>2015-06-28T09:58:42.000Z</time>
      </trkpt>
      <trkpt lat="47.46136" lon="6.74245">
        <ele>417</ele>
        <time>2015-06-28T09:58:43.000Z</time>
      </trkpt>
      <trkpt lat="47.46138" lon="6.74246">
        <ele>417</ele>
        <time>2015-06-28T09:58:44.000Z</time>
      </trkpt>
      <trkpt lat="47.46141" lon="6.74247">
        <ele>417</ele>
        <time>2015-06-28T09:58:45.000Z</time>
      </trkpt>
      <trkpt lat="47.46144" lon="6.74247">
        <ele>417</ele>
        <time>2015-06-28T09:58:46.000Z</time>
      </trkpt>
      <trkpt lat="47.46147" lon="6.74247">
        <ele>417</ele>
        <time>2015-06-28T09:58:47.000Z</time>
      </trkpt>
      <trkpt lat="47.46151" lon="6.74248">
        <ele>416</ele>
        <time>2015-06-28T09:58:48.000Z</time>
      </trkpt>
      <trkpt lat="47.46155" lon="6.74249">
        <ele>416</ele>
        <time>2015-06-28T09:58:49.000Z</time>
      </trkpt>
      <trkpt lat="47.46159" lon="6.74249">
        <ele>416</ele>
        <time>2015-06-28T09:58:50.000Z</time>
      </trkpt>
      <trkpt lat="47.46163" lon="6.7425">
        <ele>413</ele>
        <time>2015-06-28T09:58:51.000Z</time>
      </trkpt>
      <trkpt lat="47.46166" lon="6.74251">
        <ele>414</ele>
        <time>2015-06-28T09:58:52.000Z</time>
      </trkpt>
      <trkpt lat="47.4617" lon="6.74253">
        <ele>413</ele>
        <time>2015-06-28T09:58:53.000Z</time>
      </trkpt>
      <trkpt lat="47.46175" lon="6.74255">
        <ele>412</ele>
        <time>2015-06-28T09:58:54.000Z</time>
      </trkpt>
      <trkpt lat="47.46179" lon="6.74257">
        <ele>411</ele>
        <time>2015-06-28T09:58:55.000Z</time>
      </trkpt>
      <trkpt lat="47.46183" lon="6.74259">
        <ele>410</ele>
        <time>2015-06-28T09:58:56.000Z</time>
      </trkpt>
      <trkpt lat="47.46188" lon="6.74259">
        <ele>409</ele>
        <time>2015-06-28T09:58:57.000Z</time>
      </trkpt>
      <trkpt lat="47.46191" lon="6.74261">
        <ele>409</ele>
        <time>2015-06-28T09:58:58.000Z</time>
      </trkpt>
      <trkpt lat="47.46195" lon="6.74263">
        <ele>408</ele>
        <time>2015-06-28T09:58:59.000Z</time>
      </trkpt>
      <trkpt lat="47.46198" lon="6.74265">
        <ele>408</ele>
        <time>2015-06-28T09:59:00.000Z</time>
      </trkpt>
      <trkpt lat="47.46201" lon="6.74267">
        <ele>408</ele>
        <time>2015-06-28T09:59:01.000Z</time>
      </trkpt>
      <trkpt lat="47.46204" lon="6.74268">
        <ele>407</ele>
        <time>2015-06-28T09:59:02.000Z</time>
      </trkpt>
      <trkpt lat="47.46206" lon="6.7427">
        <ele>407</ele>
        <time>2015-06-28T09:59:03.000Z</time>
      </trkpt>
      <trkpt lat="47.46209" lon="6.74271">
        <ele>407</ele>
        <time>2015-06-28T09:59:04.000Z</time>
      </trkpt>
      <trkpt lat="47.46211" lon="6.74273">
        <ele>407</ele>
        <time>2015-06-28T09:59:05.000Z</time>
      </trkpt>
      <trkpt lat="47.46213" lon="6.74273">
        <ele>407</ele>
        <time>2015-06-28T09:59:06.000Z</time>
      </trkpt>
      <trkpt lat="47.46216" lon="6.74274">
        <ele>407</ele>
        <time>2015-06-28T09:59:07.000Z</time>
      </trkpt>
      <trkpt lat="47.4622" lon="6.74275">
        <ele>407</ele>
        <time>2015-06-28T09:59:09.000Z</time>
      </trkpt>
      <trkpt lat="47.46222" lon="6.74276">
        <ele>407</ele>
        <time>2015-06-28T09:59:10.000Z</time>
      </trkpt>
      <trkpt lat="47.46225" lon="6.74278">
        <ele>407</ele>
        <time>2015-06-28T09:59:11.000Z</time>
      </trkpt>
      <trkpt lat="47.46229" lon="6.7428">
        <ele>406</ele>
        <time>2015-06-28T09:59:12.000Z</time>
      </trkpt>
      <trkpt lat="47.46232" lon="6.74283">
        <ele>406</ele>
        <time>2015-06-28T09:59:13.000Z</time>
      </trkpt>
      <trkpt lat="47.46237" lon="6.74285">
        <ele>406</ele>
        <time>2015-06-28T09:59:14.000Z</time>
      </trkpt>
      <trkpt lat="47.4624" lon="6.74288">
        <ele>406</ele>
        <time>2015-06-28T09:59:15.000Z</time>
      </trkpt>
      <trkpt lat="47.46243" lon="6.74289">
        <ele>406</ele>
        <time>2015-06-28T09:59:16.000Z</time>
      </trkpt>
      <trkpt lat="47.46247" lon="6.7429">
        <ele>405</ele>
        <time>2015-06-28T09:59:18.000Z</time>
      </trkpt>
      <trkpt lat="47.46249" lon="6.74292">
        <ele>405</ele>
        <time>2015-06-28T09:59:19.000Z</time>
      </trkpt>
      <trkpt lat="47.4625" lon="6.74297">
        <ele>406</ele>
        <time>2015-06-28T09:59:21.000Z</time>
      </trkpt>
      <trkpt lat="47.46252" lon="6.74299">
        <ele>406</ele>
        <time>2015-06-28T09:59:22.000Z</time>
      </trkpt>
      <trkpt lat="47.46255" lon="6.74301">
        <ele>405</ele>
        <time>2015-06-28T09:59:23.000Z</time>
      </trkpt>
      <trkpt lat="47.46259" lon="6.74303">
        <ele>405</ele>
        <time>2015-06-28T09:59:24.000Z</time>
      </trkpt>
      <trkpt lat="47.46264" lon="6.74305">
        <ele>405</ele>
        <time>2015-06-28T09:59:25.000Z</time>
      </trkpt>
      <trkpt lat="47.46268" lon="6.74307">
        <ele>405</ele>
        <time>2015-06-28T09:59:26.000Z</time>
      </trkpt>
      <trkpt lat="47.46273" lon="6.74308">
        <ele>405</ele>
        <time>2015-06-28T09:59:27.000Z</time>
      </trkpt>
      <trkpt lat="47.46277" lon="6.7431">
        <ele>405</ele>
        <time>2015-06-28T09:59:28.000Z</time>
      </trkpt>
      <trkpt lat="47.4628" lon="6.74311">
        <ele>405</ele>
        <time>2015-06-28T09:59:29.000Z</time>
      </trkpt>
      <trkpt lat="47.46283" lon="6.74312">
        <ele>405</ele>
        <time>2015-06-28T09:59:30.000Z</time>
      </trkpt>
      <trkpt lat="47.46286" lon="6.74313">
        <ele>405</ele>
        <time>2015-06-28T09:59:31.000Z</time>
      </trkpt>
      <trkpt lat="47.46288" lon="6.74315">
        <ele>406</ele>
        <time>2015-06-28T09:59:32.000Z</time>
      </trkpt>
      <trkpt lat="47.46292" lon="6.74316">
        <ele>406</ele>
        <time>2015-06-28T09:59:33.000Z</time>
      </trkpt>
      <trkpt lat="47.46295" lon="6.74316">
        <ele>406</ele>
        <time>2015-06-28T09:59:34.000Z</time>
      </trkpt>
      <trkpt lat="47.46298" lon="6.74317">
        <ele>406</ele>
        <time>2015-06-28T09:59:35.000Z</time>
      </trkpt>
      <trkpt lat="47.46301" lon="6.74317">
        <ele>406</ele>
        <time>2015-06-28T09:59:36.000Z</time>
      </trkpt>
      <trkpt lat="47.46306" lon="6.74316">
        <ele>406</ele>
        <time>2015-06-28T09:59:37.000Z</time>
      </trkpt>
      <trkpt lat="47.46311" lon="6.74317">
        <ele>406</ele>
        <time>2015-06-28T09:59:38.000Z</time>
      </trkpt>
      <trkpt lat="47.46315" lon="6.74318">
        <ele>406</ele>
        <time>2015-06-28T09:59:39.000Z</time>
      </trkpt>
      <trkpt lat="47.46319" lon="6.74319">
        <ele>406</ele>
        <time>2015-06-28T09:59:40.000Z</time>
      </trkpt>
      <trkpt lat="47.46323" lon="6.7432">
        <ele>406</ele>
        <time>2015-06-28T09:59:41.000Z</time>
      </trkpt>
      <trkpt lat="47.46328" lon="6.74321">
        <ele>405</ele>
        <time>2015-06-28T09:59:42.000Z</time>
      </trkpt>
      <trkpt lat="47.46331" lon="6.74322">
        <ele>405</ele>
        <time>2015-06-28T09:59:43.000Z</time>
      </trkpt>
      <trkpt lat="47.46335" lon="6.74323">
        <ele>405</ele>
        <time>2015-06-28T09:59:44.000Z</time>
      </trkpt>
      <trkpt lat="47.46338" lon="6.74325">
        <ele>405</ele>
        <time>2015-06-28T09:59:45.000Z</time>
      </trkpt>
      <trkpt lat="47.46341" lon="6.74326">
        <ele>405</ele>
        <time>2015-06-28T09:59:46.000Z</time>
      </trkpt>
      <trkpt lat="47.46344" lon="6.74327">
        <ele>406</ele>
        <time>2015-06-28T09:59:47.000Z</time>
      </trkpt>
      <trkpt lat="47.46346" lon="6.74328">
        <ele>406</ele>
        <time>2015-06-28T09:59:48.000Z</time>
      </trkpt>
      <trkpt lat="47.4636" lon="6.74329">
        <ele>406</ele>
        <time>2015-06-28T09:59:49.000Z</time>
      </trkpt>
      <trkpt lat="47.46367" lon="6.7433">
        <ele>407</ele>
        <time>2015-06-28T09:59:50.000Z</time>
      </trkpt>
      <trkpt lat="47.46371" lon="6.7433">
        <ele>407</ele>
        <time>2015-06-28T09:59:51.000Z</time>
      </trkpt>
      <trkpt lat="47.46374" lon="6.74331">
        <ele>407</ele>
        <time>2015-06-28T09:59:52.000Z</time>
      </trkpt>
      <trkpt lat="47.46378" lon="6.74333">
        <ele>407</ele>
        <time>2015-06-28T09:59:53.000Z</time>
      </trkpt>
      <trkpt lat="47.46381" lon="6.74335">
        <ele>398</ele>
        <time>2015-06-28T09:59:54.000Z</time>
      </trkpt>
      <trkpt lat="47.46385" lon="6.74337">
        <ele>399</ele>
        <time>2015-06-28T09:59:55.000Z</time>
      </trkpt>
      <trkpt lat="47.46388" lon="6.7434">
        <ele>399</ele>
        <time>2015-06-28T09:59:56.000Z</time>
      </trkpt>
      <trkpt lat="47.46392" lon="6.74343">
        <ele>399</ele>
        <time>2015-06-28T09:59:57.000Z</time>
      </trkpt>
      <trkpt lat="47.46395" lon="6.74343">
        <ele>399</ele>
        <time>2015-06-28T09:59:58.000Z</time>
      </trkpt>
      <trkpt lat="47.46398" lon="6.74345">
        <ele>399</ele>
        <time>2015-06-28T09:59:59.000Z</time>
      </trkpt>
      <trkpt lat="47.464" lon="6.74347">
        <ele>399</ele>
        <time>2015-06-28T10:00:00.000Z</time>
      </trkpt>
      <trkpt lat="47.46403" lon="6.74347">
        <ele>399</ele>
        <time>2015-06-28T10:00:01.000Z</time>
      </trkpt>
      <trkpt lat="47.46407" lon="6.74349">
        <ele>400</ele>
        <time>2015-06-28T10:00:04.000Z</time>
      </trkpt>
      <trkpt lat="47.46408" lon="6.74349">
        <ele>400</ele>
        <time>2015-06-28T10:00:05.000Z</time>
      </trkpt>
      <trkpt lat="47.46411" lon="6.74351">
        <ele>400</ele>
        <time>2015-06-28T10:00:11.000Z</time>
      </trkpt>
      <trkpt lat="47.46412" lon="6.74351">
        <ele>400</ele>
        <time>2015-06-28T10:00:12.000Z</time>
      </trkpt>
      <trkpt lat="47.46416" lon="6.74351">
        <ele>400</ele>
        <time>2015-06-28T10:00:36.000Z</time>
      </trkpt>
      <trkpt lat="47.46417" lon="6.7435">
        <ele>402</ele>
        <time>2015-06-28T10:00:37.000Z</time>
      </trkpt>
      <trkpt lat="47.46421" lon="6.74348">
        <ele>403</ele>
        <time>2015-06-28T10:03:01.000Z</time>
      </trkpt>
      <trkpt lat="47.46421" lon="6.74348">
        <ele>403</ele>
        <time>2015-06-28T10:03:02.000Z</time>
      </trkpt>
      <trkpt lat="47.46425" lon="6.74345">
        <ele>403</ele>
        <time>2015-06-28T10:03:56.000Z</time>
      </trkpt>
      <trkpt lat="47.46425" lon="6.74345">
        <ele>403</ele>
        <time>2015-06-28T10:03:57.000Z</time>
      </trkpt>
      <trkpt lat="47.46428" lon="6.74347">
        <ele>402</ele>
        <time>2015-06-28T10:07:15.000Z</time>
      </trkpt>
      <trkpt lat="47.46429" lon="6.74351">
        <ele>402</ele>
        <time>2015-06-28T10:07:16.000Z</time>
      </trkpt>
      <trkpt lat="47.46431" lon="6.74353">
        <ele>402</ele>
        <time>2015-06-28T10:07:17.000Z</time>
      </trkpt>
      <trkpt lat="47.46433" lon="6.74355">
        <ele>402</ele>
        <time>2015-06-28T10:07:18.000Z</time>
      </trkpt>
      <trkpt lat="47.46436" lon="6.74358">
        <ele>401</ele>
        <time>2015-06-28T10:07:19.000Z</time>
      </trkpt>
      <trkpt lat="47.46438" lon="6.7436">
        <ele>401</ele>
        <time>2015-06-28T10:07:20.000Z</time>
      </trkpt>
      <trkpt lat="47.46441" lon="6.74363">
        <ele>401</ele>
        <time>2015-06-28T10:07:21.000Z</time>
      </trkpt>
      <trkpt lat="47.46442" lon="6.74366">
        <ele>401</ele>
        <time>2015-06-28T10:07:22.000Z</time>
      </trkpt>
      <trkpt lat="47.46444" lon="6.74369">
        <ele>400</ele>
        <time>2015-06-28T10:07:23.000Z</time>
      </trkpt>
      <trkpt lat="47.46446" lon="6.74373">
        <ele>400</ele>
        <time>2015-06-28T10:07:24.000Z</time>
      </trkpt>
      <trkpt lat="47.46449" lon="6.74377">
        <ele>400</ele>
        <time>2015-06-28T10:07:25.000Z</time>
      </trkpt>
      <trkpt lat="47.46452" lon="6.74381">
        <ele>400</ele>
        <time>2015-06-28T10:07:26.000Z</time>
      </trkpt>
      <trkpt lat="47.46454" lon="6.74385">
        <ele>400</ele>
        <time>2015-06-28T10:07:27.000Z</time>
      </trkpt>
      <trkpt lat="47.46457" lon="6.7439">
        <ele>399</ele>
        <time>2015-06-28T10:07:28.000Z</time>
      </trkpt>
      <trkpt lat="47.4646" lon="6.74396">
        <ele>399</ele>
        <time>2015-06-28T10:07:29.000Z</time>
      </trkpt>
      <trkpt lat="47.46462" lon="6.74402">
        <ele>399</ele>
        <time>2015-06-28T10:07:30.000Z</time>
      </trkpt>
      <trkpt lat="47.46466" lon="6.74409">
        <ele>399</ele>
        <time>2015-06-28T10:07:31.000Z</time>
      </trkpt>
      <trkpt lat="47.46469" lon="6.74416">
        <ele>399</ele>
        <time>2015-06-28T10:07:32.000Z</time>
      </trkpt>
      <trkpt lat="47.46472" lon="6.74422">
        <ele>391</ele>
        <time>2015-06-28T10:07:33.000Z</time>
      </trkpt>
      <trkpt lat="47.46475" lon="6.74429">
        <ele>391</ele>
        <time>2015-06-28T10:07:34.000Z</time>
      </trkpt>
      <trkpt lat="47.46478" lon="6.74435">
        <ele>390</ele>
        <time>2015-06-28T10:07:35.000Z</time>
      </trkpt>
      <trkpt lat="47.46481" lon="6.74441">
        <ele>390</ele>
        <time>2015-06-28T10:07:36.000Z</time>
      </trkpt>
      <trkpt lat="47.46483" lon="6.74447">
        <ele>389</ele>
        <time>2015-06-28T10:07:37.000Z</time>
      </trkpt>
      <trkpt lat="47.46486" lon="6.74452">
        <ele>388</ele>
        <time>2015-06-28T10:07:38.000Z</time>
      </trkpt>
      <trkpt lat="47.46487" lon="6.74458">
        <ele>388</ele>
        <time>2015-06-28T10:07:39.000Z</time>
      </trkpt>
      <trkpt lat="47.46489" lon="6.74464">
        <ele>387</ele>
        <time>2015-06-28T10:07:40.000Z</time>
      </trkpt>
      <trkpt lat="47.46492" lon="6.74471">
        <ele>386</ele>
        <time>2015-06-28T10:07:41.000Z</time>
      </trkpt>
      <trkpt lat="47.46506" lon="6.74492">
        <ele>388</ele>
        <time>2015-06-28T10:07:42.000Z</time>
      </trkpt>
      <trkpt lat="47.4651" lon="6.74501">
        <ele>383</ele>
        <time>2015-06-28T10:07:43.000Z</time>
      </trkpt>
      <trkpt lat="47.46516" lon="6.74508">
        <ele>382</ele>
        <time>2015-06-28T10:07:44.000Z</time>
      </trkpt>
      <trkpt lat="47.46521" lon="6.74516">
        <ele>382</ele>
        <time>2015-06-28T10:07:45.000Z</time>
      </trkpt>
      <trkpt lat="47.46535" lon="6.74537">
        <ele>381</ele>
        <time>2015-06-28T10:07:46.000Z</time>
      </trkpt>
      <trkpt lat="47.46546" lon="6.7455">
        <ele>381</ele>
        <time>2015-06-28T10:07:47.000Z</time>
      </trkpt>
      <trkpt lat="47.46554" lon="6.74559">
        <ele>381</ele>
        <time>2015-06-28T10:07:48.000Z</time>
      </trkpt>
      <trkpt lat="47.46557" lon="6.74567">
        <ele>380</ele>
        <time>2015-06-28T10:07:49.000Z</time>
      </trkpt>
      <trkpt lat="47.46561" lon="6.74576">
        <ele>380</ele>
        <time>2015-06-28T10:07:50.000Z</time>
      </trkpt>
      <trkpt lat="47.46568" lon="6.74584">
        <ele>373</ele>
        <time>2015-06-28T10:07:51.000Z</time>
      </trkpt>
      <trkpt lat="47.46572" lon="6.74591">
        <ele>374</ele>
        <time>2015-06-28T10:07:52.000Z</time>
      </trkpt>
      <trkpt lat="47.46576" lon="6.74598">
        <ele>373</ele>
        <time>2015-06-28T10:07:53.000Z</time>
      </trkpt>
      <trkpt lat="47.46582" lon="6.74609">
        <ele>371</ele>
        <time>2015-06-28T10:07:54.000Z</time>
      </trkpt>
      <trkpt lat="47.46588" lon="6.74615">
        <ele>373</ele>
        <time>2015-06-28T10:07:55.000Z</time>
      </trkpt>
      <trkpt lat="47.46591" lon="6.74622">
        <ele>372</ele>
        <time>2015-06-28T10:07:56.000Z</time>
      </trkpt>
      <trkpt lat="47.46594" lon="6.7463">
        <ele>371</ele>
        <time>2015-06-28T10:07:57.000Z</time>
      </trkpt>
      <trkpt lat="47.46601" lon="6.74642">
        <ele>370</ele>
        <time>2015-06-28T10:07:58.000Z</time>
      </trkpt>
      <trkpt lat="47.4662" lon="6.74659">
        <ele>369</ele>
        <time>2015-06-28T10:07:59.000Z</time>
      </trkpt>
      <trkpt lat="47.46634" lon="6.74674">
        <ele>362</ele>
        <time>2015-06-28T10:08:00.000Z</time>
      </trkpt>
      <trkpt lat="47.46645" lon="6.74687">
        <ele>361</ele>
        <time>2015-06-28T10:08:01.000Z</time>
      </trkpt>
      <trkpt lat="47.46652" lon="6.74699">
        <ele>361</ele>
        <time>2015-06-28T10:08:02.000Z</time>
      </trkpt>
      <trkpt lat="47.46661" lon="6.74707">
        <ele>360</ele>
        <time>2015-06-28T10:08:03.000Z</time>
      </trkpt>
      <trkpt lat="47.46667" lon="6.74712">
        <ele>357</ele>
        <time>2015-06-28T10:08:04.000Z</time>
      </trkpt>
      <trkpt lat="47.46687" lon="6.74713">
        <ele>357</ele>
        <time>2015-06-28T10:08:05.000Z</time>
      </trkpt>
      <trkpt lat="47.46689" lon="6.74704">
        <ele>358</ele>
        <time>2015-06-28T10:08:06.000Z</time>
      </trkpt>
      <trkpt lat="47.46693" lon="6.74702">
        <ele>358</ele>
        <time>2015-06-28T10:08:08.000Z</time>
      </trkpt>
      <trkpt lat="47.46698" lon="6.74699">
        <ele>358</ele>
        <time>2015-06-28T10:08:09.000Z</time>
      </trkpt>
      <trkpt lat="47.46702" lon="6.74701">
        <ele>357</ele>
        <time>2015-06-28T10:08:19.000Z</time>
      </trkpt>
      <trkpt lat="47.46702" lon="6.74702">
        <ele>357</ele>
        <time>2015-06-28T10:08:20.000Z</time>
      </trkpt>
      <trkpt lat="47.46703" lon="6.74708">
        <ele>357</ele>
        <time>2015-06-28T10:08:51.000Z</time>
      </trkpt>
      <trkpt lat="47.46703" lon="6.74709">
        <ele>357</ele>
        <time>2015-06-28T10:08:52.000Z</time>
      </trkpt>
      <trkpt lat="47.46706" lon="6.7471">
        <ele>356</ele>
        <time>2015-06-28T10:09:09.000Z</time>
      </trkpt>
      <trkpt lat="47.46708" lon="6.74712">
        <ele>356</ele>
        <time>2015-06-28T10:09:10.000Z</time>
      </trkpt>
      <trkpt lat="47.4671" lon="6.74712">
        <ele>356</ele>
        <time>2015-06-28T10:09:11.000Z</time>
      </trkpt>
      <trkpt lat="47.46713" lon="6.74714">
        <ele>356</ele>
        <time>2015-06-28T10:09:12.000Z</time>
      </trkpt>
      <trkpt lat="47.46715" lon="6.74717">
        <ele>356</ele>
        <time>2015-06-28T10:09:13.000Z</time>
      </trkpt>
      <trkpt lat="47.46718" lon="6.7472">
        <ele>355</ele>
        <time>2015-06-28T10:09:14.000Z</time>
      </trkpt>
      <trkpt lat="47.4672" lon="6.74724">
        <ele>355</ele>
        <time>2015-06-28T10:09:15.000Z</time>
      </trkpt>
      <trkpt lat="47.46722" lon="6.74728">
        <ele>354</ele>
        <time>2015-06-28T10:09:16.000Z</time>
      </trkpt>
      <trkpt lat="47.46725" lon="6.74731">
        <ele>354</ele>
        <time>2015-06-28T10:09:17.000Z</time>
      </trkpt>
      <trkpt lat="47.46727" lon="6.74734">
        <ele>353</ele>
        <time>2015-06-28T10:09:18.000Z</time>
      </trkpt>
      <trkpt lat="47.46729" lon="6.74737">
        <ele>353</ele>
        <time>2015-06-28T10:09:19.000Z</time>
      </trkpt>
      <trkpt lat="47.4673" lon="6.74739">
        <ele>352</ele>
        <time>2015-06-28T10:09:20.000Z</time>
      </trkpt>
      <trkpt lat="47.46729" lon="6.74744">
        <ele>352</ele>
        <time>2015-06-28T10:09:22.000Z</time>
      </trkpt>
      <trkpt lat="47.46727" lon="6.74747">
        <ele>352</ele>
        <time>2015-06-28T10:09:23.000Z</time>
      </trkpt>
      <trkpt lat="47.46726" lon="6.74749">
        <ele>352</ele>
        <time>2015-06-28T10:09:24.000Z</time>
      </trkpt>
      <trkpt lat="47.46724" lon="6.74752">
        <ele>351</ele>
        <time>2015-06-28T10:09:25.000Z</time>
      </trkpt>
      <trkpt lat="47.46722" lon="6.74755">
        <ele>351</ele>
        <time>2015-06-28T10:09:26.000Z</time>
      </trkpt>
      <trkpt lat="47.46719" lon="6.74757">
        <ele>351</ele>
        <time>2015-06-28T10:09:27.000Z</time>
      </trkpt>
      <trkpt lat="47.46717" lon="6.74758">
        <ele>352</ele>
        <time>2015-06-28T10:09:28.000Z</time>
      </trkpt>
      <trkpt lat="47.46714" lon="6.74759">
        <ele>352</ele>
        <time>2015-06-28T10:09:29.000Z</time>
      </trkpt>
      <trkpt lat="47.46711" lon="6.74761">
        <ele>352</ele>
        <time>2015-06-28T10:09:31.000Z</time>
      </trkpt>
      <trkpt lat="47.4671" lon="6.74762">
        <ele>352</ele>
        <time>2015-06-28T10:09:32.000Z</time>
      </trkpt>
      <trkpt lat="47.46706" lon="6.74764">
        <ele>353</ele>
        <time>2015-06-28T10:09:35.000Z</time>
      </trkpt>
      <trkpt lat="47.46706" lon="6.74764">
        <ele>353</ele>
        <time>2015-06-28T10:09:36.000Z</time>
      </trkpt>
      <trkpt lat="47.46706" lon="6.7477">
        <ele>353</ele>
        <time>2015-06-28T10:09:42.000Z</time>
      </trkpt>
      <trkpt lat="47.46706" lon="6.74773">
        <ele>353</ele>
        <time>2015-06-28T10:09:43.000Z</time>
      </trkpt>
      <trkpt lat="47.46706" lon="6.7478">
        <ele>353</ele>
        <time>2015-06-28T10:09:45.000Z</time>
      </trkpt>
      <trkpt lat="47.46705" lon="6.74783">
        <ele>353</ele>
        <time>2015-06-28T10:09:46.000Z</time>
      </trkpt>
      <trkpt lat="47.46703" lon="6.74788">
        <ele>354</ele>
        <time>2015-06-28T10:09:48.000Z</time>
      </trkpt>
      <trkpt lat="47.46702" lon="6.74791">
        <ele>354</ele>
        <time>2015-06-28T10:09:49.000Z</time>
      </trkpt>
      <trkpt lat="47.467" lon="6.74796">
        <ele>354</ele>
        <time>2015-06-28T10:09:51.000Z</time>
      </trkpt>
      <trkpt lat="47.46699" lon="6.74799">
        <ele>355</ele>
        <time>2015-06-28T10:09:52.000Z</time>
      </trkpt>
      <trkpt lat="47.46695" lon="6.74803">
        <ele>355</ele>
        <time>2015-06-28T10:09:54.000Z</time>
      </trkpt>
      <trkpt lat="47.46693" lon="6.74804">
        <ele>355</ele>
        <time>2015-06-28T10:09:55.000Z</time>
      </trkpt>
      <trkpt lat="47.4669" lon="6.74806">
        <ele>356</ele>
        <time>2015-06-28T10:09:57.000Z</time>
      </trkpt>
      <trkpt lat="47.46688" lon="6.74806">
        <ele>356</ele>
        <time>2015-06-28T10:09:58.000Z</time>
      </trkpt>
      <trkpt lat="47.46685" lon="6.74806">
        <ele>356</ele>
        <time>2015-06-28T10:10:00.000Z</time>
      </trkpt>
      <trkpt lat="47.46683" lon="6.74806">
        <ele>356</ele>
        <time>2015-06-28T10:10:01.000Z</time>
      </trkpt>
      <trkpt lat="47.46679" lon="6.74806">
        <ele>357</ele>
        <time>2015-06-28T10:10:05.000Z</time>
      </trkpt>
      <trkpt lat="47.46678" lon="6.74806">
        <ele>357</ele>
        <time>2015-06-28T10:10:06.000Z</time>
      </trkpt>
      <trkpt lat="47.46674" lon="6.74806">
        <ele>357</ele>
        <time>2015-06-28T10:10:09.000Z</time>
      </trkpt>
      <trkpt lat="47.46672" lon="6.74805">
        <ele>357</ele>
        <time>2015-06-28T10:10:10.000Z</time>
      </trkpt>
      <trkpt lat="47.46669" lon="6.74804">
        <ele>357</ele>
        <time>2015-06-28T10:10:11.000Z</time>
      </trkpt>
      <trkpt lat="47.46666" lon="6.74804">
        <ele>363</ele>
        <time>2015-06-28T10:10:12.000Z</time>
      </trkpt>
      <trkpt lat="47.46664" lon="6.74804">
        <ele>363</ele>
        <time>2015-06-28T10:10:13.000Z</time>
      </trkpt>
      <trkpt lat="47.46661" lon="6.74803">
        <ele>363</ele>
        <time>2015-06-28T10:10:14.000Z</time>
      </trkpt>
      <trkpt lat="47.46657" lon="6.74803">
        <ele>363</ele>
        <time>2015-06-28T10:10:17.000Z</time>
      </trkpt>
      <trkpt lat="47.46656" lon="6.74804">
        <ele>363</ele>
        <time>2015-06-28T10:10:18.000Z</time>
      </trkpt>
      <trkpt lat="47.46653" lon="6.74806">
        <ele>364</ele>
        <time>2015-06-28T10:10:21.000Z</time>
      </trkpt>
      <trkpt lat="47.46652" lon="6.74807">
        <ele>364</ele>
        <time>2015-06-28T10:10:22.000Z</time>
      </trkpt>
      <trkpt lat="47.46648" lon="6.74809">
        <ele>364</ele>
        <time>2015-06-28T10:10:24.000Z</time>
      </trkpt>
      <trkpt lat="47.46646" lon="6.7481">
        <ele>364</ele>
        <time>2015-06-28T10:10:25.000Z</time>
      </trkpt>
      <trkpt lat="47.46642" lon="6.74813">
        <ele>364</ele>
        <time>2015-06-28T10:10:27.000Z</time>
      </trkpt>
      <trkpt lat="47.46641" lon="6.74816">
        <ele>364</ele>
        <time>2015-06-28T10:10:28.000Z</time>
      </trkpt>
      <trkpt lat="47.4664" lon="6.7482">
        <ele>365</ele>
        <time>2015-06-28T10:10:29.000Z</time>
      </trkpt>
      <trkpt lat="47.46639" lon="6.74823">
        <ele>365</ele>
        <time>2015-06-28T10:10:30.000Z</time>
      </trkpt>
      <trkpt lat="47.46639" lon="6.74829">
        <ele>365</ele>
        <time>2015-06-28T10:10:32.000Z</time>
      </trkpt>
      <trkpt lat="47.4664" lon="6.74832">
        <ele>365</ele>
        <time>2015-06-28T10:10:33.000Z</time>
      </trkpt>
      <trkpt lat="47.4664" lon="6.74835">
        <ele>368</ele>
        <time>2015-06-28T10:10:34.000Z</time>
      </trkpt>
      <trkpt lat="47.46641" lon="6.74839">
        <ele>368</ele>
        <time>2015-06-28T10:10:35.000Z</time>
      </trkpt>
      <trkpt lat="47.46643" lon="6.74842">
        <ele>368</ele>
        <time>2015-06-28T10:10:36.000Z</time>
      </trkpt>
      <trkpt lat="47.46644" lon="6.74846">
        <ele>368</ele>
        <time>2015-06-28T10:10:37.000Z</time>
      </trkpt>
      <trkpt lat="47.46645" lon="6.7485">
        <ele>368</ele>
        <time>2015-06-28T10:10:38.000Z</time>
      </trkpt>
      <trkpt lat="47.46646" lon="6.74854">
        <ele>368</ele>
        <time>2015-06-28T10:10:39.000Z</time>
      </trkpt>
      <trkpt lat="47.46647" lon="6.74857">
        <ele>368</ele>
        <time>2015-06-28T10:10:40.000Z</time>
      </trkpt>
      <trkpt lat="47.46648" lon="6.7486">
        <ele>368</ele>
        <time>2015-06-28T10:10:41.000Z</time>
      </trkpt>
      <trkpt lat="47.4665" lon="6.74863">
        <ele>368</ele>
        <time>2015-06-28T10:10:42.000Z</time>
      </trkpt>
      <trkpt lat="47.46652" lon="6.74867">
        <ele>368</ele>
        <time>2015-06-28T10:10:43.000Z</time>
      </trkpt>
      <trkpt lat="47.46654" lon="6.74871">
        <ele>368</ele>
        <time>2015-06-28T10:10:44.000Z</time>
      </trkpt>
      <trkpt lat="47.46655" lon="6.74875">
        <ele>368</ele>
        <time>2015-06-28T10:10:45.000Z</time>
      </trkpt>
      <trkpt lat="47.46657" lon="6.74879">
        <ele>368</ele>
        <time>2015-06-28T10:10:46.000Z</time>
      </trkpt>
      <trkpt lat="47.46658" lon="6.74883">
        <ele>368</ele>
        <time>2015-06-28T10:10:47.000Z</time>
      </trkpt>
      <trkpt lat="47.4666" lon="6.74886">
        <ele>368</ele>
        <time>2015-06-28T10:10:48.000Z</time>
      </trkpt>
      <trkpt lat="47.46661" lon="6.7489">
        <ele>368</ele>
        <time>2015-06-28T10:10:49.000Z</time>
      </trkpt>
      <trkpt lat="47.46662" lon="6.74893">
        <ele>368</ele>
        <time>2015-06-28T10:10:50.000Z</time>
      </trkpt>
      <trkpt lat="47.46663" lon="6.74896">
        <ele>368</ele>
        <time>2015-06-28T10:10:51.000Z</time>
      </trkpt>
      <trkpt lat="47.46664" lon="6.74899">
        <ele>367</ele>
        <time>2015-06-28T10:10:52.000Z</time>
      </trkpt>
      <trkpt lat="47.46665" lon="6.74902">
        <ele>367</ele>
        <time>2015-06-28T10:10:53.000Z</time>
      </trkpt>
      <trkpt lat="47.46667" lon="6.74907">
        <ele>363</ele>
        <time>2015-06-28T10:10:55.000Z</time>
      </trkpt>
      <trkpt lat="47.46669" lon="6.7491">
        <ele>363</ele>
        <time>2015-06-28T10:10:56.000Z</time>
      </trkpt>
      <trkpt lat="47.4667" lon="6.74913">
        <ele>364</ele>
        <time>2015-06-28T10:10:57.000Z</time>
      </trkpt>
      <trkpt lat="47.4667" lon="6.74917">
        <ele>364</ele>
        <time>2015-06-28T10:10:58.000Z</time>
      </trkpt>
      <trkpt lat="47.46671" lon="6.7492">
        <ele>364</ele>
        <time>2015-06-28T10:10:59.000Z</time>
      </trkpt>
      <trkpt lat="47.46671" lon="6.74924">
        <ele>364</ele>
        <time>2015-06-28T10:11:00.000Z</time>
      </trkpt>
      <trkpt lat="47.46672" lon="6.74927">
        <ele>363</ele>
        <time>2015-06-28T10:11:01.000Z</time>
      </trkpt>
      <trkpt lat="47.46673" lon="6.74931">
        <ele>363</ele>
        <time>2015-06-28T10:11:02.000Z</time>
      </trkpt>
      <trkpt lat="47.46674" lon="6.74934">
        <ele>363</ele>
        <time>2015-06-28T10:11:03.000Z</time>
      </trkpt>
      <trkpt lat="47.46674" lon="6.74938">
        <ele>363</ele>
        <time>2015-06-28T10:11:04.000Z</time>
      </trkpt>
      <trkpt lat="47.46675" lon="6.74944">
        <ele>363</ele>
        <time>2015-06-28T10:11:06.000Z</time>
      </trkpt>
      <trkpt lat="47.46676" lon="6.74947">
        <ele>363</ele>
        <time>2015-06-28T10:11:07.000Z</time>
      </trkpt>
      <trkpt lat="47.46677" lon="6.74953">
        <ele>363</ele>
        <time>2015-06-28T10:11:09.000Z</time>
      </trkpt>
      <trkpt lat="47.46678" lon="6.74957">
        <ele>363</ele>
        <time>2015-06-28T10:11:10.000Z</time>
      </trkpt>
      <trkpt lat="47.46678" lon="6.74961">
        <ele>363</ele>
        <time>2015-06-28T10:11:11.000Z</time>
      </trkpt>
      <trkpt lat="47.46678" lon="6.74965">
        <ele>363</ele>
        <time>2015-06-28T10:11:12.000Z</time>
      </trkpt>
      <trkpt lat="47.46678" lon="6.74969">
        <ele>363</ele>
        <time>2015-06-28T10:11:13.000Z</time>
      </trkpt>
      <trkpt lat="47.46677" lon="6.74973">
        <ele>364</ele>
        <time>2015-06-28T10:11:14.000Z</time>
      </trkpt>
      <trkpt lat="47.46678" lon="6.74979">
        <ele>364</ele>
        <time>2015-06-28T10:11:16.000Z</time>
      </trkpt>
      <trkpt lat="47.46679" lon="6.74982">
        <ele>365</ele>
        <time>2015-06-28T10:11:17.000Z</time>
      </trkpt>
      <trkpt lat="47.4668" lon="6.74986">
        <ele>365</ele>
        <time>2015-06-28T10:11:18.000Z</time>
      </trkpt>
      <trkpt lat="47.46681" lon="6.7499">
        <ele>365</ele>
        <time>2015-06-28T10:11:19.000Z</time>
      </trkpt>
      <trkpt lat="47.46682" lon="6.74995">
        <ele>366</ele>
        <time>2015-06-28T10:11:20.000Z</time>
      </trkpt>
      <trkpt lat="47.46684" lon="6.75001">
        <ele>367</ele>
        <time>2015-06-28T10:11:21.000Z</time>
      </trkpt>
      <trkpt lat="47.46685" lon="6.75006">
        <ele>367</ele>
        <time>2015-06-28T10:11:22.000Z</time>
      </trkpt>
      <trkpt lat="47.46686" lon="6.75011">
        <ele>367</ele>
        <time>2015-06-28T10:11:23.000Z</time>
      </trkpt>
      <trkpt lat="47.46686" lon="6.75015">
        <ele>366</ele>
        <time>2015-06-28T10:11:24.000Z</time>
      </trkpt>
      <trkpt lat="47.46686" lon="6.75017">
        <ele>366</ele>
        <time>2015-06-28T10:11:25.000Z</time>
      </trkpt>
      <trkpt lat="47.46686" lon="6.75023">
        <ele>366</ele>
        <time>2015-06-28T10:11:29.000Z</time>
      </trkpt>
      <trkpt lat="47.46686" lon="6.75027">
        <ele>366</ele>
        <time>2015-06-28T10:11:30.000Z</time>
      </trkpt>
      <trkpt lat="47.46687" lon="6.75032">
        <ele>366</ele>
        <time>2015-06-28T10:11:32.000Z</time>
      </trkpt>
      <trkpt lat="47.46687" lon="6.75033">
        <ele>366</ele>
        <time>2015-06-28T10:11:33.000Z</time>
      </trkpt>
      <trkpt lat="47.46688" lon="6.75038">
        <ele>366</ele>
        <time>2015-06-28T10:11:37.000Z</time>
      </trkpt>
      <trkpt lat="47.46689" lon="6.75041">
        <ele>366</ele>
        <time>2015-06-28T10:11:38.000Z</time>
      </trkpt>
      <trkpt lat="47.4669" lon="6.75044">
        <ele>366</ele>
        <time>2015-06-28T10:11:39.000Z</time>
      </trkpt>
      <trkpt lat="47.46692" lon="6.75048">
        <ele>366</ele>
        <time>2015-06-28T10:11:40.000Z</time>
      </trkpt>
      <trkpt lat="47.46693" lon="6.75051">
        <ele>366</ele>
        <time>2015-06-28T10:11:41.000Z</time>
      </trkpt>
      <trkpt lat="47.46694" lon="6.75054">
        <ele>366</ele>
        <time>2015-06-28T10:11:42.000Z</time>
      </trkpt>
      <trkpt lat="47.46695" lon="6.75058">
        <ele>366</ele>
        <time>2015-06-28T10:11:43.000Z</time>
      </trkpt>
      <trkpt lat="47.46696" lon="6.75062">
        <ele>366</ele>
        <time>2015-06-28T10:11:44.000Z</time>
      </trkpt>
      <trkpt lat="47.46696" lon="6.75067">
        <ele>367</ele>
        <time>2015-06-28T10:11:45.000Z</time>
      </trkpt>
      <trkpt lat="47.46696" lon="6.75073">
        <ele>367</ele>
        <time>2015-06-28T10:11:46.000Z</time>
      </trkpt>
      <trkpt lat="47.46696" lon="6.75078">
        <ele>367</ele>
        <time>2015-06-28T10:11:47.000Z</time>
      </trkpt>
      <trkpt lat="47.46697" lon="6.75083">
        <ele>367</ele>
        <time>2015-06-28T10:11:48.000Z</time>
      </trkpt>
      <trkpt lat="47.46698" lon="6.75087">
        <ele>369</ele>
        <time>2015-06-28T10:11:49.000Z</time>
      </trkpt>
      <trkpt lat="47.46699" lon="6.75091">
        <ele>368</ele>
        <time>2015-06-28T10:11:50.000Z</time>
      </trkpt>
      <trkpt lat="47.467" lon="6.75095">
        <ele>368</ele>
        <time>2015-06-28T10:11:51.000Z</time>
      </trkpt>
      <trkpt lat="47.46701" lon="6.75098">
        <ele>368</ele>
        <time>2015-06-28T10:11:52.000Z</time>
      </trkpt>
      <trkpt lat="47.46701" lon="6.75104">
        <ele>368</ele>
        <time>2015-06-28T10:11:54.000Z</time>
      </trkpt>
      <trkpt lat="47.467" lon="6.75106">
        <ele>368</ele>
        <time>2015-06-28T10:11:55.000Z</time>
      </trkpt>
      <trkpt lat="47.46697" lon="6.75111">
        <ele>368</ele>
        <time>2015-06-28T10:11:57.000Z</time>
      </trkpt>
      <trkpt lat="47.46696" lon="6.75114">
        <ele>368</ele>
        <time>2015-06-28T10:11:58.000Z</time>
      </trkpt>
      <trkpt lat="47.46696" lon="6.7512">
        <ele>368</ele>
        <time>2015-06-28T10:12:00.000Z</time>
      </trkpt>
      <trkpt lat="47.46697" lon="6.75124">
        <ele>368</ele>
        <time>2015-06-28T10:12:01.000Z</time>
      </trkpt>
      <trkpt lat="47.46697" lon="6.75127">
        <ele>368</ele>
        <time>2015-06-28T10:12:02.000Z</time>
      </trkpt>
      <trkpt lat="47.46698" lon="6.75131">
        <ele>368</ele>
        <time>2015-06-28T10:12:03.000Z</time>
      </trkpt>
      <trkpt lat="47.46699" lon="6.75137">
        <ele>368</ele>
        <time>2015-06-28T10:12:05.000Z</time>
      </trkpt>
      <trkpt lat="47.46699" lon="6.7514">
        <ele>368</ele>
        <time>2015-06-28T10:12:06.000Z</time>
      </trkpt>
      <trkpt lat="47.46698" lon="6.75144">
        <ele>368</ele>
        <time>2015-06-28T10:12:07.000Z</time>
      </trkpt>
      <trkpt lat="47.46697" lon="6.75148">
        <ele>369</ele>
        <time>2015-06-28T10:12:08.000Z</time>
      </trkpt>
      <trkpt lat="47.46697" lon="6.75153">
        <ele>369</ele>
        <time>2015-06-28T10:12:09.000Z</time>
      </trkpt>
      <trkpt lat="47.46697" lon="6.75158">
        <ele>369</ele>
        <time>2015-06-28T10:12:10.000Z</time>
      </trkpt>
      <trkpt lat="47.46697" lon="6.75163">
        <ele>369</ele>
        <time>2015-06-28T10:12:11.000Z</time>
      </trkpt>
      <trkpt lat="47.46698" lon="6.75168">
        <ele>369</ele>
        <time>2015-06-28T10:12:12.000Z</time>
      </trkpt>
      <trkpt lat="47.46699" lon="6.75174">
        <ele>368</ele>
        <time>2015-06-28T10:12:13.000Z</time>
      </trkpt>
      <trkpt lat="47.467" lon="6.7518">
        <ele>368</ele>
        <time>2015-06-28T10:12:14.000Z</time>
      </trkpt>
      <trkpt lat="47.46701" lon="6.75186">
        <ele>368</ele>
        <time>2015-06-28T10:12:15.000Z</time>
      </trkpt>
      <trkpt lat="47.46701" lon="6.75192">
        <ele>367</ele>
        <time>2015-06-28T10:12:16.000Z</time>
      </trkpt>
      <trkpt lat="47.46701" lon="6.75197">
        <ele>367</ele>
        <time>2015-06-28T10:12:17.000Z</time>
      </trkpt>
      <trkpt lat="47.46701" lon="6.75201">
        <ele>367</ele>
        <time>2015-06-28T10:12:18.000Z</time>
      </trkpt>
      <trkpt lat="47.46699" lon="6.75206">
        <ele>367</ele>
        <time>2015-06-28T10:12:20.000Z</time>
      </trkpt>
      <trkpt lat="47.46699" lon="6.75209">
        <ele>367</ele>
        <time>2015-06-28T10:12:21.000Z</time>
      </trkpt>
      <trkpt lat="47.46697" lon="6.75211">
        <ele>368</ele>
        <time>2015-06-28T10:12:22.000Z</time>
      </trkpt>
      <trkpt lat="47.46695" lon="6.75214">
        <ele>368</ele>
        <time>2015-06-28T10:12:23.000Z</time>
      </trkpt>
      <trkpt lat="47.46692" lon="6.75217">
        <ele>368</ele>
        <time>2015-06-28T10:12:24.000Z</time>
      </trkpt>
      <trkpt lat="47.4669" lon="6.7522">
        <ele>369</ele>
        <time>2015-06-28T10:12:25.000Z</time>
      </trkpt>
      <trkpt lat="47.46689" lon="6.75223">
        <ele>369</ele>
        <time>2015-06-28T10:12:26.000Z</time>
      </trkpt>
      <trkpt lat="47.46688" lon="6.75226">
        <ele>369</ele>
        <time>2015-06-28T10:12:27.000Z</time>
      </trkpt>
      <trkpt lat="47.46687" lon="6.7523">
        <ele>370</ele>
        <time>2015-06-28T10:12:28.000Z</time>
      </trkpt>
      <trkpt lat="47.46687" lon="6.75234">
        <ele>370</ele>
        <time>2015-06-28T10:12:29.000Z</time>
      </trkpt>
      <trkpt lat="47.46686" lon="6.75239">
        <ele>370</ele>
        <time>2015-06-28T10:12:30.000Z</time>
      </trkpt>
      <trkpt lat="47.46685" lon="6.75244">
        <ele>371</ele>
        <time>2015-06-28T10:12:31.000Z</time>
      </trkpt>
      <trkpt lat="47.46684" lon="6.75249">
        <ele>372</ele>
        <time>2015-06-28T10:12:32.000Z</time>
      </trkpt>
      <trkpt lat="47.46682" lon="6.75255">
        <ele>372</ele>
        <time>2015-06-28T10:12:33.000Z</time>
      </trkpt>
      <trkpt lat="47.46684" lon="6.75278">
        <ele>370</ele>
        <time>2015-06-28T10:12:34.000Z</time>
      </trkpt>
      <trkpt lat="47.46686" lon="6.75284">
        <ele>369</ele>
        <time>2015-06-28T10:12:35.000Z</time>
      </trkpt>
      <trkpt lat="47.46688" lon="6.75289">
        <ele>369</ele>
        <time>2015-06-28T10:12:36.000Z</time>
      </trkpt>
      <trkpt lat="47.46689" lon="6.75294">
        <ele>369</ele>
        <time>2015-06-28T10:12:37.000Z</time>
      </trkpt>
      <trkpt lat="47.46691" lon="6.75302">
        <ele>369</ele>
        <time>2015-06-28T10:12:38.000Z</time>
      </trkpt>
      <trkpt lat="47.46693" lon="6.75311">
        <ele>369</ele>
        <time>2015-06-28T10:12:39.000Z</time>
      </trkpt>
      <trkpt lat="47.46693" lon="6.75318">
        <ele>370</ele>
        <time>2015-06-28T10:12:40.000Z</time>
      </trkpt>
      <trkpt lat="47.46693" lon="6.75324">
        <ele>370</ele>
        <time>2015-06-28T10:12:41.000Z</time>
      </trkpt>
      <trkpt lat="47.46696" lon="6.75338">
        <ele>369</ele>
        <time>2015-06-28T10:12:42.000Z</time>
      </trkpt>
      <trkpt lat="47.46697" lon="6.75347">
        <ele>368</ele>
        <time>2015-06-28T10:12:43.000Z</time>
      </trkpt>
      <trkpt lat="47.46698" lon="6.75356">
        <ele>367</ele>
        <time>2015-06-28T10:12:44.000Z</time>
      </trkpt>
      <trkpt lat="47.467" lon="6.75367">
        <ele>366</ele>
        <time>2015-06-28T10:12:45.000Z</time>
      </trkpt>
      <trkpt lat="47.46703" lon="6.75378">
        <ele>365</ele>
        <time>2015-06-28T10:12:46.000Z</time>
      </trkpt>
      <trkpt lat="47.46703" lon="6.75388">
        <ele>364</ele>
        <time>2015-06-28T10:12:47.000Z</time>
      </trkpt>
      <trkpt lat="47.46702" lon="6.754">
        <ele>365</ele>
        <time>2015-06-28T10:12:48.000Z</time>
      </trkpt>
      <trkpt lat="47.46699" lon="6.75402">
        <ele>365</ele>
        <time>2015-06-28T10:12:49.000Z</time>
      </trkpt>
      <trkpt lat="47.46698" lon="6.75406">
        <ele>366</ele>
        <time>2015-06-28T10:12:50.000Z</time>
      </trkpt>
      <trkpt lat="47.46698" lon="6.75409">
        <ele>366</ele>
        <time>2015-06-28T10:12:52.000Z</time>
      </trkpt>
      <trkpt lat="47.46697" lon="6.75417">
        <ele>362</ele>
        <time>2015-06-28T10:12:53.000Z</time>
      </trkpt>
      <trkpt lat="47.46697" lon="6.75423">
        <ele>362</ele>
        <time>2015-06-28T10:12:55.000Z</time>
      </trkpt>
      <trkpt lat="47.46695" lon="6.75426">
        <ele>362</ele>
        <time>2015-06-28T10:12:56.000Z</time>
      </trkpt>
      <trkpt lat="47.46694" lon="6.7543">
        <ele>362</ele>
        <time>2015-06-28T10:12:57.000Z</time>
      </trkpt>
      <trkpt lat="47.46693" lon="6.75434">
        <ele>362</ele>
        <time>2015-06-28T10:12:58.000Z</time>
      </trkpt>
      <trkpt lat="47.46692" lon="6.75437">
        <ele>362</ele>
        <time>2015-06-28T10:12:59.000Z</time>
      </trkpt>
      <trkpt lat="47.4669" lon="6.7544">
        <ele>362</ele>
        <time>2015-06-28T10:13:00.000Z</time>
      </trkpt>
      <trkpt lat="47.46689" lon="6.75444">
        <ele>362</ele>
        <time>2015-06-28T10:13:01.000Z</time>
      </trkpt>
      <trkpt lat="47.46688" lon="6.75448">
        <ele>361</ele>
        <time>2015-06-28T10:13:02.000Z</time>
      </trkpt>
      <trkpt lat="47.46686" lon="6.75452">
        <ele>361</ele>
        <time>2015-06-28T10:13:03.000Z</time>
      </trkpt>
      <trkpt lat="47.46685" lon="6.75457">
        <ele>361</ele>
        <time>2015-06-28T10:13:04.000Z</time>
      </trkpt>
      <trkpt lat="47.46682" lon="6.75462">
        <ele>361</ele>
        <time>2015-06-28T10:13:05.000Z</time>
      </trkpt>
      <trkpt lat="47.4668" lon="6.75467">
        <ele>361</ele>
        <time>2015-06-28T10:13:06.000Z</time>
      </trkpt>
      <trkpt lat="47.46678" lon="6.75471">
        <ele>361</ele>
        <time>2015-06-28T10:13:07.000Z</time>
      </trkpt>
      <trkpt lat="47.46676" lon="6.75476">
        <ele>361</ele>
        <time>2015-06-28T10:13:08.000Z</time>
      </trkpt>
      <trkpt lat="47.46674" lon="6.75481">
        <ele>361</ele>
        <time>2015-06-28T10:13:09.000Z</time>
      </trkpt>
      <trkpt lat="47.46674" lon="6.75485">
        <ele>361</ele>
        <time>2015-06-28T10:13:10.000Z</time>
      </trkpt>
      <trkpt lat="47.46673" lon="6.75489">
        <ele>362</ele>
        <time>2015-06-28T10:13:11.000Z</time>
      </trkpt>
      <trkpt lat="47.46673" lon="6.75493">
        <ele>362</ele>
        <time>2015-06-28T10:13:12.000Z</time>
      </trkpt>
      <trkpt lat="47.46672" lon="6.75497">
        <ele>363</ele>
        <time>2015-06-28T10:13:13.000Z</time>
      </trkpt>
      <trkpt lat="47.46671" lon="6.75501">
        <ele>362</ele>
        <time>2015-06-28T10:13:14.000Z</time>
      </trkpt>
      <trkpt lat="47.46669" lon="6.75507">
        <ele>361</ele>
        <time>2015-06-28T10:13:15.000Z</time>
      </trkpt>
      <trkpt lat="47.46668" lon="6.75513">
        <ele>359</ele>
        <time>2015-06-28T10:13:16.000Z</time>
      </trkpt>
      <trkpt lat="47.46666" lon="6.75519">
        <ele>368</ele>
        <time>2015-06-28T10:13:17.000Z</time>
      </trkpt>
      <trkpt lat="47.46665" lon="6.75524">
        <ele>369</ele>
        <time>2015-06-28T10:13:18.000Z</time>
      </trkpt>
      <trkpt lat="47.46664" lon="6.7553">
        <ele>369</ele>
        <time>2015-06-28T10:13:19.000Z</time>
      </trkpt>
      <trkpt lat="47.46664" lon="6.75537">
        <ele>369</ele>
        <time>2015-06-28T10:13:20.000Z</time>
      </trkpt>
      <trkpt lat="47.46664" lon="6.75543">
        <ele>368</ele>
        <time>2015-06-28T10:13:21.000Z</time>
      </trkpt>
      <trkpt lat="47.46663" lon="6.75549">
        <ele>368</ele>
        <time>2015-06-28T10:13:22.000Z</time>
      </trkpt>
      <trkpt lat="47.46661" lon="6.75555">
        <ele>367</ele>
        <time>2015-06-28T10:13:23.000Z</time>
      </trkpt>
      <trkpt lat="47.4666" lon="6.75561">
        <ele>366</ele>
        <time>2015-06-28T10:13:24.000Z</time>
      </trkpt>
      <trkpt lat="47.46657" lon="6.75568">
        <ele>365</ele>
        <time>2015-06-28T10:13:25.000Z</time>
      </trkpt>
      <trkpt lat="47.46654" lon="6.75576">
        <ele>364</ele>
        <time>2015-06-28T10:13:26.000Z</time>
      </trkpt>
      <trkpt lat="47.46652" lon="6.75584">
        <ele>362</ele>
        <time>2015-06-28T10:13:27.000Z</time>
      </trkpt>
      <trkpt lat="47.46649" lon="6.75592">
        <ele>364</ele>
        <time>2015-06-28T10:13:28.000Z</time>
      </trkpt>
      <trkpt lat="47.46647" lon="6.756">
        <ele>365</ele>
        <time>2015-06-28T10:13:29.000Z</time>
      </trkpt>
      <trkpt lat="47.46646" lon="6.75605">
        <ele>366</ele>
        <time>2015-06-28T10:13:29.998Z</time>
      </trkpt>
      <trkpt lat="47.46643" lon="6.75618">
        <ele>367</ele>
        <time>2015-06-28T10:13:31.000Z</time>
      </trkpt>
      <trkpt lat="47.46642" lon="6.75627">
        <ele>367</ele>
        <time>2015-06-28T10:13:32.000Z</time>
      </trkpt>
      <trkpt lat="47.46641" lon="6.75637">
        <ele>367</ele>
        <time>2015-06-28T10:13:33.000Z</time>
      </trkpt>
      <trkpt lat="47.46638" lon="6.75664">
        <ele>367</ele>
        <time>2015-06-28T10:13:34.000Z</time>
      </trkpt>
      <trkpt lat="47.46644" lon="6.75672">
        <ele>365</ele>
        <time>2015-06-28T10:13:35.000Z</time>
      </trkpt>
      <trkpt lat="47.46647" lon="6.75678">
        <ele>365</ele>
        <time>2015-06-28T10:13:36.000Z</time>
      </trkpt>
      <trkpt lat="47.46653" lon="6.75685">
        <ele>364</ele>
        <time>2015-06-28T10:13:37.000Z</time>
      </trkpt>
      <trkpt lat="47.46656" lon="6.75694">
        <ele>365</ele>
        <time>2015-06-28T10:13:38.000Z</time>
      </trkpt>
      <trkpt lat="47.46657" lon="6.75702">
        <ele>365</ele>
        <time>2015-06-28T10:13:39.000Z</time>
      </trkpt>
      <trkpt lat="47.46663" lon="6.75718">
        <ele>365</ele>
        <time>2015-06-28T10:13:40.000Z</time>
      </trkpt>
      <trkpt lat="47.4667" lon="6.75732">
        <ele>358</ele>
        <time>2015-06-28T10:13:41.000Z</time>
      </trkpt>
      <trkpt lat="47.46673" lon="6.75744">
        <ele>359</ele>
        <time>2015-06-28T10:13:42.000Z</time>
      </trkpt>
      <trkpt lat="47.46676" lon="6.75755">
        <ele>359</ele>
        <time>2015-06-28T10:13:43.000Z</time>
      </trkpt>
      <trkpt lat="47.46682" lon="6.75767">
        <ele>356</ele>
        <time>2015-06-28T10:13:44.000Z</time>
      </trkpt>
      <trkpt lat="47.46684" lon="6.75778">
        <ele>355</ele>
        <time>2015-06-28T10:13:45.000Z</time>
      </trkpt>
      <trkpt lat="47.4669" lon="6.75792">
        <ele>354</ele>
        <time>2015-06-28T10:13:46.000Z</time>
      </trkpt>
      <trkpt lat="47.4669" lon="6.75802">
        <ele>354</ele>
        <time>2015-06-28T10:13:47.000Z</time>
      </trkpt>
      <trkpt lat="47.46691" lon="6.75812">
        <ele>354</ele>
        <time>2015-06-28T10:13:48.000Z</time>
      </trkpt>
      <trkpt lat="47.46691" lon="6.7582">
        <ele>355</ele>
        <time>2015-06-28T10:13:49.000Z</time>
      </trkpt>
      <trkpt lat="47.46692" lon="6.75828">
        <ele>355</ele>
        <time>2015-06-28T10:13:50.000Z</time>
      </trkpt>
      <trkpt lat="47.46689" lon="6.75836">
        <ele>353</ele>
        <time>2015-06-28T10:13:51.000Z</time>
      </trkpt>
      <trkpt lat="47.46688" lon="6.75842">
        <ele>353</ele>
        <time>2015-06-28T10:13:52.000Z</time>
      </trkpt>
      <trkpt lat="47.46687" lon="6.75848">
        <ele>353</ele>
        <time>2015-06-28T10:13:52.998Z</time>
      </trkpt>
      <trkpt lat="47.46686" lon="6.75851">
        <ele>353</ele>
        <time>2015-06-28T10:13:54.000Z</time>
      </trkpt>
      <trkpt lat="47.46687" lon="6.75862">
        <ele>352</ele>
        <time>2015-06-28T10:13:55.000Z</time>
      </trkpt>
      <trkpt lat="47.46688" lon="6.75875">
        <ele>351</ele>
        <time>2015-06-28T10:13:56.000Z</time>
      </trkpt>
      <trkpt lat="47.4669" lon="6.75889">
        <ele>350</ele>
        <time>2015-06-28T10:13:57.000Z</time>
      </trkpt>
      <trkpt lat="47.46691" lon="6.75899">
        <ele>350</ele>
        <time>2015-06-28T10:13:58.000Z</time>
      </trkpt>
      <trkpt lat="47.46691" lon="6.75911">
        <ele>350</ele>
        <time>2015-06-28T10:13:59.000Z</time>
      </trkpt>
      <trkpt lat="47.46693" lon="6.75921">
        <ele>347</ele>
        <time>2015-06-28T10:14:00.000Z</time>
      </trkpt>
      <trkpt lat="47.46695" lon="6.75929">
        <ele>347</ele>
        <time>2015-06-28T10:14:01.000Z</time>
      </trkpt>
      <trkpt lat="47.46695" lon="6.75933">
        <ele>347</ele>
        <time>2015-06-28T10:14:02.000Z</time>
      </trkpt>
      <trkpt lat="47.46695" lon="6.75936">
        <ele>346</ele>
        <time>2015-06-28T10:14:03.000Z</time>
      </trkpt>
      <trkpt lat="47.46694" lon="6.7594">
        <ele>346</ele>
        <time>2015-06-28T10:14:04.000Z</time>
      </trkpt>
      <trkpt lat="47.46694" lon="6.75944">
        <ele>346</ele>
        <time>2015-06-28T10:14:05.000Z</time>
      </trkpt>
      <trkpt lat="47.46692" lon="6.75949">
        <ele>346</ele>
        <time>2015-06-28T10:14:06.000Z</time>
      </trkpt>
      <trkpt lat="47.46686" lon="6.75958">
        <ele>346</ele>
        <time>2015-06-28T10:14:07.000Z</time>
      </trkpt>
      <trkpt lat="47.4668" lon="6.75967">
        <ele>346</ele>
        <time>2015-06-28T10:14:08.000Z</time>
      </trkpt>
      <trkpt lat="47.46681" lon="6.75974">
        <ele>346</ele>
        <time>2015-06-28T10:14:09.000Z</time>
      </trkpt>
      <trkpt lat="47.46683" lon="6.7598">
        <ele>346</ele>
        <time>2015-06-28T10:14:10.000Z</time>
      </trkpt>
      <trkpt lat="47.46686" lon="6.75985">
        <ele>346</ele>
        <time>2015-06-28T10:14:11.000Z</time>
      </trkpt>
      <trkpt lat="47.4669" lon="6.75988">
        <ele>346</ele>
        <time>2015-06-28T10:14:12.000Z</time>
      </trkpt>
      <trkpt lat="47.46695" lon="6.75991">
        <ele>345</ele>
        <time>2015-06-28T10:14:13.000Z</time>
      </trkpt>
      <trkpt lat="47.46719" lon="6.75995">
        <ele>342</ele>
        <time>2015-06-28T10:14:14.000Z</time>
      </trkpt>
      <trkpt lat="47.4673" lon="6.75996">
        <ele>340</ele>
        <time>2015-06-28T10:14:15.000Z</time>
      </trkpt>
      <trkpt lat="47.46737" lon="6.75999">
        <ele>339</ele>
        <time>2015-06-28T10:14:16.000Z</time>
      </trkpt>
      <trkpt lat="47.46743" lon="6.76003">
        <ele>336</ele>
        <time>2015-06-28T10:14:17.000Z</time>
      </trkpt>
      <trkpt lat="47.46749" lon="6.76009">
        <ele>336</ele>
        <time>2015-06-28T10:14:18.000Z</time>
      </trkpt>
      <trkpt lat="47.46755" lon="6.76018">
        <ele>333</ele>
        <time>2015-06-28T10:14:19.000Z</time>
      </trkpt>
      <trkpt lat="47.46765" lon="6.76027">
        <ele>332</ele>
        <time>2015-06-28T10:14:20.000Z</time>
      </trkpt>
      <trkpt lat="47.46773" lon="6.76031">
        <ele>332</ele>
        <time>2015-06-28T10:14:21.000Z</time>
      </trkpt>
      <trkpt lat="47.46779" lon="6.76032">
        <ele>331</ele>
        <time>2015-06-28T10:14:22.000Z</time>
      </trkpt>
      <trkpt lat="47.46785" lon="6.76031">
        <ele>331</ele>
        <time>2015-06-28T10:14:23.000Z</time>
      </trkpt>
      <trkpt lat="47.4679" lon="6.76027">
        <ele>331</ele>
        <time>2015-06-28T10:14:24.000Z</time>
      </trkpt>
      <trkpt lat="47.46795" lon="6.76024">
        <ele>331</ele>
        <time>2015-06-28T10:14:25.000Z</time>
      </trkpt>
      <trkpt lat="47.46797" lon="6.76023">
        <ele>331</ele>
        <time>2015-06-28T10:14:26.000Z</time>
      </trkpt>
      <trkpt lat="47.46801" lon="6.76021">
        <ele>331</ele>
        <time>2015-06-28T10:14:27.000Z</time>
      </trkpt>
      <trkpt lat="47.46805" lon="6.7602">
        <ele>331</ele>
        <time>2015-06-28T10:14:28.000Z</time>
      </trkpt>
      <trkpt lat="47.4681" lon="6.76019">
        <ele>331</ele>
        <time>2015-06-28T10:14:29.000Z</time>
      </trkpt>
      <trkpt lat="47.46813" lon="6.76018">
        <ele>332</ele>
        <time>2015-06-28T10:14:30.000Z</time>
      </trkpt>
      <trkpt lat="47.46818" lon="6.76017">
        <ele>332</ele>
        <time>2015-06-28T10:14:31.000Z</time>
      </trkpt>
      <trkpt lat="47.46822" lon="6.76017">
        <ele>332</ele>
        <time>2015-06-28T10:14:32.000Z</time>
      </trkpt>
      <trkpt lat="47.46825" lon="6.76015">
        <ele>332</ele>
        <time>2015-06-28T10:14:33.000Z</time>
      </trkpt>
      <trkpt lat="47.46829" lon="6.76013">
        <ele>332</ele>
        <time>2015-06-28T10:14:34.000Z</time>
      </trkpt>
      <trkpt lat="47.46832" lon="6.76012">
        <ele>332</ele>
        <time>2015-06-28T10:14:35.000Z</time>
      </trkpt>
      <trkpt lat="47.46835" lon="6.76011">
        <ele>332</ele>
        <time>2015-06-28T10:14:36.000Z</time>
      </trkpt>
      <trkpt lat="47.46837" lon="6.76009">
        <ele>332</ele>
        <time>2015-06-28T10:14:37.000Z</time>
      </trkpt>
      <trkpt lat="47.4684" lon="6.76008">
        <ele>332</ele>
        <time>2015-06-28T10:14:38.000Z</time>
      </trkpt>
      <trkpt lat="47.46844" lon="6.76006">
        <ele>332</ele>
        <time>2015-06-28T10:14:39.000Z</time>
      </trkpt>
      <trkpt lat="47.46847" lon="6.76005">
        <ele>332</ele>
        <time>2015-06-28T10:14:40.000Z</time>
      </trkpt>
      <trkpt lat="47.4685" lon="6.76004">
        <ele>332</ele>
        <time>2015-06-28T10:14:41.000Z</time>
      </trkpt>
      <trkpt lat="47.46853" lon="6.76004">
        <ele>332</ele>
        <time>2015-06-28T10:14:42.000Z</time>
      </trkpt>
      <trkpt lat="47.46857" lon="6.76004">
        <ele>332</ele>
        <time>2015-06-28T10:14:43.000Z</time>
      </trkpt>
      <trkpt lat="47.4686" lon="6.76005">
        <ele>332</ele>
        <time>2015-06-28T10:14:44.000Z</time>
      </trkpt>
      <trkpt lat="47.46863" lon="6.76006">
        <ele>332</ele>
        <time>2015-06-28T10:14:45.000Z</time>
      </trkpt>
      <trkpt lat="47.46866" lon="6.76007">
        <ele>332</ele>
        <time>2015-06-28T10:14:46.000Z</time>
      </trkpt>
      <trkpt lat="47.46869" lon="6.76008">
        <ele>332</ele>
        <time>2015-06-28T10:14:47.000Z</time>
      </trkpt>
      <trkpt lat="47.46872" lon="6.7601">
        <ele>332</ele>
        <time>2015-06-28T10:14:48.000Z</time>
      </trkpt>
      <trkpt lat="47.46874" lon="6.76012">
        <ele>332</ele>
        <time>2015-06-28T10:14:49.000Z</time>
      </trkpt>
      <trkpt lat="47.46877" lon="6.76013">
        <ele>332</ele>
        <time>2015-06-28T10:14:50.000Z</time>
      </trkpt>
      <trkpt lat="47.4688" lon="6.76015">
        <ele>332</ele>
        <time>2015-06-28T10:14:51.000Z</time>
      </trkpt>
      <trkpt lat="47.46883" lon="6.76016">
        <ele>332</ele>
        <time>2015-06-28T10:14:52.000Z</time>
      </trkpt>
      <trkpt lat="47.46886" lon="6.76018">
        <ele>332</ele>
        <time>2015-06-28T10:14:53.000Z</time>
      </trkpt>
      <trkpt lat="47.46889" lon="6.7602">
        <ele>332</ele>
        <time>2015-06-28T10:14:54.000Z</time>
      </trkpt>
      <trkpt lat="47.46892" lon="6.76022">
        <ele>332</ele>
        <time>2015-06-28T10:14:55.000Z</time>
      </trkpt>
      <trkpt lat="47.46895" lon="6.76023">
        <ele>332</ele>
        <time>2015-06-28T10:14:56.000Z</time>
      </trkpt>
      <trkpt lat="47.46898" lon="6.76025">
        <ele>332</ele>
        <time>2015-06-28T10:14:57.000Z</time>
      </trkpt>
      <trkpt lat="47.46901" lon="6.76027">
        <ele>332</ele>
        <time>2015-06-28T10:14:58.000Z</time>
      </trkpt>
      <trkpt lat="47.46904" lon="6.76028">
        <ele>332</ele>
        <time>2015-06-28T10:14:59.000Z</time>
      </trkpt>
      <trkpt lat="47.46907" lon="6.7603">
        <ele>332</ele>
        <time>2015-06-28T10:15:00.000Z</time>
      </trkpt>
      <trkpt lat="47.4691" lon="6.76032">
        <ele>332</ele>
        <time>2015-06-28T10:15:01.000Z</time>
      </trkpt>
      <trkpt lat="47.46913" lon="6.76034">
        <ele>332</ele>
        <time>2015-06-28T10:15:01.998Z</time>
      </trkpt>
      <trkpt lat="47.46916" lon="6.76037">
        <ele>332</ele>
        <time>2015-06-28T10:15:03.000Z</time>
      </trkpt>
      <trkpt lat="47.46919" lon="6.7604">
        <ele>334</ele>
        <time>2015-06-28T10:15:04.000Z</time>
      </trkpt>
      <trkpt lat="47.46922" lon="6.76043">
        <ele>334</ele>
        <time>2015-06-28T10:15:05.000Z</time>
      </trkpt>
      <trkpt lat="47.46925" lon="6.76046">
        <ele>333</ele>
        <time>2015-06-28T10:15:06.000Z</time>
      </trkpt>
      <trkpt lat="47.46928" lon="6.76049">
        <ele>333</ele>
        <time>2015-06-28T10:15:07.000Z</time>
      </trkpt>
      <trkpt lat="47.46932" lon="6.76051">
        <ele>333</ele>
        <time>2015-06-28T10:15:08.000Z</time>
      </trkpt>
      <trkpt lat="47.46936" lon="6.76053">
        <ele>333</ele>
        <time>2015-06-28T10:15:09.000Z</time>
      </trkpt>
      <trkpt lat="47.4694" lon="6.76054">
        <ele>333</ele>
        <time>2015-06-28T10:15:10.000Z</time>
      </trkpt>
      <trkpt lat="47.46944" lon="6.76055">
        <ele>333</ele>
        <time>2015-06-28T10:15:11.000Z</time>
      </trkpt>
      <trkpt lat="47.46947" lon="6.76056">
        <ele>334</ele>
        <time>2015-06-28T10:15:12.000Z</time>
      </trkpt>
      <trkpt lat="47.4695" lon="6.76058">
        <ele>334</ele>
        <time>2015-06-28T10:15:13.000Z</time>
      </trkpt>
      <trkpt lat="47.46953" lon="6.76059">
        <ele>334</ele>
        <time>2015-06-28T10:15:14.000Z</time>
      </trkpt>
      <trkpt lat="47.46956" lon="6.76061">
        <ele>334</ele>
        <time>2015-06-28T10:15:15.000Z</time>
      </trkpt>
      <trkpt lat="47.46958" lon="6.76063">
        <ele>334</ele>
        <time>2015-06-28T10:15:16.000Z</time>
      </trkpt>
      <trkpt lat="47.46961" lon="6.76065">
        <ele>334</ele>
        <time>2015-06-28T10:15:17.000Z</time>
      </trkpt>
      <trkpt lat="47.46964" lon="6.76067">
        <ele>334</ele>
        <time>2015-06-28T10:15:18.000Z</time>
      </trkpt>
      <trkpt lat="47.46967" lon="6.76069">
        <ele>334</ele>
        <time>2015-06-28T10:15:19.000Z</time>
      </trkpt>
      <trkpt lat="47.4697" lon="6.76071">
        <ele>334</ele>
        <time>2015-06-28T10:15:20.000Z</time>
      </trkpt>
      <trkpt lat="47.46973" lon="6.76073">
        <ele>334</ele>
        <time>2015-06-28T10:15:21.000Z</time>
      </trkpt>
      <trkpt lat="47.46976" lon="6.76075">
        <ele>334</ele>
        <time>2015-06-28T10:15:22.000Z</time>
      </trkpt>
      <trkpt lat="47.46979" lon="6.76077">
        <ele>334</ele>
        <time>2015-06-28T10:15:23.000Z</time>
      </trkpt>
      <trkpt lat="47.46982" lon="6.76078">
        <ele>334</ele>
        <time>2015-06-28T10:15:24.000Z</time>
      </trkpt>
      <trkpt lat="47.46985" lon="6.76079">
        <ele>334</ele>
        <time>2015-06-28T10:15:25.000Z</time>
      </trkpt>
      <trkpt lat="47.46988" lon="6.76081">
        <ele>334</ele>
        <time>2015-06-28T10:15:26.000Z</time>
      </trkpt>
      <trkpt lat="47.46991" lon="6.76082">
        <ele>334</ele>
        <time>2015-06-28T10:15:27.000Z</time>
      </trkpt>
      <trkpt lat="47.46994" lon="6.76084">
        <ele>333</ele>
        <time>2015-06-28T10:15:28.000Z</time>
      </trkpt>
      <trkpt lat="47.46997" lon="6.76087">
        <ele>333</ele>
        <time>2015-06-28T10:15:30.000Z</time>
      </trkpt>
      <trkpt lat="47.46999" lon="6.76089">
        <ele>333</ele>
        <time>2015-06-28T10:15:31.000Z</time>
      </trkpt>
      <trkpt lat="47.47003" lon="6.76091">
        <ele>333</ele>
        <time>2015-06-28T10:15:32.000Z</time>
      </trkpt>
      <trkpt lat="47.47006" lon="6.76093">
        <ele>333</ele>
        <time>2015-06-28T10:15:33.000Z</time>
      </trkpt>
      <trkpt lat="47.4701" lon="6.76094">
        <ele>332</ele>
        <time>2015-06-28T10:15:34.000Z</time>
      </trkpt>
      <trkpt lat="47.47013" lon="6.76096">
        <ele>332</ele>
        <time>2015-06-28T10:15:35.000Z</time>
      </trkpt>
      <trkpt lat="47.47016" lon="6.76097">
        <ele>332</ele>
        <time>2015-06-28T10:15:36.000Z</time>
      </trkpt>
      <trkpt lat="47.47019" lon="6.76098">
        <ele>332</ele>
        <time>2015-06-28T10:15:37.000Z</time>
      </trkpt>
      <trkpt lat="47.47022" lon="6.76099">
        <ele>332</ele>
        <time>2015-06-28T10:15:38.000Z</time>
      </trkpt>
      <trkpt lat="47.47026" lon="6.76102">
        <ele>332</ele>
        <time>2015-06-28T10:15:39.000Z</time>
      </trkpt>
      <trkpt lat="47.47029" lon="6.76104">
        <ele>331</ele>
        <time>2015-06-28T10:15:40.000Z</time>
      </trkpt>
      <trkpt lat="47.47033" lon="6.76106">
        <ele>331</ele>
        <time>2015-06-28T10:15:41.000Z</time>
      </trkpt>
      <trkpt lat="47.47037" lon="6.76108">
        <ele>331</ele>
        <time>2015-06-28T10:15:42.000Z</time>
      </trkpt>
      <trkpt lat="47.47041" lon="6.76111">
        <ele>331</ele>
        <time>2015-06-28T10:15:43.000Z</time>
      </trkpt>
      <trkpt lat="47.47045" lon="6.76113">
        <ele>331</ele>
        <time>2015-06-28T10:15:44.000Z</time>
      </trkpt>
      <trkpt lat="47.47048" lon="6.76115">
        <ele>331</ele>
        <time>2015-06-28T10:15:45.000Z</time>
      </trkpt>
      <trkpt lat="47.47052" lon="6.76117">
        <ele>331</ele>
        <time>2015-06-28T10:15:46.000Z</time>
      </trkpt>
      <trkpt lat="47.47056" lon="6.76119">
        <ele>331</ele>
        <time>2015-06-28T10:15:47.000Z</time>
      </trkpt>
      <trkpt lat="47.4706" lon="6.76121">
        <ele>331</ele>
        <time>2015-06-28T10:15:48.000Z</time>
      </trkpt>
      <trkpt lat="47.47064" lon="6.76123">
        <ele>331</ele>
        <time>2015-06-28T10:15:49.000Z</time>
      </trkpt>
      <trkpt lat="47.47067" lon="6.76125">
        <ele>331</ele>
        <time>2015-06-28T10:15:50.000Z</time>
      </trkpt>
      <trkpt lat="47.47071" lon="6.76127">
        <ele>331</ele>
        <time>2015-06-28T10:15:51.000Z</time>
      </trkpt>
      <trkpt lat="47.47074" lon="6.76129">
        <ele>330</ele>
        <time>2015-06-28T10:15:52.000Z</time>
      </trkpt>
      <trkpt lat="47.47078" lon="6.76132">
        <ele>330</ele>
        <time>2015-06-28T10:15:53.000Z</time>
      </trkpt>
      <trkpt lat="47.47081" lon="6.76135">
        <ele>330</ele>
        <time>2015-06-28T10:15:54.000Z</time>
      </trkpt>
      <trkpt lat="47.47085" lon="6.76138">
        <ele>331</ele>
        <time>2015-06-28T10:15:55.000Z</time>
      </trkpt>
      <trkpt lat="47.47088" lon="6.76141">
        <ele>331</ele>
        <time>2015-06-28T10:15:56.000Z</time>
      </trkpt>
      <trkpt lat="47.47095" lon="6.76148">
        <ele>331</ele>
        <time>2015-06-28T10:15:57.000Z</time>
      </trkpt>
      <trkpt lat="47.471" lon="6.7615">
        <ele>331</ele>
        <time>2015-06-28T10:15:58.000Z</time>
      </trkpt>
      <trkpt lat="47.47105" lon="6.76152">
        <ele>331</ele>
        <time>2015-06-28T10:15:59.000Z</time>
      </trkpt>
      <trkpt lat="47.4711" lon="6.76156">
        <ele>331</ele>
        <time>2015-06-28T10:16:00.000Z</time>
      </trkpt>
      <trkpt lat="47.47116" lon="6.76161">
        <ele>331</ele>
        <time>2015-06-28T10:16:01.000Z</time>
      </trkpt>
      <trkpt lat="47.47122" lon="6.76166">
        <ele>331</ele>
        <time>2015-06-28T10:16:02.000Z</time>
      </trkpt>
      <trkpt lat="47.47127" lon="6.76172">
        <ele>328</ele>
        <time>2015-06-28T10:16:03.000Z</time>
      </trkpt>
      <trkpt lat="47.47132" lon="6.76179">
        <ele>328</ele>
        <time>2015-06-28T10:16:04.000Z</time>
      </trkpt>
      <trkpt lat="47.47135" lon="6.76186">
        <ele>328</ele>
        <time>2015-06-28T10:16:05.000Z</time>
      </trkpt>
      <trkpt lat="47.47138" lon="6.76195">
        <ele>327</ele>
        <time>2015-06-28T10:16:06.000Z</time>
      </trkpt>
      <trkpt lat="47.4714" lon="6.76204">
        <ele>327</ele>
        <time>2015-06-28T10:16:07.000Z</time>
      </trkpt>
      <trkpt lat="47.47143" lon="6.76212">
        <ele>327</ele>
        <time>2015-06-28T10:16:08.000Z</time>
      </trkpt>
      <trkpt lat="47.47146" lon="6.76219">
        <ele>327</ele>
        <time>2015-06-28T10:16:09.000Z</time>
      </trkpt>
      <trkpt lat="47.47152" lon="6.76224">
        <ele>327</ele>
        <time>2015-06-28T10:16:10.000Z</time>
      </trkpt>
      <trkpt lat="47.47156" lon="6.76228">
        <ele>326</ele>
        <time>2015-06-28T10:16:11.000Z</time>
      </trkpt>
      <trkpt lat="47.47161" lon="6.76232">
        <ele>326</ele>
        <time>2015-06-28T10:16:12.000Z</time>
      </trkpt>
      <trkpt lat="47.47166" lon="6.76236">
        <ele>326</ele>
        <time>2015-06-28T10:16:13.000Z</time>
      </trkpt>
      <trkpt lat="47.47171" lon="6.7624">
        <ele>328</ele>
        <time>2015-06-28T10:16:14.000Z</time>
      </trkpt>
      <trkpt lat="47.47175" lon="6.76245">
        <ele>328</ele>
        <time>2015-06-28T10:16:15.000Z</time>
      </trkpt>
      <trkpt lat="47.4718" lon="6.76248">
        <ele>328</ele>
        <time>2015-06-28T10:16:16.000Z</time>
      </trkpt>
      <trkpt lat="47.47184" lon="6.76251">
        <ele>325</ele>
        <time>2015-06-28T10:16:17.000Z</time>
      </trkpt>
      <trkpt lat="47.47187" lon="6.76254">
        <ele>325</ele>
        <time>2015-06-28T10:16:18.000Z</time>
      </trkpt>
      <trkpt lat="47.47191" lon="6.76257">
        <ele>325</ele>
        <time>2015-06-28T10:16:19.000Z</time>
      </trkpt>
      <trkpt lat="47.47194" lon="6.7626">
        <ele>325</ele>
        <time>2015-06-28T10:16:20.000Z</time>
      </trkpt>
      <trkpt lat="47.47198" lon="6.76263">
        <ele>325</ele>
        <time>2015-06-28T10:16:21.000Z</time>
      </trkpt>
      <trkpt lat="47.47202" lon="6.76265">
        <ele>325</ele>
        <time>2015-06-28T10:16:22.000Z</time>
      </trkpt>
      <trkpt lat="47.47205" lon="6.76267">
        <ele>325</ele>
        <time>2015-06-28T10:16:23.000Z</time>
      </trkpt>
      <trkpt lat="47.4721" lon="6.7627">
        <ele>325</ele>
        <time>2015-06-28T10:16:24.000Z</time>
      </trkpt>
      <trkpt lat="47.47214" lon="6.76272">
        <ele>325</ele>
        <time>2015-06-28T10:16:25.000Z</time>
      </trkpt>
      <trkpt lat="47.47217" lon="6.76274">
        <ele>325</ele>
        <time>2015-06-28T10:16:26.000Z</time>
      </trkpt>
      <trkpt lat="47.4722" lon="6.76276">
        <ele>325</ele>
        <time>2015-06-28T10:16:27.000Z</time>
      </trkpt>
      <trkpt lat="47.47222" lon="6.76278">
        <ele>325</ele>
        <time>2015-06-28T10:16:28.000Z</time>
      </trkpt>
      <trkpt lat="47.47225" lon="6.7628">
        <ele>325</ele>
        <time>2015-06-28T10:16:29.000Z</time>
      </trkpt>
      <trkpt lat="47.47228" lon="6.76282">
        <ele>325</ele>
        <time>2015-06-28T10:16:30.000Z</time>
      </trkpt>
      <trkpt lat="47.47231" lon="6.76285">
        <ele>325</ele>
        <time>2015-06-28T10:16:31.000Z</time>
      </trkpt>
      <trkpt lat="47.47234" lon="6.76287">
        <ele>324</ele>
        <time>2015-06-28T10:16:32.000Z</time>
      </trkpt>
      <trkpt lat="47.47241" lon="6.7629">
        <ele>324</ele>
        <time>2015-06-28T10:16:33.000Z</time>
      </trkpt>
      <trkpt lat="47.47246" lon="6.76293">
        <ele>324</ele>
        <time>2015-06-28T10:16:34.000Z</time>
      </trkpt>
      <trkpt lat="47.47252" lon="6.76296">
        <ele>325</ele>
        <time>2015-06-28T10:16:35.000Z</time>
      </trkpt>
      <trkpt lat="47.47256" lon="6.76298">
        <ele>325</ele>
        <time>2015-06-28T10:16:36.000Z</time>
      </trkpt>
      <trkpt lat="47.4726" lon="6.76301">
        <ele>325</ele>
        <time>2015-06-28T10:16:37.000Z</time>
      </trkpt>
      <trkpt lat="47.47265" lon="6.76304">
        <ele>324</ele>
        <time>2015-06-28T10:16:38.000Z</time>
      </trkpt>
      <trkpt lat="47.4727" lon="6.76308">
        <ele>324</ele>
        <time>2015-06-28T10:16:39.000Z</time>
      </trkpt>
      <trkpt lat="47.47275" lon="6.76311">
        <ele>324</ele>
        <time>2015-06-28T10:16:40.000Z</time>
      </trkpt>
      <trkpt lat="47.47281" lon="6.76315">
        <ele>324</ele>
        <time>2015-06-28T10:16:41.000Z</time>
      </trkpt>
      <trkpt lat="47.47287" lon="6.76318">
        <ele>324</ele>
        <time>2015-06-28T10:16:42.000Z</time>
      </trkpt>
      <trkpt lat="47.47294" lon="6.76323">
        <ele>324</ele>
        <time>2015-06-28T10:16:43.000Z</time>
      </trkpt>
      <trkpt lat="47.473" lon="6.76327">
        <ele>324</ele>
        <time>2015-06-28T10:16:44.000Z</time>
      </trkpt>
      <trkpt lat="47.47308" lon="6.76331">
        <ele>324</ele>
        <time>2015-06-28T10:16:45.000Z</time>
      </trkpt>
      <trkpt lat="47.47316" lon="6.76333">
        <ele>320</ele>
        <time>2015-06-28T10:16:46.000Z</time>
      </trkpt>
      <trkpt lat="47.47324" lon="6.76338">
        <ele>321</ele>
        <time>2015-06-28T10:16:47.000Z</time>
      </trkpt>
      <trkpt lat="47.4733" lon="6.76344">
        <ele>321</ele>
        <time>2015-06-28T10:16:48.000Z</time>
      </trkpt>
      <trkpt lat="47.47336" lon="6.76353">
        <ele>320</ele>
        <time>2015-06-28T10:16:49.000Z</time>
      </trkpt>
      <trkpt lat="47.47342" lon="6.76362">
        <ele>319</ele>
        <time>2015-06-28T10:16:50.000Z</time>
      </trkpt>
      <trkpt lat="47.47348" lon="6.76371">
        <ele>318</ele>
        <time>2015-06-28T10:16:51.000Z</time>
      </trkpt>
      <trkpt lat="47.47355" lon="6.76379">
        <ele>318</ele>
        <time>2015-06-28T10:16:52.000Z</time>
      </trkpt>
      <trkpt lat="47.47362" lon="6.76387">
        <ele>318</ele>
        <time>2015-06-28T10:16:53.000Z</time>
      </trkpt>
      <trkpt lat="47.4737" lon="6.76394">
        <ele>317</ele>
        <time>2015-06-28T10:16:54.000Z</time>
      </trkpt>
      <trkpt lat="47.47378" lon="6.76402">
        <ele>317</ele>
        <time>2015-06-28T10:16:55.000Z</time>
      </trkpt>
      <trkpt lat="47.47385" lon="6.76411">
        <ele>316</ele>
        <time>2015-06-28T10:16:56.000Z</time>
      </trkpt>
      <trkpt lat="47.47393" lon="6.76419">
        <ele>314</ele>
        <time>2015-06-28T10:16:57.000Z</time>
      </trkpt>
      <trkpt lat="47.474" lon="6.76426">
        <ele>314</ele>
        <time>2015-06-28T10:16:58.000Z</time>
      </trkpt>
      <trkpt lat="47.47407" lon="6.76433">
        <ele>313</ele>
        <time>2015-06-28T10:16:59.000Z</time>
      </trkpt>
      <trkpt lat="47.47414" lon="6.76439">
        <ele>313</ele>
        <time>2015-06-28T10:17:00.000Z</time>
      </trkpt>
      <trkpt lat="47.47419" lon="6.76444">
        <ele>311</ele>
        <time>2015-06-28T10:17:01.000Z</time>
      </trkpt>
      <trkpt lat="47.47424" lon="6.76448">
        <ele>311</ele>
        <time>2015-06-28T10:17:02.000Z</time>
      </trkpt>
      <trkpt lat="47.47426" lon="6.76451">
        <ele>311</ele>
        <time>2015-06-28T10:17:03.000Z</time>
      </trkpt>
      <trkpt lat="47.47428" lon="6.76453">
        <ele>311</ele>
        <time>2015-06-28T10:17:04.000Z</time>
      </trkpt>
      <trkpt lat="47.4743" lon="6.76455">
        <ele>311</ele>
        <time>2015-06-28T10:17:06.000Z</time>
      </trkpt>
      <trkpt lat="47.47431" lon="6.76457">
        <ele>311</ele>
        <time>2015-06-28T10:17:07.000Z</time>
      </trkpt>
      <trkpt lat="47.47435" lon="6.7646">
        <ele>311</ele>
        <time>2015-06-28T10:17:11.000Z</time>
      </trkpt>
      <trkpt lat="47.47436" lon="6.7646">
        <ele>311</ele>
        <time>2015-06-28T10:17:12.000Z</time>
      </trkpt>
      <trkpt lat="47.4744" lon="6.7646">
        <ele>311</ele>
        <time>2015-06-28T10:17:15.000Z</time>
      </trkpt>
      <trkpt lat="47.47442" lon="6.76458">
        <ele>311</ele>
        <time>2015-06-28T10:17:16.000Z</time>
      </trkpt>
      <trkpt lat="47.47445" lon="6.76455">
        <ele>311</ele>
        <time>2015-06-28T10:17:17.000Z</time>
      </trkpt>
      <trkpt lat="47.47448" lon="6.76452">
        <ele>311</ele>
        <time>2015-06-28T10:17:18.000Z</time>
      </trkpt>
      <trkpt lat="47.47452" lon="6.76449">
        <ele>311</ele>
        <time>2015-06-28T10:17:19.000Z</time>
      </trkpt>
      <trkpt lat="47.47456" lon="6.76447">
        <ele>311</ele>
        <time>2015-06-28T10:17:20.000Z</time>
      </trkpt>
      <trkpt lat="47.4746" lon="6.76445">
        <ele>311</ele>
        <time>2015-06-28T10:17:21.000Z</time>
      </trkpt>
      <trkpt lat="47.47465" lon="6.76444">
        <ele>310</ele>
        <time>2015-06-28T10:17:22.000Z</time>
      </trkpt>
      <trkpt lat="47.47469" lon="6.76444">
        <ele>310</ele>
        <time>2015-06-28T10:17:23.000Z</time>
      </trkpt>
      <trkpt lat="47.47473" lon="6.76445">
        <ele>310</ele>
        <time>2015-06-28T10:17:24.000Z</time>
      </trkpt>
      <trkpt lat="47.47477" lon="6.76448">
        <ele>310</ele>
        <time>2015-06-28T10:17:25.000Z</time>
      </trkpt>
      <trkpt lat="47.4748" lon="6.76451">
        <ele>310</ele>
        <time>2015-06-28T10:17:26.000Z</time>
      </trkpt>
      <trkpt lat="47.47487" lon="6.76462">
        <ele>310</ele>
        <time>2015-06-28T10:17:27.000Z</time>
      </trkpt>
      <trkpt lat="47.47493" lon="6.76465">
        <ele>310</ele>
        <time>2015-06-28T10:17:28.000Z</time>
      </trkpt>
      <trkpt lat="47.47501" lon="6.76463">
        <ele>309</ele>
        <time>2015-06-28T10:17:29.000Z</time>
      </trkpt>
      <trkpt lat="47.47504" lon="6.76458">
        <ele>309</ele>
        <time>2015-06-28T10:17:30.000Z</time>
      </trkpt>
      <trkpt lat="47.47508" lon="6.76453">
        <ele>309</ele>
        <time>2015-06-28T10:17:31.000Z</time>
      </trkpt>
      <trkpt lat="47.4751" lon="6.76448">
        <ele>309</ele>
        <time>2015-06-28T10:17:32.000Z</time>
      </trkpt>
      <trkpt lat="47.47512" lon="6.76442">
        <ele>309</ele>
        <time>2015-06-28T10:17:33.000Z</time>
      </trkpt>
      <trkpt lat="47.47515" lon="6.76436">
        <ele>309</ele>
        <time>2015-06-28T10:17:34.000Z</time>
      </trkpt>
      <trkpt lat="47.47518" lon="6.76432">
        <ele>309</ele>
        <time>2015-06-28T10:17:35.000Z</time>
      </trkpt>
      <trkpt lat="47.47522" lon="6.76429">
        <ele>309</ele>
        <time>2015-06-28T10:17:36.000Z</time>
      </trkpt>
      <trkpt lat="47.47525" lon="6.76426">
        <ele>309</ele>
        <time>2015-06-28T10:17:37.000Z</time>
      </trkpt>
      <trkpt lat="47.47529" lon="6.76422">
        <ele>309</ele>
        <time>2015-06-28T10:17:38.000Z</time>
      </trkpt>
      <trkpt lat="47.47532" lon="6.76417">
        <ele>309</ele>
        <time>2015-06-28T10:17:39.000Z</time>
      </trkpt>
      <trkpt lat="47.47535" lon="6.76413">
        <ele>309</ele>
        <time>2015-06-28T10:17:40.000Z</time>
      </trkpt>
      <trkpt lat="47.47538" lon="6.76409">
        <ele>310</ele>
        <time>2015-06-28T10:17:41.000Z</time>
      </trkpt>
      <trkpt lat="47.47541" lon="6.76405">
        <ele>310</ele>
        <time>2015-06-28T10:17:42.000Z</time>
      </trkpt>
      <trkpt lat="47.47545" lon="6.76402">
        <ele>310</ele>
        <time>2015-06-28T10:17:43.000Z</time>
      </trkpt>
      <trkpt lat="47.47547" lon="6.76398">
        <ele>310</ele>
        <time>2015-06-28T10:17:44.000Z</time>
      </trkpt>
      <trkpt lat="47.4755" lon="6.76394">
        <ele>310</ele>
        <time>2015-06-28T10:17:45.000Z</time>
      </trkpt>
      <trkpt lat="47.47552" lon="6.76388">
        <ele>310</ele>
        <time>2015-06-28T10:17:46.000Z</time>
      </trkpt>
      <trkpt lat="47.47554" lon="6.76383">
        <ele>310</ele>
        <time>2015-06-28T10:17:47.000Z</time>
      </trkpt>
      <trkpt lat="47.47555" lon="6.76373">
        <ele>310</ele>
        <time>2015-06-28T10:17:48.000Z</time>
      </trkpt>
      <trkpt lat="47.47557" lon="6.76368">
        <ele>310</ele>
        <time>2015-06-28T10:17:49.000Z</time>
      </trkpt>
      <trkpt lat="47.47559" lon="6.76362">
        <ele>310</ele>
        <time>2015-06-28T10:17:50.000Z</time>
      </trkpt>
      <trkpt lat="47.47562" lon="6.76356">
        <ele>310</ele>
        <time>2015-06-28T10:17:51.000Z</time>
      </trkpt>
      <trkpt lat="47.47565" lon="6.76353">
        <ele>311</ele>
        <time>2015-06-28T10:17:52.000Z</time>
      </trkpt>
      <trkpt lat="47.47567" lon="6.7635">
        <ele>311</ele>
        <time>2015-06-28T10:17:53.000Z</time>
      </trkpt>
      <trkpt lat="47.47569" lon="6.76344">
        <ele>311</ele>
        <time>2015-06-28T10:17:54.000Z</time>
      </trkpt>
      <trkpt lat="47.47571" lon="6.7634">
        <ele>311</ele>
        <time>2015-06-28T10:17:55.000Z</time>
      </trkpt>
      <trkpt lat="47.47574" lon="6.76336">
        <ele>311</ele>
        <time>2015-06-28T10:17:56.000Z</time>
      </trkpt>
      <trkpt lat="47.47577" lon="6.76331">
        <ele>312</ele>
        <time>2015-06-28T10:17:57.000Z</time>
      </trkpt>
      <trkpt lat="47.4758" lon="6.76327">
        <ele>312</ele>
        <time>2015-06-28T10:17:58.000Z</time>
      </trkpt>
      <trkpt lat="47.47583" lon="6.76323">
        <ele>312</ele>
        <time>2015-06-28T10:17:59.000Z</time>
      </trkpt>
      <trkpt lat="47.47585" lon="6.76319">
        <ele>311</ele>
        <time>2015-06-28T10:18:00.000Z</time>
      </trkpt>
      <trkpt lat="47.47588" lon="6.76315">
        <ele>311</ele>
        <time>2015-06-28T10:18:01.000Z</time>
      </trkpt>
      <trkpt lat="47.4759" lon="6.7631">
        <ele>311</ele>
        <time>2015-06-28T10:18:02.000Z</time>
      </trkpt>
      <trkpt lat="47.47592" lon="6.76307">
        <ele>311</ele>
        <time>2015-06-28T10:18:03.000Z</time>
      </trkpt>
      <trkpt lat="47.47594" lon="6.76303">
        <ele>311</ele>
        <time>2015-06-28T10:18:04.000Z</time>
      </trkpt>
      <trkpt lat="47.47596" lon="6.76299">
        <ele>311</ele>
        <time>2015-06-28T10:18:05.000Z</time>
      </trkpt>
      <trkpt lat="47.47598" lon="6.76295">
        <ele>311</ele>
        <time>2015-06-28T10:18:06.000Z</time>
      </trkpt>
      <trkpt lat="47.47599" lon="6.76291">
        <ele>311</ele>
        <time>2015-06-28T10:18:07.000Z</time>
      </trkpt>
      <trkpt lat="47.47601" lon="6.76287">
        <ele>311</ele>
        <time>2015-06-28T10:18:08.000Z</time>
      </trkpt>
      <trkpt lat="47.47603" lon="6.76281">
        <ele>311</ele>
        <time>2015-06-28T10:18:09.000Z</time>
      </trkpt>
      <trkpt lat="47.47605" lon="6.76273">
        <ele>311</ele>
        <time>2015-06-28T10:18:10.000Z</time>
      </trkpt>
      <trkpt lat="47.47607" lon="6.76266">
        <ele>311</ele>
        <time>2015-06-28T10:18:11.000Z</time>
      </trkpt>
      <trkpt lat="47.47609" lon="6.76257">
        <ele>311</ele>
        <time>2015-06-28T10:18:12.000Z</time>
      </trkpt>
      <trkpt lat="47.47614" lon="6.76233">
        <ele>311</ele>
        <time>2015-06-28T10:18:13.000Z</time>
      </trkpt>
      <trkpt lat="47.47617" lon="6.76226">
        <ele>311</ele>
        <time>2015-06-28T10:18:14.000Z</time>
      </trkpt>
      <trkpt lat="47.4762" lon="6.76219">
        <ele>311</ele>
        <time>2015-06-28T10:18:15.000Z</time>
      </trkpt>
      <trkpt lat="47.47624" lon="6.76212">
        <ele>311</ele>
        <time>2015-06-28T10:18:16.000Z</time>
      </trkpt>
      <trkpt lat="47.47628" lon="6.76205">
        <ele>311</ele>
        <time>2015-06-28T10:18:17.000Z</time>
      </trkpt>
      <trkpt lat="47.47631" lon="6.762">
        <ele>310</ele>
        <time>2015-06-28T10:18:18.000Z</time>
      </trkpt>
      <trkpt lat="47.47633" lon="6.76192">
        <ele>310</ele>
        <time>2015-06-28T10:18:19.000Z</time>
      </trkpt>
      <trkpt lat="47.47636" lon="6.76185">
        <ele>310</ele>
        <time>2015-06-28T10:18:20.000Z</time>
      </trkpt>
      <trkpt lat="47.47638" lon="6.76179">
        <ele>311</ele>
        <time>2015-06-28T10:18:21.000Z</time>
      </trkpt>
      <trkpt lat="47.4764" lon="6.76172">
        <ele>311</ele>
        <time>2015-06-28T10:18:22.000Z</time>
      </trkpt>
      <trkpt lat="47.47642" lon="6.76165">
        <ele>310</ele>
        <time>2015-06-28T10:18:23.000Z</time>
      </trkpt>
      <trkpt lat="47.47644" lon="6.76158">
        <ele>310</ele>
        <time>2015-06-28T10:18:24.000Z</time>
      </trkpt>
      <trkpt lat="47.47646" lon="6.76151">
        <ele>310</ele>
        <time>2015-06-28T10:18:25.000Z</time>
      </trkpt>
      <trkpt lat="47.47647" lon="6.76145">
        <ele>310</ele>
        <time>2015-06-28T10:18:26.000Z</time>
      </trkpt>
      <trkpt lat="47.47649" lon="6.76139">
        <ele>310</ele>
        <time>2015-06-28T10:18:27.000Z</time>
      </trkpt>
      <trkpt lat="47.47652" lon="6.76135">
        <ele>310</ele>
        <time>2015-06-28T10:18:28.000Z</time>
      </trkpt>
      <trkpt lat="47.47654" lon="6.7613">
        <ele>310</ele>
        <time>2015-06-28T10:18:29.000Z</time>
      </trkpt>
      <trkpt lat="47.47656" lon="6.76125">
        <ele>310</ele>
        <time>2015-06-28T10:18:30.000Z</time>
      </trkpt>
      <trkpt lat="47.47658" lon="6.76119">
        <ele>311</ele>
        <time>2015-06-28T10:18:31.000Z</time>
      </trkpt>
      <trkpt lat="47.47661" lon="6.76112">
        <ele>311</ele>
        <time>2015-06-28T10:18:32.000Z</time>
      </trkpt>
      <trkpt lat="47.47663" lon="6.76106">
        <ele>311</ele>
        <time>2015-06-28T10:18:33.000Z</time>
      </trkpt>
      <trkpt lat="47.47666" lon="6.76101">
        <ele>311</ele>
        <time>2015-06-28T10:18:34.000Z</time>
      </trkpt>
      <trkpt lat="47.47668" lon="6.76096">
        <ele>310</ele>
        <time>2015-06-28T10:18:35.000Z</time>
      </trkpt>
      <trkpt lat="47.47668" lon="6.7609">
        <ele>311</ele>
        <time>2015-06-28T10:18:36.000Z</time>
      </trkpt>
      <trkpt lat="47.4767" lon="6.76086">
        <ele>311</ele>
        <time>2015-06-28T10:18:37.000Z</time>
      </trkpt>
      <trkpt lat="47.47673" lon="6.76086">
        <ele>311</ele>
        <time>2015-06-28T10:18:39.000Z</time>
      </trkpt>
      <trkpt lat="47.47675" lon="6.76087">
        <ele>311</ele>
        <time>2015-06-28T10:18:40.000Z</time>
      </trkpt>
      <trkpt lat="47.47676" lon="6.7609">
        <ele>310</ele>
        <time>2015-06-28T10:18:41.000Z</time>
      </trkpt>
      <trkpt lat="47.47678" lon="6.76092">
        <ele>310</ele>
        <time>2015-06-28T10:18:42.000Z</time>
      </trkpt>
      <trkpt lat="47.4768" lon="6.76094">
        <ele>310</ele>
        <time>2015-06-28T10:18:43.000Z</time>
      </trkpt>
      <trkpt lat="47.47683" lon="6.76097">
        <ele>310</ele>
        <time>2015-06-28T10:18:44.000Z</time>
      </trkpt>
      <trkpt lat="47.47685" lon="6.761">
        <ele>310</ele>
        <time>2015-06-28T10:18:45.000Z</time>
      </trkpt>
      <trkpt lat="47.47688" lon="6.76103">
        <ele>310</ele>
        <time>2015-06-28T10:18:46.000Z</time>
      </trkpt>
      <trkpt lat="47.4769" lon="6.76106">
        <ele>310</ele>
        <time>2015-06-28T10:18:47.000Z</time>
      </trkpt>
      <trkpt lat="47.47693" lon="6.76109">
        <ele>310</ele>
        <time>2015-06-28T10:18:48.000Z</time>
      </trkpt>
      <trkpt lat="47.47695" lon="6.76113">
        <ele>310</ele>
        <time>2015-06-28T10:18:49.000Z</time>
      </trkpt>
      <trkpt lat="47.47697" lon="6.76116">
        <ele>310</ele>
        <time>2015-06-28T10:18:50.000Z</time>
      </trkpt>
      <trkpt lat="47.477" lon="6.76119">
        <ele>310</ele>
        <time>2015-06-28T10:18:51.000Z</time>
      </trkpt>
      <trkpt lat="47.47702" lon="6.76122">
        <ele>310</ele>
        <time>2015-06-28T10:18:52.000Z</time>
      </trkpt>
      <trkpt lat="47.47704" lon="6.76125">
        <ele>310</ele>
        <time>2015-06-28T10:18:53.000Z</time>
      </trkpt>
      <trkpt lat="47.47705" lon="6.76128">
        <ele>310</ele>
        <time>2015-06-28T10:18:54.000Z</time>
      </trkpt>
      <trkpt lat="47.47707" lon="6.76131">
        <ele>309</ele>
        <time>2015-06-28T10:18:55.000Z</time>
      </trkpt>
      <trkpt lat="47.47709" lon="6.76134">
        <ele>309</ele>
        <time>2015-06-28T10:18:56.000Z</time>
      </trkpt>
      <trkpt lat="47.47711" lon="6.76137">
        <ele>309</ele>
        <time>2015-06-28T10:18:57.000Z</time>
      </trkpt>
      <trkpt lat="47.47713" lon="6.76141">
        <ele>309</ele>
        <time>2015-06-28T10:18:58.000Z</time>
      </trkpt>
      <trkpt lat="47.47715" lon="6.76145">
        <ele>309</ele>
        <time>2015-06-28T10:18:59.000Z</time>
      </trkpt>
      <trkpt lat="47.47717" lon="6.76148">
        <ele>309</ele>
        <time>2015-06-28T10:19:00.000Z</time>
      </trkpt>
      <trkpt lat="47.47719" lon="6.76152">
        <ele>309</ele>
        <time>2015-06-28T10:19:01.000Z</time>
      </trkpt>
      <trkpt lat="47.47722" lon="6.76155">
        <ele>309</ele>
        <time>2015-06-28T10:19:02.000Z</time>
      </trkpt>
      <trkpt lat="47.47724" lon="6.76159">
        <ele>309</ele>
        <time>2015-06-28T10:19:03.000Z</time>
      </trkpt>
      <trkpt lat="47.47726" lon="6.76162">
        <ele>309</ele>
        <time>2015-06-28T10:19:04.000Z</time>
      </trkpt>
      <trkpt lat="47.47728" lon="6.76165">
        <ele>309</ele>
        <time>2015-06-28T10:19:05.000Z</time>
      </trkpt>
      <trkpt lat="47.47729" lon="6.76169">
        <ele>308</ele>
        <time>2015-06-28T10:19:06.000Z</time>
      </trkpt>
      <trkpt lat="47.47732" lon="6.76173">
        <ele>308</ele>
        <time>2015-06-28T10:19:07.000Z</time>
      </trkpt>
      <trkpt lat="47.47734" lon="6.76176">
        <ele>308</ele>
        <time>2015-06-28T10:19:08.000Z</time>
      </trkpt>
      <trkpt lat="47.47736" lon="6.7618">
        <ele>308</ele>
        <time>2015-06-28T10:19:09.000Z</time>
      </trkpt>
      <trkpt lat="47.47738" lon="6.76184">
        <ele>308</ele>
        <time>2015-06-28T10:19:10.000Z</time>
      </trkpt>
      <trkpt lat="47.47741" lon="6.76188">
        <ele>309</ele>
        <time>2015-06-28T10:19:11.000Z</time>
      </trkpt>
      <trkpt lat="47.47743" lon="6.76192">
        <ele>309</ele>
        <time>2015-06-28T10:19:12.000Z</time>
      </trkpt>
      <trkpt lat="47.47745" lon="6.76195">
        <ele>309</ele>
        <time>2015-06-28T10:19:13.000Z</time>
      </trkpt>
      <trkpt lat="47.47747" lon="6.76199">
        <ele>309</ele>
        <time>2015-06-28T10:19:14.000Z</time>
      </trkpt>
      <trkpt lat="47.4775" lon="6.76202">
        <ele>309</ele>
        <time>2015-06-28T10:19:15.000Z</time>
      </trkpt>
      <trkpt lat="47.47752" lon="6.76206">
        <ele>309</ele>
        <time>2015-06-28T10:19:16.000Z</time>
      </trkpt>
      <trkpt lat="47.47754" lon="6.76209">
        <ele>309</ele>
        <time>2015-06-28T10:19:17.000Z</time>
      </trkpt>
      <trkpt lat="47.47756" lon="6.76213">
        <ele>309</ele>
        <time>2015-06-28T10:19:18.000Z</time>
      </trkpt>
      <trkpt lat="47.47759" lon="6.76217">
        <ele>309</ele>
        <time>2015-06-28T10:19:19.000Z</time>
      </trkpt>
      <trkpt lat="47.47761" lon="6.76221">
        <ele>309</ele>
        <time>2015-06-28T10:19:20.000Z</time>
      </trkpt>
      <trkpt lat="47.47763" lon="6.76226">
        <ele>309</ele>
        <time>2015-06-28T10:19:21.000Z</time>
      </trkpt>
      <trkpt lat="47.47765" lon="6.7623">
        <ele>309</ele>
        <time>2015-06-28T10:19:22.000Z</time>
      </trkpt>
      <trkpt lat="47.47768" lon="6.76234">
        <ele>309</ele>
        <time>2015-06-28T10:19:23.000Z</time>
      </trkpt>
      <trkpt lat="47.47771" lon="6.76238">
        <ele>309</ele>
        <time>2015-06-28T10:19:24.000Z</time>
      </trkpt>
      <trkpt lat="47.47773" lon="6.76242">
        <ele>309</ele>
        <time>2015-06-28T10:19:25.000Z</time>
      </trkpt>
      <trkpt lat="47.47776" lon="6.76246">
        <ele>309</ele>
        <time>2015-06-28T10:19:26.000Z</time>
      </trkpt>
      <trkpt lat="47.47779" lon="6.76249">
        <ele>309</ele>
        <time>2015-06-28T10:19:27.000Z</time>
      </trkpt>
      <trkpt lat="47.47782" lon="6.76253">
        <ele>310</ele>
        <time>2015-06-28T10:19:28.000Z</time>
      </trkpt>
      <trkpt lat="47.47786" lon="6.76256">
        <ele>310</ele>
        <time>2015-06-28T10:19:29.000Z</time>
      </trkpt>
      <trkpt lat="47.4779" lon="6.76259">
        <ele>310</ele>
        <time>2015-06-28T10:19:30.000Z</time>
      </trkpt>
      <trkpt lat="47.47794" lon="6.76261">
        <ele>310</ele>
        <time>2015-06-28T10:19:31.000Z</time>
      </trkpt>
      <trkpt lat="47.47798" lon="6.76263">
        <ele>310</ele>
        <time>2015-06-28T10:19:32.000Z</time>
      </trkpt>
      <trkpt lat="47.47802" lon="6.76265">
        <ele>310</ele>
        <time>2015-06-28T10:19:33.000Z</time>
      </trkpt>
      <trkpt lat="47.47807" lon="6.76267">
        <ele>310</ele>
        <time>2015-06-28T10:19:34.000Z</time>
      </trkpt>
      <trkpt lat="47.47812" lon="6.76269">
        <ele>310</ele>
        <time>2015-06-28T10:19:35.000Z</time>
      </trkpt>
      <trkpt lat="47.47816" lon="6.76271">
        <ele>310</ele>
        <time>2015-06-28T10:19:36.000Z</time>
      </trkpt>
      <trkpt lat="47.47821" lon="6.76275">
        <ele>310</ele>
        <time>2015-06-28T10:19:37.000Z</time>
      </trkpt>
      <trkpt lat="47.47825" lon="6.76278">
        <ele>310</ele>
        <time>2015-06-28T10:19:38.000Z</time>
      </trkpt>
      <trkpt lat="47.4783" lon="6.76282">
        <ele>310</ele>
        <time>2015-06-28T10:19:39.000Z</time>
      </trkpt>
      <trkpt lat="47.47833" lon="6.76286">
        <ele>310</ele>
        <time>2015-06-28T10:19:40.000Z</time>
      </trkpt>
      <trkpt lat="47.47837" lon="6.7629">
        <ele>311</ele>
        <time>2015-06-28T10:19:41.000Z</time>
      </trkpt>
      <trkpt lat="47.4784" lon="6.76294">
        <ele>311</ele>
        <time>2015-06-28T10:19:42.000Z</time>
      </trkpt>
      <trkpt lat="47.47844" lon="6.763">
        <ele>311</ele>
        <time>2015-06-28T10:19:43.000Z</time>
      </trkpt>
      <trkpt lat="47.47847" lon="6.76305">
        <ele>311</ele>
        <time>2015-06-28T10:19:44.000Z</time>
      </trkpt>
      <trkpt lat="47.4785" lon="6.7631">
        <ele>311</ele>
        <time>2015-06-28T10:19:45.000Z</time>
      </trkpt>
      <trkpt lat="47.47853" lon="6.76315">
        <ele>311</ele>
        <time>2015-06-28T10:19:46.000Z</time>
      </trkpt>
      <trkpt lat="47.47856" lon="6.76321">
        <ele>311</ele>
        <time>2015-06-28T10:19:47.000Z</time>
      </trkpt>
      <trkpt lat="47.47859" lon="6.76326">
        <ele>311</ele>
        <time>2015-06-28T10:19:48.000Z</time>
      </trkpt>
      <trkpt lat="47.47863" lon="6.76332">
        <ele>310</ele>
        <time>2015-06-28T10:19:49.000Z</time>
      </trkpt>
      <trkpt lat="47.47866" lon="6.76338">
        <ele>311</ele>
        <time>2015-06-28T10:19:50.000Z</time>
      </trkpt>
      <trkpt lat="47.47869" lon="6.76343">
        <ele>311</ele>
        <time>2015-06-28T10:19:51.000Z</time>
      </trkpt>
      <trkpt lat="47.47872" lon="6.76349">
        <ele>311</ele>
        <time>2015-06-28T10:19:52.000Z</time>
      </trkpt>
      <trkpt lat="47.47875" lon="6.76354">
        <ele>311</ele>
        <time>2015-06-28T10:19:53.000Z</time>
      </trkpt>
      <trkpt lat="47.47878" lon="6.7636">
        <ele>311</ele>
        <time>2015-06-28T10:19:54.000Z</time>
      </trkpt>
      <trkpt lat="47.47881" lon="6.76366">
        <ele>311</ele>
        <time>2015-06-28T10:19:55.000Z</time>
      </trkpt>
      <trkpt lat="47.47883" lon="6.76372">
        <ele>311</ele>
        <time>2015-06-28T10:19:56.000Z</time>
      </trkpt>
      <trkpt lat="47.47886" lon="6.76377">
        <ele>311</ele>
        <time>2015-06-28T10:19:57.000Z</time>
      </trkpt>
      <trkpt lat="47.47889" lon="6.76383">
        <ele>311</ele>
        <time>2015-06-28T10:19:58.000Z</time>
      </trkpt>
      <trkpt lat="47.47892" lon="6.7639">
        <ele>311</ele>
        <time>2015-06-28T10:19:59.000Z</time>
      </trkpt>
      <trkpt lat="47.47895" lon="6.76396">
        <ele>311</ele>
        <time>2015-06-28T10:20:00.000Z</time>
      </trkpt>
      <trkpt lat="47.47898" lon="6.76402">
        <ele>311</ele>
        <time>2015-06-28T10:20:01.000Z</time>
      </trkpt>
      <trkpt lat="47.47901" lon="6.76408">
        <ele>311</ele>
        <time>2015-06-28T10:20:02.000Z</time>
      </trkpt>
      <trkpt lat="47.47903" lon="6.76415">
        <ele>311</ele>
        <time>2015-06-28T10:20:03.000Z</time>
      </trkpt>
      <trkpt lat="47.47906" lon="6.76421">
        <ele>311</ele>
        <time>2015-06-28T10:20:04.000Z</time>
      </trkpt>
      <trkpt lat="47.47908" lon="6.76427">
        <ele>311</ele>
        <time>2015-06-28T10:20:05.000Z</time>
      </trkpt>
      <trkpt lat="47.47911" lon="6.76434">
        <ele>311</ele>
        <time>2015-06-28T10:20:06.000Z</time>
      </trkpt>
      <trkpt lat="47.47913" lon="6.76441">
        <ele>311</ele>
        <time>2015-06-28T10:20:07.000Z</time>
      </trkpt>
      <trkpt lat="47.47915" lon="6.76449">
        <ele>311</ele>
        <time>2015-06-28T10:20:08.000Z</time>
      </trkpt>
      <trkpt lat="47.47917" lon="6.76456">
        <ele>311</ele>
        <time>2015-06-28T10:20:09.000Z</time>
      </trkpt>
      <trkpt lat="47.47918" lon="6.76464">
        <ele>311</ele>
        <time>2015-06-28T10:20:10.000Z</time>
      </trkpt>
      <trkpt lat="47.4792" lon="6.76471">
        <ele>311</ele>
        <time>2015-06-28T10:20:11.000Z</time>
      </trkpt>
      <trkpt lat="47.47922" lon="6.76477">
        <ele>311</ele>
        <time>2015-06-28T10:20:12.000Z</time>
      </trkpt>
      <trkpt lat="47.47923" lon="6.76484">
        <ele>311</ele>
        <time>2015-06-28T10:20:13.000Z</time>
      </trkpt>
      <trkpt lat="47.47925" lon="6.76491">
        <ele>310</ele>
        <time>2015-06-28T10:20:14.000Z</time>
      </trkpt>
      <trkpt lat="47.47927" lon="6.76497">
        <ele>310</ele>
        <time>2015-06-28T10:20:15.000Z</time>
      </trkpt>
      <trkpt lat="47.47928" lon="6.76504">
        <ele>310</ele>
        <time>2015-06-28T10:20:16.000Z</time>
      </trkpt>
      <trkpt lat="47.4793" lon="6.7651">
        <ele>310</ele>
        <time>2015-06-28T10:20:17.000Z</time>
      </trkpt>
      <trkpt lat="47.47931" lon="6.76517">
        <ele>311</ele>
        <time>2015-06-28T10:20:18.000Z</time>
      </trkpt>
      <trkpt lat="47.47932" lon="6.76524">
        <ele>311</ele>
        <time>2015-06-28T10:20:19.000Z</time>
      </trkpt>
      <trkpt lat="47.47934" lon="6.7653">
        <ele>311</ele>
        <time>2015-06-28T10:20:20.000Z</time>
      </trkpt>
      <trkpt lat="47.47935" lon="6.76537">
        <ele>311</ele>
        <time>2015-06-28T10:20:21.000Z</time>
      </trkpt>
      <trkpt lat="47.47937" lon="6.76543">
        <ele>311</ele>
        <time>2015-06-28T10:20:22.000Z</time>
      </trkpt>
      <trkpt lat="47.47939" lon="6.7655">
        <ele>311</ele>
        <time>2015-06-28T10:20:23.000Z</time>
      </trkpt>
      <trkpt lat="47.4794" lon="6.76556">
        <ele>311</ele>
        <time>2015-06-28T10:20:24.000Z</time>
      </trkpt>
      <trkpt lat="47.47942" lon="6.76563">
        <ele>311</ele>
        <time>2015-06-28T10:20:25.000Z</time>
      </trkpt>
      <trkpt lat="47.47943" lon="6.76569">
        <ele>311</ele>
        <time>2015-06-28T10:20:26.000Z</time>
      </trkpt>
      <trkpt lat="47.47944" lon="6.76576">
        <ele>311</ele>
        <time>2015-06-28T10:20:27.000Z</time>
      </trkpt>
      <trkpt lat="47.47945" lon="6.76583">
        <ele>311</ele>
        <time>2015-06-28T10:20:28.000Z</time>
      </trkpt>
      <trkpt lat="47.47947" lon="6.76589">
        <ele>311</ele>
        <time>2015-06-28T10:20:29.000Z</time>
      </trkpt>
      <trkpt lat="47.47947" lon="6.76595">
        <ele>311</ele>
        <time>2015-06-28T10:20:30.000Z</time>
      </trkpt>
      <trkpt lat="47.47948" lon="6.766">
        <ele>311</ele>
        <time>2015-06-28T10:20:31.000Z</time>
      </trkpt>
      <trkpt lat="47.47949" lon="6.76604">
        <ele>311</ele>
        <time>2015-06-28T10:20:32.000Z</time>
      </trkpt>
      <trkpt lat="47.4795" lon="6.76607">
        <ele>311</ele>
        <time>2015-06-28T10:20:33.000Z</time>
      </trkpt>
      <trkpt lat="47.4795" lon="6.76612">
        <ele>311</ele>
        <time>2015-06-28T10:20:35.000Z</time>
      </trkpt>
      <trkpt lat="47.4795" lon="6.76615">
        <ele>311</ele>
        <time>2015-06-28T10:20:36.000Z</time>
      </trkpt>
      <trkpt lat="47.47951" lon="6.7662">
        <ele>311</ele>
        <time>2015-06-28T10:20:53.000Z</time>
      </trkpt>
      <trkpt lat="47.47953" lon="6.76622">
        <ele>311</ele>
        <time>2015-06-28T10:20:54.000Z</time>
      </trkpt>
      <trkpt lat="47.47955" lon="6.76624">
        <ele>311</ele>
        <time>2015-06-28T10:20:55.000Z</time>
      </trkpt>
      <trkpt lat="47.47958" lon="6.76624">
        <ele>311</ele>
        <time>2015-06-28T10:20:56.000Z</time>
      </trkpt>
      <trkpt lat="47.47961" lon="6.76623">
        <ele>311</ele>
        <time>2015-06-28T10:20:57.000Z</time>
      </trkpt>
      <trkpt lat="47.47965" lon="6.76621">
        <ele>311</ele>
        <time>2015-06-28T10:20:58.000Z</time>
      </trkpt>
      <trkpt lat="47.47969" lon="6.76619">
        <ele>311</ele>
        <time>2015-06-28T10:20:59.000Z</time>
      </trkpt>
      <trkpt lat="47.47972" lon="6.76617">
        <ele>311</ele>
        <time>2015-06-28T10:21:00.000Z</time>
      </trkpt>
      <trkpt lat="47.47976" lon="6.76615">
        <ele>311</ele>
        <time>2015-06-28T10:21:01.000Z</time>
      </trkpt>
      <trkpt lat="47.4798" lon="6.76613">
        <ele>311</ele>
        <time>2015-06-28T10:21:02.000Z</time>
      </trkpt>
      <trkpt lat="47.47984" lon="6.76611">
        <ele>311</ele>
        <time>2015-06-28T10:21:03.000Z</time>
      </trkpt>
      <trkpt lat="47.47991" lon="6.76607">
        <ele>312</ele>
        <time>2015-06-28T10:21:04.000Z</time>
      </trkpt>
      <trkpt lat="47.47995" lon="6.76605">
        <ele>312</ele>
        <time>2015-06-28T10:21:05.000Z</time>
      </trkpt>
      <trkpt lat="47.47999" lon="6.76603">
        <ele>312</ele>
        <time>2015-06-28T10:21:06.000Z</time>
      </trkpt>
      <trkpt lat="47.48004" lon="6.76601">
        <ele>312</ele>
        <time>2015-06-28T10:21:07.000Z</time>
      </trkpt>
      <trkpt lat="47.48008" lon="6.76598">
        <ele>312</ele>
        <time>2015-06-28T10:21:08.000Z</time>
      </trkpt>
      <trkpt lat="47.48013" lon="6.76596">
        <ele>312</ele>
        <time>2015-06-28T10:21:09.000Z</time>
      </trkpt>
      <trkpt lat="47.48017" lon="6.76594">
        <ele>312</ele>
        <time>2015-06-28T10:21:10.000Z</time>
      </trkpt>
      <trkpt lat="47.48022" lon="6.76592">
        <ele>312</ele>
        <time>2015-06-28T10:21:11.000Z</time>
      </trkpt>
      <trkpt lat="47.48027" lon="6.76588">
        <ele>312</ele>
        <time>2015-06-28T10:21:12.000Z</time>
      </trkpt>
      <trkpt lat="47.48031" lon="6.76585">
        <ele>312</ele>
        <time>2015-06-28T10:21:13.000Z</time>
      </trkpt>
      <trkpt lat="47.48036" lon="6.76582">
        <ele>312</ele>
        <time>2015-06-28T10:21:14.000Z</time>
      </trkpt>
      <trkpt lat="47.4804" lon="6.76578">
        <ele>312</ele>
        <time>2015-06-28T10:21:15.000Z</time>
      </trkpt>
      <trkpt lat="47.48045" lon="6.76574">
        <ele>312</ele>
        <time>2015-06-28T10:21:16.000Z</time>
      </trkpt>
      <trkpt lat="47.48049" lon="6.76569">
        <ele>312</ele>
        <time>2015-06-28T10:21:17.000Z</time>
      </trkpt>
      <trkpt lat="47.48054" lon="6.76565">
        <ele>312</ele>
        <time>2015-06-28T10:21:18.000Z</time>
      </trkpt>
      <trkpt lat="47.48059" lon="6.76563">
        <ele>312</ele>
        <time>2015-06-28T10:21:19.000Z</time>
      </trkpt>
      <trkpt lat="47.48063" lon="6.76559">
        <ele>312</ele>
        <time>2015-06-28T10:21:20.000Z</time>
      </trkpt>
      <trkpt lat="47.48067" lon="6.76555">
        <ele>312</ele>
        <time>2015-06-28T10:21:21.000Z</time>
      </trkpt>
      <trkpt lat="47.48071" lon="6.76552">
        <ele>312</ele>
        <time>2015-06-28T10:21:22.000Z</time>
      </trkpt>
      <trkpt lat="47.48074" lon="6.76548">
        <ele>312</ele>
        <time>2015-06-28T10:21:23.000Z</time>
      </trkpt>
      <trkpt lat="47.48078" lon="6.76544">
        <ele>312</ele>
        <time>2015-06-28T10:21:24.000Z</time>
      </trkpt>
      <trkpt lat="47.48082" lon="6.7654">
        <ele>312</ele>
        <time>2015-06-28T10:21:25.000Z</time>
      </trkpt>
      <trkpt lat="47.48086" lon="6.76536">
        <ele>317</ele>
        <time>2015-06-28T10:21:26.000Z</time>
      </trkpt>
      <trkpt lat="47.4809" lon="6.76533">
        <ele>317</ele>
        <time>2015-06-28T10:21:27.000Z</time>
      </trkpt>
      <trkpt lat="47.48093" lon="6.76529">
        <ele>318</ele>
        <time>2015-06-28T10:21:28.000Z</time>
      </trkpt>
      <trkpt lat="47.48097" lon="6.76526">
        <ele>318</ele>
        <time>2015-06-28T10:21:29.000Z</time>
      </trkpt>
      <trkpt lat="47.48101" lon="6.76522">
        <ele>318</ele>
        <time>2015-06-28T10:21:30.000Z</time>
      </trkpt>
      <trkpt lat="47.48104" lon="6.76521">
        <ele>318</ele>
        <time>2015-06-28T10:21:31.000Z</time>
      </trkpt>
      <trkpt lat="47.48107" lon="6.76523">
        <ele>319</ele>
        <time>2015-06-28T10:21:32.000Z</time>
      </trkpt>
      <trkpt lat="47.4811" lon="6.76525">
        <ele>319</ele>
        <time>2015-06-28T10:21:33.000Z</time>
      </trkpt>
      <trkpt lat="47.48112" lon="6.7653">
        <ele>319</ele>
        <time>2015-06-28T10:21:34.000Z</time>
      </trkpt>
      <trkpt lat="47.48114" lon="6.76534">
        <ele>319</ele>
        <time>2015-06-28T10:21:35.000Z</time>
      </trkpt>
      <trkpt lat="47.48116" lon="6.76539">
        <ele>319</ele>
        <time>2015-06-28T10:21:36.000Z</time>
      </trkpt>
      <trkpt lat="47.48118" lon="6.76543">
        <ele>319</ele>
        <time>2015-06-28T10:21:37.000Z</time>
      </trkpt>
      <trkpt lat="47.4812" lon="6.76549">
        <ele>319</ele>
        <time>2015-06-28T10:21:38.000Z</time>
      </trkpt>
      <trkpt lat="47.48121" lon="6.76554">
        <ele>319</ele>
        <time>2015-06-28T10:21:39.000Z</time>
      </trkpt>
      <trkpt lat="47.4812" lon="6.76559">
        <ele>319</ele>
        <time>2015-06-28T10:21:40.000Z</time>
      </trkpt>
      <trkpt lat="47.48119" lon="6.76565">
        <ele>318</ele>
        <time>2015-06-28T10:21:41.000Z</time>
      </trkpt>
      <trkpt lat="47.48116" lon="6.7657">
        <ele>318</ele>
        <time>2015-06-28T10:21:42.000Z</time>
      </trkpt>
      <trkpt lat="47.48113" lon="6.76575">
        <ele>317</ele>
        <time>2015-06-28T10:21:43.000Z</time>
      </trkpt>
      <trkpt lat="47.4811" lon="6.76579">
        <ele>317</ele>
        <time>2015-06-28T10:21:44.000Z</time>
      </trkpt>
      <trkpt lat="47.48106" lon="6.76583">
        <ele>316</ele>
        <time>2015-06-28T10:21:45.000Z</time>
      </trkpt>
      <trkpt lat="47.481" lon="6.76589">
        <ele>313</ele>
        <time>2015-06-28T10:21:46.000Z</time>
      </trkpt>
      <trkpt lat="47.48098" lon="6.76593">
        <ele>313</ele>
        <time>2015-06-28T10:21:47.000Z</time>
      </trkpt>
      <trkpt lat="47.48097" lon="6.76598">
        <ele>313</ele>
        <time>2015-06-28T10:21:48.000Z</time>
      </trkpt>
      <trkpt lat="47.48097" lon="6.76606">
        <ele>313</ele>
        <time>2015-06-28T10:21:49.000Z</time>
      </trkpt>
      <trkpt lat="47.48095" lon="6.76613">
        <ele>313</ele>
        <time>2015-06-28T10:21:50.000Z</time>
      </trkpt>
      <trkpt lat="47.48099" lon="6.76621">
        <ele>313</ele>
        <time>2015-06-28T10:21:51.000Z</time>
      </trkpt>
      <trkpt lat="47.481" lon="6.76629">
        <ele>313</ele>
        <time>2015-06-28T10:21:52.000Z</time>
      </trkpt>
      <trkpt lat="47.48103" lon="6.76638">
        <ele>313</ele>
        <time>2015-06-28T10:21:53.000Z</time>
      </trkpt>
      <trkpt lat="47.48106" lon="6.76645">
        <ele>312</ele>
        <time>2015-06-28T10:21:54.000Z</time>
      </trkpt>
      <trkpt lat="47.48109" lon="6.76653">
        <ele>312</ele>
        <time>2015-06-28T10:21:55.000Z</time>
      </trkpt>
      <trkpt lat="47.48114" lon="6.7666">
        <ele>312</ele>
        <time>2015-06-28T10:21:56.000Z</time>
      </trkpt>
      <trkpt lat="47.4812" lon="6.76671">
        <ele>312</ele>
        <time>2015-06-28T10:21:57.000Z</time>
      </trkpt>
      <trkpt lat="47.48126" lon="6.76681">
        <ele>312</ele>
        <time>2015-06-28T10:21:58.000Z</time>
      </trkpt>
      <trkpt lat="47.48132" lon="6.76692">
        <ele>312</ele>
        <time>2015-06-28T10:21:59.000Z</time>
      </trkpt>
      <trkpt lat="47.48138" lon="6.76702">
        <ele>312</ele>
        <time>2015-06-28T10:22:00.000Z</time>
      </trkpt>
      <trkpt lat="47.48143" lon="6.76712">
        <ele>312</ele>
        <time>2015-06-28T10:22:01.000Z</time>
      </trkpt>
      <trkpt lat="47.48148" lon="6.76722">
        <ele>312</ele>
        <time>2015-06-28T10:22:02.000Z</time>
      </trkpt>
      <trkpt lat="47.48154" lon="6.76733">
        <ele>312</ele>
        <time>2015-06-28T10:22:03.000Z</time>
      </trkpt>
      <trkpt lat="47.48159" lon="6.76744">
        <ele>313</ele>
        <time>2015-06-28T10:22:04.000Z</time>
      </trkpt>
      <trkpt lat="47.48166" lon="6.76754">
        <ele>313</ele>
        <time>2015-06-28T10:22:05.000Z</time>
      </trkpt>
      <trkpt lat="47.48172" lon="6.76762">
        <ele>313</ele>
        <time>2015-06-28T10:22:06.000Z</time>
      </trkpt>
      <trkpt lat="47.48177" lon="6.76769">
        <ele>312</ele>
        <time>2015-06-28T10:22:07.000Z</time>
      </trkpt>
      <trkpt lat="47.48183" lon="6.76777">
        <ele>312</ele>
        <time>2015-06-28T10:22:08.000Z</time>
      </trkpt>
      <trkpt lat="47.48192" lon="6.76783">
        <ele>312</ele>
        <time>2015-06-28T10:22:09.000Z</time>
      </trkpt>
      <trkpt lat="47.482" lon="6.76788">
        <ele>312</ele>
        <time>2015-06-28T10:22:10.000Z</time>
      </trkpt>
      <trkpt lat="47.48208" lon="6.76792">
        <ele>312</ele>
        <time>2015-06-28T10:22:11.000Z</time>
      </trkpt>
      <trkpt lat="47.48217" lon="6.76795">
        <ele>312</ele>
        <time>2015-06-28T10:22:12.000Z</time>
      </trkpt>
      <trkpt lat="47.48225" lon="6.76798">
        <ele>312</ele>
        <time>2015-06-28T10:22:13.000Z</time>
      </trkpt>
      <trkpt lat="47.48234" lon="6.76801">
        <ele>312</ele>
        <time>2015-06-28T10:22:14.000Z</time>
      </trkpt>
      <trkpt lat="47.48242" lon="6.76808">
        <ele>312</ele>
        <time>2015-06-28T10:22:15.000Z</time>
      </trkpt>
      <trkpt lat="47.48248" lon="6.76816">
        <ele>311</ele>
        <time>2015-06-28T10:22:16.000Z</time>
      </trkpt>
      <trkpt lat="47.48255" lon="6.76824">
        <ele>312</ele>
        <time>2015-06-28T10:22:17.000Z</time>
      </trkpt>
      <trkpt lat="47.4826" lon="6.76833">
        <ele>312</ele>
        <time>2015-06-28T10:22:18.000Z</time>
      </trkpt>
      <trkpt lat="47.48266" lon="6.76842">
        <ele>311</ele>
        <time>2015-06-28T10:22:19.000Z</time>
      </trkpt>
      <trkpt lat="47.48274" lon="6.76851">
        <ele>311</ele>
        <time>2015-06-28T10:22:20.000Z</time>
      </trkpt>
      <trkpt lat="47.48279" lon="6.7686">
        <ele>310</ele>
        <time>2015-06-28T10:22:21.000Z</time>
      </trkpt>
      <trkpt lat="47.48284" lon="6.76868">
        <ele>310</ele>
        <time>2015-06-28T10:22:22.000Z</time>
      </trkpt>
      <trkpt lat="47.48289" lon="6.76876">
        <ele>310</ele>
        <time>2015-06-28T10:22:23.000Z</time>
      </trkpt>
      <trkpt lat="47.48295" lon="6.76882">
        <ele>310</ele>
        <time>2015-06-28T10:22:24.000Z</time>
      </trkpt>
      <trkpt lat="47.48301" lon="6.76888">
        <ele>310</ele>
        <time>2015-06-28T10:22:25.000Z</time>
      </trkpt>
      <trkpt lat="47.48307" lon="6.76894">
        <ele>310</ele>
        <time>2015-06-28T10:22:26.000Z</time>
      </trkpt>
      <trkpt lat="47.48312" lon="6.76899">
        <ele>310</ele>
        <time>2015-06-28T10:22:27.000Z</time>
      </trkpt>
      <trkpt lat="47.48318" lon="6.76904">
        <ele>310</ele>
        <time>2015-06-28T10:22:28.000Z</time>
      </trkpt>
      <trkpt lat="47.48323" lon="6.76909">
        <ele>310</ele>
        <time>2015-06-28T10:22:29.000Z</time>
      </trkpt>
      <trkpt lat="47.48328" lon="6.76914">
        <ele>309</ele>
        <time>2015-06-28T10:22:30.000Z</time>
      </trkpt>
      <trkpt lat="47.48335" lon="6.76918">
        <ele>309</ele>
        <time>2015-06-28T10:22:31.000Z</time>
      </trkpt>
      <trkpt lat="47.48341" lon="6.76922">
        <ele>310</ele>
        <time>2015-06-28T10:22:32.000Z</time>
      </trkpt>
      <trkpt lat="47.48346" lon="6.76926">
        <ele>310</ele>
        <time>2015-06-28T10:22:33.000Z</time>
      </trkpt>
      <trkpt lat="47.48351" lon="6.76929">
        <ele>311</ele>
        <time>2015-06-28T10:22:34.000Z</time>
      </trkpt>
      <trkpt lat="47.48356" lon="6.76932">
        <ele>311</ele>
        <time>2015-06-28T10:22:35.000Z</time>
      </trkpt>
      <trkpt lat="47.48361" lon="6.76934">
        <ele>311</ele>
        <time>2015-06-28T10:22:36.000Z</time>
      </trkpt>
      <trkpt lat="47.48366" lon="6.76935">
        <ele>312</ele>
        <time>2015-06-28T10:22:37.000Z</time>
      </trkpt>
      <trkpt lat="47.4837" lon="6.76938">
        <ele>312</ele>
        <time>2015-06-28T10:22:38.000Z</time>
      </trkpt>
      <trkpt lat="47.48374" lon="6.7694">
        <ele>312</ele>
        <time>2015-06-28T10:22:39.000Z</time>
      </trkpt>
      <trkpt lat="47.48378" lon="6.76943">
        <ele>312</ele>
        <time>2015-06-28T10:22:40.000Z</time>
      </trkpt>
      <trkpt lat="47.48382" lon="6.76946">
        <ele>312</ele>
        <time>2015-06-28T10:22:41.000Z</time>
      </trkpt>
      <trkpt lat="47.48385" lon="6.76947">
        <ele>312</ele>
        <time>2015-06-28T10:22:42.000Z</time>
      </trkpt>
      <trkpt lat="47.48389" lon="6.7695">
        <ele>312</ele>
        <time>2015-06-28T10:22:43.000Z</time>
      </trkpt>
      <trkpt lat="47.48392" lon="6.76952">
        <ele>312</ele>
        <time>2015-06-28T10:22:44.000Z</time>
      </trkpt>
      <trkpt lat="47.48395" lon="6.76954">
        <ele>312</ele>
        <time>2015-06-28T10:22:45.000Z</time>
      </trkpt>
      <trkpt lat="47.48398" lon="6.76956">
        <ele>312</ele>
        <time>2015-06-28T10:22:46.000Z</time>
      </trkpt>
      <trkpt lat="47.48401" lon="6.76958">
        <ele>312</ele>
        <time>2015-06-28T10:22:47.000Z</time>
      </trkpt>
      <trkpt lat="47.48404" lon="6.76959">
        <ele>312</ele>
        <time>2015-06-28T10:22:48.000Z</time>
      </trkpt>
      <trkpt lat="47.48408" lon="6.76962">
        <ele>312</ele>
        <time>2015-06-28T10:22:49.000Z</time>
      </trkpt>
      <trkpt lat="47.48411" lon="6.76964">
        <ele>312</ele>
        <time>2015-06-28T10:22:50.000Z</time>
      </trkpt>
      <trkpt lat="47.48414" lon="6.76966">
        <ele>312</ele>
        <time>2015-06-28T10:22:51.000Z</time>
      </trkpt>
      <trkpt lat="47.48417" lon="6.76967">
        <ele>312</ele>
        <time>2015-06-28T10:22:52.000Z</time>
      </trkpt>
      <trkpt lat="47.4842" lon="6.76968">
        <ele>314</ele>
        <time>2015-06-28T10:22:53.000Z</time>
      </trkpt>
      <trkpt lat="47.48422" lon="6.76968">
        <ele>314</ele>
        <time>2015-06-28T10:22:54.000Z</time>
      </trkpt>
      <trkpt lat="47.48425" lon="6.76968">
        <ele>314</ele>
        <time>2015-06-28T10:22:55.000Z</time>
      </trkpt>
      <trkpt lat="47.48427" lon="6.76969">
        <ele>314</ele>
        <time>2015-06-28T10:22:56.000Z</time>
      </trkpt>
      <trkpt lat="47.4843" lon="6.76973">
        <ele>314</ele>
        <time>2015-06-28T10:22:58.000Z</time>
      </trkpt>
      <trkpt lat="47.48432" lon="6.76974">
        <ele>314</ele>
        <time>2015-06-28T10:22:59.000Z</time>
      </trkpt>
      <trkpt lat="47.48436" lon="6.76978">
        <ele>314</ele>
        <time>2015-06-28T10:23:01.000Z</time>
      </trkpt>
      <trkpt lat="47.48438" lon="6.7698">
        <ele>314</ele>
        <time>2015-06-28T10:23:02.000Z</time>
      </trkpt>
      <trkpt lat="47.48442" lon="6.76982">
        <ele>314</ele>
        <time>2015-06-28T10:23:03.000Z</time>
      </trkpt>
      <trkpt lat="47.48446" lon="6.76985">
        <ele>315</ele>
        <time>2015-06-28T10:23:04.000Z</time>
      </trkpt>
      <trkpt lat="47.48453" lon="6.76989">
        <ele>315</ele>
        <time>2015-06-28T10:23:05.000Z</time>
      </trkpt>
      <trkpt lat="47.48458" lon="6.76991">
        <ele>315</ele>
        <time>2015-06-28T10:23:06.000Z</time>
      </trkpt>
      <trkpt lat="47.48463" lon="6.76994">
        <ele>315</ele>
        <time>2015-06-28T10:23:07.000Z</time>
      </trkpt>
      <trkpt lat="47.48468" lon="6.76996">
        <ele>315</ele>
        <time>2015-06-28T10:23:08.000Z</time>
      </trkpt>
      <trkpt lat="47.48473" lon="6.76999">
        <ele>315</ele>
        <time>2015-06-28T10:23:09.000Z</time>
      </trkpt>
      <trkpt lat="47.48478" lon="6.77003">
        <ele>314</ele>
        <time>2015-06-28T10:23:10.000Z</time>
      </trkpt>
      <trkpt lat="47.48484" lon="6.77005">
        <ele>315</ele>
        <time>2015-06-28T10:23:11.000Z</time>
      </trkpt>
      <trkpt lat="47.48489" lon="6.77008">
        <ele>315</ele>
        <time>2015-06-28T10:23:12.000Z</time>
      </trkpt>
      <trkpt lat="47.48494" lon="6.77011">
        <ele>315</ele>
        <time>2015-06-28T10:23:13.000Z</time>
      </trkpt>
      <trkpt lat="47.48499" lon="6.77015">
        <ele>315</ele>
        <time>2015-06-28T10:23:14.000Z</time>
      </trkpt>
      <trkpt lat="47.48504" lon="6.77018">
        <ele>315</ele>
        <time>2015-06-28T10:23:15.000Z</time>
      </trkpt>
      <trkpt lat="47.4851" lon="6.77022">
        <ele>315</ele>
        <time>2015-06-28T10:23:16.000Z</time>
      </trkpt>
      <trkpt lat="47.48514" lon="6.77026">
        <ele>314</ele>
        <time>2015-06-28T10:23:17.000Z</time>
      </trkpt>
      <trkpt lat="47.48519" lon="6.7703">
        <ele>314</ele>
        <time>2015-06-28T10:23:18.000Z</time>
      </trkpt>
      <trkpt lat="47.48524" lon="6.77033">
        <ele>314</ele>
        <time>2015-06-28T10:23:19.000Z</time>
      </trkpt>
      <trkpt lat="47.48529" lon="6.77036">
        <ele>314</ele>
        <time>2015-06-28T10:23:20.000Z</time>
      </trkpt>
      <trkpt lat="47.48535" lon="6.7704">
        <ele>314</ele>
        <time>2015-06-28T10:23:21.000Z</time>
      </trkpt>
      <trkpt lat="47.4854" lon="6.77044">
        <ele>314</ele>
        <time>2015-06-28T10:23:22.000Z</time>
      </trkpt>
      <trkpt lat="47.48544" lon="6.7705">
        <ele>314</ele>
        <time>2015-06-28T10:23:23.000Z</time>
      </trkpt>
      <trkpt lat="47.48551" lon="6.7705">
        <ele>314</ele>
        <time>2015-06-28T10:23:24.000Z</time>
      </trkpt>
      <trkpt lat="47.48556" lon="6.77051">
        <ele>314</ele>
        <time>2015-06-28T10:23:25.000Z</time>
      </trkpt>
      <trkpt lat="47.48561" lon="6.77053">
        <ele>314</ele>
        <time>2015-06-28T10:23:26.000Z</time>
      </trkpt>
      <trkpt lat="47.48566" lon="6.77055">
        <ele>314</ele>
        <time>2015-06-28T10:23:27.000Z</time>
      </trkpt>
      <trkpt lat="47.48571" lon="6.77057">
        <ele>314</ele>
        <time>2015-06-28T10:23:28.000Z</time>
      </trkpt>
      <trkpt lat="47.48576" lon="6.77059">
        <ele>314</ele>
        <time>2015-06-28T10:23:29.000Z</time>
      </trkpt>
      <trkpt lat="47.4858" lon="6.77062">
        <ele>314</ele>
        <time>2015-06-28T10:23:30.000Z</time>
      </trkpt>
      <trkpt lat="47.48585" lon="6.77064">
        <ele>313</ele>
        <time>2015-06-28T10:23:31.000Z</time>
      </trkpt>
      <trkpt lat="47.4859" lon="6.77067">
        <ele>313</ele>
        <time>2015-06-28T10:23:32.000Z</time>
      </trkpt>
      <trkpt lat="47.48595" lon="6.7707">
        <ele>313</ele>
        <time>2015-06-28T10:23:32.998Z</time>
      </trkpt>
      <trkpt lat="47.48601" lon="6.77074">
        <ele>313</ele>
        <time>2015-06-28T10:23:34.000Z</time>
      </trkpt>
      <trkpt lat="47.48606" lon="6.77078">
        <ele>313</ele>
        <time>2015-06-28T10:23:35.000Z</time>
      </trkpt>
      <trkpt lat="47.48612" lon="6.77082">
        <ele>313</ele>
        <time>2015-06-28T10:23:36.000Z</time>
      </trkpt>
      <trkpt lat="47.48617" lon="6.77085">
        <ele>312</ele>
        <time>2015-06-28T10:23:37.000Z</time>
      </trkpt>
      <trkpt lat="47.48621" lon="6.77088">
        <ele>312</ele>
        <time>2015-06-28T10:23:38.000Z</time>
      </trkpt>
      <trkpt lat="47.48627" lon="6.77091">
        <ele>312</ele>
        <time>2015-06-28T10:23:39.000Z</time>
      </trkpt>
      <trkpt lat="47.48632" lon="6.77094">
        <ele>312</ele>
        <time>2015-06-28T10:23:40.000Z</time>
      </trkpt>
      <trkpt lat="47.48637" lon="6.77098">
        <ele>312</ele>
        <time>2015-06-28T10:23:41.000Z</time>
      </trkpt>
      <trkpt lat="47.48642" lon="6.77104">
        <ele>312</ele>
        <time>2015-06-28T10:23:42.000Z</time>
      </trkpt>
      <trkpt lat="47.48647" lon="6.77111">
        <ele>312</ele>
        <time>2015-06-28T10:23:43.000Z</time>
      </trkpt>
      <trkpt lat="47.48653" lon="6.77116">
        <ele>312</ele>
        <time>2015-06-28T10:23:44.000Z</time>
      </trkpt>
      <trkpt lat="47.48658" lon="6.77121">
        <ele>312</ele>
        <time>2015-06-28T10:23:45.000Z</time>
      </trkpt>
      <trkpt lat="47.48663" lon="6.77126">
        <ele>312</ele>
        <time>2015-06-28T10:23:46.000Z</time>
      </trkpt>
      <trkpt lat="47.48668" lon="6.77131">
        <ele>312</ele>
        <time>2015-06-28T10:23:47.000Z</time>
      </trkpt>
      <trkpt lat="47.48672" lon="6.77138">
        <ele>311</ele>
        <time>2015-06-28T10:23:48.000Z</time>
      </trkpt>
      <trkpt lat="47.48677" lon="6.77143">
        <ele>311</ele>
        <time>2015-06-28T10:23:49.000Z</time>
      </trkpt>
      <trkpt lat="47.48682" lon="6.77148">
        <ele>311</ele>
        <time>2015-06-28T10:23:50.000Z</time>
      </trkpt>
      <trkpt lat="47.48687" lon="6.77153">
        <ele>311</ele>
        <time>2015-06-28T10:23:51.000Z</time>
      </trkpt>
      <trkpt lat="47.48692" lon="6.77158">
        <ele>311</ele>
        <time>2015-06-28T10:23:52.000Z</time>
      </trkpt>
      <trkpt lat="47.48696" lon="6.77163">
        <ele>311</ele>
        <time>2015-06-28T10:23:53.000Z</time>
      </trkpt>
      <trkpt lat="47.48701" lon="6.77167">
        <ele>311</ele>
        <time>2015-06-28T10:23:54.000Z</time>
      </trkpt>
      <trkpt lat="47.48706" lon="6.77173">
        <ele>311</ele>
        <time>2015-06-28T10:23:55.000Z</time>
      </trkpt>
      <trkpt lat="47.48711" lon="6.77176">
        <ele>310</ele>
        <time>2015-06-28T10:23:56.000Z</time>
      </trkpt>
      <trkpt lat="47.48716" lon="6.77179">
        <ele>310</ele>
        <time>2015-06-28T10:23:57.000Z</time>
      </trkpt>
      <trkpt lat="47.4872" lon="6.77183">
        <ele>310</ele>
        <time>2015-06-28T10:23:58.000Z</time>
      </trkpt>
      <trkpt lat="47.48726" lon="6.77186">
        <ele>310</ele>
        <time>2015-06-28T10:23:59.000Z</time>
      </trkpt>
      <trkpt lat="47.4873" lon="6.77191">
        <ele>310</ele>
        <time>2015-06-28T10:24:00.000Z</time>
      </trkpt>
      <trkpt lat="47.48736" lon="6.77194">
        <ele>310</ele>
        <time>2015-06-28T10:24:01.000Z</time>
      </trkpt>
      <trkpt lat="47.48741" lon="6.77198">
        <ele>310</ele>
        <time>2015-06-28T10:24:02.000Z</time>
      </trkpt>
      <trkpt lat="47.48745" lon="6.77201">
        <ele>310</ele>
        <time>2015-06-28T10:24:03.000Z</time>
      </trkpt>
      <trkpt lat="47.4875" lon="6.77206">
        <ele>310</ele>
        <time>2015-06-28T10:24:04.000Z</time>
      </trkpt>
      <trkpt lat="47.48756" lon="6.7721">
        <ele>310</ele>
        <time>2015-06-28T10:24:05.000Z</time>
      </trkpt>
      <trkpt lat="47.4876" lon="6.77214">
        <ele>310</ele>
        <time>2015-06-28T10:24:06.000Z</time>
      </trkpt>
      <trkpt lat="47.48766" lon="6.77218">
        <ele>310</ele>
        <time>2015-06-28T10:24:07.000Z</time>
      </trkpt>
      <trkpt lat="47.4877" lon="6.77223">
        <ele>310</ele>
        <time>2015-06-28T10:24:08.000Z</time>
      </trkpt>
      <trkpt lat="47.48775" lon="6.77227">
        <ele>310</ele>
        <time>2015-06-28T10:24:09.000Z</time>
      </trkpt>
      <trkpt lat="47.4878" lon="6.7723">
        <ele>310</ele>
        <time>2015-06-28T10:24:10.000Z</time>
      </trkpt>
      <trkpt lat="47.48784" lon="6.77234">
        <ele>310</ele>
        <time>2015-06-28T10:24:11.000Z</time>
      </trkpt>
      <trkpt lat="47.48789" lon="6.77237">
        <ele>310</ele>
        <time>2015-06-28T10:24:12.000Z</time>
      </trkpt>
      <trkpt lat="47.48795" lon="6.77241">
        <ele>310</ele>
        <time>2015-06-28T10:24:13.000Z</time>
      </trkpt>
      <trkpt lat="47.48799" lon="6.77245">
        <ele>310</ele>
        <time>2015-06-28T10:24:14.000Z</time>
      </trkpt>
      <trkpt lat="47.48805" lon="6.77248">
        <ele>311</ele>
        <time>2015-06-28T10:24:15.000Z</time>
      </trkpt>
      <trkpt lat="47.4881" lon="6.77252">
        <ele>310</ele>
        <time>2015-06-28T10:24:16.000Z</time>
      </trkpt>
      <trkpt lat="47.48815" lon="6.77255">
        <ele>310</ele>
        <time>2015-06-28T10:24:17.000Z</time>
      </trkpt>
      <trkpt lat="47.4882" lon="6.77259">
        <ele>310</ele>
        <time>2015-06-28T10:24:18.000Z</time>
      </trkpt>
      <trkpt lat="47.48825" lon="6.77263">
        <ele>310</ele>
        <time>2015-06-28T10:24:19.000Z</time>
      </trkpt>
      <trkpt lat="47.4883" lon="6.77266">
        <ele>310</ele>
        <time>2015-06-28T10:24:20.000Z</time>
      </trkpt>
      <trkpt lat="47.48836" lon="6.7727">
        <ele>310</ele>
        <time>2015-06-28T10:24:21.000Z</time>
      </trkpt>
      <trkpt lat="47.4884" lon="6.77274">
        <ele>310</ele>
        <time>2015-06-28T10:24:22.000Z</time>
      </trkpt>
      <trkpt lat="47.48846" lon="6.77276">
        <ele>310</ele>
        <time>2015-06-28T10:24:23.000Z</time>
      </trkpt>
      <trkpt lat="47.48851" lon="6.7728">
        <ele>310</ele>
        <time>2015-06-28T10:24:24.000Z</time>
      </trkpt>
      <trkpt lat="47.48856" lon="6.77283">
        <ele>310</ele>
        <time>2015-06-28T10:24:25.000Z</time>
      </trkpt>
      <trkpt lat="47.48862" lon="6.77285">
        <ele>310</ele>
        <time>2015-06-28T10:24:26.000Z</time>
      </trkpt>
      <trkpt lat="47.48868" lon="6.77286">
        <ele>310</ele>
        <time>2015-06-28T10:24:27.000Z</time>
      </trkpt>
      <trkpt lat="47.48873" lon="6.77289">
        <ele>310</ele>
        <time>2015-06-28T10:24:28.000Z</time>
      </trkpt>
      <trkpt lat="47.48879" lon="6.77291">
        <ele>310</ele>
        <time>2015-06-28T10:24:29.000Z</time>
      </trkpt>
      <trkpt lat="47.48885" lon="6.77293">
        <ele>310</ele>
        <time>2015-06-28T10:24:30.000Z</time>
      </trkpt>
      <trkpt lat="47.4889" lon="6.77294">
        <ele>310</ele>
        <time>2015-06-28T10:24:31.000Z</time>
      </trkpt>
      <trkpt lat="47.48896" lon="6.77296">
        <ele>310</ele>
        <time>2015-06-28T10:24:32.000Z</time>
      </trkpt>
      <trkpt lat="47.48901" lon="6.77298">
        <ele>310</ele>
        <time>2015-06-28T10:24:33.000Z</time>
      </trkpt>
      <trkpt lat="47.48906" lon="6.77301">
        <ele>310</ele>
        <time>2015-06-28T10:24:34.000Z</time>
      </trkpt>
      <trkpt lat="47.48912" lon="6.77303">
        <ele>310</ele>
        <time>2015-06-28T10:24:35.000Z</time>
      </trkpt>
      <trkpt lat="47.48917" lon="6.77305">
        <ele>311</ele>
        <time>2015-06-28T10:24:36.000Z</time>
      </trkpt>
      <trkpt lat="47.48923" lon="6.77308">
        <ele>311</ele>
        <time>2015-06-28T10:24:37.000Z</time>
      </trkpt>
      <trkpt lat="47.48929" lon="6.7731">
        <ele>311</ele>
        <time>2015-06-28T10:24:38.000Z</time>
      </trkpt>
      <trkpt lat="47.48934" lon="6.77313">
        <ele>311</ele>
        <time>2015-06-28T10:24:39.000Z</time>
      </trkpt>
      <trkpt lat="47.4894" lon="6.77315">
        <ele>311</ele>
        <time>2015-06-28T10:24:40.000Z</time>
      </trkpt>
      <trkpt lat="47.48946" lon="6.77317">
        <ele>311</ele>
        <time>2015-06-28T10:24:41.000Z</time>
      </trkpt>
      <trkpt lat="47.48952" lon="6.77319">
        <ele>311</ele>
        <time>2015-06-28T10:24:42.000Z</time>
      </trkpt>
      <trkpt lat="47.48957" lon="6.77321">
        <ele>311</ele>
        <time>2015-06-28T10:24:43.000Z</time>
      </trkpt>
      <trkpt lat="47.48962" lon="6.77322">
        <ele>311</ele>
        <time>2015-06-28T10:24:44.000Z</time>
      </trkpt>
      <trkpt lat="47.48967" lon="6.77324">
        <ele>311</ele>
        <time>2015-06-28T10:24:45.000Z</time>
      </trkpt>
      <trkpt lat="47.48973" lon="6.77323">
        <ele>311</ele>
        <time>2015-06-28T10:24:46.000Z</time>
      </trkpt>
      <trkpt lat="47.48978" lon="6.77324">
        <ele>311</ele>
        <time>2015-06-28T10:24:47.000Z</time>
      </trkpt>
      <trkpt lat="47.48984" lon="6.77324">
        <ele>311</ele>
        <time>2015-06-28T10:24:48.000Z</time>
      </trkpt>
      <trkpt lat="47.4899" lon="6.77324">
        <ele>311</ele>
        <time>2015-06-28T10:24:49.000Z</time>
      </trkpt>
      <trkpt lat="47.48995" lon="6.77324">
        <ele>311</ele>
        <time>2015-06-28T10:24:50.000Z</time>
      </trkpt>
      <trkpt lat="47.49001" lon="6.77325">
        <ele>311</ele>
        <time>2015-06-28T10:24:51.000Z</time>
      </trkpt>
      <trkpt lat="47.49006" lon="6.77325">
        <ele>311</ele>
        <time>2015-06-28T10:24:52.000Z</time>
      </trkpt>
      <trkpt lat="47.49012" lon="6.77325">
        <ele>311</ele>
        <time>2015-06-28T10:24:53.000Z</time>
      </trkpt>
      <trkpt lat="47.49018" lon="6.77326">
        <ele>311</ele>
        <time>2015-06-28T10:24:54.000Z</time>
      </trkpt>
      <trkpt lat="47.49023" lon="6.77326">
        <ele>311</ele>
        <time>2015-06-28T10:24:55.000Z</time>
      </trkpt>
      <trkpt lat="47.49028" lon="6.77327">
        <ele>311</ele>
        <time>2015-06-28T10:24:56.000Z</time>
      </trkpt>
      <trkpt lat="47.49033" lon="6.77327">
        <ele>311</ele>
        <time>2015-06-28T10:24:57.000Z</time>
      </trkpt>
      <trkpt lat="47.49039" lon="6.77328">
        <ele>311</ele>
        <time>2015-06-28T10:24:58.000Z</time>
      </trkpt>
      <trkpt lat="47.49044" lon="6.77327">
        <ele>311</ele>
        <time>2015-06-28T10:24:59.000Z</time>
      </trkpt>
      <trkpt lat="47.49049" lon="6.77328">
        <ele>311</ele>
        <time>2015-06-28T10:25:00.000Z</time>
      </trkpt>
      <trkpt lat="47.49056" lon="6.77329">
        <ele>311</ele>
        <time>2015-06-28T10:25:01.000Z</time>
      </trkpt>
      <trkpt lat="47.49062" lon="6.77329">
        <ele>311</ele>
        <time>2015-06-28T10:25:02.000Z</time>
      </trkpt>
      <trkpt lat="47.49068" lon="6.77329">
        <ele>311</ele>
        <time>2015-06-28T10:25:03.000Z</time>
      </trkpt>
      <trkpt lat="47.49073" lon="6.77329">
        <ele>311</ele>
        <time>2015-06-28T10:25:04.000Z</time>
      </trkpt>
      <trkpt lat="47.49078" lon="6.77329">
        <ele>311</ele>
        <time>2015-06-28T10:25:05.000Z</time>
      </trkpt>
      <trkpt lat="47.49083" lon="6.7733">
        <ele>311</ele>
        <time>2015-06-28T10:25:06.000Z</time>
      </trkpt>
      <trkpt lat="47.49089" lon="6.7733">
        <ele>311</ele>
        <time>2015-06-28T10:25:07.000Z</time>
      </trkpt>
      <trkpt lat="47.49094" lon="6.7733">
        <ele>311</ele>
        <time>2015-06-28T10:25:08.000Z</time>
      </trkpt>
      <trkpt lat="47.491" lon="6.7733">
        <ele>311</ele>
        <time>2015-06-28T10:25:09.000Z</time>
      </trkpt>
      <trkpt lat="47.49105" lon="6.77331">
        <ele>311</ele>
        <time>2015-06-28T10:25:10.000Z</time>
      </trkpt>
      <trkpt lat="47.4911" lon="6.77332">
        <ele>311</ele>
        <time>2015-06-28T10:25:11.000Z</time>
      </trkpt>
      <trkpt lat="47.49115" lon="6.77333">
        <ele>311</ele>
        <time>2015-06-28T10:25:12.000Z</time>
      </trkpt>
      <trkpt lat="47.49119" lon="6.77333">
        <ele>311</ele>
        <time>2015-06-28T10:25:13.000Z</time>
      </trkpt>
      <trkpt lat="47.49124" lon="6.77334">
        <ele>310</ele>
        <time>2015-06-28T10:25:14.000Z</time>
      </trkpt>
      <trkpt lat="47.49129" lon="6.77334">
        <ele>310</ele>
        <time>2015-06-28T10:25:15.000Z</time>
      </trkpt>
      <trkpt lat="47.49133" lon="6.77335">
        <ele>310</ele>
        <time>2015-06-28T10:25:16.000Z</time>
      </trkpt>
      <trkpt lat="47.49138" lon="6.77336">
        <ele>310</ele>
        <time>2015-06-28T10:25:17.000Z</time>
      </trkpt>
      <trkpt lat="47.49142" lon="6.77337">
        <ele>310</ele>
        <time>2015-06-28T10:25:18.000Z</time>
      </trkpt>
      <trkpt lat="47.49146" lon="6.77337">
        <ele>310</ele>
        <time>2015-06-28T10:25:19.000Z</time>
      </trkpt>
      <trkpt lat="47.4915" lon="6.77337">
        <ele>310</ele>
        <time>2015-06-28T10:25:20.000Z</time>
      </trkpt>
      <trkpt lat="47.49154" lon="6.77338">
        <ele>310</ele>
        <time>2015-06-28T10:25:21.000Z</time>
      </trkpt>
      <trkpt lat="47.49157" lon="6.7734">
        <ele>310</ele>
        <time>2015-06-28T10:25:22.000Z</time>
      </trkpt>
      <trkpt lat="47.49161" lon="6.7734">
        <ele>310</ele>
        <time>2015-06-28T10:25:23.000Z</time>
      </trkpt>
      <trkpt lat="47.49164" lon="6.7734">
        <ele>310</ele>
        <time>2015-06-28T10:25:24.000Z</time>
      </trkpt>
      <trkpt lat="47.49168" lon="6.77341">
        <ele>310</ele>
        <time>2015-06-28T10:25:25.000Z</time>
      </trkpt>
      <trkpt lat="47.49171" lon="6.77341">
        <ele>310</ele>
        <time>2015-06-28T10:25:26.000Z</time>
      </trkpt>
      <trkpt lat="47.49174" lon="6.77341">
        <ele>310</ele>
        <time>2015-06-28T10:25:27.000Z</time>
      </trkpt>
      <trkpt lat="47.49176" lon="6.77341">
        <ele>310</ele>
        <time>2015-06-28T10:25:28.000Z</time>
      </trkpt>
      <trkpt lat="47.49179" lon="6.77341">
        <ele>310</ele>
        <time>2015-06-28T10:25:29.000Z</time>
      </trkpt>
      <trkpt lat="47.49182" lon="6.77336">
        <ele>310</ele>
        <time>2015-06-28T10:25:32.000Z</time>
      </trkpt>
      <trkpt lat="47.49182" lon="6.77334">
        <ele>310</ele>
        <time>2015-06-28T10:25:33.000Z</time>
      </trkpt>
      <trkpt lat="47.49181" lon="6.7733">
        <ele>310</ele>
        <time>2015-06-28T10:27:58.000Z</time>
      </trkpt>
      <trkpt lat="47.49181" lon="6.77327">
        <ele>310</ele>
        <time>2015-06-28T10:27:59.000Z</time>
      </trkpt>
      <trkpt lat="47.49181" lon="6.77322">
        <ele>310</ele>
        <time>2015-06-28T10:28:00.000Z</time>
      </trkpt>
      <trkpt lat="47.49182" lon="6.77316">
        <ele>310</ele>
        <time>2015-06-28T10:28:01.000Z</time>
      </trkpt>
      <trkpt lat="47.49182" lon="6.7731">
        <ele>311</ele>
        <time>2015-06-28T10:28:02.000Z</time>
      </trkpt>
      <trkpt lat="47.49183" lon="6.77303">
        <ele>311</ele>
        <time>2015-06-28T10:28:03.000Z</time>
      </trkpt>
      <trkpt lat="47.49184" lon="6.7729">
        <ele>311</ele>
        <time>2015-06-28T10:28:04.000Z</time>
      </trkpt>
      <trkpt lat="47.49185" lon="6.77285">
        <ele>311</ele>
        <time>2015-06-28T10:28:05.000Z</time>
      </trkpt>
      <trkpt lat="47.49186" lon="6.77279">
        <ele>311</ele>
        <time>2015-06-28T10:28:06.000Z</time>
      </trkpt>
      <trkpt lat="47.49186" lon="6.77273">
        <ele>311</ele>
        <time>2015-06-28T10:28:07.000Z</time>
      </trkpt>
      <trkpt lat="47.49186" lon="6.77266">
        <ele>311</ele>
        <time>2015-06-28T10:28:08.000Z</time>
      </trkpt>
      <trkpt lat="47.49187" lon="6.77261">
        <ele>311</ele>
        <time>2015-06-28T10:28:09.000Z</time>
      </trkpt>
      <trkpt lat="47.49188" lon="6.77255">
        <ele>311</ele>
        <time>2015-06-28T10:28:10.000Z</time>
      </trkpt>
      <trkpt lat="47.49187" lon="6.7725">
        <ele>312</ele>
        <time>2015-06-28T10:28:11.000Z</time>
      </trkpt>
      <trkpt lat="47.49187" lon="6.77246">
        <ele>312</ele>
        <time>2015-06-28T10:28:12.000Z</time>
      </trkpt>
      <trkpt lat="47.49186" lon="6.77241">
        <ele>312</ele>
        <time>2015-06-28T10:28:13.000Z</time>
      </trkpt>
      <trkpt lat="47.49185" lon="6.77236">
        <ele>312</ele>
        <time>2015-06-28T10:28:14.000Z</time>
      </trkpt>
      <trkpt lat="47.49185" lon="6.77231">
        <ele>312</ele>
        <time>2015-06-28T10:28:15.000Z</time>
      </trkpt>
      <trkpt lat="47.49185" lon="6.77226">
        <ele>312</ele>
        <time>2015-06-28T10:28:16.000Z</time>
      </trkpt>
      <trkpt lat="47.49185" lon="6.7722">
        <ele>312</ele>
        <time>2015-06-28T10:28:17.000Z</time>
      </trkpt>
      <trkpt lat="47.49186" lon="6.77214">
        <ele>312</ele>
        <time>2015-06-28T10:28:18.000Z</time>
      </trkpt>
      <trkpt lat="47.49186" lon="6.77208">
        <ele>312</ele>
        <time>2015-06-28T10:28:19.000Z</time>
      </trkpt>
      <trkpt lat="47.49187" lon="6.77203">
        <ele>312</ele>
        <time>2015-06-28T10:28:20.000Z</time>
      </trkpt>
      <trkpt lat="47.49187" lon="6.77198">
        <ele>312</ele>
        <time>2015-06-28T10:28:21.000Z</time>
      </trkpt>
      <trkpt lat="47.49187" lon="6.77194">
        <ele>312</ele>
        <time>2015-06-28T10:28:22.000Z</time>
      </trkpt>
      <trkpt lat="47.49186" lon="6.77191">
        <ele>312</ele>
        <time>2015-06-28T10:28:23.000Z</time>
      </trkpt>
      <trkpt lat="47.49185" lon="6.77188">
        <ele>313</ele>
        <time>2015-06-28T10:28:24.000Z</time>
      </trkpt>
      <trkpt lat="47.49185" lon="6.77183">
        <ele>313</ele>
        <time>2015-06-28T10:28:25.000Z</time>
      </trkpt>
      <trkpt lat="47.49184" lon="6.77178">
        <ele>313</ele>
        <time>2015-06-28T10:28:26.000Z</time>
      </trkpt>
      <trkpt lat="47.49183" lon="6.77172">
        <ele>313</ele>
        <time>2015-06-28T10:28:27.000Z</time>
      </trkpt>
      <trkpt lat="47.49183" lon="6.77166">
        <ele>313</ele>
        <time>2015-06-28T10:28:28.000Z</time>
      </trkpt>
      <trkpt lat="47.49183" lon="6.77161">
        <ele>313</ele>
        <time>2015-06-28T10:28:29.000Z</time>
      </trkpt>
      <trkpt lat="47.49183" lon="6.77156">
        <ele>313</ele>
        <time>2015-06-28T10:28:30.000Z</time>
      </trkpt>
      <trkpt lat="47.49183" lon="6.77152">
        <ele>313</ele>
        <time>2015-06-28T10:28:31.000Z</time>
      </trkpt>
      <trkpt lat="47.49183" lon="6.77148">
        <ele>313</ele>
        <time>2015-06-28T10:28:32.000Z</time>
      </trkpt>
      <trkpt lat="47.49183" lon="6.77145">
        <ele>313</ele>
        <time>2015-06-28T10:28:33.000Z</time>
      </trkpt>
      <trkpt lat="47.49183" lon="6.77141">
        <ele>313</ele>
        <time>2015-06-28T10:28:34.000Z</time>
      </trkpt>
      <trkpt lat="47.49181" lon="6.77133">
        <ele>313</ele>
        <time>2015-06-28T10:28:35.000Z</time>
      </trkpt>
      <trkpt lat="47.49177" lon="6.77128">
        <ele>313</ele>
        <time>2015-06-28T10:28:36.000Z</time>
      </trkpt>
      <trkpt lat="47.49176" lon="6.77123">
        <ele>313</ele>
        <time>2015-06-28T10:28:37.000Z</time>
      </trkpt>
      <trkpt lat="47.49173" lon="6.77117">
        <ele>313</ele>
        <time>2015-06-28T10:28:38.000Z</time>
      </trkpt>
      <trkpt lat="47.49172" lon="6.77111">
        <ele>313</ele>
        <time>2015-06-28T10:28:39.000Z</time>
      </trkpt>
      <trkpt lat="47.49171" lon="6.77106">
        <ele>312</ele>
        <time>2015-06-28T10:28:40.000Z</time>
      </trkpt>
      <trkpt lat="47.49169" lon="6.77102">
        <ele>312</ele>
        <time>2015-06-28T10:28:41.000Z</time>
      </trkpt>
      <trkpt lat="47.49169" lon="6.77097">
        <ele>312</ele>
        <time>2015-06-28T10:28:42.000Z</time>
      </trkpt>
      <trkpt lat="47.49168" lon="6.77095">
        <ele>312</ele>
        <time>2015-06-28T10:28:43.000Z</time>
      </trkpt>
      <trkpt lat="47.49167" lon="6.7709">
        <ele>312</ele>
        <time>2015-06-28T10:28:44.000Z</time>
      </trkpt>
      <trkpt lat="47.49166" lon="6.77084">
        <ele>312</ele>
        <time>2015-06-28T10:28:45.000Z</time>
      </trkpt>
      <trkpt lat="47.49166" lon="6.77078">
        <ele>312</ele>
        <time>2015-06-28T10:28:46.000Z</time>
      </trkpt>
      <trkpt lat="47.49165" lon="6.77074">
        <ele>312</ele>
        <time>2015-06-28T10:28:47.000Z</time>
      </trkpt>
      <trkpt lat="47.49165" lon="6.77068">
        <ele>312</ele>
        <time>2015-06-28T10:28:48.000Z</time>
      </trkpt>
      <trkpt lat="47.49165" lon="6.77061">
        <ele>312</ele>
        <time>2015-06-28T10:28:49.000Z</time>
      </trkpt>
      <trkpt lat="47.49165" lon="6.77055">
        <ele>312</ele>
        <time>2015-06-28T10:28:50.000Z</time>
      </trkpt>
      <trkpt lat="47.49164" lon="6.7705">
        <ele>312</ele>
        <time>2015-06-28T10:28:51.000Z</time>
      </trkpt>
      <trkpt lat="47.49163" lon="6.77044">
        <ele>312</ele>
        <time>2015-06-28T10:28:52.000Z</time>
      </trkpt>
      <trkpt lat="47.49162" lon="6.77039">
        <ele>312</ele>
        <time>2015-06-28T10:28:53.000Z</time>
      </trkpt>
      <trkpt lat="47.49161" lon="6.77033">
        <ele>312</ele>
        <time>2015-06-28T10:28:54.000Z</time>
      </trkpt>
      <trkpt lat="47.4916" lon="6.77026">
        <ele>312</ele>
        <time>2015-06-28T10:28:55.000Z</time>
      </trkpt>
      <trkpt lat="47.49155" lon="6.77018">
        <ele>312</ele>
        <time>2015-06-28T10:28:56.000Z</time>
      </trkpt>
      <trkpt lat="47.49155" lon="6.77012">
        <ele>312</ele>
        <time>2015-06-28T10:28:57.000Z</time>
      </trkpt>
      <trkpt lat="47.49153" lon="6.77007">
        <ele>312</ele>
        <time>2015-06-28T10:28:58.000Z</time>
      </trkpt>
      <trkpt lat="47.49153" lon="6.77001">
        <ele>312</ele>
        <time>2015-06-28T10:28:59.000Z</time>
      </trkpt>
      <trkpt lat="47.49153" lon="6.76998">
        <ele>312</ele>
        <time>2015-06-28T10:29:00.000Z</time>
      </trkpt>
      <trkpt lat="47.49151" lon="6.76992">
        <ele>312</ele>
        <time>2015-06-28T10:29:01.000Z</time>
      </trkpt>
      <trkpt lat="47.49152" lon="6.76985">
        <ele>312</ele>
        <time>2015-06-28T10:29:02.000Z</time>
      </trkpt>
      <trkpt lat="47.49152" lon="6.76981">
        <ele>312</ele>
        <time>2015-06-28T10:29:03.000Z</time>
      </trkpt>
      <trkpt lat="47.49153" lon="6.76977">
        <ele>312</ele>
        <time>2015-06-28T10:29:04.000Z</time>
      </trkpt>
      <trkpt lat="47.49152" lon="6.76974">
        <ele>312</ele>
        <time>2015-06-28T10:29:05.000Z</time>
      </trkpt>
      <trkpt lat="47.49152" lon="6.7697">
        <ele>312</ele>
        <time>2015-06-28T10:29:06.000Z</time>
      </trkpt>
      <trkpt lat="47.49153" lon="6.76964">
        <ele>312</ele>
        <time>2015-06-28T10:29:08.000Z</time>
      </trkpt>
      <trkpt lat="47.49153" lon="6.7696">
        <ele>312</ele>
        <time>2015-06-28T10:29:09.000Z</time>
      </trkpt>
      <trkpt lat="47.49153" lon="6.76954">
        <ele>312</ele>
        <time>2015-06-28T10:29:10.000Z</time>
      </trkpt>
      <trkpt lat="47.49153" lon="6.76948">
        <ele>312</ele>
        <time>2015-06-28T10:29:11.000Z</time>
      </trkpt>
      <trkpt lat="47.49153" lon="6.76941">
        <ele>312</ele>
        <time>2015-06-28T10:29:12.000Z</time>
      </trkpt>
      <trkpt lat="47.49153" lon="6.76934">
        <ele>312</ele>
        <time>2015-06-28T10:29:13.000Z</time>
      </trkpt>
      <trkpt lat="47.49153" lon="6.76926">
        <ele>312</ele>
        <time>2015-06-28T10:29:14.000Z</time>
      </trkpt>
      <trkpt lat="47.49152" lon="6.7692">
        <ele>312</ele>
        <time>2015-06-28T10:29:15.000Z</time>
      </trkpt>
      <trkpt lat="47.49152" lon="6.76912">
        <ele>313</ele>
        <time>2015-06-28T10:29:16.000Z</time>
      </trkpt>
      <trkpt lat="47.49151" lon="6.76905">
        <ele>312</ele>
        <time>2015-06-28T10:29:17.000Z</time>
      </trkpt>
      <trkpt lat="47.49151" lon="6.76899">
        <ele>312</ele>
        <time>2015-06-28T10:29:18.000Z</time>
      </trkpt>
      <trkpt lat="47.4915" lon="6.76892">
        <ele>312</ele>
        <time>2015-06-28T10:29:19.000Z</time>
      </trkpt>
      <trkpt lat="47.4915" lon="6.76886">
        <ele>312</ele>
        <time>2015-06-28T10:29:20.000Z</time>
      </trkpt>
      <trkpt lat="47.4915" lon="6.76881">
        <ele>312</ele>
        <time>2015-06-28T10:29:21.000Z</time>
      </trkpt>
      <trkpt lat="47.4915" lon="6.76875">
        <ele>312</ele>
        <time>2015-06-28T10:29:22.000Z</time>
      </trkpt>
      <trkpt lat="47.4915" lon="6.76868">
        <ele>312</ele>
        <time>2015-06-28T10:29:23.000Z</time>
      </trkpt>
      <trkpt lat="47.49151" lon="6.76862">
        <ele>312</ele>
        <time>2015-06-28T10:29:24.000Z</time>
      </trkpt>
      <trkpt lat="47.49152" lon="6.76855">
        <ele>312</ele>
        <time>2015-06-28T10:29:25.000Z</time>
      </trkpt>
      <trkpt lat="47.49153" lon="6.76849">
        <ele>312</ele>
        <time>2015-06-28T10:29:26.000Z</time>
      </trkpt>
      <trkpt lat="47.49154" lon="6.76844">
        <ele>313</ele>
        <time>2015-06-28T10:29:27.000Z</time>
      </trkpt>
      <trkpt lat="47.49156" lon="6.76841">
        <ele>313</ele>
        <time>2015-06-28T10:29:28.000Z</time>
      </trkpt>
      <trkpt lat="47.49159" lon="6.76837">
        <ele>313</ele>
        <time>2015-06-28T10:29:29.000Z</time>
      </trkpt>
      <trkpt lat="47.49162" lon="6.76835">
        <ele>313</ele>
        <time>2015-06-28T10:29:30.000Z</time>
      </trkpt>
      <trkpt lat="47.49164" lon="6.76832">
        <ele>313</ele>
        <time>2015-06-28T10:29:31.000Z</time>
      </trkpt>
      <trkpt lat="47.49165" lon="6.76828">
        <ele>313</ele>
        <time>2015-06-28T10:29:32.000Z</time>
      </trkpt>
      <trkpt lat="47.49166" lon="6.76824">
        <ele>313</ele>
        <time>2015-06-28T10:29:33.000Z</time>
      </trkpt>
      <trkpt lat="47.49167" lon="6.76819">
        <ele>314</ele>
        <time>2015-06-28T10:29:34.000Z</time>
      </trkpt>
      <trkpt lat="47.49167" lon="6.76813">
        <ele>314</ele>
        <time>2015-06-28T10:29:35.000Z</time>
      </trkpt>
      <trkpt lat="47.49168" lon="6.76807">
        <ele>314</ele>
        <time>2015-06-28T10:29:36.000Z</time>
      </trkpt>
      <trkpt lat="47.4917" lon="6.76802">
        <ele>314</ele>
        <time>2015-06-28T10:29:37.000Z</time>
      </trkpt>
      <trkpt lat="47.49172" lon="6.76798">
        <ele>314</ele>
        <time>2015-06-28T10:29:38.000Z</time>
      </trkpt>
      <trkpt lat="47.49176" lon="6.76795">
        <ele>314</ele>
        <time>2015-06-28T10:29:39.000Z</time>
      </trkpt>
      <trkpt lat="47.49179" lon="6.76793">
        <ele>315</ele>
        <time>2015-06-28T10:29:40.000Z</time>
      </trkpt>
      <trkpt lat="47.49183" lon="6.76792">
        <ele>315</ele>
        <time>2015-06-28T10:29:41.000Z</time>
      </trkpt>
      <trkpt lat="47.49187" lon="6.7679">
        <ele>315</ele>
        <time>2015-06-28T10:29:42.000Z</time>
      </trkpt>
      <trkpt lat="47.4919" lon="6.76788">
        <ele>315</ele>
        <time>2015-06-28T10:29:43.000Z</time>
      </trkpt>
      <trkpt lat="47.49194" lon="6.76786">
        <ele>315</ele>
        <time>2015-06-28T10:29:44.000Z</time>
      </trkpt>
      <trkpt lat="47.49197" lon="6.76784">
        <ele>315</ele>
        <time>2015-06-28T10:29:45.000Z</time>
      </trkpt>
      <trkpt lat="47.492" lon="6.76781">
        <ele>315</ele>
        <time>2015-06-28T10:29:46.000Z</time>
      </trkpt>
      <trkpt lat="47.49203" lon="6.76779">
        <ele>315</ele>
        <time>2015-06-28T10:29:47.000Z</time>
      </trkpt>
      <trkpt lat="47.49206" lon="6.76777">
        <ele>315</ele>
        <time>2015-06-28T10:29:48.000Z</time>
      </trkpt>
      <trkpt lat="47.49209" lon="6.76775">
        <ele>315</ele>
        <time>2015-06-28T10:29:49.000Z</time>
      </trkpt>
      <trkpt lat="47.49212" lon="6.76774">
        <ele>315</ele>
        <time>2015-06-28T10:29:50.000Z</time>
      </trkpt>
      <trkpt lat="47.49214" lon="6.76772">
        <ele>316</ele>
        <time>2015-06-28T10:29:51.000Z</time>
      </trkpt>
      <trkpt lat="47.49217" lon="6.76771">
        <ele>316</ele>
        <time>2015-06-28T10:29:52.000Z</time>
      </trkpt>
      <trkpt lat="47.49219" lon="6.7677">
        <ele>316</ele>
        <time>2015-06-28T10:29:53.000Z</time>
      </trkpt>
      <trkpt lat="47.49222" lon="6.76768">
        <ele>316</ele>
        <time>2015-06-28T10:29:54.000Z</time>
      </trkpt>
      <trkpt lat="47.49225" lon="6.76767">
        <ele>316</ele>
        <time>2015-06-28T10:29:55.000Z</time>
      </trkpt>
      <trkpt lat="47.49228" lon="6.76766">
        <ele>316</ele>
        <time>2015-06-28T10:29:56.000Z</time>
      </trkpt>
      <trkpt lat="47.49231" lon="6.76766">
        <ele>316</ele>
        <time>2015-06-28T10:29:57.000Z</time>
      </trkpt>
      <trkpt lat="47.49233" lon="6.76767">
        <ele>316</ele>
        <time>2015-06-28T10:29:58.000Z</time>
      </trkpt>
      <trkpt lat="47.49236" lon="6.76768">
        <ele>316</ele>
        <time>2015-06-28T10:29:59.000Z</time>
      </trkpt>
      <trkpt lat="47.49239" lon="6.76767">
        <ele>316</ele>
        <time>2015-06-28T10:30:00.000Z</time>
      </trkpt>
      <trkpt lat="47.49242" lon="6.76765">
        <ele>317</ele>
        <time>2015-06-28T10:30:01.000Z</time>
      </trkpt>
      <trkpt lat="47.49243" lon="6.76761">
        <ele>317</ele>
        <time>2015-06-28T10:30:02.000Z</time>
      </trkpt>
      <trkpt lat="47.49243" lon="6.76757">
        <ele>317</ele>
        <time>2015-06-28T10:30:03.000Z</time>
      </trkpt>
      <trkpt lat="47.49243" lon="6.76753">
        <ele>317</ele>
        <time>2015-06-28T10:30:04.000Z</time>
      </trkpt>
      <trkpt lat="47.49241" lon="6.7675">
        <ele>317</ele>
        <time>2015-06-28T10:30:05.000Z</time>
      </trkpt>
      <trkpt lat="47.4924" lon="6.76746">
        <ele>317</ele>
        <time>2015-06-28T10:30:06.000Z</time>
      </trkpt>
      <trkpt lat="47.4924" lon="6.76743">
        <ele>317</ele>
        <time>2015-06-28T10:30:07.000Z</time>
      </trkpt>
      <trkpt lat="47.4924" lon="6.76739">
        <ele>317</ele>
        <time>2015-06-28T10:30:08.000Z</time>
      </trkpt>
      <trkpt lat="47.4924" lon="6.76735">
        <ele>317</ele>
        <time>2015-06-28T10:30:09.000Z</time>
      </trkpt>
      <trkpt lat="47.4924" lon="6.76731">
        <ele>317</ele>
        <time>2015-06-28T10:30:10.000Z</time>
      </trkpt>
      <trkpt lat="47.49241" lon="6.76725">
        <ele>317</ele>
        <time>2015-06-28T10:30:12.000Z</time>
      </trkpt>
      <trkpt lat="47.49241" lon="6.76722">
        <ele>317</ele>
        <time>2015-06-28T10:30:13.000Z</time>
      </trkpt>
      <trkpt lat="47.49241" lon="6.76716">
        <ele>317</ele>
        <time>2015-06-28T10:30:15.000Z</time>
      </trkpt>
      <trkpt lat="47.4924" lon="6.76713">
        <ele>317</ele>
        <time>2015-06-28T10:30:16.000Z</time>
      </trkpt>
      <trkpt lat="47.49241" lon="6.7671">
        <ele>317</ele>
        <time>2015-06-28T10:30:17.000Z</time>
      </trkpt>
      <trkpt lat="47.49241" lon="6.76706">
        <ele>317</ele>
        <time>2015-06-28T10:30:18.000Z</time>
      </trkpt>
      <trkpt lat="47.49241" lon="6.767">
        <ele>317</ele>
        <time>2015-06-28T10:30:20.000Z</time>
      </trkpt>
      <trkpt lat="47.49241" lon="6.76697">
        <ele>317</ele>
        <time>2015-06-28T10:30:21.000Z</time>
      </trkpt>
      <trkpt lat="47.49241" lon="6.76693">
        <ele>317</ele>
        <time>2015-06-28T10:30:23.000Z</time>
      </trkpt>
      <trkpt lat="47.49241" lon="6.7669">
        <ele>317</ele>
        <time>2015-06-28T10:30:24.000Z</time>
      </trkpt>
      <trkpt lat="47.49242" lon="6.76686">
        <ele>317</ele>
        <time>2015-06-28T10:30:26.000Z</time>
      </trkpt>
      <trkpt lat="47.49243" lon="6.76684">
        <ele>318</ele>
        <time>2015-06-28T10:30:27.000Z</time>
      </trkpt>
      <trkpt lat="47.49245" lon="6.7668">
        <ele>318</ele>
        <time>2015-06-28T10:30:29.000Z</time>
      </trkpt>
      <trkpt lat="47.49246" lon="6.76678">
        <ele>318</ele>
        <time>2015-06-28T10:30:30.000Z</time>
      </trkpt>
      <trkpt lat="47.49249" lon="6.76675">
        <ele>318</ele>
        <time>2015-06-28T10:30:33.000Z</time>
      </trkpt>
      <trkpt lat="47.4925" lon="6.76674">
        <ele>318</ele>
        <time>2015-06-28T10:30:34.000Z</time>
      </trkpt>
      <trkpt lat="47.49252" lon="6.7667">
        <ele>319</ele>
        <time>2015-06-28T10:30:36.000Z</time>
      </trkpt>
      <trkpt lat="47.49253" lon="6.76667">
        <ele>319</ele>
        <time>2015-06-28T10:30:37.000Z</time>
      </trkpt>
      <trkpt lat="47.49255" lon="6.76663">
        <ele>321</ele>
        <time>2015-06-28T10:30:39.000Z</time>
      </trkpt>
      <trkpt lat="47.49256" lon="6.76661">
        <ele>321</ele>
        <time>2015-06-28T10:30:40.000Z</time>
      </trkpt>
      <trkpt lat="47.49259" lon="6.76657">
        <ele>322</ele>
        <time>2015-06-28T10:30:43.000Z</time>
      </trkpt>
      <trkpt lat="47.4926" lon="6.76655">
        <ele>322</ele>
        <time>2015-06-28T10:30:44.000Z</time>
      </trkpt>
      <trkpt lat="47.49262" lon="6.7665">
        <ele>323</ele>
        <time>2015-06-28T10:30:46.000Z</time>
      </trkpt>
      <trkpt lat="47.49263" lon="6.76647">
        <ele>323</ele>
        <time>2015-06-28T10:30:47.000Z</time>
      </trkpt>
      <trkpt lat="47.49265" lon="6.76645">
        <ele>324</ele>
        <time>2015-06-28T10:30:49.000Z</time>
      </trkpt>
      <trkpt lat="47.49266" lon="6.76643">
        <ele>324</ele>
        <time>2015-06-28T10:30:50.000Z</time>
      </trkpt>
      <trkpt lat="47.49268" lon="6.7664">
        <ele>324</ele>
        <time>2015-06-28T10:30:52.000Z</time>
      </trkpt>
      <trkpt lat="47.49269" lon="6.76638">
        <ele>324</ele>
        <time>2015-06-28T10:30:53.000Z</time>
      </trkpt>
      <trkpt lat="47.49271" lon="6.76634">
        <ele>325</ele>
        <time>2015-06-28T10:30:55.000Z</time>
      </trkpt>
      <trkpt lat="47.49272" lon="6.76632">
        <ele>325</ele>
        <time>2015-06-28T10:30:56.000Z</time>
      </trkpt>
      <trkpt lat="47.49273" lon="6.76628">
        <ele>325</ele>
        <time>2015-06-28T10:30:58.000Z</time>
      </trkpt>
      <trkpt lat="47.49275" lon="6.76627">
        <ele>325</ele>
        <time>2015-06-28T10:30:59.000Z</time>
      </trkpt>
      <trkpt lat="47.49277" lon="6.76622">
        <ele>325</ele>
        <time>2015-06-28T10:31:02.000Z</time>
      </trkpt>
      <trkpt lat="47.49278" lon="6.7662">
        <ele>325</ele>
        <time>2015-06-28T10:31:03.000Z</time>
      </trkpt>
      <trkpt lat="47.49281" lon="6.76617">
        <ele>326</ele>
        <time>2015-06-28T10:31:06.000Z</time>
      </trkpt>
      <trkpt lat="47.49282" lon="6.76617">
        <ele>326</ele>
        <time>2015-06-28T10:31:07.000Z</time>
      </trkpt>
      <trkpt lat="47.49285" lon="6.76618">
        <ele>326</ele>
        <time>2015-06-28T10:31:09.000Z</time>
      </trkpt>
      <trkpt lat="47.49287" lon="6.76618">
        <ele>326</ele>
        <time>2015-06-28T10:31:10.000Z</time>
      </trkpt>
      <trkpt lat="47.4929" lon="6.76619">
        <ele>326</ele>
        <time>2015-06-28T10:31:12.000Z</time>
      </trkpt>
      <trkpt lat="47.49292" lon="6.76619">
        <ele>326</ele>
        <time>2015-06-28T10:31:13.000Z</time>
      </trkpt>
      <trkpt lat="47.49295" lon="6.76617">
        <ele>327</ele>
        <time>2015-06-28T10:31:15.000Z</time>
      </trkpt>
      <trkpt lat="47.49297" lon="6.76616">
        <ele>327</ele>
        <time>2015-06-28T10:31:16.000Z</time>
      </trkpt>
      <trkpt lat="47.493" lon="6.76614">
        <ele>327</ele>
        <time>2015-06-28T10:31:18.000Z</time>
      </trkpt>
      <trkpt lat="47.49302" lon="6.76614">
        <ele>327</ele>
        <time>2015-06-28T10:31:19.000Z</time>
      </trkpt>
      <trkpt lat="47.49306" lon="6.76612">
        <ele>328</ele>
        <time>2015-06-28T10:31:21.000Z</time>
      </trkpt>
      <trkpt lat="47.49308" lon="6.76612">
        <ele>328</ele>
        <time>2015-06-28T10:31:22.000Z</time>
      </trkpt>
      <trkpt lat="47.49311" lon="6.7661">
        <ele>328</ele>
        <time>2015-06-28T10:31:24.000Z</time>
      </trkpt>
      <trkpt lat="47.49313" lon="6.76609">
        <ele>329</ele>
        <time>2015-06-28T10:31:25.000Z</time>
      </trkpt>
      <trkpt lat="47.49316" lon="6.76609">
        <ele>329</ele>
        <time>2015-06-28T10:31:27.000Z</time>
      </trkpt>
      <trkpt lat="47.49318" lon="6.76609">
        <ele>329</ele>
        <time>2015-06-28T10:31:28.000Z</time>
      </trkpt>
      <trkpt lat="47.49322" lon="6.76608">
        <ele>330</ele>
        <time>2015-06-28T10:31:30.000Z</time>
      </trkpt>
      <trkpt lat="47.49324" lon="6.76607">
        <ele>330</ele>
        <time>2015-06-28T10:31:31.000Z</time>
      </trkpt>
      <trkpt lat="47.49327" lon="6.76606">
        <ele>330</ele>
        <time>2015-06-28T10:31:33.000Z</time>
      </trkpt>
      <trkpt lat="47.49329" lon="6.76606">
        <ele>330</ele>
        <time>2015-06-28T10:31:34.000Z</time>
      </trkpt>
      <trkpt lat="47.49333" lon="6.76605">
        <ele>331</ele>
        <time>2015-06-28T10:31:37.000Z</time>
      </trkpt>
      <trkpt lat="47.49334" lon="6.76605">
        <ele>336</ele>
        <time>2015-06-28T10:31:38.000Z</time>
      </trkpt>
      <trkpt lat="47.49337" lon="6.76605">
        <ele>336</ele>
        <time>2015-06-28T10:31:40.000Z</time>
      </trkpt>
      <trkpt lat="47.49339" lon="6.76605">
        <ele>336</ele>
        <time>2015-06-28T10:31:41.000Z</time>
      </trkpt>
      <trkpt lat="47.49343" lon="6.76607">
        <ele>336</ele>
        <time>2015-06-28T10:31:44.000Z</time>
      </trkpt>
      <trkpt lat="47.49345" lon="6.76607">
        <ele>336</ele>
        <time>2015-06-28T10:31:45.000Z</time>
      </trkpt>
      <trkpt lat="47.49349" lon="6.76607">
        <ele>336</ele>
        <time>2015-06-28T10:31:47.000Z</time>
      </trkpt>
      <trkpt lat="47.4935" lon="6.76608">
        <ele>336</ele>
        <time>2015-06-28T10:31:48.000Z</time>
      </trkpt>
      <trkpt lat="47.49354" lon="6.76608">
        <ele>337</ele>
        <time>2015-06-28T10:31:50.000Z</time>
      </trkpt>
      <trkpt lat="47.49356" lon="6.76608">
        <ele>337</ele>
        <time>2015-06-28T10:31:51.000Z</time>
      </trkpt>
      <trkpt lat="47.4936" lon="6.76608">
        <ele>337</ele>
        <time>2015-06-28T10:31:54.000Z</time>
      </trkpt>
      <trkpt lat="47.49362" lon="6.76608">
        <ele>337</ele>
        <time>2015-06-28T10:31:55.000Z</time>
      </trkpt>
      <trkpt lat="47.49365" lon="6.76609">
        <ele>337</ele>
        <time>2015-06-28T10:31:57.000Z</time>
      </trkpt>
      <trkpt lat="47.49366" lon="6.76609">
        <ele>337</ele>
        <time>2015-06-28T10:31:58.000Z</time>
      </trkpt>
      <trkpt lat="47.49371" lon="6.76609">
        <ele>337</ele>
        <time>2015-06-28T10:32:02.000Z</time>
      </trkpt>
      <trkpt lat="47.49372" lon="6.7661">
        <ele>337</ele>
        <time>2015-06-28T10:32:03.000Z</time>
      </trkpt>
      <trkpt lat="47.49376" lon="6.7661">
        <ele>338</ele>
        <time>2015-06-28T10:32:06.000Z</time>
      </trkpt>
      <trkpt lat="47.49378" lon="6.7661">
        <ele>338</ele>
        <time>2015-06-28T10:32:07.000Z</time>
      </trkpt>
      <trkpt lat="47.49381" lon="6.7661">
        <ele>338</ele>
        <time>2015-06-28T10:32:09.000Z</time>
      </trkpt>
      <trkpt lat="47.49383" lon="6.7661">
        <ele>338</ele>
        <time>2015-06-28T10:32:10.000Z</time>
      </trkpt>
      <trkpt lat="47.49387" lon="6.7661">
        <ele>338</ele>
        <time>2015-06-28T10:32:12.000Z</time>
      </trkpt>
      <trkpt lat="47.49389" lon="6.7661">
        <ele>339</ele>
        <time>2015-06-28T10:32:13.000Z</time>
      </trkpt>
      <trkpt lat="47.49392" lon="6.7661">
        <ele>339</ele>
        <time>2015-06-28T10:32:15.000Z</time>
      </trkpt>
      <trkpt lat="47.49394" lon="6.7661">
        <ele>339</ele>
        <time>2015-06-28T10:32:16.000Z</time>
      </trkpt>
      <trkpt lat="47.49397" lon="6.76612">
        <ele>339</ele>
        <time>2015-06-28T10:32:19.000Z</time>
      </trkpt>
      <trkpt lat="47.49399" lon="6.76613">
        <ele>339</ele>
        <time>2015-06-28T10:32:20.000Z</time>
      </trkpt>
      <trkpt lat="47.49403" lon="6.76613">
        <ele>339</ele>
        <time>2015-06-28T10:32:22.000Z</time>
      </trkpt>
      <trkpt lat="47.49404" lon="6.76613">
        <ele>339</ele>
        <time>2015-06-28T10:32:23.000Z</time>
      </trkpt>
      <trkpt lat="47.49408" lon="6.76612">
        <ele>340</ele>
        <time>2015-06-28T10:32:25.000Z</time>
      </trkpt>
      <trkpt lat="47.49409" lon="6.76611">
        <ele>340</ele>
        <time>2015-06-28T10:32:26.000Z</time>
      </trkpt>
      <trkpt lat="47.49413" lon="6.76611">
        <ele>340</ele>
        <time>2015-06-28T10:32:31.000Z</time>
      </trkpt>
      <trkpt lat="47.49414" lon="6.76611">
        <ele>340</ele>
        <time>2015-06-28T10:32:32.000Z</time>
      </trkpt>
      <trkpt lat="47.49418" lon="6.76613">
        <ele>345</ele>
        <time>2015-06-28T10:32:36.000Z</time>
      </trkpt>
      <trkpt lat="47.4942" lon="6.76612">
        <ele>345</ele>
        <time>2015-06-28T10:32:37.000Z</time>
      </trkpt>
      <trkpt lat="47.49424" lon="6.76611">
        <ele>345</ele>
        <time>2015-06-28T10:32:40.000Z</time>
      </trkpt>
      <trkpt lat="47.49425" lon="6.76611">
        <ele>345</ele>
        <time>2015-06-28T10:32:41.000Z</time>
      </trkpt>
      <trkpt lat="47.49422" lon="6.76609">
        <ele>345</ele>
        <time>2015-06-28T10:32:47.000Z</time>
      </trkpt>
      <trkpt lat="47.49419" lon="6.76609">
        <ele>345</ele>
        <time>2015-06-28T10:32:48.000Z</time>
      </trkpt>
      <trkpt lat="47.49416" lon="6.76609">
        <ele>340</ele>
        <time>2015-06-28T10:32:49.000Z</time>
      </trkpt>
      <trkpt lat="47.49414" lon="6.76609">
        <ele>340</ele>
        <time>2015-06-28T10:32:50.000Z</time>
      </trkpt>
      <trkpt lat="47.4941" lon="6.76611">
        <ele>340</ele>
        <time>2015-06-28T10:33:16.000Z</time>
      </trkpt>
      <trkpt lat="47.49409" lon="6.76611">
        <ele>340</ele>
        <time>2015-06-28T10:33:17.000Z</time>
      </trkpt>
      <trkpt lat="47.49413" lon="6.76607">
        <ele>341</ele>
        <time>2015-06-28T10:35:08.000Z</time>
      </trkpt>
      <trkpt lat="47.49413" lon="6.76607">
        <ele>341</ele>
        <time>2015-06-28T10:35:09.000Z</time>
      </trkpt>
      <trkpt lat="47.49417" lon="6.76607">
        <ele>345</ele>
        <time>2015-06-28T10:35:57.000Z</time>
      </trkpt>
      <trkpt lat="47.49418" lon="6.76607">
        <ele>345</ele>
        <time>2015-06-28T10:35:58.000Z</time>
      </trkpt>
      <trkpt lat="47.49423" lon="6.76607">
        <ele>345</ele>
        <time>2015-06-28T10:36:02.000Z</time>
      </trkpt>
      <trkpt lat="47.49424" lon="6.76607">
        <ele>345</ele>
        <time>2015-06-28T10:36:03.000Z</time>
      </trkpt>
      <trkpt lat="47.49427" lon="6.76607">
        <ele>345</ele>
        <time>2015-06-28T10:36:04.000Z</time>
      </trkpt>
      <trkpt lat="47.49429" lon="6.76607">
        <ele>345</ele>
        <time>2015-06-28T10:36:05.002Z</time>
      </trkpt>
      <trkpt lat="47.49432" lon="6.76607">
        <ele>345</ele>
        <time>2015-06-28T10:36:06.000Z</time>
      </trkpt>
      <trkpt lat="47.49435" lon="6.76607">
        <ele>345</ele>
        <time>2015-06-28T10:36:07.000Z</time>
      </trkpt>
      <trkpt lat="47.49438" lon="6.76606">
        <ele>345</ele>
        <time>2015-06-28T10:36:08.000Z</time>
      </trkpt>
      <trkpt lat="47.49441" lon="6.76606">
        <ele>346</ele>
        <time>2015-06-28T10:36:09.000Z</time>
      </trkpt>
      <trkpt lat="47.49444" lon="6.76606">
        <ele>346</ele>
        <time>2015-06-28T10:36:10.000Z</time>
      </trkpt>
      <trkpt lat="47.49447" lon="6.76607">
        <ele>346</ele>
        <time>2015-06-28T10:36:11.000Z</time>
      </trkpt>
      <trkpt lat="47.4945" lon="6.76608">
        <ele>346</ele>
        <time>2015-06-28T10:36:12.000Z</time>
      </trkpt>
      <trkpt lat="47.49453" lon="6.76609">
        <ele>346</ele>
        <time>2015-06-28T10:36:13.000Z</time>
      </trkpt>
      <trkpt lat="47.49456" lon="6.7661">
        <ele>346</ele>
        <time>2015-06-28T10:36:14.000Z</time>
      </trkpt>
      <trkpt lat="47.49459" lon="6.76611">
        <ele>346</ele>
        <time>2015-06-28T10:36:15.000Z</time>
      </trkpt>
      <trkpt lat="47.49463" lon="6.76612">
        <ele>346</ele>
        <time>2015-06-28T10:36:16.000Z</time>
      </trkpt>
      <trkpt lat="47.49466" lon="6.76612">
        <ele>346</ele>
        <time>2015-06-28T10:36:17.000Z</time>
      </trkpt>
      <trkpt lat="47.49469" lon="6.76613">
        <ele>346</ele>
        <time>2015-06-28T10:36:18.000Z</time>
      </trkpt>
      <trkpt lat="47.49471" lon="6.76613">
        <ele>347</ele>
        <time>2015-06-28T10:36:19.000Z</time>
      </trkpt>
      <trkpt lat="47.49475" lon="6.76615">
        <ele>347</ele>
        <time>2015-06-28T10:36:21.000Z</time>
      </trkpt>
      <trkpt lat="47.49476" lon="6.76615">
        <ele>347</ele>
        <time>2015-06-28T10:36:22.000Z</time>
      </trkpt>
      <trkpt lat="47.4948" lon="6.76613">
        <ele>347</ele>
        <time>2015-06-28T10:36:26.000Z</time>
      </trkpt>
      <trkpt lat="47.49482" lon="6.76612">
        <ele>347</ele>
        <time>2015-06-28T10:36:27.000Z</time>
      </trkpt>
      <trkpt lat="47.49486" lon="6.76611">
        <ele>348</ele>
        <time>2015-06-28T10:36:29.000Z</time>
      </trkpt>
      <trkpt lat="47.49488" lon="6.76611">
        <ele>348</ele>
        <time>2015-06-28T10:36:30.000Z</time>
      </trkpt>
      <trkpt lat="47.49492" lon="6.76611">
        <ele>348</ele>
        <time>2015-06-28T10:36:32.000Z</time>
      </trkpt>
      <trkpt lat="47.49493" lon="6.7661">
        <ele>348</ele>
        <time>2015-06-28T10:36:33.000Z</time>
      </trkpt>
      <trkpt lat="47.49497" lon="6.7661">
        <ele>348</ele>
        <time>2015-06-28T10:36:35.000Z</time>
      </trkpt>
      <trkpt lat="47.495" lon="6.7661">
        <ele>348</ele>
        <time>2015-06-28T10:36:36.000Z</time>
      </trkpt>
      <trkpt lat="47.49504" lon="6.7661">
        <ele>354</ele>
        <time>2015-06-28T10:36:38.000Z</time>
      </trkpt>
      <trkpt lat="47.49505" lon="6.7661">
        <ele>354</ele>
        <time>2015-06-28T10:36:39.000Z</time>
      </trkpt>
      <trkpt lat="47.49509" lon="6.76608">
        <ele>354</ele>
        <time>2015-06-28T10:36:41.000Z</time>
      </trkpt>
      <trkpt lat="47.4951" lon="6.76607">
        <ele>354</ele>
        <time>2015-06-28T10:36:42.000Z</time>
      </trkpt>
      <trkpt lat="47.49513" lon="6.76607">
        <ele>354</ele>
        <time>2015-06-28T10:36:44.000Z</time>
      </trkpt>
      <trkpt lat="47.49515" lon="6.76606">
        <ele>354</ele>
        <time>2015-06-28T10:36:45.000Z</time>
      </trkpt>
      <trkpt lat="47.49518" lon="6.76606">
        <ele>354</ele>
        <time>2015-06-28T10:36:47.001Z</time>
      </trkpt>
      <trkpt lat="47.4952" lon="6.76606">
        <ele>354</ele>
        <time>2015-06-28T10:36:48.000Z</time>
      </trkpt>
      <trkpt lat="47.49524" lon="6.76605">
        <ele>355</ele>
        <time>2015-06-28T10:36:53.000Z</time>
      </trkpt>
      <trkpt lat="47.49525" lon="6.76605">
        <ele>355</ele>
        <time>2015-06-28T10:36:54.000Z</time>
      </trkpt>
      <trkpt lat="47.49529" lon="6.76604">
        <ele>355</ele>
        <time>2015-06-28T10:36:58.000Z</time>
      </trkpt>
      <trkpt lat="47.4953" lon="6.76604">
        <ele>355</ele>
        <time>2015-06-28T10:36:59.000Z</time>
      </trkpt>
      <trkpt lat="47.49534" lon="6.76605">
        <ele>355</ele>
        <time>2015-06-28T10:37:03.000Z</time>
      </trkpt>
      <trkpt lat="47.49535" lon="6.76605">
        <ele>355</ele>
        <time>2015-06-28T10:37:04.000Z</time>
      </trkpt>
      <trkpt lat="47.49539" lon="6.76605">
        <ele>356</ele>
        <time>2015-06-28T10:37:07.000Z</time>
      </trkpt>
      <trkpt lat="47.4954" lon="6.76605">
        <ele>356</ele>
        <time>2015-06-28T10:37:08.000Z</time>
      </trkpt>
      <trkpt lat="47.49544" lon="6.76604">
        <ele>356</ele>
        <time>2015-06-28T10:37:12.000Z</time>
      </trkpt>
      <trkpt lat="47.49545" lon="6.76604">
        <ele>356</ele>
        <time>2015-06-28T10:37:13.000Z</time>
      </trkpt>
      <trkpt lat="47.49548" lon="6.76603">
        <ele>356</ele>
        <time>2015-06-28T10:37:16.000Z</time>
      </trkpt>
      <trkpt lat="47.49549" lon="6.76602">
        <ele>357</ele>
        <time>2015-06-28T10:37:17.000Z</time>
      </trkpt>
      <trkpt lat="47.49552" lon="6.76599">
        <ele>357</ele>
        <time>2015-06-28T10:37:20.000Z</time>
      </trkpt>
      <trkpt lat="47.49553" lon="6.76598">
        <ele>357</ele>
        <time>2015-06-28T10:37:21.000Z</time>
      </trkpt>
      <trkpt lat="47.49557" lon="6.76597">
        <ele>358</ele>
        <time>2015-06-28T10:37:25.000Z</time>
      </trkpt>
      <trkpt lat="47.49558" lon="6.76596">
        <ele>358</ele>
        <time>2015-06-28T10:37:26.000Z</time>
      </trkpt>
      <trkpt lat="47.49561" lon="6.76593">
        <ele>359</ele>
        <time>2015-06-28T10:37:30.000Z</time>
      </trkpt>
      <trkpt lat="47.49562" lon="6.76592">
        <ele>359</ele>
        <time>2015-06-28T10:37:31.000Z</time>
      </trkpt>
      <trkpt lat="47.49565" lon="6.76588">
        <ele>360</ele>
        <time>2015-06-28T10:37:34.000Z</time>
      </trkpt>
      <trkpt lat="47.49566" lon="6.76587">
        <ele>360</ele>
        <time>2015-06-28T10:37:35.000Z</time>
      </trkpt>
      <trkpt lat="47.49568" lon="6.76586">
        <ele>360</ele>
        <time>2015-06-28T10:37:36.999Z</time>
      </trkpt>
      <trkpt lat="47.4957" lon="6.76586">
        <ele>361</ele>
        <time>2015-06-28T10:37:38.000Z</time>
      </trkpt>
      <trkpt lat="47.49575" lon="6.76584">
        <ele>362</ele>
        <time>2015-06-28T10:37:41.000Z</time>
      </trkpt>
      <trkpt lat="47.49576" lon="6.76584">
        <ele>362</ele>
        <time>2015-06-28T10:37:42.000Z</time>
      </trkpt>
      <trkpt lat="47.4958" lon="6.76582">
        <ele>365</ele>
        <time>2015-06-28T10:37:45.000Z</time>
      </trkpt>
      <trkpt lat="47.49581" lon="6.7658">
        <ele>365</ele>
        <time>2015-06-28T10:37:46.000Z</time>
      </trkpt>
      <trkpt lat="47.49584" lon="6.76575">
        <ele>367</ele>
        <time>2015-06-28T10:37:49.000Z</time>
      </trkpt>
      <trkpt lat="47.49585" lon="6.76574">
        <ele>367</ele>
        <time>2015-06-28T10:37:50.000Z</time>
      </trkpt>
      <trkpt lat="47.49587" lon="6.7657">
        <ele>368</ele>
        <time>2015-06-28T10:37:53.000Z</time>
      </trkpt>
      <trkpt lat="47.49588" lon="6.76568">
        <ele>368</ele>
        <time>2015-06-28T10:37:54.000Z</time>
      </trkpt>
      <trkpt lat="47.4959" lon="6.76566">
        <ele>368</ele>
        <time>2015-06-28T10:37:56.000Z</time>
      </trkpt>
      <trkpt lat="47.49592" lon="6.76565">
        <ele>369</ele>
        <time>2015-06-28T10:37:57.000Z</time>
      </trkpt>
      <trkpt lat="47.49595" lon="6.76562">
        <ele>369</ele>
        <time>2015-06-28T10:37:59.000Z</time>
      </trkpt>
      <trkpt lat="47.49596" lon="6.76561">
        <ele>369</ele>
        <time>2015-06-28T10:38:00.000Z</time>
      </trkpt>
      <trkpt lat="47.49598" lon="6.76557">
        <ele>370</ele>
        <time>2015-06-28T10:38:02.000Z</time>
      </trkpt>
      <trkpt lat="47.49599" lon="6.76556">
        <ele>370</ele>
        <time>2015-06-28T10:38:03.000Z</time>
      </trkpt>
      <trkpt lat="47.49603" lon="6.76552">
        <ele>370</ele>
        <time>2015-06-28T10:38:06.000Z</time>
      </trkpt>
      <trkpt lat="47.49603" lon="6.7655">
        <ele>370</ele>
        <time>2015-06-28T10:38:07.000Z</time>
      </trkpt>
      <trkpt lat="47.49606" lon="6.76546">
        <ele>371</ele>
        <time>2015-06-28T10:38:10.000Z</time>
      </trkpt>
      <trkpt lat="47.49607" lon="6.76545">
        <ele>371</ele>
        <time>2015-06-28T10:38:11.000Z</time>
      </trkpt>
      <trkpt lat="47.4961" lon="6.7654">
        <ele>371</ele>
        <time>2015-06-28T10:38:15.000Z</time>
      </trkpt>
      <trkpt lat="47.4961" lon="6.76539">
        <ele>371</ele>
        <time>2015-06-28T10:38:16.000Z</time>
      </trkpt>
      <trkpt lat="47.49611" lon="6.76534">
        <ele>371</ele>
        <time>2015-06-28T10:38:19.000Z</time>
      </trkpt>
      <trkpt lat="47.49612" lon="6.76533">
        <ele>371</ele>
        <time>2015-06-28T10:38:20.000Z</time>
      </trkpt>
      <trkpt lat="47.49614" lon="6.76529">
        <ele>371</ele>
        <time>2015-06-28T10:38:22.000Z</time>
      </trkpt>
      <trkpt lat="47.49615" lon="6.76527">
        <ele>372</ele>
        <time>2015-06-28T10:38:23.000Z</time>
      </trkpt>
      <trkpt lat="47.49617" lon="6.76523">
        <ele>372</ele>
        <time>2015-06-28T10:38:26.000Z</time>
      </trkpt>
      <trkpt lat="47.49619" lon="6.76522">
        <ele>372</ele>
        <time>2015-06-28T10:38:27.000Z</time>
      </trkpt>
      <trkpt lat="47.49622" lon="6.76522">
        <ele>372</ele>
        <time>2015-06-28T10:38:30.000Z</time>
      </trkpt>
      <trkpt lat="47.49624" lon="6.76522">
        <ele>372</ele>
        <time>2015-06-28T10:38:31.000Z</time>
      </trkpt>
      <trkpt lat="47.49627" lon="6.76523">
        <ele>372</ele>
        <time>2015-06-28T10:38:33.000Z</time>
      </trkpt>
      <trkpt lat="47.49628" lon="6.76523">
        <ele>372</ele>
        <time>2015-06-28T10:38:34.000Z</time>
      </trkpt>
      <trkpt lat="47.49632" lon="6.76525">
        <ele>372</ele>
        <time>2015-06-28T10:38:36.000Z</time>
      </trkpt>
      <trkpt lat="47.49634" lon="6.76526">
        <ele>372</ele>
        <time>2015-06-28T10:38:37.000Z</time>
      </trkpt>
      <trkpt lat="47.49638" lon="6.76528">
        <ele>372</ele>
        <time>2015-06-28T10:38:39.000Z</time>
      </trkpt>
      <trkpt lat="47.49639" lon="6.76529">
        <ele>373</ele>
        <time>2015-06-28T10:38:40.000Z</time>
      </trkpt>
      <trkpt lat="47.49643" lon="6.76531">
        <ele>373</ele>
        <time>2015-06-28T10:38:42.000Z</time>
      </trkpt>
      <trkpt lat="47.49645" lon="6.76531">
        <ele>373</ele>
        <time>2015-06-28T10:38:43.000Z</time>
      </trkpt>
      <trkpt lat="47.49648" lon="6.76533">
        <ele>373</ele>
        <time>2015-06-28T10:38:45.000Z</time>
      </trkpt>
      <trkpt lat="47.4965" lon="6.76535">
        <ele>373</ele>
        <time>2015-06-28T10:38:46.000Z</time>
      </trkpt>
      <trkpt lat="47.49653" lon="6.76538">
        <ele>373</ele>
        <time>2015-06-28T10:38:49.000Z</time>
      </trkpt>
      <trkpt lat="47.49654" lon="6.76539">
        <ele>373</ele>
        <time>2015-06-28T10:38:50.000Z</time>
      </trkpt>
      <trkpt lat="47.49658" lon="6.7654">
        <ele>373</ele>
        <time>2015-06-28T10:38:52.000Z</time>
      </trkpt>
      <trkpt lat="47.4966" lon="6.76541">
        <ele>373</ele>
        <time>2015-06-28T10:38:53.000Z</time>
      </trkpt>
      <trkpt lat="47.49664" lon="6.76543">
        <ele>373</ele>
        <time>2015-06-28T10:38:55.000Z</time>
      </trkpt>
      <trkpt lat="47.49666" lon="6.76543">
        <ele>373</ele>
        <time>2015-06-28T10:38:56.000Z</time>
      </trkpt>
      <trkpt lat="47.4967" lon="6.76544">
        <ele>379</ele>
        <time>2015-06-28T10:38:58.000Z</time>
      </trkpt>
      <trkpt lat="47.49672" lon="6.76545">
        <ele>379</ele>
        <time>2015-06-28T10:38:59.000Z</time>
      </trkpt>
      <trkpt lat="47.49675" lon="6.76546">
        <ele>379</ele>
        <time>2015-06-28T10:39:01.000Z</time>
      </trkpt>
      <trkpt lat="47.49677" lon="6.76547">
        <ele>379</ele>
        <time>2015-06-28T10:39:02.000Z</time>
      </trkpt>
      <trkpt lat="47.4968" lon="6.76548">
        <ele>379</ele>
        <time>2015-06-28T10:39:03.000Z</time>
      </trkpt>
      <trkpt lat="47.49682" lon="6.76548">
        <ele>380</ele>
        <time>2015-06-28T10:39:04.000Z</time>
      </trkpt>
      <trkpt lat="47.49685" lon="6.76549">
        <ele>380</ele>
        <time>2015-06-28T10:39:05.000Z</time>
      </trkpt>
      <trkpt lat="47.49687" lon="6.7655">
        <ele>380</ele>
        <time>2015-06-28T10:39:06.000Z</time>
      </trkpt>
      <trkpt lat="47.4969" lon="6.76551">
        <ele>380</ele>
        <time>2015-06-28T10:39:07.000Z</time>
      </trkpt>
      <trkpt lat="47.49693" lon="6.76552">
        <ele>380</ele>
        <time>2015-06-28T10:39:08.000Z</time>
      </trkpt>
      <trkpt lat="47.49696" lon="6.76553">
        <ele>380</ele>
        <time>2015-06-28T10:39:09.000Z</time>
      </trkpt>
      <trkpt lat="47.49698" lon="6.76553">
        <ele>381</ele>
        <time>2015-06-28T10:39:10.000Z</time>
      </trkpt>
      <trkpt lat="47.49701" lon="6.76553">
        <ele>381</ele>
        <time>2015-06-28T10:39:11.000Z</time>
      </trkpt>
      <trkpt lat="47.49703" lon="6.76554">
        <ele>381</ele>
        <time>2015-06-28T10:39:12.000Z</time>
      </trkpt>
      <trkpt lat="47.49707" lon="6.76556">
        <ele>381</ele>
        <time>2015-06-28T10:39:14.000Z</time>
      </trkpt>
      <trkpt lat="47.49709" lon="6.76557">
        <ele>381</ele>
        <time>2015-06-28T10:39:15.000Z</time>
      </trkpt>
      <trkpt lat="47.49712" lon="6.76559">
        <ele>382</ele>
        <time>2015-06-28T10:39:17.000Z</time>
      </trkpt>
      <trkpt lat="47.49714" lon="6.76559">
        <ele>382</ele>
        <time>2015-06-28T10:39:18.000Z</time>
      </trkpt>
      <trkpt lat="47.49718" lon="6.7656">
        <ele>382</ele>
        <time>2015-06-28T10:39:20.000Z</time>
      </trkpt>
      <trkpt lat="47.49721" lon="6.76561">
        <ele>382</ele>
        <time>2015-06-28T10:39:21.000Z</time>
      </trkpt>
      <trkpt lat="47.49723" lon="6.76562">
        <ele>383</ele>
        <time>2015-06-28T10:39:22.000Z</time>
      </trkpt>
      <trkpt lat="47.49725" lon="6.76563">
        <ele>383</ele>
        <time>2015-06-28T10:39:23.000Z</time>
      </trkpt>
      <trkpt lat="47.49727" lon="6.76564">
        <ele>383</ele>
        <time>2015-06-28T10:39:24.000Z</time>
      </trkpt>
      <trkpt lat="47.49729" lon="6.76565">
        <ele>383</ele>
        <time>2015-06-28T10:39:25.000Z</time>
      </trkpt>
      <trkpt lat="47.49732" lon="6.76567">
        <ele>383</ele>
        <time>2015-06-28T10:39:26.000Z</time>
      </trkpt>
      <trkpt lat="47.49734" lon="6.76568">
        <ele>383</ele>
        <time>2015-06-28T10:39:27.000Z</time>
      </trkpt>
      <trkpt lat="47.49738" lon="6.7657">
        <ele>384</ele>
        <time>2015-06-28T10:39:29.000Z</time>
      </trkpt>
      <trkpt lat="47.4974" lon="6.76571">
        <ele>384</ele>
        <time>2015-06-28T10:39:30.000Z</time>
      </trkpt>
      <trkpt lat="47.49743" lon="6.76573">
        <ele>384</ele>
        <time>2015-06-28T10:39:32.000Z</time>
      </trkpt>
      <trkpt lat="47.49745" lon="6.76575">
        <ele>385</ele>
        <time>2015-06-28T10:39:33.000Z</time>
      </trkpt>
      <trkpt lat="47.49747" lon="6.76576">
        <ele>385</ele>
        <time>2015-06-28T10:39:34.000Z</time>
      </trkpt>
      <trkpt lat="47.4975" lon="6.76577">
        <ele>385</ele>
        <time>2015-06-28T10:39:35.000Z</time>
      </trkpt>
      <trkpt lat="47.49752" lon="6.76579">
        <ele>387</ele>
        <time>2015-06-28T10:39:36.000Z</time>
      </trkpt>
      <trkpt lat="47.49754" lon="6.7658">
        <ele>388</ele>
        <time>2015-06-28T10:39:37.000Z</time>
      </trkpt>
      <trkpt lat="47.49758" lon="6.76583">
        <ele>388</ele>
        <time>2015-06-28T10:39:39.000Z</time>
      </trkpt>
      <trkpt lat="47.4976" lon="6.76584">
        <ele>386</ele>
        <time>2015-06-28T10:39:40.000Z</time>
      </trkpt>
      <trkpt lat="47.49763" lon="6.76587">
        <ele>386</ele>
        <time>2015-06-28T10:39:42.000Z</time>
      </trkpt>
      <trkpt lat="47.49765" lon="6.76588">
        <ele>386</ele>
        <time>2015-06-28T10:39:43.000Z</time>
      </trkpt>
      <trkpt lat="47.49768" lon="6.76589">
        <ele>386</ele>
        <time>2015-06-28T10:39:45.000Z</time>
      </trkpt>
      <trkpt lat="47.49769" lon="6.7659">
        <ele>386</ele>
        <time>2015-06-28T10:39:46.000Z</time>
      </trkpt>
      <trkpt lat="47.49773" lon="6.76591">
        <ele>387</ele>
        <time>2015-06-28T10:39:48.000Z</time>
      </trkpt>
      <trkpt lat="47.49775" lon="6.76592">
        <ele>387</ele>
        <time>2015-06-28T10:39:49.000Z</time>
      </trkpt>
      <trkpt lat="47.49779" lon="6.76593">
        <ele>387</ele>
        <time>2015-06-28T10:39:51.000Z</time>
      </trkpt>
      <trkpt lat="47.49781" lon="6.76594">
        <ele>387</ele>
        <time>2015-06-28T10:39:52.000Z</time>
      </trkpt>
      <trkpt lat="47.49784" lon="6.76596">
        <ele>387</ele>
        <time>2015-06-28T10:39:54.000Z</time>
      </trkpt>
      <trkpt lat="47.49786" lon="6.76598">
        <ele>387</ele>
        <time>2015-06-28T10:39:55.000Z</time>
      </trkpt>
      <trkpt lat="47.49789" lon="6.76599">
        <ele>387</ele>
        <time>2015-06-28T10:39:56.000Z</time>
      </trkpt>
      <trkpt lat="47.49791" lon="6.76601">
        <ele>387</ele>
        <time>2015-06-28T10:39:57.000Z</time>
      </trkpt>
      <trkpt lat="47.49793" lon="6.76602">
        <ele>388</ele>
        <time>2015-06-28T10:39:58.000Z</time>
      </trkpt>
      <trkpt lat="47.49796" lon="6.76603">
        <ele>388</ele>
        <time>2015-06-28T10:39:59.000Z</time>
      </trkpt>
      <trkpt lat="47.49798" lon="6.76604">
        <ele>388</ele>
        <time>2015-06-28T10:40:00.000Z</time>
      </trkpt>
      <trkpt lat="47.498" lon="6.76605">
        <ele>388</ele>
        <time>2015-06-28T10:40:01.000Z</time>
      </trkpt>
      <trkpt lat="47.49803" lon="6.76608">
        <ele>388</ele>
        <time>2015-06-28T10:40:03.000Z</time>
      </trkpt>
      <trkpt lat="47.49805" lon="6.76608">
        <ele>388</ele>
        <time>2015-06-28T10:40:04.000Z</time>
      </trkpt>
      <trkpt lat="47.49809" lon="6.7661">
        <ele>388</ele>
        <time>2015-06-28T10:40:06.000Z</time>
      </trkpt>
      <trkpt lat="47.49811" lon="6.76611">
        <ele>389</ele>
        <time>2015-06-28T10:40:07.000Z</time>
      </trkpt>
      <trkpt lat="47.49815" lon="6.76612">
        <ele>389</ele>
        <time>2015-06-28T10:40:09.000Z</time>
      </trkpt>
      <trkpt lat="47.49817" lon="6.76613">
        <ele>389</ele>
        <time>2015-06-28T10:40:10.000Z</time>
      </trkpt>
      <trkpt lat="47.4982" lon="6.76613">
        <ele>389</ele>
        <time>2015-06-28T10:40:11.000Z</time>
      </trkpt>
      <trkpt lat="47.49822" lon="6.76613">
        <ele>389</ele>
        <time>2015-06-28T10:40:12.000Z</time>
      </trkpt>
      <trkpt lat="47.49825" lon="6.76613">
        <ele>389</ele>
        <time>2015-06-28T10:40:13.000Z</time>
      </trkpt>
      <trkpt lat="47.49827" lon="6.76613">
        <ele>389</ele>
        <time>2015-06-28T10:40:14.000Z</time>
      </trkpt>
      <trkpt lat="47.49829" lon="6.76612">
        <ele>390</ele>
        <time>2015-06-28T10:40:15.000Z</time>
      </trkpt>
      <trkpt lat="47.49832" lon="6.76612">
        <ele>390</ele>
        <time>2015-06-28T10:40:16.000Z</time>
      </trkpt>
      <trkpt lat="47.49834" lon="6.76612">
        <ele>397</ele>
        <time>2015-06-28T10:40:17.000Z</time>
      </trkpt>
      <trkpt lat="47.49836" lon="6.76611">
        <ele>397</ele>
        <time>2015-06-28T10:40:18.000Z</time>
      </trkpt>
      <trkpt lat="47.49838" lon="6.76611">
        <ele>397</ele>
        <time>2015-06-28T10:40:19.000Z</time>
      </trkpt>
      <trkpt lat="47.49841" lon="6.7661">
        <ele>397</ele>
        <time>2015-06-28T10:40:20.000Z</time>
      </trkpt>
      <trkpt lat="47.49843" lon="6.76609">
        <ele>397</ele>
        <time>2015-06-28T10:40:21.000Z</time>
      </trkpt>
      <trkpt lat="47.49845" lon="6.76608">
        <ele>397</ele>
        <time>2015-06-28T10:40:22.000Z</time>
      </trkpt>
      <trkpt lat="47.49847" lon="6.76608">
        <ele>397</ele>
        <time>2015-06-28T10:40:23.000Z</time>
      </trkpt>
      <trkpt lat="47.4985" lon="6.76609">
        <ele>397</ele>
        <time>2015-06-28T10:40:24.000Z</time>
      </trkpt>
      <trkpt lat="47.49853" lon="6.76612">
        <ele>397</ele>
        <time>2015-06-28T10:40:26.000Z</time>
      </trkpt>
      <trkpt lat="47.49853" lon="6.76612">
        <ele>397</ele>
        <time>2015-06-28T10:40:27.000Z</time>
      </trkpt>
      <trkpt lat="47.49858" lon="6.76612">
        <ele>397</ele>
        <time>2015-06-28T10:40:37.000Z</time>
      </trkpt>
      <trkpt lat="47.49858" lon="6.76613">
        <ele>397</ele>
        <time>2015-06-28T10:40:38.000Z</time>
      </trkpt>
      <trkpt lat="47.49861" lon="6.76613">
        <ele>397</ele>
        <time>2015-06-28T10:40:41.000Z</time>
      </trkpt>
      <trkpt lat="47.49863" lon="6.76612">
        <ele>398</ele>
        <time>2015-06-28T10:40:42.000Z</time>
      </trkpt>
      <trkpt lat="47.49865" lon="6.76611">
        <ele>398</ele>
        <time>2015-06-28T10:40:43.000Z</time>
      </trkpt>
      <trkpt lat="47.49867" lon="6.7661">
        <ele>398</ele>
        <time>2015-06-28T10:40:44.000Z</time>
      </trkpt>
      <trkpt lat="47.4987" lon="6.76609">
        <ele>398</ele>
        <time>2015-06-28T10:40:45.000Z</time>
      </trkpt>
      <trkpt lat="47.49872" lon="6.76607">
        <ele>398</ele>
        <time>2015-06-28T10:40:46.000Z</time>
      </trkpt>
      <trkpt lat="47.49876" lon="6.76604">
        <ele>399</ele>
        <time>2015-06-28T10:40:48.000Z</time>
      </trkpt>
      <trkpt lat="47.49878" lon="6.76603">
        <ele>399</ele>
        <time>2015-06-28T10:40:49.000Z</time>
      </trkpt>
      <trkpt lat="47.49881" lon="6.76601">
        <ele>399</ele>
        <time>2015-06-28T10:40:51.000Z</time>
      </trkpt>
      <trkpt lat="47.49883" lon="6.766">
        <ele>400</ele>
        <time>2015-06-28T10:40:52.000Z</time>
      </trkpt>
      <trkpt lat="47.49888" lon="6.766">
        <ele>400</ele>
        <time>2015-06-28T10:40:55.000Z</time>
      </trkpt>
      <trkpt lat="47.4989" lon="6.766">
        <ele>400</ele>
        <time>2015-06-28T10:40:56.000Z</time>
      </trkpt>
      <trkpt lat="47.49893" lon="6.766">
        <ele>401</ele>
        <time>2015-06-28T10:40:57.998Z</time>
      </trkpt>
      <trkpt lat="47.49896" lon="6.76599">
        <ele>401</ele>
        <time>2015-06-28T10:40:59.000Z</time>
      </trkpt>
      <trkpt lat="47.499" lon="6.76598">
        <ele>402</ele>
        <time>2015-06-28T10:41:02.000Z</time>
      </trkpt>
      <trkpt lat="47.499" lon="6.76598">
        <ele>402</ele>
        <time>2015-06-28T10:41:03.000Z</time>
      </trkpt>
      <trkpt lat="47.49904" lon="6.76598">
        <ele>402</ele>
        <time>2015-06-28T10:41:11.000Z</time>
      </trkpt>
      <trkpt lat="47.49906" lon="6.76598">
        <ele>402</ele>
        <time>2015-06-28T10:41:12.000Z</time>
      </trkpt>
      <trkpt lat="47.49908" lon="6.76598">
        <ele>402</ele>
        <time>2015-06-28T10:41:13.000Z</time>
      </trkpt>
      <trkpt lat="47.4991" lon="6.76599">
        <ele>403</ele>
        <time>2015-06-28T10:41:14.000Z</time>
      </trkpt>
      <trkpt lat="47.49913" lon="6.76599">
        <ele>403</ele>
        <time>2015-06-28T10:41:15.000Z</time>
      </trkpt>
      <trkpt lat="47.49916" lon="6.76599">
        <ele>403</ele>
        <time>2015-06-28T10:41:16.000Z</time>
      </trkpt>
      <trkpt lat="47.49919" lon="6.76598">
        <ele>407</ele>
        <time>2015-06-28T10:41:17.000Z</time>
      </trkpt>
      <trkpt lat="47.49921" lon="6.76598">
        <ele>407</ele>
        <time>2015-06-28T10:41:18.000Z</time>
      </trkpt>
      <trkpt lat="47.49924" lon="6.76599">
        <ele>407</ele>
        <time>2015-06-28T10:41:19.000Z</time>
      </trkpt>
      <trkpt lat="47.49926" lon="6.766">
        <ele>407</ele>
        <time>2015-06-28T10:41:20.000Z</time>
      </trkpt>
      <trkpt lat="47.49929" lon="6.76602">
        <ele>407</ele>
        <time>2015-06-28T10:41:22.000Z</time>
      </trkpt>
      <trkpt lat="47.4993" lon="6.76603">
        <ele>407</ele>
        <time>2015-06-28T10:41:23.000Z</time>
      </trkpt>
      <trkpt lat="47.49933" lon="6.76606">
        <ele>407</ele>
        <time>2015-06-28T10:41:28.000Z</time>
      </trkpt>
      <trkpt lat="47.49934" lon="6.76607">
        <ele>407</ele>
        <time>2015-06-28T10:41:29.000Z</time>
      </trkpt>
      <trkpt lat="47.49938" lon="6.76608">
        <ele>407</ele>
        <time>2015-06-28T10:41:32.000Z</time>
      </trkpt>
      <trkpt lat="47.49939" lon="6.76608">
        <ele>407</ele>
        <time>2015-06-28T10:41:33.000Z</time>
      </trkpt>
      <trkpt lat="47.49943" lon="6.76607">
        <ele>407</ele>
        <time>2015-06-28T10:41:35.000Z</time>
      </trkpt>
      <trkpt lat="47.49946" lon="6.76607">
        <ele>407</ele>
        <time>2015-06-28T10:41:36.000Z</time>
      </trkpt>
      <trkpt lat="47.49949" lon="6.76607">
        <ele>408</ele>
        <time>2015-06-28T10:41:37.000Z</time>
      </trkpt>
      <trkpt lat="47.49952" lon="6.76607">
        <ele>408</ele>
        <time>2015-06-28T10:41:38.000Z</time>
      </trkpt>
      <trkpt lat="47.49956" lon="6.76607">
        <ele>408</ele>
        <time>2015-06-28T10:41:39.000Z</time>
      </trkpt>
      <trkpt lat="47.49958" lon="6.76605">
        <ele>408</ele>
        <time>2015-06-28T10:41:40.000Z</time>
      </trkpt>
      <trkpt lat="47.4996" lon="6.76602">
        <ele>408</ele>
        <time>2015-06-28T10:41:42.000Z</time>
      </trkpt>
      <trkpt lat="47.49961" lon="6.766">
        <ele>408</ele>
        <time>2015-06-28T10:41:43.000Z</time>
      </trkpt>
      <trkpt lat="47.49964" lon="6.76599">
        <ele>408</ele>
        <time>2015-06-28T10:41:44.000Z</time>
      </trkpt>
      <trkpt lat="47.49967" lon="6.76598">
        <ele>409</ele>
        <time>2015-06-28T10:41:45.000Z</time>
      </trkpt>
      <trkpt lat="47.4997" lon="6.76598">
        <ele>409</ele>
        <time>2015-06-28T10:41:46.000Z</time>
      </trkpt>
      <trkpt lat="47.49974" lon="6.76597">
        <ele>409</ele>
        <time>2015-06-28T10:41:47.000Z</time>
      </trkpt>
      <trkpt lat="47.49978" lon="6.76597">
        <ele>409</ele>
        <time>2015-06-28T10:41:48.000Z</time>
      </trkpt>
      <trkpt lat="47.49982" lon="6.76598">
        <ele>410</ele>
        <time>2015-06-28T10:41:49.000Z</time>
      </trkpt>
      <trkpt lat="47.49986" lon="6.76598">
        <ele>410</ele>
        <time>2015-06-28T10:41:50.000Z</time>
      </trkpt>
      <trkpt lat="47.4999" lon="6.76597">
        <ele>410</ele>
        <time>2015-06-28T10:41:51.000Z</time>
      </trkpt>
      <trkpt lat="47.49994" lon="6.76596">
        <ele>411</ele>
        <time>2015-06-28T10:41:52.000Z</time>
      </trkpt>
      <trkpt lat="47.49998" lon="6.76595">
        <ele>411</ele>
        <time>2015-06-28T10:41:53.000Z</time>
      </trkpt>
      <trkpt lat="47.50001" lon="6.76594">
        <ele>413</ele>
        <time>2015-06-28T10:41:54.000Z</time>
      </trkpt>
      <trkpt lat="47.50003" lon="6.76594">
        <ele>413</ele>
        <time>2015-06-28T10:41:55.000Z</time>
      </trkpt>
      <trkpt lat="47.50008" lon="6.76593">
        <ele>412</ele>
        <time>2015-06-28T10:41:57.000Z</time>
      </trkpt>
      <trkpt lat="47.5001" lon="6.76592">
        <ele>412</ele>
        <time>2015-06-28T10:41:58.000Z</time>
      </trkpt>
      <trkpt lat="47.50012" lon="6.76591">
        <ele>412</ele>
        <time>2015-06-28T10:41:59.000Z</time>
      </trkpt>
      <trkpt lat="47.50014" lon="6.7659">
        <ele>412</ele>
        <time>2015-06-28T10:42:00.000Z</time>
      </trkpt>
      <trkpt lat="47.50017" lon="6.76589">
        <ele>412</ele>
        <time>2015-06-28T10:42:01.000Z</time>
      </trkpt>
      <trkpt lat="47.50019" lon="6.76589">
        <ele>412</ele>
        <time>2015-06-28T10:42:02.000Z</time>
      </trkpt>
      <trkpt lat="47.50021" lon="6.76588">
        <ele>412</ele>
        <time>2015-06-28T10:42:03.000Z</time>
      </trkpt>
      <trkpt lat="47.50024" lon="6.76588">
        <ele>412</ele>
        <time>2015-06-28T10:42:04.000Z</time>
      </trkpt>
      <trkpt lat="47.50026" lon="6.76587">
        <ele>412</ele>
        <time>2015-06-28T10:42:05.000Z</time>
      </trkpt>
      <trkpt lat="47.5003" lon="6.76588">
        <ele>412</ele>
        <time>2015-06-28T10:42:06.000Z</time>
      </trkpt>
      <trkpt lat="47.50033" lon="6.7659">
        <ele>412</ele>
        <time>2015-06-28T10:42:07.000Z</time>
      </trkpt>
      <trkpt lat="47.50037" lon="6.76592">
        <ele>412</ele>
        <time>2015-06-28T10:42:08.000Z</time>
      </trkpt>
      <trkpt lat="47.50041" lon="6.76594">
        <ele>412</ele>
        <time>2015-06-28T10:42:09.000Z</time>
      </trkpt>
      <trkpt lat="47.50044" lon="6.76596">
        <ele>412</ele>
        <time>2015-06-28T10:42:10.000Z</time>
      </trkpt>
      <trkpt lat="47.50047" lon="6.76598">
        <ele>412</ele>
        <time>2015-06-28T10:42:11.000Z</time>
      </trkpt>
      <trkpt lat="47.5005" lon="6.766">
        <ele>412</ele>
        <time>2015-06-28T10:42:12.000Z</time>
      </trkpt>
      <trkpt lat="47.50053" lon="6.76602">
        <ele>412</ele>
        <time>2015-06-28T10:42:13.000Z</time>
      </trkpt>
      <trkpt lat="47.50055" lon="6.76604">
        <ele>412</ele>
        <time>2015-06-28T10:42:14.000Z</time>
      </trkpt>
      <trkpt lat="47.50058" lon="6.76606">
        <ele>412</ele>
        <time>2015-06-28T10:42:15.000Z</time>
      </trkpt>
      <trkpt lat="47.5006" lon="6.76607">
        <ele>412</ele>
        <time>2015-06-28T10:42:16.000Z</time>
      </trkpt>
      <trkpt lat="47.50064" lon="6.7661">
        <ele>412</ele>
        <time>2015-06-28T10:42:18.000Z</time>
      </trkpt>
      <trkpt lat="47.50065" lon="6.76611">
        <ele>412</ele>
        <time>2015-06-28T10:42:19.000Z</time>
      </trkpt>
      <trkpt lat="47.50067" lon="6.76613">
        <ele>412</ele>
        <time>2015-06-28T10:42:20.000Z</time>
      </trkpt>
      <trkpt lat="47.50069" lon="6.76614">
        <ele>412</ele>
        <time>2015-06-28T10:42:21.000Z</time>
      </trkpt>
      <trkpt lat="47.50073" lon="6.76616">
        <ele>412</ele>
        <time>2015-06-28T10:42:22.000Z</time>
      </trkpt>
      <trkpt lat="47.50078" lon="6.76619">
        <ele>412</ele>
        <time>2015-06-28T10:42:23.000Z</time>
      </trkpt>
      <trkpt lat="47.50084" lon="6.76622">
        <ele>410</ele>
        <time>2015-06-28T10:42:24.000Z</time>
      </trkpt>
      <trkpt lat="47.50089" lon="6.76623">
        <ele>410</ele>
        <time>2015-06-28T10:42:25.000Z</time>
      </trkpt>
      <trkpt lat="47.50095" lon="6.76623">
        <ele>410</ele>
        <time>2015-06-28T10:42:26.000Z</time>
      </trkpt>
      <trkpt lat="47.50102" lon="6.76623">
        <ele>410</ele>
        <time>2015-06-28T10:42:27.000Z</time>
      </trkpt>
      <trkpt lat="47.50119" lon="6.76622">
        <ele>409</ele>
        <time>2015-06-28T10:42:28.000Z</time>
      </trkpt>
      <trkpt lat="47.50125" lon="6.76621">
        <ele>409</ele>
        <time>2015-06-28T10:42:29.000Z</time>
      </trkpt>
      <trkpt lat="47.50131" lon="6.76618">
        <ele>409</ele>
        <time>2015-06-28T10:42:30.000Z</time>
      </trkpt>
      <trkpt lat="47.50137" lon="6.76616">
        <ele>408</ele>
        <time>2015-06-28T10:42:31.000Z</time>
      </trkpt>
      <trkpt lat="47.50143" lon="6.76617">
        <ele>408</ele>
        <time>2015-06-28T10:42:32.000Z</time>
      </trkpt>
      <trkpt lat="47.50149" lon="6.76616">
        <ele>408</ele>
        <time>2015-06-28T10:42:33.000Z</time>
      </trkpt>
      <trkpt lat="47.50156" lon="6.76616">
        <ele>408</ele>
        <time>2015-06-28T10:42:34.000Z</time>
      </trkpt>
      <trkpt lat="47.50162" lon="6.76617">
        <ele>408</ele>
        <time>2015-06-28T10:42:35.000Z</time>
      </trkpt>
      <trkpt lat="47.50169" lon="6.76616">
        <ele>404</ele>
        <time>2015-06-28T10:42:36.000Z</time>
      </trkpt>
      <trkpt lat="47.50176" lon="6.76617">
        <ele>403</ele>
        <time>2015-06-28T10:42:37.000Z</time>
      </trkpt>
      <trkpt lat="47.50182" lon="6.76618">
        <ele>403</ele>
        <time>2015-06-28T10:42:38.000Z</time>
      </trkpt>
      <trkpt lat="47.50189" lon="6.7662">
        <ele>403</ele>
        <time>2015-06-28T10:42:39.000Z</time>
      </trkpt>
      <trkpt lat="47.50194" lon="6.76621">
        <ele>403</ele>
        <time>2015-06-28T10:42:40.000Z</time>
      </trkpt>
      <trkpt lat="47.50198" lon="6.76624">
        <ele>402</ele>
        <time>2015-06-28T10:42:41.000Z</time>
      </trkpt>
      <trkpt lat="47.50201" lon="6.76627">
        <ele>402</ele>
        <time>2015-06-28T10:42:42.000Z</time>
      </trkpt>
      <trkpt lat="47.50202" lon="6.76631">
        <ele>402</ele>
        <time>2015-06-28T10:42:43.000Z</time>
      </trkpt>
      <trkpt lat="47.50204" lon="6.76635">
        <ele>402</ele>
        <time>2015-06-28T10:42:44.000Z</time>
      </trkpt>
      <trkpt lat="47.50205" lon="6.76639">
        <ele>402</ele>
        <time>2015-06-28T10:42:45.000Z</time>
      </trkpt>
      <trkpt lat="47.50206" lon="6.76643">
        <ele>402</ele>
        <time>2015-06-28T10:42:46.000Z</time>
      </trkpt>
      <trkpt lat="47.50208" lon="6.76648">
        <ele>402</ele>
        <time>2015-06-28T10:42:47.000Z</time>
      </trkpt>
      <trkpt lat="47.50209" lon="6.76652">
        <ele>402</ele>
        <time>2015-06-28T10:42:48.000Z</time>
      </trkpt>
      <trkpt lat="47.5021" lon="6.76656">
        <ele>402</ele>
        <time>2015-06-28T10:42:49.000Z</time>
      </trkpt>
      <trkpt lat="47.50211" lon="6.76661">
        <ele>402</ele>
        <time>2015-06-28T10:42:50.000Z</time>
      </trkpt>
      <trkpt lat="47.50213" lon="6.76665">
        <ele>402</ele>
        <time>2015-06-28T10:42:51.000Z</time>
      </trkpt>
      <trkpt lat="47.50214" lon="6.7667">
        <ele>402</ele>
        <time>2015-06-28T10:42:52.000Z</time>
      </trkpt>
      <trkpt lat="47.50215" lon="6.76674">
        <ele>402</ele>
        <time>2015-06-28T10:42:53.000Z</time>
      </trkpt>
      <trkpt lat="47.50216" lon="6.76679">
        <ele>402</ele>
        <time>2015-06-28T10:42:54.000Z</time>
      </trkpt>
      <trkpt lat="47.50217" lon="6.76683">
        <ele>402</ele>
        <time>2015-06-28T10:42:55.000Z</time>
      </trkpt>
      <trkpt lat="47.50219" lon="6.76687">
        <ele>402</ele>
        <time>2015-06-28T10:42:56.000Z</time>
      </trkpt>
      <trkpt lat="47.50221" lon="6.76691">
        <ele>402</ele>
        <time>2015-06-28T10:42:57.000Z</time>
      </trkpt>
      <trkpt lat="47.50222" lon="6.76696">
        <ele>402</ele>
        <time>2015-06-28T10:42:58.000Z</time>
      </trkpt>
      <trkpt lat="47.50224" lon="6.767">
        <ele>402</ele>
        <time>2015-06-28T10:42:59.000Z</time>
      </trkpt>
      <trkpt lat="47.50226" lon="6.76705">
        <ele>402</ele>
        <time>2015-06-28T10:43:00.000Z</time>
      </trkpt>
      <trkpt lat="47.50228" lon="6.76709">
        <ele>402</ele>
        <time>2015-06-28T10:43:01.000Z</time>
      </trkpt>
      <trkpt lat="47.5023" lon="6.76714">
        <ele>402</ele>
        <time>2015-06-28T10:43:02.000Z</time>
      </trkpt>
      <trkpt lat="47.50232" lon="6.76718">
        <ele>402</ele>
        <time>2015-06-28T10:43:03.000Z</time>
      </trkpt>
      <trkpt lat="47.50234" lon="6.76722">
        <ele>402</ele>
        <time>2015-06-28T10:43:04.000Z</time>
      </trkpt>
      <trkpt lat="47.50236" lon="6.76726">
        <ele>401</ele>
        <time>2015-06-28T10:43:05.000Z</time>
      </trkpt>
      <trkpt lat="47.50238" lon="6.7673">
        <ele>401</ele>
        <time>2015-06-28T10:43:06.000Z</time>
      </trkpt>
      <trkpt lat="47.5024" lon="6.76734">
        <ele>401</ele>
        <time>2015-06-28T10:43:07.000Z</time>
      </trkpt>
      <trkpt lat="47.50243" lon="6.76737">
        <ele>401</ele>
        <time>2015-06-28T10:43:08.000Z</time>
      </trkpt>
      <trkpt lat="47.50245" lon="6.76741">
        <ele>401</ele>
        <time>2015-06-28T10:43:09.000Z</time>
      </trkpt>
      <trkpt lat="47.50248" lon="6.76745">
        <ele>400</ele>
        <time>2015-06-28T10:43:10.000Z</time>
      </trkpt>
      <trkpt lat="47.50251" lon="6.76748">
        <ele>400</ele>
        <time>2015-06-28T10:43:11.000Z</time>
      </trkpt>
      <trkpt lat="47.50254" lon="6.76751">
        <ele>399</ele>
        <time>2015-06-28T10:43:12.000Z</time>
      </trkpt>
      <trkpt lat="47.50257" lon="6.76753">
        <ele>399</ele>
        <time>2015-06-28T10:43:13.000Z</time>
      </trkpt>
      <trkpt lat="47.50261" lon="6.76753">
        <ele>399</ele>
        <time>2015-06-28T10:43:14.000Z</time>
      </trkpt>
      <trkpt lat="47.50264" lon="6.76752">
        <ele>398</ele>
        <time>2015-06-28T10:43:15.000Z</time>
      </trkpt>
      <trkpt lat="47.50268" lon="6.76751">
        <ele>398</ele>
        <time>2015-06-28T10:43:16.000Z</time>
      </trkpt>
      <trkpt lat="47.50272" lon="6.76749">
        <ele>399</ele>
        <time>2015-06-28T10:43:17.000Z</time>
      </trkpt>
      <trkpt lat="47.50277" lon="6.76746">
        <ele>399</ele>
        <time>2015-06-28T10:43:18.000Z</time>
      </trkpt>
      <trkpt lat="47.50281" lon="6.76744">
        <ele>399</ele>
        <time>2015-06-28T10:43:19.000Z</time>
      </trkpt>
      <trkpt lat="47.50285" lon="6.76743">
        <ele>399</ele>
        <time>2015-06-28T10:43:20.000Z</time>
      </trkpt>
      <trkpt lat="47.5029" lon="6.76741">
        <ele>399</ele>
        <time>2015-06-28T10:43:21.000Z</time>
      </trkpt>
      <trkpt lat="47.50295" lon="6.76739">
        <ele>399</ele>
        <time>2015-06-28T10:43:22.000Z</time>
      </trkpt>
      <trkpt lat="47.503" lon="6.76738">
        <ele>399</ele>
        <time>2015-06-28T10:43:23.000Z</time>
      </trkpt>
      <trkpt lat="47.50304" lon="6.76737">
        <ele>398</ele>
        <time>2015-06-28T10:43:24.000Z</time>
      </trkpt>
      <trkpt lat="47.50309" lon="6.76736">
        <ele>398</ele>
        <time>2015-06-28T10:43:25.000Z</time>
      </trkpt>
      <trkpt lat="47.50313" lon="6.76734">
        <ele>398</ele>
        <time>2015-06-28T10:43:26.000Z</time>
      </trkpt>
      <trkpt lat="47.50318" lon="6.76733">
        <ele>398</ele>
        <time>2015-06-28T10:43:26.999Z</time>
      </trkpt>
      <trkpt lat="47.50322" lon="6.76732">
        <ele>398</ele>
        <time>2015-06-28T10:43:28.000Z</time>
      </trkpt>
      <trkpt lat="47.50325" lon="6.7673">
        <ele>398</ele>
        <time>2015-06-28T10:43:29.000Z</time>
      </trkpt>
      <trkpt lat="47.50329" lon="6.76729">
        <ele>398</ele>
        <time>2015-06-28T10:43:30.000Z</time>
      </trkpt>
      <trkpt lat="47.50333" lon="6.76728">
        <ele>398</ele>
        <time>2015-06-28T10:43:31.000Z</time>
      </trkpt>
      <trkpt lat="47.50337" lon="6.76726">
        <ele>398</ele>
        <time>2015-06-28T10:43:32.000Z</time>
      </trkpt>
      <trkpt lat="47.50341" lon="6.76725">
        <ele>398</ele>
        <time>2015-06-28T10:43:33.000Z</time>
      </trkpt>
      <trkpt lat="47.50345" lon="6.76723">
        <ele>398</ele>
        <time>2015-06-28T10:43:34.000Z</time>
      </trkpt>
      <trkpt lat="47.50349" lon="6.76721">
        <ele>398</ele>
        <time>2015-06-28T10:43:35.000Z</time>
      </trkpt>
      <trkpt lat="47.50352" lon="6.7672">
        <ele>398</ele>
        <time>2015-06-28T10:43:36.000Z</time>
      </trkpt>
      <trkpt lat="47.50357" lon="6.76718">
        <ele>398</ele>
        <time>2015-06-28T10:43:37.000Z</time>
      </trkpt>
      <trkpt lat="47.50361" lon="6.76717">
        <ele>398</ele>
        <time>2015-06-28T10:43:38.000Z</time>
      </trkpt>
      <trkpt lat="47.50365" lon="6.76715">
        <ele>398</ele>
        <time>2015-06-28T10:43:39.000Z</time>
      </trkpt>
      <trkpt lat="47.5037" lon="6.76713">
        <ele>398</ele>
        <time>2015-06-28T10:43:40.000Z</time>
      </trkpt>
      <trkpt lat="47.50374" lon="6.7671">
        <ele>398</ele>
        <time>2015-06-28T10:43:41.000Z</time>
      </trkpt>
      <trkpt lat="47.50377" lon="6.76708">
        <ele>397</ele>
        <time>2015-06-28T10:43:42.000Z</time>
      </trkpt>
      <trkpt lat="47.50382" lon="6.76707">
        <ele>397</ele>
        <time>2015-06-28T10:43:43.000Z</time>
      </trkpt>
      <trkpt lat="47.50386" lon="6.76705">
        <ele>397</ele>
        <time>2015-06-28T10:43:44.000Z</time>
      </trkpt>
      <trkpt lat="47.50391" lon="6.76704">
        <ele>397</ele>
        <time>2015-06-28T10:43:45.000Z</time>
      </trkpt>
      <trkpt lat="47.50395" lon="6.76701">
        <ele>397</ele>
        <time>2015-06-28T10:43:46.000Z</time>
      </trkpt>
      <trkpt lat="47.50399" lon="6.76699">
        <ele>397</ele>
        <time>2015-06-28T10:43:47.000Z</time>
      </trkpt>
      <trkpt lat="47.50403" lon="6.76697">
        <ele>397</ele>
        <time>2015-06-28T10:43:48.000Z</time>
      </trkpt>
      <trkpt lat="47.50407" lon="6.76695">
        <ele>397</ele>
        <time>2015-06-28T10:43:49.000Z</time>
      </trkpt>
      <trkpt lat="47.50411" lon="6.76694">
        <ele>397</ele>
        <time>2015-06-28T10:43:50.000Z</time>
      </trkpt>
      <trkpt lat="47.50414" lon="6.76692">
        <ele>397</ele>
        <time>2015-06-28T10:43:51.000Z</time>
      </trkpt>
      <trkpt lat="47.50418" lon="6.76691">
        <ele>397</ele>
        <time>2015-06-28T10:43:51.999Z</time>
      </trkpt>
      <trkpt lat="47.50422" lon="6.7669">
        <ele>397</ele>
        <time>2015-06-28T10:43:53.000Z</time>
      </trkpt>
      <trkpt lat="47.50425" lon="6.76688">
        <ele>397</ele>
        <time>2015-06-28T10:43:54.000Z</time>
      </trkpt>
      <trkpt lat="47.50428" lon="6.76686">
        <ele>397</ele>
        <time>2015-06-28T10:43:55.000Z</time>
      </trkpt>
      <trkpt lat="47.50432" lon="6.76684">
        <ele>397</ele>
        <time>2015-06-28T10:43:56.000Z</time>
      </trkpt>
      <trkpt lat="47.50436" lon="6.76682">
        <ele>397</ele>
        <time>2015-06-28T10:43:57.000Z</time>
      </trkpt>
      <trkpt lat="47.5044" lon="6.76681">
        <ele>397</ele>
        <time>2015-06-28T10:43:58.000Z</time>
      </trkpt>
      <trkpt lat="47.50445" lon="6.7668">
        <ele>397</ele>
        <time>2015-06-28T10:43:59.000Z</time>
      </trkpt>
      <trkpt lat="47.50449" lon="6.76679">
        <ele>397</ele>
        <time>2015-06-28T10:44:00.000Z</time>
      </trkpt>
      <trkpt lat="47.50453" lon="6.76678">
        <ele>397</ele>
        <time>2015-06-28T10:44:01.000Z</time>
      </trkpt>
      <trkpt lat="47.50457" lon="6.76677">
        <ele>397</ele>
        <time>2015-06-28T10:44:02.000Z</time>
      </trkpt>
      <trkpt lat="47.50462" lon="6.76675">
        <ele>397</ele>
        <time>2015-06-28T10:44:03.000Z</time>
      </trkpt>
      <trkpt lat="47.50466" lon="6.76674">
        <ele>397</ele>
        <time>2015-06-28T10:44:04.000Z</time>
      </trkpt>
      <trkpt lat="47.50469" lon="6.76672">
        <ele>397</ele>
        <time>2015-06-28T10:44:05.000Z</time>
      </trkpt>
      <trkpt lat="47.50473" lon="6.76671">
        <ele>397</ele>
        <time>2015-06-28T10:44:06.000Z</time>
      </trkpt>
      <trkpt lat="47.50477" lon="6.76669">
        <ele>397</ele>
        <time>2015-06-28T10:44:07.000Z</time>
      </trkpt>
      <trkpt lat="47.5048" lon="6.76668">
        <ele>398</ele>
        <time>2015-06-28T10:44:08.000Z</time>
      </trkpt>
      <trkpt lat="47.50484" lon="6.76666">
        <ele>399</ele>
        <time>2015-06-28T10:44:09.000Z</time>
      </trkpt>
      <trkpt lat="47.50487" lon="6.76665">
        <ele>399</ele>
        <time>2015-06-28T10:44:10.000Z</time>
      </trkpt>
      <trkpt lat="47.5049" lon="6.76663">
        <ele>399</ele>
        <time>2015-06-28T10:44:11.000Z</time>
      </trkpt>
      <trkpt lat="47.50494" lon="6.76661">
        <ele>399</ele>
        <time>2015-06-28T10:44:12.000Z</time>
      </trkpt>
      <trkpt lat="47.50497" lon="6.7666">
        <ele>399</ele>
        <time>2015-06-28T10:44:13.000Z</time>
      </trkpt>
      <trkpt lat="47.50501" lon="6.76659">
        <ele>399</ele>
        <time>2015-06-28T10:44:14.000Z</time>
      </trkpt>
      <trkpt lat="47.50504" lon="6.76658">
        <ele>399</ele>
        <time>2015-06-28T10:44:15.000Z</time>
      </trkpt>
      <trkpt lat="47.50507" lon="6.76657">
        <ele>399</ele>
        <time>2015-06-28T10:44:16.000Z</time>
      </trkpt>
      <trkpt lat="47.5051" lon="6.76659">
        <ele>399</ele>
        <time>2015-06-28T10:44:17.000Z</time>
      </trkpt>
      <trkpt lat="47.50511" lon="6.76663">
        <ele>399</ele>
        <time>2015-06-28T10:44:18.000Z</time>
      </trkpt>
      <trkpt lat="47.50509" lon="6.76676">
        <ele>398</ele>
        <time>2015-06-28T10:44:19.000Z</time>
      </trkpt>
      <trkpt lat="47.50511" lon="6.76683">
        <ele>397</ele>
        <time>2015-06-28T10:44:20.000Z</time>
      </trkpt>
      <trkpt lat="47.50514" lon="6.76689">
        <ele>397</ele>
        <time>2015-06-28T10:44:21.000Z</time>
      </trkpt>
      <trkpt lat="47.50518" lon="6.76695">
        <ele>396</ele>
        <time>2015-06-28T10:44:22.000Z</time>
      </trkpt>
      <trkpt lat="47.50523" lon="6.76697">
        <ele>396</ele>
        <time>2015-06-28T10:44:23.000Z</time>
      </trkpt>
      <trkpt lat="47.50528" lon="6.76701">
        <ele>396</ele>
        <time>2015-06-28T10:44:24.000Z</time>
      </trkpt>
      <trkpt lat="47.50534" lon="6.767">
        <ele>396</ele>
        <time>2015-06-28T10:44:25.000Z</time>
      </trkpt>
      <trkpt lat="47.50539" lon="6.76701">
        <ele>396</ele>
        <time>2015-06-28T10:44:26.000Z</time>
      </trkpt>
      <trkpt lat="47.50545" lon="6.767">
        <ele>396</ele>
        <time>2015-06-28T10:44:27.000Z</time>
      </trkpt>
      <trkpt lat="47.5055" lon="6.76699">
        <ele>396</ele>
        <time>2015-06-28T10:44:28.000Z</time>
      </trkpt>
      <trkpt lat="47.50555" lon="6.76698">
        <ele>396</ele>
        <time>2015-06-28T10:44:29.000Z</time>
      </trkpt>
      <trkpt lat="47.5056" lon="6.76696">
        <ele>396</ele>
        <time>2015-06-28T10:44:30.000Z</time>
      </trkpt>
      <trkpt lat="47.50564" lon="6.76694">
        <ele>396</ele>
        <time>2015-06-28T10:44:31.000Z</time>
      </trkpt>
      <trkpt lat="47.5057" lon="6.76692">
        <ele>396</ele>
        <time>2015-06-28T10:44:32.000Z</time>
      </trkpt>
      <trkpt lat="47.50575" lon="6.76691">
        <ele>396</ele>
        <time>2015-06-28T10:44:33.000Z</time>
      </trkpt>
      <trkpt lat="47.5058" lon="6.76689">
        <ele>396</ele>
        <time>2015-06-28T10:44:34.000Z</time>
      </trkpt>
      <trkpt lat="47.50585" lon="6.76686">
        <ele>395</ele>
        <time>2015-06-28T10:44:35.000Z</time>
      </trkpt>
      <trkpt lat="47.50591" lon="6.76685">
        <ele>395</ele>
        <time>2015-06-28T10:44:36.000Z</time>
      </trkpt>
      <trkpt lat="47.50596" lon="6.76683">
        <ele>395</ele>
        <time>2015-06-28T10:44:37.000Z</time>
      </trkpt>
      <trkpt lat="47.50602" lon="6.7668">
        <ele>395</ele>
        <time>2015-06-28T10:44:38.000Z</time>
      </trkpt>
      <trkpt lat="47.50608" lon="6.76677">
        <ele>395</ele>
        <time>2015-06-28T10:44:39.000Z</time>
      </trkpt>
      <trkpt lat="47.50615" lon="6.76674">
        <ele>394</ele>
        <time>2015-06-28T10:44:40.000Z</time>
      </trkpt>
      <trkpt lat="47.50621" lon="6.76672">
        <ele>394</ele>
        <time>2015-06-28T10:44:41.000Z</time>
      </trkpt>
      <trkpt lat="47.50628" lon="6.76669">
        <ele>394</ele>
        <time>2015-06-28T10:44:42.000Z</time>
      </trkpt>
      <trkpt lat="47.50634" lon="6.76665">
        <ele>397</ele>
        <time>2015-06-28T10:44:43.000Z</time>
      </trkpt>
      <trkpt lat="47.50641" lon="6.76662">
        <ele>396</ele>
        <time>2015-06-28T10:44:44.000Z</time>
      </trkpt>
      <trkpt lat="47.50648" lon="6.76658">
        <ele>396</ele>
        <time>2015-06-28T10:44:45.000Z</time>
      </trkpt>
      <trkpt lat="47.50655" lon="6.76653">
        <ele>396</ele>
        <time>2015-06-28T10:44:46.000Z</time>
      </trkpt>
      <trkpt lat="47.50661" lon="6.76647">
        <ele>396</ele>
        <time>2015-06-28T10:44:47.000Z</time>
      </trkpt>
      <trkpt lat="47.5067" lon="6.76642">
        <ele>395</ele>
        <time>2015-06-28T10:44:48.000Z</time>
      </trkpt>
      <trkpt lat="47.50677" lon="6.76639">
        <ele>395</ele>
        <time>2015-06-28T10:44:49.000Z</time>
      </trkpt>
      <trkpt lat="47.50683" lon="6.76638">
        <ele>395</ele>
        <time>2015-06-28T10:44:50.000Z</time>
      </trkpt>
      <trkpt lat="47.50689" lon="6.76636">
        <ele>394</ele>
        <time>2015-06-28T10:44:51.000Z</time>
      </trkpt>
      <trkpt lat="47.50695" lon="6.76636">
        <ele>394</ele>
        <time>2015-06-28T10:44:51.999Z</time>
      </trkpt>
      <trkpt lat="47.50702" lon="6.76633">
        <ele>394</ele>
        <time>2015-06-28T10:44:53.000Z</time>
      </trkpt>
      <trkpt lat="47.50708" lon="6.76633">
        <ele>394</ele>
        <time>2015-06-28T10:44:54.000Z</time>
      </trkpt>
      <trkpt lat="47.50714" lon="6.76633">
        <ele>394</ele>
        <time>2015-06-28T10:44:55.000Z</time>
      </trkpt>
      <trkpt lat="47.5072" lon="6.76633">
        <ele>394</ele>
        <time>2015-06-28T10:44:56.000Z</time>
      </trkpt>
      <trkpt lat="47.50726" lon="6.76634">
        <ele>394</ele>
        <time>2015-06-28T10:44:57.000Z</time>
      </trkpt>
      <trkpt lat="47.50731" lon="6.76637">
        <ele>394</ele>
        <time>2015-06-28T10:44:58.000Z</time>
      </trkpt>
      <trkpt lat="47.50735" lon="6.76641">
        <ele>393</ele>
        <time>2015-06-28T10:44:59.000Z</time>
      </trkpt>
      <trkpt lat="47.5074" lon="6.76646">
        <ele>393</ele>
        <time>2015-06-28T10:45:00.000Z</time>
      </trkpt>
      <trkpt lat="47.50744" lon="6.76651">
        <ele>393</ele>
        <time>2015-06-28T10:45:01.000Z</time>
      </trkpt>
      <trkpt lat="47.50747" lon="6.76656">
        <ele>392</ele>
        <time>2015-06-28T10:45:02.000Z</time>
      </trkpt>
      <trkpt lat="47.5075" lon="6.76662">
        <ele>392</ele>
        <time>2015-06-28T10:45:03.000Z</time>
      </trkpt>
      <trkpt lat="47.50754" lon="6.76668">
        <ele>391</ele>
        <time>2015-06-28T10:45:04.000Z</time>
      </trkpt>
      <trkpt lat="47.50757" lon="6.76675">
        <ele>390</ele>
        <time>2015-06-28T10:45:05.000Z</time>
      </trkpt>
      <trkpt lat="47.5076" lon="6.7668">
        <ele>389</ele>
        <time>2015-06-28T10:45:06.000Z</time>
      </trkpt>
      <trkpt lat="47.50763" lon="6.76687">
        <ele>389</ele>
        <time>2015-06-28T10:45:07.000Z</time>
      </trkpt>
      <trkpt lat="47.50767" lon="6.76693">
        <ele>389</ele>
        <time>2015-06-28T10:45:08.000Z</time>
      </trkpt>
      <trkpt lat="47.5077" lon="6.767">
        <ele>388</ele>
        <time>2015-06-28T10:45:09.000Z</time>
      </trkpt>
      <trkpt lat="47.50774" lon="6.76706">
        <ele>388</ele>
        <time>2015-06-28T10:45:10.000Z</time>
      </trkpt>
      <trkpt lat="47.50777" lon="6.76712">
        <ele>388</ele>
        <time>2015-06-28T10:45:11.000Z</time>
      </trkpt>
      <trkpt lat="47.5078" lon="6.76717">
        <ele>388</ele>
        <time>2015-06-28T10:45:12.000Z</time>
      </trkpt>
      <trkpt lat="47.50784" lon="6.76723">
        <ele>388</ele>
        <time>2015-06-28T10:45:13.000Z</time>
      </trkpt>
      <trkpt lat="47.50784" lon="6.76731">
        <ele>388</ele>
        <time>2015-06-28T10:45:14.000Z</time>
      </trkpt>
      <trkpt lat="47.50784" lon="6.76738">
        <ele>387</ele>
        <time>2015-06-28T10:45:15.000Z</time>
      </trkpt>
      <trkpt lat="47.50785" lon="6.76747">
        <ele>387</ele>
        <time>2015-06-28T10:45:16.000Z</time>
      </trkpt>
      <trkpt lat="47.50786" lon="6.76755">
        <ele>384</ele>
        <time>2015-06-28T10:45:17.000Z</time>
      </trkpt>
      <trkpt lat="47.5079" lon="6.76762">
        <ele>384</ele>
        <time>2015-06-28T10:45:18.000Z</time>
      </trkpt>
      <trkpt lat="47.50792" lon="6.7677">
        <ele>384</ele>
        <time>2015-06-28T10:45:19.020Z</time>
      </trkpt>
      <trkpt lat="47.50797" lon="6.76776">
        <ele>384</ele>
        <time>2015-06-28T10:45:20.000Z</time>
      </trkpt>
      <trkpt lat="47.50802" lon="6.76783">
        <ele>384</ele>
        <time>2015-06-28T10:45:21.000Z</time>
      </trkpt>
      <trkpt lat="47.50806" lon="6.7679">
        <ele>384</ele>
        <time>2015-06-28T10:45:22.000Z</time>
      </trkpt>
      <trkpt lat="47.50811" lon="6.76798">
        <ele>383</ele>
        <time>2015-06-28T10:45:23.000Z</time>
      </trkpt>
      <trkpt lat="47.50815" lon="6.76807">
        <ele>383</ele>
        <time>2015-06-28T10:45:24.000Z</time>
      </trkpt>
      <trkpt lat="47.50819" lon="6.76815">
        <ele>383</ele>
        <time>2015-06-28T10:45:25.000Z</time>
      </trkpt>
      <trkpt lat="47.50823" lon="6.76823">
        <ele>383</ele>
        <time>2015-06-28T10:45:26.000Z</time>
      </trkpt>
      <trkpt lat="47.50827" lon="6.76831">
        <ele>383</ele>
        <time>2015-06-28T10:45:27.001Z</time>
      </trkpt>
      <trkpt lat="47.50831" lon="6.76839">
        <ele>381</ele>
        <time>2015-06-28T10:45:28.000Z</time>
      </trkpt>
      <trkpt lat="47.50836" lon="6.76847">
        <ele>381</ele>
        <time>2015-06-28T10:45:29.000Z</time>
      </trkpt>
      <trkpt lat="47.50841" lon="6.76855">
        <ele>381</ele>
        <time>2015-06-28T10:45:30.000Z</time>
      </trkpt>
      <trkpt lat="47.50845" lon="6.76862">
        <ele>380</ele>
        <time>2015-06-28T10:45:31.000Z</time>
      </trkpt>
      <trkpt lat="47.50851" lon="6.76869">
        <ele>380</ele>
        <time>2015-06-28T10:45:32.000Z</time>
      </trkpt>
      <trkpt lat="47.50856" lon="6.76874">
        <ele>379</ele>
        <time>2015-06-28T10:45:33.000Z</time>
      </trkpt>
      <trkpt lat="47.50861" lon="6.76881">
        <ele>379</ele>
        <time>2015-06-28T10:45:34.000Z</time>
      </trkpt>
      <trkpt lat="47.50867" lon="6.76888">
        <ele>379</ele>
        <time>2015-06-28T10:45:35.000Z</time>
      </trkpt>
      <trkpt lat="47.50872" lon="6.76894">
        <ele>379</ele>
        <time>2015-06-28T10:45:36.000Z</time>
      </trkpt>
      <trkpt lat="47.50877" lon="6.769">
        <ele>379</ele>
        <time>2015-06-28T10:45:37.000Z</time>
      </trkpt>
      <trkpt lat="47.50883" lon="6.76907">
        <ele>379</ele>
        <time>2015-06-28T10:45:38.000Z</time>
      </trkpt>
      <trkpt lat="47.50887" lon="6.76913">
        <ele>379</ele>
        <time>2015-06-28T10:45:39.000Z</time>
      </trkpt>
      <trkpt lat="47.50892" lon="6.76919">
        <ele>372</ele>
        <time>2015-06-28T10:45:39.998Z</time>
      </trkpt>
      <trkpt lat="47.50899" lon="6.76926">
        <ele>372</ele>
        <time>2015-06-28T10:45:41.000Z</time>
      </trkpt>
      <trkpt lat="47.50905" lon="6.7693">
        <ele>372</ele>
        <time>2015-06-28T10:45:42.000Z</time>
      </trkpt>
      <trkpt lat="47.50911" lon="6.76932">
        <ele>373</ele>
        <time>2015-06-28T10:45:43.000Z</time>
      </trkpt>
      <trkpt lat="47.50917" lon="6.76935">
        <ele>375</ele>
        <time>2015-06-28T10:45:44.000Z</time>
      </trkpt>
      <trkpt lat="47.5092" lon="6.76936">
        <ele>375</ele>
        <time>2015-06-28T10:45:45.000Z</time>
      </trkpt>
      <trkpt lat="47.50925" lon="6.76939">
        <ele>374</ele>
        <time>2015-06-28T10:45:46.000Z</time>
      </trkpt>
      <trkpt lat="47.5093" lon="6.76941">
        <ele>374</ele>
        <time>2015-06-28T10:45:47.000Z</time>
      </trkpt>
      <trkpt lat="47.50936" lon="6.76941">
        <ele>374</ele>
        <time>2015-06-28T10:45:48.000Z</time>
      </trkpt>
      <trkpt lat="47.50943" lon="6.76943">
        <ele>374</ele>
        <time>2015-06-28T10:45:49.000Z</time>
      </trkpt>
      <trkpt lat="47.50949" lon="6.76944">
        <ele>373</ele>
        <time>2015-06-28T10:45:50.000Z</time>
      </trkpt>
      <trkpt lat="47.50955" lon="6.76946">
        <ele>373</ele>
        <time>2015-06-28T10:45:51.001Z</time>
      </trkpt>
      <trkpt lat="47.5096" lon="6.76951">
        <ele>373</ele>
        <time>2015-06-28T10:45:52.000Z</time>
      </trkpt>
      <trkpt lat="47.50965" lon="6.76955">
        <ele>373</ele>
        <time>2015-06-28T10:45:53.000Z</time>
      </trkpt>
      <trkpt lat="47.50969" lon="6.76959">
        <ele>373</ele>
        <time>2015-06-28T10:45:54.000Z</time>
      </trkpt>
      <trkpt lat="47.50974" lon="6.76961">
        <ele>373</ele>
        <time>2015-06-28T10:45:54.999Z</time>
      </trkpt>
      <trkpt lat="47.50979" lon="6.76963">
        <ele>373</ele>
        <time>2015-06-28T10:45:56.000Z</time>
      </trkpt>
      <trkpt lat="47.50984" lon="6.76962">
        <ele>373</ele>
        <time>2015-06-28T10:45:57.000Z</time>
      </trkpt>
      <trkpt lat="47.50988" lon="6.76955">
        <ele>373</ele>
        <time>2015-06-28T10:45:58.000Z</time>
      </trkpt>
      <trkpt lat="47.50993" lon="6.7695">
        <ele>374</ele>
        <time>2015-06-28T10:45:59.000Z</time>
      </trkpt>
      <trkpt lat="47.50998" lon="6.76945">
        <ele>374</ele>
        <time>2015-06-28T10:46:00.000Z</time>
      </trkpt>
      <trkpt lat="47.51002" lon="6.76941">
        <ele>375</ele>
        <time>2015-06-28T10:46:00.999Z</time>
      </trkpt>
      <trkpt lat="47.5101" lon="6.76949">
        <ele>375</ele>
        <time>2015-06-28T10:46:02.000Z</time>
      </trkpt>
      <trkpt lat="47.51015" lon="6.76952">
        <ele>375</ele>
        <time>2015-06-28T10:46:03.000Z</time>
      </trkpt>
      <trkpt lat="47.51021" lon="6.76955">
        <ele>375</ele>
        <time>2015-06-28T10:46:04.000Z</time>
      </trkpt>
      <trkpt lat="47.51026" lon="6.76958">
        <ele>375</ele>
        <time>2015-06-28T10:46:05.000Z</time>
      </trkpt>
      <trkpt lat="47.51032" lon="6.7696">
        <ele>375</ele>
        <time>2015-06-28T10:46:06.000Z</time>
      </trkpt>
      <trkpt lat="47.51037" lon="6.76963">
        <ele>375</ele>
        <time>2015-06-28T10:46:07.000Z</time>
      </trkpt>
      <trkpt lat="47.51038" lon="6.76967">
        <ele>375</ele>
        <time>2015-06-28T10:46:08.000Z</time>
      </trkpt>
      <trkpt lat="47.51045" lon="6.76975">
        <ele>375</ele>
        <time>2015-06-28T10:46:09.000Z</time>
      </trkpt>
      <trkpt lat="47.51049" lon="6.76978">
        <ele>375</ele>
        <time>2015-06-28T10:46:10.000Z</time>
      </trkpt>
      <trkpt lat="47.51052" lon="6.76981">
        <ele>375</ele>
        <time>2015-06-28T10:46:11.000Z</time>
      </trkpt>
      <trkpt lat="47.51055" lon="6.76986">
        <ele>375</ele>
        <time>2015-06-28T10:46:12.000Z</time>
      </trkpt>
      <trkpt lat="47.51059" lon="6.7699">
        <ele>375</ele>
        <time>2015-06-28T10:46:13.000Z</time>
      </trkpt>
      <trkpt lat="47.51063" lon="6.76994">
        <ele>375</ele>
        <time>2015-06-28T10:46:14.000Z</time>
      </trkpt>
      <trkpt lat="47.51068" lon="6.76998">
        <ele>375</ele>
        <time>2015-06-28T10:46:15.000Z</time>
      </trkpt>
      <trkpt lat="47.51074" lon="6.77003">
        <ele>374</ele>
        <time>2015-06-28T10:46:16.000Z</time>
      </trkpt>
      <trkpt lat="47.51076" lon="6.77001">
        <ele>374</ele>
        <time>2015-06-28T10:46:17.000Z</time>
      </trkpt>
      <trkpt lat="47.51079" lon="6.77003">
        <ele>374</ele>
        <time>2015-06-28T10:46:18.000Z</time>
      </trkpt>
      <trkpt lat="47.51086" lon="6.77012">
        <ele>375</ele>
        <time>2015-06-28T10:46:19.000Z</time>
      </trkpt>
      <trkpt lat="47.51092" lon="6.7702">
        <ele>375</ele>
        <time>2015-06-28T10:46:20.000Z</time>
      </trkpt>
      <trkpt lat="47.511" lon="6.77025">
        <ele>375</ele>
        <time>2015-06-28T10:46:21.000Z</time>
      </trkpt>
      <trkpt lat="47.51106" lon="6.7703">
        <ele>375</ele>
        <time>2015-06-28T10:46:22.000Z</time>
      </trkpt>
      <trkpt lat="47.51112" lon="6.77035">
        <ele>375</ele>
        <time>2015-06-28T10:46:23.000Z</time>
      </trkpt>
      <trkpt lat="47.51116" lon="6.77039">
        <ele>375</ele>
        <time>2015-06-28T10:46:24.000Z</time>
      </trkpt>
      <trkpt lat="47.51122" lon="6.77043">
        <ele>375</ele>
        <time>2015-06-28T10:46:25.000Z</time>
      </trkpt>
      <trkpt lat="47.51127" lon="6.77046">
        <ele>375</ele>
        <time>2015-06-28T10:46:26.000Z</time>
      </trkpt>
      <trkpt lat="47.51133" lon="6.7705">
        <ele>375</ele>
        <time>2015-06-28T10:46:27.000Z</time>
      </trkpt>
      <trkpt lat="47.51138" lon="6.77054">
        <ele>376</ele>
        <time>2015-06-28T10:46:28.000Z</time>
      </trkpt>
      <trkpt lat="47.51141" lon="6.77058">
        <ele>376</ele>
        <time>2015-06-28T10:46:29.000Z</time>
      </trkpt>
      <trkpt lat="47.51145" lon="6.77063">
        <ele>376</ele>
        <time>2015-06-28T10:46:30.000Z</time>
      </trkpt>
      <trkpt lat="47.5115" lon="6.77068">
        <ele>376</ele>
        <time>2015-06-28T10:46:31.000Z</time>
      </trkpt>
      <trkpt lat="47.51154" lon="6.77073">
        <ele>377</ele>
        <time>2015-06-28T10:46:32.000Z</time>
      </trkpt>
      <trkpt lat="47.51157" lon="6.77077">
        <ele>377</ele>
        <time>2015-06-28T10:46:33.000Z</time>
      </trkpt>
      <trkpt lat="47.51161" lon="6.77082">
        <ele>377</ele>
        <time>2015-06-28T10:46:34.000Z</time>
      </trkpt>
      <trkpt lat="47.51165" lon="6.77087">
        <ele>377</ele>
        <time>2015-06-28T10:46:35.000Z</time>
      </trkpt>
      <trkpt lat="47.51168" lon="6.77093">
        <ele>378</ele>
        <time>2015-06-28T10:46:36.000Z</time>
      </trkpt>
      <trkpt lat="47.51171" lon="6.77099">
        <ele>378</ele>
        <time>2015-06-28T10:46:37.000Z</time>
      </trkpt>
      <trkpt lat="47.51174" lon="6.77104">
        <ele>378</ele>
        <time>2015-06-28T10:46:38.000Z</time>
      </trkpt>
      <trkpt lat="47.51177" lon="6.77109">
        <ele>378</ele>
        <time>2015-06-28T10:46:39.000Z</time>
      </trkpt>
      <trkpt lat="47.5118" lon="6.77113">
        <ele>378</ele>
        <time>2015-06-28T10:46:40.000Z</time>
      </trkpt>
      <trkpt lat="47.51184" lon="6.77119">
        <ele>378</ele>
        <time>2015-06-28T10:46:41.000Z</time>
      </trkpt>
      <trkpt lat="47.51186" lon="6.77124">
        <ele>378</ele>
        <time>2015-06-28T10:46:42.000Z</time>
      </trkpt>
      <trkpt lat="47.51189" lon="6.77129">
        <ele>378</ele>
        <time>2015-06-28T10:46:43.000Z</time>
      </trkpt>
      <trkpt lat="47.51192" lon="6.77134">
        <ele>378</ele>
        <time>2015-06-28T10:46:44.000Z</time>
      </trkpt>
      <trkpt lat="47.51196" lon="6.77139">
        <ele>378</ele>
        <time>2015-06-28T10:46:45.000Z</time>
      </trkpt>
      <trkpt lat="47.51198" lon="6.77144">
        <ele>378</ele>
        <time>2015-06-28T10:46:46.000Z</time>
      </trkpt>
      <trkpt lat="47.51201" lon="6.77148">
        <ele>378</ele>
        <time>2015-06-28T10:46:47.000Z</time>
      </trkpt>
      <trkpt lat="47.51204" lon="6.77153">
        <ele>378</ele>
        <time>2015-06-28T10:46:47.998Z</time>
      </trkpt>
      <trkpt lat="47.51205" lon="6.77157">
        <ele>378</ele>
        <time>2015-06-28T10:46:49.000Z</time>
      </trkpt>
      <trkpt lat="47.51207" lon="6.77163">
        <ele>378</ele>
        <time>2015-06-28T10:46:50.000Z</time>
      </trkpt>
      <trkpt lat="47.51209" lon="6.7717">
        <ele>376</ele>
        <time>2015-06-28T10:46:51.000Z</time>
      </trkpt>
      <trkpt lat="47.51212" lon="6.77174">
        <ele>376</ele>
        <time>2015-06-28T10:46:52.000Z</time>
      </trkpt>
      <trkpt lat="47.51214" lon="6.77179">
        <ele>376</ele>
        <time>2015-06-28T10:46:53.000Z</time>
      </trkpt>
      <trkpt lat="47.51218" lon="6.77182">
        <ele>376</ele>
        <time>2015-06-28T10:46:54.000Z</time>
      </trkpt>
      <trkpt lat="47.51221" lon="6.77188">
        <ele>376</ele>
        <time>2015-06-28T10:46:55.000Z</time>
      </trkpt>
      <trkpt lat="47.51225" lon="6.77193">
        <ele>376</ele>
        <time>2015-06-28T10:46:55.999Z</time>
      </trkpt>
      <trkpt lat="47.51228" lon="6.77198">
        <ele>376</ele>
        <time>2015-06-28T10:46:57.001Z</time>
      </trkpt>
      <trkpt lat="47.5123" lon="6.77202">
        <ele>376</ele>
        <time>2015-06-28T10:46:58.001Z</time>
      </trkpt>
      <trkpt lat="47.51233" lon="6.77208">
        <ele>376</ele>
        <time>2015-06-28T10:46:59.000Z</time>
      </trkpt>
      <trkpt lat="47.51233" lon="6.7721">
        <ele>376</ele>
        <time>2015-06-28T10:47:00.000Z</time>
      </trkpt>
      <trkpt lat="47.51236" lon="6.77213">
        <ele>376</ele>
        <time>2015-06-28T10:47:01.000Z</time>
      </trkpt>
      <trkpt lat="47.51239" lon="6.77216">
        <ele>376</ele>
        <time>2015-06-28T10:47:02.002Z</time>
      </trkpt>
      <trkpt lat="47.51242" lon="6.77223">
        <ele>376</ele>
        <time>2015-06-28T10:47:03.000Z</time>
      </trkpt>
      <trkpt lat="47.51244" lon="6.77228">
        <ele>376</ele>
        <time>2015-06-28T10:47:04.000Z</time>
      </trkpt>
      <trkpt lat="47.51247" lon="6.77232">
        <ele>377</ele>
        <time>2015-06-28T10:47:05.000Z</time>
      </trkpt>
      <trkpt lat="47.51249" lon="6.77237">
        <ele>377</ele>
        <time>2015-06-28T10:47:06.000Z</time>
      </trkpt>
      <trkpt lat="47.51251" lon="6.77241">
        <ele>379</ele>
        <time>2015-06-28T10:47:07.000Z</time>
      </trkpt>
      <trkpt lat="47.51253" lon="6.77246">
        <ele>379</ele>
        <time>2015-06-28T10:47:08.000Z</time>
      </trkpt>
      <trkpt lat="47.51256" lon="6.7725">
        <ele>378</ele>
        <time>2015-06-28T10:47:09.000Z</time>
      </trkpt>
      <trkpt lat="47.51259" lon="6.77255">
        <ele>378</ele>
        <time>2015-06-28T10:47:10.000Z</time>
      </trkpt>
      <trkpt lat="47.51262" lon="6.77259">
        <ele>378</ele>
        <time>2015-06-28T10:47:11.000Z</time>
      </trkpt>
      <trkpt lat="47.51268" lon="6.77263">
        <ele>377</ele>
        <time>2015-06-28T10:47:12.000Z</time>
      </trkpt>
      <trkpt lat="47.51271" lon="6.77265">
        <ele>377</ele>
        <time>2015-06-28T10:47:13.000Z</time>
      </trkpt>
      <trkpt lat="47.51278" lon="6.7727">
        <ele>377</ele>
        <time>2015-06-28T10:47:14.000Z</time>
      </trkpt>
      <trkpt lat="47.51283" lon="6.77273">
        <ele>377</ele>
        <time>2015-06-28T10:47:15.000Z</time>
      </trkpt>
      <trkpt lat="47.51286" lon="6.77276">
        <ele>377</ele>
        <time>2015-06-28T10:47:16.000Z</time>
      </trkpt>
      <trkpt lat="47.5129" lon="6.77278">
        <ele>377</ele>
        <time>2015-06-28T10:47:17.000Z</time>
      </trkpt>
      <trkpt lat="47.51294" lon="6.77281">
        <ele>377</ele>
        <time>2015-06-28T10:47:18.000Z</time>
      </trkpt>
      <trkpt lat="47.51302" lon="6.77283">
        <ele>377</ele>
        <time>2015-06-28T10:47:19.000Z</time>
      </trkpt>
      <trkpt lat="47.51308" lon="6.77286">
        <ele>377</ele>
        <time>2015-06-28T10:47:20.000Z</time>
      </trkpt>
      <trkpt lat="47.51314" lon="6.77288">
        <ele>377</ele>
        <time>2015-06-28T10:47:21.000Z</time>
      </trkpt>
      <trkpt lat="47.51319" lon="6.7729">
        <ele>378</ele>
        <time>2015-06-28T10:47:22.000Z</time>
      </trkpt>
      <trkpt lat="47.51325" lon="6.7729">
        <ele>378</ele>
        <time>2015-06-28T10:47:23.000Z</time>
      </trkpt>
      <trkpt lat="47.51332" lon="6.77289">
        <ele>378</ele>
        <time>2015-06-28T10:47:24.000Z</time>
      </trkpt>
      <trkpt lat="47.51338" lon="6.77286">
        <ele>378</ele>
        <time>2015-06-28T10:47:25.000Z</time>
      </trkpt>
      <trkpt lat="47.51344" lon="6.77282">
        <ele>378</ele>
        <time>2015-06-28T10:47:26.000Z</time>
      </trkpt>
      <trkpt lat="47.51351" lon="6.77276">
        <ele>378</ele>
        <time>2015-06-28T10:47:27.000Z</time>
      </trkpt>
      <trkpt lat="47.51358" lon="6.77271">
        <ele>378</ele>
        <time>2015-06-28T10:47:28.000Z</time>
      </trkpt>
      <trkpt lat="47.51365" lon="6.77264">
        <ele>378</ele>
        <time>2015-06-28T10:47:29.000Z</time>
      </trkpt>
      <trkpt lat="47.51373" lon="6.77258">
        <ele>378</ele>
        <time>2015-06-28T10:47:30.000Z</time>
      </trkpt>
      <trkpt lat="47.51381" lon="6.77253">
        <ele>377</ele>
        <time>2015-06-28T10:47:31.000Z</time>
      </trkpt>
      <trkpt lat="47.51389" lon="6.77247">
        <ele>376</ele>
        <time>2015-06-28T10:47:32.000Z</time>
      </trkpt>
      <trkpt lat="47.51397" lon="6.77242">
        <ele>376</ele>
        <time>2015-06-28T10:47:33.000Z</time>
      </trkpt>
      <trkpt lat="47.51406" lon="6.77236">
        <ele>376</ele>
        <time>2015-06-28T10:47:34.000Z</time>
      </trkpt>
      <trkpt lat="47.51414" lon="6.77232">
        <ele>376</ele>
        <time>2015-06-28T10:47:35.000Z</time>
      </trkpt>
      <trkpt lat="47.51423" lon="6.77227">
        <ele>375</ele>
        <time>2015-06-28T10:47:36.000Z</time>
      </trkpt>
      <trkpt lat="47.51431" lon="6.77223">
        <ele>375</ele>
        <time>2015-06-28T10:47:37.000Z</time>
      </trkpt>
      <trkpt lat="47.51439" lon="6.77219">
        <ele>375</ele>
        <time>2015-06-28T10:47:38.000Z</time>
      </trkpt>
      <trkpt lat="47.51447" lon="6.77216">
        <ele>375</ele>
        <time>2015-06-28T10:47:39.000Z</time>
      </trkpt>
      <trkpt lat="47.51454" lon="6.77212">
        <ele>375</ele>
        <time>2015-06-28T10:47:40.000Z</time>
      </trkpt>
      <trkpt lat="47.51461" lon="6.77208">
        <ele>375</ele>
        <time>2015-06-28T10:47:41.000Z</time>
      </trkpt>
      <trkpt lat="47.51468" lon="6.77206">
        <ele>375</ele>
        <time>2015-06-28T10:47:42.000Z</time>
      </trkpt>
      <trkpt lat="47.51473" lon="6.77204">
        <ele>375</ele>
        <time>2015-06-28T10:47:43.000Z</time>
      </trkpt>
      <trkpt lat="47.51477" lon="6.77205">
        <ele>375</ele>
        <time>2015-06-28T10:47:44.000Z</time>
      </trkpt>
      <trkpt lat="47.5148" lon="6.77209">
        <ele>375</ele>
        <time>2015-06-28T10:47:45.000Z</time>
      </trkpt>
      <trkpt lat="47.51482" lon="6.77214">
        <ele>375</ele>
        <time>2015-06-28T10:47:46.000Z</time>
      </trkpt>
      <trkpt lat="47.51483" lon="6.77221">
        <ele>375</ele>
        <time>2015-06-28T10:47:47.000Z</time>
      </trkpt>
      <trkpt lat="47.51483" lon="6.77228">
        <ele>375</ele>
        <time>2015-06-28T10:47:48.000Z</time>
      </trkpt>
      <trkpt lat="47.51483" lon="6.77235">
        <ele>375</ele>
        <time>2015-06-28T10:47:49.000Z</time>
      </trkpt>
      <trkpt lat="47.51484" lon="6.77241">
        <ele>375</ele>
        <time>2015-06-28T10:47:50.000Z</time>
      </trkpt>
      <trkpt lat="47.51484" lon="6.77248">
        <ele>376</ele>
        <time>2015-06-28T10:47:51.000Z</time>
      </trkpt>
      <trkpt lat="47.51484" lon="6.77255">
        <ele>376</ele>
        <time>2015-06-28T10:47:52.000Z</time>
      </trkpt>
      <trkpt lat="47.51484" lon="6.77261">
        <ele>376</ele>
        <time>2015-06-28T10:47:53.000Z</time>
      </trkpt>
      <trkpt lat="47.51484" lon="6.77267">
        <ele>376</ele>
        <time>2015-06-28T10:47:54.000Z</time>
      </trkpt>
      <trkpt lat="47.51485" lon="6.77275">
        <ele>377</ele>
        <time>2015-06-28T10:47:55.000Z</time>
      </trkpt>
      <trkpt lat="47.51486" lon="6.77281">
        <ele>377</ele>
        <time>2015-06-28T10:47:56.000Z</time>
      </trkpt>
      <trkpt lat="47.51486" lon="6.77288">
        <ele>377</ele>
        <time>2015-06-28T10:47:57.000Z</time>
      </trkpt>
      <trkpt lat="47.51486" lon="6.77295">
        <ele>377</ele>
        <time>2015-06-28T10:47:58.000Z</time>
      </trkpt>
      <trkpt lat="47.51488" lon="6.77301">
        <ele>377</ele>
        <time>2015-06-28T10:47:59.000Z</time>
      </trkpt>
      <trkpt lat="47.51488" lon="6.77307">
        <ele>377</ele>
        <time>2015-06-28T10:48:00.000Z</time>
      </trkpt>
      <trkpt lat="47.51491" lon="6.77312">
        <ele>377</ele>
        <time>2015-06-28T10:48:01.000Z</time>
      </trkpt>
      <trkpt lat="47.51494" lon="6.77316">
        <ele>377</ele>
        <time>2015-06-28T10:48:02.000Z</time>
      </trkpt>
      <trkpt lat="47.51497" lon="6.77319">
        <ele>377</ele>
        <time>2015-06-28T10:48:03.000Z</time>
      </trkpt>
      <trkpt lat="47.515" lon="6.77322">
        <ele>378</ele>
        <time>2015-06-28T10:48:04.000Z</time>
      </trkpt>
      <trkpt lat="47.51503" lon="6.77325">
        <ele>378</ele>
        <time>2015-06-28T10:48:04.998Z</time>
      </trkpt>
      <trkpt lat="47.51505" lon="6.77328">
        <ele>378</ele>
        <time>2015-06-28T10:48:06.000Z</time>
      </trkpt>
      <trkpt lat="47.51508" lon="6.77331">
        <ele>378</ele>
        <time>2015-06-28T10:48:07.000Z</time>
      </trkpt>
      <trkpt lat="47.5151" lon="6.77334">
        <ele>379</ele>
        <time>2015-06-28T10:48:08.000Z</time>
      </trkpt>
      <trkpt lat="47.51512" lon="6.77336">
        <ele>379</ele>
        <time>2015-06-28T10:48:09.000Z</time>
      </trkpt>
      <trkpt lat="47.51515" lon="6.77338">
        <ele>379</ele>
        <time>2015-06-28T10:48:10.000Z</time>
      </trkpt>
      <trkpt lat="47.51518" lon="6.7734">
        <ele>379</ele>
        <time>2015-06-28T10:48:11.000Z</time>
      </trkpt>
      <trkpt lat="47.5152" lon="6.77343">
        <ele>379</ele>
        <time>2015-06-28T10:48:12.000Z</time>
      </trkpt>
      <trkpt lat="47.51523" lon="6.77345">
        <ele>380</ele>
        <time>2015-06-28T10:48:13.000Z</time>
      </trkpt>
      <trkpt lat="47.51525" lon="6.77348">
        <ele>380</ele>
        <time>2015-06-28T10:48:14.000Z</time>
      </trkpt>
      <trkpt lat="47.51528" lon="6.77351">
        <ele>380</ele>
        <time>2015-06-28T10:48:15.001Z</time>
      </trkpt>
      <trkpt lat="47.51531" lon="6.77354">
        <ele>380</ele>
        <time>2015-06-28T10:48:16.000Z</time>
      </trkpt>
      <trkpt lat="47.51534" lon="6.77357">
        <ele>380</ele>
        <time>2015-06-28T10:48:17.000Z</time>
      </trkpt>
      <trkpt lat="47.51536" lon="6.77361">
        <ele>380</ele>
        <time>2015-06-28T10:48:18.000Z</time>
      </trkpt>
      <trkpt lat="47.51539" lon="6.77364">
        <ele>380</ele>
        <time>2015-06-28T10:48:19.000Z</time>
      </trkpt>
      <trkpt lat="47.51542" lon="6.77368">
        <ele>380</ele>
        <time>2015-06-28T10:48:20.000Z</time>
      </trkpt>
      <trkpt lat="47.51545" lon="6.77371">
        <ele>381</ele>
        <time>2015-06-28T10:48:21.000Z</time>
      </trkpt>
      <trkpt lat="47.51547" lon="6.77374">
        <ele>381</ele>
        <time>2015-06-28T10:48:22.000Z</time>
      </trkpt>
      <trkpt lat="47.51549" lon="6.77378">
        <ele>381</ele>
        <time>2015-06-28T10:48:23.000Z</time>
      </trkpt>
      <trkpt lat="47.51552" lon="6.7738">
        <ele>381</ele>
        <time>2015-06-28T10:48:24.000Z</time>
      </trkpt>
      <trkpt lat="47.51554" lon="6.77383">
        <ele>381</ele>
        <time>2015-06-28T10:48:25.000Z</time>
      </trkpt>
      <trkpt lat="47.51557" lon="6.77385">
        <ele>381</ele>
        <time>2015-06-28T10:48:26.000Z</time>
      </trkpt>
      <trkpt lat="47.51559" lon="6.77387">
        <ele>381</ele>
        <time>2015-06-28T10:48:27.000Z</time>
      </trkpt>
      <trkpt lat="47.51561" lon="6.77388">
        <ele>381</ele>
        <time>2015-06-28T10:48:28.000Z</time>
      </trkpt>
      <trkpt lat="47.51563" lon="6.77392">
        <ele>381</ele>
        <time>2015-06-28T10:48:30.000Z</time>
      </trkpt>
      <trkpt lat="47.51565" lon="6.77395">
        <ele>381</ele>
        <time>2015-06-28T10:48:31.000Z</time>
      </trkpt>
      <trkpt lat="47.51567" lon="6.77398">
        <ele>381</ele>
        <time>2015-06-28T10:48:32.000Z</time>
      </trkpt>
      <trkpt lat="47.5157" lon="6.77401">
        <ele>382</ele>
        <time>2015-06-28T10:48:33.000Z</time>
      </trkpt>
      <trkpt lat="47.51572" lon="6.77405">
        <ele>382</ele>
        <time>2015-06-28T10:48:34.000Z</time>
      </trkpt>
      <trkpt lat="47.51575" lon="6.77408">
        <ele>382</ele>
        <time>2015-06-28T10:48:35.000Z</time>
      </trkpt>
      <trkpt lat="47.51578" lon="6.77412">
        <ele>382</ele>
        <time>2015-06-28T10:48:36.000Z</time>
      </trkpt>
      <trkpt lat="47.51581" lon="6.77415">
        <ele>383</ele>
        <time>2015-06-28T10:48:37.000Z</time>
      </trkpt>
      <trkpt lat="47.51584" lon="6.77419">
        <ele>383</ele>
        <time>2015-06-28T10:48:38.000Z</time>
      </trkpt>
      <trkpt lat="47.51587" lon="6.77422">
        <ele>384</ele>
        <time>2015-06-28T10:48:39.000Z</time>
      </trkpt>
      <trkpt lat="47.5159" lon="6.77426">
        <ele>384</ele>
        <time>2015-06-28T10:48:40.000Z</time>
      </trkpt>
      <trkpt lat="47.51593" lon="6.7743">
        <ele>384</ele>
        <time>2015-06-28T10:48:41.000Z</time>
      </trkpt>
      <trkpt lat="47.51595" lon="6.77434">
        <ele>385</ele>
        <time>2015-06-28T10:48:42.000Z</time>
      </trkpt>
      <trkpt lat="47.51598" lon="6.77437">
        <ele>385</ele>
        <time>2015-06-28T10:48:43.000Z</time>
      </trkpt>
      <trkpt lat="47.51601" lon="6.7744">
        <ele>385</ele>
        <time>2015-06-28T10:48:44.000Z</time>
      </trkpt>
      <trkpt lat="47.51604" lon="6.77443">
        <ele>385</ele>
        <time>2015-06-28T10:48:45.000Z</time>
      </trkpt>
      <trkpt lat="47.51607" lon="6.77446">
        <ele>385</ele>
        <time>2015-06-28T10:48:46.000Z</time>
      </trkpt>
      <trkpt lat="47.51609" lon="6.7745">
        <ele>385</ele>
        <time>2015-06-28T10:48:47.000Z</time>
      </trkpt>
      <trkpt lat="47.51611" lon="6.77454">
        <ele>385</ele>
        <time>2015-06-28T10:48:48.000Z</time>
      </trkpt>
      <trkpt lat="47.51613" lon="6.77458">
        <ele>386</ele>
        <time>2015-06-28T10:48:49.000Z</time>
      </trkpt>
      <trkpt lat="47.51616" lon="6.77461">
        <ele>386</ele>
        <time>2015-06-28T10:48:50.000Z</time>
      </trkpt>
      <trkpt lat="47.51618" lon="6.77465">
        <ele>386</ele>
        <time>2015-06-28T10:48:51.000Z</time>
      </trkpt>
      <trkpt lat="47.5162" lon="6.77468">
        <ele>386</ele>
        <time>2015-06-28T10:48:52.000Z</time>
      </trkpt>
      <trkpt lat="47.51621" lon="6.77471">
        <ele>386</ele>
        <time>2015-06-28T10:48:53.000Z</time>
      </trkpt>
      <trkpt lat="47.51623" lon="6.77474">
        <ele>386</ele>
        <time>2015-06-28T10:48:55.000Z</time>
      </trkpt>
      <trkpt lat="47.51624" lon="6.77476">
        <ele>386</ele>
        <time>2015-06-28T10:48:56.000Z</time>
      </trkpt>
      <trkpt lat="47.51626" lon="6.7748">
        <ele>386</ele>
        <time>2015-06-28T10:48:58.000Z</time>
      </trkpt>
      <trkpt lat="47.51628" lon="6.77484">
        <ele>386</ele>
        <time>2015-06-28T10:48:59.000Z</time>
      </trkpt>
      <trkpt lat="47.5163" lon="6.77487">
        <ele>386</ele>
        <time>2015-06-28T10:49:00.000Z</time>
      </trkpt>
      <trkpt lat="47.51633" lon="6.7749">
        <ele>386</ele>
        <time>2015-06-28T10:49:01.000Z</time>
      </trkpt>
      <trkpt lat="47.51635" lon="6.77494">
        <ele>387</ele>
        <time>2015-06-28T10:49:02.000Z</time>
      </trkpt>
      <trkpt lat="47.51638" lon="6.77498">
        <ele>387</ele>
        <time>2015-06-28T10:49:03.000Z</time>
      </trkpt>
      <trkpt lat="47.51641" lon="6.77501">
        <ele>388</ele>
        <time>2015-06-28T10:49:04.000Z</time>
      </trkpt>
      <trkpt lat="47.51644" lon="6.77505">
        <ele>388</ele>
        <time>2015-06-28T10:49:05.000Z</time>
      </trkpt>
      <trkpt lat="47.51647" lon="6.77508">
        <ele>388</ele>
        <time>2015-06-28T10:49:06.000Z</time>
      </trkpt>
      <trkpt lat="47.5165" lon="6.77512">
        <ele>388</ele>
        <time>2015-06-28T10:49:07.000Z</time>
      </trkpt>
      <trkpt lat="47.51653" lon="6.77515">
        <ele>388</ele>
        <time>2015-06-28T10:49:08.000Z</time>
      </trkpt>
      <trkpt lat="47.51655" lon="6.77517">
        <ele>388</ele>
        <time>2015-06-28T10:49:09.000Z</time>
      </trkpt>
      <trkpt lat="47.51657" lon="6.77522">
        <ele>388</ele>
        <time>2015-06-28T10:49:11.000Z</time>
      </trkpt>
      <trkpt lat="47.51659" lon="6.77525">
        <ele>388</ele>
        <time>2015-06-28T10:49:12.000Z</time>
      </trkpt>
      <trkpt lat="47.51662" lon="6.77527">
        <ele>388</ele>
        <time>2015-06-28T10:49:13.000Z</time>
      </trkpt>
      <trkpt lat="47.51666" lon="6.77529">
        <ele>388</ele>
        <time>2015-06-28T10:49:14.000Z</time>
      </trkpt>
      <trkpt lat="47.5167" lon="6.77531">
        <ele>390</ele>
        <time>2015-06-28T10:49:15.000Z</time>
      </trkpt>
      <trkpt lat="47.51674" lon="6.77533">
        <ele>390</ele>
        <time>2015-06-28T10:49:16.000Z</time>
      </trkpt>
      <trkpt lat="47.51678" lon="6.77533">
        <ele>390</ele>
        <time>2015-06-28T10:49:17.000Z</time>
      </trkpt>
      <trkpt lat="47.51682" lon="6.77535">
        <ele>390</ele>
        <time>2015-06-28T10:49:18.000Z</time>
      </trkpt>
      <trkpt lat="47.51685" lon="6.77536">
        <ele>390</ele>
        <time>2015-06-28T10:49:19.000Z</time>
      </trkpt>
      <trkpt lat="47.51689" lon="6.77539">
        <ele>390</ele>
        <time>2015-06-28T10:49:20.000Z</time>
      </trkpt>
      <trkpt lat="47.51692" lon="6.77543">
        <ele>390</ele>
        <time>2015-06-28T10:49:21.000Z</time>
      </trkpt>
      <trkpt lat="47.51695" lon="6.77546">
        <ele>390</ele>
        <time>2015-06-28T10:49:22.000Z</time>
      </trkpt>
      <trkpt lat="47.51697" lon="6.77551">
        <ele>390</ele>
        <time>2015-06-28T10:49:23.000Z</time>
      </trkpt>
      <trkpt lat="47.51699" lon="6.77555">
        <ele>390</ele>
        <time>2015-06-28T10:49:24.000Z</time>
      </trkpt>
      <trkpt lat="47.51701" lon="6.77557">
        <ele>390</ele>
        <time>2015-06-28T10:49:25.000Z</time>
      </trkpt>
      <trkpt lat="47.51704" lon="6.77558">
        <ele>390</ele>
        <time>2015-06-28T10:49:26.000Z</time>
      </trkpt>
      <trkpt lat="47.51707" lon="6.77557">
        <ele>390</ele>
        <time>2015-06-28T10:49:27.000Z</time>
      </trkpt>
      <trkpt lat="47.51711" lon="6.77555">
        <ele>390</ele>
        <time>2015-06-28T10:49:28.000Z</time>
      </trkpt>
      <trkpt lat="47.51714" lon="6.77551">
        <ele>390</ele>
        <time>2015-06-28T10:49:29.000Z</time>
      </trkpt>
      <trkpt lat="47.51717" lon="6.77546">
        <ele>390</ele>
        <time>2015-06-28T10:49:30.000Z</time>
      </trkpt>
      <trkpt lat="47.51718" lon="6.77539">
        <ele>390</ele>
        <time>2015-06-28T10:49:31.000Z</time>
      </trkpt>
      <trkpt lat="47.5172" lon="6.77533">
        <ele>390</ele>
        <time>2015-06-28T10:49:32.000Z</time>
      </trkpt>
      <trkpt lat="47.51721" lon="6.77526">
        <ele>390</ele>
        <time>2015-06-28T10:49:33.000Z</time>
      </trkpt>
      <trkpt lat="47.51722" lon="6.7752">
        <ele>390</ele>
        <time>2015-06-28T10:49:34.000Z</time>
      </trkpt>
      <trkpt lat="47.51724" lon="6.77514">
        <ele>390</ele>
        <time>2015-06-28T10:49:35.000Z</time>
      </trkpt>
      <trkpt lat="47.51725" lon="6.77508">
        <ele>390</ele>
        <time>2015-06-28T10:49:36.000Z</time>
      </trkpt>
      <trkpt lat="47.51726" lon="6.77503">
        <ele>390</ele>
        <time>2015-06-28T10:49:37.000Z</time>
      </trkpt>
      <trkpt lat="47.51727" lon="6.77497">
        <ele>389</ele>
        <time>2015-06-28T10:49:38.000Z</time>
      </trkpt>
      <trkpt lat="47.51728" lon="6.77491">
        <ele>389</ele>
        <time>2015-06-28T10:49:39.000Z</time>
      </trkpt>
      <trkpt lat="47.51731" lon="6.77486">
        <ele>389</ele>
        <time>2015-06-28T10:49:40.000Z</time>
      </trkpt>
      <trkpt lat="47.51738" lon="6.77484">
        <ele>389</ele>
        <time>2015-06-28T10:49:41.000Z</time>
      </trkpt>
      <trkpt lat="47.51741" lon="6.77486">
        <ele>389</ele>
        <time>2015-06-28T10:49:42.000Z</time>
      </trkpt>
      <trkpt lat="47.51745" lon="6.77486">
        <ele>389</ele>
        <time>2015-06-28T10:49:43.000Z</time>
      </trkpt>
      <trkpt lat="47.51749" lon="6.77486">
        <ele>389</ele>
        <time>2015-06-28T10:49:44.000Z</time>
      </trkpt>
      <trkpt lat="47.51753" lon="6.77487">
        <ele>389</ele>
        <time>2015-06-28T10:49:45.000Z</time>
      </trkpt>
      <trkpt lat="47.51757" lon="6.77486">
        <ele>389</ele>
        <time>2015-06-28T10:49:46.000Z</time>
      </trkpt>
      <trkpt lat="47.51762" lon="6.77486">
        <ele>389</ele>
        <time>2015-06-28T10:49:47.000Z</time>
      </trkpt>
      <trkpt lat="47.51768" lon="6.77487">
        <ele>389</ele>
        <time>2015-06-28T10:49:48.000Z</time>
      </trkpt>
      <trkpt lat="47.51772" lon="6.77488">
        <ele>389</ele>
        <time>2015-06-28T10:49:49.000Z</time>
      </trkpt>
      <trkpt lat="47.51777" lon="6.77489">
        <ele>388</ele>
        <time>2015-06-28T10:49:50.000Z</time>
      </trkpt>
      <trkpt lat="47.51782" lon="6.77491">
        <ele>388</ele>
        <time>2015-06-28T10:49:51.000Z</time>
      </trkpt>
      <trkpt lat="47.51788" lon="6.77493">
        <ele>388</ele>
        <time>2015-06-28T10:49:52.000Z</time>
      </trkpt>
      <trkpt lat="47.51792" lon="6.77495">
        <ele>388</ele>
        <time>2015-06-28T10:49:53.000Z</time>
      </trkpt>
      <trkpt lat="47.51797" lon="6.77498">
        <ele>388</ele>
        <time>2015-06-28T10:49:54.000Z</time>
      </trkpt>
      <trkpt lat="47.51802" lon="6.77498">
        <ele>388</ele>
        <time>2015-06-28T10:49:55.000Z</time>
      </trkpt>
      <trkpt lat="47.51806" lon="6.77499">
        <ele>388</ele>
        <time>2015-06-28T10:49:56.000Z</time>
      </trkpt>
      <trkpt lat="47.51806" lon="6.7749">
        <ele>388</ele>
        <time>2015-06-28T10:49:57.000Z</time>
      </trkpt>
      <trkpt lat="47.51807" lon="6.77483">
        <ele>388</ele>
        <time>2015-06-28T10:49:58.000Z</time>
      </trkpt>
      <trkpt lat="47.51806" lon="6.7748">
        <ele>388</ele>
        <time>2015-06-28T10:49:59.000Z</time>
      </trkpt>
      <trkpt lat="47.51805" lon="6.77477">
        <ele>388</ele>
        <time>2015-06-28T10:50:00.000Z</time>
      </trkpt>
      <trkpt lat="47.518" lon="6.77479">
        <ele>388</ele>
        <time>2015-06-28T10:50:01.000Z</time>
      </trkpt>
      <trkpt lat="47.51798" lon="6.77474">
        <ele>388</ele>
        <time>2015-06-28T10:50:10.000Z</time>
      </trkpt>
      <trkpt lat="47.51798" lon="6.77473">
        <ele>388</ele>
        <time>2015-06-28T10:50:11.000Z</time>
      </trkpt>
      <trkpt lat="47.51798" lon="6.77467">
        <ele>388</ele>
        <time>2015-06-28T10:50:20.000Z</time>
      </trkpt>
      <trkpt lat="47.51798" lon="6.77466">
        <ele>388</ele>
        <time>2015-06-28T10:50:21.000Z</time>
      </trkpt>
      <trkpt lat="47.51795" lon="6.77462">
        <ele>388</ele>
        <time>2015-06-28T10:50:31.000Z</time>
      </trkpt>
      <trkpt lat="47.51794" lon="6.77461">
        <ele>388</ele>
        <time>2015-06-28T10:50:32.000Z</time>
      </trkpt>
      <trkpt lat="47.51795" lon="6.77455">
        <ele>388</ele>
        <time>2015-06-28T10:50:43.000Z</time>
      </trkpt>
      <trkpt lat="47.51795" lon="6.77454">
        <ele>388</ele>
        <time>2015-06-28T10:50:44.000Z</time>
      </trkpt>
      <trkpt lat="47.51796" lon="6.77447">
        <ele>388</ele>
        <time>2015-06-28T10:50:47.000Z</time>
      </trkpt>
      <trkpt lat="47.51797" lon="6.77447">
        <ele>388</ele>
        <time>2015-06-28T10:50:48.000Z</time>
      </trkpt>
      <trkpt lat="47.51801" lon="6.77451">
        <ele>388</ele>
        <time>2015-06-28T10:50:51.000Z</time>
      </trkpt>
      <trkpt lat="47.51802" lon="6.77452">
        <ele>388</ele>
        <time>2015-06-28T10:50:52.000Z</time>
      </trkpt>
      <trkpt lat="47.51804" lon="6.77458">
        <ele>388</ele>
        <time>2015-06-28T10:50:56.000Z</time>
      </trkpt>
      <trkpt lat="47.51805" lon="6.77458">
        <ele>388</ele>
        <time>2015-06-28T10:50:57.000Z</time>
      </trkpt>
      <trkpt lat="47.518" lon="6.77457">
        <ele>388</ele>
        <time>2015-06-28T10:51:15.000Z</time>
      </trkpt>
      <trkpt lat="47.51799" lon="6.77457">
        <ele>388</ele>
        <time>2015-06-28T10:51:16.000Z</time>
      </trkpt>
      <trkpt lat="47.51795" lon="6.77457">
        <ele>388</ele>
        <time>2015-06-28T10:51:20.000Z</time>
      </trkpt>
      <trkpt lat="47.51794" lon="6.77456">
        <ele>388</ele>
        <time>2015-06-28T10:51:21.000Z</time>
      </trkpt>
      <trkpt lat="47.51791" lon="6.77461">
        <ele>388</ele>
        <time>2015-06-28T10:51:54.000Z</time>
      </trkpt>
      <trkpt lat="47.51791" lon="6.77461">
        <ele>388</ele>
        <time>2015-06-28T10:51:55.000Z</time>
      </trkpt>
      <trkpt lat="47.51793" lon="6.77464">
        <ele>388</ele>
        <time>2015-06-28T10:51:59.000Z</time>
      </trkpt>
      <trkpt lat="47.51794" lon="6.77464">
        <ele>388</ele>
        <time>2015-06-28T10:52:00.000Z</time>
      </trkpt>
      <trkpt lat="47.51798" lon="6.77462">
        <ele>388</ele>
        <time>2015-06-28T10:52:09.000Z</time>
      </trkpt>
      <trkpt lat="47.51799" lon="6.77462">
        <ele>388</ele>
        <time>2015-06-28T10:52:10.000Z</time>
      </trkpt>
      <trkpt lat="47.51803" lon="6.77462">
        <ele>388</ele>
        <time>2015-06-28T10:52:19.000Z</time>
      </trkpt>
      <trkpt lat="47.51803" lon="6.77461">
        <ele>388</ele>
        <time>2015-06-28T10:52:20.000Z</time>
      </trkpt>
      <trkpt lat="47.51799" lon="6.77461">
        <ele>388</ele>
        <time>2015-06-28T10:55:06.000Z</time>
      </trkpt>
      <trkpt lat="47.51798" lon="6.77462">
        <ele>388</ele>
        <time>2015-06-28T10:55:07.000Z</time>
      </trkpt>
      <trkpt lat="47.51795" lon="6.77466">
        <ele>388</ele>
        <time>2015-06-28T10:57:49.000Z</time>
      </trkpt>
      <trkpt lat="47.51795" lon="6.77467">
        <ele>388</ele>
        <time>2015-06-28T10:57:50.000Z</time>
      </trkpt>
      <trkpt lat="47.51791" lon="6.77463">
        <ele>388</ele>
        <time>2015-06-28T10:57:58.000Z</time>
      </trkpt>
      <trkpt lat="47.51791" lon="6.77463">
        <ele>388</ele>
        <time>2015-06-28T10:57:59.000Z</time>
      </trkpt>
      <trkpt lat="47.51792" lon="6.77463">
        <ele>388</ele>
        <time>2015-06-28T10:59:33.000Z</time>
      </trkpt>
    </trkseg>
  </trk>
</gpx>